<?xml version="1.0" encoding="UTF-8" standalone="no" ?>
<gpx xmlns="http://www.topografix.com/GPX/1/1" xmlns:xsi="http://www.w3.org/2001/XMLSchema-instance" xsi:schemaLocation="http://www.topografix.com/GPX/1/1 http://www.topografix.com/GPX/1/1/gpx.xsd" version="1.1" creator="VisuGPX - https://www.visugpx.com">
  <metadata>
    <name>Vacances Avril 2019 Grenoble Camargue</name>
    <desc><![CDATA[Deuxième partie du voyage après le but dans le Nord, direction le Sud. 
Pas de pluie mais Mistral d'enfer]]></desc>
  </metadata>
  <trk>
    <name><![CDATA[20190502221855-rGymn]]></name>
    <trkseg>
      <trkpt lat="44.53211" lon="5.81591">
        <ele>871.228</ele>
        <time>2019-04-26T10:24:59Z</time>
      </trkpt>
      <trkpt lat="44.53206" lon="5.81587">
        <ele>870.6</ele>
        <time>2019-04-26T10:25:09Z</time>
      </trkpt>
      <trkpt lat="44.53207" lon="5.81593">
        <ele>869.358</ele>
        <time>2019-04-26T10:25:20Z</time>
      </trkpt>
      <trkpt lat="44.53201" lon="5.81593">
        <ele>860.738</ele>
        <time>2019-04-26T10:25:31Z</time>
      </trkpt>
      <trkpt lat="44.53201" lon="5.81591">
        <ele>860.893</ele>
        <time>2019-04-26T10:25:42Z</time>
      </trkpt>
      <trkpt lat="44.53202" lon="5.81591">
        <ele>861.047</ele>
        <time>2019-04-26T10:25:52Z</time>
      </trkpt>
      <trkpt lat="44.53203" lon="5.81589">
        <ele>861.126</ele>
        <time>2019-04-26T10:26:03Z</time>
      </trkpt>
      <trkpt lat="44.53204" lon="5.81589">
        <ele>861.293</ele>
        <time>2019-04-26T10:26:14Z</time>
      </trkpt>
      <trkpt lat="44.53208" lon="5.81581">
        <ele>862.332</ele>
        <time>2019-04-26T10:26:24Z</time>
      </trkpt>
      <trkpt lat="44.53215" lon="5.81603">
        <ele>863.751</ele>
        <time>2019-04-26T10:26:34Z</time>
      </trkpt>
      <trkpt lat="44.53233" lon="5.81651">
        <ele>864.434</ele>
        <time>2019-04-26T10:26:45Z</time>
      </trkpt>
      <trkpt lat="44.53247" lon="5.81704">
        <ele>865.683</ele>
        <time>2019-04-26T10:26:55Z</time>
      </trkpt>
      <trkpt lat="44.53259" lon="5.81761">
        <ele>866.631</ele>
        <time>2019-04-26T10:27:06Z</time>
      </trkpt>
      <trkpt lat="44.53268" lon="5.81811">
        <ele>867.59</ele>
        <time>2019-04-26T10:27:16Z</time>
      </trkpt>
      <trkpt lat="44.53275" lon="5.81864">
        <ele>868.324</ele>
        <time>2019-04-26T10:27:27Z</time>
      </trkpt>
      <trkpt lat="44.5328" lon="5.81911">
        <ele>869.286</ele>
        <time>2019-04-26T10:27:38Z</time>
      </trkpt>
      <trkpt lat="44.53284" lon="5.81957">
        <ele>869.814</ele>
        <time>2019-04-26T10:27:49Z</time>
      </trkpt>
      <trkpt lat="44.53285" lon="5.81969">
        <ele>870.406</ele>
        <time>2019-04-26T10:27:59Z</time>
      </trkpt>
      <trkpt lat="44.53304" lon="5.82011">
        <ele>871.571</ele>
        <time>2019-04-26T10:28:10Z</time>
      </trkpt>
      <trkpt lat="44.53326" lon="5.82048">
        <ele>874.711</ele>
        <time>2019-04-26T10:28:20Z</time>
      </trkpt>
      <trkpt lat="44.53327" lon="5.82079">
        <ele>876.209</ele>
        <time>2019-04-26T10:28:30Z</time>
      </trkpt>
      <trkpt lat="44.53346" lon="5.82098">
        <ele>877.467</ele>
        <time>2019-04-26T10:28:41Z</time>
      </trkpt>
      <trkpt lat="44.53366" lon="5.82134">
        <ele>877.9</ele>
        <time>2019-04-26T10:28:51Z</time>
      </trkpt>
      <trkpt lat="44.53387" lon="5.82174">
        <ele>878.44</ele>
        <time>2019-04-26T10:29:02Z</time>
      </trkpt>
      <trkpt lat="44.53402" lon="5.82206">
        <ele>878.425</ele>
        <time>2019-04-26T10:29:12Z</time>
      </trkpt>
      <trkpt lat="44.5341" lon="5.82228">
        <ele>878.362</ele>
        <time>2019-04-26T10:29:22Z</time>
      </trkpt>
      <trkpt lat="44.53402" lon="5.82266">
        <ele>879.285</ele>
        <time>2019-04-26T10:29:32Z</time>
      </trkpt>
      <trkpt lat="44.534" lon="5.82306">
        <ele>877.179</ele>
        <time>2019-04-26T10:29:43Z</time>
      </trkpt>
      <trkpt lat="44.53367" lon="5.82324">
        <ele>875.728</ele>
        <time>2019-04-26T10:29:54Z</time>
      </trkpt>
      <trkpt lat="44.53365" lon="5.82325">
        <ele>875.752</ele>
        <time>2019-04-26T10:30:04Z</time>
      </trkpt>
      <trkpt lat="44.53364" lon="5.82325">
        <ele>875.852</ele>
        <time>2019-04-26T10:30:15Z</time>
      </trkpt>
      <trkpt lat="44.53344" lon="5.82331">
        <ele>878.818</ele>
        <time>2019-04-26T10:30:26Z</time>
      </trkpt>
      <trkpt lat="44.53359" lon="5.82389">
        <ele>883.089</ele>
        <time>2019-04-26T10:30:37Z</time>
      </trkpt>
      <trkpt lat="44.53377" lon="5.82445">
        <ele>881.355</ele>
        <time>2019-04-26T10:30:47Z</time>
      </trkpt>
      <trkpt lat="44.53397" lon="5.82499">
        <ele>878.028</ele>
        <time>2019-04-26T10:30:58Z</time>
      </trkpt>
      <trkpt lat="44.53421" lon="5.82564">
        <ele>876.354</ele>
        <time>2019-04-26T10:31:09Z</time>
      </trkpt>
      <trkpt lat="44.53441" lon="5.8262">
        <ele>875.695</ele>
        <time>2019-04-26T10:31:20Z</time>
      </trkpt>
      <trkpt lat="44.5346" lon="5.82671">
        <ele>876.908</ele>
        <time>2019-04-26T10:31:31Z</time>
      </trkpt>
      <trkpt lat="44.53483" lon="5.82736">
        <ele>874.846</ele>
        <time>2019-04-26T10:31:42Z</time>
      </trkpt>
      <trkpt lat="44.53515" lon="5.82804">
        <ele>874.788</ele>
        <time>2019-04-26T10:31:53Z</time>
      </trkpt>
      <trkpt lat="44.53543" lon="5.82864">
        <ele>875.798</ele>
        <time>2019-04-26T10:32:03Z</time>
      </trkpt>
      <trkpt lat="44.53577" lon="5.82922">
        <ele>875.878</ele>
        <time>2019-04-26T10:32:13Z</time>
      </trkpt>
      <trkpt lat="44.5362" lon="5.82985">
        <ele>880.023</ele>
        <time>2019-04-26T10:32:24Z</time>
      </trkpt>
      <trkpt lat="44.53642" lon="5.83078">
        <ele>878.891</ele>
        <time>2019-04-26T10:32:34Z</time>
      </trkpt>
      <trkpt lat="44.53666" lon="5.83166">
        <ele>876.837</ele>
        <time>2019-04-26T10:32:44Z</time>
      </trkpt>
      <trkpt lat="44.53646" lon="5.83189">
        <ele>873.555</ele>
        <time>2019-04-26T10:32:55Z</time>
      </trkpt>
      <trkpt lat="44.53646" lon="5.83206">
        <ele>873.364</ele>
        <time>2019-04-26T10:33:06Z</time>
      </trkpt>
      <trkpt lat="44.53646" lon="5.83206">
        <ele>873.288</ele>
        <time>2019-04-26T10:33:17Z</time>
      </trkpt>
      <trkpt lat="44.53651" lon="5.83199">
        <ele>873.272</ele>
        <time>2019-04-26T10:33:28Z</time>
      </trkpt>
      <trkpt lat="44.53651" lon="5.83199">
        <ele>873.217</ele>
        <time>2019-04-26T10:33:38Z</time>
      </trkpt>
      <trkpt lat="44.53651" lon="5.83199">
        <ele>873.083</ele>
        <time>2019-04-26T10:33:49Z</time>
      </trkpt>
      <trkpt lat="44.53651" lon="5.83199">
        <ele>872.862</ele>
        <time>2019-04-26T10:34:00Z</time>
      </trkpt>
      <trkpt lat="44.53651" lon="5.83199">
        <ele>872.786</ele>
        <time>2019-04-26T10:34:11Z</time>
      </trkpt>
      <trkpt lat="44.53651" lon="5.83199">
        <ele>872.824</ele>
        <time>2019-04-26T10:34:22Z</time>
      </trkpt>
      <trkpt lat="44.53658" lon="5.83201">
        <ele>871.612</ele>
        <time>2019-04-26T10:34:33Z</time>
      </trkpt>
      <trkpt lat="44.53634" lon="5.83228">
        <ele>843.118</ele>
        <time>2019-04-26T10:35:25Z</time>
      </trkpt>
      <trkpt lat="44.53632" lon="5.83231">
        <ele>844.469</ele>
        <time>2019-04-26T10:35:35Z</time>
      </trkpt>
      <trkpt lat="44.53644" lon="5.83211">
        <ele>851.93</ele>
        <time>2019-04-26T10:47:06Z</time>
      </trkpt>
      <trkpt lat="44.53643" lon="5.83212">
        <ele>855.354</ele>
        <time>2019-04-26T10:47:16Z</time>
      </trkpt>
      <trkpt lat="44.5365" lon="5.83212">
        <ele>856.759</ele>
        <time>2019-04-26T10:47:27Z</time>
      </trkpt>
      <trkpt lat="44.53652" lon="5.83209">
        <ele>856.792</ele>
        <time>2019-04-26T10:47:38Z</time>
      </trkpt>
      <trkpt lat="44.5365" lon="5.83204">
        <ele>856.761</ele>
        <time>2019-04-26T10:47:49Z</time>
      </trkpt>
      <trkpt lat="44.5365" lon="5.83204">
        <ele>856.879</ele>
        <time>2019-04-26T10:48:00Z</time>
      </trkpt>
      <trkpt lat="44.5365" lon="5.83203">
        <ele>857.055</ele>
        <time>2019-04-26T10:48:10Z</time>
      </trkpt>
      <trkpt lat="44.5365" lon="5.832">
        <ele>857.385</ele>
        <time>2019-04-26T10:48:20Z</time>
      </trkpt>
      <trkpt lat="44.53651" lon="5.83199">
        <ele>857.532</ele>
        <time>2019-04-26T10:48:31Z</time>
      </trkpt>
      <trkpt lat="44.53651" lon="5.83198">
        <ele>857.648</ele>
        <time>2019-04-26T10:48:42Z</time>
      </trkpt>
      <trkpt lat="44.53651" lon="5.83199">
        <ele>857.682</ele>
        <time>2019-04-26T10:48:52Z</time>
      </trkpt>
      <trkpt lat="44.53652" lon="5.83199">
        <ele>857.665</ele>
        <time>2019-04-26T10:49:03Z</time>
      </trkpt>
      <trkpt lat="44.53648" lon="5.83195">
        <ele>858.285</ele>
        <time>2019-04-26T10:49:14Z</time>
      </trkpt>
      <trkpt lat="44.53642" lon="5.83205">
        <ele>859.734</ele>
        <time>2019-04-26T10:49:25Z</time>
      </trkpt>
      <trkpt lat="44.53639" lon="5.83224">
        <ele>861.526</ele>
        <time>2019-04-26T10:49:36Z</time>
      </trkpt>
      <trkpt lat="44.53637" lon="5.83227">
        <ele>865.325</ele>
        <time>2019-04-26T10:49:48Z</time>
      </trkpt>
      <trkpt lat="44.53637" lon="5.83224">
        <ele>866.466</ele>
        <time>2019-04-26T10:50:00Z</time>
      </trkpt>
      <trkpt lat="44.53639" lon="5.83225">
        <ele>864.493</ele>
        <time>2019-04-26T10:50:11Z</time>
      </trkpt>
      <trkpt lat="44.53645" lon="5.83223">
        <ele>862.072</ele>
        <time>2019-04-26T10:50:23Z</time>
      </trkpt>
      <trkpt lat="44.53654" lon="5.83231">
        <ele>867.526</ele>
        <time>2019-04-26T10:50:33Z</time>
      </trkpt>
      <trkpt lat="44.53649" lon="5.83244">
        <ele>864.288</ele>
        <time>2019-04-26T10:50:43Z</time>
      </trkpt>
      <trkpt lat="44.53642" lon="5.83234">
        <ele>860.248</ele>
        <time>2019-04-26T10:50:56Z</time>
      </trkpt>
      <trkpt lat="44.53647" lon="5.8324">
        <ele>856.418</ele>
        <time>2019-04-26T10:51:07Z</time>
      </trkpt>
      <trkpt lat="44.5366" lon="5.83258">
        <ele>857.787</ele>
        <time>2019-04-26T10:51:18Z</time>
      </trkpt>
      <trkpt lat="44.53662" lon="5.83271">
        <ele>858.224</ele>
        <time>2019-04-26T10:51:29Z</time>
      </trkpt>
      <trkpt lat="44.53668" lon="5.83266">
        <ele>856.56</ele>
        <time>2019-04-26T10:51:40Z</time>
      </trkpt>
      <trkpt lat="44.5368" lon="5.8327">
        <ele>844.921</ele>
        <time>2019-04-26T10:51:51Z</time>
      </trkpt>
      <trkpt lat="44.53719" lon="5.83257">
        <ele>831.215</ele>
        <time>2019-04-26T10:52:02Z</time>
      </trkpt>
      <trkpt lat="44.53722" lon="5.8326">
        <ele>833.857</ele>
        <time>2019-04-26T10:52:13Z</time>
      </trkpt>
      <trkpt lat="44.53708" lon="5.83261">
        <ele>831.082</ele>
        <time>2019-04-26T10:52:24Z</time>
      </trkpt>
      <trkpt lat="44.5369" lon="5.83258">
        <ele>842.345</ele>
        <time>2019-04-26T10:52:35Z</time>
      </trkpt>
      <trkpt lat="44.53683" lon="5.83259">
        <ele>841.892</ele>
        <time>2019-04-26T10:52:45Z</time>
      </trkpt>
      <trkpt lat="44.53676" lon="5.83265">
        <ele>841.8</ele>
        <time>2019-04-26T10:52:55Z</time>
      </trkpt>
      <trkpt lat="44.53676" lon="5.83261">
        <ele>848.779</ele>
        <time>2019-04-26T10:53:06Z</time>
      </trkpt>
      <trkpt lat="44.53675" lon="5.83261">
        <ele>849.901</ele>
        <time>2019-04-26T10:53:17Z</time>
      </trkpt>
      <trkpt lat="44.53678" lon="5.83267">
        <ele>850.027</ele>
        <time>2019-04-26T10:53:27Z</time>
      </trkpt>
      <trkpt lat="44.53683" lon="5.83267">
        <ele>847.185</ele>
        <time>2019-04-26T10:53:38Z</time>
      </trkpt>
      <trkpt lat="44.53684" lon="5.8327">
        <ele>841.693</ele>
        <time>2019-04-26T10:53:48Z</time>
      </trkpt>
      <trkpt lat="44.53685" lon="5.83276">
        <ele>838.913</ele>
        <time>2019-04-26T10:53:58Z</time>
      </trkpt>
      <trkpt lat="44.53659" lon="5.8326">
        <ele>837.17</ele>
        <time>2019-04-26T10:54:09Z</time>
      </trkpt>
      <trkpt lat="44.5364" lon="5.83236">
        <ele>835.834</ele>
        <time>2019-04-26T10:54:20Z</time>
      </trkpt>
      <trkpt lat="44.53629" lon="5.83229">
        <ele>833.206</ele>
        <time>2019-04-26T10:54:31Z</time>
      </trkpt>
      <trkpt lat="44.53628" lon="5.83229">
        <ele>832.301</ele>
        <time>2019-04-26T10:54:41Z</time>
      </trkpt>
      <trkpt lat="44.53633" lon="5.8322">
        <ele>835.13</ele>
        <time>2019-04-26T10:54:52Z</time>
      </trkpt>
      <trkpt lat="44.53624" lon="5.83224">
        <ele>841.535</ele>
        <time>2019-04-26T10:55:02Z</time>
      </trkpt>
      <trkpt lat="44.53625" lon="5.83224">
        <ele>841.686</ele>
        <time>2019-04-26T10:55:13Z</time>
      </trkpt>
      <trkpt lat="44.53625" lon="5.83224">
        <ele>842.056</ele>
        <time>2019-04-26T10:55:24Z</time>
      </trkpt>
      <trkpt lat="44.53628" lon="5.83222">
        <ele>842.976</ele>
        <time>2019-04-26T10:55:35Z</time>
      </trkpt>
      <trkpt lat="44.53629" lon="5.83221">
        <ele>843.508</ele>
        <time>2019-04-26T10:55:46Z</time>
      </trkpt>
      <trkpt lat="44.53644" lon="5.83201">
        <ele>851.123</ele>
        <time>2019-04-26T10:55:57Z</time>
      </trkpt>
      <trkpt lat="44.53648" lon="5.83194">
        <ele>856.525</ele>
        <time>2019-04-26T10:56:08Z</time>
      </trkpt>
      <trkpt lat="44.53655" lon="5.83186">
        <ele>867.357</ele>
        <time>2019-04-26T10:56:19Z</time>
      </trkpt>
      <trkpt lat="44.53657" lon="5.83188">
        <ele>875.647</ele>
        <time>2019-04-26T10:56:29Z</time>
      </trkpt>
      <trkpt lat="44.53633" lon="5.83201">
        <ele>876.878</ele>
        <time>2019-04-26T10:56:40Z</time>
      </trkpt>
      <trkpt lat="44.53641" lon="5.83186">
        <ele>876.925</ele>
        <time>2019-04-26T10:56:51Z</time>
      </trkpt>
      <trkpt lat="44.53666" lon="5.83161">
        <ele>876.554</ele>
        <time>2019-04-26T10:57:02Z</time>
      </trkpt>
      <trkpt lat="44.53655" lon="5.83117">
        <ele>876.23</ele>
        <time>2019-04-26T10:57:13Z</time>
      </trkpt>
      <trkpt lat="44.53646" lon="5.83076">
        <ele>876.216</ele>
        <time>2019-04-26T10:57:23Z</time>
      </trkpt>
      <trkpt lat="44.53645" lon="5.83073">
        <ele>876.21</ele>
        <time>2019-04-26T10:57:34Z</time>
      </trkpt>
      <trkpt lat="44.53645" lon="5.83068">
        <ele>876.194</ele>
        <time>2019-04-26T10:57:45Z</time>
      </trkpt>
      <trkpt lat="44.53634" lon="5.8303">
        <ele>875.705</ele>
        <time>2019-04-26T10:57:55Z</time>
      </trkpt>
      <trkpt lat="44.53621" lon="5.82985">
        <ele>875.249</ele>
        <time>2019-04-26T10:58:06Z</time>
      </trkpt>
      <trkpt lat="44.53596" lon="5.8294">
        <ele>875.298</ele>
        <time>2019-04-26T10:58:17Z</time>
      </trkpt>
      <trkpt lat="44.53566" lon="5.82896">
        <ele>874.915</ele>
        <time>2019-04-26T10:58:28Z</time>
      </trkpt>
      <trkpt lat="44.5354" lon="5.82848">
        <ele>874.068</ele>
        <time>2019-04-26T10:58:38Z</time>
      </trkpt>
      <trkpt lat="44.53538" lon="5.82827">
        <ele>874.338</ele>
        <time>2019-04-26T10:58:49Z</time>
      </trkpt>
      <trkpt lat="44.53537" lon="5.82827">
        <ele>874.476</ele>
        <time>2019-04-26T10:58:59Z</time>
      </trkpt>
      <trkpt lat="44.53537" lon="5.82827">
        <ele>874.558</ele>
        <time>2019-04-26T10:59:10Z</time>
      </trkpt>
      <trkpt lat="44.53537" lon="5.82828">
        <ele>874.641</ele>
        <time>2019-04-26T10:59:21Z</time>
      </trkpt>
      <trkpt lat="44.53537" lon="5.82831">
        <ele>874.724</ele>
        <time>2019-04-26T10:59:31Z</time>
      </trkpt>
      <trkpt lat="44.53528" lon="5.82809">
        <ele>874.649</ele>
        <time>2019-04-26T10:59:41Z</time>
      </trkpt>
      <trkpt lat="44.53498" lon="5.82758">
        <ele>873.306</ele>
        <time>2019-04-26T10:59:52Z</time>
      </trkpt>
      <trkpt lat="44.53471" lon="5.82697">
        <ele>873.837</ele>
        <time>2019-04-26T11:00:03Z</time>
      </trkpt>
      <trkpt lat="44.5345" lon="5.82642">
        <ele>876.088</ele>
        <time>2019-04-26T11:00:13Z</time>
      </trkpt>
      <trkpt lat="44.53427" lon="5.82564">
        <ele>876</ele>
        <time>2019-04-26T11:00:24Z</time>
      </trkpt>
      <trkpt lat="44.53412" lon="5.82511">
        <ele>900.227</ele>
        <time>2019-04-26T11:00:34Z</time>
      </trkpt>
      <trkpt lat="44.53389" lon="5.82467">
        <ele>888.646</ele>
        <time>2019-04-26T11:00:44Z</time>
      </trkpt>
      <trkpt lat="44.53367" lon="5.82406">
        <ele>878.196</ele>
        <time>2019-04-26T11:00:55Z</time>
      </trkpt>
      <trkpt lat="44.53349" lon="5.82348">
        <ele>870.445</ele>
        <time>2019-04-26T11:01:05Z</time>
      </trkpt>
      <trkpt lat="44.53304" lon="5.82342">
        <ele>867.508</ele>
        <time>2019-04-26T11:01:15Z</time>
      </trkpt>
      <trkpt lat="44.53222" lon="5.82379">
        <ele>866.667</ele>
        <time>2019-04-26T11:01:26Z</time>
      </trkpt>
      <trkpt lat="44.53103" lon="5.82404">
        <ele>857.05</ele>
        <time>2019-04-26T11:01:39Z</time>
      </trkpt>
      <trkpt lat="44.53061" lon="5.8241">
        <ele>847.916</ele>
        <time>2019-04-26T11:01:49Z</time>
      </trkpt>
      <trkpt lat="44.52998" lon="5.8242">
        <ele>857.86</ele>
        <time>2019-04-26T11:02:00Z</time>
      </trkpt>
      <trkpt lat="44.52945" lon="5.82439">
        <ele>859.934</ele>
        <time>2019-04-26T11:02:10Z</time>
      </trkpt>
      <trkpt lat="44.52891" lon="5.82458">
        <ele>849.546</ele>
        <time>2019-04-26T11:02:21Z</time>
      </trkpt>
      <trkpt lat="44.52848" lon="5.82474">
        <ele>854.472</ele>
        <time>2019-04-26T11:02:31Z</time>
      </trkpt>
      <trkpt lat="44.52807" lon="5.82468">
        <ele>859.753</ele>
        <time>2019-04-26T11:02:42Z</time>
      </trkpt>
      <trkpt lat="44.52781" lon="5.82423">
        <ele>857.031</ele>
        <time>2019-04-26T11:02:52Z</time>
      </trkpt>
      <trkpt lat="44.52751" lon="5.82358">
        <ele>860.596</ele>
        <time>2019-04-26T11:03:02Z</time>
      </trkpt>
      <trkpt lat="44.52711" lon="5.82297">
        <ele>857.719</ele>
        <time>2019-04-26T11:03:13Z</time>
      </trkpt>
      <trkpt lat="44.52675" lon="5.82237">
        <ele>857.013</ele>
        <time>2019-04-26T11:03:23Z</time>
      </trkpt>
      <trkpt lat="44.52636" lon="5.82179">
        <ele>859.863</ele>
        <time>2019-04-26T11:03:34Z</time>
      </trkpt>
      <trkpt lat="44.52597" lon="5.82114">
        <ele>859.08</ele>
        <time>2019-04-26T11:03:45Z</time>
      </trkpt>
      <trkpt lat="44.52564" lon="5.82062">
        <ele>857.416</ele>
        <time>2019-04-26T11:03:55Z</time>
      </trkpt>
      <trkpt lat="44.5253" lon="5.82001">
        <ele>858.383</ele>
        <time>2019-04-26T11:04:06Z</time>
      </trkpt>
      <trkpt lat="44.525" lon="5.81924">
        <ele>858.698</ele>
        <time>2019-04-26T11:04:17Z</time>
      </trkpt>
      <trkpt lat="44.5248" lon="5.81868">
        <ele>857.268</ele>
        <time>2019-04-26T11:04:27Z</time>
      </trkpt>
      <trkpt lat="44.52458" lon="5.81805">
        <ele>856.616</ele>
        <time>2019-04-26T11:04:38Z</time>
      </trkpt>
      <trkpt lat="44.52437" lon="5.81739">
        <ele>856.083</ele>
        <time>2019-04-26T11:04:48Z</time>
      </trkpt>
      <trkpt lat="44.52407" lon="5.81665">
        <ele>855.311</ele>
        <time>2019-04-26T11:04:59Z</time>
      </trkpt>
      <trkpt lat="44.52382" lon="5.81589">
        <ele>854.085</ele>
        <time>2019-04-26T11:05:10Z</time>
      </trkpt>
      <trkpt lat="44.52361" lon="5.81532">
        <ele>853.058</ele>
        <time>2019-04-26T11:05:20Z</time>
      </trkpt>
      <trkpt lat="44.52337" lon="5.81458">
        <ele>851.471</ele>
        <time>2019-04-26T11:05:31Z</time>
      </trkpt>
      <trkpt lat="44.52312" lon="5.81384">
        <ele>848.579</ele>
        <time>2019-04-26T11:05:42Z</time>
      </trkpt>
      <trkpt lat="44.52287" lon="5.8131">
        <ele>847.561</ele>
        <time>2019-04-26T11:05:53Z</time>
      </trkpt>
      <trkpt lat="44.52257" lon="5.81232">
        <ele>847.56</ele>
        <time>2019-04-26T11:06:04Z</time>
      </trkpt>
      <trkpt lat="44.52232" lon="5.81161">
        <ele>843.173</ele>
        <time>2019-04-26T11:06:14Z</time>
      </trkpt>
      <trkpt lat="44.52206" lon="5.81084">
        <ele>844.084</ele>
        <time>2019-04-26T11:06:25Z</time>
      </trkpt>
      <trkpt lat="44.52186" lon="5.81012">
        <ele>845.267</ele>
        <time>2019-04-26T11:06:36Z</time>
      </trkpt>
      <trkpt lat="44.52171" lon="5.80989">
        <ele>845.747</ele>
        <time>2019-04-26T11:06:47Z</time>
      </trkpt>
      <trkpt lat="44.52171" lon="5.80989">
        <ele>845.952</ele>
        <time>2019-04-26T11:06:58Z</time>
      </trkpt>
      <trkpt lat="44.52157" lon="5.80974">
        <ele>848.118</ele>
        <time>2019-04-26T11:07:09Z</time>
      </trkpt>
      <trkpt lat="44.52153" lon="5.80964">
        <ele>848.18</ele>
        <time>2019-04-26T11:07:20Z</time>
      </trkpt>
      <trkpt lat="44.52154" lon="5.80968">
        <ele>848.527</ele>
        <time>2019-04-26T11:07:31Z</time>
      </trkpt>
      <trkpt lat="44.52154" lon="5.80969">
        <ele>849.946</ele>
        <time>2019-04-26T11:07:42Z</time>
      </trkpt>
      <trkpt lat="44.52154" lon="5.80969">
        <ele>850.032</ele>
        <time>2019-04-26T11:07:53Z</time>
      </trkpt>
      <trkpt lat="44.52154" lon="5.80969">
        <ele>850.047</ele>
        <time>2019-04-26T11:08:03Z</time>
      </trkpt>
      <trkpt lat="44.52162" lon="5.80957">
        <ele>857.186</ele>
        <time>2019-04-26T11:08:14Z</time>
      </trkpt>
      <trkpt lat="44.52162" lon="5.80957">
        <ele>857.326</ele>
        <time>2019-04-26T11:08:25Z</time>
      </trkpt>
      <trkpt lat="44.52157" lon="5.8096">
        <ele>857.315</ele>
        <time>2019-04-26T11:08:36Z</time>
      </trkpt>
      <trkpt lat="44.52157" lon="5.8096">
        <ele>857.234</ele>
        <time>2019-04-26T11:08:46Z</time>
      </trkpt>
      <trkpt lat="44.52155" lon="5.80966">
        <ele>857.091</ele>
        <time>2019-04-26T11:08:57Z</time>
      </trkpt>
      <trkpt lat="44.52155" lon="5.80966">
        <ele>856.94</ele>
        <time>2019-04-26T11:09:07Z</time>
      </trkpt>
      <trkpt lat="44.52155" lon="5.80966">
        <ele>856.765</ele>
        <time>2019-04-26T11:09:18Z</time>
      </trkpt>
      <trkpt lat="44.52155" lon="5.80966">
        <ele>856.606</ele>
        <time>2019-04-26T11:09:29Z</time>
      </trkpt>
      <trkpt lat="44.52155" lon="5.80966">
        <ele>856.353</ele>
        <time>2019-04-26T11:09:40Z</time>
      </trkpt>
      <trkpt lat="44.52155" lon="5.80966">
        <ele>856.259</ele>
        <time>2019-04-26T11:09:50Z</time>
      </trkpt>
      <trkpt lat="44.52155" lon="5.80966">
        <ele>856.171</ele>
        <time>2019-04-26T11:10:00Z</time>
      </trkpt>
      <trkpt lat="44.52155" lon="5.80966">
        <ele>856.08</ele>
        <time>2019-04-26T11:10:11Z</time>
      </trkpt>
      <trkpt lat="44.52155" lon="5.80966">
        <ele>855.992</ele>
        <time>2019-04-26T11:10:22Z</time>
      </trkpt>
      <trkpt lat="44.52155" lon="5.80966">
        <ele>855.907</ele>
        <time>2019-04-26T11:10:32Z</time>
      </trkpt>
      <trkpt lat="44.52155" lon="5.80966">
        <ele>855.817</ele>
        <time>2019-04-26T11:10:43Z</time>
      </trkpt>
      <trkpt lat="44.52155" lon="5.80966">
        <ele>855.721</ele>
        <time>2019-04-26T11:10:54Z</time>
      </trkpt>
      <trkpt lat="44.52155" lon="5.80966">
        <ele>855.629</ele>
        <time>2019-04-26T11:11:04Z</time>
      </trkpt>
      <trkpt lat="44.52154" lon="5.80967">
        <ele>855.524</ele>
        <time>2019-04-26T11:11:15Z</time>
      </trkpt>
      <trkpt lat="44.52154" lon="5.80967">
        <ele>855.236</ele>
        <time>2019-04-26T11:11:26Z</time>
      </trkpt>
      <trkpt lat="44.52153" lon="5.80966">
        <ele>855.145</ele>
        <time>2019-04-26T11:11:37Z</time>
      </trkpt>
      <trkpt lat="44.52153" lon="5.80966">
        <ele>855.128</ele>
        <time>2019-04-26T11:11:48Z</time>
      </trkpt>
      <trkpt lat="44.52152" lon="5.80966">
        <ele>855.109</ele>
        <time>2019-04-26T11:11:58Z</time>
      </trkpt>
      <trkpt lat="44.52161" lon="5.80973">
        <ele>855.905</ele>
        <time>2019-04-26T11:12:09Z</time>
      </trkpt>
      <trkpt lat="44.52151" lon="5.80972">
        <ele>854.202</ele>
        <time>2019-04-26T11:12:20Z</time>
      </trkpt>
      <trkpt lat="44.52147" lon="5.8097">
        <ele>852.949</ele>
        <time>2019-04-26T11:12:30Z</time>
      </trkpt>
      <trkpt lat="44.52143" lon="5.80967">
        <ele>852.712</ele>
        <time>2019-04-26T11:12:41Z</time>
      </trkpt>
      <trkpt lat="44.52144" lon="5.80969">
        <ele>852.602</ele>
        <time>2019-04-26T11:12:52Z</time>
      </trkpt>
      <trkpt lat="44.52145" lon="5.8097">
        <ele>852.451</ele>
        <time>2019-04-26T11:13:03Z</time>
      </trkpt>
      <trkpt lat="44.52145" lon="5.8097">
        <ele>852.268</ele>
        <time>2019-04-26T11:13:13Z</time>
      </trkpt>
      <trkpt lat="44.52146" lon="5.80971">
        <ele>852.175</ele>
        <time>2019-04-26T11:13:23Z</time>
      </trkpt>
      <trkpt lat="44.52147" lon="5.80972">
        <ele>852.069</ele>
        <time>2019-04-26T11:13:34Z</time>
      </trkpt>
      <trkpt lat="44.52148" lon="5.80972">
        <ele>851.934</ele>
        <time>2019-04-26T11:13:45Z</time>
      </trkpt>
      <trkpt lat="44.52149" lon="5.80972">
        <ele>851.835</ele>
        <time>2019-04-26T11:13:56Z</time>
      </trkpt>
      <trkpt lat="44.52149" lon="5.80971">
        <ele>851.765</ele>
        <time>2019-04-26T11:14:07Z</time>
      </trkpt>
      <trkpt lat="44.5215" lon="5.80971">
        <ele>851.717</ele>
        <time>2019-04-26T11:14:17Z</time>
      </trkpt>
      <trkpt lat="44.5215" lon="5.80971">
        <ele>851.662</ele>
        <time>2019-04-26T11:14:28Z</time>
      </trkpt>
      <trkpt lat="44.5215" lon="5.80972">
        <ele>851.613</ele>
        <time>2019-04-26T11:14:39Z</time>
      </trkpt>
      <trkpt lat="44.5215" lon="5.80972">
        <ele>851.564</ele>
        <time>2019-04-26T11:14:49Z</time>
      </trkpt>
      <trkpt lat="44.5215" lon="5.80972">
        <ele>851.495</ele>
        <time>2019-04-26T11:15:00Z</time>
      </trkpt>
      <trkpt lat="44.5215" lon="5.80972">
        <ele>851.426</ele>
        <time>2019-04-26T11:15:10Z</time>
      </trkpt>
      <trkpt lat="44.5215" lon="5.80972">
        <ele>851.351</ele>
        <time>2019-04-26T11:15:20Z</time>
      </trkpt>
      <trkpt lat="44.5215" lon="5.80972">
        <ele>851.284</ele>
        <time>2019-04-26T11:15:30Z</time>
      </trkpt>
      <trkpt lat="44.5215" lon="5.80971">
        <ele>851.237</ele>
        <time>2019-04-26T11:15:41Z</time>
      </trkpt>
      <trkpt lat="44.5215" lon="5.80972">
        <ele>851.245</ele>
        <time>2019-04-26T11:15:51Z</time>
      </trkpt>
      <trkpt lat="44.5215" lon="5.80972">
        <ele>851.268</ele>
        <time>2019-04-26T11:16:01Z</time>
      </trkpt>
      <trkpt lat="44.5215" lon="5.80971">
        <ele>851.228</ele>
        <time>2019-04-26T11:16:12Z</time>
      </trkpt>
      <trkpt lat="44.52151" lon="5.80971">
        <ele>851.188</ele>
        <time>2019-04-26T11:16:23Z</time>
      </trkpt>
      <trkpt lat="44.52151" lon="5.80971">
        <ele>851.18</ele>
        <time>2019-04-26T11:16:34Z</time>
      </trkpt>
      <trkpt lat="44.52151" lon="5.80971">
        <ele>851.203</ele>
        <time>2019-04-26T11:16:44Z</time>
      </trkpt>
      <trkpt lat="44.52151" lon="5.80971">
        <ele>851.221</ele>
        <time>2019-04-26T11:16:55Z</time>
      </trkpt>
      <trkpt lat="44.52151" lon="5.8097">
        <ele>851.148</ele>
        <time>2019-04-26T11:17:06Z</time>
      </trkpt>
      <trkpt lat="44.52152" lon="5.8097">
        <ele>851.09</ele>
        <time>2019-04-26T11:17:17Z</time>
      </trkpt>
      <trkpt lat="44.52152" lon="5.8097">
        <ele>851.005</ele>
        <time>2019-04-26T11:17:27Z</time>
      </trkpt>
      <trkpt lat="44.52152" lon="5.80969">
        <ele>850.909</ele>
        <time>2019-04-26T11:17:37Z</time>
      </trkpt>
      <trkpt lat="44.52152" lon="5.80969">
        <ele>850.791</ele>
        <time>2019-04-26T11:17:48Z</time>
      </trkpt>
      <trkpt lat="44.52152" lon="5.80969">
        <ele>850.743</ele>
        <time>2019-04-26T11:17:58Z</time>
      </trkpt>
      <trkpt lat="44.52153" lon="5.80969">
        <ele>850.663</ele>
        <time>2019-04-26T11:18:09Z</time>
      </trkpt>
      <trkpt lat="44.52153" lon="5.80969">
        <ele>850.627</ele>
        <time>2019-04-26T11:18:20Z</time>
      </trkpt>
      <trkpt lat="44.52153" lon="5.80969">
        <ele>850.547</ele>
        <time>2019-04-26T11:18:31Z</time>
      </trkpt>
      <trkpt lat="44.52153" lon="5.80969">
        <ele>850.461</ele>
        <time>2019-04-26T11:18:41Z</time>
      </trkpt>
      <trkpt lat="44.52143" lon="5.80962">
        <ele>851.974</ele>
        <time>2019-04-26T11:18:52Z</time>
      </trkpt>
      <trkpt lat="44.52158" lon="5.80968">
        <ele>851.065</ele>
        <time>2019-04-26T11:19:03Z</time>
      </trkpt>
      <trkpt lat="44.52161" lon="5.80967">
        <ele>851.011</ele>
        <time>2019-04-26T11:19:14Z</time>
      </trkpt>
      <trkpt lat="44.5216" lon="5.80968">
        <ele>850.378</ele>
        <time>2019-04-26T11:19:24Z</time>
      </trkpt>
      <trkpt lat="44.52154" lon="5.80972">
        <ele>847.429</ele>
        <time>2019-04-26T11:19:35Z</time>
      </trkpt>
      <trkpt lat="44.52151" lon="5.8097">
        <ele>846.763</ele>
        <time>2019-04-26T11:19:45Z</time>
      </trkpt>
      <trkpt lat="44.52151" lon="5.80969">
        <ele>846.819</ele>
        <time>2019-04-26T11:19:56Z</time>
      </trkpt>
      <trkpt lat="44.5215" lon="5.80968">
        <ele>847.136</ele>
        <time>2019-04-26T11:20:07Z</time>
      </trkpt>
      <trkpt lat="44.52146" lon="5.80964">
        <ele>853.369</ele>
        <time>2019-04-26T11:20:18Z</time>
      </trkpt>
      <trkpt lat="44.52145" lon="5.80966">
        <ele>858.049</ele>
        <time>2019-04-26T11:20:28Z</time>
      </trkpt>
      <trkpt lat="44.52145" lon="5.80965">
        <ele>858.132</ele>
        <time>2019-04-26T11:20:39Z</time>
      </trkpt>
      <trkpt lat="44.52145" lon="5.80964">
        <ele>858.338</ele>
        <time>2019-04-26T11:20:49Z</time>
      </trkpt>
      <trkpt lat="44.52145" lon="5.80964">
        <ele>858.594</ele>
        <time>2019-04-26T11:21:00Z</time>
      </trkpt>
      <trkpt lat="44.52146" lon="5.80965">
        <ele>858.769</ele>
        <time>2019-04-26T11:21:10Z</time>
      </trkpt>
      <trkpt lat="44.52147" lon="5.80965">
        <ele>858.847</ele>
        <time>2019-04-26T11:21:21Z</time>
      </trkpt>
      <trkpt lat="44.52148" lon="5.80966">
        <ele>858.789</ele>
        <time>2019-04-26T11:21:32Z</time>
      </trkpt>
      <trkpt lat="44.52148" lon="5.80966">
        <ele>858.538</ele>
        <time>2019-04-26T11:21:43Z</time>
      </trkpt>
      <trkpt lat="44.52149" lon="5.80967">
        <ele>858.508</ele>
        <time>2019-04-26T11:21:53Z</time>
      </trkpt>
      <trkpt lat="44.5215" lon="5.80968">
        <ele>858.503</ele>
        <time>2019-04-26T11:22:03Z</time>
      </trkpt>
      <trkpt lat="44.5215" lon="5.80968">
        <ele>858.461</ele>
        <time>2019-04-26T11:22:14Z</time>
      </trkpt>
      <trkpt lat="44.52151" lon="5.80968">
        <ele>858.462</ele>
        <time>2019-04-26T11:22:25Z</time>
      </trkpt>
      <trkpt lat="44.52151" lon="5.80968">
        <ele>858.452</ele>
        <time>2019-04-26T11:22:36Z</time>
      </trkpt>
      <trkpt lat="44.52151" lon="5.80968">
        <ele>858.399</ele>
        <time>2019-04-26T11:22:47Z</time>
      </trkpt>
      <trkpt lat="44.52152" lon="5.80968">
        <ele>856.862</ele>
        <time>2019-04-26T11:22:58Z</time>
      </trkpt>
      <trkpt lat="44.5215" lon="5.80975">
        <ele>856.75</ele>
        <time>2019-04-26T11:23:08Z</time>
      </trkpt>
      <trkpt lat="44.52149" lon="5.80973">
        <ele>856.57</ele>
        <time>2019-04-26T11:23:19Z</time>
      </trkpt>
      <trkpt lat="44.5215" lon="5.80972">
        <ele>856.348</ele>
        <time>2019-04-26T11:23:30Z</time>
      </trkpt>
      <trkpt lat="44.5215" lon="5.80971">
        <ele>856.251</ele>
        <time>2019-04-26T11:23:41Z</time>
      </trkpt>
      <trkpt lat="44.52151" lon="5.8097">
        <ele>856.097</ele>
        <time>2019-04-26T11:23:52Z</time>
      </trkpt>
      <trkpt lat="44.52152" lon="5.80968">
        <ele>855.753</ele>
        <time>2019-04-26T11:24:03Z</time>
      </trkpt>
      <trkpt lat="44.52266" lon="5.80988">
        <ele>873.943</ele>
        <time>2019-04-26T11:24:14Z</time>
      </trkpt>
      <trkpt lat="44.52184" lon="5.80989">
        <ele>880.127</ele>
        <time>2019-04-26T11:24:25Z</time>
      </trkpt>
      <trkpt lat="44.52162" lon="5.80992">
        <ele>874.945</ele>
        <time>2019-04-26T11:24:35Z</time>
      </trkpt>
      <trkpt lat="44.52136" lon="5.81021">
        <ele>859.001</ele>
        <time>2019-04-26T11:24:46Z</time>
      </trkpt>
      <trkpt lat="44.52122" lon="5.81012">
        <ele>856.79</ele>
        <time>2019-04-26T11:24:57Z</time>
      </trkpt>
      <trkpt lat="44.521" lon="5.80991">
        <ele>856.481</ele>
        <time>2019-04-26T11:25:08Z</time>
      </trkpt>
      <trkpt lat="44.52081" lon="5.8097">
        <ele>856.391</ele>
        <time>2019-04-26T11:25:19Z</time>
      </trkpt>
      <trkpt lat="44.52068" lon="5.80956">
        <ele>857.416</ele>
        <time>2019-04-26T11:25:30Z</time>
      </trkpt>
      <trkpt lat="44.52051" lon="5.80946">
        <ele>856.505</ele>
        <time>2019-04-26T11:25:41Z</time>
      </trkpt>
      <trkpt lat="44.5203" lon="5.80939">
        <ele>856.62</ele>
        <time>2019-04-26T11:25:52Z</time>
      </trkpt>
      <trkpt lat="44.52014" lon="5.80956">
        <ele>856.994</ele>
        <time>2019-04-26T11:26:02Z</time>
      </trkpt>
      <trkpt lat="44.52018" lon="5.80979">
        <ele>857.578</ele>
        <time>2019-04-26T11:26:13Z</time>
      </trkpt>
      <trkpt lat="44.52029" lon="5.81005">
        <ele>858.207</ele>
        <time>2019-04-26T11:26:23Z</time>
      </trkpt>
      <trkpt lat="44.5203" lon="5.81033">
        <ele>858.849</ele>
        <time>2019-04-26T11:26:34Z</time>
      </trkpt>
      <trkpt lat="44.52019" lon="5.81048">
        <ele>859.46</ele>
        <time>2019-04-26T11:26:44Z</time>
      </trkpt>
      <trkpt lat="44.52003" lon="5.81042">
        <ele>860.062</ele>
        <time>2019-04-26T11:26:54Z</time>
      </trkpt>
      <trkpt lat="44.51985" lon="5.81035">
        <ele>860.936</ele>
        <time>2019-04-26T11:27:05Z</time>
      </trkpt>
      <trkpt lat="44.51965" lon="5.81024">
        <ele>861.865</ele>
        <time>2019-04-26T11:27:16Z</time>
      </trkpt>
      <trkpt lat="44.51947" lon="5.81012">
        <ele>862.96</ele>
        <time>2019-04-26T11:27:27Z</time>
      </trkpt>
      <trkpt lat="44.51929" lon="5.80997">
        <ele>863.372</ele>
        <time>2019-04-26T11:27:38Z</time>
      </trkpt>
      <trkpt lat="44.51912" lon="5.8098">
        <ele>863.91</ele>
        <time>2019-04-26T11:27:49Z</time>
      </trkpt>
      <trkpt lat="44.51902" lon="5.80963">
        <ele>865.531</ele>
        <time>2019-04-26T11:27:59Z</time>
      </trkpt>
      <trkpt lat="44.51894" lon="5.80936">
        <ele>867.655</ele>
        <time>2019-04-26T11:28:10Z</time>
      </trkpt>
      <trkpt lat="44.51887" lon="5.80911">
        <ele>869.328</ele>
        <time>2019-04-26T11:28:20Z</time>
      </trkpt>
      <trkpt lat="44.5188" lon="5.80885">
        <ele>870.924</ele>
        <time>2019-04-26T11:28:31Z</time>
      </trkpt>
      <trkpt lat="44.51872" lon="5.80863">
        <ele>872.052</ele>
        <time>2019-04-26T11:28:41Z</time>
      </trkpt>
      <trkpt lat="44.5186" lon="5.80843">
        <ele>873.177</ele>
        <time>2019-04-26T11:28:52Z</time>
      </trkpt>
      <trkpt lat="44.51844" lon="5.80825">
        <ele>874.451</ele>
        <time>2019-04-26T11:29:03Z</time>
      </trkpt>
      <trkpt lat="44.51813" lon="5.80814">
        <ele>875.176</ele>
        <time>2019-04-26T11:29:14Z</time>
      </trkpt>
      <trkpt lat="44.51769" lon="5.80824">
        <ele>877.05</ele>
        <time>2019-04-26T11:29:24Z</time>
      </trkpt>
      <trkpt lat="44.51722" lon="5.80867">
        <ele>878.04</ele>
        <time>2019-04-26T11:29:35Z</time>
      </trkpt>
      <trkpt lat="44.5169" lon="5.80936">
        <ele>869.801</ele>
        <time>2019-04-26T11:29:45Z</time>
      </trkpt>
      <trkpt lat="44.51631" lon="5.80962">
        <ele>866.855</ele>
        <time>2019-04-26T11:29:55Z</time>
      </trkpt>
      <trkpt lat="44.51601" lon="5.80845">
        <ele>868.071</ele>
        <time>2019-04-26T11:30:06Z</time>
      </trkpt>
      <trkpt lat="44.51535" lon="5.80795">
        <ele>868.182</ele>
        <time>2019-04-26T11:30:17Z</time>
      </trkpt>
      <trkpt lat="44.5147" lon="5.80755">
        <ele>874.606</ele>
        <time>2019-04-26T11:30:28Z</time>
      </trkpt>
      <trkpt lat="44.51415" lon="5.80742">
        <ele>873.188</ele>
        <time>2019-04-26T11:30:38Z</time>
      </trkpt>
      <trkpt lat="44.51368" lon="5.80695">
        <ele>879.469</ele>
        <time>2019-04-26T11:30:49Z</time>
      </trkpt>
      <trkpt lat="44.51361" lon="5.80721">
        <ele>874.451</ele>
        <time>2019-04-26T11:31:00Z</time>
      </trkpt>
      <trkpt lat="44.51339" lon="5.80735">
        <ele>874.703</ele>
        <time>2019-04-26T11:31:10Z</time>
      </trkpt>
      <trkpt lat="44.51319" lon="5.80745">
        <ele>875.062</ele>
        <time>2019-04-26T11:31:21Z</time>
      </trkpt>
      <trkpt lat="44.51302" lon="5.80758">
        <ele>875.344</ele>
        <time>2019-04-26T11:31:31Z</time>
      </trkpt>
      <trkpt lat="44.51284" lon="5.80772">
        <ele>875.837</ele>
        <time>2019-04-26T11:31:42Z</time>
      </trkpt>
      <trkpt lat="44.51267" lon="5.80782">
        <ele>876.528</ele>
        <time>2019-04-26T11:31:52Z</time>
      </trkpt>
      <trkpt lat="44.5125" lon="5.80794">
        <ele>877.29</ele>
        <time>2019-04-26T11:32:03Z</time>
      </trkpt>
      <trkpt lat="44.51237" lon="5.80808">
        <ele>878.007</ele>
        <time>2019-04-26T11:32:13Z</time>
      </trkpt>
      <trkpt lat="44.51221" lon="5.80819">
        <ele>878.672</ele>
        <time>2019-04-26T11:32:23Z</time>
      </trkpt>
      <trkpt lat="44.51205" lon="5.80806">
        <ele>879.356</ele>
        <time>2019-04-26T11:32:34Z</time>
      </trkpt>
      <trkpt lat="44.51196" lon="5.80779">
        <ele>880.116</ele>
        <time>2019-04-26T11:32:45Z</time>
      </trkpt>
      <trkpt lat="44.51185" lon="5.80747">
        <ele>880.964</ele>
        <time>2019-04-26T11:32:56Z</time>
      </trkpt>
      <trkpt lat="44.51147" lon="5.80714">
        <ele>884.501</ele>
        <time>2019-04-26T11:33:06Z</time>
      </trkpt>
      <trkpt lat="44.51075" lon="5.80732">
        <ele>893.146</ele>
        <time>2019-04-26T11:33:18Z</time>
      </trkpt>
      <trkpt lat="44.51029" lon="5.80671">
        <ele>931.029</ele>
        <time>2019-04-26T11:33:30Z</time>
      </trkpt>
      <trkpt lat="44.50972" lon="5.80566">
        <ele>926.343</ele>
        <time>2019-04-26T11:33:40Z</time>
      </trkpt>
      <trkpt lat="44.50922" lon="5.80502">
        <ele>907.209</ele>
        <time>2019-04-26T11:33:51Z</time>
      </trkpt>
      <trkpt lat="44.50867" lon="5.8044">
        <ele>891.125</ele>
        <time>2019-04-26T11:34:02Z</time>
      </trkpt>
      <trkpt lat="44.50818" lon="5.80418">
        <ele>885</ele>
        <time>2019-04-26T11:34:13Z</time>
      </trkpt>
      <trkpt lat="44.50787" lon="5.80435">
        <ele>884.566</ele>
        <time>2019-04-26T11:34:23Z</time>
      </trkpt>
      <trkpt lat="44.5076" lon="5.80462">
        <ele>884.017</ele>
        <time>2019-04-26T11:34:34Z</time>
      </trkpt>
      <trkpt lat="44.50733" lon="5.80465">
        <ele>883.578</ele>
        <time>2019-04-26T11:34:44Z</time>
      </trkpt>
      <trkpt lat="44.50705" lon="5.80459">
        <ele>883.073</ele>
        <time>2019-04-26T11:34:55Z</time>
      </trkpt>
      <trkpt lat="44.50682" lon="5.80442">
        <ele>882.826</ele>
        <time>2019-04-26T11:35:05Z</time>
      </trkpt>
      <trkpt lat="44.50664" lon="5.80422">
        <ele>883.088</ele>
        <time>2019-04-26T11:35:16Z</time>
      </trkpt>
      <trkpt lat="44.50648" lon="5.80407">
        <ele>883.762</ele>
        <time>2019-04-26T11:35:26Z</time>
      </trkpt>
      <trkpt lat="44.50629" lon="5.80389">
        <ele>884.661</ele>
        <time>2019-04-26T11:35:36Z</time>
      </trkpt>
      <trkpt lat="44.50603" lon="5.80392">
        <ele>885.617</ele>
        <time>2019-04-26T11:35:47Z</time>
      </trkpt>
      <trkpt lat="44.50566" lon="5.80415">
        <ele>887.586</ele>
        <time>2019-04-26T11:35:58Z</time>
      </trkpt>
      <trkpt lat="44.50513" lon="5.80453">
        <ele>884.151</ele>
        <time>2019-04-26T11:36:09Z</time>
      </trkpt>
      <trkpt lat="44.5046" lon="5.80435">
        <ele>885.367</ele>
        <time>2019-04-26T11:36:19Z</time>
      </trkpt>
      <trkpt lat="44.5045" lon="5.80339">
        <ele>882.735</ele>
        <time>2019-04-26T11:36:29Z</time>
      </trkpt>
      <trkpt lat="44.50414" lon="5.80233">
        <ele>878.137</ele>
        <time>2019-04-26T11:36:40Z</time>
      </trkpt>
      <trkpt lat="44.50397" lon="5.80141">
        <ele>879.508</ele>
        <time>2019-04-26T11:36:50Z</time>
      </trkpt>
      <trkpt lat="44.50376" lon="5.80016">
        <ele>873.542</ele>
        <time>2019-04-26T11:37:01Z</time>
      </trkpt>
      <trkpt lat="44.50367" lon="5.79896">
        <ele>871.31</ele>
        <time>2019-04-26T11:37:12Z</time>
      </trkpt>
      <trkpt lat="44.50368" lon="5.79813">
        <ele>870.193</ele>
        <time>2019-04-26T11:37:22Z</time>
      </trkpt>
      <trkpt lat="44.50392" lon="5.79712">
        <ele>875.438</ele>
        <time>2019-04-26T11:37:33Z</time>
      </trkpt>
      <trkpt lat="44.50409" lon="5.79662">
        <ele>893.764</ele>
        <time>2019-04-26T11:37:43Z</time>
      </trkpt>
      <trkpt lat="44.50388" lon="5.79578">
        <ele>885.276</ele>
        <time>2019-04-26T11:37:54Z</time>
      </trkpt>
      <trkpt lat="44.50361" lon="5.79501">
        <ele>878.984</ele>
        <time>2019-04-26T11:38:05Z</time>
      </trkpt>
      <trkpt lat="44.50348" lon="5.79473">
        <ele>887.411</ele>
        <time>2019-04-26T11:38:15Z</time>
      </trkpt>
      <trkpt lat="44.50326" lon="5.79418">
        <ele>886.781</ele>
        <time>2019-04-26T11:38:26Z</time>
      </trkpt>
      <trkpt lat="44.50295" lon="5.7937">
        <ele>877.023</ele>
        <time>2019-04-26T11:38:37Z</time>
      </trkpt>
      <trkpt lat="44.50256" lon="5.79298">
        <ele>870.204</ele>
        <time>2019-04-26T11:38:47Z</time>
      </trkpt>
      <trkpt lat="44.50184" lon="5.79212">
        <ele>863.619</ele>
        <time>2019-04-26T11:38:59Z</time>
      </trkpt>
      <trkpt lat="44.50143" lon="5.79092">
        <ele>852.351</ele>
        <time>2019-04-26T11:39:09Z</time>
      </trkpt>
      <trkpt lat="44.50075" lon="5.79026">
        <ele>859.317</ele>
        <time>2019-04-26T11:39:20Z</time>
      </trkpt>
      <trkpt lat="44.5003" lon="5.7896">
        <ele>863.636</ele>
        <time>2019-04-26T11:39:30Z</time>
      </trkpt>
      <trkpt lat="44.49944" lon="5.78926">
        <ele>866.734</ele>
        <time>2019-04-26T11:39:40Z</time>
      </trkpt>
      <trkpt lat="44.49848" lon="5.78846">
        <ele>852.993</ele>
        <time>2019-04-26T11:39:51Z</time>
      </trkpt>
      <trkpt lat="44.49741" lon="5.78791">
        <ele>870.111</ele>
        <time>2019-04-26T11:40:02Z</time>
      </trkpt>
      <trkpt lat="44.49672" lon="5.78746">
        <ele>872.984</ele>
        <time>2019-04-26T11:40:13Z</time>
      </trkpt>
      <trkpt lat="44.49611" lon="5.78681">
        <ele>857.749</ele>
        <time>2019-04-26T11:40:23Z</time>
      </trkpt>
      <trkpt lat="44.49557" lon="5.78622">
        <ele>841.594</ele>
        <time>2019-04-26T11:40:33Z</time>
      </trkpt>
      <trkpt lat="44.49498" lon="5.78586">
        <ele>839.042</ele>
        <time>2019-04-26T11:40:44Z</time>
      </trkpt>
      <trkpt lat="44.49454" lon="5.78565">
        <ele>834.298</ele>
        <time>2019-04-26T11:40:54Z</time>
      </trkpt>
      <trkpt lat="44.4939" lon="5.78514">
        <ele>818.065</ele>
        <time>2019-04-26T11:41:05Z</time>
      </trkpt>
      <trkpt lat="44.49321" lon="5.78446">
        <ele>801.629</ele>
        <time>2019-04-26T11:41:16Z</time>
      </trkpt>
      <trkpt lat="44.49254" lon="5.78389">
        <ele>800.489</ele>
        <time>2019-04-26T11:41:26Z</time>
      </trkpt>
      <trkpt lat="44.49195" lon="5.78319">
        <ele>799.574</ele>
        <time>2019-04-26T11:41:36Z</time>
      </trkpt>
      <trkpt lat="44.49157" lon="5.78253">
        <ele>803.736</ele>
        <time>2019-04-26T11:41:47Z</time>
      </trkpt>
      <trkpt lat="44.49111" lon="5.7819">
        <ele>802.879</ele>
        <time>2019-04-26T11:41:57Z</time>
      </trkpt>
      <trkpt lat="44.49047" lon="5.78179">
        <ele>810.401</ele>
        <time>2019-04-26T11:42:08Z</time>
      </trkpt>
      <trkpt lat="44.48993" lon="5.7817">
        <ele>813.262</ele>
        <time>2019-04-26T11:42:19Z</time>
      </trkpt>
      <trkpt lat="44.48918" lon="5.78164">
        <ele>817.113</ele>
        <time>2019-04-26T11:42:32Z</time>
      </trkpt>
      <trkpt lat="44.48859" lon="5.78153">
        <ele>824.62</ele>
        <time>2019-04-26T11:42:43Z</time>
      </trkpt>
      <trkpt lat="44.48785" lon="5.78136">
        <ele>820.527</ele>
        <time>2019-04-26T11:42:54Z</time>
      </trkpt>
      <trkpt lat="44.48727" lon="5.78144">
        <ele>812.067</ele>
        <time>2019-04-26T11:43:04Z</time>
      </trkpt>
      <trkpt lat="44.48681" lon="5.78146">
        <ele>813.563</ele>
        <time>2019-04-26T11:43:14Z</time>
      </trkpt>
      <trkpt lat="44.48638" lon="5.78151">
        <ele>814.985</ele>
        <time>2019-04-26T11:43:25Z</time>
      </trkpt>
      <trkpt lat="44.48608" lon="5.78158">
        <ele>815.432</ele>
        <time>2019-04-26T11:43:35Z</time>
      </trkpt>
      <trkpt lat="44.48576" lon="5.78152">
        <ele>816.07</ele>
        <time>2019-04-26T11:43:46Z</time>
      </trkpt>
      <trkpt lat="44.48551" lon="5.78136">
        <ele>816.844</ele>
        <time>2019-04-26T11:43:56Z</time>
      </trkpt>
      <trkpt lat="44.48525" lon="5.78116">
        <ele>817.932</ele>
        <time>2019-04-26T11:44:06Z</time>
      </trkpt>
      <trkpt lat="44.48493" lon="5.781">
        <ele>819.136</ele>
        <time>2019-04-26T11:44:17Z</time>
      </trkpt>
      <trkpt lat="44.48459" lon="5.78099">
        <ele>820.189</ele>
        <time>2019-04-26T11:44:28Z</time>
      </trkpt>
      <trkpt lat="44.48455" lon="5.78096">
        <ele>822.007</ele>
        <time>2019-04-26T11:44:39Z</time>
      </trkpt>
      <trkpt lat="44.48453" lon="5.78089">
        <ele>821.81</ele>
        <time>2019-04-26T11:44:49Z</time>
      </trkpt>
      <trkpt lat="44.48458" lon="5.78095">
        <ele>822.28</ele>
        <time>2019-04-26T11:45:00Z</time>
      </trkpt>
      <trkpt lat="44.48439" lon="5.78074">
        <ele>827.754</ele>
        <time>2019-04-26T11:45:10Z</time>
      </trkpt>
      <trkpt lat="44.4844" lon="5.78084">
        <ele>838.673</ele>
        <time>2019-04-26T11:45:20Z</time>
      </trkpt>
      <trkpt lat="44.48435" lon="5.78082">
        <ele>862.986</ele>
        <time>2019-04-26T11:45:32Z</time>
      </trkpt>
      <trkpt lat="44.48419" lon="5.78104">
        <ele>843.031</ele>
        <time>2019-04-26T11:45:42Z</time>
      </trkpt>
      <trkpt lat="44.48395" lon="5.78116">
        <ele>836.082</ele>
        <time>2019-04-26T11:45:52Z</time>
      </trkpt>
      <trkpt lat="44.48379" lon="5.78132">
        <ele>833.062</ele>
        <time>2019-04-26T11:46:03Z</time>
      </trkpt>
      <trkpt lat="44.48368" lon="5.78149">
        <ele>831.358</ele>
        <time>2019-04-26T11:46:14Z</time>
      </trkpt>
      <trkpt lat="44.48355" lon="5.78178">
        <ele>829.931</ele>
        <time>2019-04-26T11:46:25Z</time>
      </trkpt>
      <trkpt lat="44.48331" lon="5.78229">
        <ele>823.229</ele>
        <time>2019-04-26T11:46:36Z</time>
      </trkpt>
      <trkpt lat="44.48267" lon="5.78272">
        <ele>820.012</ele>
        <time>2019-04-26T11:46:47Z</time>
      </trkpt>
      <trkpt lat="44.48192" lon="5.78298">
        <ele>818.725</ele>
        <time>2019-04-26T11:46:58Z</time>
      </trkpt>
      <trkpt lat="44.4813" lon="5.7833">
        <ele>818.295</ele>
        <time>2019-04-26T11:47:09Z</time>
      </trkpt>
      <trkpt lat="44.48084" lon="5.78352">
        <ele>817.608</ele>
        <time>2019-04-26T11:47:19Z</time>
      </trkpt>
      <trkpt lat="44.48041" lon="5.78363">
        <ele>817.753</ele>
        <time>2019-04-26T11:47:30Z</time>
      </trkpt>
      <trkpt lat="44.48008" lon="5.78361">
        <ele>818.227</ele>
        <time>2019-04-26T11:47:41Z</time>
      </trkpt>
      <trkpt lat="44.47978" lon="5.78365">
        <ele>818.813</ele>
        <time>2019-04-26T11:47:52Z</time>
      </trkpt>
      <trkpt lat="44.47949" lon="5.78383">
        <ele>819.394</ele>
        <time>2019-04-26T11:48:03Z</time>
      </trkpt>
      <trkpt lat="44.47922" lon="5.78398">
        <ele>820.096</ele>
        <time>2019-04-26T11:48:14Z</time>
      </trkpt>
      <trkpt lat="44.47891" lon="5.78402">
        <ele>820.828</ele>
        <time>2019-04-26T11:48:25Z</time>
      </trkpt>
      <trkpt lat="44.47856" lon="5.78392">
        <ele>821.857</ele>
        <time>2019-04-26T11:48:36Z</time>
      </trkpt>
      <trkpt lat="44.47822" lon="5.78386">
        <ele>822.993</ele>
        <time>2019-04-26T11:48:46Z</time>
      </trkpt>
      <trkpt lat="44.47787" lon="5.78391">
        <ele>824.51</ele>
        <time>2019-04-26T11:48:57Z</time>
      </trkpt>
      <trkpt lat="44.4774" lon="5.7839">
        <ele>830.366</ele>
        <time>2019-04-26T11:49:07Z</time>
      </trkpt>
      <trkpt lat="44.47668" lon="5.78364">
        <ele>831.945</ele>
        <time>2019-04-26T11:49:18Z</time>
      </trkpt>
      <trkpt lat="44.47608" lon="5.78319">
        <ele>831.172</ele>
        <time>2019-04-26T11:49:28Z</time>
      </trkpt>
      <trkpt lat="44.47551" lon="5.78261">
        <ele>829.801</ele>
        <time>2019-04-26T11:49:39Z</time>
      </trkpt>
      <trkpt lat="44.47491" lon="5.78198">
        <ele>828.222</ele>
        <time>2019-04-26T11:49:50Z</time>
      </trkpt>
      <trkpt lat="44.47417" lon="5.78169">
        <ele>826.18</ele>
        <time>2019-04-26T11:50:00Z</time>
      </trkpt>
      <trkpt lat="44.47361" lon="5.78192">
        <ele>823.27</ele>
        <time>2019-04-26T11:50:10Z</time>
      </trkpt>
      <trkpt lat="44.47311" lon="5.78278">
        <ele>819.52</ele>
        <time>2019-04-26T11:50:21Z</time>
      </trkpt>
      <trkpt lat="44.47263" lon="5.7836">
        <ele>816.404</ele>
        <time>2019-04-26T11:50:32Z</time>
      </trkpt>
      <trkpt lat="44.47221" lon="5.78433">
        <ele>814.439</ele>
        <time>2019-04-26T11:50:42Z</time>
      </trkpt>
      <trkpt lat="44.4718" lon="5.78505">
        <ele>812.934</ele>
        <time>2019-04-26T11:50:53Z</time>
      </trkpt>
      <trkpt lat="44.47143" lon="5.78566">
        <ele>812.022</ele>
        <time>2019-04-26T11:51:04Z</time>
      </trkpt>
      <trkpt lat="44.4712" lon="5.78609">
        <ele>812.318</ele>
        <time>2019-04-26T11:51:14Z</time>
      </trkpt>
      <trkpt lat="44.47088" lon="5.78659">
        <ele>812.725</ele>
        <time>2019-04-26T11:51:25Z</time>
      </trkpt>
      <trkpt lat="44.47051" lon="5.78726">
        <ele>813.11</ele>
        <time>2019-04-26T11:51:36Z</time>
      </trkpt>
      <trkpt lat="44.47007" lon="5.7875">
        <ele>813.26</ele>
        <time>2019-04-26T11:51:46Z</time>
      </trkpt>
      <trkpt lat="44.46966" lon="5.78726">
        <ele>812.473</ele>
        <time>2019-04-26T11:51:57Z</time>
      </trkpt>
      <trkpt lat="44.46941" lon="5.78687">
        <ele>812.53</ele>
        <time>2019-04-26T11:52:08Z</time>
      </trkpt>
      <trkpt lat="44.46909" lon="5.78663">
        <ele>813.363</ele>
        <time>2019-04-26T11:52:18Z</time>
      </trkpt>
      <trkpt lat="44.46861" lon="5.78631">
        <ele>813.324</ele>
        <time>2019-04-26T11:52:29Z</time>
      </trkpt>
      <trkpt lat="44.46819" lon="5.78592">
        <ele>811.669</ele>
        <time>2019-04-26T11:52:39Z</time>
      </trkpt>
      <trkpt lat="44.46779" lon="5.78555">
        <ele>810.753</ele>
        <time>2019-04-26T11:52:50Z</time>
      </trkpt>
      <trkpt lat="44.46745" lon="5.78525">
        <ele>811.149</ele>
        <time>2019-04-26T11:53:01Z</time>
      </trkpt>
      <trkpt lat="44.46716" lon="5.785">
        <ele>811.415</ele>
        <time>2019-04-26T11:53:12Z</time>
      </trkpt>
      <trkpt lat="44.46689" lon="5.78464">
        <ele>812.78</ele>
        <time>2019-04-26T11:53:22Z</time>
      </trkpt>
      <trkpt lat="44.46672" lon="5.78421">
        <ele>813.52</ele>
        <time>2019-04-26T11:53:33Z</time>
      </trkpt>
      <trkpt lat="44.46641" lon="5.78389">
        <ele>814.964</ele>
        <time>2019-04-26T11:53:44Z</time>
      </trkpt>
      <trkpt lat="44.46603" lon="5.78361">
        <ele>816.361</ele>
        <time>2019-04-26T11:53:55Z</time>
      </trkpt>
      <trkpt lat="44.46566" lon="5.78333">
        <ele>818.212</ele>
        <time>2019-04-26T11:54:06Z</time>
      </trkpt>
      <trkpt lat="44.46526" lon="5.78318">
        <ele>819.072</ele>
        <time>2019-04-26T11:54:16Z</time>
      </trkpt>
      <trkpt lat="44.4648" lon="5.78305">
        <ele>819.83</ele>
        <time>2019-04-26T11:54:27Z</time>
      </trkpt>
      <trkpt lat="44.4644" lon="5.7831">
        <ele>820.23</ele>
        <time>2019-04-26T11:54:38Z</time>
      </trkpt>
      <trkpt lat="44.46397" lon="5.78324">
        <ele>820.48</ele>
        <time>2019-04-26T11:54:49Z</time>
      </trkpt>
      <trkpt lat="44.46352" lon="5.7832">
        <ele>822.31</ele>
        <time>2019-04-26T11:55:00Z</time>
      </trkpt>
      <trkpt lat="44.463" lon="5.78314">
        <ele>822.822</ele>
        <time>2019-04-26T11:55:11Z</time>
      </trkpt>
      <trkpt lat="44.46254" lon="5.78285">
        <ele>820.776</ele>
        <time>2019-04-26T11:55:22Z</time>
      </trkpt>
      <trkpt lat="44.4622" lon="5.78259">
        <ele>820.552</ele>
        <time>2019-04-26T11:55:32Z</time>
      </trkpt>
      <trkpt lat="44.46184" lon="5.7825">
        <ele>820.793</ele>
        <time>2019-04-26T11:55:43Z</time>
      </trkpt>
      <trkpt lat="44.46147" lon="5.78251">
        <ele>821.059</ele>
        <time>2019-04-26T11:55:54Z</time>
      </trkpt>
      <trkpt lat="44.46114" lon="5.78254">
        <ele>821.427</ele>
        <time>2019-04-26T11:56:05Z</time>
      </trkpt>
      <trkpt lat="44.46082" lon="5.7828">
        <ele>821.824</ele>
        <time>2019-04-26T11:56:16Z</time>
      </trkpt>
      <trkpt lat="44.46047" lon="5.78322">
        <ele>822.52</ele>
        <time>2019-04-26T11:56:27Z</time>
      </trkpt>
      <trkpt lat="44.45997" lon="5.78328">
        <ele>823.88</ele>
        <time>2019-04-26T11:56:38Z</time>
      </trkpt>
      <trkpt lat="44.4596" lon="5.78322">
        <ele>823.949</ele>
        <time>2019-04-26T11:56:48Z</time>
      </trkpt>
      <trkpt lat="44.4594" lon="5.78287">
        <ele>824.035</ele>
        <time>2019-04-26T11:56:59Z</time>
      </trkpt>
      <trkpt lat="44.45918" lon="5.78281">
        <ele>824.744</ele>
        <time>2019-04-26T11:57:10Z</time>
      </trkpt>
      <trkpt lat="44.45894" lon="5.78279">
        <ele>825.62</ele>
        <time>2019-04-26T11:57:21Z</time>
      </trkpt>
      <trkpt lat="44.4587" lon="5.78285">
        <ele>826.184</ele>
        <time>2019-04-26T11:57:32Z</time>
      </trkpt>
      <trkpt lat="44.4585" lon="5.78299">
        <ele>826.727</ele>
        <time>2019-04-26T11:57:43Z</time>
      </trkpt>
      <trkpt lat="44.45832" lon="5.78315">
        <ele>827.486</ele>
        <time>2019-04-26T11:57:54Z</time>
      </trkpt>
      <trkpt lat="44.45814" lon="5.78337">
        <ele>828.4</ele>
        <time>2019-04-26T11:58:05Z</time>
      </trkpt>
      <trkpt lat="44.45796" lon="5.7836">
        <ele>829.554</ele>
        <time>2019-04-26T11:58:16Z</time>
      </trkpt>
      <trkpt lat="44.45776" lon="5.78383">
        <ele>830.893</ele>
        <time>2019-04-26T11:58:27Z</time>
      </trkpt>
      <trkpt lat="44.45755" lon="5.78405">
        <ele>832.161</ele>
        <time>2019-04-26T11:58:37Z</time>
      </trkpt>
      <trkpt lat="44.4572" lon="5.78402">
        <ele>832.705</ele>
        <time>2019-04-26T11:58:47Z</time>
      </trkpt>
      <trkpt lat="44.45689" lon="5.78384">
        <ele>833.003</ele>
        <time>2019-04-26T11:58:58Z</time>
      </trkpt>
      <trkpt lat="44.45678" lon="5.78355">
        <ele>834.706</ele>
        <time>2019-04-26T11:59:09Z</time>
      </trkpt>
      <trkpt lat="44.45668" lon="5.7832">
        <ele>836.894</ele>
        <time>2019-04-26T11:59:20Z</time>
      </trkpt>
      <trkpt lat="44.45657" lon="5.78291">
        <ele>838.362</ele>
        <time>2019-04-26T11:59:30Z</time>
      </trkpt>
      <trkpt lat="44.45639" lon="5.78265">
        <ele>839.802</ele>
        <time>2019-04-26T11:59:41Z</time>
      </trkpt>
      <trkpt lat="44.45612" lon="5.7827">
        <ele>841.106</ele>
        <time>2019-04-26T11:59:52Z</time>
      </trkpt>
      <trkpt lat="44.45593" lon="5.78296">
        <ele>842.183</ele>
        <time>2019-04-26T12:00:03Z</time>
      </trkpt>
      <trkpt lat="44.45572" lon="5.78315">
        <ele>842.907</ele>
        <time>2019-04-26T12:00:13Z</time>
      </trkpt>
      <trkpt lat="44.45547" lon="5.78319">
        <ele>843.754</ele>
        <time>2019-04-26T12:00:23Z</time>
      </trkpt>
      <trkpt lat="44.4552" lon="5.78317">
        <ele>844.031</ele>
        <time>2019-04-26T12:00:34Z</time>
      </trkpt>
      <trkpt lat="44.45493" lon="5.78316">
        <ele>844.35</ele>
        <time>2019-04-26T12:00:45Z</time>
      </trkpt>
      <trkpt lat="44.45464" lon="5.78315">
        <ele>844.82</ele>
        <time>2019-04-26T12:00:56Z</time>
      </trkpt>
      <trkpt lat="44.45437" lon="5.78321">
        <ele>845.605</ele>
        <time>2019-04-26T12:01:07Z</time>
      </trkpt>
      <trkpt lat="44.45404" lon="5.78353">
        <ele>847.377</ele>
        <time>2019-04-26T12:01:17Z</time>
      </trkpt>
      <trkpt lat="44.45343" lon="5.78431">
        <ele>842.708</ele>
        <time>2019-04-26T12:01:27Z</time>
      </trkpt>
      <trkpt lat="44.45253" lon="5.78496">
        <ele>841.827</ele>
        <time>2019-04-26T12:01:38Z</time>
      </trkpt>
      <trkpt lat="44.45196" lon="5.7843">
        <ele>841.293</ele>
        <time>2019-04-26T12:01:48Z</time>
      </trkpt>
      <trkpt lat="44.45146" lon="5.78439">
        <ele>839.898</ele>
        <time>2019-04-26T12:01:58Z</time>
      </trkpt>
      <trkpt lat="44.45092" lon="5.78426">
        <ele>840.93</ele>
        <time>2019-04-26T12:02:09Z</time>
      </trkpt>
      <trkpt lat="44.45051" lon="5.78443">
        <ele>841.836</ele>
        <time>2019-04-26T12:02:19Z</time>
      </trkpt>
      <trkpt lat="44.45014" lon="5.7841">
        <ele>841.979</ele>
        <time>2019-04-26T12:02:30Z</time>
      </trkpt>
      <trkpt lat="44.45027" lon="5.78358">
        <ele>842.711</ele>
        <time>2019-04-26T12:02:40Z</time>
      </trkpt>
      <trkpt lat="44.45002" lon="5.78311">
        <ele>843.382</ele>
        <time>2019-04-26T12:02:51Z</time>
      </trkpt>
      <trkpt lat="44.44958" lon="5.78268">
        <ele>843.154</ele>
        <time>2019-04-26T12:03:02Z</time>
      </trkpt>
      <trkpt lat="44.44903" lon="5.78217">
        <ele>842.536</ele>
        <time>2019-04-26T12:03:12Z</time>
      </trkpt>
      <trkpt lat="44.44818" lon="5.78196">
        <ele>841.659</ele>
        <time>2019-04-26T12:03:23Z</time>
      </trkpt>
      <trkpt lat="44.44744" lon="5.78213">
        <ele>840.586</ele>
        <time>2019-04-26T12:03:33Z</time>
      </trkpt>
      <trkpt lat="44.44686" lon="5.78264">
        <ele>839.038</ele>
        <time>2019-04-26T12:03:44Z</time>
      </trkpt>
      <trkpt lat="44.44685" lon="5.78265">
        <ele>838.935</ele>
        <time>2019-04-26T12:03:54Z</time>
      </trkpt>
      <trkpt lat="44.44685" lon="5.78265">
        <ele>838.61</ele>
        <time>2019-04-26T12:04:05Z</time>
      </trkpt>
      <trkpt lat="44.44685" lon="5.78265">
        <ele>838.551</ele>
        <time>2019-04-26T12:04:15Z</time>
      </trkpt>
      <trkpt lat="44.4468" lon="5.78263">
        <ele>838.083</ele>
        <time>2019-04-26T12:04:26Z</time>
      </trkpt>
      <trkpt lat="44.44661" lon="5.78289">
        <ele>837.571</ele>
        <time>2019-04-26T12:04:36Z</time>
      </trkpt>
      <trkpt lat="44.44626" lon="5.78323">
        <ele>835.173</ele>
        <time>2019-04-26T12:04:46Z</time>
      </trkpt>
      <trkpt lat="44.44568" lon="5.7832">
        <ele>834.142</ele>
        <time>2019-04-26T12:04:56Z</time>
      </trkpt>
      <trkpt lat="44.44528" lon="5.78316">
        <ele>834.525</ele>
        <time>2019-04-26T12:05:06Z</time>
      </trkpt>
      <trkpt lat="44.44511" lon="5.78343">
        <ele>834.767</ele>
        <time>2019-04-26T12:05:17Z</time>
      </trkpt>
      <trkpt lat="44.44498" lon="5.7837">
        <ele>834.869</ele>
        <time>2019-04-26T12:05:28Z</time>
      </trkpt>
      <trkpt lat="44.44485" lon="5.78398">
        <ele>834.965</ele>
        <time>2019-04-26T12:05:39Z</time>
      </trkpt>
      <trkpt lat="44.44472" lon="5.78429">
        <ele>835.113</ele>
        <time>2019-04-26T12:05:50Z</time>
      </trkpt>
      <trkpt lat="44.44459" lon="5.78457">
        <ele>835.273</ele>
        <time>2019-04-26T12:06:00Z</time>
      </trkpt>
      <trkpt lat="44.44452" lon="5.78475">
        <ele>835.619</ele>
        <time>2019-04-26T12:06:11Z</time>
      </trkpt>
      <trkpt lat="44.44452" lon="5.78475">
        <ele>835.682</ele>
        <time>2019-04-26T12:06:22Z</time>
      </trkpt>
      <trkpt lat="44.44452" lon="5.78475">
        <ele>835.769</ele>
        <time>2019-04-26T12:06:32Z</time>
      </trkpt>
      <trkpt lat="44.44452" lon="5.78475">
        <ele>836.105</ele>
        <time>2019-04-26T12:06:43Z</time>
      </trkpt>
      <trkpt lat="44.44451" lon="5.78481">
        <ele>836.692</ele>
        <time>2019-04-26T12:06:54Z</time>
      </trkpt>
      <trkpt lat="44.44451" lon="5.78483">
        <ele>837.142</ele>
        <time>2019-04-26T12:07:05Z</time>
      </trkpt>
      <trkpt lat="44.44446" lon="5.78492">
        <ele>838.158</ele>
        <time>2019-04-26T12:07:16Z</time>
      </trkpt>
      <trkpt lat="44.44435" lon="5.78522">
        <ele>839.278</ele>
        <time>2019-04-26T12:07:26Z</time>
      </trkpt>
      <trkpt lat="44.44428" lon="5.78557">
        <ele>840.36</ele>
        <time>2019-04-26T12:07:37Z</time>
      </trkpt>
      <trkpt lat="44.44426" lon="5.78592">
        <ele>841.36</ele>
        <time>2019-04-26T12:07:48Z</time>
      </trkpt>
      <trkpt lat="44.44419" lon="5.7862">
        <ele>842.42</ele>
        <time>2019-04-26T12:07:59Z</time>
      </trkpt>
      <trkpt lat="44.4441" lon="5.78647">
        <ele>843.461</ele>
        <time>2019-04-26T12:08:10Z</time>
      </trkpt>
      <trkpt lat="44.44404" lon="5.78666">
        <ele>844.366</ele>
        <time>2019-04-26T12:08:21Z</time>
      </trkpt>
      <trkpt lat="44.44394" lon="5.78687">
        <ele>845.151</ele>
        <time>2019-04-26T12:08:31Z</time>
      </trkpt>
      <trkpt lat="44.44393" lon="5.78711">
        <ele>846.273</ele>
        <time>2019-04-26T12:08:42Z</time>
      </trkpt>
      <trkpt lat="44.44389" lon="5.78734">
        <ele>847.337</ele>
        <time>2019-04-26T12:08:53Z</time>
      </trkpt>
      <trkpt lat="44.44383" lon="5.78759">
        <ele>848.457</ele>
        <time>2019-04-26T12:09:04Z</time>
      </trkpt>
      <trkpt lat="44.4438" lon="5.78787">
        <ele>849.675</ele>
        <time>2019-04-26T12:09:15Z</time>
      </trkpt>
      <trkpt lat="44.44375" lon="5.78813">
        <ele>851.062</ele>
        <time>2019-04-26T12:09:26Z</time>
      </trkpt>
      <trkpt lat="44.4437" lon="5.78834">
        <ele>852.383</ele>
        <time>2019-04-26T12:09:36Z</time>
      </trkpt>
      <trkpt lat="44.44364" lon="5.78853">
        <ele>853.88</ele>
        <time>2019-04-26T12:09:47Z</time>
      </trkpt>
      <trkpt lat="44.44353" lon="5.78871">
        <ele>855.176</ele>
        <time>2019-04-26T12:09:58Z</time>
      </trkpt>
      <trkpt lat="44.4434" lon="5.78886">
        <ele>856.132</ele>
        <time>2019-04-26T12:10:08Z</time>
      </trkpt>
      <trkpt lat="44.44324" lon="5.78901">
        <ele>857.4</ele>
        <time>2019-04-26T12:10:19Z</time>
      </trkpt>
      <trkpt lat="44.44309" lon="5.78913">
        <ele>859.135</ele>
        <time>2019-04-26T12:10:30Z</time>
      </trkpt>
      <trkpt lat="44.44295" lon="5.78925">
        <ele>861.187</ele>
        <time>2019-04-26T12:10:40Z</time>
      </trkpt>
      <trkpt lat="44.44279" lon="5.78936">
        <ele>863.266</ele>
        <time>2019-04-26T12:10:51Z</time>
      </trkpt>
      <trkpt lat="44.44261" lon="5.78949">
        <ele>865.06</ele>
        <time>2019-04-26T12:11:02Z</time>
      </trkpt>
      <trkpt lat="44.44241" lon="5.78958">
        <ele>866.788</ele>
        <time>2019-04-26T12:11:13Z</time>
      </trkpt>
      <trkpt lat="44.44223" lon="5.78965">
        <ele>868.28</ele>
        <time>2019-04-26T12:11:23Z</time>
      </trkpt>
      <trkpt lat="44.44203" lon="5.78978">
        <ele>869.719</ele>
        <time>2019-04-26T12:11:34Z</time>
      </trkpt>
      <trkpt lat="44.44188" lon="5.78998">
        <ele>871.219</ele>
        <time>2019-04-26T12:11:45Z</time>
      </trkpt>
      <trkpt lat="44.44176" lon="5.7902">
        <ele>872.448</ele>
        <time>2019-04-26T12:11:55Z</time>
      </trkpt>
      <trkpt lat="44.44164" lon="5.79049">
        <ele>873.702</ele>
        <time>2019-04-26T12:12:06Z</time>
      </trkpt>
      <trkpt lat="44.44158" lon="5.79061">
        <ele>874.69</ele>
        <time>2019-04-26T12:12:16Z</time>
      </trkpt>
      <trkpt lat="44.44158" lon="5.79061">
        <ele>874.833</ele>
        <time>2019-04-26T12:12:27Z</time>
      </trkpt>
      <trkpt lat="44.44158" lon="5.79061">
        <ele>874.954</ele>
        <time>2019-04-26T12:12:37Z</time>
      </trkpt>
      <trkpt lat="44.44158" lon="5.79061">
        <ele>875.112</ele>
        <time>2019-04-26T12:12:48Z</time>
      </trkpt>
      <trkpt lat="44.44157" lon="5.79068">
        <ele>876.074</ele>
        <time>2019-04-26T12:12:58Z</time>
      </trkpt>
      <trkpt lat="44.44144" lon="5.79094">
        <ele>877.692</ele>
        <time>2019-04-26T12:13:09Z</time>
      </trkpt>
      <trkpt lat="44.44132" lon="5.79105">
        <ele>879.528</ele>
        <time>2019-04-26T12:13:20Z</time>
      </trkpt>
      <trkpt lat="44.44132" lon="5.79105">
        <ele>879.94</ele>
        <time>2019-04-26T12:13:31Z</time>
      </trkpt>
      <trkpt lat="44.44132" lon="5.79105">
        <ele>880.112</ele>
        <time>2019-04-26T12:13:42Z</time>
      </trkpt>
      <trkpt lat="44.44132" lon="5.79106">
        <ele>880.221</ele>
        <time>2019-04-26T12:13:52Z</time>
      </trkpt>
      <trkpt lat="44.44132" lon="5.79107">
        <ele>880.947</ele>
        <time>2019-04-26T12:14:03Z</time>
      </trkpt>
      <trkpt lat="44.44135" lon="5.79105">
        <ele>882.054</ele>
        <time>2019-04-26T12:14:14Z</time>
      </trkpt>
      <trkpt lat="44.44135" lon="5.79106">
        <ele>882.211</ele>
        <time>2019-04-26T12:14:25Z</time>
      </trkpt>
      <trkpt lat="44.44135" lon="5.79106">
        <ele>882.598</ele>
        <time>2019-04-26T12:14:36Z</time>
      </trkpt>
      <trkpt lat="44.44134" lon="5.79106">
        <ele>882.979</ele>
        <time>2019-04-26T12:14:47Z</time>
      </trkpt>
      <trkpt lat="44.44132" lon="5.79105">
        <ele>884.37</ele>
        <time>2019-04-26T12:14:57Z</time>
      </trkpt>
      <trkpt lat="44.44132" lon="5.79105">
        <ele>884.612</ele>
        <time>2019-04-26T12:15:07Z</time>
      </trkpt>
      <trkpt lat="44.44133" lon="5.79105">
        <ele>884.897</ele>
        <time>2019-04-26T12:15:18Z</time>
      </trkpt>
      <trkpt lat="44.44132" lon="5.79105">
        <ele>885.507</ele>
        <time>2019-04-26T12:15:29Z</time>
      </trkpt>
      <trkpt lat="44.44132" lon="5.79105">
        <ele>886.016</ele>
        <time>2019-04-26T12:15:39Z</time>
      </trkpt>
      <trkpt lat="44.44132" lon="5.79105">
        <ele>886.177</ele>
        <time>2019-04-26T12:15:50Z</time>
      </trkpt>
      <trkpt lat="44.44133" lon="5.79106">
        <ele>886.535</ele>
        <time>2019-04-26T12:16:01Z</time>
      </trkpt>
      <trkpt lat="44.44133" lon="5.79106">
        <ele>886.808</ele>
        <time>2019-04-26T12:16:12Z</time>
      </trkpt>
      <trkpt lat="44.44133" lon="5.79106">
        <ele>886.916</ele>
        <time>2019-04-26T12:16:23Z</time>
      </trkpt>
      <trkpt lat="44.44133" lon="5.79105">
        <ele>887.101</ele>
        <time>2019-04-26T12:16:34Z</time>
      </trkpt>
      <trkpt lat="44.44132" lon="5.79105">
        <ele>887.218</ele>
        <time>2019-04-26T12:16:44Z</time>
      </trkpt>
      <trkpt lat="44.44132" lon="5.79104">
        <ele>887.516</ele>
        <time>2019-04-26T12:16:55Z</time>
      </trkpt>
      <trkpt lat="44.44132" lon="5.79103">
        <ele>887.725</ele>
        <time>2019-04-26T12:17:06Z</time>
      </trkpt>
      <trkpt lat="44.44132" lon="5.79102">
        <ele>887.955</ele>
        <time>2019-04-26T12:17:16Z</time>
      </trkpt>
      <trkpt lat="44.44132" lon="5.79102">
        <ele>888.226</ele>
        <time>2019-04-26T12:17:27Z</time>
      </trkpt>
      <trkpt lat="44.44132" lon="5.79101">
        <ele>888.926</ele>
        <time>2019-04-26T12:17:38Z</time>
      </trkpt>
      <trkpt lat="44.44132" lon="5.791">
        <ele>889.441</ele>
        <time>2019-04-26T12:17:49Z</time>
      </trkpt>
      <trkpt lat="44.44132" lon="5.79098">
        <ele>889.733</ele>
        <time>2019-04-26T12:18:00Z</time>
      </trkpt>
      <trkpt lat="44.44132" lon="5.79098">
        <ele>890.017</ele>
        <time>2019-04-26T12:18:10Z</time>
      </trkpt>
      <trkpt lat="44.44133" lon="5.79098">
        <ele>890.315</ele>
        <time>2019-04-26T12:18:21Z</time>
      </trkpt>
      <trkpt lat="44.44133" lon="5.79097">
        <ele>890.614</ele>
        <time>2019-04-26T12:18:32Z</time>
      </trkpt>
      <trkpt lat="44.44133" lon="5.79098">
        <ele>890.869</ele>
        <time>2019-04-26T12:18:42Z</time>
      </trkpt>
      <trkpt lat="44.44133" lon="5.79098">
        <ele>891.511</ele>
        <time>2019-04-26T12:18:52Z</time>
      </trkpt>
      <trkpt lat="44.44125" lon="5.79076">
        <ele>902.692</ele>
        <time>2019-04-26T12:19:03Z</time>
      </trkpt>
      <trkpt lat="44.44125" lon="5.79107">
        <ele>892.248</ele>
        <time>2019-04-26T12:19:13Z</time>
      </trkpt>
      <trkpt lat="44.44126" lon="5.79108">
        <ele>880.609</ele>
        <time>2019-04-26T12:19:23Z</time>
      </trkpt>
      <trkpt lat="44.44127" lon="5.79108">
        <ele>880.866</ele>
        <time>2019-04-26T12:19:34Z</time>
      </trkpt>
      <trkpt lat="44.44128" lon="5.79107">
        <ele>881.013</ele>
        <time>2019-04-26T12:19:45Z</time>
      </trkpt>
      <trkpt lat="44.44128" lon="5.79107">
        <ele>881.145</ele>
        <time>2019-04-26T12:19:55Z</time>
      </trkpt>
      <trkpt lat="44.44129" lon="5.79107">
        <ele>881.411</ele>
        <time>2019-04-26T12:20:06Z</time>
      </trkpt>
      <trkpt lat="44.44129" lon="5.79107">
        <ele>881.775</ele>
        <time>2019-04-26T12:20:17Z</time>
      </trkpt>
      <trkpt lat="44.4413" lon="5.79107">
        <ele>882.024</ele>
        <time>2019-04-26T12:20:28Z</time>
      </trkpt>
      <trkpt lat="44.4413" lon="5.79107">
        <ele>882.17</ele>
        <time>2019-04-26T12:20:38Z</time>
      </trkpt>
      <trkpt lat="44.4413" lon="5.79107">
        <ele>882.335</ele>
        <time>2019-04-26T12:20:49Z</time>
      </trkpt>
      <trkpt lat="44.44131" lon="5.79106">
        <ele>882.652</ele>
        <time>2019-04-26T12:21:00Z</time>
      </trkpt>
      <trkpt lat="44.44131" lon="5.79106">
        <ele>883.069</ele>
        <time>2019-04-26T12:21:10Z</time>
      </trkpt>
      <trkpt lat="44.44131" lon="5.79107">
        <ele>883.227</ele>
        <time>2019-04-26T12:21:21Z</time>
      </trkpt>
      <trkpt lat="44.44131" lon="5.79107">
        <ele>883.492</ele>
        <time>2019-04-26T12:21:31Z</time>
      </trkpt>
      <trkpt lat="44.44132" lon="5.79107">
        <ele>883.643</ele>
        <time>2019-04-26T12:21:42Z</time>
      </trkpt>
      <trkpt lat="44.44132" lon="5.79107">
        <ele>883.928</ele>
        <time>2019-04-26T12:21:53Z</time>
      </trkpt>
      <trkpt lat="44.44123" lon="5.79127">
        <ele>895.86</ele>
        <time>2019-04-26T12:22:04Z</time>
      </trkpt>
      <trkpt lat="44.44109" lon="5.79136">
        <ele>900.605</ele>
        <time>2019-04-26T12:22:18Z</time>
      </trkpt>
      <trkpt lat="44.44073" lon="5.7915">
        <ele>899.081</ele>
        <time>2019-04-26T12:22:31Z</time>
      </trkpt>
      <trkpt lat="44.44109" lon="5.79123">
        <ele>847.291</ele>
        <time>2019-04-26T12:22:42Z</time>
      </trkpt>
      <trkpt lat="44.4408" lon="5.79156">
        <ele>820.54</ele>
        <time>2019-04-26T12:22:53Z</time>
      </trkpt>
      <trkpt lat="44.44081" lon="5.79226">
        <ele>830.083</ele>
        <time>2019-04-26T12:23:05Z</time>
      </trkpt>
      <trkpt lat="44.44052" lon="5.79251">
        <ele>840.674</ele>
        <time>2019-04-26T12:23:15Z</time>
      </trkpt>
      <trkpt lat="44.44031" lon="5.79267">
        <ele>849.372</ele>
        <time>2019-04-26T12:23:26Z</time>
      </trkpt>
      <trkpt lat="44.44009" lon="5.79278">
        <ele>856.807</ele>
        <time>2019-04-26T12:23:37Z</time>
      </trkpt>
      <trkpt lat="44.4398" lon="5.7929">
        <ele>862.855</ele>
        <time>2019-04-26T12:23:48Z</time>
      </trkpt>
      <trkpt lat="44.43936" lon="5.79298">
        <ele>892.037</ele>
        <time>2019-04-26T12:23:59Z</time>
      </trkpt>
      <trkpt lat="44.4389" lon="5.79308">
        <ele>899.321</ele>
        <time>2019-04-26T12:24:10Z</time>
      </trkpt>
      <trkpt lat="44.43857" lon="5.79301">
        <ele>893.183</ele>
        <time>2019-04-26T12:24:21Z</time>
      </trkpt>
      <trkpt lat="44.43808" lon="5.79343">
        <ele>888.847</ele>
        <time>2019-04-26T12:24:31Z</time>
      </trkpt>
      <trkpt lat="44.43774" lon="5.79361">
        <ele>888.347</ele>
        <time>2019-04-26T12:24:43Z</time>
      </trkpt>
      <trkpt lat="44.43728" lon="5.79385">
        <ele>887.072</ele>
        <time>2019-04-26T12:24:54Z</time>
      </trkpt>
      <trkpt lat="44.43694" lon="5.79405">
        <ele>910.067</ele>
        <time>2019-04-26T12:25:06Z</time>
      </trkpt>
      <trkpt lat="44.43633" lon="5.79415">
        <ele>905.425</ele>
        <time>2019-04-26T12:25:16Z</time>
      </trkpt>
      <trkpt lat="44.43553" lon="5.79431">
        <ele>886.849</ele>
        <time>2019-04-26T12:25:26Z</time>
      </trkpt>
      <trkpt lat="44.4347" lon="5.79424">
        <ele>892.971</ele>
        <time>2019-04-26T12:25:37Z</time>
      </trkpt>
      <trkpt lat="44.4338" lon="5.79334">
        <ele>875.365</ele>
        <time>2019-04-26T12:25:48Z</time>
      </trkpt>
      <trkpt lat="44.4336" lon="5.79323">
        <ele>869.821</ele>
        <time>2019-04-26T12:25:58Z</time>
      </trkpt>
      <trkpt lat="44.43321" lon="5.79322">
        <ele>871.193</ele>
        <time>2019-04-26T12:26:08Z</time>
      </trkpt>
      <trkpt lat="44.43287" lon="5.79326">
        <ele>876.494</ele>
        <time>2019-04-26T12:26:19Z</time>
      </trkpt>
      <trkpt lat="44.43224" lon="5.79398">
        <ele>885.043</ele>
        <time>2019-04-26T12:26:30Z</time>
      </trkpt>
      <trkpt lat="44.43207" lon="5.79409">
        <ele>888.791</ele>
        <time>2019-04-26T12:26:42Z</time>
      </trkpt>
      <trkpt lat="44.43206" lon="5.79403">
        <ele>888.779</ele>
        <time>2019-04-26T12:26:53Z</time>
      </trkpt>
      <trkpt lat="44.43206" lon="5.79403">
        <ele>888.538</ele>
        <time>2019-04-26T12:27:03Z</time>
      </trkpt>
      <trkpt lat="44.43206" lon="5.79403">
        <ele>885.865</ele>
        <time>2019-04-26T12:27:14Z</time>
      </trkpt>
      <trkpt lat="44.43219" lon="5.7945">
        <ele>871.522</ele>
        <time>2019-04-26T12:27:26Z</time>
      </trkpt>
      <trkpt lat="44.43153" lon="5.79511">
        <ele>848.531</ele>
        <time>2019-04-26T12:27:37Z</time>
      </trkpt>
      <trkpt lat="44.43145" lon="5.79405">
        <ele>852.577</ele>
        <time>2019-04-26T12:27:47Z</time>
      </trkpt>
      <trkpt lat="44.43069" lon="5.79318">
        <ele>848.488</ele>
        <time>2019-04-26T12:27:57Z</time>
      </trkpt>
      <trkpt lat="44.43045" lon="5.79361">
        <ele>839.96</ele>
        <time>2019-04-26T12:28:08Z</time>
      </trkpt>
      <trkpt lat="44.43013" lon="5.79459">
        <ele>836.377</ele>
        <time>2019-04-26T12:28:21Z</time>
      </trkpt>
      <trkpt lat="44.4294" lon="5.79526">
        <ele>836.146</ele>
        <time>2019-04-26T12:28:31Z</time>
      </trkpt>
      <trkpt lat="44.42852" lon="5.79463">
        <ele>817.627</ele>
        <time>2019-04-26T12:28:42Z</time>
      </trkpt>
      <trkpt lat="44.42748" lon="5.79497">
        <ele>808.047</ele>
        <time>2019-04-26T12:28:53Z</time>
      </trkpt>
      <trkpt lat="44.42675" lon="5.79595">
        <ele>804.558</ele>
        <time>2019-04-26T12:29:04Z</time>
      </trkpt>
      <trkpt lat="44.42582" lon="5.79597">
        <ele>802.767</ele>
        <time>2019-04-26T12:29:15Z</time>
      </trkpt>
      <trkpt lat="44.42489" lon="5.79582">
        <ele>792.898</ele>
        <time>2019-04-26T12:29:26Z</time>
      </trkpt>
      <trkpt lat="44.42372" lon="5.7948">
        <ele>759.429</ele>
        <time>2019-04-26T12:29:38Z</time>
      </trkpt>
      <trkpt lat="44.42323" lon="5.79468">
        <ele>760.922</ele>
        <time>2019-04-26T12:29:48Z</time>
      </trkpt>
      <trkpt lat="44.42222" lon="5.79473">
        <ele>779.512</ele>
        <time>2019-04-26T12:29:59Z</time>
      </trkpt>
      <trkpt lat="44.42181" lon="5.79443">
        <ele>789.211</ele>
        <time>2019-04-26T12:30:09Z</time>
      </trkpt>
      <trkpt lat="44.42164" lon="5.79435">
        <ele>792.618</ele>
        <time>2019-04-26T12:30:20Z</time>
      </trkpt>
      <trkpt lat="44.42158" lon="5.79418">
        <ele>787.226</ele>
        <time>2019-04-26T12:30:30Z</time>
      </trkpt>
      <trkpt lat="44.42158" lon="5.79418">
        <ele>787.087</ele>
        <time>2019-04-26T12:30:40Z</time>
      </trkpt>
      <trkpt lat="44.42154" lon="5.79417">
        <ele>785.24</ele>
        <time>2019-04-26T12:30:51Z</time>
      </trkpt>
      <trkpt lat="44.4215" lon="5.79416">
        <ele>784.729</ele>
        <time>2019-04-26T12:31:01Z</time>
      </trkpt>
      <trkpt lat="44.42128" lon="5.79397">
        <ele>784.452</ele>
        <time>2019-04-26T12:31:11Z</time>
      </trkpt>
      <trkpt lat="44.42096" lon="5.79346">
        <ele>784.741</ele>
        <time>2019-04-26T12:31:22Z</time>
      </trkpt>
      <trkpt lat="44.4207" lon="5.79264">
        <ele>784.495</ele>
        <time>2019-04-26T12:31:32Z</time>
      </trkpt>
      <trkpt lat="44.42048" lon="5.79178">
        <ele>782.954</ele>
        <time>2019-04-26T12:31:42Z</time>
      </trkpt>
      <trkpt lat="44.42024" lon="5.7909">
        <ele>782.506</ele>
        <time>2019-04-26T12:31:53Z</time>
      </trkpt>
      <trkpt lat="44.42015" lon="5.79005">
        <ele>781.688</ele>
        <time>2019-04-26T12:32:04Z</time>
      </trkpt>
      <trkpt lat="44.42011" lon="5.78954">
        <ele>781.865</ele>
        <time>2019-04-26T12:32:14Z</time>
      </trkpt>
      <trkpt lat="44.42018" lon="5.78901">
        <ele>782.052</ele>
        <time>2019-04-26T12:32:25Z</time>
      </trkpt>
      <trkpt lat="44.42026" lon="5.7886">
        <ele>782.388</ele>
        <time>2019-04-26T12:32:35Z</time>
      </trkpt>
      <trkpt lat="44.42032" lon="5.78813">
        <ele>784.012</ele>
        <time>2019-04-26T12:32:45Z</time>
      </trkpt>
      <trkpt lat="44.42039" lon="5.78749">
        <ele>785.789</ele>
        <time>2019-04-26T12:32:56Z</time>
      </trkpt>
      <trkpt lat="44.42042" lon="5.78706">
        <ele>786.018</ele>
        <time>2019-04-26T12:33:06Z</time>
      </trkpt>
      <trkpt lat="44.42044" lon="5.78656">
        <ele>786.407</ele>
        <time>2019-04-26T12:33:17Z</time>
      </trkpt>
      <trkpt lat="44.42044" lon="5.78642">
        <ele>786.711</ele>
        <time>2019-04-26T12:33:27Z</time>
      </trkpt>
      <trkpt lat="44.42044" lon="5.78642">
        <ele>786.796</ele>
        <time>2019-04-26T12:33:38Z</time>
      </trkpt>
      <trkpt lat="44.42044" lon="5.78642">
        <ele>786.83</ele>
        <time>2019-04-26T12:33:49Z</time>
      </trkpt>
      <trkpt lat="44.4204" lon="5.78585">
        <ele>787.534</ele>
        <time>2019-04-26T12:33:59Z</time>
      </trkpt>
      <trkpt lat="44.42033" lon="5.78465">
        <ele>787.637</ele>
        <time>2019-04-26T12:34:09Z</time>
      </trkpt>
      <trkpt lat="44.42013" lon="5.78305">
        <ele>784.249</ele>
        <time>2019-04-26T12:34:20Z</time>
      </trkpt>
      <trkpt lat="44.42005" lon="5.78155">
        <ele>779.28</ele>
        <time>2019-04-26T12:34:31Z</time>
      </trkpt>
      <trkpt lat="44.42015" lon="5.78038">
        <ele>775.292</ele>
        <time>2019-04-26T12:34:41Z</time>
      </trkpt>
      <trkpt lat="44.42016" lon="5.77933">
        <ele>772.42</ele>
        <time>2019-04-26T12:34:51Z</time>
      </trkpt>
      <trkpt lat="44.41997" lon="5.77817">
        <ele>769.989</ele>
        <time>2019-04-26T12:35:01Z</time>
      </trkpt>
      <trkpt lat="44.41973" lon="5.77685">
        <ele>767.311</ele>
        <time>2019-04-26T12:35:12Z</time>
      </trkpt>
      <trkpt lat="44.41941" lon="5.77579">
        <ele>764.773</ele>
        <time>2019-04-26T12:35:23Z</time>
      </trkpt>
      <trkpt lat="44.41922" lon="5.7751">
        <ele>762.601</ele>
        <time>2019-04-26T12:35:34Z</time>
      </trkpt>
      <trkpt lat="44.41904" lon="5.77463">
        <ele>760.979</ele>
        <time>2019-04-26T12:35:44Z</time>
      </trkpt>
      <trkpt lat="44.41883" lon="5.7739">
        <ele>759.754</ele>
        <time>2019-04-26T12:35:55Z</time>
      </trkpt>
      <trkpt lat="44.41884" lon="5.77318">
        <ele>758.288</ele>
        <time>2019-04-26T12:36:05Z</time>
      </trkpt>
      <trkpt lat="44.41883" lon="5.77245">
        <ele>758.681</ele>
        <time>2019-04-26T12:36:16Z</time>
      </trkpt>
      <trkpt lat="44.41871" lon="5.77189">
        <ele>759.155</ele>
        <time>2019-04-26T12:36:26Z</time>
      </trkpt>
      <trkpt lat="44.41856" lon="5.77128">
        <ele>759.829</ele>
        <time>2019-04-26T12:36:37Z</time>
      </trkpt>
      <trkpt lat="44.41842" lon="5.77072">
        <ele>760.225</ele>
        <time>2019-04-26T12:36:47Z</time>
      </trkpt>
      <trkpt lat="44.41826" lon="5.77019">
        <ele>760.668</ele>
        <time>2019-04-26T12:36:57Z</time>
      </trkpt>
      <trkpt lat="44.41789" lon="5.76968">
        <ele>761.096</ele>
        <time>2019-04-26T12:37:08Z</time>
      </trkpt>
      <trkpt lat="44.41756" lon="5.76891">
        <ele>761.209</ele>
        <time>2019-04-26T12:37:19Z</time>
      </trkpt>
      <trkpt lat="44.41718" lon="5.76805">
        <ele>760.745</ele>
        <time>2019-04-26T12:37:29Z</time>
      </trkpt>
      <trkpt lat="44.41662" lon="5.76736">
        <ele>760.102</ele>
        <time>2019-04-26T12:37:40Z</time>
      </trkpt>
      <trkpt lat="44.4163" lon="5.76677">
        <ele>759.713</ele>
        <time>2019-04-26T12:37:51Z</time>
      </trkpt>
      <trkpt lat="44.41606" lon="5.76624">
        <ele>759.583</ele>
        <time>2019-04-26T12:38:02Z</time>
      </trkpt>
      <trkpt lat="44.41579" lon="5.76568">
        <ele>759.522</ele>
        <time>2019-04-26T12:38:13Z</time>
      </trkpt>
      <trkpt lat="44.41549" lon="5.76498">
        <ele>759.41</ele>
        <time>2019-04-26T12:38:24Z</time>
      </trkpt>
      <trkpt lat="44.41537" lon="5.76391">
        <ele>758.868</ele>
        <time>2019-04-26T12:38:34Z</time>
      </trkpt>
      <trkpt lat="44.41523" lon="5.76243">
        <ele>757.229</ele>
        <time>2019-04-26T12:38:45Z</time>
      </trkpt>
      <trkpt lat="44.41439" lon="5.76157">
        <ele>754.171</ele>
        <time>2019-04-26T12:38:55Z</time>
      </trkpt>
      <trkpt lat="44.41365" lon="5.76051">
        <ele>751.134</ele>
        <time>2019-04-26T12:39:06Z</time>
      </trkpt>
      <trkpt lat="44.4127" lon="5.76028">
        <ele>748.78</ele>
        <time>2019-04-26T12:39:17Z</time>
      </trkpt>
      <trkpt lat="44.41177" lon="5.75975">
        <ele>746.657</ele>
        <time>2019-04-26T12:39:28Z</time>
      </trkpt>
      <trkpt lat="44.411" lon="5.7589">
        <ele>745.155</ele>
        <time>2019-04-26T12:39:39Z</time>
      </trkpt>
      <trkpt lat="44.41037" lon="5.75814">
        <ele>744.346</ele>
        <time>2019-04-26T12:39:49Z</time>
      </trkpt>
      <trkpt lat="44.40977" lon="5.75713">
        <ele>743.127</ele>
        <time>2019-04-26T12:40:00Z</time>
      </trkpt>
      <trkpt lat="44.40903" lon="5.75617">
        <ele>741.525</ele>
        <time>2019-04-26T12:40:11Z</time>
      </trkpt>
      <trkpt lat="44.40843" lon="5.75508">
        <ele>739.871</ele>
        <time>2019-04-26T12:40:21Z</time>
      </trkpt>
      <trkpt lat="44.40768" lon="5.75401">
        <ele>737.849</ele>
        <time>2019-04-26T12:40:32Z</time>
      </trkpt>
      <trkpt lat="44.40702" lon="5.75335">
        <ele>735.276</ele>
        <time>2019-04-26T12:40:42Z</time>
      </trkpt>
      <trkpt lat="44.40656" lon="5.75271">
        <ele>732.47</ele>
        <time>2019-04-26T12:40:52Z</time>
      </trkpt>
      <trkpt lat="44.40623" lon="5.75187">
        <ele>729.952</ele>
        <time>2019-04-26T12:41:03Z</time>
      </trkpt>
      <trkpt lat="44.40593" lon="5.7511">
        <ele>728.242</ele>
        <time>2019-04-26T12:41:14Z</time>
      </trkpt>
      <trkpt lat="44.40567" lon="5.75041">
        <ele>726.68</ele>
        <time>2019-04-26T12:41:25Z</time>
      </trkpt>
      <trkpt lat="44.40548" lon="5.74977">
        <ele>725.48</ele>
        <time>2019-04-26T12:41:35Z</time>
      </trkpt>
      <trkpt lat="44.40543" lon="5.74914">
        <ele>724.495</ele>
        <time>2019-04-26T12:41:46Z</time>
      </trkpt>
      <trkpt lat="44.40539" lon="5.74861">
        <ele>724.194</ele>
        <time>2019-04-26T12:41:57Z</time>
      </trkpt>
      <trkpt lat="44.40532" lon="5.74798">
        <ele>723.152</ele>
        <time>2019-04-26T12:42:08Z</time>
      </trkpt>
      <trkpt lat="44.40527" lon="5.74726">
        <ele>723.278</ele>
        <time>2019-04-26T12:42:18Z</time>
      </trkpt>
      <trkpt lat="44.40525" lon="5.7464">
        <ele>723.862</ele>
        <time>2019-04-26T12:42:29Z</time>
      </trkpt>
      <trkpt lat="44.4052" lon="5.74587">
        <ele>723.915</ele>
        <time>2019-04-26T12:42:39Z</time>
      </trkpt>
      <trkpt lat="44.40518" lon="5.74541">
        <ele>723.832</ele>
        <time>2019-04-26T12:42:49Z</time>
      </trkpt>
      <trkpt lat="44.40516" lon="5.74491">
        <ele>723.919</ele>
        <time>2019-04-26T12:43:00Z</time>
      </trkpt>
      <trkpt lat="44.40522" lon="5.74444">
        <ele>724.244</ele>
        <time>2019-04-26T12:43:11Z</time>
      </trkpt>
      <trkpt lat="44.4053" lon="5.74408">
        <ele>724.511</ele>
        <time>2019-04-26T12:43:22Z</time>
      </trkpt>
      <trkpt lat="44.40541" lon="5.74344">
        <ele>724.432</ele>
        <time>2019-04-26T12:43:33Z</time>
      </trkpt>
      <trkpt lat="44.40552" lon="5.74251">
        <ele>724.389</ele>
        <time>2019-04-26T12:43:44Z</time>
      </trkpt>
      <trkpt lat="44.40544" lon="5.7415">
        <ele>724.041</ele>
        <time>2019-04-26T12:43:54Z</time>
      </trkpt>
      <trkpt lat="44.40537" lon="5.74049">
        <ele>723.35</ele>
        <time>2019-04-26T12:44:04Z</time>
      </trkpt>
      <trkpt lat="44.40529" lon="5.73946">
        <ele>722.373</ele>
        <time>2019-04-26T12:44:15Z</time>
      </trkpt>
      <trkpt lat="44.4053" lon="5.73859">
        <ele>721.494</ele>
        <time>2019-04-26T12:44:26Z</time>
      </trkpt>
      <trkpt lat="44.40535" lon="5.73776">
        <ele>720.786</ele>
        <time>2019-04-26T12:44:37Z</time>
      </trkpt>
      <trkpt lat="44.40542" lon="5.73694">
        <ele>720.073</ele>
        <time>2019-04-26T12:44:47Z</time>
      </trkpt>
      <trkpt lat="44.40557" lon="5.73615">
        <ele>719.174</ele>
        <time>2019-04-26T12:44:57Z</time>
      </trkpt>
      <trkpt lat="44.4057" lon="5.73527">
        <ele>718.672</ele>
        <time>2019-04-26T12:45:08Z</time>
      </trkpt>
      <trkpt lat="44.40547" lon="5.73428">
        <ele>718.006</ele>
        <time>2019-04-26T12:45:19Z</time>
      </trkpt>
      <trkpt lat="44.40525" lon="5.73334">
        <ele>717.555</ele>
        <time>2019-04-26T12:45:29Z</time>
      </trkpt>
      <trkpt lat="44.40499" lon="5.73239">
        <ele>717.025</ele>
        <time>2019-04-26T12:45:40Z</time>
      </trkpt>
      <trkpt lat="44.40479" lon="5.73162">
        <ele>716.635</ele>
        <time>2019-04-26T12:45:50Z</time>
      </trkpt>
      <trkpt lat="44.4046" lon="5.73086">
        <ele>716.212</ele>
        <time>2019-04-26T12:46:01Z</time>
      </trkpt>
      <trkpt lat="44.40429" lon="5.73092">
        <ele>715.22</ele>
        <time>2019-04-26T12:46:12Z</time>
      </trkpt>
      <trkpt lat="44.40384" lon="5.73126">
        <ele>713.597</ele>
        <time>2019-04-26T12:46:22Z</time>
      </trkpt>
      <trkpt lat="44.40331" lon="5.73164">
        <ele>712.125</ele>
        <time>2019-04-26T12:46:32Z</time>
      </trkpt>
      <trkpt lat="44.40268" lon="5.7321">
        <ele>710.708</ele>
        <time>2019-04-26T12:46:43Z</time>
      </trkpt>
      <trkpt lat="44.40256" lon="5.73213">
        <ele>710.408</ele>
        <time>2019-04-26T12:46:56Z</time>
      </trkpt>
      <trkpt lat="44.40256" lon="5.73213">
        <ele>710.249</ele>
        <time>2019-04-26T12:47:07Z</time>
      </trkpt>
      <trkpt lat="44.40256" lon="5.73213">
        <ele>710.158</ele>
        <time>2019-04-26T12:47:18Z</time>
      </trkpt>
      <trkpt lat="44.40257" lon="5.73211">
        <ele>709.905</ele>
        <time>2019-04-26T12:47:28Z</time>
      </trkpt>
      <trkpt lat="44.40242" lon="5.73162">
        <ele>708.408</ele>
        <time>2019-04-26T12:47:39Z</time>
      </trkpt>
      <trkpt lat="44.40229" lon="5.73104">
        <ele>707.903</ele>
        <time>2019-04-26T12:47:49Z</time>
      </trkpt>
      <trkpt lat="44.40217" lon="5.73048">
        <ele>707.806</ele>
        <time>2019-04-26T12:47:59Z</time>
      </trkpt>
      <trkpt lat="44.40199" lon="5.72992">
        <ele>707.703</ele>
        <time>2019-04-26T12:48:10Z</time>
      </trkpt>
      <trkpt lat="44.40201" lon="5.72993">
        <ele>707.771</ele>
        <time>2019-04-26T12:48:20Z</time>
      </trkpt>
      <trkpt lat="44.40201" lon="5.72993">
        <ele>707.718</ele>
        <time>2019-04-26T12:48:30Z</time>
      </trkpt>
      <trkpt lat="44.40197" lon="5.72987">
        <ele>707.347</ele>
        <time>2019-04-26T12:48:41Z</time>
      </trkpt>
      <trkpt lat="44.40152" lon="5.72936">
        <ele>704.032</ele>
        <time>2019-04-26T12:48:51Z</time>
      </trkpt>
      <trkpt lat="44.40097" lon="5.72916">
        <ele>702.736</ele>
        <time>2019-04-26T12:49:02Z</time>
      </trkpt>
      <trkpt lat="44.40051" lon="5.72948">
        <ele>700.978</ele>
        <time>2019-04-26T12:49:13Z</time>
      </trkpt>
      <trkpt lat="44.40031" lon="5.72969">
        <ele>701.364</ele>
        <time>2019-04-26T12:49:23Z</time>
      </trkpt>
      <trkpt lat="44.40031" lon="5.72969">
        <ele>701.386</ele>
        <time>2019-04-26T12:49:34Z</time>
      </trkpt>
      <trkpt lat="44.40031" lon="5.72969">
        <ele>701.424</ele>
        <time>2019-04-26T12:49:44Z</time>
      </trkpt>
      <trkpt lat="44.40031" lon="5.72969">
        <ele>701.488</ele>
        <time>2019-04-26T12:49:55Z</time>
      </trkpt>
      <trkpt lat="44.40031" lon="5.72969">
        <ele>701.553</ele>
        <time>2019-04-26T12:50:05Z</time>
      </trkpt>
      <trkpt lat="44.40031" lon="5.72969">
        <ele>701.746</ele>
        <time>2019-04-26T12:50:16Z</time>
      </trkpt>
      <trkpt lat="44.40031" lon="5.72969">
        <ele>701.807</ele>
        <time>2019-04-26T12:50:27Z</time>
      </trkpt>
      <trkpt lat="44.40029" lon="5.72972">
        <ele>701.991</ele>
        <time>2019-04-26T12:50:37Z</time>
      </trkpt>
      <trkpt lat="44.40005" lon="5.73">
        <ele>702.399</ele>
        <time>2019-04-26T12:50:48Z</time>
      </trkpt>
      <trkpt lat="44.39968" lon="5.73032">
        <ele>703.45</ele>
        <time>2019-04-26T12:50:59Z</time>
      </trkpt>
      <trkpt lat="44.39915" lon="5.73069">
        <ele>703.339</ele>
        <time>2019-04-26T12:51:10Z</time>
      </trkpt>
      <trkpt lat="44.39857" lon="5.73098">
        <ele>703.031</ele>
        <time>2019-04-26T12:51:20Z</time>
      </trkpt>
      <trkpt lat="44.398" lon="5.7315">
        <ele>702.146</ele>
        <time>2019-04-26T12:51:30Z</time>
      </trkpt>
      <trkpt lat="44.3974" lon="5.73151">
        <ele>700.486</ele>
        <time>2019-04-26T12:51:41Z</time>
      </trkpt>
      <trkpt lat="44.39715" lon="5.73083">
        <ele>699.157</ele>
        <time>2019-04-26T12:51:52Z</time>
      </trkpt>
      <trkpt lat="44.39693" lon="5.73019">
        <ele>698.206</ele>
        <time>2019-04-26T12:52:02Z</time>
      </trkpt>
      <trkpt lat="44.3966" lon="5.72926">
        <ele>697.273</ele>
        <time>2019-04-26T12:52:13Z</time>
      </trkpt>
      <trkpt lat="44.39616" lon="5.72891">
        <ele>696.326</ele>
        <time>2019-04-26T12:52:23Z</time>
      </trkpt>
      <trkpt lat="44.39559" lon="5.7295">
        <ele>695.266</ele>
        <time>2019-04-26T12:52:33Z</time>
      </trkpt>
      <trkpt lat="44.39462" lon="5.72999">
        <ele>693.982</ele>
        <time>2019-04-26T12:52:44Z</time>
      </trkpt>
      <trkpt lat="44.39358" lon="5.7305">
        <ele>692.526</ele>
        <time>2019-04-26T12:52:55Z</time>
      </trkpt>
      <trkpt lat="44.39265" lon="5.73085">
        <ele>690.529</ele>
        <time>2019-04-26T12:53:06Z</time>
      </trkpt>
      <trkpt lat="44.39191" lon="5.73078">
        <ele>688.579</ele>
        <time>2019-04-26T12:53:16Z</time>
      </trkpt>
      <trkpt lat="44.39125" lon="5.73018">
        <ele>686.758</ele>
        <time>2019-04-26T12:53:27Z</time>
      </trkpt>
      <trkpt lat="44.39071" lon="5.7299">
        <ele>686.124</ele>
        <time>2019-04-26T12:53:37Z</time>
      </trkpt>
      <trkpt lat="44.39003" lon="5.73013">
        <ele>685.566</ele>
        <time>2019-04-26T12:53:48Z</time>
      </trkpt>
      <trkpt lat="44.38934" lon="5.73073">
        <ele>684.443</ele>
        <time>2019-04-26T12:53:59Z</time>
      </trkpt>
      <trkpt lat="44.38867" lon="5.7313">
        <ele>684.19</ele>
        <time>2019-04-26T12:54:10Z</time>
      </trkpt>
      <trkpt lat="44.38803" lon="5.73168">
        <ele>684.494</ele>
        <time>2019-04-26T12:54:20Z</time>
      </trkpt>
      <trkpt lat="44.38741" lon="5.73215">
        <ele>683.807</ele>
        <time>2019-04-26T12:54:31Z</time>
      </trkpt>
      <trkpt lat="44.38684" lon="5.73261">
        <ele>684.027</ele>
        <time>2019-04-26T12:54:41Z</time>
      </trkpt>
      <trkpt lat="44.38621" lon="5.73305">
        <ele>683.651</ele>
        <time>2019-04-26T12:54:52Z</time>
      </trkpt>
      <trkpt lat="44.38578" lon="5.73331">
        <ele>682.44</ele>
        <time>2019-04-26T12:55:02Z</time>
      </trkpt>
      <trkpt lat="44.38546" lon="5.73348">
        <ele>682.318</ele>
        <time>2019-04-26T12:55:13Z</time>
      </trkpt>
      <trkpt lat="44.38523" lon="5.73346">
        <ele>683.065</ele>
        <time>2019-04-26T12:55:23Z</time>
      </trkpt>
      <trkpt lat="44.385" lon="5.7334">
        <ele>682.203</ele>
        <time>2019-04-26T12:55:34Z</time>
      </trkpt>
      <trkpt lat="44.38475" lon="5.73354">
        <ele>682.607</ele>
        <time>2019-04-26T12:55:45Z</time>
      </trkpt>
      <trkpt lat="44.38457" lon="5.73374">
        <ele>683.173</ele>
        <time>2019-04-26T12:55:56Z</time>
      </trkpt>
      <trkpt lat="44.38442" lon="5.73392">
        <ele>683.646</ele>
        <time>2019-04-26T12:56:06Z</time>
      </trkpt>
      <trkpt lat="44.38424" lon="5.73419">
        <ele>683.966</ele>
        <time>2019-04-26T12:56:17Z</time>
      </trkpt>
      <trkpt lat="44.38392" lon="5.73419">
        <ele>684.808</ele>
        <time>2019-04-26T12:56:27Z</time>
      </trkpt>
      <trkpt lat="44.38342" lon="5.73408">
        <ele>686.064</ele>
        <time>2019-04-26T12:56:37Z</time>
      </trkpt>
      <trkpt lat="44.3827" lon="5.73398">
        <ele>685.481</ele>
        <time>2019-04-26T12:56:48Z</time>
      </trkpt>
      <trkpt lat="44.38179" lon="5.73384">
        <ele>684.17</ele>
        <time>2019-04-26T12:56:59Z</time>
      </trkpt>
      <trkpt lat="44.38103" lon="5.73375">
        <ele>683.346</ele>
        <time>2019-04-26T12:57:10Z</time>
      </trkpt>
      <trkpt lat="44.38044" lon="5.73366">
        <ele>683.241</ele>
        <time>2019-04-26T12:57:21Z</time>
      </trkpt>
      <trkpt lat="44.37992" lon="5.73353">
        <ele>683.399</ele>
        <time>2019-04-26T12:57:31Z</time>
      </trkpt>
      <trkpt lat="44.37916" lon="5.73334">
        <ele>683.421</ele>
        <time>2019-04-26T12:57:42Z</time>
      </trkpt>
      <trkpt lat="44.37845" lon="5.73315">
        <ele>683.192</ele>
        <time>2019-04-26T12:57:52Z</time>
      </trkpt>
      <trkpt lat="44.37769" lon="5.73295">
        <ele>683.131</ele>
        <time>2019-04-26T12:58:03Z</time>
      </trkpt>
      <trkpt lat="44.37706" lon="5.73283">
        <ele>682.998</ele>
        <time>2019-04-26T12:58:13Z</time>
      </trkpt>
      <trkpt lat="44.37632" lon="5.73278">
        <ele>682.877</ele>
        <time>2019-04-26T12:58:24Z</time>
      </trkpt>
      <trkpt lat="44.37566" lon="5.73271">
        <ele>682.846</ele>
        <time>2019-04-26T12:58:35Z</time>
      </trkpt>
      <trkpt lat="44.37517" lon="5.73258">
        <ele>683.189</ele>
        <time>2019-04-26T12:58:45Z</time>
      </trkpt>
      <trkpt lat="44.3747" lon="5.73243">
        <ele>683.792</ele>
        <time>2019-04-26T12:58:56Z</time>
      </trkpt>
      <trkpt lat="44.37433" lon="5.73229">
        <ele>684.068</ele>
        <time>2019-04-26T12:59:06Z</time>
      </trkpt>
      <trkpt lat="44.37401" lon="5.73217">
        <ele>684.339</ele>
        <time>2019-04-26T12:59:17Z</time>
      </trkpt>
      <trkpt lat="44.37367" lon="5.73211">
        <ele>684.869</ele>
        <time>2019-04-26T12:59:28Z</time>
      </trkpt>
      <trkpt lat="44.37343" lon="5.73208">
        <ele>685.528</ele>
        <time>2019-04-26T12:59:38Z</time>
      </trkpt>
      <trkpt lat="44.37323" lon="5.73196">
        <ele>686.234</ele>
        <time>2019-04-26T12:59:48Z</time>
      </trkpt>
      <trkpt lat="44.37303" lon="5.73182">
        <ele>687.081</ele>
        <time>2019-04-26T12:59:59Z</time>
      </trkpt>
      <trkpt lat="44.37284" lon="5.73164">
        <ele>688.038</ele>
        <time>2019-04-26T13:00:10Z</time>
      </trkpt>
      <trkpt lat="44.37258" lon="5.73142">
        <ele>689.055</ele>
        <time>2019-04-26T13:00:21Z</time>
      </trkpt>
      <trkpt lat="44.37218" lon="5.73109">
        <ele>692.487</ele>
        <time>2019-04-26T13:00:32Z</time>
      </trkpt>
      <trkpt lat="44.37192" lon="5.73089">
        <ele>692.37</ele>
        <time>2019-04-26T13:00:42Z</time>
      </trkpt>
      <trkpt lat="44.37166" lon="5.73115">
        <ele>692.884</ele>
        <time>2019-04-26T13:00:53Z</time>
      </trkpt>
      <trkpt lat="44.37152" lon="5.73146">
        <ele>693.594</ele>
        <time>2019-04-26T13:01:03Z</time>
      </trkpt>
      <trkpt lat="44.37131" lon="5.73169">
        <ele>694.453</ele>
        <time>2019-04-26T13:01:14Z</time>
      </trkpt>
      <trkpt lat="44.37113" lon="5.73187">
        <ele>695.231</ele>
        <time>2019-04-26T13:01:24Z</time>
      </trkpt>
      <trkpt lat="44.3709" lon="5.73203">
        <ele>696.16</ele>
        <time>2019-04-26T13:01:35Z</time>
      </trkpt>
      <trkpt lat="44.37069" lon="5.73213">
        <ele>697.108</ele>
        <time>2019-04-26T13:01:45Z</time>
      </trkpt>
      <trkpt lat="44.3705" lon="5.73225">
        <ele>698.159</ele>
        <time>2019-04-26T13:01:55Z</time>
      </trkpt>
      <trkpt lat="44.37029" lon="5.73241">
        <ele>699.364</ele>
        <time>2019-04-26T13:02:06Z</time>
      </trkpt>
      <trkpt lat="44.37008" lon="5.73254">
        <ele>700.492</ele>
        <time>2019-04-26T13:02:16Z</time>
      </trkpt>
      <trkpt lat="44.36986" lon="5.73266">
        <ele>701.81</ele>
        <time>2019-04-26T13:02:27Z</time>
      </trkpt>
      <trkpt lat="44.36964" lon="5.73274">
        <ele>702.989</ele>
        <time>2019-04-26T13:02:37Z</time>
      </trkpt>
      <trkpt lat="44.3694" lon="5.73284">
        <ele>704.287</ele>
        <time>2019-04-26T13:02:48Z</time>
      </trkpt>
      <trkpt lat="44.36917" lon="5.73295">
        <ele>705.672</ele>
        <time>2019-04-26T13:02:59Z</time>
      </trkpt>
      <trkpt lat="44.36893" lon="5.73309">
        <ele>706.907</ele>
        <time>2019-04-26T13:03:10Z</time>
      </trkpt>
      <trkpt lat="44.36872" lon="5.73318">
        <ele>708.062</ele>
        <time>2019-04-26T13:03:20Z</time>
      </trkpt>
      <trkpt lat="44.36846" lon="5.73327">
        <ele>709.319</ele>
        <time>2019-04-26T13:03:31Z</time>
      </trkpt>
      <trkpt lat="44.36821" lon="5.7334">
        <ele>711.097</ele>
        <time>2019-04-26T13:03:42Z</time>
      </trkpt>
      <trkpt lat="44.368" lon="5.73357">
        <ele>712.899</ele>
        <time>2019-04-26T13:03:53Z</time>
      </trkpt>
      <trkpt lat="44.36777" lon="5.73373">
        <ele>714.75</ele>
        <time>2019-04-26T13:04:04Z</time>
      </trkpt>
      <trkpt lat="44.36757" lon="5.73388">
        <ele>716.336</ele>
        <time>2019-04-26T13:04:15Z</time>
      </trkpt>
      <trkpt lat="44.36737" lon="5.73403">
        <ele>717.565</ele>
        <time>2019-04-26T13:04:25Z</time>
      </trkpt>
      <trkpt lat="44.3672" lon="5.73422">
        <ele>718.95</ele>
        <time>2019-04-26T13:04:36Z</time>
      </trkpt>
      <trkpt lat="44.36703" lon="5.73439">
        <ele>720.353</ele>
        <time>2019-04-26T13:04:46Z</time>
      </trkpt>
      <trkpt lat="44.3669" lon="5.73422">
        <ele>722.188</ele>
        <time>2019-04-26T13:04:57Z</time>
      </trkpt>
      <trkpt lat="44.36689" lon="5.73424">
        <ele>722.794</ele>
        <time>2019-04-26T13:05:08Z</time>
      </trkpt>
      <trkpt lat="44.36688" lon="5.73424">
        <ele>722.955</ele>
        <time>2019-04-26T13:05:19Z</time>
      </trkpt>
      <trkpt lat="44.36688" lon="5.73424">
        <ele>723.105</ele>
        <time>2019-04-26T13:05:29Z</time>
      </trkpt>
      <trkpt lat="44.36688" lon="5.73424">
        <ele>723.265</ele>
        <time>2019-04-26T13:05:40Z</time>
      </trkpt>
      <trkpt lat="44.36688" lon="5.73425">
        <ele>723.421</ele>
        <time>2019-04-26T13:05:51Z</time>
      </trkpt>
      <trkpt lat="44.36688" lon="5.73425">
        <ele>723.576</ele>
        <time>2019-04-26T13:06:02Z</time>
      </trkpt>
      <trkpt lat="44.36688" lon="5.73425">
        <ele>723.726</ele>
        <time>2019-04-26T13:06:13Z</time>
      </trkpt>
      <trkpt lat="44.36688" lon="5.73425">
        <ele>723.86</ele>
        <time>2019-04-26T13:06:23Z</time>
      </trkpt>
      <trkpt lat="44.36688" lon="5.73425">
        <ele>724.017</ele>
        <time>2019-04-26T13:06:34Z</time>
      </trkpt>
      <trkpt lat="44.36688" lon="5.73425">
        <ele>724.202</ele>
        <time>2019-04-26T13:06:44Z</time>
      </trkpt>
      <trkpt lat="44.36688" lon="5.73426">
        <ele>724.449</ele>
        <time>2019-04-26T13:06:55Z</time>
      </trkpt>
      <trkpt lat="44.36689" lon="5.73427">
        <ele>724.701</ele>
        <time>2019-04-26T13:07:05Z</time>
      </trkpt>
      <trkpt lat="44.36689" lon="5.73424">
        <ele>725.26</ele>
        <time>2019-04-26T13:07:15Z</time>
      </trkpt>
      <trkpt lat="44.36695" lon="5.73416">
        <ele>726.016</ele>
        <time>2019-04-26T13:07:26Z</time>
      </trkpt>
      <trkpt lat="44.3672" lon="5.73406">
        <ele>726.66</ele>
        <time>2019-04-26T13:07:36Z</time>
      </trkpt>
      <trkpt lat="44.36743" lon="5.7338">
        <ele>727.65</ele>
        <time>2019-04-26T13:07:47Z</time>
      </trkpt>
      <trkpt lat="44.36764" lon="5.73358">
        <ele>728.638</ele>
        <time>2019-04-26T13:07:57Z</time>
      </trkpt>
      <trkpt lat="44.36784" lon="5.73334">
        <ele>729.65</ele>
        <time>2019-04-26T13:08:08Z</time>
      </trkpt>
      <trkpt lat="44.36799" lon="5.73306">
        <ele>730.48</ele>
        <time>2019-04-26T13:08:18Z</time>
      </trkpt>
      <trkpt lat="44.36789" lon="5.73274">
        <ele>731.361</ele>
        <time>2019-04-26T13:08:29Z</time>
      </trkpt>
      <trkpt lat="44.36768" lon="5.73249">
        <ele>732.083</ele>
        <time>2019-04-26T13:08:39Z</time>
      </trkpt>
      <trkpt lat="44.36743" lon="5.73218">
        <ele>732.781</ele>
        <time>2019-04-26T13:08:50Z</time>
      </trkpt>
      <trkpt lat="44.36715" lon="5.73185">
        <ele>734.088</ele>
        <time>2019-04-26T13:09:00Z</time>
      </trkpt>
      <trkpt lat="44.3667" lon="5.73133">
        <ele>736.202</ele>
        <time>2019-04-26T13:09:11Z</time>
      </trkpt>
      <trkpt lat="44.36601" lon="5.73036">
        <ele>734.189</ele>
        <time>2019-04-26T13:09:22Z</time>
      </trkpt>
      <trkpt lat="44.36552" lon="5.72913">
        <ele>731.296</ele>
        <time>2019-04-26T13:09:32Z</time>
      </trkpt>
      <trkpt lat="44.36472" lon="5.72803">
        <ele>728.058</ele>
        <time>2019-04-26T13:09:43Z</time>
      </trkpt>
      <trkpt lat="44.36393" lon="5.72713">
        <ele>725.136</ele>
        <time>2019-04-26T13:09:53Z</time>
      </trkpt>
      <trkpt lat="44.36301" lon="5.72667">
        <ele>722.755</ele>
        <time>2019-04-26T13:10:04Z</time>
      </trkpt>
      <trkpt lat="44.36222" lon="5.72614">
        <ele>720.811</ele>
        <time>2019-04-26T13:10:14Z</time>
      </trkpt>
      <trkpt lat="44.36155" lon="5.7253">
        <ele>718.63</ele>
        <time>2019-04-26T13:10:24Z</time>
      </trkpt>
      <trkpt lat="44.36094" lon="5.72462">
        <ele>716.879</ele>
        <time>2019-04-26T13:10:34Z</time>
      </trkpt>
      <trkpt lat="44.36051" lon="5.72398">
        <ele>715.917</ele>
        <time>2019-04-26T13:10:44Z</time>
      </trkpt>
      <trkpt lat="44.36007" lon="5.72345">
        <ele>714.946</ele>
        <time>2019-04-26T13:10:54Z</time>
      </trkpt>
      <trkpt lat="44.35946" lon="5.72307">
        <ele>714.261</ele>
        <time>2019-04-26T13:11:05Z</time>
      </trkpt>
      <trkpt lat="44.35877" lon="5.72287">
        <ele>714.456</ele>
        <time>2019-04-26T13:11:15Z</time>
      </trkpt>
      <trkpt lat="44.35788" lon="5.72261">
        <ele>713.682</ele>
        <time>2019-04-26T13:11:26Z</time>
      </trkpt>
      <trkpt lat="44.35708" lon="5.72209">
        <ele>712.485</ele>
        <time>2019-04-26T13:11:36Z</time>
      </trkpt>
      <trkpt lat="44.35624" lon="5.72148">
        <ele>710.929</ele>
        <time>2019-04-26T13:11:46Z</time>
      </trkpt>
      <trkpt lat="44.35592" lon="5.72076">
        <ele>709.056</ele>
        <time>2019-04-26T13:11:56Z</time>
      </trkpt>
      <trkpt lat="44.35593" lon="5.72003">
        <ele>707.754</ele>
        <time>2019-04-26T13:12:06Z</time>
      </trkpt>
      <trkpt lat="44.35593" lon="5.71988">
        <ele>707.447</ele>
        <time>2019-04-26T13:12:17Z</time>
      </trkpt>
      <trkpt lat="44.35593" lon="5.71988">
        <ele>707.299</ele>
        <time>2019-04-26T13:12:28Z</time>
      </trkpt>
      <trkpt lat="44.35586" lon="5.72014">
        <ele>704.997</ele>
        <time>2019-04-26T13:12:39Z</time>
      </trkpt>
      <trkpt lat="44.35591" lon="5.72094">
        <ele>703.517</ele>
        <time>2019-04-26T13:12:49Z</time>
      </trkpt>
      <trkpt lat="44.35591" lon="5.72182">
        <ele>702.819</ele>
        <time>2019-04-26T13:13:00Z</time>
      </trkpt>
      <trkpt lat="44.35594" lon="5.72274">
        <ele>702.099</ele>
        <time>2019-04-26T13:13:11Z</time>
      </trkpt>
      <trkpt lat="44.35598" lon="5.72356">
        <ele>701.527</ele>
        <time>2019-04-26T13:13:21Z</time>
      </trkpt>
      <trkpt lat="44.35602" lon="5.72449">
        <ele>700.603</ele>
        <time>2019-04-26T13:13:32Z</time>
      </trkpt>
      <trkpt lat="44.35606" lon="5.72544">
        <ele>699.601</ele>
        <time>2019-04-26T13:13:43Z</time>
      </trkpt>
      <trkpt lat="44.35608" lon="5.72636">
        <ele>698.733</ele>
        <time>2019-04-26T13:13:54Z</time>
      </trkpt>
      <trkpt lat="44.35611" lon="5.72719">
        <ele>697.903</ele>
        <time>2019-04-26T13:14:04Z</time>
      </trkpt>
      <trkpt lat="44.35615" lon="5.72812">
        <ele>696.761</ele>
        <time>2019-04-26T13:14:14Z</time>
      </trkpt>
      <trkpt lat="44.35612" lon="5.72903">
        <ele>695.745</ele>
        <time>2019-04-26T13:14:25Z</time>
      </trkpt>
      <trkpt lat="44.35587" lon="5.7297">
        <ele>695.068</ele>
        <time>2019-04-26T13:14:35Z</time>
      </trkpt>
      <trkpt lat="44.35553" lon="5.73055">
        <ele>694.29</ele>
        <time>2019-04-26T13:14:46Z</time>
      </trkpt>
      <trkpt lat="44.35515" lon="5.73149">
        <ele>693.33</ele>
        <time>2019-04-26T13:14:57Z</time>
      </trkpt>
      <trkpt lat="44.35474" lon="5.73249">
        <ele>692.215</ele>
        <time>2019-04-26T13:15:08Z</time>
      </trkpt>
      <trkpt lat="44.35432" lon="5.73352">
        <ele>690.997</ele>
        <time>2019-04-26T13:15:19Z</time>
      </trkpt>
      <trkpt lat="44.35394" lon="5.7345">
        <ele>689.8</ele>
        <time>2019-04-26T13:15:29Z</time>
      </trkpt>
      <trkpt lat="44.35352" lon="5.73554">
        <ele>688.647</ele>
        <time>2019-04-26T13:15:40Z</time>
      </trkpt>
      <trkpt lat="44.35313" lon="5.73651">
        <ele>687.612</ele>
        <time>2019-04-26T13:15:51Z</time>
      </trkpt>
      <trkpt lat="44.35278" lon="5.73739">
        <ele>686.778</ele>
        <time>2019-04-26T13:16:01Z</time>
      </trkpt>
      <trkpt lat="44.35239" lon="5.73836">
        <ele>685.709</ele>
        <time>2019-04-26T13:16:12Z</time>
      </trkpt>
      <trkpt lat="44.35198" lon="5.73938">
        <ele>684.708</ele>
        <time>2019-04-26T13:16:23Z</time>
      </trkpt>
      <trkpt lat="44.3516" lon="5.74032">
        <ele>683.647</ele>
        <time>2019-04-26T13:16:33Z</time>
      </trkpt>
      <trkpt lat="44.35122" lon="5.74129">
        <ele>682.583</ele>
        <time>2019-04-26T13:16:43Z</time>
      </trkpt>
      <trkpt lat="44.3508" lon="5.74234">
        <ele>681.396</ele>
        <time>2019-04-26T13:16:54Z</time>
      </trkpt>
      <trkpt lat="44.35042" lon="5.74331">
        <ele>680.07</ele>
        <time>2019-04-26T13:17:05Z</time>
      </trkpt>
      <trkpt lat="44.35008" lon="5.74418">
        <ele>678.889</ele>
        <time>2019-04-26T13:17:16Z</time>
      </trkpt>
      <trkpt lat="44.34971" lon="5.7451">
        <ele>677.863</ele>
        <time>2019-04-26T13:17:27Z</time>
      </trkpt>
      <trkpt lat="44.34937" lon="5.74595">
        <ele>677.084</ele>
        <time>2019-04-26T13:17:37Z</time>
      </trkpt>
      <trkpt lat="44.34901" lon="5.74686">
        <ele>676.372</ele>
        <time>2019-04-26T13:17:48Z</time>
      </trkpt>
      <trkpt lat="44.34866" lon="5.74774">
        <ele>675.798</ele>
        <time>2019-04-26T13:17:58Z</time>
      </trkpt>
      <trkpt lat="44.34826" lon="5.74871">
        <ele>675.098</ele>
        <time>2019-04-26T13:18:09Z</time>
      </trkpt>
      <trkpt lat="44.34791" lon="5.7496">
        <ele>674.322</ele>
        <time>2019-04-26T13:18:19Z</time>
      </trkpt>
      <trkpt lat="44.34751" lon="5.7506">
        <ele>673.403</ele>
        <time>2019-04-26T13:18:30Z</time>
      </trkpt>
      <trkpt lat="44.34708" lon="5.75166">
        <ele>672.355</ele>
        <time>2019-04-26T13:18:41Z</time>
      </trkpt>
      <trkpt lat="44.34666" lon="5.75271">
        <ele>671.253</ele>
        <time>2019-04-26T13:18:52Z</time>
      </trkpt>
      <trkpt lat="44.34625" lon="5.75376">
        <ele>670.29</ele>
        <time>2019-04-26T13:19:03Z</time>
      </trkpt>
      <trkpt lat="44.34585" lon="5.75473">
        <ele>669.31</ele>
        <time>2019-04-26T13:19:14Z</time>
      </trkpt>
      <trkpt lat="44.34546" lon="5.75571">
        <ele>668.095</ele>
        <time>2019-04-26T13:19:25Z</time>
      </trkpt>
      <trkpt lat="44.34507" lon="5.75671">
        <ele>666.871</ele>
        <time>2019-04-26T13:19:36Z</time>
      </trkpt>
      <trkpt lat="44.34473" lon="5.75756">
        <ele>665.771</ele>
        <time>2019-04-26T13:19:46Z</time>
      </trkpt>
      <trkpt lat="44.34435" lon="5.75849">
        <ele>664.537</ele>
        <time>2019-04-26T13:19:57Z</time>
      </trkpt>
      <trkpt lat="44.34406" lon="5.75953">
        <ele>663.38</ele>
        <time>2019-04-26T13:20:08Z</time>
      </trkpt>
      <trkpt lat="44.34406" lon="5.76069">
        <ele>662.254</ele>
        <time>2019-04-26T13:20:19Z</time>
      </trkpt>
      <trkpt lat="44.34393" lon="5.7619">
        <ele>660.7</ele>
        <time>2019-04-26T13:20:30Z</time>
      </trkpt>
      <trkpt lat="44.34306" lon="5.76159">
        <ele>658.871</ele>
        <time>2019-04-26T13:20:41Z</time>
      </trkpt>
      <trkpt lat="44.34241" lon="5.76148">
        <ele>657.375</ele>
        <time>2019-04-26T13:20:52Z</time>
      </trkpt>
      <trkpt lat="44.34194" lon="5.76187">
        <ele>656.07</ele>
        <time>2019-04-26T13:21:03Z</time>
      </trkpt>
      <trkpt lat="44.3416" lon="5.7627">
        <ele>654.715</ele>
        <time>2019-04-26T13:21:13Z</time>
      </trkpt>
      <trkpt lat="44.34122" lon="5.76347">
        <ele>653.245</ele>
        <time>2019-04-26T13:21:24Z</time>
      </trkpt>
      <trkpt lat="44.34094" lon="5.76292">
        <ele>651.362</ele>
        <time>2019-04-26T13:21:35Z</time>
      </trkpt>
      <trkpt lat="44.34071" lon="5.76248">
        <ele>651.165</ele>
        <time>2019-04-26T13:21:45Z</time>
      </trkpt>
      <trkpt lat="44.34051" lon="5.76206">
        <ele>651.328</ele>
        <time>2019-04-26T13:21:56Z</time>
      </trkpt>
      <trkpt lat="44.34025" lon="5.76153">
        <ele>651.671</ele>
        <time>2019-04-26T13:22:07Z</time>
      </trkpt>
      <trkpt lat="44.33997" lon="5.76097">
        <ele>652.25</ele>
        <time>2019-04-26T13:22:18Z</time>
      </trkpt>
      <trkpt lat="44.33967" lon="5.76035">
        <ele>652.75</ele>
        <time>2019-04-26T13:22:29Z</time>
      </trkpt>
      <trkpt lat="44.33937" lon="5.75975">
        <ele>653.218</ele>
        <time>2019-04-26T13:22:40Z</time>
      </trkpt>
      <trkpt lat="44.3391" lon="5.75918">
        <ele>653.744</ele>
        <time>2019-04-26T13:22:51Z</time>
      </trkpt>
      <trkpt lat="44.33885" lon="5.75866">
        <ele>654.427</ele>
        <time>2019-04-26T13:23:02Z</time>
      </trkpt>
      <trkpt lat="44.33862" lon="5.75828">
        <ele>654.589</ele>
        <time>2019-04-26T13:23:12Z</time>
      </trkpt>
      <trkpt lat="44.33836" lon="5.75788">
        <ele>654.914</ele>
        <time>2019-04-26T13:23:23Z</time>
      </trkpt>
      <trkpt lat="44.33834" lon="5.75785">
        <ele>655.108</ele>
        <time>2019-04-26T13:23:33Z</time>
      </trkpt>
      <trkpt lat="44.33842" lon="5.75786">
        <ele>655.532</ele>
        <time>2019-04-26T13:23:44Z</time>
      </trkpt>
      <trkpt lat="44.33845" lon="5.75784">
        <ele>655.778</ele>
        <time>2019-04-26T13:23:55Z</time>
      </trkpt>
      <trkpt lat="44.33845" lon="5.75784">
        <ele>655.828</ele>
        <time>2019-04-26T13:24:06Z</time>
      </trkpt>
      <trkpt lat="44.33845" lon="5.75784">
        <ele>655.866</ele>
        <time>2019-04-26T13:24:16Z</time>
      </trkpt>
      <trkpt lat="44.33845" lon="5.75784">
        <ele>655.895</ele>
        <time>2019-04-26T13:24:27Z</time>
      </trkpt>
      <trkpt lat="44.33845" lon="5.75784">
        <ele>655.921</ele>
        <time>2019-04-26T13:24:37Z</time>
      </trkpt>
      <trkpt lat="44.33845" lon="5.75784">
        <ele>655.952</ele>
        <time>2019-04-26T13:24:48Z</time>
      </trkpt>
      <trkpt lat="44.33845" lon="5.75784">
        <ele>656.007</ele>
        <time>2019-04-26T13:24:58Z</time>
      </trkpt>
      <trkpt lat="44.33845" lon="5.75784">
        <ele>656.031</ele>
        <time>2019-04-26T13:25:09Z</time>
      </trkpt>
      <trkpt lat="44.33845" lon="5.75784">
        <ele>656.031</ele>
        <time>2019-04-26T13:25:19Z</time>
      </trkpt>
      <trkpt lat="44.33845" lon="5.75784">
        <ele>655.977</ele>
        <time>2019-04-26T13:25:30Z</time>
      </trkpt>
      <trkpt lat="44.33845" lon="5.75784">
        <ele>655.941</ele>
        <time>2019-04-26T13:25:40Z</time>
      </trkpt>
      <trkpt lat="44.33845" lon="5.75784">
        <ele>655.893</ele>
        <time>2019-04-26T13:25:50Z</time>
      </trkpt>
      <trkpt lat="44.33845" lon="5.75784">
        <ele>655.847</ele>
        <time>2019-04-26T13:26:01Z</time>
      </trkpt>
      <trkpt lat="44.33845" lon="5.75784">
        <ele>655.813</ele>
        <time>2019-04-26T13:26:11Z</time>
      </trkpt>
      <trkpt lat="44.33845" lon="5.75782">
        <ele>655.783</ele>
        <time>2019-04-26T13:26:22Z</time>
      </trkpt>
      <trkpt lat="44.33844" lon="5.75782">
        <ele>655.72</ele>
        <time>2019-04-26T13:26:32Z</time>
      </trkpt>
      <trkpt lat="44.33845" lon="5.75781">
        <ele>655.729</ele>
        <time>2019-04-26T13:26:44Z</time>
      </trkpt>
      <trkpt lat="44.33847" lon="5.7578">
        <ele>655.672</ele>
        <time>2019-04-26T13:26:54Z</time>
      </trkpt>
      <trkpt lat="44.33847" lon="5.75781">
        <ele>655.609</ele>
        <time>2019-04-26T13:27:04Z</time>
      </trkpt>
      <trkpt lat="44.33847" lon="5.75781">
        <ele>655.546</ele>
        <time>2019-04-26T13:27:15Z</time>
      </trkpt>
      <trkpt lat="44.33846" lon="5.75781">
        <ele>655.472</ele>
        <time>2019-04-26T13:27:26Z</time>
      </trkpt>
      <trkpt lat="44.33846" lon="5.75781">
        <ele>655.251</ele>
        <time>2019-04-26T13:27:37Z</time>
      </trkpt>
      <trkpt lat="44.33846" lon="5.7578">
        <ele>655.076</ele>
        <time>2019-04-26T13:27:48Z</time>
      </trkpt>
      <trkpt lat="44.33846" lon="5.75781">
        <ele>654.98</ele>
        <time>2019-04-26T13:27:58Z</time>
      </trkpt>
      <trkpt lat="44.33846" lon="5.75781">
        <ele>654.934</ele>
        <time>2019-04-26T13:28:08Z</time>
      </trkpt>
      <trkpt lat="44.33846" lon="5.75781">
        <ele>654.931</ele>
        <time>2019-04-26T13:28:19Z</time>
      </trkpt>
      <trkpt lat="44.33845" lon="5.75782">
        <ele>654.942</ele>
        <time>2019-04-26T13:28:29Z</time>
      </trkpt>
      <trkpt lat="44.33845" lon="5.75782">
        <ele>654.946</ele>
        <time>2019-04-26T13:28:40Z</time>
      </trkpt>
      <trkpt lat="44.33845" lon="5.75782">
        <ele>654.951</ele>
        <time>2019-04-26T13:28:51Z</time>
      </trkpt>
      <trkpt lat="44.33845" lon="5.75781">
        <ele>654.93</ele>
        <time>2019-04-26T13:29:02Z</time>
      </trkpt>
      <trkpt lat="44.33844" lon="5.75781">
        <ele>654.885</ele>
        <time>2019-04-26T13:29:13Z</time>
      </trkpt>
      <trkpt lat="44.33844" lon="5.75781">
        <ele>654.895</ele>
        <time>2019-04-26T13:29:24Z</time>
      </trkpt>
      <trkpt lat="44.33845" lon="5.75782">
        <ele>655.068</ele>
        <time>2019-04-26T13:29:35Z</time>
      </trkpt>
      <trkpt lat="44.33816" lon="5.7577">
        <ele>655.473</ele>
        <time>2019-04-26T13:29:45Z</time>
      </trkpt>
      <trkpt lat="44.33776" lon="5.75726">
        <ele>658.184</ele>
        <time>2019-04-26T13:29:56Z</time>
      </trkpt>
      <trkpt lat="44.33739" lon="5.75686">
        <ele>658.256</ele>
        <time>2019-04-26T13:30:06Z</time>
      </trkpt>
      <trkpt lat="44.33701" lon="5.75623">
        <ele>658.62</ele>
        <time>2019-04-26T13:30:17Z</time>
      </trkpt>
      <trkpt lat="44.33669" lon="5.75541">
        <ele>659.785</ele>
        <time>2019-04-26T13:30:28Z</time>
      </trkpt>
      <trkpt lat="44.33628" lon="5.75479">
        <ele>660.326</ele>
        <time>2019-04-26T13:30:39Z</time>
      </trkpt>
      <trkpt lat="44.3358" lon="5.75439">
        <ele>660.433</ele>
        <time>2019-04-26T13:30:50Z</time>
      </trkpt>
      <trkpt lat="44.33549" lon="5.75403">
        <ele>660.581</ele>
        <time>2019-04-26T13:31:01Z</time>
      </trkpt>
      <trkpt lat="44.33522" lon="5.75372">
        <ele>660.839</ele>
        <time>2019-04-26T13:31:12Z</time>
      </trkpt>
      <trkpt lat="44.33496" lon="5.75341">
        <ele>661.22</ele>
        <time>2019-04-26T13:31:23Z</time>
      </trkpt>
      <trkpt lat="44.33472" lon="5.75313">
        <ele>661.686</ele>
        <time>2019-04-26T13:31:33Z</time>
      </trkpt>
      <trkpt lat="44.33446" lon="5.75285">
        <ele>662.29</ele>
        <time>2019-04-26T13:31:43Z</time>
      </trkpt>
      <trkpt lat="44.33413" lon="5.75253">
        <ele>664.895</ele>
        <time>2019-04-26T13:31:54Z</time>
      </trkpt>
      <trkpt lat="44.33373" lon="5.75221">
        <ele>666.859</ele>
        <time>2019-04-26T13:32:05Z</time>
      </trkpt>
      <trkpt lat="44.33323" lon="5.75186">
        <ele>667.621</ele>
        <time>2019-04-26T13:32:16Z</time>
      </trkpt>
      <trkpt lat="44.33267" lon="5.75146">
        <ele>668.062</ele>
        <time>2019-04-26T13:32:26Z</time>
      </trkpt>
      <trkpt lat="44.3321" lon="5.75105">
        <ele>668.56</ele>
        <time>2019-04-26T13:32:37Z</time>
      </trkpt>
      <trkpt lat="44.33169" lon="5.75075">
        <ele>669.425</ele>
        <time>2019-04-26T13:32:48Z</time>
      </trkpt>
      <trkpt lat="44.33137" lon="5.75046">
        <ele>670.624</ele>
        <time>2019-04-26T13:32:58Z</time>
      </trkpt>
      <trkpt lat="44.33112" lon="5.74999">
        <ele>671.742</ele>
        <time>2019-04-26T13:33:09Z</time>
      </trkpt>
      <trkpt lat="44.3309" lon="5.74947">
        <ele>672.561</ele>
        <time>2019-04-26T13:33:19Z</time>
      </trkpt>
      <trkpt lat="44.33066" lon="5.74889">
        <ele>673.234</ele>
        <time>2019-04-26T13:33:30Z</time>
      </trkpt>
      <trkpt lat="44.33029" lon="5.74837">
        <ele>673.711</ele>
        <time>2019-04-26T13:33:41Z</time>
      </trkpt>
      <trkpt lat="44.32986" lon="5.7479">
        <ele>674.099</ele>
        <time>2019-04-26T13:33:52Z</time>
      </trkpt>
      <trkpt lat="44.32939" lon="5.74742">
        <ele>674.455</ele>
        <time>2019-04-26T13:34:03Z</time>
      </trkpt>
      <trkpt lat="44.32894" lon="5.74693">
        <ele>675.12</ele>
        <time>2019-04-26T13:34:14Z</time>
      </trkpt>
      <trkpt lat="44.32854" lon="5.7465">
        <ele>675.89</ele>
        <time>2019-04-26T13:34:25Z</time>
      </trkpt>
      <trkpt lat="44.32816" lon="5.74609">
        <ele>676.785</ele>
        <time>2019-04-26T13:34:36Z</time>
      </trkpt>
      <trkpt lat="44.32768" lon="5.7457">
        <ele>677.518</ele>
        <time>2019-04-26T13:34:47Z</time>
      </trkpt>
      <trkpt lat="44.32717" lon="5.7454">
        <ele>678.165</ele>
        <time>2019-04-26T13:34:58Z</time>
      </trkpt>
      <trkpt lat="44.32679" lon="5.74505">
        <ele>678.753</ele>
        <time>2019-04-26T13:35:09Z</time>
      </trkpt>
      <trkpt lat="44.32653" lon="5.74469">
        <ele>679.282</ele>
        <time>2019-04-26T13:35:19Z</time>
      </trkpt>
      <trkpt lat="44.32624" lon="5.74428">
        <ele>680.074</ele>
        <time>2019-04-26T13:35:30Z</time>
      </trkpt>
      <trkpt lat="44.32595" lon="5.74386">
        <ele>680.498</ele>
        <time>2019-04-26T13:35:41Z</time>
      </trkpt>
      <trkpt lat="44.32566" lon="5.74346">
        <ele>680.958</ele>
        <time>2019-04-26T13:35:51Z</time>
      </trkpt>
      <trkpt lat="44.32532" lon="5.74303">
        <ele>681.168</ele>
        <time>2019-04-26T13:36:01Z</time>
      </trkpt>
      <trkpt lat="44.32495" lon="5.74257">
        <ele>681.825</ele>
        <time>2019-04-26T13:36:12Z</time>
      </trkpt>
      <trkpt lat="44.3246" lon="5.74207">
        <ele>682.337</ele>
        <time>2019-04-26T13:36:22Z</time>
      </trkpt>
      <trkpt lat="44.32422" lon="5.74135">
        <ele>682.466</ele>
        <time>2019-04-26T13:36:32Z</time>
      </trkpt>
      <trkpt lat="44.3238" lon="5.74057">
        <ele>682.48</ele>
        <time>2019-04-26T13:36:42Z</time>
      </trkpt>
      <trkpt lat="44.32346" lon="5.73993">
        <ele>682.87</ele>
        <time>2019-04-26T13:36:53Z</time>
      </trkpt>
      <trkpt lat="44.32324" lon="5.73953">
        <ele>683.004</ele>
        <time>2019-04-26T13:37:04Z</time>
      </trkpt>
      <trkpt lat="44.32308" lon="5.73918">
        <ele>683.249</ele>
        <time>2019-04-26T13:37:14Z</time>
      </trkpt>
      <trkpt lat="44.32292" lon="5.73877">
        <ele>683.559</ele>
        <time>2019-04-26T13:37:24Z</time>
      </trkpt>
      <trkpt lat="44.32273" lon="5.73826">
        <ele>685.335</ele>
        <time>2019-04-26T13:37:35Z</time>
      </trkpt>
      <trkpt lat="44.32254" lon="5.73772">
        <ele>686.498</ele>
        <time>2019-04-26T13:37:46Z</time>
      </trkpt>
      <trkpt lat="44.32234" lon="5.73716">
        <ele>687.351</ele>
        <time>2019-04-26T13:37:57Z</time>
      </trkpt>
      <trkpt lat="44.32212" lon="5.73653">
        <ele>688.003</ele>
        <time>2019-04-26T13:38:08Z</time>
      </trkpt>
      <trkpt lat="44.3219" lon="5.73589">
        <ele>688.426</ele>
        <time>2019-04-26T13:38:19Z</time>
      </trkpt>
      <trkpt lat="44.32168" lon="5.73528">
        <ele>689.066</ele>
        <time>2019-04-26T13:38:30Z</time>
      </trkpt>
      <trkpt lat="44.32145" lon="5.73463">
        <ele>689.81</ele>
        <time>2019-04-26T13:38:41Z</time>
      </trkpt>
      <trkpt lat="44.32121" lon="5.73398">
        <ele>690.464</ele>
        <time>2019-04-26T13:38:52Z</time>
      </trkpt>
      <trkpt lat="44.32099" lon="5.7333">
        <ele>691.011</ele>
        <time>2019-04-26T13:39:03Z</time>
      </trkpt>
      <trkpt lat="44.32076" lon="5.73256">
        <ele>691.422</ele>
        <time>2019-04-26T13:39:13Z</time>
      </trkpt>
      <trkpt lat="44.32065" lon="5.73174">
        <ele>691.707</ele>
        <time>2019-04-26T13:39:24Z</time>
      </trkpt>
      <trkpt lat="44.32054" lon="5.73097">
        <ele>692.163</ele>
        <time>2019-04-26T13:39:35Z</time>
      </trkpt>
      <trkpt lat="44.32045" lon="5.7302">
        <ele>692.608</ele>
        <time>2019-04-26T13:39:46Z</time>
      </trkpt>
      <trkpt lat="44.32034" lon="5.72949">
        <ele>693.054</ele>
        <time>2019-04-26T13:39:57Z</time>
      </trkpt>
      <trkpt lat="44.32026" lon="5.72881">
        <ele>693.593</ele>
        <time>2019-04-26T13:40:08Z</time>
      </trkpt>
      <trkpt lat="44.32019" lon="5.72826">
        <ele>693.851</ele>
        <time>2019-04-26T13:40:18Z</time>
      </trkpt>
      <trkpt lat="44.32013" lon="5.72776">
        <ele>693.982</ele>
        <time>2019-04-26T13:40:28Z</time>
      </trkpt>
      <trkpt lat="44.32007" lon="5.72725">
        <ele>694.147</ele>
        <time>2019-04-26T13:40:39Z</time>
      </trkpt>
      <trkpt lat="44.32" lon="5.72677">
        <ele>694.418</ele>
        <time>2019-04-26T13:40:50Z</time>
      </trkpt>
      <trkpt lat="44.31993" lon="5.72629">
        <ele>694.805</ele>
        <time>2019-04-26T13:41:01Z</time>
      </trkpt>
      <trkpt lat="44.31985" lon="5.72575">
        <ele>695.327</ele>
        <time>2019-04-26T13:41:12Z</time>
      </trkpt>
      <trkpt lat="44.31969" lon="5.72522">
        <ele>698.204</ele>
        <time>2019-04-26T13:41:23Z</time>
      </trkpt>
      <trkpt lat="44.31947" lon="5.72473">
        <ele>699.331</ele>
        <time>2019-04-26T13:41:33Z</time>
      </trkpt>
      <trkpt lat="44.31922" lon="5.72421">
        <ele>700.04</ele>
        <time>2019-04-26T13:41:43Z</time>
      </trkpt>
      <trkpt lat="44.31904" lon="5.72377">
        <ele>700.253</ele>
        <time>2019-04-26T13:41:53Z</time>
      </trkpt>
      <trkpt lat="44.31884" lon="5.72327">
        <ele>700.893</ele>
        <time>2019-04-26T13:42:04Z</time>
      </trkpt>
      <trkpt lat="44.31871" lon="5.72271">
        <ele>702.761</ele>
        <time>2019-04-26T13:42:15Z</time>
      </trkpt>
      <trkpt lat="44.31859" lon="5.72211">
        <ele>703.275</ele>
        <time>2019-04-26T13:42:26Z</time>
      </trkpt>
      <trkpt lat="44.31842" lon="5.72147">
        <ele>703.763</ele>
        <time>2019-04-26T13:42:37Z</time>
      </trkpt>
      <trkpt lat="44.31824" lon="5.72086">
        <ele>705.345</ele>
        <time>2019-04-26T13:42:48Z</time>
      </trkpt>
      <trkpt lat="44.31808" lon="5.72035">
        <ele>705.972</ele>
        <time>2019-04-26T13:42:58Z</time>
      </trkpt>
      <trkpt lat="44.31785" lon="5.71972">
        <ele>704.941</ele>
        <time>2019-04-26T13:43:09Z</time>
      </trkpt>
      <trkpt lat="44.31767" lon="5.71906">
        <ele>705.116</ele>
        <time>2019-04-26T13:43:19Z</time>
      </trkpt>
      <trkpt lat="44.31761" lon="5.7183">
        <ele>706.859</ele>
        <time>2019-04-26T13:43:30Z</time>
      </trkpt>
      <trkpt lat="44.31755" lon="5.71773">
        <ele>708.427</ele>
        <time>2019-04-26T13:43:41Z</time>
      </trkpt>
      <trkpt lat="44.31748" lon="5.71712">
        <ele>709.783</ele>
        <time>2019-04-26T13:43:52Z</time>
      </trkpt>
      <trkpt lat="44.31717" lon="5.71652">
        <ele>709.414</ele>
        <time>2019-04-26T13:44:03Z</time>
      </trkpt>
      <trkpt lat="44.31681" lon="5.71581">
        <ele>709.308</ele>
        <time>2019-04-26T13:44:14Z</time>
      </trkpt>
      <trkpt lat="44.31651" lon="5.71507">
        <ele>708.882</ele>
        <time>2019-04-26T13:44:25Z</time>
      </trkpt>
      <trkpt lat="44.31623" lon="5.71433">
        <ele>708.622</ele>
        <time>2019-04-26T13:44:36Z</time>
      </trkpt>
      <trkpt lat="44.31605" lon="5.71371">
        <ele>709.214</ele>
        <time>2019-04-26T13:44:46Z</time>
      </trkpt>
      <trkpt lat="44.31594" lon="5.71314">
        <ele>709.769</ele>
        <time>2019-04-26T13:44:57Z</time>
      </trkpt>
      <trkpt lat="44.31586" lon="5.7127">
        <ele>710.024</ele>
        <time>2019-04-26T13:45:08Z</time>
      </trkpt>
      <trkpt lat="44.31578" lon="5.71229">
        <ele>710.443</ele>
        <time>2019-04-26T13:45:18Z</time>
      </trkpt>
      <trkpt lat="44.31568" lon="5.71176">
        <ele>711.088</ele>
        <time>2019-04-26T13:45:29Z</time>
      </trkpt>
      <trkpt lat="44.31557" lon="5.71123">
        <ele>711.498</ele>
        <time>2019-04-26T13:45:40Z</time>
      </trkpt>
      <trkpt lat="44.31541" lon="5.71076">
        <ele>712.259</ele>
        <time>2019-04-26T13:45:51Z</time>
      </trkpt>
      <trkpt lat="44.31534" lon="5.71024">
        <ele>714.034</ele>
        <time>2019-04-26T13:46:02Z</time>
      </trkpt>
      <trkpt lat="44.31539" lon="5.70965">
        <ele>714.975</ele>
        <time>2019-04-26T13:46:13Z</time>
      </trkpt>
      <trkpt lat="44.3155" lon="5.70906">
        <ele>716.893</ele>
        <time>2019-04-26T13:46:24Z</time>
      </trkpt>
      <trkpt lat="44.31557" lon="5.70853">
        <ele>717.337</ele>
        <time>2019-04-26T13:46:35Z</time>
      </trkpt>
      <trkpt lat="44.31563" lon="5.70805">
        <ele>717.957</ele>
        <time>2019-04-26T13:46:45Z</time>
      </trkpt>
      <trkpt lat="44.31563" lon="5.70763">
        <ele>719.031</ele>
        <time>2019-04-26T13:46:56Z</time>
      </trkpt>
      <trkpt lat="44.3156" lon="5.70724">
        <ele>719.834</ele>
        <time>2019-04-26T13:47:07Z</time>
      </trkpt>
      <trkpt lat="44.31557" lon="5.70688">
        <ele>720.385</ele>
        <time>2019-04-26T13:47:18Z</time>
      </trkpt>
      <trkpt lat="44.3155" lon="5.7065">
        <ele>720.923</ele>
        <time>2019-04-26T13:47:28Z</time>
      </trkpt>
      <trkpt lat="44.31533" lon="5.70613">
        <ele>721.104</ele>
        <time>2019-04-26T13:47:39Z</time>
      </trkpt>
      <trkpt lat="44.31515" lon="5.70579">
        <ele>721.179</ele>
        <time>2019-04-26T13:47:50Z</time>
      </trkpt>
      <trkpt lat="44.315" lon="5.70543">
        <ele>721.674</ele>
        <time>2019-04-26T13:48:00Z</time>
      </trkpt>
      <trkpt lat="44.31489" lon="5.70489">
        <ele>722.769</ele>
        <time>2019-04-26T13:48:11Z</time>
      </trkpt>
      <trkpt lat="44.31478" lon="5.70438">
        <ele>724.151</ele>
        <time>2019-04-26T13:48:22Z</time>
      </trkpt>
      <trkpt lat="44.31458" lon="5.70394">
        <ele>729.405</ele>
        <time>2019-04-26T13:48:32Z</time>
      </trkpt>
      <trkpt lat="44.31439" lon="5.70349">
        <ele>729.883</ele>
        <time>2019-04-26T13:48:43Z</time>
      </trkpt>
      <trkpt lat="44.3143" lon="5.70303">
        <ele>730.491</ele>
        <time>2019-04-26T13:48:54Z</time>
      </trkpt>
      <trkpt lat="44.31428" lon="5.70258">
        <ele>731.27</ele>
        <time>2019-04-26T13:49:05Z</time>
      </trkpt>
      <trkpt lat="44.31425" lon="5.70217">
        <ele>732.25</ele>
        <time>2019-04-26T13:49:16Z</time>
      </trkpt>
      <trkpt lat="44.31419" lon="5.70178">
        <ele>733.261</ele>
        <time>2019-04-26T13:49:27Z</time>
      </trkpt>
      <trkpt lat="44.31406" lon="5.70143">
        <ele>733.918</ele>
        <time>2019-04-26T13:49:37Z</time>
      </trkpt>
      <trkpt lat="44.31393" lon="5.70107">
        <ele>734.619</ele>
        <time>2019-04-26T13:49:48Z</time>
      </trkpt>
      <trkpt lat="44.31381" lon="5.70066">
        <ele>735.433</ele>
        <time>2019-04-26T13:49:59Z</time>
      </trkpt>
      <trkpt lat="44.31368" lon="5.7002">
        <ele>736.262</ele>
        <time>2019-04-26T13:50:10Z</time>
      </trkpt>
      <trkpt lat="44.3136" lon="5.69963">
        <ele>738.308</ele>
        <time>2019-04-26T13:50:21Z</time>
      </trkpt>
      <trkpt lat="44.31343" lon="5.69893">
        <ele>739.458</ele>
        <time>2019-04-26T13:50:32Z</time>
      </trkpt>
      <trkpt lat="44.31327" lon="5.69817">
        <ele>739.534</ele>
        <time>2019-04-26T13:50:43Z</time>
      </trkpt>
      <trkpt lat="44.31326" lon="5.69747">
        <ele>739.304</ele>
        <time>2019-04-26T13:50:53Z</time>
      </trkpt>
      <trkpt lat="44.31329" lon="5.69683">
        <ele>738.981</ele>
        <time>2019-04-26T13:51:04Z</time>
      </trkpt>
      <trkpt lat="44.31332" lon="5.69626">
        <ele>741.034</ele>
        <time>2019-04-26T13:51:14Z</time>
      </trkpt>
      <trkpt lat="44.31335" lon="5.69571">
        <ele>741.582</ele>
        <time>2019-04-26T13:51:25Z</time>
      </trkpt>
      <trkpt lat="44.31345" lon="5.69512">
        <ele>742.23</ele>
        <time>2019-04-26T13:51:35Z</time>
      </trkpt>
      <trkpt lat="44.3136" lon="5.69441">
        <ele>741.732</ele>
        <time>2019-04-26T13:51:46Z</time>
      </trkpt>
      <trkpt lat="44.31358" lon="5.69364">
        <ele>738.937</ele>
        <time>2019-04-26T13:51:57Z</time>
      </trkpt>
      <trkpt lat="44.31352" lon="5.69297">
        <ele>738.643</ele>
        <time>2019-04-26T13:52:07Z</time>
      </trkpt>
      <trkpt lat="44.3137" lon="5.69273">
        <ele>739.654</ele>
        <time>2019-04-26T13:52:18Z</time>
      </trkpt>
      <trkpt lat="44.3139" lon="5.69264">
        <ele>742.13</ele>
        <time>2019-04-26T13:52:29Z</time>
      </trkpt>
      <trkpt lat="44.3137" lon="5.69262">
        <ele>744.297</ele>
        <time>2019-04-26T13:52:39Z</time>
      </trkpt>
      <trkpt lat="44.31369" lon="5.69263">
        <ele>744.604</ele>
        <time>2019-04-26T13:52:50Z</time>
      </trkpt>
      <trkpt lat="44.31362" lon="5.69269">
        <ele>744.286</ele>
        <time>2019-04-26T13:53:00Z</time>
      </trkpt>
      <trkpt lat="44.3136" lon="5.69266">
        <ele>743.958</ele>
        <time>2019-04-26T13:53:11Z</time>
      </trkpt>
      <trkpt lat="44.31356" lon="5.69265">
        <ele>743.829</ele>
        <time>2019-04-26T13:53:22Z</time>
      </trkpt>
      <trkpt lat="44.31352" lon="5.69261">
        <ele>744.041</ele>
        <time>2019-04-26T13:53:33Z</time>
      </trkpt>
      <trkpt lat="44.31354" lon="5.69263">
        <ele>743.471</ele>
        <time>2019-04-26T13:53:43Z</time>
      </trkpt>
      <trkpt lat="44.31356" lon="5.69263">
        <ele>741.534</ele>
        <time>2019-04-26T13:53:54Z</time>
      </trkpt>
      <trkpt lat="44.31355" lon="5.69277">
        <ele>740.11</ele>
        <time>2019-04-26T13:54:05Z</time>
      </trkpt>
      <trkpt lat="44.31353" lon="5.69275">
        <ele>740.212</ele>
        <time>2019-04-26T13:54:15Z</time>
      </trkpt>
      <trkpt lat="44.31352" lon="5.69275">
        <ele>740.342</ele>
        <time>2019-04-26T13:54:26Z</time>
      </trkpt>
      <trkpt lat="44.31351" lon="5.69275">
        <ele>740.599</ele>
        <time>2019-04-26T13:54:37Z</time>
      </trkpt>
      <trkpt lat="44.3135" lon="5.69276">
        <ele>740.88</ele>
        <time>2019-04-26T13:54:47Z</time>
      </trkpt>
      <trkpt lat="44.31348" lon="5.69279">
        <ele>741.201</ele>
        <time>2019-04-26T13:54:58Z</time>
      </trkpt>
      <trkpt lat="44.31347" lon="5.69279">
        <ele>741.516</ele>
        <time>2019-04-26T13:55:08Z</time>
      </trkpt>
      <trkpt lat="44.31346" lon="5.6928">
        <ele>741.858</ele>
        <time>2019-04-26T13:55:19Z</time>
      </trkpt>
      <trkpt lat="44.31346" lon="5.6928">
        <ele>742.529</ele>
        <time>2019-04-26T13:55:30Z</time>
      </trkpt>
      <trkpt lat="44.31346" lon="5.69279">
        <ele>742.868</ele>
        <time>2019-04-26T13:55:40Z</time>
      </trkpt>
      <trkpt lat="44.31346" lon="5.69278">
        <ele>743.272</ele>
        <time>2019-04-26T13:55:51Z</time>
      </trkpt>
      <trkpt lat="44.31346" lon="5.69277">
        <ele>743.594</ele>
        <time>2019-04-26T13:56:02Z</time>
      </trkpt>
      <trkpt lat="44.31347" lon="5.69276">
        <ele>744.988</ele>
        <time>2019-04-26T13:56:13Z</time>
      </trkpt>
      <trkpt lat="44.31354" lon="5.69273">
        <ele>746.823</ele>
        <time>2019-04-26T13:56:24Z</time>
      </trkpt>
      <trkpt lat="44.31354" lon="5.6927">
        <ele>747.248</ele>
        <time>2019-04-26T13:56:35Z</time>
      </trkpt>
      <trkpt lat="44.31353" lon="5.6927">
        <ele>747.221</ele>
        <time>2019-04-26T13:56:46Z</time>
      </trkpt>
      <trkpt lat="44.31353" lon="5.6927">
        <ele>747.194</ele>
        <time>2019-04-26T13:56:56Z</time>
      </trkpt>
      <trkpt lat="44.31353" lon="5.6927">
        <ele>747.193</ele>
        <time>2019-04-26T13:57:06Z</time>
      </trkpt>
      <trkpt lat="44.31353" lon="5.6927">
        <ele>747.172</ele>
        <time>2019-04-26T13:57:16Z</time>
      </trkpt>
      <trkpt lat="44.31352" lon="5.6927">
        <ele>747.111</ele>
        <time>2019-04-26T13:57:27Z</time>
      </trkpt>
      <trkpt lat="44.31352" lon="5.6927">
        <ele>747.022</ele>
        <time>2019-04-26T13:57:37Z</time>
      </trkpt>
      <trkpt lat="44.31352" lon="5.69272">
        <ele>746.318</ele>
        <time>2019-04-26T13:57:48Z</time>
      </trkpt>
      <trkpt lat="44.31356" lon="5.69275">
        <ele>747.096</ele>
        <time>2019-04-26T13:57:58Z</time>
      </trkpt>
      <trkpt lat="44.31355" lon="5.69275">
        <ele>747.436</ele>
        <time>2019-04-26T13:58:09Z</time>
      </trkpt>
      <trkpt lat="44.31354" lon="5.69274">
        <ele>747.434</ele>
        <time>2019-04-26T13:58:20Z</time>
      </trkpt>
      <trkpt lat="44.31354" lon="5.69274">
        <ele>747.42</ele>
        <time>2019-04-26T13:58:30Z</time>
      </trkpt>
      <trkpt lat="44.31353" lon="5.69273">
        <ele>747.419</ele>
        <time>2019-04-26T13:58:41Z</time>
      </trkpt>
      <trkpt lat="44.31353" lon="5.69273">
        <ele>747.377</ele>
        <time>2019-04-26T13:58:52Z</time>
      </trkpt>
      <trkpt lat="44.31352" lon="5.69272">
        <ele>747.317</ele>
        <time>2019-04-26T13:59:03Z</time>
      </trkpt>
      <trkpt lat="44.31351" lon="5.69272">
        <ele>747.148</ele>
        <time>2019-04-26T13:59:14Z</time>
      </trkpt>
      <trkpt lat="44.31351" lon="5.69273">
        <ele>747.089</ele>
        <time>2019-04-26T13:59:24Z</time>
      </trkpt>
      <trkpt lat="44.31352" lon="5.69275">
        <ele>747.016</ele>
        <time>2019-04-26T13:59:35Z</time>
      </trkpt>
      <trkpt lat="44.31351" lon="5.69274">
        <ele>746.868</ele>
        <time>2019-04-26T13:59:46Z</time>
      </trkpt>
      <trkpt lat="44.31351" lon="5.69272">
        <ele>746.648</ele>
        <time>2019-04-26T13:59:56Z</time>
      </trkpt>
      <trkpt lat="44.31351" lon="5.69274">
        <ele>746.552</ele>
        <time>2019-04-26T14:00:07Z</time>
      </trkpt>
      <trkpt lat="44.31354" lon="5.69275">
        <ele>746.751</ele>
        <time>2019-04-26T14:00:17Z</time>
      </trkpt>
      <trkpt lat="44.31351" lon="5.69268">
        <ele>747.37</ele>
        <time>2019-04-26T14:00:28Z</time>
      </trkpt>
      <trkpt lat="44.31351" lon="5.69267">
        <ele>747.688</ele>
        <time>2019-04-26T14:00:38Z</time>
      </trkpt>
      <trkpt lat="44.31351" lon="5.69267">
        <ele>747.87</ele>
        <time>2019-04-26T14:00:49Z</time>
      </trkpt>
      <trkpt lat="44.31351" lon="5.69269">
        <ele>748.362</ele>
        <time>2019-04-26T14:01:00Z</time>
      </trkpt>
      <trkpt lat="44.31352" lon="5.69269">
        <ele>748.417</ele>
        <time>2019-04-26T14:01:10Z</time>
      </trkpt>
      <trkpt lat="44.31352" lon="5.6927">
        <ele>748.467</ele>
        <time>2019-04-26T14:01:21Z</time>
      </trkpt>
      <trkpt lat="44.31352" lon="5.6927">
        <ele>748.502</ele>
        <time>2019-04-26T14:01:31Z</time>
      </trkpt>
      <trkpt lat="44.31352" lon="5.69271">
        <ele>748.513</ele>
        <time>2019-04-26T14:01:42Z</time>
      </trkpt>
      <trkpt lat="44.31354" lon="5.69272">
        <ele>748.497</ele>
        <time>2019-04-26T14:01:52Z</time>
      </trkpt>
      <trkpt lat="44.31356" lon="5.69271">
        <ele>748.463</ele>
        <time>2019-04-26T14:02:03Z</time>
      </trkpt>
      <trkpt lat="44.31354" lon="5.6927">
        <ele>748.517</ele>
        <time>2019-04-26T14:02:14Z</time>
      </trkpt>
      <trkpt lat="44.31355" lon="5.69274">
        <ele>748.506</ele>
        <time>2019-04-26T14:02:25Z</time>
      </trkpt>
      <trkpt lat="44.31355" lon="5.69274">
        <ele>748.532</ele>
        <time>2019-04-26T14:02:35Z</time>
      </trkpt>
      <trkpt lat="44.31355" lon="5.69273">
        <ele>748.552</ele>
        <time>2019-04-26T14:02:46Z</time>
      </trkpt>
      <trkpt lat="44.31355" lon="5.69272">
        <ele>748.457</ele>
        <time>2019-04-26T14:02:57Z</time>
      </trkpt>
      <trkpt lat="44.31357" lon="5.69272">
        <ele>748.301</ele>
        <time>2019-04-26T14:03:07Z</time>
      </trkpt>
      <trkpt lat="44.31356" lon="5.69272">
        <ele>748.273</ele>
        <time>2019-04-26T14:03:18Z</time>
      </trkpt>
      <trkpt lat="44.31356" lon="5.69272">
        <ele>748.257</ele>
        <time>2019-04-26T14:03:29Z</time>
      </trkpt>
      <trkpt lat="44.31356" lon="5.69272">
        <ele>748.292</ele>
        <time>2019-04-26T14:03:39Z</time>
      </trkpt>
      <trkpt lat="44.31356" lon="5.69272">
        <ele>748.447</ele>
        <time>2019-04-26T14:03:50Z</time>
      </trkpt>
      <trkpt lat="44.31355" lon="5.69272">
        <ele>748.532</ele>
        <time>2019-04-26T14:04:01Z</time>
      </trkpt>
      <trkpt lat="44.31355" lon="5.69272">
        <ele>748.747</ele>
        <time>2019-04-26T14:04:12Z</time>
      </trkpt>
      <trkpt lat="44.31355" lon="5.69272">
        <ele>748.786</ele>
        <time>2019-04-26T14:04:22Z</time>
      </trkpt>
      <trkpt lat="44.31354" lon="5.69276">
        <ele>748.849</ele>
        <time>2019-04-26T14:04:32Z</time>
      </trkpt>
      <trkpt lat="44.3135" lon="5.69276">
        <ele>749.279</ele>
        <time>2019-04-26T14:04:43Z</time>
      </trkpt>
      <trkpt lat="44.31349" lon="5.69277">
        <ele>749.695</ele>
        <time>2019-04-26T14:04:54Z</time>
      </trkpt>
      <trkpt lat="44.3135" lon="5.69278">
        <ele>750.452</ele>
        <time>2019-04-26T14:05:05Z</time>
      </trkpt>
      <trkpt lat="44.3135" lon="5.69278">
        <ele>750.595</ele>
        <time>2019-04-26T14:05:15Z</time>
      </trkpt>
      <trkpt lat="44.3135" lon="5.69277">
        <ele>750.729</ele>
        <time>2019-04-26T14:05:26Z</time>
      </trkpt>
      <trkpt lat="44.31351" lon="5.69276">
        <ele>750.805</ele>
        <time>2019-04-26T14:05:36Z</time>
      </trkpt>
      <trkpt lat="44.31351" lon="5.69276">
        <ele>750.925</ele>
        <time>2019-04-26T14:05:47Z</time>
      </trkpt>
      <trkpt lat="44.31351" lon="5.69275">
        <ele>751.061</ele>
        <time>2019-04-26T14:05:57Z</time>
      </trkpt>
      <trkpt lat="44.31353" lon="5.69276">
        <ele>751.257</ele>
        <time>2019-04-26T14:06:08Z</time>
      </trkpt>
      <trkpt lat="44.31353" lon="5.69276">
        <ele>751.395</ele>
        <time>2019-04-26T14:06:19Z</time>
      </trkpt>
      <trkpt lat="44.31352" lon="5.69276">
        <ele>751.536</ele>
        <time>2019-04-26T14:06:29Z</time>
      </trkpt>
      <trkpt lat="44.31353" lon="5.69276">
        <ele>751.785</ele>
        <time>2019-04-26T14:06:39Z</time>
      </trkpt>
      <trkpt lat="44.31353" lon="5.69284">
        <ele>755.329</ele>
        <time>2019-04-26T14:06:50Z</time>
      </trkpt>
      <trkpt lat="44.31354" lon="5.6928">
        <ele>757.429</ele>
        <time>2019-04-26T14:07:01Z</time>
      </trkpt>
      <trkpt lat="44.31353" lon="5.69275">
        <ele>758.047</ele>
        <time>2019-04-26T14:07:11Z</time>
      </trkpt>
      <trkpt lat="44.31354" lon="5.69275">
        <ele>758.079</ele>
        <time>2019-04-26T14:07:22Z</time>
      </trkpt>
      <trkpt lat="44.31356" lon="5.69275">
        <ele>757.625</ele>
        <time>2019-04-26T14:07:32Z</time>
      </trkpt>
      <trkpt lat="44.31357" lon="5.69275">
        <ele>757.434</ele>
        <time>2019-04-26T14:07:42Z</time>
      </trkpt>
      <trkpt lat="44.31357" lon="5.69275">
        <ele>757.296</ele>
        <time>2019-04-26T14:07:53Z</time>
      </trkpt>
      <trkpt lat="44.31356" lon="5.69275">
        <ele>757.139</ele>
        <time>2019-04-26T14:08:04Z</time>
      </trkpt>
      <trkpt lat="44.31356" lon="5.69275">
        <ele>756.572</ele>
        <time>2019-04-26T14:08:14Z</time>
      </trkpt>
      <trkpt lat="44.31357" lon="5.69273">
        <ele>755.756</ele>
        <time>2019-04-26T14:08:25Z</time>
      </trkpt>
      <trkpt lat="44.31355" lon="5.69268">
        <ele>754.011</ele>
        <time>2019-04-26T14:08:36Z</time>
      </trkpt>
      <trkpt lat="44.31355" lon="5.69266">
        <ele>752.604</ele>
        <time>2019-04-26T14:08:46Z</time>
      </trkpt>
      <trkpt lat="44.31358" lon="5.69269">
        <ele>752.015</ele>
        <time>2019-04-26T14:08:57Z</time>
      </trkpt>
      <trkpt lat="44.31356" lon="5.69269">
        <ele>752.105</ele>
        <time>2019-04-26T14:09:08Z</time>
      </trkpt>
      <trkpt lat="44.31356" lon="5.6927">
        <ele>752.221</ele>
        <time>2019-04-26T14:09:18Z</time>
      </trkpt>
      <trkpt lat="44.31353" lon="5.69277">
        <ele>754.596</ele>
        <time>2019-04-26T14:09:29Z</time>
      </trkpt>
      <trkpt lat="44.31351" lon="5.69271">
        <ele>757.86</ele>
        <time>2019-04-26T14:09:40Z</time>
      </trkpt>
      <trkpt lat="44.31347" lon="5.69269">
        <ele>758.846</ele>
        <time>2019-04-26T14:09:51Z</time>
      </trkpt>
      <trkpt lat="44.31347" lon="5.69269">
        <ele>759.056</ele>
        <time>2019-04-26T14:10:02Z</time>
      </trkpt>
      <trkpt lat="44.31347" lon="5.69269">
        <ele>759.118</ele>
        <time>2019-04-26T14:10:14Z</time>
      </trkpt>
      <trkpt lat="44.31347" lon="5.69269">
        <ele>759.148</ele>
        <time>2019-04-26T14:10:25Z</time>
      </trkpt>
      <trkpt lat="44.31347" lon="5.6927">
        <ele>759.203</ele>
        <time>2019-04-26T14:10:36Z</time>
      </trkpt>
      <trkpt lat="44.31347" lon="5.69271">
        <ele>759.464</ele>
        <time>2019-04-26T14:10:46Z</time>
      </trkpt>
      <trkpt lat="44.31346" lon="5.69271">
        <ele>759.919</ele>
        <time>2019-04-26T14:10:57Z</time>
      </trkpt>
      <trkpt lat="44.31345" lon="5.69271">
        <ele>760.277</ele>
        <time>2019-04-26T14:11:07Z</time>
      </trkpt>
      <trkpt lat="44.31345" lon="5.69271">
        <ele>760.471</ele>
        <time>2019-04-26T14:11:18Z</time>
      </trkpt>
      <trkpt lat="44.31346" lon="5.69271">
        <ele>760.642</ele>
        <time>2019-04-26T14:11:28Z</time>
      </trkpt>
      <trkpt lat="44.31347" lon="5.69271">
        <ele>760.692</ele>
        <time>2019-04-26T14:11:39Z</time>
      </trkpt>
      <trkpt lat="44.31349" lon="5.6927">
        <ele>760.779</ele>
        <time>2019-04-26T14:11:50Z</time>
      </trkpt>
      <trkpt lat="44.31348" lon="5.69274">
        <ele>760.736</ele>
        <time>2019-04-26T14:12:00Z</time>
      </trkpt>
      <trkpt lat="44.31349" lon="5.69275">
        <ele>761.151</ele>
        <time>2019-04-26T14:12:11Z</time>
      </trkpt>
      <trkpt lat="44.31347" lon="5.69272">
        <ele>762.042</ele>
        <time>2019-04-26T14:12:21Z</time>
      </trkpt>
      <trkpt lat="44.31349" lon="5.69268">
        <ele>762.781</ele>
        <time>2019-04-26T14:12:31Z</time>
      </trkpt>
      <trkpt lat="44.31352" lon="5.69265">
        <ele>763.211</ele>
        <time>2019-04-26T14:12:42Z</time>
      </trkpt>
      <trkpt lat="44.31352" lon="5.69266">
        <ele>763.167</ele>
        <time>2019-04-26T14:12:52Z</time>
      </trkpt>
      <trkpt lat="44.31353" lon="5.69263">
        <ele>762.457</ele>
        <time>2019-04-26T14:13:03Z</time>
      </trkpt>
      <trkpt lat="44.31345" lon="5.69263">
        <ele>761.223</ele>
        <time>2019-04-26T14:13:14Z</time>
      </trkpt>
      <trkpt lat="44.31345" lon="5.69263">
        <ele>760.755</ele>
        <time>2019-04-26T14:13:25Z</time>
      </trkpt>
      <trkpt lat="44.31348" lon="5.6927">
        <ele>760.618</ele>
        <time>2019-04-26T14:13:36Z</time>
      </trkpt>
      <trkpt lat="44.3135" lon="5.69272">
        <ele>761.12</ele>
        <time>2019-04-26T14:13:46Z</time>
      </trkpt>
      <trkpt lat="44.31353" lon="5.6927">
        <ele>761.407</ele>
        <time>2019-04-26T14:13:56Z</time>
      </trkpt>
      <trkpt lat="44.31359" lon="5.69265">
        <ele>761.349</ele>
        <time>2019-04-26T14:14:06Z</time>
      </trkpt>
      <trkpt lat="44.3136" lon="5.69259">
        <ele>760.904</ele>
        <time>2019-04-26T14:14:17Z</time>
      </trkpt>
      <trkpt lat="44.31358" lon="5.69259">
        <ele>759.107</ele>
        <time>2019-04-26T14:14:27Z</time>
      </trkpt>
      <trkpt lat="44.31358" lon="5.6926">
        <ele>757.07</ele>
        <time>2019-04-26T14:14:38Z</time>
      </trkpt>
      <trkpt lat="44.31358" lon="5.6926">
        <ele>755.915</ele>
        <time>2019-04-26T14:14:49Z</time>
      </trkpt>
      <trkpt lat="44.31357" lon="5.69259">
        <ele>749.465</ele>
        <time>2019-04-26T14:15:01Z</time>
      </trkpt>
      <trkpt lat="44.31345" lon="5.69261">
        <ele>740.572</ele>
        <time>2019-04-26T14:15:18Z</time>
      </trkpt>
      <trkpt lat="44.31339" lon="5.6926">
        <ele>738.593</ele>
        <time>2019-04-26T14:15:28Z</time>
      </trkpt>
      <trkpt lat="44.31345" lon="5.69268">
        <ele>764.102</ele>
        <time>2019-04-26T14:18:59Z</time>
      </trkpt>
      <trkpt lat="44.31344" lon="5.69266">
        <ele>756.797</ele>
        <time>2019-04-26T14:19:09Z</time>
      </trkpt>
      <trkpt lat="44.31339" lon="5.6926">
        <ele>777.015</ele>
        <time>2019-04-26T14:19:49Z</time>
      </trkpt>
      <trkpt lat="44.31339" lon="5.69261">
        <ele>776.88</ele>
        <time>2019-04-26T14:19:59Z</time>
      </trkpt>
      <trkpt lat="44.31341" lon="5.69261">
        <ele>776.512</ele>
        <time>2019-04-26T14:20:10Z</time>
      </trkpt>
      <trkpt lat="44.31341" lon="5.6926">
        <ele>775.953</ele>
        <time>2019-04-26T14:20:20Z</time>
      </trkpt>
      <trkpt lat="44.31344" lon="5.69265">
        <ele>772.994</ele>
        <time>2019-04-26T14:20:30Z</time>
      </trkpt>
      <trkpt lat="44.31347" lon="5.69257">
        <ele>770.915</ele>
        <time>2019-04-26T14:20:41Z</time>
      </trkpt>
      <trkpt lat="44.31347" lon="5.69257">
        <ele>770.157</ele>
        <time>2019-04-26T14:20:51Z</time>
      </trkpt>
      <trkpt lat="44.31348" lon="5.69258">
        <ele>769.826</ele>
        <time>2019-04-26T14:21:02Z</time>
      </trkpt>
      <trkpt lat="44.31352" lon="5.69258">
        <ele>769.139</ele>
        <time>2019-04-26T14:21:13Z</time>
      </trkpt>
      <trkpt lat="44.31355" lon="5.6926">
        <ele>767.747</ele>
        <time>2019-04-26T14:21:23Z</time>
      </trkpt>
      <trkpt lat="44.31353" lon="5.69261">
        <ele>766.617</ele>
        <time>2019-04-26T14:21:36Z</time>
      </trkpt>
      <trkpt lat="44.31353" lon="5.6926">
        <ele>765.652</ele>
        <time>2019-04-26T14:21:48Z</time>
      </trkpt>
      <trkpt lat="44.31349" lon="5.6933">
        <ele>793.033</ele>
        <time>2019-04-26T14:23:05Z</time>
      </trkpt>
      <trkpt lat="44.31346" lon="5.69287">
        <ele>798.795</ele>
        <time>2019-04-26T14:23:15Z</time>
      </trkpt>
      <trkpt lat="44.31341" lon="5.69281">
        <ele>801.262</ele>
        <time>2019-04-26T14:23:25Z</time>
      </trkpt>
      <trkpt lat="44.31352" lon="5.6928">
        <ele>803.157</ele>
        <time>2019-04-26T14:23:36Z</time>
      </trkpt>
      <trkpt lat="44.31354" lon="5.69277">
        <ele>802.552</ele>
        <time>2019-04-26T14:23:46Z</time>
      </trkpt>
      <trkpt lat="44.31353" lon="5.69278">
        <ele>801.231</ele>
        <time>2019-04-26T14:23:56Z</time>
      </trkpt>
      <trkpt lat="44.31352" lon="5.69273">
        <ele>798.695</ele>
        <time>2019-04-26T14:24:07Z</time>
      </trkpt>
      <trkpt lat="44.31348" lon="5.69274">
        <ele>797.861</ele>
        <time>2019-04-26T14:24:17Z</time>
      </trkpt>
      <trkpt lat="44.31348" lon="5.69274">
        <ele>797.649</ele>
        <time>2019-04-26T14:24:28Z</time>
      </trkpt>
      <trkpt lat="44.31353" lon="5.69269">
        <ele>795.425</ele>
        <time>2019-04-26T14:24:39Z</time>
      </trkpt>
      <trkpt lat="44.31354" lon="5.69264">
        <ele>793.308</ele>
        <time>2019-04-26T14:24:49Z</time>
      </trkpt>
      <trkpt lat="44.3135" lon="5.69264">
        <ele>791.234</ele>
        <time>2019-04-26T14:24:59Z</time>
      </trkpt>
      <trkpt lat="44.31348" lon="5.69262">
        <ele>790.215</ele>
        <time>2019-04-26T14:25:10Z</time>
      </trkpt>
      <trkpt lat="44.31349" lon="5.69276">
        <ele>789.24</ele>
        <time>2019-04-26T14:25:20Z</time>
      </trkpt>
      <trkpt lat="44.31356" lon="5.69283">
        <ele>787.564</ele>
        <time>2019-04-26T14:25:30Z</time>
      </trkpt>
      <trkpt lat="44.31357" lon="5.69281">
        <ele>786.77</ele>
        <time>2019-04-26T14:25:41Z</time>
      </trkpt>
      <trkpt lat="44.31359" lon="5.69278">
        <ele>785.066</ele>
        <time>2019-04-26T14:25:52Z</time>
      </trkpt>
      <trkpt lat="44.31358" lon="5.69278">
        <ele>784.751</ele>
        <time>2019-04-26T14:26:03Z</time>
      </trkpt>
      <trkpt lat="44.31365" lon="5.69276">
        <ele>782.453</ele>
        <time>2019-04-26T14:26:14Z</time>
      </trkpt>
      <trkpt lat="44.31371" lon="5.69266">
        <ele>778.398</ele>
        <time>2019-04-26T14:26:24Z</time>
      </trkpt>
      <trkpt lat="44.31371" lon="5.69267">
        <ele>777.925</ele>
        <time>2019-04-26T14:26:35Z</time>
      </trkpt>
      <trkpt lat="44.31371" lon="5.69267">
        <ele>777.284</ele>
        <time>2019-04-26T14:26:46Z</time>
      </trkpt>
      <trkpt lat="44.3137" lon="5.69268">
        <ele>777.145</ele>
        <time>2019-04-26T14:26:57Z</time>
      </trkpt>
      <trkpt lat="44.3137" lon="5.69268">
        <ele>777.415</ele>
        <time>2019-04-26T14:27:07Z</time>
      </trkpt>
      <trkpt lat="44.31369" lon="5.69269">
        <ele>777.807</ele>
        <time>2019-04-26T14:27:17Z</time>
      </trkpt>
      <trkpt lat="44.31369" lon="5.69268">
        <ele>778.186</ele>
        <time>2019-04-26T14:27:28Z</time>
      </trkpt>
      <trkpt lat="44.31368" lon="5.69269">
        <ele>778.517</ele>
        <time>2019-04-26T14:27:39Z</time>
      </trkpt>
      <trkpt lat="44.31368" lon="5.69269">
        <ele>778.817</ele>
        <time>2019-04-26T14:27:50Z</time>
      </trkpt>
      <trkpt lat="44.31367" lon="5.69269">
        <ele>779.081</ele>
        <time>2019-04-26T14:28:01Z</time>
      </trkpt>
      <trkpt lat="44.31367" lon="5.69269">
        <ele>779.284</ele>
        <time>2019-04-26T14:28:12Z</time>
      </trkpt>
      <trkpt lat="44.31367" lon="5.69269">
        <ele>779.478</ele>
        <time>2019-04-26T14:28:22Z</time>
      </trkpt>
      <trkpt lat="44.31367" lon="5.69269">
        <ele>779.657</ele>
        <time>2019-04-26T14:28:32Z</time>
      </trkpt>
      <trkpt lat="44.31367" lon="5.69269">
        <ele>779.794</ele>
        <time>2019-04-26T14:28:43Z</time>
      </trkpt>
      <trkpt lat="44.31367" lon="5.69269">
        <ele>779.85</ele>
        <time>2019-04-26T14:28:54Z</time>
      </trkpt>
      <trkpt lat="44.31368" lon="5.6927">
        <ele>779.855</ele>
        <time>2019-04-26T14:29:05Z</time>
      </trkpt>
      <trkpt lat="44.31368" lon="5.6927">
        <ele>779.853</ele>
        <time>2019-04-26T14:29:15Z</time>
      </trkpt>
      <trkpt lat="44.31368" lon="5.69271">
        <ele>779.966</ele>
        <time>2019-04-26T14:29:26Z</time>
      </trkpt>
      <trkpt lat="44.31368" lon="5.69272">
        <ele>780.151</ele>
        <time>2019-04-26T14:29:36Z</time>
      </trkpt>
      <trkpt lat="44.31368" lon="5.69271">
        <ele>780.318</ele>
        <time>2019-04-26T14:29:46Z</time>
      </trkpt>
      <trkpt lat="44.3137" lon="5.69272">
        <ele>780.605</ele>
        <time>2019-04-26T14:29:57Z</time>
      </trkpt>
      <trkpt lat="44.31363" lon="5.69274">
        <ele>780.039</ele>
        <time>2019-04-26T14:30:07Z</time>
      </trkpt>
      <trkpt lat="44.31351" lon="5.69297">
        <ele>776.234</ele>
        <time>2019-04-26T14:30:18Z</time>
      </trkpt>
      <trkpt lat="44.31359" lon="5.69333">
        <ele>768.597</ele>
        <time>2019-04-26T14:30:29Z</time>
      </trkpt>
      <trkpt lat="44.31359" lon="5.69382">
        <ele>761.959</ele>
        <time>2019-04-26T14:30:39Z</time>
      </trkpt>
      <trkpt lat="44.31357" lon="5.69422">
        <ele>755.736</ele>
        <time>2019-04-26T14:30:50Z</time>
      </trkpt>
      <trkpt lat="44.31308" lon="5.69456">
        <ele>733.686</ele>
        <time>2019-04-26T14:31:01Z</time>
      </trkpt>
      <trkpt lat="44.31293" lon="5.69436">
        <ele>731.916</ele>
        <time>2019-04-26T14:31:12Z</time>
      </trkpt>
      <trkpt lat="44.31292" lon="5.6942">
        <ele>729.789</ele>
        <time>2019-04-26T14:31:23Z</time>
      </trkpt>
      <trkpt lat="44.31291" lon="5.69413">
        <ele>728.242</ele>
        <time>2019-04-26T14:31:34Z</time>
      </trkpt>
      <trkpt lat="44.31292" lon="5.69411">
        <ele>725.056</ele>
        <time>2019-04-26T14:31:44Z</time>
      </trkpt>
      <trkpt lat="44.31292" lon="5.69424">
        <ele>719.552</ele>
        <time>2019-04-26T14:31:54Z</time>
      </trkpt>
      <trkpt lat="44.31292" lon="5.69423">
        <ele>715.027</ele>
        <time>2019-04-26T14:32:05Z</time>
      </trkpt>
      <trkpt lat="44.31292" lon="5.69429">
        <ele>711.252</ele>
        <time>2019-04-26T14:32:16Z</time>
      </trkpt>
      <trkpt lat="44.31291" lon="5.69418">
        <ele>707.913</ele>
        <time>2019-04-26T14:32:27Z</time>
      </trkpt>
      <trkpt lat="44.31291" lon="5.69414">
        <ele>704.254</ele>
        <time>2019-04-26T14:32:38Z</time>
      </trkpt>
      <trkpt lat="44.31293" lon="5.69407">
        <ele>700.418</ele>
        <time>2019-04-26T14:32:48Z</time>
      </trkpt>
      <trkpt lat="44.31298" lon="5.69412">
        <ele>696.249</ele>
        <time>2019-04-26T14:32:59Z</time>
      </trkpt>
      <trkpt lat="44.31306" lon="5.69417">
        <ele>691.164</ele>
        <time>2019-04-26T14:33:09Z</time>
      </trkpt>
      <trkpt lat="44.31303" lon="5.69416">
        <ele>686.238</ele>
        <time>2019-04-26T14:33:20Z</time>
      </trkpt>
      <trkpt lat="44.31308" lon="5.69412">
        <ele>683.309</ele>
        <time>2019-04-26T14:33:30Z</time>
      </trkpt>
      <trkpt lat="44.3131" lon="5.69405">
        <ele>682.122</ele>
        <time>2019-04-26T14:33:40Z</time>
      </trkpt>
      <trkpt lat="44.31307" lon="5.69411">
        <ele>682.237</ele>
        <time>2019-04-26T14:33:51Z</time>
      </trkpt>
      <trkpt lat="44.31312" lon="5.69412">
        <ele>683.252</ele>
        <time>2019-04-26T14:34:01Z</time>
      </trkpt>
      <trkpt lat="44.31318" lon="5.69413">
        <ele>684.644</ele>
        <time>2019-04-26T14:34:12Z</time>
      </trkpt>
      <trkpt lat="44.31318" lon="5.69417">
        <ele>685.818</ele>
        <time>2019-04-26T14:34:23Z</time>
      </trkpt>
      <trkpt lat="44.31314" lon="5.69421">
        <ele>689.338</ele>
        <time>2019-04-26T14:34:34Z</time>
      </trkpt>
      <trkpt lat="44.31312" lon="5.69431">
        <ele>692.52</ele>
        <time>2019-04-26T14:34:45Z</time>
      </trkpt>
      <trkpt lat="44.31314" lon="5.69439">
        <ele>695.916</ele>
        <time>2019-04-26T14:34:56Z</time>
      </trkpt>
      <trkpt lat="44.31307" lon="5.69431">
        <ele>698.977</ele>
        <time>2019-04-26T14:35:06Z</time>
      </trkpt>
      <trkpt lat="44.31299" lon="5.69416">
        <ele>700.817</ele>
        <time>2019-04-26T14:35:16Z</time>
      </trkpt>
      <trkpt lat="44.31301" lon="5.69421">
        <ele>700.612</ele>
        <time>2019-04-26T14:35:27Z</time>
      </trkpt>
      <trkpt lat="44.31304" lon="5.69417">
        <ele>700.413</ele>
        <time>2019-04-26T14:35:37Z</time>
      </trkpt>
      <trkpt lat="44.31306" lon="5.6943">
        <ele>701.008</ele>
        <time>2019-04-26T14:35:48Z</time>
      </trkpt>
      <trkpt lat="44.31308" lon="5.69438">
        <ele>703.782</ele>
        <time>2019-04-26T14:35:58Z</time>
      </trkpt>
      <trkpt lat="44.31307" lon="5.69435">
        <ele>705.985</ele>
        <time>2019-04-26T14:36:09Z</time>
      </trkpt>
      <trkpt lat="44.31305" lon="5.69429">
        <ele>708.673</ele>
        <time>2019-04-26T14:36:19Z</time>
      </trkpt>
      <trkpt lat="44.31305" lon="5.6943">
        <ele>712.906</ele>
        <time>2019-04-26T14:36:30Z</time>
      </trkpt>
      <trkpt lat="44.31301" lon="5.69431">
        <ele>715.647</ele>
        <time>2019-04-26T14:36:41Z</time>
      </trkpt>
      <trkpt lat="44.313" lon="5.69416">
        <ele>717.543</ele>
        <time>2019-04-26T14:36:52Z</time>
      </trkpt>
      <trkpt lat="44.31302" lon="5.69421">
        <ele>718.872</ele>
        <time>2019-04-26T14:37:02Z</time>
      </trkpt>
      <trkpt lat="44.31299" lon="5.69422">
        <ele>720.181</ele>
        <time>2019-04-26T14:37:12Z</time>
      </trkpt>
      <trkpt lat="44.31296" lon="5.69429">
        <ele>720.231</ele>
        <time>2019-04-26T14:37:22Z</time>
      </trkpt>
      <trkpt lat="44.31292" lon="5.69434">
        <ele>720.659</ele>
        <time>2019-04-26T14:37:33Z</time>
      </trkpt>
      <trkpt lat="44.31298" lon="5.69429">
        <ele>723.18</ele>
        <time>2019-04-26T14:37:44Z</time>
      </trkpt>
      <trkpt lat="44.31305" lon="5.69427">
        <ele>725.824</ele>
        <time>2019-04-26T14:37:55Z</time>
      </trkpt>
      <trkpt lat="44.31307" lon="5.6943">
        <ele>726.122</ele>
        <time>2019-04-26T14:38:06Z</time>
      </trkpt>
      <trkpt lat="44.3131" lon="5.69425">
        <ele>725.761</ele>
        <time>2019-04-26T14:38:17Z</time>
      </trkpt>
      <trkpt lat="44.3131" lon="5.69422">
        <ele>724.661</ele>
        <time>2019-04-26T14:38:27Z</time>
      </trkpt>
      <trkpt lat="44.31305" lon="5.69424">
        <ele>722.532</ele>
        <time>2019-04-26T14:38:37Z</time>
      </trkpt>
      <trkpt lat="44.31302" lon="5.69425">
        <ele>718.551</ele>
        <time>2019-04-26T14:38:48Z</time>
      </trkpt>
      <trkpt lat="44.313" lon="5.69424">
        <ele>717.472</ele>
        <time>2019-04-26T14:38:59Z</time>
      </trkpt>
      <trkpt lat="44.31301" lon="5.69423">
        <ele>714.56</ele>
        <time>2019-04-26T14:39:09Z</time>
      </trkpt>
      <trkpt lat="44.31293" lon="5.69418">
        <ele>710.734</ele>
        <time>2019-04-26T14:39:20Z</time>
      </trkpt>
      <trkpt lat="44.31284" lon="5.69405">
        <ele>708.35</ele>
        <time>2019-04-26T14:39:31Z</time>
      </trkpt>
      <trkpt lat="44.31285" lon="5.69402">
        <ele>706.883</ele>
        <time>2019-04-26T14:39:42Z</time>
      </trkpt>
      <trkpt lat="44.31285" lon="5.69402">
        <ele>706.629</ele>
        <time>2019-04-26T14:39:52Z</time>
      </trkpt>
      <trkpt lat="44.31284" lon="5.69403">
        <ele>706.45</ele>
        <time>2019-04-26T14:40:03Z</time>
      </trkpt>
      <trkpt lat="44.31283" lon="5.69403">
        <ele>706.092</ele>
        <time>2019-04-26T14:40:13Z</time>
      </trkpt>
      <trkpt lat="44.31283" lon="5.69403">
        <ele>705.951</ele>
        <time>2019-04-26T14:40:23Z</time>
      </trkpt>
      <trkpt lat="44.31284" lon="5.69404">
        <ele>705.679</ele>
        <time>2019-04-26T14:40:34Z</time>
      </trkpt>
      <trkpt lat="44.31284" lon="5.69404">
        <ele>705.798</ele>
        <time>2019-04-26T14:40:44Z</time>
      </trkpt>
      <trkpt lat="44.31286" lon="5.69405">
        <ele>706.297</ele>
        <time>2019-04-26T14:40:54Z</time>
      </trkpt>
      <trkpt lat="44.31287" lon="5.69406">
        <ele>706.516</ele>
        <time>2019-04-26T14:41:05Z</time>
      </trkpt>
      <trkpt lat="44.31281" lon="5.69405">
        <ele>707.115</ele>
        <time>2019-04-26T14:41:16Z</time>
      </trkpt>
      <trkpt lat="44.31281" lon="5.69404">
        <ele>707.098</ele>
        <time>2019-04-26T14:41:27Z</time>
      </trkpt>
      <trkpt lat="44.31281" lon="5.69402">
        <ele>707.072</ele>
        <time>2019-04-26T14:41:38Z</time>
      </trkpt>
      <trkpt lat="44.31282" lon="5.69398">
        <ele>707.042</ele>
        <time>2019-04-26T14:41:49Z</time>
      </trkpt>
      <trkpt lat="44.31284" lon="5.69394">
        <ele>707.153</ele>
        <time>2019-04-26T14:42:00Z</time>
      </trkpt>
      <trkpt lat="44.31287" lon="5.69398">
        <ele>706.7</ele>
        <time>2019-04-26T14:42:10Z</time>
      </trkpt>
      <trkpt lat="44.31287" lon="5.69398">
        <ele>706.571</ele>
        <time>2019-04-26T14:42:20Z</time>
      </trkpt>
      <trkpt lat="44.31287" lon="5.69398">
        <ele>706.484</ele>
        <time>2019-04-26T14:42:30Z</time>
      </trkpt>
      <trkpt lat="44.31286" lon="5.69398">
        <ele>706.472</ele>
        <time>2019-04-26T14:42:41Z</time>
      </trkpt>
      <trkpt lat="44.31281" lon="5.69395">
        <ele>706.213</ele>
        <time>2019-04-26T14:42:52Z</time>
      </trkpt>
      <trkpt lat="44.31279" lon="5.69394">
        <ele>706.096</ele>
        <time>2019-04-26T14:43:02Z</time>
      </trkpt>
      <trkpt lat="44.31281" lon="5.69395">
        <ele>706.978</ele>
        <time>2019-04-26T14:43:12Z</time>
      </trkpt>
      <trkpt lat="44.31283" lon="5.69405">
        <ele>708.352</ele>
        <time>2019-04-26T14:43:23Z</time>
      </trkpt>
      <trkpt lat="44.3129" lon="5.69434">
        <ele>711.709</ele>
        <time>2019-04-26T14:43:34Z</time>
      </trkpt>
      <trkpt lat="44.31293" lon="5.69461">
        <ele>715.036</ele>
        <time>2019-04-26T14:43:44Z</time>
      </trkpt>
      <trkpt lat="44.31293" lon="5.6946">
        <ele>721.129</ele>
        <time>2019-04-26T14:43:55Z</time>
      </trkpt>
      <trkpt lat="44.31291" lon="5.69453">
        <ele>722.909</ele>
        <time>2019-04-26T14:44:05Z</time>
      </trkpt>
      <trkpt lat="44.31304" lon="5.69453">
        <ele>723.467</ele>
        <time>2019-04-26T14:44:16Z</time>
      </trkpt>
      <trkpt lat="44.31324" lon="5.69444">
        <ele>723.709</ele>
        <time>2019-04-26T14:44:27Z</time>
      </trkpt>
      <trkpt lat="44.31343" lon="5.69437">
        <ele>723.465</ele>
        <time>2019-04-26T14:44:38Z</time>
      </trkpt>
      <trkpt lat="44.31356" lon="5.6941">
        <ele>723.594</ele>
        <time>2019-04-26T14:44:49Z</time>
      </trkpt>
      <trkpt lat="44.31356" lon="5.69356">
        <ele>725.452</ele>
        <time>2019-04-26T14:45:00Z</time>
      </trkpt>
      <trkpt lat="44.3135" lon="5.69312">
        <ele>728.002</ele>
        <time>2019-04-26T14:45:10Z</time>
      </trkpt>
      <trkpt lat="44.31337" lon="5.6926">
        <ele>736.025</ele>
        <time>2019-04-26T14:45:21Z</time>
      </trkpt>
      <trkpt lat="44.31294" lon="5.69201">
        <ele>742.249</ele>
        <time>2019-04-26T14:45:32Z</time>
      </trkpt>
      <trkpt lat="44.31279" lon="5.69133">
        <ele>740.573</ele>
        <time>2019-04-26T14:45:43Z</time>
      </trkpt>
      <trkpt lat="44.31281" lon="5.69076">
        <ele>737.69</ele>
        <time>2019-04-26T14:45:53Z</time>
      </trkpt>
      <trkpt lat="44.31283" lon="5.69026">
        <ele>737.165</ele>
        <time>2019-04-26T14:46:04Z</time>
      </trkpt>
      <trkpt lat="44.31292" lon="5.68982">
        <ele>736.028</ele>
        <time>2019-04-26T14:46:15Z</time>
      </trkpt>
      <trkpt lat="44.31309" lon="5.6894">
        <ele>734.697</ele>
        <time>2019-04-26T14:46:25Z</time>
      </trkpt>
      <trkpt lat="44.31332" lon="5.68916">
        <ele>733.674</ele>
        <time>2019-04-26T14:46:35Z</time>
      </trkpt>
      <trkpt lat="44.31361" lon="5.68896">
        <ele>733.146</ele>
        <time>2019-04-26T14:46:45Z</time>
      </trkpt>
      <trkpt lat="44.31385" lon="5.68872">
        <ele>732.869</ele>
        <time>2019-04-26T14:46:55Z</time>
      </trkpt>
      <trkpt lat="44.31418" lon="5.68853">
        <ele>732.834</ele>
        <time>2019-04-26T14:47:06Z</time>
      </trkpt>
      <trkpt lat="44.31445" lon="5.68832">
        <ele>732.794</ele>
        <time>2019-04-26T14:47:16Z</time>
      </trkpt>
      <trkpt lat="44.31466" lon="5.688">
        <ele>732.916</ele>
        <time>2019-04-26T14:47:26Z</time>
      </trkpt>
      <trkpt lat="44.3148" lon="5.68763">
        <ele>733.463</ele>
        <time>2019-04-26T14:47:37Z</time>
      </trkpt>
      <trkpt lat="44.31487" lon="5.68723">
        <ele>733.358</ele>
        <time>2019-04-26T14:47:47Z</time>
      </trkpt>
      <trkpt lat="44.31491" lon="5.68674">
        <ele>732.61</ele>
        <time>2019-04-26T14:47:58Z</time>
      </trkpt>
      <trkpt lat="44.31487" lon="5.68626">
        <ele>731.39</ele>
        <time>2019-04-26T14:48:09Z</time>
      </trkpt>
      <trkpt lat="44.31489" lon="5.68578">
        <ele>730.231</ele>
        <time>2019-04-26T14:48:19Z</time>
      </trkpt>
      <trkpt lat="44.31494" lon="5.68526">
        <ele>729.496</ele>
        <time>2019-04-26T14:48:30Z</time>
      </trkpt>
      <trkpt lat="44.3149" lon="5.68475">
        <ele>728.678</ele>
        <time>2019-04-26T14:48:41Z</time>
      </trkpt>
      <trkpt lat="44.31472" lon="5.68433">
        <ele>728.369</ele>
        <time>2019-04-26T14:48:51Z</time>
      </trkpt>
      <trkpt lat="44.31453" lon="5.68398">
        <ele>728.231</ele>
        <time>2019-04-26T14:49:01Z</time>
      </trkpt>
      <trkpt lat="44.31434" lon="5.68358">
        <ele>728.479</ele>
        <time>2019-04-26T14:49:12Z</time>
      </trkpt>
      <trkpt lat="44.31415" lon="5.68314">
        <ele>728.89</ele>
        <time>2019-04-26T14:49:23Z</time>
      </trkpt>
      <trkpt lat="44.31405" lon="5.68272">
        <ele>729.229</ele>
        <time>2019-04-26T14:49:33Z</time>
      </trkpt>
      <trkpt lat="44.31399" lon="5.68227">
        <ele>729.35</ele>
        <time>2019-04-26T14:49:43Z</time>
      </trkpt>
      <trkpt lat="44.314" lon="5.68187">
        <ele>729.248</ele>
        <time>2019-04-26T14:49:54Z</time>
      </trkpt>
      <trkpt lat="44.31407" lon="5.68142">
        <ele>728.775</ele>
        <time>2019-04-26T14:50:05Z</time>
      </trkpt>
      <trkpt lat="44.31408" lon="5.68099">
        <ele>729.453</ele>
        <time>2019-04-26T14:50:15Z</time>
      </trkpt>
      <trkpt lat="44.31411" lon="5.68037">
        <ele>732.049</ele>
        <time>2019-04-26T14:50:26Z</time>
      </trkpt>
      <trkpt lat="44.3141" lon="5.67968">
        <ele>735.063</ele>
        <time>2019-04-26T14:50:37Z</time>
      </trkpt>
      <trkpt lat="44.31411" lon="5.67903">
        <ele>736.957</ele>
        <time>2019-04-26T14:50:48Z</time>
      </trkpt>
      <trkpt lat="44.3141" lon="5.67844">
        <ele>739.565</ele>
        <time>2019-04-26T14:50:59Z</time>
      </trkpt>
      <trkpt lat="44.31406" lon="5.67791">
        <ele>740.505</ele>
        <time>2019-04-26T14:51:10Z</time>
      </trkpt>
      <trkpt lat="44.31403" lon="5.67744">
        <ele>740.723</ele>
        <time>2019-04-26T14:51:21Z</time>
      </trkpt>
      <trkpt lat="44.31401" lon="5.67701">
        <ele>740.664</ele>
        <time>2019-04-26T14:51:31Z</time>
      </trkpt>
      <trkpt lat="44.31396" lon="5.67639">
        <ele>740.523</ele>
        <time>2019-04-26T14:51:42Z</time>
      </trkpt>
      <trkpt lat="44.31389" lon="5.6758">
        <ele>741.088</ele>
        <time>2019-04-26T14:51:53Z</time>
      </trkpt>
      <trkpt lat="44.31378" lon="5.67533">
        <ele>740.823</ele>
        <time>2019-04-26T14:52:04Z</time>
      </trkpt>
      <trkpt lat="44.31368" lon="5.67494">
        <ele>740.445</ele>
        <time>2019-04-26T14:52:14Z</time>
      </trkpt>
      <trkpt lat="44.31351" lon="5.67465">
        <ele>740.826</ele>
        <time>2019-04-26T14:52:24Z</time>
      </trkpt>
      <trkpt lat="44.31334" lon="5.67429">
        <ele>741.672</ele>
        <time>2019-04-26T14:52:35Z</time>
      </trkpt>
      <trkpt lat="44.31317" lon="5.67392">
        <ele>742.335</ele>
        <time>2019-04-26T14:52:46Z</time>
      </trkpt>
      <trkpt lat="44.31296" lon="5.67353">
        <ele>742.981</ele>
        <time>2019-04-26T14:52:57Z</time>
      </trkpt>
      <trkpt lat="44.31272" lon="5.67317">
        <ele>743.834</ele>
        <time>2019-04-26T14:53:08Z</time>
      </trkpt>
      <trkpt lat="44.31248" lon="5.67282">
        <ele>744.614</ele>
        <time>2019-04-26T14:53:18Z</time>
      </trkpt>
      <trkpt lat="44.31224" lon="5.67252">
        <ele>745.507</ele>
        <time>2019-04-26T14:53:28Z</time>
      </trkpt>
      <trkpt lat="44.31201" lon="5.67224">
        <ele>746.811</ele>
        <time>2019-04-26T14:53:39Z</time>
      </trkpt>
      <trkpt lat="44.31177" lon="5.67203">
        <ele>747.974</ele>
        <time>2019-04-26T14:53:49Z</time>
      </trkpt>
      <trkpt lat="44.31147" lon="5.67181">
        <ele>749.226</ele>
        <time>2019-04-26T14:54:00Z</time>
      </trkpt>
      <trkpt lat="44.31112" lon="5.67162">
        <ele>749.994</ele>
        <time>2019-04-26T14:54:11Z</time>
      </trkpt>
      <trkpt lat="44.31079" lon="5.67139">
        <ele>750.575</ele>
        <time>2019-04-26T14:54:22Z</time>
      </trkpt>
      <trkpt lat="44.3105" lon="5.67115">
        <ele>750.933</ele>
        <time>2019-04-26T14:54:32Z</time>
      </trkpt>
      <trkpt lat="44.31015" lon="5.67079">
        <ele>750.83</ele>
        <time>2019-04-26T14:54:43Z</time>
      </trkpt>
      <trkpt lat="44.30991" lon="5.67044">
        <ele>750.408</ele>
        <time>2019-04-26T14:54:54Z</time>
      </trkpt>
      <trkpt lat="44.30967" lon="5.67005">
        <ele>750.196</ele>
        <time>2019-04-26T14:55:05Z</time>
      </trkpt>
      <trkpt lat="44.30949" lon="5.66972">
        <ele>750.342</ele>
        <time>2019-04-26T14:55:15Z</time>
      </trkpt>
      <trkpt lat="44.30931" lon="5.66938">
        <ele>750.667</ele>
        <time>2019-04-26T14:55:25Z</time>
      </trkpt>
      <trkpt lat="44.30912" lon="5.66906">
        <ele>750.925</ele>
        <time>2019-04-26T14:55:35Z</time>
      </trkpt>
      <trkpt lat="44.3089" lon="5.66873">
        <ele>751.689</ele>
        <time>2019-04-26T14:55:46Z</time>
      </trkpt>
      <trkpt lat="44.30866" lon="5.66841">
        <ele>752.411</ele>
        <time>2019-04-26T14:55:57Z</time>
      </trkpt>
      <trkpt lat="44.30835" lon="5.66811">
        <ele>753.141</ele>
        <time>2019-04-26T14:56:08Z</time>
      </trkpt>
      <trkpt lat="44.30808" lon="5.6678">
        <ele>753.844</ele>
        <time>2019-04-26T14:56:19Z</time>
      </trkpt>
      <trkpt lat="44.30773" lon="5.66748">
        <ele>755.39</ele>
        <time>2019-04-26T14:56:30Z</time>
      </trkpt>
      <trkpt lat="44.30731" lon="5.66726">
        <ele>754.846</ele>
        <time>2019-04-26T14:56:41Z</time>
      </trkpt>
      <trkpt lat="44.3069" lon="5.66704">
        <ele>752.89</ele>
        <time>2019-04-26T14:56:51Z</time>
      </trkpt>
      <trkpt lat="44.30653" lon="5.66664">
        <ele>750.644</ele>
        <time>2019-04-26T14:57:02Z</time>
      </trkpt>
      <trkpt lat="44.3062" lon="5.6662">
        <ele>750.675</ele>
        <time>2019-04-26T14:57:13Z</time>
      </trkpt>
      <trkpt lat="44.30591" lon="5.66587">
        <ele>750.897</ele>
        <time>2019-04-26T14:57:23Z</time>
      </trkpt>
      <trkpt lat="44.3056" lon="5.6656">
        <ele>751.901</ele>
        <time>2019-04-26T14:57:34Z</time>
      </trkpt>
      <trkpt lat="44.30519" lon="5.66545">
        <ele>759.487</ele>
        <time>2019-04-26T14:57:45Z</time>
      </trkpt>
      <trkpt lat="44.30473" lon="5.6655">
        <ele>761.262</ele>
        <time>2019-04-26T14:57:56Z</time>
      </trkpt>
      <trkpt lat="44.30435" lon="5.66551">
        <ele>760.48</ele>
        <time>2019-04-26T14:58:06Z</time>
      </trkpt>
      <trkpt lat="44.30406" lon="5.66535">
        <ele>759.734</ele>
        <time>2019-04-26T14:58:16Z</time>
      </trkpt>
      <trkpt lat="44.30376" lon="5.66511">
        <ele>759.317</ele>
        <time>2019-04-26T14:58:27Z</time>
      </trkpt>
      <trkpt lat="44.30349" lon="5.6649">
        <ele>759.744</ele>
        <time>2019-04-26T14:58:37Z</time>
      </trkpt>
      <trkpt lat="44.30325" lon="5.66463">
        <ele>760.499</ele>
        <time>2019-04-26T14:58:48Z</time>
      </trkpt>
      <trkpt lat="44.30306" lon="5.66429">
        <ele>761.147</ele>
        <time>2019-04-26T14:58:59Z</time>
      </trkpt>
      <trkpt lat="44.30297" lon="5.66396">
        <ele>761.681</ele>
        <time>2019-04-26T14:59:09Z</time>
      </trkpt>
      <trkpt lat="44.30291" lon="5.66358">
        <ele>762.284</ele>
        <time>2019-04-26T14:59:20Z</time>
      </trkpt>
      <trkpt lat="44.30284" lon="5.66319">
        <ele>762.797</ele>
        <time>2019-04-26T14:59:31Z</time>
      </trkpt>
      <trkpt lat="44.30277" lon="5.66281">
        <ele>763.412</ele>
        <time>2019-04-26T14:59:42Z</time>
      </trkpt>
      <trkpt lat="44.30264" lon="5.66247">
        <ele>764.468</ele>
        <time>2019-04-26T14:59:53Z</time>
      </trkpt>
      <trkpt lat="44.30246" lon="5.66216">
        <ele>765.6</ele>
        <time>2019-04-26T15:00:03Z</time>
      </trkpt>
      <trkpt lat="44.30227" lon="5.66185">
        <ele>766.86</ele>
        <time>2019-04-26T15:00:14Z</time>
      </trkpt>
      <trkpt lat="44.30209" lon="5.6615">
        <ele>768.262</ele>
        <time>2019-04-26T15:00:25Z</time>
      </trkpt>
      <trkpt lat="44.30191" lon="5.66114">
        <ele>769.713</ele>
        <time>2019-04-26T15:00:36Z</time>
      </trkpt>
      <trkpt lat="44.30176" lon="5.66075">
        <ele>771.128</ele>
        <time>2019-04-26T15:00:46Z</time>
      </trkpt>
      <trkpt lat="44.30167" lon="5.66028">
        <ele>772.595</ele>
        <time>2019-04-26T15:00:57Z</time>
      </trkpt>
      <trkpt lat="44.30157" lon="5.6598">
        <ele>773.557</ele>
        <time>2019-04-26T15:01:07Z</time>
      </trkpt>
      <trkpt lat="44.3014" lon="5.6594">
        <ele>774.664</ele>
        <time>2019-04-26T15:01:17Z</time>
      </trkpt>
      <trkpt lat="44.3012" lon="5.659">
        <ele>775.795</ele>
        <time>2019-04-26T15:01:28Z</time>
      </trkpt>
      <trkpt lat="44.30102" lon="5.65856">
        <ele>777.01</ele>
        <time>2019-04-26T15:01:39Z</time>
      </trkpt>
      <trkpt lat="44.30086" lon="5.65816">
        <ele>777.637</ele>
        <time>2019-04-26T15:01:50Z</time>
      </trkpt>
      <trkpt lat="44.3007" lon="5.65773">
        <ele>778.358</ele>
        <time>2019-04-26T15:02:01Z</time>
      </trkpt>
      <trkpt lat="44.30058" lon="5.65734">
        <ele>779.072</ele>
        <time>2019-04-26T15:02:11Z</time>
      </trkpt>
      <trkpt lat="44.30047" lon="5.65694">
        <ele>779.794</ele>
        <time>2019-04-26T15:02:22Z</time>
      </trkpt>
      <trkpt lat="44.30034" lon="5.65655">
        <ele>780.287</ele>
        <time>2019-04-26T15:02:33Z</time>
      </trkpt>
      <trkpt lat="44.30019" lon="5.65616">
        <ele>780.922</ele>
        <time>2019-04-26T15:02:43Z</time>
      </trkpt>
      <trkpt lat="44.30002" lon="5.65575">
        <ele>781.815</ele>
        <time>2019-04-26T15:02:54Z</time>
      </trkpt>
      <trkpt lat="44.29988" lon="5.65536">
        <ele>782.611</ele>
        <time>2019-04-26T15:03:04Z</time>
      </trkpt>
      <trkpt lat="44.29969" lon="5.65494">
        <ele>783.534</ele>
        <time>2019-04-26T15:03:15Z</time>
      </trkpt>
      <trkpt lat="44.29951" lon="5.65452">
        <ele>784.698</ele>
        <time>2019-04-26T15:03:26Z</time>
      </trkpt>
      <trkpt lat="44.29935" lon="5.65411">
        <ele>785.851</ele>
        <time>2019-04-26T15:03:36Z</time>
      </trkpt>
      <trkpt lat="44.29917" lon="5.65371">
        <ele>786.667</ele>
        <time>2019-04-26T15:03:47Z</time>
      </trkpt>
      <trkpt lat="44.29894" lon="5.65349">
        <ele>786.621</ele>
        <time>2019-04-26T15:03:58Z</time>
      </trkpt>
      <trkpt lat="44.29881" lon="5.65341">
        <ele>786.245</ele>
        <time>2019-04-26T15:04:09Z</time>
      </trkpt>
      <trkpt lat="44.2988" lon="5.65338">
        <ele>786.187</ele>
        <time>2019-04-26T15:04:19Z</time>
      </trkpt>
      <trkpt lat="44.2988" lon="5.65338">
        <ele>786.222</ele>
        <time>2019-04-26T15:04:29Z</time>
      </trkpt>
      <trkpt lat="44.29879" lon="5.65338">
        <ele>786.267</ele>
        <time>2019-04-26T15:04:40Z</time>
      </trkpt>
      <trkpt lat="44.29879" lon="5.65338">
        <ele>786.375</ele>
        <time>2019-04-26T15:04:50Z</time>
      </trkpt>
      <trkpt lat="44.29883" lon="5.6533">
        <ele>786.99</ele>
        <time>2019-04-26T15:05:01Z</time>
      </trkpt>
      <trkpt lat="44.29881" lon="5.65328">
        <ele>787.565</ele>
        <time>2019-04-26T15:05:11Z</time>
      </trkpt>
      <trkpt lat="44.29881" lon="5.65327">
        <ele>787.899</ele>
        <time>2019-04-26T15:05:22Z</time>
      </trkpt>
      <trkpt lat="44.29881" lon="5.65327">
        <ele>788.544</ele>
        <time>2019-04-26T15:05:32Z</time>
      </trkpt>
      <trkpt lat="44.29881" lon="5.65326">
        <ele>788.834</ele>
        <time>2019-04-26T15:05:43Z</time>
      </trkpt>
      <trkpt lat="44.29881" lon="5.65326">
        <ele>789.199</ele>
        <time>2019-04-26T15:05:54Z</time>
      </trkpt>
      <trkpt lat="44.2988" lon="5.65326">
        <ele>789.392</ele>
        <time>2019-04-26T15:06:05Z</time>
      </trkpt>
      <trkpt lat="44.2988" lon="5.65327">
        <ele>789.59</ele>
        <time>2019-04-26T15:06:16Z</time>
      </trkpt>
      <trkpt lat="44.2988" lon="5.65327">
        <ele>789.896</ele>
        <time>2019-04-26T15:06:27Z</time>
      </trkpt>
      <trkpt lat="44.2988" lon="5.65326">
        <ele>790.179</ele>
        <time>2019-04-26T15:06:38Z</time>
      </trkpt>
      <trkpt lat="44.2988" lon="5.65326">
        <ele>790.535</ele>
        <time>2019-04-26T15:06:49Z</time>
      </trkpt>
      <trkpt lat="44.2988" lon="5.65325">
        <ele>790.813</ele>
        <time>2019-04-26T15:06:59Z</time>
      </trkpt>
      <trkpt lat="44.2988" lon="5.65325">
        <ele>790.99</ele>
        <time>2019-04-26T15:07:10Z</time>
      </trkpt>
      <trkpt lat="44.2988" lon="5.65325">
        <ele>791.268</ele>
        <time>2019-04-26T15:07:21Z</time>
      </trkpt>
      <trkpt lat="44.29881" lon="5.65325">
        <ele>791.578</ele>
        <time>2019-04-26T15:07:31Z</time>
      </trkpt>
      <trkpt lat="44.29882" lon="5.65324">
        <ele>791.929</ele>
        <time>2019-04-26T15:07:42Z</time>
      </trkpt>
      <trkpt lat="44.29883" lon="5.65323">
        <ele>792.172</ele>
        <time>2019-04-26T15:07:52Z</time>
      </trkpt>
      <trkpt lat="44.29884" lon="5.65322">
        <ele>792.415</ele>
        <time>2019-04-26T15:08:03Z</time>
      </trkpt>
      <trkpt lat="44.29884" lon="5.65322">
        <ele>792.675</ele>
        <time>2019-04-26T15:08:14Z</time>
      </trkpt>
      <trkpt lat="44.29884" lon="5.65322">
        <ele>792.895</ele>
        <time>2019-04-26T15:08:25Z</time>
      </trkpt>
      <trkpt lat="44.29883" lon="5.65324">
        <ele>792.94</ele>
        <time>2019-04-26T15:08:36Z</time>
      </trkpt>
      <trkpt lat="44.29884" lon="5.65324">
        <ele>793.022</ele>
        <time>2019-04-26T15:08:47Z</time>
      </trkpt>
      <trkpt lat="44.29884" lon="5.65325">
        <ele>793.332</ele>
        <time>2019-04-26T15:08:58Z</time>
      </trkpt>
      <trkpt lat="44.29883" lon="5.65326">
        <ele>793.833</ele>
        <time>2019-04-26T15:09:08Z</time>
      </trkpt>
      <trkpt lat="44.29883" lon="5.65325">
        <ele>793.764</ele>
        <time>2019-04-26T15:09:18Z</time>
      </trkpt>
      <trkpt lat="44.29882" lon="5.65325">
        <ele>793.72</ele>
        <time>2019-04-26T15:09:29Z</time>
      </trkpt>
      <trkpt lat="44.29882" lon="5.65325">
        <ele>793.708</ele>
        <time>2019-04-26T15:09:40Z</time>
      </trkpt>
      <trkpt lat="44.29883" lon="5.65325">
        <ele>793.509</ele>
        <time>2019-04-26T15:09:50Z</time>
      </trkpt>
      <trkpt lat="44.29884" lon="5.65324">
        <ele>793.084</ele>
        <time>2019-04-26T15:10:01Z</time>
      </trkpt>
      <trkpt lat="44.29884" lon="5.65325">
        <ele>792.764</ele>
        <time>2019-04-26T15:10:12Z</time>
      </trkpt>
      <trkpt lat="44.29883" lon="5.65326">
        <ele>792.425</ele>
        <time>2019-04-26T15:10:22Z</time>
      </trkpt>
      <trkpt lat="44.29883" lon="5.65326">
        <ele>791.9</ele>
        <time>2019-04-26T15:10:33Z</time>
      </trkpt>
      <trkpt lat="44.29883" lon="5.65326">
        <ele>791.643</ele>
        <time>2019-04-26T15:10:43Z</time>
      </trkpt>
      <trkpt lat="44.29884" lon="5.65324">
        <ele>791.279</ele>
        <time>2019-04-26T15:10:54Z</time>
      </trkpt>
      <trkpt lat="44.29884" lon="5.65323">
        <ele>790.928</ele>
        <time>2019-04-26T15:11:04Z</time>
      </trkpt>
      <trkpt lat="44.29884" lon="5.65324">
        <ele>790.628</ele>
        <time>2019-04-26T15:11:15Z</time>
      </trkpt>
      <trkpt lat="44.29882" lon="5.65326">
        <ele>790.206</ele>
        <time>2019-04-26T15:11:25Z</time>
      </trkpt>
      <trkpt lat="44.29882" lon="5.65327">
        <ele>789.989</ele>
        <time>2019-04-26T15:11:35Z</time>
      </trkpt>
      <trkpt lat="44.29881" lon="5.65328">
        <ele>789.782</ele>
        <time>2019-04-26T15:11:46Z</time>
      </trkpt>
      <trkpt lat="44.2988" lon="5.65329">
        <ele>789.682</ele>
        <time>2019-04-26T15:11:57Z</time>
      </trkpt>
      <trkpt lat="44.29879" lon="5.65331">
        <ele>789.7</ele>
        <time>2019-04-26T15:12:08Z</time>
      </trkpt>
      <trkpt lat="44.29879" lon="5.65332">
        <ele>789.851</ele>
        <time>2019-04-26T15:12:18Z</time>
      </trkpt>
      <trkpt lat="44.29878" lon="5.65332">
        <ele>789.966</ele>
        <time>2019-04-26T15:12:28Z</time>
      </trkpt>
      <trkpt lat="44.29878" lon="5.65333">
        <ele>790.189</ele>
        <time>2019-04-26T15:12:39Z</time>
      </trkpt>
      <trkpt lat="44.29882" lon="5.65334">
        <ele>791.491</ele>
        <time>2019-04-26T15:12:50Z</time>
      </trkpt>
      <trkpt lat="44.29882" lon="5.65338">
        <ele>792.136</ele>
        <time>2019-04-26T15:13:00Z</time>
      </trkpt>
      <trkpt lat="44.29881" lon="5.65337">
        <ele>792.359</ele>
        <time>2019-04-26T15:13:11Z</time>
      </trkpt>
      <trkpt lat="44.29874" lon="5.65326">
        <ele>792.903</ele>
        <time>2019-04-26T15:13:22Z</time>
      </trkpt>
      <trkpt lat="44.29867" lon="5.65314">
        <ele>793.139</ele>
        <time>2019-04-26T15:13:33Z</time>
      </trkpt>
      <trkpt lat="44.29858" lon="5.65308">
        <ele>793</ele>
        <time>2019-04-26T15:13:43Z</time>
      </trkpt>
      <trkpt lat="44.29843" lon="5.65304">
        <ele>792.228</ele>
        <time>2019-04-26T15:13:54Z</time>
      </trkpt>
      <trkpt lat="44.29832" lon="5.65308">
        <ele>791.344</ele>
        <time>2019-04-26T15:14:04Z</time>
      </trkpt>
      <trkpt lat="44.29826" lon="5.65313">
        <ele>790.306</ele>
        <time>2019-04-26T15:14:15Z</time>
      </trkpt>
      <trkpt lat="44.29825" lon="5.65321">
        <ele>789.677</ele>
        <time>2019-04-26T15:14:26Z</time>
      </trkpt>
      <trkpt lat="44.29825" lon="5.65321">
        <ele>789.656</ele>
        <time>2019-04-26T15:14:37Z</time>
      </trkpt>
      <trkpt lat="44.29824" lon="5.6532">
        <ele>789.625</ele>
        <time>2019-04-26T15:14:47Z</time>
      </trkpt>
      <trkpt lat="44.29824" lon="5.6532">
        <ele>789.657</ele>
        <time>2019-04-26T15:14:58Z</time>
      </trkpt>
      <trkpt lat="44.29824" lon="5.6532">
        <ele>789.672</ele>
        <time>2019-04-26T15:15:09Z</time>
      </trkpt>
      <trkpt lat="44.29824" lon="5.6532">
        <ele>789.683</ele>
        <time>2019-04-26T15:15:20Z</time>
      </trkpt>
      <trkpt lat="44.29824" lon="5.65321">
        <ele>789.68</ele>
        <time>2019-04-26T15:15:31Z</time>
      </trkpt>
      <trkpt lat="44.29825" lon="5.65321">
        <ele>789.634</ele>
        <time>2019-04-26T15:15:41Z</time>
      </trkpt>
      <trkpt lat="44.29825" lon="5.65321">
        <ele>789.602</ele>
        <time>2019-04-26T15:15:52Z</time>
      </trkpt>
      <trkpt lat="44.29825" lon="5.65321">
        <ele>789.61</ele>
        <time>2019-04-26T15:16:02Z</time>
      </trkpt>
      <trkpt lat="44.29825" lon="5.65321">
        <ele>789.635</ele>
        <time>2019-04-26T15:16:13Z</time>
      </trkpt>
      <trkpt lat="44.29825" lon="5.65321">
        <ele>789.668</ele>
        <time>2019-04-26T15:16:24Z</time>
      </trkpt>
      <trkpt lat="44.29825" lon="5.65321">
        <ele>789.678</ele>
        <time>2019-04-26T15:16:34Z</time>
      </trkpt>
      <trkpt lat="44.29825" lon="5.65321">
        <ele>789.673</ele>
        <time>2019-04-26T15:16:45Z</time>
      </trkpt>
      <trkpt lat="44.29826" lon="5.6532">
        <ele>789.684</ele>
        <time>2019-04-26T15:16:55Z</time>
      </trkpt>
      <trkpt lat="44.29826" lon="5.6532">
        <ele>789.722</ele>
        <time>2019-04-26T15:17:05Z</time>
      </trkpt>
      <trkpt lat="44.29826" lon="5.6532">
        <ele>789.702</ele>
        <time>2019-04-26T15:17:16Z</time>
      </trkpt>
      <trkpt lat="44.29825" lon="5.65319">
        <ele>789.619</ele>
        <time>2019-04-26T15:17:26Z</time>
      </trkpt>
      <trkpt lat="44.29825" lon="5.65319">
        <ele>789.489</ele>
        <time>2019-04-26T15:17:37Z</time>
      </trkpt>
      <trkpt lat="44.29824" lon="5.65318">
        <ele>789.398</ele>
        <time>2019-04-26T15:17:47Z</time>
      </trkpt>
      <trkpt lat="44.29824" lon="5.65318">
        <ele>789.341</ele>
        <time>2019-04-26T15:17:57Z</time>
      </trkpt>
      <trkpt lat="44.29824" lon="5.65318">
        <ele>789.287</ele>
        <time>2019-04-26T15:18:08Z</time>
      </trkpt>
      <trkpt lat="44.29824" lon="5.65318">
        <ele>789.256</ele>
        <time>2019-04-26T15:18:19Z</time>
      </trkpt>
      <trkpt lat="44.29824" lon="5.65318">
        <ele>789.197</ele>
        <time>2019-04-26T15:18:30Z</time>
      </trkpt>
      <trkpt lat="44.29824" lon="5.65318">
        <ele>789.11</ele>
        <time>2019-04-26T15:18:40Z</time>
      </trkpt>
      <trkpt lat="44.29825" lon="5.65317">
        <ele>789.035</ele>
        <time>2019-04-26T15:18:51Z</time>
      </trkpt>
      <trkpt lat="44.29825" lon="5.65317">
        <ele>788.964</ele>
        <time>2019-04-26T15:19:02Z</time>
      </trkpt>
      <trkpt lat="44.29825" lon="5.65316">
        <ele>788.908</ele>
        <time>2019-04-26T15:19:13Z</time>
      </trkpt>
      <trkpt lat="44.29825" lon="5.65316">
        <ele>788.83</ele>
        <time>2019-04-26T15:19:24Z</time>
      </trkpt>
      <trkpt lat="44.29825" lon="5.65316">
        <ele>788.757</ele>
        <time>2019-04-26T15:19:35Z</time>
      </trkpt>
      <trkpt lat="44.29826" lon="5.65316">
        <ele>788.683</ele>
        <time>2019-04-26T15:19:46Z</time>
      </trkpt>
      <trkpt lat="44.29826" lon="5.65316">
        <ele>788.598</ele>
        <time>2019-04-26T15:19:56Z</time>
      </trkpt>
      <trkpt lat="44.29826" lon="5.65317">
        <ele>788.526</ele>
        <time>2019-04-26T15:20:06Z</time>
      </trkpt>
      <trkpt lat="44.29827" lon="5.65317">
        <ele>788.446</ele>
        <time>2019-04-26T15:20:17Z</time>
      </trkpt>
      <trkpt lat="44.29827" lon="5.65317">
        <ele>788.378</ele>
        <time>2019-04-26T15:20:28Z</time>
      </trkpt>
      <trkpt lat="44.29827" lon="5.65317">
        <ele>788.326</ele>
        <time>2019-04-26T15:20:39Z</time>
      </trkpt>
      <trkpt lat="44.29827" lon="5.65318">
        <ele>788.299</ele>
        <time>2019-04-26T15:20:49Z</time>
      </trkpt>
      <trkpt lat="44.29827" lon="5.65318">
        <ele>788.295</ele>
        <time>2019-04-26T15:21:00Z</time>
      </trkpt>
      <trkpt lat="44.29827" lon="5.65318">
        <ele>788.307</ele>
        <time>2019-04-26T15:21:10Z</time>
      </trkpt>
      <trkpt lat="44.29827" lon="5.65318">
        <ele>788.336</ele>
        <time>2019-04-26T15:21:21Z</time>
      </trkpt>
      <trkpt lat="44.29827" lon="5.65319">
        <ele>788.362</ele>
        <time>2019-04-26T15:21:32Z</time>
      </trkpt>
      <trkpt lat="44.29827" lon="5.65319">
        <ele>788.392</ele>
        <time>2019-04-26T15:21:42Z</time>
      </trkpt>
      <trkpt lat="44.29827" lon="5.65319">
        <ele>788.44</ele>
        <time>2019-04-26T15:21:52Z</time>
      </trkpt>
      <trkpt lat="44.29827" lon="5.65319">
        <ele>788.493</ele>
        <time>2019-04-26T15:22:03Z</time>
      </trkpt>
      <trkpt lat="44.29827" lon="5.65319">
        <ele>788.538</ele>
        <time>2019-04-26T15:22:14Z</time>
      </trkpt>
      <trkpt lat="44.29827" lon="5.65319">
        <ele>788.592</ele>
        <time>2019-04-26T15:22:25Z</time>
      </trkpt>
      <trkpt lat="44.29827" lon="5.6532">
        <ele>788.624</ele>
        <time>2019-04-26T15:22:36Z</time>
      </trkpt>
      <trkpt lat="44.29827" lon="5.6532">
        <ele>788.598</ele>
        <time>2019-04-26T15:22:46Z</time>
      </trkpt>
      <trkpt lat="44.29827" lon="5.65319">
        <ele>788.722</ele>
        <time>2019-04-26T15:22:57Z</time>
      </trkpt>
      <trkpt lat="44.29827" lon="5.65319">
        <ele>788.813</ele>
        <time>2019-04-26T15:23:07Z</time>
      </trkpt>
      <trkpt lat="44.29827" lon="5.65319">
        <ele>788.864</ele>
        <time>2019-04-26T15:23:18Z</time>
      </trkpt>
      <trkpt lat="44.29827" lon="5.65319">
        <ele>788.984</ele>
        <time>2019-04-26T15:23:28Z</time>
      </trkpt>
      <trkpt lat="44.29827" lon="5.65319">
        <ele>789.034</ele>
        <time>2019-04-26T15:23:38Z</time>
      </trkpt>
      <trkpt lat="44.29827" lon="5.6532">
        <ele>788.987</ele>
        <time>2019-04-26T15:23:49Z</time>
      </trkpt>
      <trkpt lat="44.29831" lon="5.65321">
        <ele>789.055</ele>
        <time>2019-04-26T15:24:00Z</time>
      </trkpt>
      <trkpt lat="44.29844" lon="5.65315">
        <ele>789.443</ele>
        <time>2019-04-26T15:24:11Z</time>
      </trkpt>
      <trkpt lat="44.2985" lon="5.65309">
        <ele>789.76</ele>
        <time>2019-04-26T15:24:21Z</time>
      </trkpt>
      <trkpt lat="44.29864" lon="5.65317">
        <ele>789.677</ele>
        <time>2019-04-26T15:24:32Z</time>
      </trkpt>
      <trkpt lat="44.29875" lon="5.65328">
        <ele>789.519</ele>
        <time>2019-04-26T15:24:43Z</time>
      </trkpt>
      <trkpt lat="44.29882" lon="5.6534">
        <ele>789.267</ele>
        <time>2019-04-26T15:24:54Z</time>
      </trkpt>
      <trkpt lat="44.29885" lon="5.65345">
        <ele>789.735</ele>
        <time>2019-04-26T15:25:04Z</time>
      </trkpt>
      <trkpt lat="44.29886" lon="5.65344">
        <ele>789.919</ele>
        <time>2019-04-26T15:25:15Z</time>
      </trkpt>
      <trkpt lat="44.29887" lon="5.65343">
        <ele>790.53</ele>
        <time>2019-04-26T15:25:26Z</time>
      </trkpt>
      <trkpt lat="44.29888" lon="5.65343">
        <ele>790.719</ele>
        <time>2019-04-26T15:25:37Z</time>
      </trkpt>
      <trkpt lat="44.29888" lon="5.65343">
        <ele>791.11</ele>
        <time>2019-04-26T15:25:48Z</time>
      </trkpt>
      <trkpt lat="44.29889" lon="5.65344">
        <ele>791.732</ele>
        <time>2019-04-26T15:25:58Z</time>
      </trkpt>
      <trkpt lat="44.29889" lon="5.65344">
        <ele>791.965</ele>
        <time>2019-04-26T15:26:09Z</time>
      </trkpt>
      <trkpt lat="44.2989" lon="5.65345">
        <ele>792.305</ele>
        <time>2019-04-26T15:26:19Z</time>
      </trkpt>
      <trkpt lat="44.29892" lon="5.65345">
        <ele>792.705</ele>
        <time>2019-04-26T15:26:30Z</time>
      </trkpt>
      <trkpt lat="44.29893" lon="5.65345">
        <ele>792.89</ele>
        <time>2019-04-26T15:26:40Z</time>
      </trkpt>
      <trkpt lat="44.29891" lon="5.6534">
        <ele>793.683</ele>
        <time>2019-04-26T15:26:51Z</time>
      </trkpt>
      <trkpt lat="44.29891" lon="5.65338">
        <ele>794.256</ele>
        <time>2019-04-26T15:27:02Z</time>
      </trkpt>
      <trkpt lat="44.29891" lon="5.65335">
        <ele>794.477</ele>
        <time>2019-04-26T15:27:13Z</time>
      </trkpt>
      <trkpt lat="44.2989" lon="5.65335">
        <ele>794.531</ele>
        <time>2019-04-26T15:27:23Z</time>
      </trkpt>
      <trkpt lat="44.2989" lon="5.65335">
        <ele>794.679</ele>
        <time>2019-04-26T15:27:34Z</time>
      </trkpt>
      <trkpt lat="44.29896" lon="5.65337">
        <ele>795.664</ele>
        <time>2019-04-26T15:27:45Z</time>
      </trkpt>
      <trkpt lat="44.29896" lon="5.65336">
        <ele>796.421</ele>
        <time>2019-04-26T15:27:56Z</time>
      </trkpt>
      <trkpt lat="44.29896" lon="5.65335">
        <ele>797.432</ele>
        <time>2019-04-26T15:28:07Z</time>
      </trkpt>
      <trkpt lat="44.29896" lon="5.65335">
        <ele>797.884</ele>
        <time>2019-04-26T15:28:18Z</time>
      </trkpt>
      <trkpt lat="44.29896" lon="5.65336">
        <ele>798.266</ele>
        <time>2019-04-26T15:28:29Z</time>
      </trkpt>
      <trkpt lat="44.29895" lon="5.65336">
        <ele>798.549</ele>
        <time>2019-04-26T15:28:40Z</time>
      </trkpt>
      <trkpt lat="44.29896" lon="5.65336">
        <ele>799.154</ele>
        <time>2019-04-26T15:28:50Z</time>
      </trkpt>
      <trkpt lat="44.29895" lon="5.65338">
        <ele>799.275</ele>
        <time>2019-04-26T15:29:00Z</time>
      </trkpt>
      <trkpt lat="44.29888" lon="5.65339">
        <ele>799.373</ele>
        <time>2019-04-26T15:29:11Z</time>
      </trkpt>
      <trkpt lat="44.29886" lon="5.65339">
        <ele>799.357</ele>
        <time>2019-04-26T15:29:22Z</time>
      </trkpt>
      <trkpt lat="44.29886" lon="5.65339">
        <ele>799.381</ele>
        <time>2019-04-26T15:29:32Z</time>
      </trkpt>
      <trkpt lat="44.29884" lon="5.65339">
        <ele>799.337</ele>
        <time>2019-04-26T15:29:42Z</time>
      </trkpt>
      <trkpt lat="44.29884" lon="5.65339">
        <ele>799.322</ele>
        <time>2019-04-26T15:29:53Z</time>
      </trkpt>
      <trkpt lat="44.29884" lon="5.65339">
        <ele>799.35</ele>
        <time>2019-04-26T15:30:03Z</time>
      </trkpt>
      <trkpt lat="44.29885" lon="5.65337">
        <ele>799.534</ele>
        <time>2019-04-26T15:30:14Z</time>
      </trkpt>
      <trkpt lat="44.29885" lon="5.65334">
        <ele>799.769</ele>
        <time>2019-04-26T15:30:25Z</time>
      </trkpt>
      <trkpt lat="44.29885" lon="5.65333">
        <ele>800.197</ele>
        <time>2019-04-26T15:30:36Z</time>
      </trkpt>
      <trkpt lat="44.29885" lon="5.65331">
        <ele>800.901</ele>
        <time>2019-04-26T15:30:46Z</time>
      </trkpt>
      <trkpt lat="44.29886" lon="5.65329">
        <ele>801.64</ele>
        <time>2019-04-26T15:30:56Z</time>
      </trkpt>
      <trkpt lat="44.29885" lon="5.65329">
        <ele>802.002</ele>
        <time>2019-04-26T15:31:07Z</time>
      </trkpt>
      <trkpt lat="44.29885" lon="5.6533">
        <ele>802.161</ele>
        <time>2019-04-26T15:31:18Z</time>
      </trkpt>
      <trkpt lat="44.29885" lon="5.65329">
        <ele>802.518</ele>
        <time>2019-04-26T15:31:28Z</time>
      </trkpt>
      <trkpt lat="44.29885" lon="5.65328">
        <ele>802.714</ele>
        <time>2019-04-26T15:31:39Z</time>
      </trkpt>
      <trkpt lat="44.29886" lon="5.65328">
        <ele>802.831</ele>
        <time>2019-04-26T15:31:49Z</time>
      </trkpt>
      <trkpt lat="44.29885" lon="5.65328">
        <ele>803.107</ele>
        <time>2019-04-26T15:32:00Z</time>
      </trkpt>
      <trkpt lat="44.29885" lon="5.65327">
        <ele>803.308</ele>
        <time>2019-04-26T15:32:10Z</time>
      </trkpt>
      <trkpt lat="44.29885" lon="5.65327">
        <ele>803.65</ele>
        <time>2019-04-26T15:32:20Z</time>
      </trkpt>
      <trkpt lat="44.29884" lon="5.65327">
        <ele>804.033</ele>
        <time>2019-04-26T15:32:31Z</time>
      </trkpt>
      <trkpt lat="44.29884" lon="5.65328">
        <ele>804.192</ele>
        <time>2019-04-26T15:32:42Z</time>
      </trkpt>
      <trkpt lat="44.29885" lon="5.65331">
        <ele>804.008</ele>
        <time>2019-04-26T15:32:53Z</time>
      </trkpt>
      <trkpt lat="44.29885" lon="5.65333">
        <ele>803.954</ele>
        <time>2019-04-26T15:33:03Z</time>
      </trkpt>
      <trkpt lat="44.29885" lon="5.65333">
        <ele>804.057</ele>
        <time>2019-04-26T15:33:14Z</time>
      </trkpt>
      <trkpt lat="44.29885" lon="5.65335">
        <ele>803.972</ele>
        <time>2019-04-26T15:33:24Z</time>
      </trkpt>
      <trkpt lat="44.29885" lon="5.65337">
        <ele>803.595</ele>
        <time>2019-04-26T15:33:35Z</time>
      </trkpt>
      <trkpt lat="44.29885" lon="5.65339">
        <ele>803.099</ele>
        <time>2019-04-26T15:33:45Z</time>
      </trkpt>
      <trkpt lat="44.29884" lon="5.65339">
        <ele>802.873</ele>
        <time>2019-04-26T15:33:55Z</time>
      </trkpt>
      <trkpt lat="44.29884" lon="5.65339">
        <ele>802.781</ele>
        <time>2019-04-26T15:34:05Z</time>
      </trkpt>
      <trkpt lat="44.29884" lon="5.65338">
        <ele>802.725</ele>
        <time>2019-04-26T15:34:16Z</time>
      </trkpt>
      <trkpt lat="44.29884" lon="5.65337">
        <ele>802.678</ele>
        <time>2019-04-26T15:34:27Z</time>
      </trkpt>
      <trkpt lat="44.29884" lon="5.65337">
        <ele>802.639</ele>
        <time>2019-04-26T15:34:37Z</time>
      </trkpt>
      <trkpt lat="44.29884" lon="5.65337">
        <ele>802.611</ele>
        <time>2019-04-26T15:34:48Z</time>
      </trkpt>
      <trkpt lat="44.29885" lon="5.65336">
        <ele>802.59</ele>
        <time>2019-04-26T15:34:59Z</time>
      </trkpt>
      <trkpt lat="44.29885" lon="5.65336">
        <ele>802.576</ele>
        <time>2019-04-26T15:35:09Z</time>
      </trkpt>
      <trkpt lat="44.29885" lon="5.65336">
        <ele>802.559</ele>
        <time>2019-04-26T15:35:20Z</time>
      </trkpt>
      <trkpt lat="44.29885" lon="5.65335">
        <ele>802.537</ele>
        <time>2019-04-26T15:35:30Z</time>
      </trkpt>
      <trkpt lat="44.29886" lon="5.65335">
        <ele>802.516</ele>
        <time>2019-04-26T15:35:41Z</time>
      </trkpt>
      <trkpt lat="44.29886" lon="5.65335">
        <ele>802.528</ele>
        <time>2019-04-26T15:35:52Z</time>
      </trkpt>
      <trkpt lat="44.29886" lon="5.65335">
        <ele>802.568</ele>
        <time>2019-04-26T15:36:03Z</time>
      </trkpt>
      <trkpt lat="44.29886" lon="5.65335">
        <ele>802.623</ele>
        <time>2019-04-26T15:36:14Z</time>
      </trkpt>
      <trkpt lat="44.29886" lon="5.65334">
        <ele>802.674</ele>
        <time>2019-04-26T15:36:25Z</time>
      </trkpt>
      <trkpt lat="44.29886" lon="5.65334">
        <ele>802.75</ele>
        <time>2019-04-26T15:36:36Z</time>
      </trkpt>
      <trkpt lat="44.29887" lon="5.65335">
        <ele>802.811</ele>
        <time>2019-04-26T15:36:46Z</time>
      </trkpt>
      <trkpt lat="44.29888" lon="5.65335">
        <ele>802.861</ele>
        <time>2019-04-26T15:36:57Z</time>
      </trkpt>
      <trkpt lat="44.29889" lon="5.65335">
        <ele>802.88</ele>
        <time>2019-04-26T15:37:08Z</time>
      </trkpt>
      <trkpt lat="44.29888" lon="5.65335">
        <ele>802.871</ele>
        <time>2019-04-26T15:37:18Z</time>
      </trkpt>
      <trkpt lat="44.29888" lon="5.65336">
        <ele>802.821</ele>
        <time>2019-04-26T15:37:29Z</time>
      </trkpt>
      <trkpt lat="44.29888" lon="5.65336">
        <ele>802.726</ele>
        <time>2019-04-26T15:37:40Z</time>
      </trkpt>
      <trkpt lat="44.29888" lon="5.65336">
        <ele>802.6</ele>
        <time>2019-04-26T15:37:51Z</time>
      </trkpt>
      <trkpt lat="44.29883" lon="5.65337">
        <ele>801.432</ele>
        <time>2019-04-26T15:38:02Z</time>
      </trkpt>
      <trkpt lat="44.2988" lon="5.65338">
        <ele>800.446</ele>
        <time>2019-04-26T15:38:13Z</time>
      </trkpt>
      <trkpt lat="44.29885" lon="5.65335">
        <ele>800.032</ele>
        <time>2019-04-26T15:38:24Z</time>
      </trkpt>
      <trkpt lat="44.29883" lon="5.65327">
        <ele>799.263</ele>
        <time>2019-04-26T15:38:35Z</time>
      </trkpt>
      <trkpt lat="44.29883" lon="5.65322">
        <ele>798.746</ele>
        <time>2019-04-26T15:38:46Z</time>
      </trkpt>
      <trkpt lat="44.29883" lon="5.65323">
        <ele>798.746</ele>
        <time>2019-04-26T15:38:57Z</time>
      </trkpt>
      <trkpt lat="44.29882" lon="5.65323">
        <ele>798.819</ele>
        <time>2019-04-26T15:39:08Z</time>
      </trkpt>
      <trkpt lat="44.29883" lon="5.65323">
        <ele>798.719</ele>
        <time>2019-04-26T15:39:18Z</time>
      </trkpt>
      <trkpt lat="44.29884" lon="5.65323">
        <ele>798.592</ele>
        <time>2019-04-26T15:39:29Z</time>
      </trkpt>
      <trkpt lat="44.29884" lon="5.65323">
        <ele>798.207</ele>
        <time>2019-04-26T15:39:40Z</time>
      </trkpt>
      <trkpt lat="44.29882" lon="5.65322">
        <ele>797.257</ele>
        <time>2019-04-26T15:39:50Z</time>
      </trkpt>
      <trkpt lat="44.29881" lon="5.65322">
        <ele>796.456</ele>
        <time>2019-04-26T15:40:00Z</time>
      </trkpt>
      <trkpt lat="44.29881" lon="5.65321">
        <ele>795.928</ele>
        <time>2019-04-26T15:40:11Z</time>
      </trkpt>
      <trkpt lat="44.29884" lon="5.65322">
        <ele>795.423</ele>
        <time>2019-04-26T15:40:22Z</time>
      </trkpt>
      <trkpt lat="44.29887" lon="5.65321">
        <ele>795.062</ele>
        <time>2019-04-26T15:40:32Z</time>
      </trkpt>
      <trkpt lat="44.29889" lon="5.65319">
        <ele>794.518</ele>
        <time>2019-04-26T15:40:43Z</time>
      </trkpt>
      <trkpt lat="44.29887" lon="5.65316">
        <ele>793.797</ele>
        <time>2019-04-26T15:40:53Z</time>
      </trkpt>
      <trkpt lat="44.29884" lon="5.65319">
        <ele>793.467</ele>
        <time>2019-04-26T15:41:04Z</time>
      </trkpt>
      <trkpt lat="44.29886" lon="5.65319">
        <ele>793.386</ele>
        <time>2019-04-26T15:41:14Z</time>
      </trkpt>
      <trkpt lat="44.29887" lon="5.65319">
        <ele>793.491</ele>
        <time>2019-04-26T15:41:25Z</time>
      </trkpt>
      <trkpt lat="44.29888" lon="5.65321">
        <ele>793.533</ele>
        <time>2019-04-26T15:41:35Z</time>
      </trkpt>
      <trkpt lat="44.29889" lon="5.65321">
        <ele>793.527</ele>
        <time>2019-04-26T15:41:46Z</time>
      </trkpt>
      <trkpt lat="44.29889" lon="5.65322">
        <ele>793.536</ele>
        <time>2019-04-26T15:41:57Z</time>
      </trkpt>
      <trkpt lat="44.29889" lon="5.65322">
        <ele>793.563</ele>
        <time>2019-04-26T15:42:07Z</time>
      </trkpt>
      <trkpt lat="44.29889" lon="5.65323">
        <ele>793.717</ele>
        <time>2019-04-26T15:42:17Z</time>
      </trkpt>
      <trkpt lat="44.29888" lon="5.65325">
        <ele>794.098</ele>
        <time>2019-04-26T15:42:28Z</time>
      </trkpt>
      <trkpt lat="44.29888" lon="5.65326">
        <ele>794.183</ele>
        <time>2019-04-26T15:42:38Z</time>
      </trkpt>
      <trkpt lat="44.29887" lon="5.65326">
        <ele>794.219</ele>
        <time>2019-04-26T15:42:49Z</time>
      </trkpt>
      <trkpt lat="44.29887" lon="5.65326">
        <ele>794.222</ele>
        <time>2019-04-26T15:42:59Z</time>
      </trkpt>
      <trkpt lat="44.29887" lon="5.65326">
        <ele>794.227</ele>
        <time>2019-04-26T15:43:09Z</time>
      </trkpt>
      <trkpt lat="44.29882" lon="5.65331">
        <ele>794.156</ele>
        <time>2019-04-26T15:43:20Z</time>
      </trkpt>
      <trkpt lat="44.29879" lon="5.65335">
        <ele>793.53</ele>
        <time>2019-04-26T15:43:31Z</time>
      </trkpt>
      <trkpt lat="44.29878" lon="5.65338">
        <ele>793.039</ele>
        <time>2019-04-26T15:43:42Z</time>
      </trkpt>
      <trkpt lat="44.29877" lon="5.65337">
        <ele>792.828</ele>
        <time>2019-04-26T15:43:53Z</time>
      </trkpt>
      <trkpt lat="44.29877" lon="5.65337">
        <ele>792.861</ele>
        <time>2019-04-26T15:44:04Z</time>
      </trkpt>
      <trkpt lat="44.29881" lon="5.65332">
        <ele>793.775</ele>
        <time>2019-04-26T15:44:14Z</time>
      </trkpt>
      <trkpt lat="44.29879" lon="5.65334">
        <ele>795.635</ele>
        <time>2019-04-26T15:44:25Z</time>
      </trkpt>
      <trkpt lat="44.29879" lon="5.65339">
        <ele>797.936</ele>
        <time>2019-04-26T15:44:36Z</time>
      </trkpt>
      <trkpt lat="44.29879" lon="5.65337">
        <ele>799.503</ele>
        <time>2019-04-26T15:44:47Z</time>
      </trkpt>
      <trkpt lat="44.29879" lon="5.65331">
        <ele>800.592</ele>
        <time>2019-04-26T15:44:57Z</time>
      </trkpt>
      <trkpt lat="44.29879" lon="5.65333">
        <ele>800.615</ele>
        <time>2019-04-26T15:45:07Z</time>
      </trkpt>
      <trkpt lat="44.29881" lon="5.65334">
        <ele>800.555</ele>
        <time>2019-04-26T15:45:18Z</time>
      </trkpt>
      <trkpt lat="44.29881" lon="5.65334">
        <ele>800.519</ele>
        <time>2019-04-26T15:45:28Z</time>
      </trkpt>
      <trkpt lat="44.2988" lon="5.65332">
        <ele>800.295</ele>
        <time>2019-04-26T15:45:39Z</time>
      </trkpt>
      <trkpt lat="44.29881" lon="5.6533">
        <ele>800.158</ele>
        <time>2019-04-26T15:45:50Z</time>
      </trkpt>
      <trkpt lat="44.29881" lon="5.65329">
        <ele>799.887</ele>
        <time>2019-04-26T15:46:01Z</time>
      </trkpt>
    </trkseg>
  </trk>
  <trk>
    <name><![CDATA[20190502221855-rGymn]]></name>
    <trkseg>
      <trkpt lat="44.2989" lon="5.65324">
        <ele>783.723</ele>
        <time>2019-04-27T07:45:41Z</time>
      </trkpt>
      <trkpt lat="44.29891" lon="5.65328">
        <ele>786.432</ele>
        <time>2019-04-27T07:45:51Z</time>
      </trkpt>
      <trkpt lat="44.29888" lon="5.65323">
        <ele>793.589</ele>
        <time>2019-04-27T07:46:02Z</time>
      </trkpt>
      <trkpt lat="44.29878" lon="5.65324">
        <ele>789.099</ele>
        <time>2019-04-27T07:46:13Z</time>
      </trkpt>
      <trkpt lat="44.29879" lon="5.65323">
        <ele>788.693</ele>
        <time>2019-04-27T07:46:24Z</time>
      </trkpt>
      <trkpt lat="44.29884" lon="5.65325">
        <ele>788.989</ele>
        <time>2019-04-27T07:46:34Z</time>
      </trkpt>
      <trkpt lat="44.29883" lon="5.65325">
        <ele>789.333</ele>
        <time>2019-04-27T07:46:45Z</time>
      </trkpt>
      <trkpt lat="44.29884" lon="5.65322">
        <ele>789.433</ele>
        <time>2019-04-27T07:46:56Z</time>
      </trkpt>
      <trkpt lat="44.29884" lon="5.65318">
        <ele>789.581</ele>
        <time>2019-04-27T07:47:07Z</time>
      </trkpt>
      <trkpt lat="44.29885" lon="5.65317">
        <ele>789.627</ele>
        <time>2019-04-27T07:47:17Z</time>
      </trkpt>
      <trkpt lat="44.29886" lon="5.65316">
        <ele>789.684</ele>
        <time>2019-04-27T07:47:27Z</time>
      </trkpt>
      <trkpt lat="44.29886" lon="5.65314">
        <ele>789.523</ele>
        <time>2019-04-27T07:47:38Z</time>
      </trkpt>
      <trkpt lat="44.29887" lon="5.65318">
        <ele>788.859</ele>
        <time>2019-04-27T07:47:48Z</time>
      </trkpt>
      <trkpt lat="44.29888" lon="5.65318">
        <ele>788.502</ele>
        <time>2019-04-27T07:47:59Z</time>
      </trkpt>
      <trkpt lat="44.29887" lon="5.65318">
        <ele>788.346</ele>
        <time>2019-04-27T07:48:09Z</time>
      </trkpt>
      <trkpt lat="44.29886" lon="5.65318">
        <ele>787.789</ele>
        <time>2019-04-27T07:48:19Z</time>
      </trkpt>
      <trkpt lat="44.29886" lon="5.65318">
        <ele>787.698</ele>
        <time>2019-04-27T07:48:30Z</time>
      </trkpt>
      <trkpt lat="44.29886" lon="5.6532">
        <ele>787.532</ele>
        <time>2019-04-27T07:48:41Z</time>
      </trkpt>
      <trkpt lat="44.29887" lon="5.65323">
        <ele>787.084</ele>
        <time>2019-04-27T07:48:52Z</time>
      </trkpt>
      <trkpt lat="44.29887" lon="5.65328">
        <ele>786.487</ele>
        <time>2019-04-27T07:49:02Z</time>
      </trkpt>
      <trkpt lat="44.29889" lon="5.65342">
        <ele>786.403</ele>
        <time>2019-04-27T07:49:12Z</time>
      </trkpt>
      <trkpt lat="44.29885" lon="5.65354">
        <ele>790.547</ele>
        <time>2019-04-27T07:49:33Z</time>
      </trkpt>
      <trkpt lat="44.29887" lon="5.65337">
        <ele>791.288</ele>
        <time>2019-04-27T07:49:43Z</time>
      </trkpt>
      <trkpt lat="44.29889" lon="5.65334">
        <ele>796.353</ele>
        <time>2019-04-27T07:49:54Z</time>
      </trkpt>
      <trkpt lat="44.2989" lon="5.65343">
        <ele>798.856</ele>
        <time>2019-04-27T07:50:05Z</time>
      </trkpt>
      <trkpt lat="44.29888" lon="5.65344">
        <ele>800.634</ele>
        <time>2019-04-27T07:50:16Z</time>
      </trkpt>
      <trkpt lat="44.29891" lon="5.65344">
        <ele>801.018</ele>
        <time>2019-04-27T07:50:27Z</time>
      </trkpt>
      <trkpt lat="44.29889" lon="5.65339">
        <ele>801.289</ele>
        <time>2019-04-27T07:50:38Z</time>
      </trkpt>
      <trkpt lat="44.29896" lon="5.65352">
        <ele>802.076</ele>
        <time>2019-04-27T07:50:49Z</time>
      </trkpt>
      <trkpt lat="44.2991" lon="5.65359">
        <ele>801.687</ele>
        <time>2019-04-27T07:50:59Z</time>
      </trkpt>
      <trkpt lat="44.29921" lon="5.65357">
        <ele>801.072</ele>
        <time>2019-04-27T07:51:10Z</time>
      </trkpt>
      <trkpt lat="44.2991" lon="5.65329">
        <ele>800.41</ele>
        <time>2019-04-27T07:51:20Z</time>
      </trkpt>
      <trkpt lat="44.29905" lon="5.65312">
        <ele>799.985</ele>
        <time>2019-04-27T07:51:31Z</time>
      </trkpt>
      <trkpt lat="44.29904" lon="5.65311">
        <ele>799.68</ele>
        <time>2019-04-27T07:51:41Z</time>
      </trkpt>
      <trkpt lat="44.29897" lon="5.65293">
        <ele>799.248</ele>
        <time>2019-04-27T07:51:52Z</time>
      </trkpt>
      <trkpt lat="44.29883" lon="5.65263">
        <ele>799.144</ele>
        <time>2019-04-27T07:52:02Z</time>
      </trkpt>
      <trkpt lat="44.29865" lon="5.6523">
        <ele>799.099</ele>
        <time>2019-04-27T07:52:13Z</time>
      </trkpt>
      <trkpt lat="44.29849" lon="5.65194">
        <ele>799.179</ele>
        <time>2019-04-27T07:52:23Z</time>
      </trkpt>
      <trkpt lat="44.29833" lon="5.65157">
        <ele>799.376</ele>
        <time>2019-04-27T07:52:33Z</time>
      </trkpt>
      <trkpt lat="44.29817" lon="5.65116">
        <ele>799.406</ele>
        <time>2019-04-27T07:52:44Z</time>
      </trkpt>
      <trkpt lat="44.29795" lon="5.65065">
        <ele>799.544</ele>
        <time>2019-04-27T07:52:54Z</time>
      </trkpt>
      <trkpt lat="44.29773" lon="5.65013">
        <ele>803.224</ele>
        <time>2019-04-27T07:53:05Z</time>
      </trkpt>
      <trkpt lat="44.29748" lon="5.6496">
        <ele>804.139</ele>
        <time>2019-04-27T07:53:16Z</time>
      </trkpt>
      <trkpt lat="44.29727" lon="5.64913">
        <ele>804.016</ele>
        <time>2019-04-27T07:53:26Z</time>
      </trkpt>
      <trkpt lat="44.29705" lon="5.64856">
        <ele>803.852</ele>
        <time>2019-04-27T07:53:37Z</time>
      </trkpt>
      <trkpt lat="44.29688" lon="5.64804">
        <ele>802.706</ele>
        <time>2019-04-27T07:53:47Z</time>
      </trkpt>
      <trkpt lat="44.29686" lon="5.64744">
        <ele>802.085</ele>
        <time>2019-04-27T07:53:57Z</time>
      </trkpt>
      <trkpt lat="44.2968" lon="5.64669">
        <ele>802.633</ele>
        <time>2019-04-27T07:54:07Z</time>
      </trkpt>
      <trkpt lat="44.29637" lon="5.64627">
        <ele>807.281</ele>
        <time>2019-04-27T07:54:18Z</time>
      </trkpt>
      <trkpt lat="44.29619" lon="5.64569">
        <ele>805.537</ele>
        <time>2019-04-27T07:54:29Z</time>
      </trkpt>
      <trkpt lat="44.2961" lon="5.64515">
        <ele>804.682</ele>
        <time>2019-04-27T07:54:39Z</time>
      </trkpt>
      <trkpt lat="44.29596" lon="5.6446">
        <ele>804.833</ele>
        <time>2019-04-27T07:54:49Z</time>
      </trkpt>
      <trkpt lat="44.29577" lon="5.64405">
        <ele>806.283</ele>
        <time>2019-04-27T07:54:59Z</time>
      </trkpt>
      <trkpt lat="44.29556" lon="5.64355">
        <ele>807.079</ele>
        <time>2019-04-27T07:55:09Z</time>
      </trkpt>
      <trkpt lat="44.2953" lon="5.64298">
        <ele>807.385</ele>
        <time>2019-04-27T07:55:20Z</time>
      </trkpt>
      <trkpt lat="44.29499" lon="5.64236">
        <ele>805.043</ele>
        <time>2019-04-27T07:55:31Z</time>
      </trkpt>
      <trkpt lat="44.29462" lon="5.64165">
        <ele>804.256</ele>
        <time>2019-04-27T07:55:42Z</time>
      </trkpt>
      <trkpt lat="44.29453" lon="5.64074">
        <ele>800.762</ele>
        <time>2019-04-27T07:55:53Z</time>
      </trkpt>
      <trkpt lat="44.29426" lon="5.63999">
        <ele>800.696</ele>
        <time>2019-04-27T07:56:03Z</time>
      </trkpt>
      <trkpt lat="44.29391" lon="5.63937">
        <ele>799.543</ele>
        <time>2019-04-27T07:56:13Z</time>
      </trkpt>
      <trkpt lat="44.29347" lon="5.63882">
        <ele>798.002</ele>
        <time>2019-04-27T07:56:24Z</time>
      </trkpt>
      <trkpt lat="44.29311" lon="5.63827">
        <ele>796.958</ele>
        <time>2019-04-27T07:56:34Z</time>
      </trkpt>
      <trkpt lat="44.29281" lon="5.63766">
        <ele>798.249</ele>
        <time>2019-04-27T07:56:45Z</time>
      </trkpt>
      <trkpt lat="44.29283" lon="5.63706">
        <ele>801.844</ele>
        <time>2019-04-27T07:56:55Z</time>
      </trkpt>
      <trkpt lat="44.29276" lon="5.63642">
        <ele>806.052</ele>
        <time>2019-04-27T07:57:06Z</time>
      </trkpt>
      <trkpt lat="44.29248" lon="5.63596">
        <ele>804.817</ele>
        <time>2019-04-27T07:57:16Z</time>
      </trkpt>
      <trkpt lat="44.29218" lon="5.63547">
        <ele>803.814</ele>
        <time>2019-04-27T07:57:27Z</time>
      </trkpt>
      <trkpt lat="44.29197" lon="5.635">
        <ele>802.231</ele>
        <time>2019-04-27T07:57:37Z</time>
      </trkpt>
      <trkpt lat="44.29176" lon="5.63449">
        <ele>801.869</ele>
        <time>2019-04-27T07:57:47Z</time>
      </trkpt>
      <trkpt lat="44.29162" lon="5.63392">
        <ele>805.081</ele>
        <time>2019-04-27T07:57:58Z</time>
      </trkpt>
      <trkpt lat="44.29153" lon="5.63332">
        <ele>807.303</ele>
        <time>2019-04-27T07:58:09Z</time>
      </trkpt>
      <trkpt lat="44.29148" lon="5.63278">
        <ele>809.237</ele>
        <time>2019-04-27T07:58:19Z</time>
      </trkpt>
      <trkpt lat="44.29155" lon="5.63212">
        <ele>814.697</ele>
        <time>2019-04-27T07:58:30Z</time>
      </trkpt>
      <trkpt lat="44.29165" lon="5.63164">
        <ele>814.915</ele>
        <time>2019-04-27T07:58:40Z</time>
      </trkpt>
      <trkpt lat="44.29162" lon="5.6311">
        <ele>814.58</ele>
        <time>2019-04-27T07:58:51Z</time>
      </trkpt>
      <trkpt lat="44.29158" lon="5.63064">
        <ele>814.722</ele>
        <time>2019-04-27T07:59:01Z</time>
      </trkpt>
      <trkpt lat="44.29154" lon="5.63016">
        <ele>815.104</ele>
        <time>2019-04-27T07:59:12Z</time>
      </trkpt>
      <trkpt lat="44.2915" lon="5.62967">
        <ele>815.503</ele>
        <time>2019-04-27T07:59:23Z</time>
      </trkpt>
      <trkpt lat="44.29145" lon="5.62918">
        <ele>816.004</ele>
        <time>2019-04-27T07:59:34Z</time>
      </trkpt>
      <trkpt lat="44.29134" lon="5.62868">
        <ele>816.482</ele>
        <time>2019-04-27T07:59:45Z</time>
      </trkpt>
      <trkpt lat="44.29114" lon="5.62826">
        <ele>816.979</ele>
        <time>2019-04-27T07:59:56Z</time>
      </trkpt>
      <trkpt lat="44.2909" lon="5.62793">
        <ele>817.733</ele>
        <time>2019-04-27T08:00:07Z</time>
      </trkpt>
      <trkpt lat="44.29072" lon="5.6276">
        <ele>818.659</ele>
        <time>2019-04-27T08:00:18Z</time>
      </trkpt>
      <trkpt lat="44.29052" lon="5.62712">
        <ele>819.35</ele>
        <time>2019-04-27T08:00:29Z</time>
      </trkpt>
      <trkpt lat="44.29027" lon="5.62656">
        <ele>822.95</ele>
        <time>2019-04-27T08:00:40Z</time>
      </trkpt>
      <trkpt lat="44.29" lon="5.62594">
        <ele>824.397</ele>
        <time>2019-04-27T08:00:51Z</time>
      </trkpt>
      <trkpt lat="44.28981" lon="5.62532">
        <ele>824.502</ele>
        <time>2019-04-27T08:01:02Z</time>
      </trkpt>
      <trkpt lat="44.2897" lon="5.6247">
        <ele>824.719</ele>
        <time>2019-04-27T08:01:13Z</time>
      </trkpt>
      <trkpt lat="44.28957" lon="5.624">
        <ele>824.908</ele>
        <time>2019-04-27T08:01:24Z</time>
      </trkpt>
      <trkpt lat="44.28942" lon="5.62341">
        <ele>825.335</ele>
        <time>2019-04-27T08:01:34Z</time>
      </trkpt>
      <trkpt lat="44.28927" lon="5.62282">
        <ele>825.525</ele>
        <time>2019-04-27T08:01:45Z</time>
      </trkpt>
      <trkpt lat="44.28915" lon="5.62229">
        <ele>827.164</ele>
        <time>2019-04-27T08:01:55Z</time>
      </trkpt>
      <trkpt lat="44.28904" lon="5.62172">
        <ele>828.263</ele>
        <time>2019-04-27T08:02:06Z</time>
      </trkpt>
      <trkpt lat="44.28899" lon="5.6212">
        <ele>828.516</ele>
        <time>2019-04-27T08:02:17Z</time>
      </trkpt>
      <trkpt lat="44.289" lon="5.62073">
        <ele>829.093</ele>
        <time>2019-04-27T08:02:28Z</time>
      </trkpt>
      <trkpt lat="44.28909" lon="5.62033">
        <ele>829.883</ele>
        <time>2019-04-27T08:02:39Z</time>
      </trkpt>
      <trkpt lat="44.28923" lon="5.61996">
        <ele>830.508</ele>
        <time>2019-04-27T08:02:49Z</time>
      </trkpt>
      <trkpt lat="44.28946" lon="5.61961">
        <ele>831.356</ele>
        <time>2019-04-27T08:03:00Z</time>
      </trkpt>
      <trkpt lat="44.28981" lon="5.61929">
        <ele>833.107</ele>
        <time>2019-04-27T08:03:11Z</time>
      </trkpt>
      <trkpt lat="44.29017" lon="5.61901">
        <ele>834.69</ele>
        <time>2019-04-27T08:03:21Z</time>
      </trkpt>
      <trkpt lat="44.29053" lon="5.61872">
        <ele>835.554</ele>
        <time>2019-04-27T08:03:32Z</time>
      </trkpt>
      <trkpt lat="44.29086" lon="5.61847">
        <ele>835.82</ele>
        <time>2019-04-27T08:03:42Z</time>
      </trkpt>
      <trkpt lat="44.29119" lon="5.6182">
        <ele>836.233</ele>
        <time>2019-04-27T08:03:53Z</time>
      </trkpt>
      <trkpt lat="44.29153" lon="5.61794">
        <ele>836.58</ele>
        <time>2019-04-27T08:04:04Z</time>
      </trkpt>
      <trkpt lat="44.29188" lon="5.61766">
        <ele>837.617</ele>
        <time>2019-04-27T08:04:15Z</time>
      </trkpt>
      <trkpt lat="44.29218" lon="5.61727">
        <ele>838.73</ele>
        <time>2019-04-27T08:04:26Z</time>
      </trkpt>
      <trkpt lat="44.29233" lon="5.61674">
        <ele>839.707</ele>
        <time>2019-04-27T08:04:37Z</time>
      </trkpt>
      <trkpt lat="44.29247" lon="5.6162">
        <ele>842.155</ele>
        <time>2019-04-27T08:04:48Z</time>
      </trkpt>
      <trkpt lat="44.29262" lon="5.61561">
        <ele>842.791</ele>
        <time>2019-04-27T08:04:59Z</time>
      </trkpt>
      <trkpt lat="44.29273" lon="5.61505">
        <ele>842.209</ele>
        <time>2019-04-27T08:05:09Z</time>
      </trkpt>
      <trkpt lat="44.29278" lon="5.61449">
        <ele>843.097</ele>
        <time>2019-04-27T08:05:19Z</time>
      </trkpt>
      <trkpt lat="44.29277" lon="5.61391">
        <ele>843.523</ele>
        <time>2019-04-27T08:05:30Z</time>
      </trkpt>
      <trkpt lat="44.29276" lon="5.61335">
        <ele>843.922</ele>
        <time>2019-04-27T08:05:41Z</time>
      </trkpt>
      <trkpt lat="44.29276" lon="5.61282">
        <ele>845.898</ele>
        <time>2019-04-27T08:05:52Z</time>
      </trkpt>
      <trkpt lat="44.29275" lon="5.6122">
        <ele>846.216</ele>
        <time>2019-04-27T08:06:02Z</time>
      </trkpt>
      <trkpt lat="44.29272" lon="5.61151">
        <ele>846.181</ele>
        <time>2019-04-27T08:06:13Z</time>
      </trkpt>
      <trkpt lat="44.29265" lon="5.61091">
        <ele>846.442</ele>
        <time>2019-04-27T08:06:23Z</time>
      </trkpt>
      <trkpt lat="44.29255" lon="5.6102">
        <ele>846.118</ele>
        <time>2019-04-27T08:06:34Z</time>
      </trkpt>
      <trkpt lat="44.29247" lon="5.60963">
        <ele>847.241</ele>
        <time>2019-04-27T08:06:44Z</time>
      </trkpt>
      <trkpt lat="44.29241" lon="5.60907">
        <ele>847.493</ele>
        <time>2019-04-27T08:06:55Z</time>
      </trkpt>
      <trkpt lat="44.29235" lon="5.60853">
        <ele>847.425</ele>
        <time>2019-04-27T08:07:06Z</time>
      </trkpt>
      <trkpt lat="44.29227" lon="5.60801">
        <ele>847.534</ele>
        <time>2019-04-27T08:07:17Z</time>
      </trkpt>
      <trkpt lat="44.29222" lon="5.60754">
        <ele>847.824</ele>
        <time>2019-04-27T08:07:27Z</time>
      </trkpt>
      <trkpt lat="44.29219" lon="5.60708">
        <ele>848.378</ele>
        <time>2019-04-27T08:07:38Z</time>
      </trkpt>
      <trkpt lat="44.29222" lon="5.60668">
        <ele>849.21</ele>
        <time>2019-04-27T08:07:49Z</time>
      </trkpt>
      <trkpt lat="44.29227" lon="5.60631">
        <ele>850.424</ele>
        <time>2019-04-27T08:08:00Z</time>
      </trkpt>
      <trkpt lat="44.29233" lon="5.60599">
        <ele>851.492</ele>
        <time>2019-04-27T08:08:11Z</time>
      </trkpt>
      <trkpt lat="44.2924" lon="5.60563">
        <ele>852.884</ele>
        <time>2019-04-27T08:08:21Z</time>
      </trkpt>
      <trkpt lat="44.29248" lon="5.60517">
        <ele>853.778</ele>
        <time>2019-04-27T08:08:32Z</time>
      </trkpt>
      <trkpt lat="44.29256" lon="5.60466">
        <ele>854.585</ele>
        <time>2019-04-27T08:08:43Z</time>
      </trkpt>
      <trkpt lat="44.29251" lon="5.6042">
        <ele>855.699</ele>
        <time>2019-04-27T08:08:54Z</time>
      </trkpt>
      <trkpt lat="44.29243" lon="5.60381">
        <ele>856.528</ele>
        <time>2019-04-27T08:09:04Z</time>
      </trkpt>
      <trkpt lat="44.29235" lon="5.6034">
        <ele>857.34</ele>
        <time>2019-04-27T08:09:14Z</time>
      </trkpt>
      <trkpt lat="44.29228" lon="5.60294">
        <ele>858.082</ele>
        <time>2019-04-27T08:09:25Z</time>
      </trkpt>
      <trkpt lat="44.29215" lon="5.60243">
        <ele>858.429</ele>
        <time>2019-04-27T08:09:36Z</time>
      </trkpt>
      <trkpt lat="44.29197" lon="5.60199">
        <ele>858.741</ele>
        <time>2019-04-27T08:09:46Z</time>
      </trkpt>
      <trkpt lat="44.29174" lon="5.60157">
        <ele>858.995</ele>
        <time>2019-04-27T08:09:57Z</time>
      </trkpt>
      <trkpt lat="44.29153" lon="5.60115">
        <ele>859.722</ele>
        <time>2019-04-27T08:10:07Z</time>
      </trkpt>
      <trkpt lat="44.29137" lon="5.60071">
        <ele>860.143</ele>
        <time>2019-04-27T08:10:18Z</time>
      </trkpt>
      <trkpt lat="44.2913" lon="5.60034">
        <ele>860.717</ele>
        <time>2019-04-27T08:10:28Z</time>
      </trkpt>
      <trkpt lat="44.29127" lon="5.59997">
        <ele>861.658</ele>
        <time>2019-04-27T08:10:39Z</time>
      </trkpt>
      <trkpt lat="44.29129" lon="5.5996">
        <ele>863.232</ele>
        <time>2019-04-27T08:10:50Z</time>
      </trkpt>
      <trkpt lat="44.2913" lon="5.59923">
        <ele>864.712</ele>
        <time>2019-04-27T08:11:01Z</time>
      </trkpt>
      <trkpt lat="44.29133" lon="5.5989">
        <ele>866.078</ele>
        <time>2019-04-27T08:11:11Z</time>
      </trkpt>
      <trkpt lat="44.29143" lon="5.59857">
        <ele>867.895</ele>
        <time>2019-04-27T08:11:22Z</time>
      </trkpt>
      <trkpt lat="44.29149" lon="5.59829">
        <ele>869.084</ele>
        <time>2019-04-27T08:11:32Z</time>
      </trkpt>
      <trkpt lat="44.29163" lon="5.59803">
        <ele>870.162</ele>
        <time>2019-04-27T08:11:43Z</time>
      </trkpt>
      <trkpt lat="44.2918" lon="5.59777">
        <ele>871.487</ele>
        <time>2019-04-27T08:11:54Z</time>
      </trkpt>
      <trkpt lat="44.29201" lon="5.59755">
        <ele>872.55</ele>
        <time>2019-04-27T08:12:04Z</time>
      </trkpt>
      <trkpt lat="44.29226" lon="5.5972">
        <ele>874.59</ele>
        <time>2019-04-27T08:12:14Z</time>
      </trkpt>
      <trkpt lat="44.29259" lon="5.59671">
        <ele>879.808</ele>
        <time>2019-04-27T08:12:25Z</time>
      </trkpt>
      <trkpt lat="44.29279" lon="5.59618">
        <ele>880.017</ele>
        <time>2019-04-27T08:12:36Z</time>
      </trkpt>
      <trkpt lat="44.29252" lon="5.59586">
        <ele>880.032</ele>
        <time>2019-04-27T08:12:46Z</time>
      </trkpt>
      <trkpt lat="44.29207" lon="5.59561">
        <ele>878.012</ele>
        <time>2019-04-27T08:12:57Z</time>
      </trkpt>
      <trkpt lat="44.29145" lon="5.59582">
        <ele>873.834</ele>
        <time>2019-04-27T08:13:08Z</time>
      </trkpt>
      <trkpt lat="44.29088" lon="5.59668">
        <ele>871.338</ele>
        <time>2019-04-27T08:13:19Z</time>
      </trkpt>
      <trkpt lat="44.29033" lon="5.59708">
        <ele>872.735</ele>
        <time>2019-04-27T08:13:30Z</time>
      </trkpt>
      <trkpt lat="44.28993" lon="5.59686">
        <ele>873.371</ele>
        <time>2019-04-27T08:13:40Z</time>
      </trkpt>
      <trkpt lat="44.28954" lon="5.59667">
        <ele>873.567</ele>
        <time>2019-04-27T08:13:51Z</time>
      </trkpt>
      <trkpt lat="44.28925" lon="5.59656">
        <ele>873.984</ele>
        <time>2019-04-27T08:14:02Z</time>
      </trkpt>
      <trkpt lat="44.28904" lon="5.59653">
        <ele>874.415</ele>
        <time>2019-04-27T08:14:12Z</time>
      </trkpt>
      <trkpt lat="44.28881" lon="5.59667">
        <ele>874.744</ele>
        <time>2019-04-27T08:14:22Z</time>
      </trkpt>
      <trkpt lat="44.28863" lon="5.59682">
        <ele>875.328</ele>
        <time>2019-04-27T08:14:33Z</time>
      </trkpt>
      <trkpt lat="44.28842" lon="5.59686">
        <ele>875.94</ele>
        <time>2019-04-27T08:14:44Z</time>
      </trkpt>
      <trkpt lat="44.28829" lon="5.59673">
        <ele>876.681</ele>
        <time>2019-04-27T08:14:55Z</time>
      </trkpt>
      <trkpt lat="44.28815" lon="5.59658">
        <ele>877.534</ele>
        <time>2019-04-27T08:15:06Z</time>
      </trkpt>
      <trkpt lat="44.28803" lon="5.59643">
        <ele>878.526</ele>
        <time>2019-04-27T08:15:17Z</time>
      </trkpt>
      <trkpt lat="44.28789" lon="5.59627">
        <ele>879.616</ele>
        <time>2019-04-27T08:15:28Z</time>
      </trkpt>
      <trkpt lat="44.28777" lon="5.5961">
        <ele>880.748</ele>
        <time>2019-04-27T08:15:39Z</time>
      </trkpt>
      <trkpt lat="44.28768" lon="5.5959">
        <ele>881.83</ele>
        <time>2019-04-27T08:15:49Z</time>
      </trkpt>
      <trkpt lat="44.28762" lon="5.59566">
        <ele>883.039</ele>
        <time>2019-04-27T08:16:00Z</time>
      </trkpt>
      <trkpt lat="44.28754" lon="5.59543">
        <ele>884.494</ele>
        <time>2019-04-27T08:16:11Z</time>
      </trkpt>
      <trkpt lat="44.28742" lon="5.59523">
        <ele>886.045</ele>
        <time>2019-04-27T08:16:22Z</time>
      </trkpt>
      <trkpt lat="44.28728" lon="5.59508">
        <ele>887.621</ele>
        <time>2019-04-27T08:16:33Z</time>
      </trkpt>
      <trkpt lat="44.28712" lon="5.59501">
        <ele>889.185</ele>
        <time>2019-04-27T08:16:44Z</time>
      </trkpt>
      <trkpt lat="44.28694" lon="5.59497">
        <ele>890.697</ele>
        <time>2019-04-27T08:16:55Z</time>
      </trkpt>
      <trkpt lat="44.28678" lon="5.59488">
        <ele>891.991</ele>
        <time>2019-04-27T08:17:05Z</time>
      </trkpt>
      <trkpt lat="44.28663" lon="5.59486">
        <ele>893.455</ele>
        <time>2019-04-27T08:17:15Z</time>
      </trkpt>
      <trkpt lat="44.28645" lon="5.59481">
        <ele>894.917</ele>
        <time>2019-04-27T08:17:26Z</time>
      </trkpt>
      <trkpt lat="44.2863" lon="5.5948">
        <ele>896.457</ele>
        <time>2019-04-27T08:17:36Z</time>
      </trkpt>
      <trkpt lat="44.28614" lon="5.59482">
        <ele>897.994</ele>
        <time>2019-04-27T08:17:46Z</time>
      </trkpt>
      <trkpt lat="44.28596" lon="5.59476">
        <ele>899.383</ele>
        <time>2019-04-27T08:17:56Z</time>
      </trkpt>
      <trkpt lat="44.28582" lon="5.59484">
        <ele>901.087</ele>
        <time>2019-04-27T08:18:07Z</time>
      </trkpt>
      <trkpt lat="44.28594" lon="5.59494">
        <ele>904.094</ele>
        <time>2019-04-27T08:18:17Z</time>
      </trkpt>
      <trkpt lat="44.28614" lon="5.595">
        <ele>905.444</ele>
        <time>2019-04-27T08:18:27Z</time>
      </trkpt>
      <trkpt lat="44.28638" lon="5.59505">
        <ele>906.614</ele>
        <time>2019-04-27T08:18:37Z</time>
      </trkpt>
      <trkpt lat="44.28662" lon="5.59519">
        <ele>907.322</ele>
        <time>2019-04-27T08:18:48Z</time>
      </trkpt>
      <trkpt lat="44.28682" lon="5.59536">
        <ele>907.663</ele>
        <time>2019-04-27T08:18:58Z</time>
      </trkpt>
      <trkpt lat="44.28699" lon="5.59561">
        <ele>908.083</ele>
        <time>2019-04-27T08:19:09Z</time>
      </trkpt>
      <trkpt lat="44.28699" lon="5.59586">
        <ele>908.888</ele>
        <time>2019-04-27T08:19:20Z</time>
      </trkpt>
      <trkpt lat="44.28688" lon="5.59604">
        <ele>910.086</ele>
        <time>2019-04-27T08:19:30Z</time>
      </trkpt>
      <trkpt lat="44.2868" lon="5.59628">
        <ele>911.466</ele>
        <time>2019-04-27T08:19:41Z</time>
      </trkpt>
      <trkpt lat="44.28679" lon="5.59654">
        <ele>912.782</ele>
        <time>2019-04-27T08:19:51Z</time>
      </trkpt>
      <trkpt lat="44.28685" lon="5.59678">
        <ele>914.965</ele>
        <time>2019-04-27T08:20:01Z</time>
      </trkpt>
      <trkpt lat="44.28689" lon="5.59704">
        <ele>917.01</ele>
        <time>2019-04-27T08:20:12Z</time>
      </trkpt>
      <trkpt lat="44.28694" lon="5.59728">
        <ele>918.816</ele>
        <time>2019-04-27T08:20:22Z</time>
      </trkpt>
      <trkpt lat="44.28695" lon="5.59753">
        <ele>920.501</ele>
        <time>2019-04-27T08:20:33Z</time>
      </trkpt>
      <trkpt lat="44.28683" lon="5.59732">
        <ele>921.686</ele>
        <time>2019-04-27T08:20:44Z</time>
      </trkpt>
      <trkpt lat="44.28673" lon="5.59711">
        <ele>922.83</ele>
        <time>2019-04-27T08:20:55Z</time>
      </trkpt>
      <trkpt lat="44.28663" lon="5.5969">
        <ele>923.796</ele>
        <time>2019-04-27T08:21:06Z</time>
      </trkpt>
      <trkpt lat="44.28651" lon="5.59671">
        <ele>924.682</ele>
        <time>2019-04-27T08:21:17Z</time>
      </trkpt>
      <trkpt lat="44.28639" lon="5.59657">
        <ele>925.57</ele>
        <time>2019-04-27T08:21:27Z</time>
      </trkpt>
      <trkpt lat="44.28622" lon="5.59647">
        <ele>926.463</ele>
        <time>2019-04-27T08:21:38Z</time>
      </trkpt>
      <trkpt lat="44.28606" lon="5.59633">
        <ele>927.598</ele>
        <time>2019-04-27T08:21:49Z</time>
      </trkpt>
      <trkpt lat="44.28596" lon="5.59611">
        <ele>929.095</ele>
        <time>2019-04-27T08:22:00Z</time>
      </trkpt>
      <trkpt lat="44.28587" lon="5.59593">
        <ele>930.223</ele>
        <time>2019-04-27T08:22:10Z</time>
      </trkpt>
      <trkpt lat="44.28572" lon="5.59579">
        <ele>931.513</ele>
        <time>2019-04-27T08:22:21Z</time>
      </trkpt>
      <trkpt lat="44.2856" lon="5.59576">
        <ele>932.846</ele>
        <time>2019-04-27T08:22:31Z</time>
      </trkpt>
      <trkpt lat="44.28545" lon="5.59576">
        <ele>934.676</ele>
        <time>2019-04-27T08:22:42Z</time>
      </trkpt>
      <trkpt lat="44.28524" lon="5.59575">
        <ele>936.861</ele>
        <time>2019-04-27T08:22:52Z</time>
      </trkpt>
      <trkpt lat="44.28504" lon="5.59581">
        <ele>939.91</ele>
        <time>2019-04-27T08:23:02Z</time>
      </trkpt>
      <trkpt lat="44.28479" lon="5.59582">
        <ele>943.002</ele>
        <time>2019-04-27T08:23:13Z</time>
      </trkpt>
      <trkpt lat="44.28458" lon="5.59593">
        <ele>945.443</ele>
        <time>2019-04-27T08:23:24Z</time>
      </trkpt>
      <trkpt lat="44.2844" lon="5.596">
        <ele>946.999</ele>
        <time>2019-04-27T08:23:34Z</time>
      </trkpt>
      <trkpt lat="44.2842" lon="5.59606">
        <ele>948.691</ele>
        <time>2019-04-27T08:23:45Z</time>
      </trkpt>
      <trkpt lat="44.284" lon="5.59611">
        <ele>950.402</ele>
        <time>2019-04-27T08:23:56Z</time>
      </trkpt>
      <trkpt lat="44.28379" lon="5.59611">
        <ele>951.685</ele>
        <time>2019-04-27T08:24:07Z</time>
      </trkpt>
      <trkpt lat="44.28358" lon="5.59607">
        <ele>953.302</ele>
        <time>2019-04-27T08:24:18Z</time>
      </trkpt>
      <trkpt lat="44.28341" lon="5.59604">
        <ele>954.572</ele>
        <time>2019-04-27T08:24:28Z</time>
      </trkpt>
      <trkpt lat="44.28322" lon="5.59599">
        <ele>955.614</ele>
        <time>2019-04-27T08:24:38Z</time>
      </trkpt>
      <trkpt lat="44.28302" lon="5.59594">
        <ele>957.516</ele>
        <time>2019-04-27T08:24:49Z</time>
      </trkpt>
      <trkpt lat="44.28283" lon="5.59596">
        <ele>959.286</ele>
        <time>2019-04-27T08:24:59Z</time>
      </trkpt>
      <trkpt lat="44.28265" lon="5.59605">
        <ele>960.81</ele>
        <time>2019-04-27T08:25:09Z</time>
      </trkpt>
      <trkpt lat="44.28254" lon="5.59628">
        <ele>962.048</ele>
        <time>2019-04-27T08:25:20Z</time>
      </trkpt>
      <trkpt lat="44.28246" lon="5.59653">
        <ele>963.252</ele>
        <time>2019-04-27T08:25:30Z</time>
      </trkpt>
      <trkpt lat="44.28236" lon="5.59677">
        <ele>964.752</ele>
        <time>2019-04-27T08:25:41Z</time>
      </trkpt>
      <trkpt lat="44.28224" lon="5.59691">
        <ele>966.468</ele>
        <time>2019-04-27T08:25:51Z</time>
      </trkpt>
      <trkpt lat="44.28211" lon="5.59707">
        <ele>968.17</ele>
        <time>2019-04-27T08:26:02Z</time>
      </trkpt>
      <trkpt lat="44.28197" lon="5.59722">
        <ele>969.107</ele>
        <time>2019-04-27T08:26:12Z</time>
      </trkpt>
      <trkpt lat="44.28183" lon="5.59738">
        <ele>970.115</ele>
        <time>2019-04-27T08:26:23Z</time>
      </trkpt>
      <trkpt lat="44.28166" lon="5.59757">
        <ele>970.895</ele>
        <time>2019-04-27T08:26:34Z</time>
      </trkpt>
      <trkpt lat="44.28154" lon="5.5978">
        <ele>972.181</ele>
        <time>2019-04-27T08:26:44Z</time>
      </trkpt>
      <trkpt lat="44.28136" lon="5.59801">
        <ele>973.507</ele>
        <time>2019-04-27T08:26:54Z</time>
      </trkpt>
      <trkpt lat="44.28109" lon="5.5981">
        <ele>974.861</ele>
        <time>2019-04-27T08:27:05Z</time>
      </trkpt>
      <trkpt lat="44.28087" lon="5.59826">
        <ele>976.346</ele>
        <time>2019-04-27T08:27:16Z</time>
      </trkpt>
      <trkpt lat="44.28071" lon="5.5984">
        <ele>977.559</ele>
        <time>2019-04-27T08:27:26Z</time>
      </trkpt>
      <trkpt lat="44.28063" lon="5.5986">
        <ele>979.103</ele>
        <time>2019-04-27T08:27:36Z</time>
      </trkpt>
      <trkpt lat="44.28048" lon="5.59875">
        <ele>981.132</ele>
        <time>2019-04-27T08:27:47Z</time>
      </trkpt>
      <trkpt lat="44.28032" lon="5.59881">
        <ele>982.872</ele>
        <time>2019-04-27T08:27:58Z</time>
      </trkpt>
      <trkpt lat="44.28014" lon="5.59883">
        <ele>984.381</ele>
        <time>2019-04-27T08:28:09Z</time>
      </trkpt>
      <trkpt lat="44.27998" lon="5.59897">
        <ele>985.928</ele>
        <time>2019-04-27T08:28:20Z</time>
      </trkpt>
      <trkpt lat="44.27991" lon="5.5992">
        <ele>987.681</ele>
        <time>2019-04-27T08:28:30Z</time>
      </trkpt>
      <trkpt lat="44.27985" lon="5.59942">
        <ele>989.525</ele>
        <time>2019-04-27T08:28:40Z</time>
      </trkpt>
      <trkpt lat="44.27978" lon="5.59967">
        <ele>991.526</ele>
        <time>2019-04-27T08:28:51Z</time>
      </trkpt>
      <trkpt lat="44.27973" lon="5.59992">
        <ele>993.283</ele>
        <time>2019-04-27T08:29:01Z</time>
      </trkpt>
      <trkpt lat="44.27963" lon="5.60013">
        <ele>994.876</ele>
        <time>2019-04-27T08:29:12Z</time>
      </trkpt>
      <trkpt lat="44.27964" lon="5.60013">
        <ele>995.17</ele>
        <time>2019-04-27T08:29:23Z</time>
      </trkpt>
      <trkpt lat="44.27964" lon="5.60013">
        <ele>995.304</ele>
        <time>2019-04-27T08:29:34Z</time>
      </trkpt>
      <trkpt lat="44.27964" lon="5.60013">
        <ele>995.442</ele>
        <time>2019-04-27T08:29:44Z</time>
      </trkpt>
      <trkpt lat="44.27964" lon="5.60013">
        <ele>995.583</ele>
        <time>2019-04-27T08:29:54Z</time>
      </trkpt>
      <trkpt lat="44.27964" lon="5.60014">
        <ele>995.679</ele>
        <time>2019-04-27T08:30:04Z</time>
      </trkpt>
      <trkpt lat="44.27964" lon="5.60014">
        <ele>995.753</ele>
        <time>2019-04-27T08:30:15Z</time>
      </trkpt>
      <trkpt lat="44.27965" lon="5.60014">
        <ele>995.817</ele>
        <time>2019-04-27T08:30:26Z</time>
      </trkpt>
      <trkpt lat="44.27965" lon="5.60014">
        <ele>995.847</ele>
        <time>2019-04-27T08:30:36Z</time>
      </trkpt>
      <trkpt lat="44.27965" lon="5.60014">
        <ele>995.879</ele>
        <time>2019-04-27T08:30:47Z</time>
      </trkpt>
      <trkpt lat="44.27965" lon="5.60014">
        <ele>995.947</ele>
        <time>2019-04-27T08:30:58Z</time>
      </trkpt>
      <trkpt lat="44.27965" lon="5.60014">
        <ele>995.997</ele>
        <time>2019-04-27T08:31:09Z</time>
      </trkpt>
      <trkpt lat="44.27965" lon="5.60015">
        <ele>996.053</ele>
        <time>2019-04-27T08:31:19Z</time>
      </trkpt>
      <trkpt lat="44.27964" lon="5.60015">
        <ele>996.153</ele>
        <time>2019-04-27T08:31:30Z</time>
      </trkpt>
      <trkpt lat="44.27961" lon="5.60021">
        <ele>996.672</ele>
        <time>2019-04-27T08:31:41Z</time>
      </trkpt>
      <trkpt lat="44.27945" lon="5.60033">
        <ele>997.589</ele>
        <time>2019-04-27T08:31:52Z</time>
      </trkpt>
      <trkpt lat="44.27928" lon="5.60045">
        <ele>998.042</ele>
        <time>2019-04-27T08:32:02Z</time>
      </trkpt>
      <trkpt lat="44.27909" lon="5.60054">
        <ele>998.139</ele>
        <time>2019-04-27T08:32:13Z</time>
      </trkpt>
      <trkpt lat="44.27891" lon="5.60071">
        <ele>999.47</ele>
        <time>2019-04-27T08:32:24Z</time>
      </trkpt>
      <trkpt lat="44.27876" lon="5.60085">
        <ele>1000.732</ele>
        <time>2019-04-27T08:32:34Z</time>
      </trkpt>
      <trkpt lat="44.27859" lon="5.60104">
        <ele>1002.06</ele>
        <time>2019-04-27T08:32:45Z</time>
      </trkpt>
      <trkpt lat="44.27843" lon="5.60119">
        <ele>1003.593</ele>
        <time>2019-04-27T08:32:55Z</time>
      </trkpt>
      <trkpt lat="44.27823" lon="5.60132">
        <ele>1005.393</ele>
        <time>2019-04-27T08:33:06Z</time>
      </trkpt>
      <trkpt lat="44.27802" lon="5.60135">
        <ele>1006.517</ele>
        <time>2019-04-27T08:33:17Z</time>
      </trkpt>
      <trkpt lat="44.27783" lon="5.60129">
        <ele>1007.87</ele>
        <time>2019-04-27T08:33:27Z</time>
      </trkpt>
      <trkpt lat="44.27761" lon="5.6013">
        <ele>1009</ele>
        <time>2019-04-27T08:33:38Z</time>
      </trkpt>
      <trkpt lat="44.27743" lon="5.60142">
        <ele>1010.143</ele>
        <time>2019-04-27T08:33:49Z</time>
      </trkpt>
      <trkpt lat="44.27727" lon="5.60155">
        <ele>1011.539</ele>
        <time>2019-04-27T08:33:59Z</time>
      </trkpt>
      <trkpt lat="44.27712" lon="5.60169">
        <ele>1013.021</ele>
        <time>2019-04-27T08:34:10Z</time>
      </trkpt>
      <trkpt lat="44.27701" lon="5.60191">
        <ele>1014.718</ele>
        <time>2019-04-27T08:34:21Z</time>
      </trkpt>
      <trkpt lat="44.27707" lon="5.60217">
        <ele>1016.276</ele>
        <time>2019-04-27T08:34:32Z</time>
      </trkpt>
      <trkpt lat="44.27726" lon="5.60233">
        <ele>1017.934</ele>
        <time>2019-04-27T08:34:43Z</time>
      </trkpt>
      <trkpt lat="44.27741" lon="5.6025">
        <ele>1019.358</ele>
        <time>2019-04-27T08:34:54Z</time>
      </trkpt>
      <trkpt lat="44.27732" lon="5.60268">
        <ele>1020.461</ele>
        <time>2019-04-27T08:35:04Z</time>
      </trkpt>
      <trkpt lat="44.27717" lon="5.60284">
        <ele>1022.084</ele>
        <time>2019-04-27T08:35:14Z</time>
      </trkpt>
      <trkpt lat="44.27715" lon="5.60311">
        <ele>1023.619</ele>
        <time>2019-04-27T08:35:25Z</time>
      </trkpt>
      <trkpt lat="44.27718" lon="5.60335">
        <ele>1025.026</ele>
        <time>2019-04-27T08:35:35Z</time>
      </trkpt>
      <trkpt lat="44.2772" lon="5.60361">
        <ele>1026.087</ele>
        <time>2019-04-27T08:35:46Z</time>
      </trkpt>
      <trkpt lat="44.2772" lon="5.60384">
        <ele>1027.184</ele>
        <time>2019-04-27T08:35:56Z</time>
      </trkpt>
      <trkpt lat="44.27719" lon="5.60408">
        <ele>1028.146</ele>
        <time>2019-04-27T08:36:07Z</time>
      </trkpt>
      <trkpt lat="44.27715" lon="5.60432">
        <ele>1028.908</ele>
        <time>2019-04-27T08:36:17Z</time>
      </trkpt>
      <trkpt lat="44.27703" lon="5.60451">
        <ele>1030.326</ele>
        <time>2019-04-27T08:36:27Z</time>
      </trkpt>
      <trkpt lat="44.27689" lon="5.60464">
        <ele>1032.256</ele>
        <time>2019-04-27T08:36:38Z</time>
      </trkpt>
      <trkpt lat="44.27673" lon="5.60475">
        <ele>1033.614</ele>
        <time>2019-04-27T08:36:48Z</time>
      </trkpt>
      <trkpt lat="44.27657" lon="5.60476">
        <ele>1034.635</ele>
        <time>2019-04-27T08:36:58Z</time>
      </trkpt>
      <trkpt lat="44.27641" lon="5.60476">
        <ele>1036.061</ele>
        <time>2019-04-27T08:37:09Z</time>
      </trkpt>
      <trkpt lat="44.27621" lon="5.60476">
        <ele>1037.15</ele>
        <time>2019-04-27T08:37:20Z</time>
      </trkpt>
      <trkpt lat="44.27601" lon="5.60475">
        <ele>1038.179</ele>
        <time>2019-04-27T08:37:31Z</time>
      </trkpt>
      <trkpt lat="44.27584" lon="5.60473">
        <ele>1039.139</ele>
        <time>2019-04-27T08:37:41Z</time>
      </trkpt>
      <trkpt lat="44.27567" lon="5.60467">
        <ele>1040.308</ele>
        <time>2019-04-27T08:37:51Z</time>
      </trkpt>
      <trkpt lat="44.27546" lon="5.60454">
        <ele>1041.644</ele>
        <time>2019-04-27T08:38:02Z</time>
      </trkpt>
      <trkpt lat="44.27529" lon="5.6044">
        <ele>1043.343</ele>
        <time>2019-04-27T08:38:13Z</time>
      </trkpt>
      <trkpt lat="44.27511" lon="5.60431">
        <ele>1044.712</ele>
        <time>2019-04-27T08:38:23Z</time>
      </trkpt>
      <trkpt lat="44.27505" lon="5.60453">
        <ele>1046.048</ele>
        <time>2019-04-27T08:38:34Z</time>
      </trkpt>
      <trkpt lat="44.27509" lon="5.6048">
        <ele>1047.473</ele>
        <time>2019-04-27T08:38:44Z</time>
      </trkpt>
      <trkpt lat="44.27507" lon="5.60503">
        <ele>1049.415</ele>
        <time>2019-04-27T08:38:54Z</time>
      </trkpt>
      <trkpt lat="44.27499" lon="5.60524">
        <ele>1051.1</ele>
        <time>2019-04-27T08:39:04Z</time>
      </trkpt>
      <trkpt lat="44.27492" lon="5.60548">
        <ele>1052.576</ele>
        <time>2019-04-27T08:39:15Z</time>
      </trkpt>
      <trkpt lat="44.27486" lon="5.6057">
        <ele>1053.723</ele>
        <time>2019-04-27T08:39:25Z</time>
      </trkpt>
      <trkpt lat="44.2748" lon="5.60594">
        <ele>1055.252</ele>
        <time>2019-04-27T08:39:36Z</time>
      </trkpt>
      <trkpt lat="44.27466" lon="5.60615">
        <ele>1057.141</ele>
        <time>2019-04-27T08:39:47Z</time>
      </trkpt>
      <trkpt lat="44.2745" lon="5.60624">
        <ele>1058.882</ele>
        <time>2019-04-27T08:39:58Z</time>
      </trkpt>
      <trkpt lat="44.27433" lon="5.60634">
        <ele>1060.137</ele>
        <time>2019-04-27T08:40:09Z</time>
      </trkpt>
      <trkpt lat="44.27423" lon="5.60657">
        <ele>1061.503</ele>
        <time>2019-04-27T08:40:20Z</time>
      </trkpt>
      <trkpt lat="44.2742" lon="5.60687">
        <ele>1063.732</ele>
        <time>2019-04-27T08:40:31Z</time>
      </trkpt>
      <trkpt lat="44.27406" lon="5.60708">
        <ele>1065.648</ele>
        <time>2019-04-27T08:40:42Z</time>
      </trkpt>
      <trkpt lat="44.27389" lon="5.60715">
        <ele>1067.511</ele>
        <time>2019-04-27T08:40:53Z</time>
      </trkpt>
      <trkpt lat="44.27368" lon="5.60716">
        <ele>1069.199</ele>
        <time>2019-04-27T08:41:04Z</time>
      </trkpt>
      <trkpt lat="44.27352" lon="5.60725">
        <ele>1069.976</ele>
        <time>2019-04-27T08:41:14Z</time>
      </trkpt>
      <trkpt lat="44.27333" lon="5.60741">
        <ele>1070.95</ele>
        <time>2019-04-27T08:41:24Z</time>
      </trkpt>
      <trkpt lat="44.27319" lon="5.60767">
        <ele>1072.565</ele>
        <time>2019-04-27T08:41:35Z</time>
      </trkpt>
      <trkpt lat="44.27311" lon="5.60792">
        <ele>1074.155</ele>
        <time>2019-04-27T08:41:45Z</time>
      </trkpt>
      <trkpt lat="44.27307" lon="5.60824">
        <ele>1076.038</ele>
        <time>2019-04-27T08:41:56Z</time>
      </trkpt>
      <trkpt lat="44.2732" lon="5.60841">
        <ele>1077.241</ele>
        <time>2019-04-27T08:42:06Z</time>
      </trkpt>
      <trkpt lat="44.27319" lon="5.60862">
        <ele>1078.971</ele>
        <time>2019-04-27T08:42:17Z</time>
      </trkpt>
      <trkpt lat="44.27308" lon="5.60876">
        <ele>1080.434</ele>
        <time>2019-04-27T08:42:27Z</time>
      </trkpt>
      <trkpt lat="44.27297" lon="5.60892">
        <ele>1082.038</ele>
        <time>2019-04-27T08:42:38Z</time>
      </trkpt>
      <trkpt lat="44.2729" lon="5.60913">
        <ele>1083.382</ele>
        <time>2019-04-27T08:42:49Z</time>
      </trkpt>
      <trkpt lat="44.27284" lon="5.60934">
        <ele>1084.455</ele>
        <time>2019-04-27T08:43:00Z</time>
      </trkpt>
      <trkpt lat="44.27277" lon="5.60953">
        <ele>1085.389</ele>
        <time>2019-04-27T08:43:10Z</time>
      </trkpt>
      <trkpt lat="44.27262" lon="5.60965">
        <ele>1086.599</ele>
        <time>2019-04-27T08:43:21Z</time>
      </trkpt>
      <trkpt lat="44.27244" lon="5.60972">
        <ele>1087.974</ele>
        <time>2019-04-27T08:43:32Z</time>
      </trkpt>
      <trkpt lat="44.27225" lon="5.60979">
        <ele>1089.46</ele>
        <time>2019-04-27T08:43:42Z</time>
      </trkpt>
      <trkpt lat="44.27203" lon="5.60988">
        <ele>1091.316</ele>
        <time>2019-04-27T08:43:52Z</time>
      </trkpt>
      <trkpt lat="44.2718" lon="5.60998">
        <ele>1093.465</ele>
        <time>2019-04-27T08:44:03Z</time>
      </trkpt>
      <trkpt lat="44.27157" lon="5.61009">
        <ele>1097.689</ele>
        <time>2019-04-27T08:44:14Z</time>
      </trkpt>
      <trkpt lat="44.27139" lon="5.61024">
        <ele>1099.432</ele>
        <time>2019-04-27T08:44:25Z</time>
      </trkpt>
      <trkpt lat="44.27116" lon="5.61036">
        <ele>1101.529</ele>
        <time>2019-04-27T08:44:36Z</time>
      </trkpt>
      <trkpt lat="44.271" lon="5.6104">
        <ele>1103.386</ele>
        <time>2019-04-27T08:44:46Z</time>
      </trkpt>
      <trkpt lat="44.27086" lon="5.61049">
        <ele>1104.907</ele>
        <time>2019-04-27T08:44:56Z</time>
      </trkpt>
      <trkpt lat="44.27071" lon="5.61058">
        <ele>1106.146</ele>
        <time>2019-04-27T08:45:07Z</time>
      </trkpt>
      <trkpt lat="44.27054" lon="5.61063">
        <ele>1107.822</ele>
        <time>2019-04-27T08:45:17Z</time>
      </trkpt>
      <trkpt lat="44.27037" lon="5.61068">
        <ele>1109.485</ele>
        <time>2019-04-27T08:45:28Z</time>
      </trkpt>
      <trkpt lat="44.2702" lon="5.61073">
        <ele>1111.054</ele>
        <time>2019-04-27T08:45:39Z</time>
      </trkpt>
      <trkpt lat="44.27005" lon="5.61085">
        <ele>1112.362</ele>
        <time>2019-04-27T08:45:50Z</time>
      </trkpt>
      <trkpt lat="44.26986" lon="5.61102">
        <ele>1113.563</ele>
        <time>2019-04-27T08:46:01Z</time>
      </trkpt>
      <trkpt lat="44.26964" lon="5.61119">
        <ele>1114.749</ele>
        <time>2019-04-27T08:46:12Z</time>
      </trkpt>
      <trkpt lat="44.26944" lon="5.61133">
        <ele>1116.164</ele>
        <time>2019-04-27T08:46:23Z</time>
      </trkpt>
      <trkpt lat="44.26927" lon="5.61146">
        <ele>1118.006</ele>
        <time>2019-04-27T08:46:34Z</time>
      </trkpt>
      <trkpt lat="44.26915" lon="5.61162">
        <ele>1119.22</ele>
        <time>2019-04-27T08:46:44Z</time>
      </trkpt>
      <trkpt lat="44.26902" lon="5.61178">
        <ele>1120.54</ele>
        <time>2019-04-27T08:46:55Z</time>
      </trkpt>
      <trkpt lat="44.2689" lon="5.61189">
        <ele>1121.56</ele>
        <time>2019-04-27T08:47:05Z</time>
      </trkpt>
      <trkpt lat="44.26878" lon="5.61198">
        <ele>1122.403</ele>
        <time>2019-04-27T08:47:15Z</time>
      </trkpt>
      <trkpt lat="44.26864" lon="5.61208">
        <ele>1123.468</ele>
        <time>2019-04-27T08:47:26Z</time>
      </trkpt>
      <trkpt lat="44.26851" lon="5.61216">
        <ele>1124.533</ele>
        <time>2019-04-27T08:47:36Z</time>
      </trkpt>
      <trkpt lat="44.26839" lon="5.61228">
        <ele>1125.793</ele>
        <time>2019-04-27T08:47:46Z</time>
      </trkpt>
      <trkpt lat="44.26827" lon="5.61242">
        <ele>1127.353</ele>
        <time>2019-04-27T08:47:57Z</time>
      </trkpt>
      <trkpt lat="44.26818" lon="5.61258">
        <ele>1128.707</ele>
        <time>2019-04-27T08:48:07Z</time>
      </trkpt>
      <trkpt lat="44.26808" lon="5.61279">
        <ele>1130.081</ele>
        <time>2019-04-27T08:48:17Z</time>
      </trkpt>
      <trkpt lat="44.26795" lon="5.61297">
        <ele>1131.741</ele>
        <time>2019-04-27T08:48:28Z</time>
      </trkpt>
      <trkpt lat="44.26783" lon="5.61315">
        <ele>1133.356</ele>
        <time>2019-04-27T08:48:39Z</time>
      </trkpt>
      <trkpt lat="44.26769" lon="5.61334">
        <ele>1134.915</ele>
        <time>2019-04-27T08:48:49Z</time>
      </trkpt>
      <trkpt lat="44.26753" lon="5.61353">
        <ele>1136.855</ele>
        <time>2019-04-27T08:49:00Z</time>
      </trkpt>
      <trkpt lat="44.26739" lon="5.61369">
        <ele>1138.491</ele>
        <time>2019-04-27T08:49:10Z</time>
      </trkpt>
      <trkpt lat="44.26724" lon="5.61386">
        <ele>1140.178</ele>
        <time>2019-04-27T08:49:20Z</time>
      </trkpt>
      <trkpt lat="44.26711" lon="5.61402">
        <ele>1141.88</ele>
        <time>2019-04-27T08:49:31Z</time>
      </trkpt>
      <trkpt lat="44.26698" lon="5.61415">
        <ele>1143.314</ele>
        <time>2019-04-27T08:49:41Z</time>
      </trkpt>
      <trkpt lat="44.26684" lon="5.6143">
        <ele>1144.312</ele>
        <time>2019-04-27T08:49:52Z</time>
      </trkpt>
      <trkpt lat="44.2667" lon="5.61442">
        <ele>1145.143</ele>
        <time>2019-04-27T08:50:03Z</time>
      </trkpt>
      <trkpt lat="44.26651" lon="5.61452">
        <ele>1146.306</ele>
        <time>2019-04-27T08:50:14Z</time>
      </trkpt>
      <trkpt lat="44.26636" lon="5.61459">
        <ele>1147.6</ele>
        <time>2019-04-27T08:50:24Z</time>
      </trkpt>
      <trkpt lat="44.26618" lon="5.61469">
        <ele>1149.182</ele>
        <time>2019-04-27T08:50:35Z</time>
      </trkpt>
      <trkpt lat="44.26604" lon="5.6149">
        <ele>1151.45</ele>
        <time>2019-04-27T08:50:46Z</time>
      </trkpt>
      <trkpt lat="44.26592" lon="5.61515">
        <ele>1153.405</ele>
        <time>2019-04-27T08:50:56Z</time>
      </trkpt>
      <trkpt lat="44.26579" lon="5.61541">
        <ele>1155.202</ele>
        <time>2019-04-27T08:51:07Z</time>
      </trkpt>
      <trkpt lat="44.26566" lon="5.61565">
        <ele>1157.281</ele>
        <time>2019-04-27T08:51:17Z</time>
      </trkpt>
      <trkpt lat="44.26558" lon="5.61596">
        <ele>1159.455</ele>
        <time>2019-04-27T08:51:28Z</time>
      </trkpt>
      <trkpt lat="44.26555" lon="5.61627">
        <ele>1161.684</ele>
        <time>2019-04-27T08:51:38Z</time>
      </trkpt>
      <trkpt lat="44.26544" lon="5.6165">
        <ele>1164.484</ele>
        <time>2019-04-27T08:51:49Z</time>
      </trkpt>
      <trkpt lat="44.26539" lon="5.61682">
        <ele>1166.398</ele>
        <time>2019-04-27T08:52:00Z</time>
      </trkpt>
      <trkpt lat="44.26541" lon="5.61713">
        <ele>1167.778</ele>
        <time>2019-04-27T08:52:10Z</time>
      </trkpt>
      <trkpt lat="44.26549" lon="5.61748">
        <ele>1169.614</ele>
        <time>2019-04-27T08:52:21Z</time>
      </trkpt>
      <trkpt lat="44.26548" lon="5.61778">
        <ele>1171.537</ele>
        <time>2019-04-27T08:52:32Z</time>
      </trkpt>
      <trkpt lat="44.26537" lon="5.61798">
        <ele>1173.433</ele>
        <time>2019-04-27T08:52:43Z</time>
      </trkpt>
      <trkpt lat="44.2652" lon="5.61806">
        <ele>1174.699</ele>
        <time>2019-04-27T08:52:54Z</time>
      </trkpt>
      <trkpt lat="44.26503" lon="5.61806">
        <ele>1175.848</ele>
        <time>2019-04-27T08:53:04Z</time>
      </trkpt>
      <trkpt lat="44.26483" lon="5.61813">
        <ele>1176.921</ele>
        <time>2019-04-27T08:53:15Z</time>
      </trkpt>
      <trkpt lat="44.26471" lon="5.61833">
        <ele>1177.547</ele>
        <time>2019-04-27T08:53:26Z</time>
      </trkpt>
      <trkpt lat="44.2646" lon="5.61853">
        <ele>1178.177</ele>
        <time>2019-04-27T08:53:36Z</time>
      </trkpt>
      <trkpt lat="44.26449" lon="5.61874">
        <ele>1179.66</ele>
        <time>2019-04-27T08:53:47Z</time>
      </trkpt>
      <trkpt lat="44.26438" lon="5.61902">
        <ele>1181.627</ele>
        <time>2019-04-27T08:53:58Z</time>
      </trkpt>
      <trkpt lat="44.26428" lon="5.61933">
        <ele>1183.146</ele>
        <time>2019-04-27T08:54:09Z</time>
      </trkpt>
      <trkpt lat="44.26422" lon="5.61957">
        <ele>1184.62</ele>
        <time>2019-04-27T08:54:20Z</time>
      </trkpt>
      <trkpt lat="44.26413" lon="5.61978">
        <ele>1186.54</ele>
        <time>2019-04-27T08:54:30Z</time>
      </trkpt>
      <trkpt lat="44.264" lon="5.61996">
        <ele>1188.217</ele>
        <time>2019-04-27T08:54:41Z</time>
      </trkpt>
      <trkpt lat="44.26386" lon="5.62008">
        <ele>1189.397</ele>
        <time>2019-04-27T08:54:51Z</time>
      </trkpt>
      <trkpt lat="44.2637" lon="5.62021">
        <ele>1190.94</ele>
        <time>2019-04-27T08:55:02Z</time>
      </trkpt>
      <trkpt lat="44.26353" lon="5.62035">
        <ele>1192.672</ele>
        <time>2019-04-27T08:55:13Z</time>
      </trkpt>
      <trkpt lat="44.26336" lon="5.62051">
        <ele>1194.264</ele>
        <time>2019-04-27T08:55:24Z</time>
      </trkpt>
      <trkpt lat="44.26321" lon="5.62071">
        <ele>1195.714</ele>
        <time>2019-04-27T08:55:35Z</time>
      </trkpt>
      <trkpt lat="44.26306" lon="5.62084">
        <ele>1197.104</ele>
        <time>2019-04-27T08:55:45Z</time>
      </trkpt>
      <trkpt lat="44.26289" lon="5.62104">
        <ele>1198.889</ele>
        <time>2019-04-27T08:55:56Z</time>
      </trkpt>
      <trkpt lat="44.26273" lon="5.62126">
        <ele>1200.808</ele>
        <time>2019-04-27T08:56:07Z</time>
      </trkpt>
      <trkpt lat="44.26263" lon="5.6215">
        <ele>1202.27</ele>
        <time>2019-04-27T08:56:17Z</time>
      </trkpt>
      <trkpt lat="44.26251" lon="5.62174">
        <ele>1203.98</ele>
        <time>2019-04-27T08:56:28Z</time>
      </trkpt>
      <trkpt lat="44.26244" lon="5.62199">
        <ele>1205.242</ele>
        <time>2019-04-27T08:56:38Z</time>
      </trkpt>
      <trkpt lat="44.26244" lon="5.622">
        <ele>1205.602</ele>
        <time>2019-04-27T08:56:48Z</time>
      </trkpt>
      <trkpt lat="44.26244" lon="5.622">
        <ele>1205.768</ele>
        <time>2019-04-27T08:56:59Z</time>
      </trkpt>
      <trkpt lat="44.26243" lon="5.622">
        <ele>1205.854</ele>
        <time>2019-04-27T08:57:09Z</time>
      </trkpt>
      <trkpt lat="44.26244" lon="5.622">
        <ele>1205.853</ele>
        <time>2019-04-27T08:57:20Z</time>
      </trkpt>
      <trkpt lat="44.26244" lon="5.62199">
        <ele>1205.831</ele>
        <time>2019-04-27T08:57:30Z</time>
      </trkpt>
      <trkpt lat="44.26244" lon="5.62199">
        <ele>1205.788</ele>
        <time>2019-04-27T08:57:41Z</time>
      </trkpt>
      <trkpt lat="44.26245" lon="5.62199">
        <ele>1205.721</ele>
        <time>2019-04-27T08:57:52Z</time>
      </trkpt>
      <trkpt lat="44.26245" lon="5.62199">
        <ele>1205.67</ele>
        <time>2019-04-27T08:58:03Z</time>
      </trkpt>
      <trkpt lat="44.26245" lon="5.62199">
        <ele>1205.653</ele>
        <time>2019-04-27T08:58:14Z</time>
      </trkpt>
      <trkpt lat="44.26246" lon="5.62199">
        <ele>1205.708</ele>
        <time>2019-04-27T08:58:24Z</time>
      </trkpt>
      <trkpt lat="44.26246" lon="5.62199">
        <ele>1205.787</ele>
        <time>2019-04-27T08:58:35Z</time>
      </trkpt>
      <trkpt lat="44.26246" lon="5.622">
        <ele>1205.869</ele>
        <time>2019-04-27T08:58:46Z</time>
      </trkpt>
      <trkpt lat="44.26246" lon="5.622">
        <ele>1205.948</ele>
        <time>2019-04-27T08:58:56Z</time>
      </trkpt>
      <trkpt lat="44.26246" lon="5.622">
        <ele>1206.039</ele>
        <time>2019-04-27T08:59:07Z</time>
      </trkpt>
      <trkpt lat="44.26245" lon="5.622">
        <ele>1206.138</ele>
        <time>2019-04-27T08:59:18Z</time>
      </trkpt>
      <trkpt lat="44.26245" lon="5.622">
        <ele>1206.236</ele>
        <time>2019-04-27T08:59:29Z</time>
      </trkpt>
      <trkpt lat="44.26245" lon="5.622">
        <ele>1206.328</ele>
        <time>2019-04-27T08:59:40Z</time>
      </trkpt>
      <trkpt lat="44.26244" lon="5.62198">
        <ele>1206.588</ele>
        <time>2019-04-27T08:59:51Z</time>
      </trkpt>
      <trkpt lat="44.26245" lon="5.62196">
        <ele>1206.672</ele>
        <time>2019-04-27T09:00:01Z</time>
      </trkpt>
      <trkpt lat="44.26246" lon="5.62195">
        <ele>1206.721</ele>
        <time>2019-04-27T09:00:12Z</time>
      </trkpt>
      <trkpt lat="44.26246" lon="5.62195">
        <ele>1206.717</ele>
        <time>2019-04-27T09:00:22Z</time>
      </trkpt>
      <trkpt lat="44.26242" lon="5.62192">
        <ele>1206.895</ele>
        <time>2019-04-27T09:00:32Z</time>
      </trkpt>
      <trkpt lat="44.26226" lon="5.62187">
        <ele>1207.061</ele>
        <time>2019-04-27T09:00:43Z</time>
      </trkpt>
      <trkpt lat="44.2623" lon="5.62184">
        <ele>1207.181</ele>
        <time>2019-04-27T09:00:54Z</time>
      </trkpt>
      <trkpt lat="44.26231" lon="5.62185">
        <ele>1207.514</ele>
        <time>2019-04-27T09:01:05Z</time>
      </trkpt>
      <trkpt lat="44.26231" lon="5.62186">
        <ele>1207.182</ele>
        <time>2019-04-27T09:01:16Z</time>
      </trkpt>
      <trkpt lat="44.26233" lon="5.62187">
        <ele>1207.251</ele>
        <time>2019-04-27T09:01:27Z</time>
      </trkpt>
      <trkpt lat="44.2623" lon="5.62183">
        <ele>1207.928</ele>
        <time>2019-04-27T09:01:37Z</time>
      </trkpt>
      <trkpt lat="44.2623" lon="5.62181">
        <ele>1208.571</ele>
        <time>2019-04-27T09:01:48Z</time>
      </trkpt>
      <trkpt lat="44.2623" lon="5.62182">
        <ele>1208.685</ele>
        <time>2019-04-27T09:01:58Z</time>
      </trkpt>
      <trkpt lat="44.26229" lon="5.62182">
        <ele>1208.738</ele>
        <time>2019-04-27T09:02:09Z</time>
      </trkpt>
      <trkpt lat="44.26229" lon="5.62183">
        <ele>1208.76</ele>
        <time>2019-04-27T09:02:20Z</time>
      </trkpt>
      <trkpt lat="44.26229" lon="5.62183">
        <ele>1208.755</ele>
        <time>2019-04-27T09:02:31Z</time>
      </trkpt>
      <trkpt lat="44.26229" lon="5.62183">
        <ele>1208.747</ele>
        <time>2019-04-27T09:02:42Z</time>
      </trkpt>
      <trkpt lat="44.26229" lon="5.62183">
        <ele>1208.748</ele>
        <time>2019-04-27T09:02:53Z</time>
      </trkpt>
      <trkpt lat="44.26229" lon="5.62183">
        <ele>1208.72</ele>
        <time>2019-04-27T09:03:04Z</time>
      </trkpt>
      <trkpt lat="44.26229" lon="5.62184">
        <ele>1208.712</ele>
        <time>2019-04-27T09:03:15Z</time>
      </trkpt>
      <trkpt lat="44.26229" lon="5.62185">
        <ele>1208.814</ele>
        <time>2019-04-27T09:03:25Z</time>
      </trkpt>
      <trkpt lat="44.26228" lon="5.62186">
        <ele>1208.871</ele>
        <time>2019-04-27T09:03:36Z</time>
      </trkpt>
      <trkpt lat="44.26228" lon="5.62185">
        <ele>1208.894</ele>
        <time>2019-04-27T09:03:47Z</time>
      </trkpt>
      <trkpt lat="44.26228" lon="5.62186">
        <ele>1209.01</ele>
        <time>2019-04-27T09:03:57Z</time>
      </trkpt>
      <trkpt lat="44.26227" lon="5.62186">
        <ele>1209.13</ele>
        <time>2019-04-27T09:04:08Z</time>
      </trkpt>
      <trkpt lat="44.26226" lon="5.62183">
        <ele>1209.5</ele>
        <time>2019-04-27T09:04:18Z</time>
      </trkpt>
      <trkpt lat="44.26229" lon="5.62192">
        <ele>1209.078</ele>
        <time>2019-04-27T09:04:29Z</time>
      </trkpt>
      <trkpt lat="44.26238" lon="5.62195">
        <ele>1208.823</ele>
        <time>2019-04-27T09:04:39Z</time>
      </trkpt>
      <trkpt lat="44.26243" lon="5.62199">
        <ele>1208.681</ele>
        <time>2019-04-27T09:04:50Z</time>
      </trkpt>
      <trkpt lat="44.26244" lon="5.62199">
        <ele>1208.688</ele>
        <time>2019-04-27T09:05:01Z</time>
      </trkpt>
      <trkpt lat="44.26244" lon="5.62199">
        <ele>1208.717</ele>
        <time>2019-04-27T09:05:11Z</time>
      </trkpt>
      <trkpt lat="44.26244" lon="5.62199">
        <ele>1208.749</ele>
        <time>2019-04-27T09:05:21Z</time>
      </trkpt>
      <trkpt lat="44.26243" lon="5.622">
        <ele>1208.741</ele>
        <time>2019-04-27T09:05:32Z</time>
      </trkpt>
      <trkpt lat="44.26243" lon="5.62201">
        <ele>1208.737</ele>
        <time>2019-04-27T09:05:42Z</time>
      </trkpt>
      <trkpt lat="44.26237" lon="5.62194">
        <ele>1208.58</ele>
        <time>2019-04-27T09:05:53Z</time>
      </trkpt>
      <trkpt lat="44.26236" lon="5.62196">
        <ele>1208.324</ele>
        <time>2019-04-27T09:06:03Z</time>
      </trkpt>
      <trkpt lat="44.26245" lon="5.622">
        <ele>1207.887</ele>
        <time>2019-04-27T09:06:13Z</time>
      </trkpt>
      <trkpt lat="44.26244" lon="5.62198">
        <ele>1208.202</ele>
        <time>2019-04-27T09:06:24Z</time>
      </trkpt>
      <trkpt lat="44.26243" lon="5.62198">
        <ele>1208.51</ele>
        <time>2019-04-27T09:06:35Z</time>
      </trkpt>
      <trkpt lat="44.26243" lon="5.62199">
        <ele>1208.59</ele>
        <time>2019-04-27T09:06:47Z</time>
      </trkpt>
      <trkpt lat="44.26245" lon="5.62199">
        <ele>1208.663</ele>
        <time>2019-04-27T09:06:57Z</time>
      </trkpt>
      <trkpt lat="44.26245" lon="5.62199">
        <ele>1208.715</ele>
        <time>2019-04-27T09:07:07Z</time>
      </trkpt>
      <trkpt lat="44.26245" lon="5.62199">
        <ele>1208.753</ele>
        <time>2019-04-27T09:07:18Z</time>
      </trkpt>
      <trkpt lat="44.26245" lon="5.62198">
        <ele>1208.789</ele>
        <time>2019-04-27T09:07:28Z</time>
      </trkpt>
      <trkpt lat="44.26245" lon="5.62199">
        <ele>1208.806</ele>
        <time>2019-04-27T09:07:39Z</time>
      </trkpt>
      <trkpt lat="44.26245" lon="5.62198">
        <ele>1208.818</ele>
        <time>2019-04-27T09:07:49Z</time>
      </trkpt>
      <trkpt lat="44.26245" lon="5.62199">
        <ele>1208.812</ele>
        <time>2019-04-27T09:08:00Z</time>
      </trkpt>
      <trkpt lat="44.26246" lon="5.62199">
        <ele>1208.81</ele>
        <time>2019-04-27T09:08:11Z</time>
      </trkpt>
      <trkpt lat="44.26246" lon="5.622">
        <ele>1208.82</ele>
        <time>2019-04-27T09:08:21Z</time>
      </trkpt>
      <trkpt lat="44.26246" lon="5.622">
        <ele>1208.823</ele>
        <time>2019-04-27T09:08:32Z</time>
      </trkpt>
      <trkpt lat="44.26246" lon="5.622">
        <ele>1208.787</ele>
        <time>2019-04-27T09:08:42Z</time>
      </trkpt>
      <trkpt lat="44.26246" lon="5.622">
        <ele>1208.742</ele>
        <time>2019-04-27T09:08:52Z</time>
      </trkpt>
      <trkpt lat="44.26246" lon="5.622">
        <ele>1208.695</ele>
        <time>2019-04-27T09:09:02Z</time>
      </trkpt>
      <trkpt lat="44.26246" lon="5.622">
        <ele>1208.693</ele>
        <time>2019-04-27T09:09:13Z</time>
      </trkpt>
      <trkpt lat="44.26245" lon="5.622">
        <ele>1208.729</ele>
        <time>2019-04-27T09:09:24Z</time>
      </trkpt>
      <trkpt lat="44.26245" lon="5.622">
        <ele>1208.761</ele>
        <time>2019-04-27T09:09:34Z</time>
      </trkpt>
      <trkpt lat="44.26245" lon="5.62201">
        <ele>1208.823</ele>
        <time>2019-04-27T09:09:45Z</time>
      </trkpt>
      <trkpt lat="44.26245" lon="5.62201">
        <ele>1208.898</ele>
        <time>2019-04-27T09:09:56Z</time>
      </trkpt>
      <trkpt lat="44.26245" lon="5.62201">
        <ele>1208.974</ele>
        <time>2019-04-27T09:10:07Z</time>
      </trkpt>
      <trkpt lat="44.26245" lon="5.62201">
        <ele>1209.092</ele>
        <time>2019-04-27T09:10:18Z</time>
      </trkpt>
      <trkpt lat="44.26245" lon="5.62201">
        <ele>1209.142</ele>
        <time>2019-04-27T09:10:29Z</time>
      </trkpt>
      <trkpt lat="44.26244" lon="5.62201">
        <ele>1209.241</ele>
        <time>2019-04-27T09:10:40Z</time>
      </trkpt>
      <trkpt lat="44.26226" lon="5.62191">
        <ele>1209.057</ele>
        <time>2019-04-27T09:10:50Z</time>
      </trkpt>
      <trkpt lat="44.26173" lon="5.62156">
        <ele>1209.94</ele>
        <time>2019-04-27T09:11:01Z</time>
      </trkpt>
      <trkpt lat="44.26201" lon="5.62158">
        <ele>1208.398</ele>
        <time>2019-04-27T09:11:12Z</time>
      </trkpt>
      <trkpt lat="44.26205" lon="5.62157">
        <ele>1207.962</ele>
        <time>2019-04-27T09:11:22Z</time>
      </trkpt>
      <trkpt lat="44.26205" lon="5.62157">
        <ele>1207.916</ele>
        <time>2019-04-27T09:11:33Z</time>
      </trkpt>
      <trkpt lat="44.26205" lon="5.62157">
        <ele>1207.947</ele>
        <time>2019-04-27T09:11:44Z</time>
      </trkpt>
      <trkpt lat="44.26205" lon="5.62157">
        <ele>1207.977</ele>
        <time>2019-04-27T09:11:54Z</time>
      </trkpt>
      <trkpt lat="44.26205" lon="5.62157">
        <ele>1207.985</ele>
        <time>2019-04-27T09:12:04Z</time>
      </trkpt>
      <trkpt lat="44.26205" lon="5.62157">
        <ele>1207.969</ele>
        <time>2019-04-27T09:12:15Z</time>
      </trkpt>
      <trkpt lat="44.26205" lon="5.62157">
        <ele>1207.934</ele>
        <time>2019-04-27T09:12:25Z</time>
      </trkpt>
      <trkpt lat="44.26205" lon="5.62157">
        <ele>1207.867</ele>
        <time>2019-04-27T09:12:36Z</time>
      </trkpt>
      <trkpt lat="44.26205" lon="5.62157">
        <ele>1207.819</ele>
        <time>2019-04-27T09:12:46Z</time>
      </trkpt>
      <trkpt lat="44.26205" lon="5.62157">
        <ele>1207.765</ele>
        <time>2019-04-27T09:12:57Z</time>
      </trkpt>
      <trkpt lat="44.26205" lon="5.62157">
        <ele>1207.709</ele>
        <time>2019-04-27T09:13:08Z</time>
      </trkpt>
      <trkpt lat="44.26205" lon="5.62157">
        <ele>1207.661</ele>
        <time>2019-04-27T09:13:18Z</time>
      </trkpt>
      <trkpt lat="44.26205" lon="5.62157">
        <ele>1207.612</ele>
        <time>2019-04-27T09:13:29Z</time>
      </trkpt>
      <trkpt lat="44.26205" lon="5.62157">
        <ele>1207.565</ele>
        <time>2019-04-27T09:13:40Z</time>
      </trkpt>
      <trkpt lat="44.26205" lon="5.62157">
        <ele>1207.51</ele>
        <time>2019-04-27T09:13:51Z</time>
      </trkpt>
      <trkpt lat="44.26205" lon="5.62157">
        <ele>1207.456</ele>
        <time>2019-04-27T09:14:02Z</time>
      </trkpt>
      <trkpt lat="44.26205" lon="5.62157">
        <ele>1207.26</ele>
        <time>2019-04-27T09:14:12Z</time>
      </trkpt>
      <trkpt lat="44.26228" lon="5.62105">
        <ele>1204.988</ele>
        <time>2019-04-27T09:14:22Z</time>
      </trkpt>
      <trkpt lat="44.2622" lon="5.62016">
        <ele>1202.906</ele>
        <time>2019-04-27T09:14:33Z</time>
      </trkpt>
      <trkpt lat="44.26217" lon="5.62011">
        <ele>1202.463</ele>
        <time>2019-04-27T09:14:43Z</time>
      </trkpt>
      <trkpt lat="44.26216" lon="5.62007">
        <ele>1200.012</ele>
        <time>2019-04-27T09:14:53Z</time>
      </trkpt>
      <trkpt lat="44.26216" lon="5.62007">
        <ele>1199.921</ele>
        <time>2019-04-27T09:15:03Z</time>
      </trkpt>
      <trkpt lat="44.26216" lon="5.62007">
        <ele>1199.822</ele>
        <time>2019-04-27T09:15:14Z</time>
      </trkpt>
      <trkpt lat="44.26216" lon="5.62007">
        <ele>1199.724</ele>
        <time>2019-04-27T09:15:25Z</time>
      </trkpt>
      <trkpt lat="44.26216" lon="5.62007">
        <ele>1199.62</ele>
        <time>2019-04-27T09:15:36Z</time>
      </trkpt>
      <trkpt lat="44.26216" lon="5.62007">
        <ele>1199.52</ele>
        <time>2019-04-27T09:15:47Z</time>
      </trkpt>
      <trkpt lat="44.26217" lon="5.61985">
        <ele>1197.746</ele>
        <time>2019-04-27T09:15:58Z</time>
      </trkpt>
      <trkpt lat="44.26194" lon="5.61902">
        <ele>1193.779</ele>
        <time>2019-04-27T09:16:08Z</time>
      </trkpt>
      <trkpt lat="44.26155" lon="5.61783">
        <ele>1190.937</ele>
        <time>2019-04-27T09:16:18Z</time>
      </trkpt>
      <trkpt lat="44.26073" lon="5.61713">
        <ele>1187.544</ele>
        <time>2019-04-27T09:16:28Z</time>
      </trkpt>
      <trkpt lat="44.2598" lon="5.61634">
        <ele>1182.416</ele>
        <time>2019-04-27T09:16:39Z</time>
      </trkpt>
      <trkpt lat="44.25869" lon="5.61692">
        <ele>1176.176</ele>
        <time>2019-04-27T09:16:50Z</time>
      </trkpt>
      <trkpt lat="44.25765" lon="5.61713">
        <ele>1167.832</ele>
        <time>2019-04-27T09:17:01Z</time>
      </trkpt>
      <trkpt lat="44.25838" lon="5.6175">
        <ele>1157.598</ele>
        <time>2019-04-27T09:17:12Z</time>
      </trkpt>
      <trkpt lat="44.25927" lon="5.61787">
        <ele>1147.963</ele>
        <time>2019-04-27T09:17:23Z</time>
      </trkpt>
      <trkpt lat="44.25942" lon="5.61928">
        <ele>1140.376</ele>
        <time>2019-04-27T09:17:33Z</time>
      </trkpt>
      <trkpt lat="44.25893" lon="5.62042">
        <ele>1129.96</ele>
        <time>2019-04-27T09:17:44Z</time>
      </trkpt>
      <trkpt lat="44.25797" lon="5.62165">
        <ele>1120.42</ele>
        <time>2019-04-27T09:17:55Z</time>
      </trkpt>
      <trkpt lat="44.25696" lon="5.62207">
        <ele>1113.042</ele>
        <time>2019-04-27T09:18:06Z</time>
      </trkpt>
      <trkpt lat="44.25693" lon="5.62162">
        <ele>1106.312</ele>
        <time>2019-04-27T09:18:16Z</time>
      </trkpt>
      <trkpt lat="44.25722" lon="5.62023">
        <ele>1096.761</ele>
        <time>2019-04-27T09:18:27Z</time>
      </trkpt>
      <trkpt lat="44.257" lon="5.61977">
        <ele>1088.339</ele>
        <time>2019-04-27T09:18:38Z</time>
      </trkpt>
      <trkpt lat="44.25584" lon="5.61991">
        <ele>1080.398</ele>
        <time>2019-04-27T09:18:49Z</time>
      </trkpt>
      <trkpt lat="44.25495" lon="5.62015">
        <ele>1071.742</ele>
        <time>2019-04-27T09:18:59Z</time>
      </trkpt>
      <trkpt lat="44.25559" lon="5.62039">
        <ele>1063.346</ele>
        <time>2019-04-27T09:19:10Z</time>
      </trkpt>
      <trkpt lat="44.25478" lon="5.62048">
        <ele>1055.917</ele>
        <time>2019-04-27T09:19:20Z</time>
      </trkpt>
      <trkpt lat="44.25362" lon="5.62021">
        <ele>1048.296</ele>
        <time>2019-04-27T09:19:31Z</time>
      </trkpt>
      <trkpt lat="44.25235" lon="5.62058">
        <ele>1036.931</ele>
        <time>2019-04-27T09:19:42Z</time>
      </trkpt>
      <trkpt lat="44.25108" lon="5.62048">
        <ele>1025.685</ele>
        <time>2019-04-27T09:19:53Z</time>
      </trkpt>
      <trkpt lat="44.2505" lon="5.61956">
        <ele>1011.347</ele>
        <time>2019-04-27T09:20:04Z</time>
      </trkpt>
      <trkpt lat="44.25051" lon="5.61909">
        <ele>1007.547</ele>
        <time>2019-04-27T09:20:15Z</time>
      </trkpt>
      <trkpt lat="44.25051" lon="5.61909">
        <ele>1006.586</ele>
        <time>2019-04-27T09:20:27Z</time>
      </trkpt>
      <trkpt lat="44.25051" lon="5.61909">
        <ele>1005.553</ele>
        <time>2019-04-27T09:20:37Z</time>
      </trkpt>
      <trkpt lat="44.25046" lon="5.61881">
        <ele>997.098</ele>
        <time>2019-04-27T09:20:48Z</time>
      </trkpt>
      <trkpt lat="44.25083" lon="5.61795">
        <ele>986.267</ele>
        <time>2019-04-27T09:20:58Z</time>
      </trkpt>
      <trkpt lat="44.2503" lon="5.61764">
        <ele>982.988</ele>
        <time>2019-04-27T09:21:08Z</time>
      </trkpt>
      <trkpt lat="44.24959" lon="5.61657">
        <ele>977.074</ele>
        <time>2019-04-27T09:21:19Z</time>
      </trkpt>
      <trkpt lat="44.24955" lon="5.61551">
        <ele>968.925</ele>
        <time>2019-04-27T09:21:30Z</time>
      </trkpt>
      <trkpt lat="44.24855" lon="5.61521">
        <ele>960.796</ele>
        <time>2019-04-27T09:21:41Z</time>
      </trkpt>
      <trkpt lat="44.24801" lon="5.61408">
        <ele>951.189</ele>
        <time>2019-04-27T09:21:51Z</time>
      </trkpt>
      <trkpt lat="44.24732" lon="5.6131">
        <ele>943.112</ele>
        <time>2019-04-27T09:22:01Z</time>
      </trkpt>
      <trkpt lat="44.24718" lon="5.61157">
        <ele>935.382</ele>
        <time>2019-04-27T09:22:11Z</time>
      </trkpt>
      <trkpt lat="44.24709" lon="5.6104">
        <ele>929.506</ele>
        <time>2019-04-27T09:22:22Z</time>
      </trkpt>
      <trkpt lat="44.24693" lon="5.61154">
        <ele>921.961</ele>
        <time>2019-04-27T09:22:33Z</time>
      </trkpt>
      <trkpt lat="44.24679" lon="5.61305">
        <ele>915.833</ele>
        <time>2019-04-27T09:22:44Z</time>
      </trkpt>
      <trkpt lat="44.24702" lon="5.61447">
        <ele>909.788</ele>
        <time>2019-04-27T09:22:54Z</time>
      </trkpt>
      <trkpt lat="44.24679" lon="5.6156">
        <ele>902.972</ele>
        <time>2019-04-27T09:23:05Z</time>
      </trkpt>
      <trkpt lat="44.24639" lon="5.61483">
        <ele>897.575</ele>
        <time>2019-04-27T09:23:15Z</time>
      </trkpt>
      <trkpt lat="44.24589" lon="5.61365">
        <ele>891.368</ele>
        <time>2019-04-27T09:23:26Z</time>
      </trkpt>
      <trkpt lat="44.24556" lon="5.61221">
        <ele>885.052</ele>
        <time>2019-04-27T09:23:37Z</time>
      </trkpt>
      <trkpt lat="44.24505" lon="5.61114">
        <ele>878.765</ele>
        <time>2019-04-27T09:23:48Z</time>
      </trkpt>
      <trkpt lat="44.24429" lon="5.61012">
        <ele>873.491</ele>
        <time>2019-04-27T09:23:59Z</time>
      </trkpt>
      <trkpt lat="44.24354" lon="5.60945">
        <ele>868.32</ele>
        <time>2019-04-27T09:24:09Z</time>
      </trkpt>
      <trkpt lat="44.24261" lon="5.60896">
        <ele>860.915</ele>
        <time>2019-04-27T09:24:20Z</time>
      </trkpt>
      <trkpt lat="44.24225" lon="5.60834">
        <ele>855.033</ele>
        <time>2019-04-27T09:24:31Z</time>
      </trkpt>
      <trkpt lat="44.24145" lon="5.60812">
        <ele>848.902</ele>
        <time>2019-04-27T09:24:42Z</time>
      </trkpt>
      <trkpt lat="44.24127" lon="5.60811">
        <ele>848.378</ele>
        <time>2019-04-27T09:24:53Z</time>
      </trkpt>
      <trkpt lat="44.24118" lon="5.60813">
        <ele>847.426</ele>
        <time>2019-04-27T09:25:04Z</time>
      </trkpt>
      <trkpt lat="44.2408" lon="5.6081">
        <ele>842.548</ele>
        <time>2019-04-27T09:25:14Z</time>
      </trkpt>
      <trkpt lat="44.24023" lon="5.60806">
        <ele>840.03</ele>
        <time>2019-04-27T09:25:25Z</time>
      </trkpt>
      <trkpt lat="44.23976" lon="5.60809">
        <ele>839.519</ele>
        <time>2019-04-27T09:25:36Z</time>
      </trkpt>
      <trkpt lat="44.23928" lon="5.60764">
        <ele>839.859</ele>
        <time>2019-04-27T09:25:47Z</time>
      </trkpt>
      <trkpt lat="44.23886" lon="5.60741">
        <ele>837.973</ele>
        <time>2019-04-27T09:25:57Z</time>
      </trkpt>
      <trkpt lat="44.23829" lon="5.60706">
        <ele>835.44</ele>
        <time>2019-04-27T09:26:08Z</time>
      </trkpt>
      <trkpt lat="44.2382" lon="5.60699">
        <ele>835.212</ele>
        <time>2019-04-27T09:26:18Z</time>
      </trkpt>
      <trkpt lat="44.2382" lon="5.60699">
        <ele>834.279</ele>
        <time>2019-04-27T09:26:28Z</time>
      </trkpt>
      <trkpt lat="44.2382" lon="5.60699">
        <ele>834.06</ele>
        <time>2019-04-27T09:26:39Z</time>
      </trkpt>
      <trkpt lat="44.2382" lon="5.60699">
        <ele>833.891</ele>
        <time>2019-04-27T09:26:50Z</time>
      </trkpt>
      <trkpt lat="44.23805" lon="5.60694">
        <ele>833.066</ele>
        <time>2019-04-27T09:27:00Z</time>
      </trkpt>
      <trkpt lat="44.23758" lon="5.6068">
        <ele>828.796</ele>
        <time>2019-04-27T09:27:11Z</time>
      </trkpt>
      <trkpt lat="44.23695" lon="5.60683">
        <ele>826.726</ele>
        <time>2019-04-27T09:27:21Z</time>
      </trkpt>
      <trkpt lat="44.23659" lon="5.60689">
        <ele>826.34</ele>
        <time>2019-04-27T09:27:32Z</time>
      </trkpt>
      <trkpt lat="44.23609" lon="5.60713">
        <ele>825.694</ele>
        <time>2019-04-27T09:27:43Z</time>
      </trkpt>
      <trkpt lat="44.23553" lon="5.60756">
        <ele>824.534</ele>
        <time>2019-04-27T09:27:53Z</time>
      </trkpt>
      <trkpt lat="44.23504" lon="5.60823">
        <ele>823.46</ele>
        <time>2019-04-27T09:28:03Z</time>
      </trkpt>
      <trkpt lat="44.23457" lon="5.60892">
        <ele>824.415</ele>
        <time>2019-04-27T09:28:14Z</time>
      </trkpt>
      <trkpt lat="44.234" lon="5.6096">
        <ele>821.203</ele>
        <time>2019-04-27T09:28:25Z</time>
      </trkpt>
      <trkpt lat="44.23357" lon="5.60978">
        <ele>818.781</ele>
        <time>2019-04-27T09:28:35Z</time>
      </trkpt>
      <trkpt lat="44.23355" lon="5.60983">
        <ele>817.83</ele>
        <time>2019-04-27T09:28:45Z</time>
      </trkpt>
      <trkpt lat="44.23356" lon="5.60982">
        <ele>817.232</ele>
        <time>2019-04-27T09:28:56Z</time>
      </trkpt>
      <trkpt lat="44.23356" lon="5.60982">
        <ele>817.212</ele>
        <time>2019-04-27T09:29:06Z</time>
      </trkpt>
      <trkpt lat="44.23356" lon="5.60982">
        <ele>816.845</ele>
        <time>2019-04-27T09:29:17Z</time>
      </trkpt>
      <trkpt lat="44.23326" lon="5.60992">
        <ele>815.166</ele>
        <time>2019-04-27T09:29:27Z</time>
      </trkpt>
      <trkpt lat="44.23282" lon="5.61037">
        <ele>805.043</ele>
        <time>2019-04-27T09:29:38Z</time>
      </trkpt>
      <trkpt lat="44.23221" lon="5.61042">
        <ele>796.193</ele>
        <time>2019-04-27T09:29:49Z</time>
      </trkpt>
      <trkpt lat="44.23141" lon="5.61063">
        <ele>800.818</ele>
        <time>2019-04-27T09:30:00Z</time>
      </trkpt>
      <trkpt lat="44.23062" lon="5.61046">
        <ele>803.058</ele>
        <time>2019-04-27T09:30:11Z</time>
      </trkpt>
      <trkpt lat="44.23002" lon="5.61017">
        <ele>803.73</ele>
        <time>2019-04-27T09:30:21Z</time>
      </trkpt>
      <trkpt lat="44.2294" lon="5.60988">
        <ele>804.215</ele>
        <time>2019-04-27T09:30:31Z</time>
      </trkpt>
      <trkpt lat="44.22852" lon="5.60991">
        <ele>803.9</ele>
        <time>2019-04-27T09:30:42Z</time>
      </trkpt>
      <trkpt lat="44.22763" lon="5.60993">
        <ele>802.452</ele>
        <time>2019-04-27T09:30:53Z</time>
      </trkpt>
      <trkpt lat="44.22689" lon="5.60968">
        <ele>800.676</ele>
        <time>2019-04-27T09:31:03Z</time>
      </trkpt>
      <trkpt lat="44.22611" lon="5.60957">
        <ele>800.926</ele>
        <time>2019-04-27T09:31:14Z</time>
      </trkpt>
      <trkpt lat="44.22544" lon="5.60941">
        <ele>801.899</ele>
        <time>2019-04-27T09:31:25Z</time>
      </trkpt>
      <trkpt lat="44.22488" lon="5.60919">
        <ele>802.806</ele>
        <time>2019-04-27T09:31:36Z</time>
      </trkpt>
      <trkpt lat="44.2245" lon="5.60879">
        <ele>801.324</ele>
        <time>2019-04-27T09:31:46Z</time>
      </trkpt>
      <trkpt lat="44.22393" lon="5.60865">
        <ele>798.258</ele>
        <time>2019-04-27T09:31:57Z</time>
      </trkpt>
      <trkpt lat="44.22341" lon="5.60916">
        <ele>796.428</ele>
        <time>2019-04-27T09:32:07Z</time>
      </trkpt>
      <trkpt lat="44.22272" lon="5.60885">
        <ele>793.894</ele>
        <time>2019-04-27T09:32:17Z</time>
      </trkpt>
      <trkpt lat="44.22201" lon="5.60857">
        <ele>792.36</ele>
        <time>2019-04-27T09:32:28Z</time>
      </trkpt>
      <trkpt lat="44.22134" lon="5.60867">
        <ele>790.388</ele>
        <time>2019-04-27T09:32:39Z</time>
      </trkpt>
      <trkpt lat="44.22112" lon="5.60786">
        <ele>788.272</ele>
        <time>2019-04-27T09:32:50Z</time>
      </trkpt>
      <trkpt lat="44.22119" lon="5.60711">
        <ele>786.621</ele>
        <time>2019-04-27T09:33:01Z</time>
      </trkpt>
      <trkpt lat="44.22131" lon="5.60644">
        <ele>785.658</ele>
        <time>2019-04-27T09:33:11Z</time>
      </trkpt>
      <trkpt lat="44.2214" lon="5.60575">
        <ele>785.018</ele>
        <time>2019-04-27T09:33:22Z</time>
      </trkpt>
      <trkpt lat="44.22141" lon="5.60512">
        <ele>784.535</ele>
        <time>2019-04-27T09:33:33Z</time>
      </trkpt>
      <trkpt lat="44.22137" lon="5.60458">
        <ele>783.666</ele>
        <time>2019-04-27T09:33:43Z</time>
      </trkpt>
      <trkpt lat="44.22127" lon="5.60399">
        <ele>782.561</ele>
        <time>2019-04-27T09:33:54Z</time>
      </trkpt>
      <trkpt lat="44.2212" lon="5.60341">
        <ele>783.249</ele>
        <time>2019-04-27T09:34:05Z</time>
      </trkpt>
      <trkpt lat="44.22128" lon="5.60289">
        <ele>783.95</ele>
        <time>2019-04-27T09:34:15Z</time>
      </trkpt>
      <trkpt lat="44.22131" lon="5.60229">
        <ele>785.236</ele>
        <time>2019-04-27T09:34:26Z</time>
      </trkpt>
      <trkpt lat="44.22136" lon="5.60171">
        <ele>785.662</ele>
        <time>2019-04-27T09:34:37Z</time>
      </trkpt>
      <trkpt lat="44.2214" lon="5.60122">
        <ele>785.863</ele>
        <time>2019-04-27T09:34:47Z</time>
      </trkpt>
      <trkpt lat="44.22141" lon="5.60067">
        <ele>786.186</ele>
        <time>2019-04-27T09:34:58Z</time>
      </trkpt>
      <trkpt lat="44.22141" lon="5.6002">
        <ele>786.53</ele>
        <time>2019-04-27T09:35:08Z</time>
      </trkpt>
      <trkpt lat="44.22143" lon="5.59961">
        <ele>788.698</ele>
        <time>2019-04-27T09:35:19Z</time>
      </trkpt>
      <trkpt lat="44.22141" lon="5.59902">
        <ele>789.02</ele>
        <time>2019-04-27T09:35:30Z</time>
      </trkpt>
      <trkpt lat="44.22138" lon="5.59839">
        <ele>789.324</ele>
        <time>2019-04-27T09:35:41Z</time>
      </trkpt>
      <trkpt lat="44.22138" lon="5.59777">
        <ele>788.968</ele>
        <time>2019-04-27T09:35:52Z</time>
      </trkpt>
      <trkpt lat="44.22143" lon="5.59722">
        <ele>788.524</ele>
        <time>2019-04-27T09:36:02Z</time>
      </trkpt>
      <trkpt lat="44.22151" lon="5.59666">
        <ele>788.21</ele>
        <time>2019-04-27T09:36:12Z</time>
      </trkpt>
      <trkpt lat="44.22149" lon="5.59601">
        <ele>787.943</ele>
        <time>2019-04-27T09:36:23Z</time>
      </trkpt>
      <trkpt lat="44.22137" lon="5.59536">
        <ele>787.596</ele>
        <time>2019-04-27T09:36:34Z</time>
      </trkpt>
      <trkpt lat="44.22127" lon="5.59477">
        <ele>787.587</ele>
        <time>2019-04-27T09:36:45Z</time>
      </trkpt>
      <trkpt lat="44.22119" lon="5.59432">
        <ele>787.617</ele>
        <time>2019-04-27T09:36:55Z</time>
      </trkpt>
      <trkpt lat="44.22109" lon="5.59378">
        <ele>788.188</ele>
        <time>2019-04-27T09:37:06Z</time>
      </trkpt>
      <trkpt lat="44.221" lon="5.59319">
        <ele>788.963</ele>
        <time>2019-04-27T09:37:16Z</time>
      </trkpt>
      <trkpt lat="44.22089" lon="5.59254">
        <ele>789.397</ele>
        <time>2019-04-27T09:37:27Z</time>
      </trkpt>
      <trkpt lat="44.22082" lon="5.59202">
        <ele>789.569</ele>
        <time>2019-04-27T09:37:37Z</time>
      </trkpt>
      <trkpt lat="44.2208" lon="5.59151">
        <ele>789.855</ele>
        <time>2019-04-27T09:37:48Z</time>
      </trkpt>
      <trkpt lat="44.22083" lon="5.59102">
        <ele>790.352</ele>
        <time>2019-04-27T09:37:59Z</time>
      </trkpt>
      <trkpt lat="44.22093" lon="5.59051">
        <ele>790.964</ele>
        <time>2019-04-27T09:38:10Z</time>
      </trkpt>
      <trkpt lat="44.22103" lon="5.59007">
        <ele>791.65</ele>
        <time>2019-04-27T09:38:20Z</time>
      </trkpt>
      <trkpt lat="44.22109" lon="5.58953">
        <ele>792.608</ele>
        <time>2019-04-27T09:38:31Z</time>
      </trkpt>
      <trkpt lat="44.22109" lon="5.58896">
        <ele>795.557</ele>
        <time>2019-04-27T09:38:42Z</time>
      </trkpt>
      <trkpt lat="44.22109" lon="5.5884">
        <ele>796.7</ele>
        <time>2019-04-27T09:38:53Z</time>
      </trkpt>
      <trkpt lat="44.22108" lon="5.58787">
        <ele>797.029</ele>
        <time>2019-04-27T09:39:04Z</time>
      </trkpt>
      <trkpt lat="44.22105" lon="5.58732">
        <ele>798.234</ele>
        <time>2019-04-27T09:39:14Z</time>
      </trkpt>
      <trkpt lat="44.22105" lon="5.58676">
        <ele>798.402</ele>
        <time>2019-04-27T09:39:25Z</time>
      </trkpt>
      <trkpt lat="44.22104" lon="5.5863">
        <ele>798.624</ele>
        <time>2019-04-27T09:39:36Z</time>
      </trkpt>
      <trkpt lat="44.22106" lon="5.58586">
        <ele>799.17</ele>
        <time>2019-04-27T09:39:47Z</time>
      </trkpt>
      <trkpt lat="44.22105" lon="5.5854">
        <ele>799.912</ele>
        <time>2019-04-27T09:39:58Z</time>
      </trkpt>
      <trkpt lat="44.22104" lon="5.58496">
        <ele>800.532</ele>
        <time>2019-04-27T09:40:08Z</time>
      </trkpt>
      <trkpt lat="44.22104" lon="5.58451">
        <ele>801.341</ele>
        <time>2019-04-27T09:40:19Z</time>
      </trkpt>
      <trkpt lat="44.22103" lon="5.58405">
        <ele>802.18</ele>
        <time>2019-04-27T09:40:30Z</time>
      </trkpt>
      <trkpt lat="44.22102" lon="5.58362">
        <ele>802.886</ele>
        <time>2019-04-27T09:40:40Z</time>
      </trkpt>
      <trkpt lat="44.22102" lon="5.58314">
        <ele>803.535</ele>
        <time>2019-04-27T09:40:51Z</time>
      </trkpt>
      <trkpt lat="44.22102" lon="5.58256">
        <ele>805.82</ele>
        <time>2019-04-27T09:41:01Z</time>
      </trkpt>
      <trkpt lat="44.22108" lon="5.58185">
        <ele>806.33</ele>
        <time>2019-04-27T09:41:12Z</time>
      </trkpt>
      <trkpt lat="44.22115" lon="5.58121">
        <ele>806.518</ele>
        <time>2019-04-27T09:41:22Z</time>
      </trkpt>
      <trkpt lat="44.22124" lon="5.58048">
        <ele>806.521</ele>
        <time>2019-04-27T09:41:33Z</time>
      </trkpt>
      <trkpt lat="44.22131" lon="5.57972">
        <ele>806.604</ele>
        <time>2019-04-27T09:41:44Z</time>
      </trkpt>
      <trkpt lat="44.22138" lon="5.57908">
        <ele>805.616</ele>
        <time>2019-04-27T09:41:54Z</time>
      </trkpt>
      <trkpt lat="44.22145" lon="5.5784">
        <ele>804.58</ele>
        <time>2019-04-27T09:42:05Z</time>
      </trkpt>
      <trkpt lat="44.22147" lon="5.57787">
        <ele>804.91</ele>
        <time>2019-04-27T09:42:15Z</time>
      </trkpt>
      <trkpt lat="44.22145" lon="5.57732">
        <ele>806.479</ele>
        <time>2019-04-27T09:42:25Z</time>
      </trkpt>
      <trkpt lat="44.22141" lon="5.57675">
        <ele>806.567</ele>
        <time>2019-04-27T09:42:36Z</time>
      </trkpt>
      <trkpt lat="44.22139" lon="5.57623">
        <ele>806.982</ele>
        <time>2019-04-27T09:42:46Z</time>
      </trkpt>
      <trkpt lat="44.22138" lon="5.57564">
        <ele>807.479</ele>
        <time>2019-04-27T09:42:57Z</time>
      </trkpt>
      <trkpt lat="44.22136" lon="5.57505">
        <ele>807.07</ele>
        <time>2019-04-27T09:43:07Z</time>
      </trkpt>
      <trkpt lat="44.22135" lon="5.57439">
        <ele>808.501</ele>
        <time>2019-04-27T09:43:18Z</time>
      </trkpt>
      <trkpt lat="44.22132" lon="5.57374">
        <ele>808.781</ele>
        <time>2019-04-27T09:43:29Z</time>
      </trkpt>
      <trkpt lat="44.22132" lon="5.5732">
        <ele>809.433</ele>
        <time>2019-04-27T09:43:39Z</time>
      </trkpt>
      <trkpt lat="44.22133" lon="5.57306">
        <ele>809.744</ele>
        <time>2019-04-27T09:43:49Z</time>
      </trkpt>
      <trkpt lat="44.22134" lon="5.57308">
        <ele>810.168</ele>
        <time>2019-04-27T09:43:59Z</time>
      </trkpt>
      <trkpt lat="44.22134" lon="5.57308">
        <ele>810.209</ele>
        <time>2019-04-27T09:44:10Z</time>
      </trkpt>
      <trkpt lat="44.22136" lon="5.57298">
        <ele>810.836</ele>
        <time>2019-04-27T09:44:21Z</time>
      </trkpt>
      <trkpt lat="44.22134" lon="5.57302">
        <ele>811.032</ele>
        <time>2019-04-27T09:44:32Z</time>
      </trkpt>
      <trkpt lat="44.22135" lon="5.57303">
        <ele>811.596</ele>
        <time>2019-04-27T09:44:43Z</time>
      </trkpt>
      <trkpt lat="44.22135" lon="5.57303">
        <ele>811.733</ele>
        <time>2019-04-27T09:44:53Z</time>
      </trkpt>
      <trkpt lat="44.22134" lon="5.57303">
        <ele>811.724</ele>
        <time>2019-04-27T09:45:03Z</time>
      </trkpt>
      <trkpt lat="44.22135" lon="5.57305">
        <ele>811.919</ele>
        <time>2019-04-27T09:45:14Z</time>
      </trkpt>
      <trkpt lat="44.22134" lon="5.57305">
        <ele>812.083</ele>
        <time>2019-04-27T09:45:25Z</time>
      </trkpt>
      <trkpt lat="44.22133" lon="5.57305">
        <ele>812.253</ele>
        <time>2019-04-27T09:45:36Z</time>
      </trkpt>
      <trkpt lat="44.22133" lon="5.57305">
        <ele>812.379</ele>
        <time>2019-04-27T09:45:46Z</time>
      </trkpt>
      <trkpt lat="44.22133" lon="5.57306">
        <ele>812.357</ele>
        <time>2019-04-27T09:45:56Z</time>
      </trkpt>
      <trkpt lat="44.22133" lon="5.57307">
        <ele>812.276</ele>
        <time>2019-04-27T09:46:07Z</time>
      </trkpt>
      <trkpt lat="44.22132" lon="5.57305">
        <ele>812.162</ele>
        <time>2019-04-27T09:46:18Z</time>
      </trkpt>
      <trkpt lat="44.22129" lon="5.57266">
        <ele>811.911</ele>
        <time>2019-04-27T09:46:28Z</time>
      </trkpt>
      <trkpt lat="44.22127" lon="5.57203">
        <ele>809.991</ele>
        <time>2019-04-27T09:46:39Z</time>
      </trkpt>
      <trkpt lat="44.22126" lon="5.57139">
        <ele>809.48</ele>
        <time>2019-04-27T09:46:50Z</time>
      </trkpt>
      <trkpt lat="44.22124" lon="5.57085">
        <ele>809.43</ele>
        <time>2019-04-27T09:47:01Z</time>
      </trkpt>
      <trkpt lat="44.22123" lon="5.57033">
        <ele>809.485</ele>
        <time>2019-04-27T09:47:12Z</time>
      </trkpt>
      <trkpt lat="44.22122" lon="5.56981">
        <ele>809.903</ele>
        <time>2019-04-27T09:47:23Z</time>
      </trkpt>
      <trkpt lat="44.22121" lon="5.56935">
        <ele>810.248</ele>
        <time>2019-04-27T09:47:33Z</time>
      </trkpt>
      <trkpt lat="44.22119" lon="5.56884">
        <ele>810.548</ele>
        <time>2019-04-27T09:47:44Z</time>
      </trkpt>
      <trkpt lat="44.22117" lon="5.56838">
        <ele>810.84</ele>
        <time>2019-04-27T09:47:54Z</time>
      </trkpt>
      <trkpt lat="44.22116" lon="5.56785">
        <ele>811.179</ele>
        <time>2019-04-27T09:48:05Z</time>
      </trkpt>
      <trkpt lat="44.22114" lon="5.56733">
        <ele>811.632</ele>
        <time>2019-04-27T09:48:16Z</time>
      </trkpt>
      <trkpt lat="44.22113" lon="5.56684">
        <ele>812.07</ele>
        <time>2019-04-27T09:48:26Z</time>
      </trkpt>
      <trkpt lat="44.22112" lon="5.56637">
        <ele>812.546</ele>
        <time>2019-04-27T09:48:36Z</time>
      </trkpt>
      <trkpt lat="44.22111" lon="5.56586">
        <ele>813.087</ele>
        <time>2019-04-27T09:48:47Z</time>
      </trkpt>
      <trkpt lat="44.2211" lon="5.56542">
        <ele>813.591</ele>
        <time>2019-04-27T09:48:58Z</time>
      </trkpt>
      <trkpt lat="44.22109" lon="5.56505">
        <ele>814.075</ele>
        <time>2019-04-27T09:49:08Z</time>
      </trkpt>
      <trkpt lat="44.22108" lon="5.56461">
        <ele>814.762</ele>
        <time>2019-04-27T09:49:19Z</time>
      </trkpt>
      <trkpt lat="44.22104" lon="5.56417">
        <ele>815.393</ele>
        <time>2019-04-27T09:49:29Z</time>
      </trkpt>
      <trkpt lat="44.22101" lon="5.56364">
        <ele>816.201</ele>
        <time>2019-04-27T09:49:40Z</time>
      </trkpt>
      <trkpt lat="44.22094" lon="5.56307">
        <ele>819.984</ele>
        <time>2019-04-27T09:49:50Z</time>
      </trkpt>
      <trkpt lat="44.22087" lon="5.56245">
        <ele>819.867</ele>
        <time>2019-04-27T09:50:00Z</time>
      </trkpt>
      <trkpt lat="44.22079" lon="5.56171">
        <ele>819.823</ele>
        <time>2019-04-27T09:50:11Z</time>
      </trkpt>
      <trkpt lat="44.22071" lon="5.56093">
        <ele>819.327</ele>
        <time>2019-04-27T09:50:22Z</time>
      </trkpt>
      <trkpt lat="44.22063" lon="5.5602">
        <ele>820.05</ele>
        <time>2019-04-27T09:50:32Z</time>
      </trkpt>
      <trkpt lat="44.22056" lon="5.55948">
        <ele>820.125</ele>
        <time>2019-04-27T09:50:43Z</time>
      </trkpt>
      <trkpt lat="44.22048" lon="5.55886">
        <ele>819.297</ele>
        <time>2019-04-27T09:50:53Z</time>
      </trkpt>
      <trkpt lat="44.22042" lon="5.55823">
        <ele>819.336</ele>
        <time>2019-04-27T09:51:04Z</time>
      </trkpt>
      <trkpt lat="44.22036" lon="5.55769">
        <ele>820.357</ele>
        <time>2019-04-27T09:51:14Z</time>
      </trkpt>
      <trkpt lat="44.22029" lon="5.55714">
        <ele>820.549</ele>
        <time>2019-04-27T09:51:25Z</time>
      </trkpt>
      <trkpt lat="44.22024" lon="5.55661">
        <ele>821.356</ele>
        <time>2019-04-27T09:51:35Z</time>
      </trkpt>
      <trkpt lat="44.2202" lon="5.55605">
        <ele>821.473</ele>
        <time>2019-04-27T09:51:45Z</time>
      </trkpt>
      <trkpt lat="44.22012" lon="5.55549">
        <ele>821.766</ele>
        <time>2019-04-27T09:51:56Z</time>
      </trkpt>
      <trkpt lat="44.22005" lon="5.55485">
        <ele>821.758</ele>
        <time>2019-04-27T09:52:07Z</time>
      </trkpt>
      <trkpt lat="44.22" lon="5.55423">
        <ele>821.097</ele>
        <time>2019-04-27T09:52:17Z</time>
      </trkpt>
      <trkpt lat="44.21993" lon="5.55363">
        <ele>820.71</ele>
        <time>2019-04-27T09:52:28Z</time>
      </trkpt>
      <trkpt lat="44.21988" lon="5.55312">
        <ele>820.971</ele>
        <time>2019-04-27T09:52:39Z</time>
      </trkpt>
      <trkpt lat="44.21984" lon="5.55271">
        <ele>821.362</ele>
        <time>2019-04-27T09:52:49Z</time>
      </trkpt>
      <trkpt lat="44.21978" lon="5.5523">
        <ele>822.118</ele>
        <time>2019-04-27T09:53:00Z</time>
      </trkpt>
      <trkpt lat="44.21971" lon="5.55189">
        <ele>823.225</ele>
        <time>2019-04-27T09:53:11Z</time>
      </trkpt>
      <trkpt lat="44.21961" lon="5.55148">
        <ele>824.403</ele>
        <time>2019-04-27T09:53:22Z</time>
      </trkpt>
      <trkpt lat="44.2195" lon="5.55113">
        <ele>825.594</ele>
        <time>2019-04-27T09:53:32Z</time>
      </trkpt>
      <trkpt lat="44.21937" lon="5.55079">
        <ele>826.857</ele>
        <time>2019-04-27T09:53:43Z</time>
      </trkpt>
      <trkpt lat="44.21925" lon="5.55048">
        <ele>828.056</ele>
        <time>2019-04-27T09:53:53Z</time>
      </trkpt>
      <trkpt lat="44.21913" lon="5.55012">
        <ele>829.212</ele>
        <time>2019-04-27T09:54:04Z</time>
      </trkpt>
      <trkpt lat="44.21901" lon="5.54974">
        <ele>830.141</ele>
        <time>2019-04-27T09:54:15Z</time>
      </trkpt>
      <trkpt lat="44.21889" lon="5.54939">
        <ele>830.606</ele>
        <time>2019-04-27T09:54:25Z</time>
      </trkpt>
      <trkpt lat="44.21876" lon="5.54905">
        <ele>831.124</ele>
        <time>2019-04-27T09:54:35Z</time>
      </trkpt>
      <trkpt lat="44.21862" lon="5.54865">
        <ele>831.773</ele>
        <time>2019-04-27T09:54:46Z</time>
      </trkpt>
      <trkpt lat="44.21848" lon="5.5483">
        <ele>832.521</ele>
        <time>2019-04-27T09:54:57Z</time>
      </trkpt>
      <trkpt lat="44.21836" lon="5.54797">
        <ele>833.273</ele>
        <time>2019-04-27T09:55:07Z</time>
      </trkpt>
      <trkpt lat="44.2182" lon="5.54754">
        <ele>835.106</ele>
        <time>2019-04-27T09:55:17Z</time>
      </trkpt>
      <trkpt lat="44.21798" lon="5.54701">
        <ele>837.409</ele>
        <time>2019-04-27T09:55:27Z</time>
      </trkpt>
      <trkpt lat="44.21771" lon="5.54626">
        <ele>835.595</ele>
        <time>2019-04-27T09:55:38Z</time>
      </trkpt>
      <trkpt lat="44.21743" lon="5.54556">
        <ele>835.618</ele>
        <time>2019-04-27T09:55:48Z</time>
      </trkpt>
      <trkpt lat="44.21718" lon="5.54482">
        <ele>839.728</ele>
        <time>2019-04-27T09:55:59Z</time>
      </trkpt>
      <trkpt lat="44.21688" lon="5.54414">
        <ele>840.242</ele>
        <time>2019-04-27T09:56:09Z</time>
      </trkpt>
      <trkpt lat="44.21645" lon="5.5437">
        <ele>834.371</ele>
        <time>2019-04-27T09:56:20Z</time>
      </trkpt>
      <trkpt lat="44.21596" lon="5.54346">
        <ele>833.145</ele>
        <time>2019-04-27T09:56:31Z</time>
      </trkpt>
      <trkpt lat="44.21597" lon="5.54283">
        <ele>832.593</ele>
        <time>2019-04-27T09:56:42Z</time>
      </trkpt>
      <trkpt lat="44.21656" lon="5.54245">
        <ele>831.903</ele>
        <time>2019-04-27T09:56:53Z</time>
      </trkpt>
      <trkpt lat="44.21709" lon="5.54231">
        <ele>832.026</ele>
        <time>2019-04-27T09:57:04Z</time>
      </trkpt>
      <trkpt lat="44.21764" lon="5.54218">
        <ele>833.259</ele>
        <time>2019-04-27T09:57:15Z</time>
      </trkpt>
      <trkpt lat="44.21816" lon="5.54208">
        <ele>834.497</ele>
        <time>2019-04-27T09:57:26Z</time>
      </trkpt>
      <trkpt lat="44.2187" lon="5.54193">
        <ele>836.073</ele>
        <time>2019-04-27T09:57:37Z</time>
      </trkpt>
      <trkpt lat="44.21908" lon="5.5414">
        <ele>833.354</ele>
        <time>2019-04-27T09:57:47Z</time>
      </trkpt>
      <trkpt lat="44.2195" lon="5.54059">
        <ele>829.858</ele>
        <time>2019-04-27T09:57:58Z</time>
      </trkpt>
      <trkpt lat="44.21995" lon="5.5402">
        <ele>829.27</ele>
        <time>2019-04-27T09:58:08Z</time>
      </trkpt>
      <trkpt lat="44.22034" lon="5.53968">
        <ele>828.997</ele>
        <time>2019-04-27T09:58:19Z</time>
      </trkpt>
      <trkpt lat="44.22045" lon="5.53906">
        <ele>829.021</ele>
        <time>2019-04-27T09:58:29Z</time>
      </trkpt>
      <trkpt lat="44.22049" lon="5.53839">
        <ele>829.44</ele>
        <time>2019-04-27T09:58:40Z</time>
      </trkpt>
      <trkpt lat="44.22051" lon="5.53782">
        <ele>829.569</ele>
        <time>2019-04-27T09:58:51Z</time>
      </trkpt>
      <trkpt lat="44.22051" lon="5.53741">
        <ele>829.668</ele>
        <time>2019-04-27T09:59:01Z</time>
      </trkpt>
      <trkpt lat="44.22052" lon="5.53698">
        <ele>829.786</ele>
        <time>2019-04-27T09:59:12Z</time>
      </trkpt>
      <trkpt lat="44.22053" lon="5.53657">
        <ele>829.894</ele>
        <time>2019-04-27T09:59:23Z</time>
      </trkpt>
      <trkpt lat="44.22055" lon="5.53617">
        <ele>830.079</ele>
        <time>2019-04-27T09:59:33Z</time>
      </trkpt>
      <trkpt lat="44.22056" lon="5.53578">
        <ele>830.353</ele>
        <time>2019-04-27T09:59:43Z</time>
      </trkpt>
      <trkpt lat="44.22058" lon="5.53534">
        <ele>830.721</ele>
        <time>2019-04-27T09:59:54Z</time>
      </trkpt>
      <trkpt lat="44.22059" lon="5.53497">
        <ele>831.137</ele>
        <time>2019-04-27T10:00:04Z</time>
      </trkpt>
      <trkpt lat="44.22062" lon="5.53457">
        <ele>831.707</ele>
        <time>2019-04-27T10:00:15Z</time>
      </trkpt>
      <trkpt lat="44.22063" lon="5.53421">
        <ele>832.384</ele>
        <time>2019-04-27T10:00:26Z</time>
      </trkpt>
      <trkpt lat="44.22065" lon="5.53386">
        <ele>833.057</ele>
        <time>2019-04-27T10:00:36Z</time>
      </trkpt>
      <trkpt lat="44.22066" lon="5.53347">
        <ele>833.883</ele>
        <time>2019-04-27T10:00:47Z</time>
      </trkpt>
      <trkpt lat="44.22067" lon="5.53309">
        <ele>834.646</ele>
        <time>2019-04-27T10:00:57Z</time>
      </trkpt>
      <trkpt lat="44.22068" lon="5.53259">
        <ele>835.523</ele>
        <time>2019-04-27T10:01:08Z</time>
      </trkpt>
      <trkpt lat="44.22069" lon="5.53208">
        <ele>836.338</ele>
        <time>2019-04-27T10:01:19Z</time>
      </trkpt>
      <trkpt lat="44.22072" lon="5.53164">
        <ele>836.978</ele>
        <time>2019-04-27T10:01:29Z</time>
      </trkpt>
      <trkpt lat="44.22073" lon="5.53121">
        <ele>837.651</ele>
        <time>2019-04-27T10:01:40Z</time>
      </trkpt>
      <trkpt lat="44.22074" lon="5.53082">
        <ele>838.3</ele>
        <time>2019-04-27T10:01:50Z</time>
      </trkpt>
      <trkpt lat="44.22076" lon="5.53041">
        <ele>838.965</ele>
        <time>2019-04-27T10:02:00Z</time>
      </trkpt>
      <trkpt lat="44.22078" lon="5.52997">
        <ele>839.729</ele>
        <time>2019-04-27T10:02:11Z</time>
      </trkpt>
      <trkpt lat="44.22079" lon="5.52954">
        <ele>840.426</ele>
        <time>2019-04-27T10:02:21Z</time>
      </trkpt>
      <trkpt lat="44.22081" lon="5.52896">
        <ele>844.01</ele>
        <time>2019-04-27T10:02:32Z</time>
      </trkpt>
      <trkpt lat="44.22083" lon="5.52842">
        <ele>844.793</ele>
        <time>2019-04-27T10:02:42Z</time>
      </trkpt>
      <trkpt lat="44.22084" lon="5.5278">
        <ele>844.814</ele>
        <time>2019-04-27T10:02:53Z</time>
      </trkpt>
      <trkpt lat="44.22086" lon="5.52723">
        <ele>845.036</ele>
        <time>2019-04-27T10:03:03Z</time>
      </trkpt>
      <trkpt lat="44.22089" lon="5.52668">
        <ele>845.573</ele>
        <time>2019-04-27T10:03:14Z</time>
      </trkpt>
      <trkpt lat="44.22095" lon="5.52612">
        <ele>845.568</ele>
        <time>2019-04-27T10:03:25Z</time>
      </trkpt>
      <trkpt lat="44.22098" lon="5.52554">
        <ele>846.555</ele>
        <time>2019-04-27T10:03:36Z</time>
      </trkpt>
      <trkpt lat="44.22102" lon="5.52508">
        <ele>846.794</ele>
        <time>2019-04-27T10:03:46Z</time>
      </trkpt>
      <trkpt lat="44.22106" lon="5.52463">
        <ele>846.966</ele>
        <time>2019-04-27T10:03:57Z</time>
      </trkpt>
      <trkpt lat="44.2211" lon="5.52415">
        <ele>847.218</ele>
        <time>2019-04-27T10:04:08Z</time>
      </trkpt>
      <trkpt lat="44.22113" lon="5.52369">
        <ele>847.49</ele>
        <time>2019-04-27T10:04:18Z</time>
      </trkpt>
      <trkpt lat="44.22118" lon="5.52321">
        <ele>847.821</ele>
        <time>2019-04-27T10:04:29Z</time>
      </trkpt>
      <trkpt lat="44.22119" lon="5.5228">
        <ele>847.804</ele>
        <time>2019-04-27T10:04:39Z</time>
      </trkpt>
      <trkpt lat="44.22121" lon="5.52232">
        <ele>848.365</ele>
        <time>2019-04-27T10:04:49Z</time>
      </trkpt>
      <trkpt lat="44.22127" lon="5.52178">
        <ele>849.809</ele>
        <time>2019-04-27T10:05:00Z</time>
      </trkpt>
      <trkpt lat="44.2213" lon="5.52177">
        <ele>850.275</ele>
        <time>2019-04-27T10:05:11Z</time>
      </trkpt>
      <trkpt lat="44.22124" lon="5.52242">
        <ele>851.151</ele>
        <time>2019-04-27T10:05:22Z</time>
      </trkpt>
      <trkpt lat="44.22104" lon="5.52287">
        <ele>850.551</ele>
        <time>2019-04-27T10:05:32Z</time>
      </trkpt>
      <trkpt lat="44.22072" lon="5.5231">
        <ele>847.949</ele>
        <time>2019-04-27T10:05:43Z</time>
      </trkpt>
      <trkpt lat="44.22062" lon="5.52333">
        <ele>847.625</ele>
        <time>2019-04-27T10:05:54Z</time>
      </trkpt>
      <trkpt lat="44.22058" lon="5.5234">
        <ele>847.502</ele>
        <time>2019-04-27T10:06:05Z</time>
      </trkpt>
      <trkpt lat="44.22058" lon="5.52341">
        <ele>847.554</ele>
        <time>2019-04-27T10:06:15Z</time>
      </trkpt>
      <trkpt lat="44.22057" lon="5.52341">
        <ele>847.602</ele>
        <time>2019-04-27T10:06:26Z</time>
      </trkpt>
      <trkpt lat="44.22058" lon="5.52341">
        <ele>847.663</ele>
        <time>2019-04-27T10:06:37Z</time>
      </trkpt>
      <trkpt lat="44.22058" lon="5.52341">
        <ele>847.723</ele>
        <time>2019-04-27T10:06:48Z</time>
      </trkpt>
      <trkpt lat="44.22058" lon="5.52341">
        <ele>847.767</ele>
        <time>2019-04-27T10:06:59Z</time>
      </trkpt>
      <trkpt lat="44.22058" lon="5.52341">
        <ele>847.832</ele>
        <time>2019-04-27T10:07:10Z</time>
      </trkpt>
      <trkpt lat="44.22058" lon="5.52341">
        <ele>847.886</ele>
        <time>2019-04-27T10:07:20Z</time>
      </trkpt>
      <trkpt lat="44.22058" lon="5.52341">
        <ele>847.948</ele>
        <time>2019-04-27T10:07:31Z</time>
      </trkpt>
      <trkpt lat="44.22058" lon="5.52341">
        <ele>848</ele>
        <time>2019-04-27T10:07:42Z</time>
      </trkpt>
      <trkpt lat="44.22058" lon="5.52341">
        <ele>848.043</ele>
        <time>2019-04-27T10:07:53Z</time>
      </trkpt>
      <trkpt lat="44.22058" lon="5.52341">
        <ele>848.079</ele>
        <time>2019-04-27T10:08:04Z</time>
      </trkpt>
      <trkpt lat="44.22063" lon="5.52331">
        <ele>848.408</ele>
        <time>2019-04-27T10:08:14Z</time>
      </trkpt>
      <trkpt lat="44.22071" lon="5.52315">
        <ele>848.339</ele>
        <time>2019-04-27T10:08:25Z</time>
      </trkpt>
      <trkpt lat="44.22061" lon="5.52307">
        <ele>847.724</ele>
        <time>2019-04-27T10:08:36Z</time>
      </trkpt>
      <trkpt lat="44.22051" lon="5.52307">
        <ele>847.519</ele>
        <time>2019-04-27T10:08:46Z</time>
      </trkpt>
      <trkpt lat="44.22051" lon="5.52306">
        <ele>847.443</ele>
        <time>2019-04-27T10:08:57Z</time>
      </trkpt>
      <trkpt lat="44.22051" lon="5.52305">
        <ele>847.431</ele>
        <time>2019-04-27T10:09:08Z</time>
      </trkpt>
      <trkpt lat="44.2205" lon="5.52305">
        <ele>847.429</ele>
        <time>2019-04-27T10:09:18Z</time>
      </trkpt>
      <trkpt lat="44.2205" lon="5.52305">
        <ele>847.451</ele>
        <time>2019-04-27T10:09:29Z</time>
      </trkpt>
      <trkpt lat="44.2205" lon="5.52305">
        <ele>847.438</ele>
        <time>2019-04-27T10:09:40Z</time>
      </trkpt>
      <trkpt lat="44.2205" lon="5.52305">
        <ele>847.455</ele>
        <time>2019-04-27T10:09:50Z</time>
      </trkpt>
      <trkpt lat="44.2205" lon="5.52305">
        <ele>847.477</ele>
        <time>2019-04-27T10:10:01Z</time>
      </trkpt>
      <trkpt lat="44.22049" lon="5.52305">
        <ele>847.489</ele>
        <time>2019-04-27T10:10:11Z</time>
      </trkpt>
      <trkpt lat="44.22049" lon="5.52305">
        <ele>847.496</ele>
        <time>2019-04-27T10:10:22Z</time>
      </trkpt>
      <trkpt lat="44.22049" lon="5.52305">
        <ele>847.497</ele>
        <time>2019-04-27T10:10:33Z</time>
      </trkpt>
      <trkpt lat="44.22049" lon="5.52305">
        <ele>847.499</ele>
        <time>2019-04-27T10:10:43Z</time>
      </trkpt>
      <trkpt lat="44.22049" lon="5.52305">
        <ele>847.501</ele>
        <time>2019-04-27T10:10:54Z</time>
      </trkpt>
      <trkpt lat="44.22049" lon="5.52305">
        <ele>847.498</ele>
        <time>2019-04-27T10:11:04Z</time>
      </trkpt>
      <trkpt lat="44.22049" lon="5.52304">
        <ele>847.496</ele>
        <time>2019-04-27T10:11:15Z</time>
      </trkpt>
      <trkpt lat="44.22049" lon="5.52304">
        <ele>847.489</ele>
        <time>2019-04-27T10:11:26Z</time>
      </trkpt>
      <trkpt lat="44.22049" lon="5.52304">
        <ele>847.461</ele>
        <time>2019-04-27T10:11:37Z</time>
      </trkpt>
      <trkpt lat="44.22049" lon="5.52304">
        <ele>847.421</ele>
        <time>2019-04-27T10:11:47Z</time>
      </trkpt>
      <trkpt lat="44.22049" lon="5.52303">
        <ele>847.371</ele>
        <time>2019-04-27T10:11:57Z</time>
      </trkpt>
      <trkpt lat="44.22049" lon="5.52303">
        <ele>847.317</ele>
        <time>2019-04-27T10:12:08Z</time>
      </trkpt>
      <trkpt lat="44.22049" lon="5.52303">
        <ele>847.268</ele>
        <time>2019-04-27T10:12:18Z</time>
      </trkpt>
      <trkpt lat="44.22049" lon="5.52303">
        <ele>847.216</ele>
        <time>2019-04-27T10:12:28Z</time>
      </trkpt>
      <trkpt lat="44.22049" lon="5.52303">
        <ele>847.155</ele>
        <time>2019-04-27T10:12:39Z</time>
      </trkpt>
      <trkpt lat="44.2205" lon="5.52303">
        <ele>847.095</ele>
        <time>2019-04-27T10:12:49Z</time>
      </trkpt>
      <trkpt lat="44.2205" lon="5.52303">
        <ele>847.025</ele>
        <time>2019-04-27T10:13:00Z</time>
      </trkpt>
      <trkpt lat="44.2205" lon="5.52303">
        <ele>846.948</ele>
        <time>2019-04-27T10:13:11Z</time>
      </trkpt>
      <trkpt lat="44.2205" lon="5.52304">
        <ele>846.867</ele>
        <time>2019-04-27T10:13:22Z</time>
      </trkpt>
      <trkpt lat="44.2205" lon="5.52304">
        <ele>846.803</ele>
        <time>2019-04-27T10:13:33Z</time>
      </trkpt>
      <trkpt lat="44.2205" lon="5.52304">
        <ele>846.757</ele>
        <time>2019-04-27T10:13:43Z</time>
      </trkpt>
      <trkpt lat="44.2205" lon="5.52304">
        <ele>846.715</ele>
        <time>2019-04-27T10:13:54Z</time>
      </trkpt>
      <trkpt lat="44.2205" lon="5.52304">
        <ele>846.692</ele>
        <time>2019-04-27T10:14:05Z</time>
      </trkpt>
      <trkpt lat="44.2205" lon="5.52304">
        <ele>846.67</ele>
        <time>2019-04-27T10:14:15Z</time>
      </trkpt>
      <trkpt lat="44.2205" lon="5.52304">
        <ele>846.655</ele>
        <time>2019-04-27T10:14:26Z</time>
      </trkpt>
      <trkpt lat="44.2205" lon="5.52304">
        <ele>846.642</ele>
        <time>2019-04-27T10:14:36Z</time>
      </trkpt>
      <trkpt lat="44.2205" lon="5.52304">
        <ele>846.628</ele>
        <time>2019-04-27T10:14:46Z</time>
      </trkpt>
      <trkpt lat="44.22049" lon="5.52304">
        <ele>846.621</ele>
        <time>2019-04-27T10:14:57Z</time>
      </trkpt>
      <trkpt lat="44.22049" lon="5.52304">
        <ele>846.622</ele>
        <time>2019-04-27T10:15:07Z</time>
      </trkpt>
      <trkpt lat="44.2205" lon="5.52304">
        <ele>846.625</ele>
        <time>2019-04-27T10:15:18Z</time>
      </trkpt>
      <trkpt lat="44.2205" lon="5.52304">
        <ele>846.625</ele>
        <time>2019-04-27T10:15:28Z</time>
      </trkpt>
      <trkpt lat="44.2205" lon="5.52304">
        <ele>846.621</ele>
        <time>2019-04-27T10:15:39Z</time>
      </trkpt>
      <trkpt lat="44.2205" lon="5.52304">
        <ele>846.612</ele>
        <time>2019-04-27T10:15:50Z</time>
      </trkpt>
      <trkpt lat="44.2205" lon="5.52304">
        <ele>846.599</ele>
        <time>2019-04-27T10:16:01Z</time>
      </trkpt>
      <trkpt lat="44.2205" lon="5.52304">
        <ele>846.585</ele>
        <time>2019-04-27T10:16:12Z</time>
      </trkpt>
      <trkpt lat="44.2205" lon="5.52305">
        <ele>846.571</ele>
        <time>2019-04-27T10:16:22Z</time>
      </trkpt>
      <trkpt lat="44.2205" lon="5.52305">
        <ele>846.555</ele>
        <time>2019-04-27T10:16:33Z</time>
      </trkpt>
      <trkpt lat="44.2205" lon="5.52305">
        <ele>846.533</ele>
        <time>2019-04-27T10:16:43Z</time>
      </trkpt>
      <trkpt lat="44.2205" lon="5.52305">
        <ele>846.509</ele>
        <time>2019-04-27T10:16:53Z</time>
      </trkpt>
      <trkpt lat="44.2205" lon="5.52305">
        <ele>846.488</ele>
        <time>2019-04-27T10:17:04Z</time>
      </trkpt>
      <trkpt lat="44.2205" lon="5.52304">
        <ele>846.475</ele>
        <time>2019-04-27T10:17:14Z</time>
      </trkpt>
      <trkpt lat="44.2205" lon="5.52304">
        <ele>846.47</ele>
        <time>2019-04-27T10:17:24Z</time>
      </trkpt>
      <trkpt lat="44.2205" lon="5.52304">
        <ele>846.473</ele>
        <time>2019-04-27T10:17:34Z</time>
      </trkpt>
      <trkpt lat="44.2205" lon="5.52304">
        <ele>846.492</ele>
        <time>2019-04-27T10:17:45Z</time>
      </trkpt>
      <trkpt lat="44.2205" lon="5.52304">
        <ele>846.514</ele>
        <time>2019-04-27T10:17:55Z</time>
      </trkpt>
      <trkpt lat="44.2205" lon="5.52303">
        <ele>846.536</ele>
        <time>2019-04-27T10:18:06Z</time>
      </trkpt>
      <trkpt lat="44.2205" lon="5.52303">
        <ele>846.559</ele>
        <time>2019-04-27T10:18:16Z</time>
      </trkpt>
      <trkpt lat="44.2205" lon="5.52303">
        <ele>846.584</ele>
        <time>2019-04-27T10:18:26Z</time>
      </trkpt>
      <trkpt lat="44.2205" lon="5.52303">
        <ele>846.609</ele>
        <time>2019-04-27T10:18:37Z</time>
      </trkpt>
      <trkpt lat="44.2205" lon="5.52303">
        <ele>846.62</ele>
        <time>2019-04-27T10:18:48Z</time>
      </trkpt>
      <trkpt lat="44.2205" lon="5.52303">
        <ele>846.618</ele>
        <time>2019-04-27T10:18:58Z</time>
      </trkpt>
      <trkpt lat="44.2205" lon="5.52303">
        <ele>846.611</ele>
        <time>2019-04-27T10:19:09Z</time>
      </trkpt>
      <trkpt lat="44.2205" lon="5.52303">
        <ele>846.605</ele>
        <time>2019-04-27T10:19:20Z</time>
      </trkpt>
      <trkpt lat="44.2205" lon="5.52303">
        <ele>846.597</ele>
        <time>2019-04-27T10:19:30Z</time>
      </trkpt>
      <trkpt lat="44.2205" lon="5.52303">
        <ele>846.568</ele>
        <time>2019-04-27T10:19:41Z</time>
      </trkpt>
      <trkpt lat="44.22051" lon="5.52299">
        <ele>846.281</ele>
        <time>2019-04-27T10:19:51Z</time>
      </trkpt>
      <trkpt lat="44.22051" lon="5.52299">
        <ele>846.138</ele>
        <time>2019-04-27T10:20:02Z</time>
      </trkpt>
      <trkpt lat="44.22051" lon="5.52299">
        <ele>846.049</ele>
        <time>2019-04-27T10:20:12Z</time>
      </trkpt>
      <trkpt lat="44.2205" lon="5.523">
        <ele>846.011</ele>
        <time>2019-04-27T10:20:22Z</time>
      </trkpt>
      <trkpt lat="44.22051" lon="5.52301">
        <ele>845.947</ele>
        <time>2019-04-27T10:20:33Z</time>
      </trkpt>
      <trkpt lat="44.22051" lon="5.52301">
        <ele>845.856</ele>
        <time>2019-04-27T10:20:43Z</time>
      </trkpt>
      <trkpt lat="44.22051" lon="5.52301">
        <ele>845.792</ele>
        <time>2019-04-27T10:20:54Z</time>
      </trkpt>
      <trkpt lat="44.22051" lon="5.52301">
        <ele>845.762</ele>
        <time>2019-04-27T10:21:05Z</time>
      </trkpt>
      <trkpt lat="44.22051" lon="5.52301">
        <ele>845.737</ele>
        <time>2019-04-27T10:21:16Z</time>
      </trkpt>
      <trkpt lat="44.2205" lon="5.52301">
        <ele>845.729</ele>
        <time>2019-04-27T10:21:26Z</time>
      </trkpt>
      <trkpt lat="44.2205" lon="5.52301">
        <ele>845.724</ele>
        <time>2019-04-27T10:21:37Z</time>
      </trkpt>
      <trkpt lat="44.2205" lon="5.52301">
        <ele>845.717</ele>
        <time>2019-04-27T10:21:48Z</time>
      </trkpt>
      <trkpt lat="44.2205" lon="5.52302">
        <ele>845.704</ele>
        <time>2019-04-27T10:21:59Z</time>
      </trkpt>
      <trkpt lat="44.2205" lon="5.52302">
        <ele>845.688</ele>
        <time>2019-04-27T10:22:10Z</time>
      </trkpt>
      <trkpt lat="44.2205" lon="5.52302">
        <ele>845.68</ele>
        <time>2019-04-27T10:22:21Z</time>
      </trkpt>
      <trkpt lat="44.2205" lon="5.52302">
        <ele>845.672</ele>
        <time>2019-04-27T10:22:31Z</time>
      </trkpt>
      <trkpt lat="44.2205" lon="5.52302">
        <ele>845.657</ele>
        <time>2019-04-27T10:22:42Z</time>
      </trkpt>
      <trkpt lat="44.22049" lon="5.52302">
        <ele>845.65</ele>
        <time>2019-04-27T10:22:53Z</time>
      </trkpt>
      <trkpt lat="44.22049" lon="5.52302">
        <ele>845.648</ele>
        <time>2019-04-27T10:23:03Z</time>
      </trkpt>
      <trkpt lat="44.22049" lon="5.52302">
        <ele>845.645</ele>
        <time>2019-04-27T10:23:13Z</time>
      </trkpt>
      <trkpt lat="44.22049" lon="5.52302">
        <ele>845.619</ele>
        <time>2019-04-27T10:23:24Z</time>
      </trkpt>
      <trkpt lat="44.22049" lon="5.52302">
        <ele>845.577</ele>
        <time>2019-04-27T10:23:35Z</time>
      </trkpt>
      <trkpt lat="44.22049" lon="5.52302">
        <ele>845.537</ele>
        <time>2019-04-27T10:23:45Z</time>
      </trkpt>
      <trkpt lat="44.22049" lon="5.52302">
        <ele>845.495</ele>
        <time>2019-04-27T10:23:56Z</time>
      </trkpt>
      <trkpt lat="44.22049" lon="5.52302">
        <ele>845.459</ele>
        <time>2019-04-27T10:24:07Z</time>
      </trkpt>
      <trkpt lat="44.22049" lon="5.52302">
        <ele>845.437</ele>
        <time>2019-04-27T10:24:18Z</time>
      </trkpt>
      <trkpt lat="44.2205" lon="5.52302">
        <ele>845.41</ele>
        <time>2019-04-27T10:24:29Z</time>
      </trkpt>
      <trkpt lat="44.2205" lon="5.52301">
        <ele>845.376</ele>
        <time>2019-04-27T10:24:40Z</time>
      </trkpt>
      <trkpt lat="44.2205" lon="5.52301">
        <ele>845.333</ele>
        <time>2019-04-27T10:24:50Z</time>
      </trkpt>
      <trkpt lat="44.22051" lon="5.52301">
        <ele>845.273</ele>
        <time>2019-04-27T10:25:01Z</time>
      </trkpt>
      <trkpt lat="44.22051" lon="5.52301">
        <ele>845.207</ele>
        <time>2019-04-27T10:25:12Z</time>
      </trkpt>
      <trkpt lat="44.22051" lon="5.52301">
        <ele>845.135</ele>
        <time>2019-04-27T10:25:23Z</time>
      </trkpt>
      <trkpt lat="44.22051" lon="5.523">
        <ele>845.061</ele>
        <time>2019-04-27T10:25:34Z</time>
      </trkpt>
      <trkpt lat="44.22052" lon="5.523">
        <ele>844.99</ele>
        <time>2019-04-27T10:25:45Z</time>
      </trkpt>
      <trkpt lat="44.22052" lon="5.523">
        <ele>844.92</ele>
        <time>2019-04-27T10:25:56Z</time>
      </trkpt>
      <trkpt lat="44.22052" lon="5.523">
        <ele>844.86</ele>
        <time>2019-04-27T10:26:06Z</time>
      </trkpt>
      <trkpt lat="44.22052" lon="5.52301">
        <ele>844.8</ele>
        <time>2019-04-27T10:26:16Z</time>
      </trkpt>
      <trkpt lat="44.22052" lon="5.52301">
        <ele>844.741</ele>
        <time>2019-04-27T10:26:26Z</time>
      </trkpt>
      <trkpt lat="44.22052" lon="5.52301">
        <ele>844.644</ele>
        <time>2019-04-27T10:26:37Z</time>
      </trkpt>
      <trkpt lat="44.22052" lon="5.52301">
        <ele>844.548</ele>
        <time>2019-04-27T10:26:48Z</time>
      </trkpt>
      <trkpt lat="44.22052" lon="5.52301">
        <ele>844.436</ele>
        <time>2019-04-27T10:26:59Z</time>
      </trkpt>
      <trkpt lat="44.22052" lon="5.52302">
        <ele>844.35</ele>
        <time>2019-04-27T10:27:09Z</time>
      </trkpt>
      <trkpt lat="44.22052" lon="5.52301">
        <ele>844.316</ele>
        <time>2019-04-27T10:27:19Z</time>
      </trkpt>
      <trkpt lat="44.22051" lon="5.52305">
        <ele>844.04</ele>
        <time>2019-04-27T10:27:30Z</time>
      </trkpt>
      <trkpt lat="44.22051" lon="5.52305">
        <ele>843.982</ele>
        <time>2019-04-27T10:27:41Z</time>
      </trkpt>
      <trkpt lat="44.22051" lon="5.52305">
        <ele>843.894</ele>
        <time>2019-04-27T10:27:51Z</time>
      </trkpt>
      <trkpt lat="44.22052" lon="5.52306">
        <ele>843.831</ele>
        <time>2019-04-27T10:28:02Z</time>
      </trkpt>
      <trkpt lat="44.22052" lon="5.52306">
        <ele>843.784</ele>
        <time>2019-04-27T10:28:12Z</time>
      </trkpt>
      <trkpt lat="44.22052" lon="5.52306">
        <ele>843.711</ele>
        <time>2019-04-27T10:28:23Z</time>
      </trkpt>
      <trkpt lat="44.22053" lon="5.52306">
        <ele>843.661</ele>
        <time>2019-04-27T10:28:34Z</time>
      </trkpt>
      <trkpt lat="44.22053" lon="5.52306">
        <ele>843.617</ele>
        <time>2019-04-27T10:28:44Z</time>
      </trkpt>
      <trkpt lat="44.22053" lon="5.52305">
        <ele>843.585</ele>
        <time>2019-04-27T10:28:55Z</time>
      </trkpt>
      <trkpt lat="44.22053" lon="5.52305">
        <ele>843.549</ele>
        <time>2019-04-27T10:29:06Z</time>
      </trkpt>
      <trkpt lat="44.22052" lon="5.52305">
        <ele>843.513</ele>
        <time>2019-04-27T10:29:17Z</time>
      </trkpt>
      <trkpt lat="44.22051" lon="5.52305">
        <ele>843.573</ele>
        <time>2019-04-27T10:29:27Z</time>
      </trkpt>
      <trkpt lat="44.22052" lon="5.52305">
        <ele>843.712</ele>
        <time>2019-04-27T10:29:38Z</time>
      </trkpt>
      <trkpt lat="44.22052" lon="5.52305">
        <ele>843.876</ele>
        <time>2019-04-27T10:29:49Z</time>
      </trkpt>
      <trkpt lat="44.22051" lon="5.52305">
        <ele>844.116</ele>
        <time>2019-04-27T10:30:00Z</time>
      </trkpt>
      <trkpt lat="44.2205" lon="5.52304">
        <ele>844.396</ele>
        <time>2019-04-27T10:30:10Z</time>
      </trkpt>
      <trkpt lat="44.2205" lon="5.52304">
        <ele>844.434</ele>
        <time>2019-04-27T10:30:21Z</time>
      </trkpt>
      <trkpt lat="44.2205" lon="5.52304">
        <ele>844.458</ele>
        <time>2019-04-27T10:30:32Z</time>
      </trkpt>
      <trkpt lat="44.22049" lon="5.52303">
        <ele>844.473</ele>
        <time>2019-04-27T10:30:43Z</time>
      </trkpt>
      <trkpt lat="44.22051" lon="5.52304">
        <ele>844.787</ele>
        <time>2019-04-27T10:30:53Z</time>
      </trkpt>
      <trkpt lat="44.22051" lon="5.52303">
        <ele>845.089</ele>
        <time>2019-04-27T10:31:04Z</time>
      </trkpt>
      <trkpt lat="44.22053" lon="5.52309">
        <ele>845.213</ele>
        <time>2019-04-27T10:31:15Z</time>
      </trkpt>
      <trkpt lat="44.22071" lon="5.52299">
        <ele>844.874</ele>
        <time>2019-04-27T10:31:26Z</time>
      </trkpt>
      <trkpt lat="44.22098" lon="5.52291">
        <ele>844.582</ele>
        <time>2019-04-27T10:31:37Z</time>
      </trkpt>
      <trkpt lat="44.22115" lon="5.52274">
        <ele>844.545</ele>
        <time>2019-04-27T10:31:48Z</time>
      </trkpt>
      <trkpt lat="44.22124" lon="5.52233">
        <ele>845.318</ele>
        <time>2019-04-27T10:31:58Z</time>
      </trkpt>
      <trkpt lat="44.22129" lon="5.52188">
        <ele>846.521</ele>
        <time>2019-04-27T10:32:09Z</time>
      </trkpt>
      <trkpt lat="44.22133" lon="5.52152">
        <ele>848.098</ele>
        <time>2019-04-27T10:32:19Z</time>
      </trkpt>
      <trkpt lat="44.2214" lon="5.52115">
        <ele>849.138</ele>
        <time>2019-04-27T10:32:29Z</time>
      </trkpt>
      <trkpt lat="44.22148" lon="5.5207">
        <ele>849.817</ele>
        <time>2019-04-27T10:32:40Z</time>
      </trkpt>
      <trkpt lat="44.22155" lon="5.52029">
        <ele>850.271</ele>
        <time>2019-04-27T10:32:51Z</time>
      </trkpt>
      <trkpt lat="44.22162" lon="5.51992">
        <ele>850.772</ele>
        <time>2019-04-27T10:33:02Z</time>
      </trkpt>
      <trkpt lat="44.22167" lon="5.51958">
        <ele>851.308</ele>
        <time>2019-04-27T10:33:12Z</time>
      </trkpt>
      <trkpt lat="44.22173" lon="5.51921">
        <ele>851.741</ele>
        <time>2019-04-27T10:33:22Z</time>
      </trkpt>
      <trkpt lat="44.22182" lon="5.51884">
        <ele>852.143</ele>
        <time>2019-04-27T10:33:33Z</time>
      </trkpt>
      <trkpt lat="44.2219" lon="5.51849">
        <ele>852.796</ele>
        <time>2019-04-27T10:33:43Z</time>
      </trkpt>
      <trkpt lat="44.22199" lon="5.51811">
        <ele>853.375</ele>
        <time>2019-04-27T10:33:54Z</time>
      </trkpt>
      <trkpt lat="44.22212" lon="5.51773">
        <ele>853.955</ele>
        <time>2019-04-27T10:34:05Z</time>
      </trkpt>
      <trkpt lat="44.22225" lon="5.51741">
        <ele>854.518</ele>
        <time>2019-04-27T10:34:15Z</time>
      </trkpt>
      <trkpt lat="44.22239" lon="5.51703">
        <ele>855.179</ele>
        <time>2019-04-27T10:34:26Z</time>
      </trkpt>
      <trkpt lat="44.22252" lon="5.51667">
        <ele>855.836</ele>
        <time>2019-04-27T10:34:36Z</time>
      </trkpt>
      <trkpt lat="44.22265" lon="5.51629">
        <ele>856.319</ele>
        <time>2019-04-27T10:34:46Z</time>
      </trkpt>
      <trkpt lat="44.2228" lon="5.51587">
        <ele>856.557</ele>
        <time>2019-04-27T10:34:57Z</time>
      </trkpt>
      <trkpt lat="44.22293" lon="5.51548">
        <ele>856.965</ele>
        <time>2019-04-27T10:35:07Z</time>
      </trkpt>
      <trkpt lat="44.22311" lon="5.51503">
        <ele>857.268</ele>
        <time>2019-04-27T10:35:18Z</time>
      </trkpt>
      <trkpt lat="44.2233" lon="5.51451">
        <ele>857.716</ele>
        <time>2019-04-27T10:35:29Z</time>
      </trkpt>
      <trkpt lat="44.22351" lon="5.51402">
        <ele>858.01</ele>
        <time>2019-04-27T10:35:40Z</time>
      </trkpt>
      <trkpt lat="44.22368" lon="5.51354">
        <ele>859.594</ele>
        <time>2019-04-27T10:35:50Z</time>
      </trkpt>
      <trkpt lat="44.22385" lon="5.51312">
        <ele>860.169</ele>
        <time>2019-04-27T10:36:00Z</time>
      </trkpt>
      <trkpt lat="44.22402" lon="5.51263">
        <ele>860.393</ele>
        <time>2019-04-27T10:36:11Z</time>
      </trkpt>
      <trkpt lat="44.22421" lon="5.51203">
        <ele>858.777</ele>
        <time>2019-04-27T10:36:21Z</time>
      </trkpt>
      <trkpt lat="44.22444" lon="5.51144">
        <ele>858.999</ele>
        <time>2019-04-27T10:36:32Z</time>
      </trkpt>
      <trkpt lat="44.22458" lon="5.511">
        <ele>858.205</ele>
        <time>2019-04-27T10:36:42Z</time>
      </trkpt>
      <trkpt lat="44.22476" lon="5.51057">
        <ele>857.989</ele>
        <time>2019-04-27T10:36:53Z</time>
      </trkpt>
      <trkpt lat="44.2249" lon="5.51022">
        <ele>858.096</ele>
        <time>2019-04-27T10:37:03Z</time>
      </trkpt>
      <trkpt lat="44.22501" lon="5.50991">
        <ele>858.292</ele>
        <time>2019-04-27T10:37:13Z</time>
      </trkpt>
      <trkpt lat="44.22512" lon="5.50959">
        <ele>858.831</ele>
        <time>2019-04-27T10:37:24Z</time>
      </trkpt>
      <trkpt lat="44.22523" lon="5.50932">
        <ele>859.518</ele>
        <time>2019-04-27T10:37:34Z</time>
      </trkpt>
      <trkpt lat="44.22534" lon="5.50901">
        <ele>860.311</ele>
        <time>2019-04-27T10:37:45Z</time>
      </trkpt>
      <trkpt lat="44.22546" lon="5.50871">
        <ele>861.087</ele>
        <time>2019-04-27T10:37:55Z</time>
      </trkpt>
      <trkpt lat="44.22563" lon="5.50823">
        <ele>863.256</ele>
        <time>2019-04-27T10:38:06Z</time>
      </trkpt>
      <trkpt lat="44.22584" lon="5.50769">
        <ele>864.23</ele>
        <time>2019-04-27T10:38:16Z</time>
      </trkpt>
      <trkpt lat="44.22606" lon="5.5071">
        <ele>863.693</ele>
        <time>2019-04-27T10:38:27Z</time>
      </trkpt>
      <trkpt lat="44.22624" lon="5.50656">
        <ele>862.82</ele>
        <time>2019-04-27T10:38:38Z</time>
      </trkpt>
      <trkpt lat="44.22632" lon="5.50604">
        <ele>863.035</ele>
        <time>2019-04-27T10:38:48Z</time>
      </trkpt>
      <trkpt lat="44.22639" lon="5.50554">
        <ele>863.249</ele>
        <time>2019-04-27T10:38:59Z</time>
      </trkpt>
      <trkpt lat="44.22645" lon="5.50511">
        <ele>863.672</ele>
        <time>2019-04-27T10:39:09Z</time>
      </trkpt>
      <trkpt lat="44.2265" lon="5.5047">
        <ele>863.994</ele>
        <time>2019-04-27T10:39:19Z</time>
      </trkpt>
      <trkpt lat="44.22657" lon="5.50429">
        <ele>864.428</ele>
        <time>2019-04-27T10:39:30Z</time>
      </trkpt>
      <trkpt lat="44.22662" lon="5.50391">
        <ele>864.972</ele>
        <time>2019-04-27T10:39:41Z</time>
      </trkpt>
      <trkpt lat="44.22665" lon="5.50361">
        <ele>865.754</ele>
        <time>2019-04-27T10:39:51Z</time>
      </trkpt>
      <trkpt lat="44.22671" lon="5.50326">
        <ele>866.724</ele>
        <time>2019-04-27T10:40:02Z</time>
      </trkpt>
      <trkpt lat="44.22676" lon="5.50295">
        <ele>867.457</ele>
        <time>2019-04-27T10:40:12Z</time>
      </trkpt>
      <trkpt lat="44.2268" lon="5.50259">
        <ele>868.339</ele>
        <time>2019-04-27T10:40:23Z</time>
      </trkpt>
      <trkpt lat="44.22684" lon="5.50227">
        <ele>869.153</ele>
        <time>2019-04-27T10:40:33Z</time>
      </trkpt>
      <trkpt lat="44.22688" lon="5.50195">
        <ele>870.042</ele>
        <time>2019-04-27T10:40:43Z</time>
      </trkpt>
      <trkpt lat="44.22692" lon="5.5016">
        <ele>871.05</ele>
        <time>2019-04-27T10:40:54Z</time>
      </trkpt>
      <trkpt lat="44.22697" lon="5.50127">
        <ele>871.917</ele>
        <time>2019-04-27T10:41:04Z</time>
      </trkpt>
      <trkpt lat="44.22702" lon="5.50089">
        <ele>872.747</ele>
        <time>2019-04-27T10:41:15Z</time>
      </trkpt>
      <trkpt lat="44.22709" lon="5.50053">
        <ele>873.456</ele>
        <time>2019-04-27T10:41:26Z</time>
      </trkpt>
      <trkpt lat="44.22716" lon="5.50018">
        <ele>874.2</ele>
        <time>2019-04-27T10:41:37Z</time>
      </trkpt>
      <trkpt lat="44.22723" lon="5.49985">
        <ele>874.861</ele>
        <time>2019-04-27T10:41:47Z</time>
      </trkpt>
      <trkpt lat="44.22732" lon="5.49945">
        <ele>875.614</ele>
        <time>2019-04-27T10:41:58Z</time>
      </trkpt>
      <trkpt lat="44.22742" lon="5.49909">
        <ele>876.31</ele>
        <time>2019-04-27T10:42:09Z</time>
      </trkpt>
      <trkpt lat="44.22755" lon="5.49877">
        <ele>877.046</ele>
        <time>2019-04-27T10:42:20Z</time>
      </trkpt>
      <trkpt lat="44.22767" lon="5.49847">
        <ele>877.934</ele>
        <time>2019-04-27T10:42:31Z</time>
      </trkpt>
      <trkpt lat="44.22777" lon="5.49819">
        <ele>878.742</ele>
        <time>2019-04-27T10:42:41Z</time>
      </trkpt>
      <trkpt lat="44.22789" lon="5.4979">
        <ele>879.59</ele>
        <time>2019-04-27T10:42:51Z</time>
      </trkpt>
      <trkpt lat="44.22801" lon="5.49756">
        <ele>880.515</ele>
        <time>2019-04-27T10:43:02Z</time>
      </trkpt>
      <trkpt lat="44.2281" lon="5.49719">
        <ele>881.279</ele>
        <time>2019-04-27T10:43:12Z</time>
      </trkpt>
      <trkpt lat="44.22818" lon="5.49673">
        <ele>882.059</ele>
        <time>2019-04-27T10:43:23Z</time>
      </trkpt>
      <trkpt lat="44.22825" lon="5.49637">
        <ele>882.838</ele>
        <time>2019-04-27T10:43:33Z</time>
      </trkpt>
      <trkpt lat="44.22832" lon="5.49599">
        <ele>883.431</ele>
        <time>2019-04-27T10:43:43Z</time>
      </trkpt>
      <trkpt lat="44.22839" lon="5.49558">
        <ele>884.209</ele>
        <time>2019-04-27T10:43:54Z</time>
      </trkpt>
      <trkpt lat="44.22846" lon="5.49523">
        <ele>884.966</ele>
        <time>2019-04-27T10:44:04Z</time>
      </trkpt>
      <trkpt lat="44.22853" lon="5.49484">
        <ele>885.774</ele>
        <time>2019-04-27T10:44:15Z</time>
      </trkpt>
      <trkpt lat="44.2286" lon="5.4945">
        <ele>886.542</ele>
        <time>2019-04-27T10:44:25Z</time>
      </trkpt>
      <trkpt lat="44.22866" lon="5.49414">
        <ele>887.226</ele>
        <time>2019-04-27T10:44:36Z</time>
      </trkpt>
      <trkpt lat="44.22873" lon="5.49377">
        <ele>887.881</ele>
        <time>2019-04-27T10:44:47Z</time>
      </trkpt>
      <trkpt lat="44.22879" lon="5.49343">
        <ele>888.498</ele>
        <time>2019-04-27T10:44:57Z</time>
      </trkpt>
      <trkpt lat="44.22886" lon="5.49305">
        <ele>889.16</ele>
        <time>2019-04-27T10:45:08Z</time>
      </trkpt>
      <trkpt lat="44.22893" lon="5.49269">
        <ele>889.751</ele>
        <time>2019-04-27T10:45:18Z</time>
      </trkpt>
      <trkpt lat="44.229" lon="5.49232">
        <ele>890.359</ele>
        <time>2019-04-27T10:45:28Z</time>
      </trkpt>
      <trkpt lat="44.22906" lon="5.49195">
        <ele>891.019</ele>
        <time>2019-04-27T10:45:38Z</time>
      </trkpt>
      <trkpt lat="44.22914" lon="5.49153">
        <ele>891.771</ele>
        <time>2019-04-27T10:45:49Z</time>
      </trkpt>
      <trkpt lat="44.2292" lon="5.49117">
        <ele>892.363</ele>
        <time>2019-04-27T10:45:59Z</time>
      </trkpt>
      <trkpt lat="44.22924" lon="5.49083">
        <ele>893.091</ele>
        <time>2019-04-27T10:46:10Z</time>
      </trkpt>
      <trkpt lat="44.22928" lon="5.49047">
        <ele>893.744</ele>
        <time>2019-04-27T10:46:21Z</time>
      </trkpt>
      <trkpt lat="44.22932" lon="5.49012">
        <ele>894.416</ele>
        <time>2019-04-27T10:46:31Z</time>
      </trkpt>
      <trkpt lat="44.22937" lon="5.48972">
        <ele>895.151</ele>
        <time>2019-04-27T10:46:42Z</time>
      </trkpt>
      <trkpt lat="44.22943" lon="5.48933">
        <ele>895.794</ele>
        <time>2019-04-27T10:46:53Z</time>
      </trkpt>
      <trkpt lat="44.22947" lon="5.48898">
        <ele>896.385</ele>
        <time>2019-04-27T10:47:03Z</time>
      </trkpt>
      <trkpt lat="44.22953" lon="5.48857">
        <ele>896.995</ele>
        <time>2019-04-27T10:47:14Z</time>
      </trkpt>
      <trkpt lat="44.22958" lon="5.48819">
        <ele>897.472</ele>
        <time>2019-04-27T10:47:24Z</time>
      </trkpt>
      <trkpt lat="44.22963" lon="5.48781">
        <ele>897.956</ele>
        <time>2019-04-27T10:47:34Z</time>
      </trkpt>
      <trkpt lat="44.22969" lon="5.48743">
        <ele>898.485</ele>
        <time>2019-04-27T10:47:44Z</time>
      </trkpt>
      <trkpt lat="44.22973" lon="5.48702">
        <ele>899.101</ele>
        <time>2019-04-27T10:47:55Z</time>
      </trkpt>
      <trkpt lat="44.22978" lon="5.48669">
        <ele>899.725</ele>
        <time>2019-04-27T10:48:05Z</time>
      </trkpt>
      <trkpt lat="44.22984" lon="5.48636">
        <ele>900.29</ele>
        <time>2019-04-27T10:48:16Z</time>
      </trkpt>
      <trkpt lat="44.22988" lon="5.48603">
        <ele>901.162</ele>
        <time>2019-04-27T10:48:27Z</time>
      </trkpt>
      <trkpt lat="44.22992" lon="5.48575">
        <ele>901.805</ele>
        <time>2019-04-27T10:48:37Z</time>
      </trkpt>
      <trkpt lat="44.22997" lon="5.48546">
        <ele>902.589</ele>
        <time>2019-04-27T10:48:47Z</time>
      </trkpt>
      <trkpt lat="44.23003" lon="5.48518">
        <ele>903.354</ele>
        <time>2019-04-27T10:48:57Z</time>
      </trkpt>
      <trkpt lat="44.23008" lon="5.48493">
        <ele>904.15</ele>
        <time>2019-04-27T10:49:08Z</time>
      </trkpt>
      <trkpt lat="44.23016" lon="5.48464">
        <ele>904.965</ele>
        <time>2019-04-27T10:49:19Z</time>
      </trkpt>
      <trkpt lat="44.23022" lon="5.48439">
        <ele>905.743</ele>
        <time>2019-04-27T10:49:29Z</time>
      </trkpt>
      <trkpt lat="44.23031" lon="5.48407">
        <ele>906.578</ele>
        <time>2019-04-27T10:49:40Z</time>
      </trkpt>
      <trkpt lat="44.23039" lon="5.48376">
        <ele>907.452</ele>
        <time>2019-04-27T10:49:51Z</time>
      </trkpt>
      <trkpt lat="44.23047" lon="5.48348">
        <ele>908.274</ele>
        <time>2019-04-27T10:50:01Z</time>
      </trkpt>
      <trkpt lat="44.23053" lon="5.48318">
        <ele>909.149</ele>
        <time>2019-04-27T10:50:12Z</time>
      </trkpt>
      <trkpt lat="44.2306" lon="5.48292">
        <ele>910.232</ele>
        <time>2019-04-27T10:50:22Z</time>
      </trkpt>
      <trkpt lat="44.23068" lon="5.48265">
        <ele>911.384</ele>
        <time>2019-04-27T10:50:32Z</time>
      </trkpt>
      <trkpt lat="44.23074" lon="5.48241">
        <ele>912.658</ele>
        <time>2019-04-27T10:50:43Z</time>
      </trkpt>
      <trkpt lat="44.2308" lon="5.48218">
        <ele>913.873</ele>
        <time>2019-04-27T10:50:54Z</time>
      </trkpt>
      <trkpt lat="44.23085" lon="5.48196">
        <ele>915.026</ele>
        <time>2019-04-27T10:51:04Z</time>
      </trkpt>
      <trkpt lat="44.2309" lon="5.48173">
        <ele>916.313</ele>
        <time>2019-04-27T10:51:15Z</time>
      </trkpt>
      <trkpt lat="44.23094" lon="5.48153">
        <ele>917.424</ele>
        <time>2019-04-27T10:51:25Z</time>
      </trkpt>
      <trkpt lat="44.23096" lon="5.48131">
        <ele>918.59</ele>
        <time>2019-04-27T10:51:36Z</time>
      </trkpt>
      <trkpt lat="44.23099" lon="5.48107">
        <ele>919.835</ele>
        <time>2019-04-27T10:51:47Z</time>
      </trkpt>
      <trkpt lat="44.231" lon="5.48084">
        <ele>920.982</ele>
        <time>2019-04-27T10:51:57Z</time>
      </trkpt>
      <trkpt lat="44.23103" lon="5.48059">
        <ele>922.267</ele>
        <time>2019-04-27T10:52:08Z</time>
      </trkpt>
      <trkpt lat="44.23106" lon="5.48034">
        <ele>923.503</ele>
        <time>2019-04-27T10:52:18Z</time>
      </trkpt>
      <trkpt lat="44.23108" lon="5.48007">
        <ele>924.723</ele>
        <time>2019-04-27T10:52:29Z</time>
      </trkpt>
      <trkpt lat="44.23111" lon="5.47979">
        <ele>925.818</ele>
        <time>2019-04-27T10:52:39Z</time>
      </trkpt>
      <trkpt lat="44.23113" lon="5.47953">
        <ele>927.083</ele>
        <time>2019-04-27T10:52:50Z</time>
      </trkpt>
      <trkpt lat="44.23115" lon="5.47931">
        <ele>928.157</ele>
        <time>2019-04-27T10:53:00Z</time>
      </trkpt>
      <trkpt lat="44.23118" lon="5.47903">
        <ele>929.234</ele>
        <time>2019-04-27T10:53:11Z</time>
      </trkpt>
      <trkpt lat="44.2312" lon="5.47875">
        <ele>930.219</ele>
        <time>2019-04-27T10:53:22Z</time>
      </trkpt>
      <trkpt lat="44.23123" lon="5.47849">
        <ele>930.973</ele>
        <time>2019-04-27T10:53:32Z</time>
      </trkpt>
      <trkpt lat="44.23126" lon="5.47818">
        <ele>931.875</ele>
        <time>2019-04-27T10:53:43Z</time>
      </trkpt>
      <trkpt lat="44.23129" lon="5.47789">
        <ele>932.778</ele>
        <time>2019-04-27T10:53:54Z</time>
      </trkpt>
      <trkpt lat="44.23131" lon="5.4776">
        <ele>933.614</ele>
        <time>2019-04-27T10:54:04Z</time>
      </trkpt>
      <trkpt lat="44.23134" lon="5.4773">
        <ele>934.561</ele>
        <time>2019-04-27T10:54:15Z</time>
      </trkpt>
      <trkpt lat="44.23136" lon="5.47702">
        <ele>935.461</ele>
        <time>2019-04-27T10:54:25Z</time>
      </trkpt>
      <trkpt lat="44.23141" lon="5.47667">
        <ele>936.442</ele>
        <time>2019-04-27T10:54:36Z</time>
      </trkpt>
      <trkpt lat="44.23144" lon="5.47614">
        <ele>938.251</ele>
        <time>2019-04-27T10:54:46Z</time>
      </trkpt>
      <trkpt lat="44.23143" lon="5.47522">
        <ele>935.48</ele>
        <time>2019-04-27T10:54:57Z</time>
      </trkpt>
      <trkpt lat="44.23179" lon="5.47428">
        <ele>931.514</ele>
        <time>2019-04-27T10:55:07Z</time>
      </trkpt>
      <trkpt lat="44.23229" lon="5.4735">
        <ele>928.71</ele>
        <time>2019-04-27T10:55:17Z</time>
      </trkpt>
      <trkpt lat="44.23283" lon="5.47268">
        <ele>924.627</ele>
        <time>2019-04-27T10:55:28Z</time>
      </trkpt>
      <trkpt lat="44.23334" lon="5.47202">
        <ele>921.023</ele>
        <time>2019-04-27T10:55:38Z</time>
      </trkpt>
      <trkpt lat="44.23399" lon="5.47138">
        <ele>917.072</ele>
        <time>2019-04-27T10:55:49Z</time>
      </trkpt>
      <trkpt lat="44.23462" lon="5.47094">
        <ele>913.318</ele>
        <time>2019-04-27T10:55:59Z</time>
      </trkpt>
      <trkpt lat="44.23533" lon="5.47042">
        <ele>909.286</ele>
        <time>2019-04-27T10:56:10Z</time>
      </trkpt>
      <trkpt lat="44.23604" lon="5.46991">
        <ele>905.542</ele>
        <time>2019-04-27T10:56:21Z</time>
      </trkpt>
      <trkpt lat="44.23664" lon="5.46947">
        <ele>902.436</ele>
        <time>2019-04-27T10:56:31Z</time>
      </trkpt>
      <trkpt lat="44.23732" lon="5.46897">
        <ele>899.113</ele>
        <time>2019-04-27T10:56:42Z</time>
      </trkpt>
      <trkpt lat="44.23804" lon="5.46845">
        <ele>895.765</ele>
        <time>2019-04-27T10:56:53Z</time>
      </trkpt>
      <trkpt lat="44.23864" lon="5.46802">
        <ele>893.671</ele>
        <time>2019-04-27T10:57:03Z</time>
      </trkpt>
      <trkpt lat="44.23915" lon="5.46746">
        <ele>890.665</ele>
        <time>2019-04-27T10:57:14Z</time>
      </trkpt>
      <trkpt lat="44.23956" lon="5.46686">
        <ele>888.595</ele>
        <time>2019-04-27T10:57:24Z</time>
      </trkpt>
      <trkpt lat="44.23993" lon="5.46628">
        <ele>886.513</ele>
        <time>2019-04-27T10:57:34Z</time>
      </trkpt>
      <trkpt lat="44.24033" lon="5.46566">
        <ele>883.163</ele>
        <time>2019-04-27T10:57:45Z</time>
      </trkpt>
      <trkpt lat="44.24066" lon="5.46517">
        <ele>880.944</ele>
        <time>2019-04-27T10:57:55Z</time>
      </trkpt>
      <trkpt lat="44.24087" lon="5.46459">
        <ele>879.758</ele>
        <time>2019-04-27T10:58:06Z</time>
      </trkpt>
      <trkpt lat="44.24085" lon="5.46405">
        <ele>879.092</ele>
        <time>2019-04-27T10:58:16Z</time>
      </trkpt>
      <trkpt lat="44.24088" lon="5.46361">
        <ele>879.022</ele>
        <time>2019-04-27T10:58:27Z</time>
      </trkpt>
      <trkpt lat="44.24099" lon="5.46327">
        <ele>878.995</ele>
        <time>2019-04-27T10:58:37Z</time>
      </trkpt>
      <trkpt lat="44.24113" lon="5.46289">
        <ele>878.896</ele>
        <time>2019-04-27T10:58:48Z</time>
      </trkpt>
      <trkpt lat="44.24124" lon="5.46244">
        <ele>878.677</ele>
        <time>2019-04-27T10:58:58Z</time>
      </trkpt>
      <trkpt lat="44.24135" lon="5.46185">
        <ele>878.387</ele>
        <time>2019-04-27T10:59:09Z</time>
      </trkpt>
      <trkpt lat="44.24162" lon="5.46128">
        <ele>877.993</ele>
        <time>2019-04-27T10:59:20Z</time>
      </trkpt>
      <trkpt lat="44.24196" lon="5.46079">
        <ele>877.396</ele>
        <time>2019-04-27T10:59:30Z</time>
      </trkpt>
      <trkpt lat="44.24241" lon="5.46045">
        <ele>876.981</ele>
        <time>2019-04-27T10:59:41Z</time>
      </trkpt>
      <trkpt lat="44.24285" lon="5.46022">
        <ele>876.614</ele>
        <time>2019-04-27T10:59:51Z</time>
      </trkpt>
      <trkpt lat="44.24303" lon="5.45967">
        <ele>875.954</ele>
        <time>2019-04-27T11:00:01Z</time>
      </trkpt>
      <trkpt lat="44.24309" lon="5.45894">
        <ele>875.185</ele>
        <time>2019-04-27T11:00:12Z</time>
      </trkpt>
      <trkpt lat="44.24329" lon="5.45836">
        <ele>874.434</ele>
        <time>2019-04-27T11:00:22Z</time>
      </trkpt>
      <trkpt lat="44.24352" lon="5.45775">
        <ele>872.865</ele>
        <time>2019-04-27T11:00:32Z</time>
      </trkpt>
      <trkpt lat="44.24374" lon="5.45698">
        <ele>871.252</ele>
        <time>2019-04-27T11:00:43Z</time>
      </trkpt>
      <trkpt lat="44.24383" lon="5.45622">
        <ele>869.98</ele>
        <time>2019-04-27T11:00:53Z</time>
      </trkpt>
      <trkpt lat="44.24381" lon="5.45533">
        <ele>868.628</ele>
        <time>2019-04-27T11:01:04Z</time>
      </trkpt>
      <trkpt lat="44.24382" lon="5.45447">
        <ele>867.189</ele>
        <time>2019-04-27T11:01:14Z</time>
      </trkpt>
      <trkpt lat="44.24393" lon="5.45356">
        <ele>865.653</ele>
        <time>2019-04-27T11:01:25Z</time>
      </trkpt>
      <trkpt lat="44.24421" lon="5.45283">
        <ele>864.207</ele>
        <time>2019-04-27T11:01:36Z</time>
      </trkpt>
      <trkpt lat="44.24451" lon="5.45223">
        <ele>862.652</ele>
        <time>2019-04-27T11:01:46Z</time>
      </trkpt>
      <trkpt lat="44.24493" lon="5.45167">
        <ele>861.226</ele>
        <time>2019-04-27T11:01:56Z</time>
      </trkpt>
      <trkpt lat="44.24539" lon="5.45118">
        <ele>859.715</ele>
        <time>2019-04-27T11:02:07Z</time>
      </trkpt>
      <trkpt lat="44.24578" lon="5.45064">
        <ele>857.894</ele>
        <time>2019-04-27T11:02:17Z</time>
      </trkpt>
      <trkpt lat="44.24616" lon="5.45006">
        <ele>856.818</ele>
        <time>2019-04-27T11:02:27Z</time>
      </trkpt>
      <trkpt lat="44.24653" lon="5.44945">
        <ele>855.79</ele>
        <time>2019-04-27T11:02:38Z</time>
      </trkpt>
      <trkpt lat="44.24684" lon="5.4489">
        <ele>853.861</ele>
        <time>2019-04-27T11:02:48Z</time>
      </trkpt>
      <trkpt lat="44.24712" lon="5.44815">
        <ele>851.718</ele>
        <time>2019-04-27T11:02:59Z</time>
      </trkpt>
      <trkpt lat="44.24744" lon="5.44739">
        <ele>850.251</ele>
        <time>2019-04-27T11:03:10Z</time>
      </trkpt>
      <trkpt lat="44.24791" lon="5.44695">
        <ele>848.678</ele>
        <time>2019-04-27T11:03:20Z</time>
      </trkpt>
      <trkpt lat="44.24848" lon="5.44643">
        <ele>846.555</ele>
        <time>2019-04-27T11:03:31Z</time>
      </trkpt>
      <trkpt lat="44.24898" lon="5.44592">
        <ele>845.088</ele>
        <time>2019-04-27T11:03:42Z</time>
      </trkpt>
      <trkpt lat="44.24948" lon="5.44538">
        <ele>844.004</ele>
        <time>2019-04-27T11:03:52Z</time>
      </trkpt>
      <trkpt lat="44.25011" lon="5.44484">
        <ele>842.282</ele>
        <time>2019-04-27T11:04:03Z</time>
      </trkpt>
      <trkpt lat="44.25062" lon="5.44428">
        <ele>840.615</ele>
        <time>2019-04-27T11:04:13Z</time>
      </trkpt>
      <trkpt lat="44.25117" lon="5.44367">
        <ele>838.082</ele>
        <time>2019-04-27T11:04:24Z</time>
      </trkpt>
      <trkpt lat="44.2518" lon="5.44337">
        <ele>835.925</ele>
        <time>2019-04-27T11:04:35Z</time>
      </trkpt>
      <trkpt lat="44.25161" lon="5.44328">
        <ele>834.022</ele>
        <time>2019-04-27T11:04:45Z</time>
      </trkpt>
      <trkpt lat="44.25104" lon="5.44292">
        <ele>832.404</ele>
        <time>2019-04-27T11:04:56Z</time>
      </trkpt>
      <trkpt lat="44.2505" lon="5.44234">
        <ele>831.061</ele>
        <time>2019-04-27T11:05:07Z</time>
      </trkpt>
      <trkpt lat="44.25011" lon="5.44194">
        <ele>830.126</ele>
        <time>2019-04-27T11:05:17Z</time>
      </trkpt>
      <trkpt lat="44.24977" lon="5.44165">
        <ele>829.931</ele>
        <time>2019-04-27T11:05:27Z</time>
      </trkpt>
      <trkpt lat="44.24937" lon="5.44148">
        <ele>830.254</ele>
        <time>2019-04-27T11:05:38Z</time>
      </trkpt>
      <trkpt lat="44.24899" lon="5.44149">
        <ele>830.797</ele>
        <time>2019-04-27T11:05:48Z</time>
      </trkpt>
      <trkpt lat="44.24893" lon="5.44148">
        <ele>830.982</ele>
        <time>2019-04-27T11:05:59Z</time>
      </trkpt>
      <trkpt lat="44.24893" lon="5.44148">
        <ele>831.057</ele>
        <time>2019-04-27T11:06:10Z</time>
      </trkpt>
      <trkpt lat="44.24893" lon="5.44148">
        <ele>831.146</ele>
        <time>2019-04-27T11:06:20Z</time>
      </trkpt>
      <trkpt lat="44.24893" lon="5.44148">
        <ele>831.264</ele>
        <time>2019-04-27T11:06:31Z</time>
      </trkpt>
      <trkpt lat="44.24893" lon="5.44148">
        <ele>831.385</ele>
        <time>2019-04-27T11:06:41Z</time>
      </trkpt>
      <trkpt lat="44.24893" lon="5.44148">
        <ele>831.51</ele>
        <time>2019-04-27T11:06:51Z</time>
      </trkpt>
      <trkpt lat="44.24893" lon="5.44148">
        <ele>831.638</ele>
        <time>2019-04-27T11:07:01Z</time>
      </trkpt>
      <trkpt lat="44.24893" lon="5.44148">
        <ele>831.779</ele>
        <time>2019-04-27T11:07:12Z</time>
      </trkpt>
      <trkpt lat="44.24893" lon="5.44148">
        <ele>831.903</ele>
        <time>2019-04-27T11:07:22Z</time>
      </trkpt>
      <trkpt lat="44.24893" lon="5.44148">
        <ele>832.043</ele>
        <time>2019-04-27T11:07:33Z</time>
      </trkpt>
      <trkpt lat="44.24893" lon="5.44148">
        <ele>832.179</ele>
        <time>2019-04-27T11:07:44Z</time>
      </trkpt>
      <trkpt lat="44.24893" lon="5.44148">
        <ele>832.308</ele>
        <time>2019-04-27T11:07:55Z</time>
      </trkpt>
      <trkpt lat="44.24893" lon="5.44148">
        <ele>832.419</ele>
        <time>2019-04-27T11:08:05Z</time>
      </trkpt>
      <trkpt lat="44.24893" lon="5.44148">
        <ele>832.676</ele>
        <time>2019-04-27T11:08:16Z</time>
      </trkpt>
      <trkpt lat="44.24893" lon="5.44148">
        <ele>832.986</ele>
        <time>2019-04-27T11:08:26Z</time>
      </trkpt>
      <trkpt lat="44.24893" lon="5.44148">
        <ele>833.093</ele>
        <time>2019-04-27T11:08:37Z</time>
      </trkpt>
      <trkpt lat="44.24887" lon="5.44139">
        <ele>833.869</ele>
        <time>2019-04-27T11:08:47Z</time>
      </trkpt>
      <trkpt lat="44.24858" lon="5.4411">
        <ele>834.641</ele>
        <time>2019-04-27T11:08:58Z</time>
      </trkpt>
      <trkpt lat="44.24829" lon="5.44081">
        <ele>834.982</ele>
        <time>2019-04-27T11:09:08Z</time>
      </trkpt>
      <trkpt lat="44.24795" lon="5.44051">
        <ele>835.35</ele>
        <time>2019-04-27T11:09:19Z</time>
      </trkpt>
      <trkpt lat="44.24761" lon="5.4402">
        <ele>835.584</ele>
        <time>2019-04-27T11:09:30Z</time>
      </trkpt>
      <trkpt lat="44.2473" lon="5.43999">
        <ele>835.725</ele>
        <time>2019-04-27T11:09:41Z</time>
      </trkpt>
      <trkpt lat="44.24702" lon="5.43989">
        <ele>835.977</ele>
        <time>2019-04-27T11:09:51Z</time>
      </trkpt>
      <trkpt lat="44.2467" lon="5.4398">
        <ele>836.593</ele>
        <time>2019-04-27T11:10:02Z</time>
      </trkpt>
      <trkpt lat="44.24638" lon="5.43973">
        <ele>837.781</ele>
        <time>2019-04-27T11:10:12Z</time>
      </trkpt>
      <trkpt lat="44.24607" lon="5.43967">
        <ele>838.83</ele>
        <time>2019-04-27T11:10:22Z</time>
      </trkpt>
      <trkpt lat="44.24578" lon="5.43962">
        <ele>839.739</ele>
        <time>2019-04-27T11:10:33Z</time>
      </trkpt>
      <trkpt lat="44.24555" lon="5.43958">
        <ele>840.656</ele>
        <time>2019-04-27T11:10:43Z</time>
      </trkpt>
      <trkpt lat="44.24531" lon="5.43955">
        <ele>841.834</ele>
        <time>2019-04-27T11:10:54Z</time>
      </trkpt>
      <trkpt lat="44.24508" lon="5.43952">
        <ele>843.397</ele>
        <time>2019-04-27T11:11:05Z</time>
      </trkpt>
      <trkpt lat="44.24481" lon="5.43945">
        <ele>845.041</ele>
        <time>2019-04-27T11:11:16Z</time>
      </trkpt>
      <trkpt lat="44.24456" lon="5.43935">
        <ele>846.512</ele>
        <time>2019-04-27T11:11:26Z</time>
      </trkpt>
      <trkpt lat="44.24435" lon="5.43923">
        <ele>848.001</ele>
        <time>2019-04-27T11:11:36Z</time>
      </trkpt>
      <trkpt lat="44.24414" lon="5.43911">
        <ele>850.009</ele>
        <time>2019-04-27T11:11:46Z</time>
      </trkpt>
      <trkpt lat="44.24389" lon="5.43901">
        <ele>851.512</ele>
        <time>2019-04-27T11:11:57Z</time>
      </trkpt>
      <trkpt lat="44.24354" lon="5.43896">
        <ele>852.422</ele>
        <time>2019-04-27T11:12:08Z</time>
      </trkpt>
      <trkpt lat="44.24321" lon="5.43891">
        <ele>853.13</ele>
        <time>2019-04-27T11:12:18Z</time>
      </trkpt>
      <trkpt lat="44.24287" lon="5.43884">
        <ele>853.801</ele>
        <time>2019-04-27T11:12:29Z</time>
      </trkpt>
      <trkpt lat="44.24255" lon="5.439">
        <ele>854.317</ele>
        <time>2019-04-27T11:12:40Z</time>
      </trkpt>
      <trkpt lat="44.2423" lon="5.43927">
        <ele>855.194</ele>
        <time>2019-04-27T11:12:50Z</time>
      </trkpt>
      <trkpt lat="44.24201" lon="5.43952">
        <ele>856.745</ele>
        <time>2019-04-27T11:13:01Z</time>
      </trkpt>
      <trkpt lat="44.24169" lon="5.43968">
        <ele>858.15</ele>
        <time>2019-04-27T11:13:12Z</time>
      </trkpt>
      <trkpt lat="44.24134" lon="5.43952">
        <ele>859.006</ele>
        <time>2019-04-27T11:13:23Z</time>
      </trkpt>
      <trkpt lat="44.24098" lon="5.43944">
        <ele>861.337</ele>
        <time>2019-04-27T11:13:33Z</time>
      </trkpt>
      <trkpt lat="44.24065" lon="5.43942">
        <ele>861.47</ele>
        <time>2019-04-27T11:13:44Z</time>
      </trkpt>
      <trkpt lat="44.24038" lon="5.43932">
        <ele>861.923</ele>
        <time>2019-04-27T11:13:55Z</time>
      </trkpt>
      <trkpt lat="44.24014" lon="5.43928">
        <ele>862.607</ele>
        <time>2019-04-27T11:14:05Z</time>
      </trkpt>
      <trkpt lat="44.23988" lon="5.43932">
        <ele>863.529</ele>
        <time>2019-04-27T11:14:16Z</time>
      </trkpt>
      <trkpt lat="44.23966" lon="5.43936">
        <ele>864.419</ele>
        <time>2019-04-27T11:14:26Z</time>
      </trkpt>
      <trkpt lat="44.23946" lon="5.43919">
        <ele>865.387</ele>
        <time>2019-04-27T11:14:37Z</time>
      </trkpt>
      <trkpt lat="44.23937" lon="5.43892">
        <ele>866.394</ele>
        <time>2019-04-27T11:14:47Z</time>
      </trkpt>
      <trkpt lat="44.23929" lon="5.4386">
        <ele>867.67</ele>
        <time>2019-04-27T11:14:58Z</time>
      </trkpt>
      <trkpt lat="44.23928" lon="5.43835">
        <ele>868.699</ele>
        <time>2019-04-27T11:15:08Z</time>
      </trkpt>
      <trkpt lat="44.23932" lon="5.43808">
        <ele>869.824</ele>
        <time>2019-04-27T11:15:19Z</time>
      </trkpt>
      <trkpt lat="44.23935" lon="5.43783">
        <ele>870.92</ele>
        <time>2019-04-27T11:15:29Z</time>
      </trkpt>
      <trkpt lat="44.23923" lon="5.43762">
        <ele>872.511</ele>
        <time>2019-04-27T11:15:40Z</time>
      </trkpt>
      <trkpt lat="44.23901" lon="5.43773">
        <ele>874.201</ele>
        <time>2019-04-27T11:15:51Z</time>
      </trkpt>
      <trkpt lat="44.23891" lon="5.43801">
        <ele>875.276</ele>
        <time>2019-04-27T11:16:01Z</time>
      </trkpt>
      <trkpt lat="44.23885" lon="5.43825">
        <ele>876.511</ele>
        <time>2019-04-27T11:16:11Z</time>
      </trkpt>
      <trkpt lat="44.23867" lon="5.43837">
        <ele>878.17</ele>
        <time>2019-04-27T11:16:22Z</time>
      </trkpt>
      <trkpt lat="44.23848" lon="5.4384">
        <ele>879.247</ele>
        <time>2019-04-27T11:16:32Z</time>
      </trkpt>
      <trkpt lat="44.23825" lon="5.43843">
        <ele>880.434</ele>
        <time>2019-04-27T11:16:43Z</time>
      </trkpt>
      <trkpt lat="44.23802" lon="5.43839">
        <ele>881.614</ele>
        <time>2019-04-27T11:16:53Z</time>
      </trkpt>
      <trkpt lat="44.23776" lon="5.43828">
        <ele>883.067</ele>
        <time>2019-04-27T11:17:04Z</time>
      </trkpt>
      <trkpt lat="44.23753" lon="5.43809">
        <ele>884.563</ele>
        <time>2019-04-27T11:17:15Z</time>
      </trkpt>
      <trkpt lat="44.23731" lon="5.43798">
        <ele>886.045</ele>
        <time>2019-04-27T11:17:26Z</time>
      </trkpt>
      <trkpt lat="44.2371" lon="5.43798">
        <ele>887.308</ele>
        <time>2019-04-27T11:17:36Z</time>
      </trkpt>
      <trkpt lat="44.23689" lon="5.43777">
        <ele>888.468</ele>
        <time>2019-04-27T11:17:46Z</time>
      </trkpt>
      <trkpt lat="44.23664" lon="5.43742">
        <ele>889.62</ele>
        <time>2019-04-27T11:17:57Z</time>
      </trkpt>
      <trkpt lat="44.23626" lon="5.43745">
        <ele>890.789</ele>
        <time>2019-04-27T11:18:08Z</time>
      </trkpt>
      <trkpt lat="44.23607" lon="5.43813">
        <ele>887.479</ele>
        <time>2019-04-27T11:18:19Z</time>
      </trkpt>
      <trkpt lat="44.23598" lon="5.43821">
        <ele>887.353</ele>
        <time>2019-04-27T11:18:29Z</time>
      </trkpt>
      <trkpt lat="44.23598" lon="5.43821">
        <ele>887.339</ele>
        <time>2019-04-27T11:18:39Z</time>
      </trkpt>
      <trkpt lat="44.23598" lon="5.4382">
        <ele>887.324</ele>
        <time>2019-04-27T11:18:49Z</time>
      </trkpt>
      <trkpt lat="44.23598" lon="5.43819">
        <ele>887.358</ele>
        <time>2019-04-27T11:19:00Z</time>
      </trkpt>
      <trkpt lat="44.23598" lon="5.43819">
        <ele>887.71</ele>
        <time>2019-04-27T11:19:11Z</time>
      </trkpt>
      <trkpt lat="44.23598" lon="5.43822">
        <ele>887.792</ele>
        <time>2019-04-27T11:19:21Z</time>
      </trkpt>
      <trkpt lat="44.23593" lon="5.43824">
        <ele>887.418</ele>
        <time>2019-04-27T11:19:32Z</time>
      </trkpt>
      <trkpt lat="44.23594" lon="5.43822">
        <ele>887.328</ele>
        <time>2019-04-27T11:19:42Z</time>
      </trkpt>
      <trkpt lat="44.23594" lon="5.43822">
        <ele>887.372</ele>
        <time>2019-04-27T11:19:52Z</time>
      </trkpt>
      <trkpt lat="44.23594" lon="5.43822">
        <ele>887.412</ele>
        <time>2019-04-27T11:20:03Z</time>
      </trkpt>
      <trkpt lat="44.23595" lon="5.43822">
        <ele>887.467</ele>
        <time>2019-04-27T11:20:13Z</time>
      </trkpt>
      <trkpt lat="44.23595" lon="5.43822">
        <ele>887.545</ele>
        <time>2019-04-27T11:20:24Z</time>
      </trkpt>
      <trkpt lat="44.23595" lon="5.43822">
        <ele>887.611</ele>
        <time>2019-04-27T11:20:35Z</time>
      </trkpt>
      <trkpt lat="44.23595" lon="5.43821">
        <ele>887.659</ele>
        <time>2019-04-27T11:20:45Z</time>
      </trkpt>
      <trkpt lat="44.23595" lon="5.43821">
        <ele>887.693</ele>
        <time>2019-04-27T11:20:55Z</time>
      </trkpt>
      <trkpt lat="44.23596" lon="5.43821">
        <ele>887.721</ele>
        <time>2019-04-27T11:21:06Z</time>
      </trkpt>
      <trkpt lat="44.23596" lon="5.43821">
        <ele>887.74</ele>
        <time>2019-04-27T11:21:16Z</time>
      </trkpt>
      <trkpt lat="44.23596" lon="5.43821">
        <ele>887.759</ele>
        <time>2019-04-27T11:21:27Z</time>
      </trkpt>
      <trkpt lat="44.23596" lon="5.43821">
        <ele>887.791</ele>
        <time>2019-04-27T11:21:38Z</time>
      </trkpt>
      <trkpt lat="44.23596" lon="5.43821">
        <ele>887.815</ele>
        <time>2019-04-27T11:21:49Z</time>
      </trkpt>
      <trkpt lat="44.23596" lon="5.43821">
        <ele>887.81</ele>
        <time>2019-04-27T11:22:00Z</time>
      </trkpt>
      <trkpt lat="44.23596" lon="5.43821">
        <ele>887.789</ele>
        <time>2019-04-27T11:22:10Z</time>
      </trkpt>
      <trkpt lat="44.23596" lon="5.43821">
        <ele>887.773</ele>
        <time>2019-04-27T11:22:21Z</time>
      </trkpt>
      <trkpt lat="44.23596" lon="5.43821">
        <ele>887.749</ele>
        <time>2019-04-27T11:22:31Z</time>
      </trkpt>
      <trkpt lat="44.23596" lon="5.43821">
        <ele>887.725</ele>
        <time>2019-04-27T11:22:42Z</time>
      </trkpt>
      <trkpt lat="44.23596" lon="5.43821">
        <ele>887.71</ele>
        <time>2019-04-27T11:22:53Z</time>
      </trkpt>
      <trkpt lat="44.23596" lon="5.43821">
        <ele>887.711</ele>
        <time>2019-04-27T11:23:03Z</time>
      </trkpt>
      <trkpt lat="44.23597" lon="5.43821">
        <ele>887.705</ele>
        <time>2019-04-27T11:23:14Z</time>
      </trkpt>
      <trkpt lat="44.23597" lon="5.43821">
        <ele>887.693</ele>
        <time>2019-04-27T11:23:25Z</time>
      </trkpt>
      <trkpt lat="44.23597" lon="5.43821">
        <ele>887.676</ele>
        <time>2019-04-27T11:23:35Z</time>
      </trkpt>
      <trkpt lat="44.23597" lon="5.43821">
        <ele>887.648</ele>
        <time>2019-04-27T11:23:46Z</time>
      </trkpt>
      <trkpt lat="44.23597" lon="5.43821">
        <ele>887.61</ele>
        <time>2019-04-27T11:23:56Z</time>
      </trkpt>
      <trkpt lat="44.23597" lon="5.43821">
        <ele>887.565</ele>
        <time>2019-04-27T11:24:07Z</time>
      </trkpt>
      <trkpt lat="44.23597" lon="5.43821">
        <ele>887.534</ele>
        <time>2019-04-27T11:24:17Z</time>
      </trkpt>
      <trkpt lat="44.23597" lon="5.43821">
        <ele>887.494</ele>
        <time>2019-04-27T11:24:28Z</time>
      </trkpt>
      <trkpt lat="44.23598" lon="5.43821">
        <ele>887.458</ele>
        <time>2019-04-27T11:24:38Z</time>
      </trkpt>
      <trkpt lat="44.23598" lon="5.43821">
        <ele>887.421</ele>
        <time>2019-04-27T11:24:49Z</time>
      </trkpt>
      <trkpt lat="44.23598" lon="5.4382">
        <ele>887.404</ele>
        <time>2019-04-27T11:24:59Z</time>
      </trkpt>
      <trkpt lat="44.23598" lon="5.4382">
        <ele>887.4</ele>
        <time>2019-04-27T11:25:10Z</time>
      </trkpt>
      <trkpt lat="44.23598" lon="5.43821">
        <ele>887.409</ele>
        <time>2019-04-27T11:25:21Z</time>
      </trkpt>
      <trkpt lat="44.23598" lon="5.43821">
        <ele>887.419</ele>
        <time>2019-04-27T11:25:31Z</time>
      </trkpt>
      <trkpt lat="44.23598" lon="5.43821">
        <ele>887.432</ele>
        <time>2019-04-27T11:25:42Z</time>
      </trkpt>
      <trkpt lat="44.23598" lon="5.4382">
        <ele>887.438</ele>
        <time>2019-04-27T11:25:52Z</time>
      </trkpt>
      <trkpt lat="44.23598" lon="5.4382">
        <ele>887.434</ele>
        <time>2019-04-27T11:26:02Z</time>
      </trkpt>
      <trkpt lat="44.23598" lon="5.4382">
        <ele>887.433</ele>
        <time>2019-04-27T11:26:13Z</time>
      </trkpt>
      <trkpt lat="44.23598" lon="5.4382">
        <ele>887.414</ele>
        <time>2019-04-27T11:26:23Z</time>
      </trkpt>
      <trkpt lat="44.23598" lon="5.4382">
        <ele>887.396</ele>
        <time>2019-04-27T11:26:33Z</time>
      </trkpt>
      <trkpt lat="44.23598" lon="5.43819">
        <ele>887.397</ele>
        <time>2019-04-27T11:26:44Z</time>
      </trkpt>
      <trkpt lat="44.23598" lon="5.4382">
        <ele>887.408</ele>
        <time>2019-04-27T11:26:54Z</time>
      </trkpt>
      <trkpt lat="44.23597" lon="5.4382">
        <ele>887.425</ele>
        <time>2019-04-27T11:27:05Z</time>
      </trkpt>
      <trkpt lat="44.23597" lon="5.4382">
        <ele>887.452</ele>
        <time>2019-04-27T11:27:15Z</time>
      </trkpt>
      <trkpt lat="44.23597" lon="5.4382">
        <ele>887.477</ele>
        <time>2019-04-27T11:27:25Z</time>
      </trkpt>
      <trkpt lat="44.23597" lon="5.4382">
        <ele>887.501</ele>
        <time>2019-04-27T11:27:36Z</time>
      </trkpt>
      <trkpt lat="44.23597" lon="5.4382">
        <ele>887.526</ele>
        <time>2019-04-27T11:27:47Z</time>
      </trkpt>
      <trkpt lat="44.23597" lon="5.4382">
        <ele>887.546</ele>
        <time>2019-04-27T11:27:58Z</time>
      </trkpt>
      <trkpt lat="44.23597" lon="5.4382">
        <ele>887.561</ele>
        <time>2019-04-27T11:28:08Z</time>
      </trkpt>
      <trkpt lat="44.23597" lon="5.4382">
        <ele>887.584</ele>
        <time>2019-04-27T11:28:19Z</time>
      </trkpt>
      <trkpt lat="44.23597" lon="5.4382">
        <ele>887.606</ele>
        <time>2019-04-27T11:28:30Z</time>
      </trkpt>
      <trkpt lat="44.23597" lon="5.4382">
        <ele>887.637</ele>
        <time>2019-04-27T11:28:40Z</time>
      </trkpt>
      <trkpt lat="44.23597" lon="5.4382">
        <ele>887.66</ele>
        <time>2019-04-27T11:28:50Z</time>
      </trkpt>
      <trkpt lat="44.23597" lon="5.4382">
        <ele>887.715</ele>
        <time>2019-04-27T11:29:01Z</time>
      </trkpt>
      <trkpt lat="44.23597" lon="5.4382">
        <ele>887.753</ele>
        <time>2019-04-27T11:29:12Z</time>
      </trkpt>
      <trkpt lat="44.23597" lon="5.4382">
        <ele>887.776</ele>
        <time>2019-04-27T11:29:23Z</time>
      </trkpt>
      <trkpt lat="44.23597" lon="5.4382">
        <ele>887.793</ele>
        <time>2019-04-27T11:29:33Z</time>
      </trkpt>
      <trkpt lat="44.23597" lon="5.4382">
        <ele>887.811</ele>
        <time>2019-04-27T11:29:44Z</time>
      </trkpt>
      <trkpt lat="44.23597" lon="5.4382">
        <ele>887.823</ele>
        <time>2019-04-27T11:29:55Z</time>
      </trkpt>
      <trkpt lat="44.23597" lon="5.4382">
        <ele>887.83</ele>
        <time>2019-04-27T11:30:06Z</time>
      </trkpt>
      <trkpt lat="44.23597" lon="5.4382">
        <ele>887.834</ele>
        <time>2019-04-27T11:30:16Z</time>
      </trkpt>
      <trkpt lat="44.23597" lon="5.4382">
        <ele>887.842</ele>
        <time>2019-04-27T11:30:26Z</time>
      </trkpt>
      <trkpt lat="44.23597" lon="5.4382">
        <ele>887.847</ele>
        <time>2019-04-27T11:30:36Z</time>
      </trkpt>
      <trkpt lat="44.23597" lon="5.4382">
        <ele>887.848</ele>
        <time>2019-04-27T11:30:47Z</time>
      </trkpt>
      <trkpt lat="44.23597" lon="5.4382">
        <ele>887.842</ele>
        <time>2019-04-27T11:30:57Z</time>
      </trkpt>
      <trkpt lat="44.23597" lon="5.43819">
        <ele>887.845</ele>
        <time>2019-04-27T11:31:08Z</time>
      </trkpt>
      <trkpt lat="44.23597" lon="5.43819">
        <ele>887.842</ele>
        <time>2019-04-27T11:31:19Z</time>
      </trkpt>
      <trkpt lat="44.23597" lon="5.4382">
        <ele>887.829</ele>
        <time>2019-04-27T11:31:30Z</time>
      </trkpt>
      <trkpt lat="44.23597" lon="5.4382">
        <ele>887.837</ele>
        <time>2019-04-27T11:31:41Z</time>
      </trkpt>
      <trkpt lat="44.23597" lon="5.4382">
        <ele>887.862</ele>
        <time>2019-04-27T11:31:52Z</time>
      </trkpt>
      <trkpt lat="44.23597" lon="5.4382">
        <ele>887.889</ele>
        <time>2019-04-27T11:32:02Z</time>
      </trkpt>
      <trkpt lat="44.23596" lon="5.4382">
        <ele>887.915</ele>
        <time>2019-04-27T11:32:13Z</time>
      </trkpt>
      <trkpt lat="44.23596" lon="5.4382">
        <ele>887.929</ele>
        <time>2019-04-27T11:32:24Z</time>
      </trkpt>
      <trkpt lat="44.23596" lon="5.4382">
        <ele>887.941</ele>
        <time>2019-04-27T11:32:34Z</time>
      </trkpt>
      <trkpt lat="44.23596" lon="5.4382">
        <ele>887.961</ele>
        <time>2019-04-27T11:32:45Z</time>
      </trkpt>
      <trkpt lat="44.23596" lon="5.4382">
        <ele>887.97</ele>
        <time>2019-04-27T11:32:55Z</time>
      </trkpt>
      <trkpt lat="44.23596" lon="5.43821">
        <ele>888.035</ele>
        <time>2019-04-27T11:33:06Z</time>
      </trkpt>
      <trkpt lat="44.23596" lon="5.43821">
        <ele>888.081</ele>
        <time>2019-04-27T11:33:16Z</time>
      </trkpt>
      <trkpt lat="44.23596" lon="5.43821">
        <ele>888.108</ele>
        <time>2019-04-27T11:33:27Z</time>
      </trkpt>
      <trkpt lat="44.23596" lon="5.43821">
        <ele>888.159</ele>
        <time>2019-04-27T11:33:38Z</time>
      </trkpt>
      <trkpt lat="44.23596" lon="5.43821">
        <ele>888.212</ele>
        <time>2019-04-27T11:33:48Z</time>
      </trkpt>
      <trkpt lat="44.23596" lon="5.43821">
        <ele>888.262</ele>
        <time>2019-04-27T11:33:59Z</time>
      </trkpt>
      <trkpt lat="44.23596" lon="5.43821">
        <ele>888.315</ele>
        <time>2019-04-27T11:34:10Z</time>
      </trkpt>
      <trkpt lat="44.23596" lon="5.43821">
        <ele>888.359</ele>
        <time>2019-04-27T11:34:21Z</time>
      </trkpt>
      <trkpt lat="44.23596" lon="5.43821">
        <ele>888.406</ele>
        <time>2019-04-27T11:34:32Z</time>
      </trkpt>
      <trkpt lat="44.23597" lon="5.43821">
        <ele>888.421</ele>
        <time>2019-04-27T11:34:42Z</time>
      </trkpt>
      <trkpt lat="44.23597" lon="5.43822">
        <ele>888.431</ele>
        <time>2019-04-27T11:34:52Z</time>
      </trkpt>
      <trkpt lat="44.23597" lon="5.43822">
        <ele>888.456</ele>
        <time>2019-04-27T11:35:03Z</time>
      </trkpt>
      <trkpt lat="44.23597" lon="5.43821">
        <ele>888.499</ele>
        <time>2019-04-27T11:35:13Z</time>
      </trkpt>
      <trkpt lat="44.23597" lon="5.43821">
        <ele>888.577</ele>
        <time>2019-04-27T11:35:24Z</time>
      </trkpt>
      <trkpt lat="44.23597" lon="5.43821">
        <ele>888.675</ele>
        <time>2019-04-27T11:35:35Z</time>
      </trkpt>
      <trkpt lat="44.23597" lon="5.43821">
        <ele>888.748</ele>
        <time>2019-04-27T11:35:45Z</time>
      </trkpt>
      <trkpt lat="44.23597" lon="5.43821">
        <ele>888.825</ele>
        <time>2019-04-27T11:35:55Z</time>
      </trkpt>
      <trkpt lat="44.23597" lon="5.43821">
        <ele>888.886</ele>
        <time>2019-04-27T11:36:06Z</time>
      </trkpt>
      <trkpt lat="44.23597" lon="5.43821">
        <ele>888.917</ele>
        <time>2019-04-27T11:36:17Z</time>
      </trkpt>
      <trkpt lat="44.23597" lon="5.43821">
        <ele>888.931</ele>
        <time>2019-04-27T11:36:28Z</time>
      </trkpt>
      <trkpt lat="44.23597" lon="5.4382">
        <ele>888.94</ele>
        <time>2019-04-27T11:36:39Z</time>
      </trkpt>
      <trkpt lat="44.23597" lon="5.43819">
        <ele>889.19</ele>
        <time>2019-04-27T11:36:49Z</time>
      </trkpt>
      <trkpt lat="44.23597" lon="5.43821">
        <ele>889.223</ele>
        <time>2019-04-27T11:36:59Z</time>
      </trkpt>
      <trkpt lat="44.23597" lon="5.43821">
        <ele>889.238</ele>
        <time>2019-04-27T11:37:09Z</time>
      </trkpt>
      <trkpt lat="44.23597" lon="5.4382">
        <ele>889.202</ele>
        <time>2019-04-27T11:37:20Z</time>
      </trkpt>
      <trkpt lat="44.23597" lon="5.4382">
        <ele>889.171</ele>
        <time>2019-04-27T11:37:31Z</time>
      </trkpt>
      <trkpt lat="44.23597" lon="5.4382">
        <ele>889.152</ele>
        <time>2019-04-27T11:37:42Z</time>
      </trkpt>
      <trkpt lat="44.23597" lon="5.4382">
        <ele>889.165</ele>
        <time>2019-04-27T11:37:52Z</time>
      </trkpt>
      <trkpt lat="44.23597" lon="5.4382">
        <ele>889.197</ele>
        <time>2019-04-27T11:38:03Z</time>
      </trkpt>
      <trkpt lat="44.23597" lon="5.4382">
        <ele>889.231</ele>
        <time>2019-04-27T11:38:14Z</time>
      </trkpt>
      <trkpt lat="44.23597" lon="5.4382">
        <ele>889.291</ele>
        <time>2019-04-27T11:38:25Z</time>
      </trkpt>
      <trkpt lat="44.23597" lon="5.43819">
        <ele>889.359</ele>
        <time>2019-04-27T11:38:36Z</time>
      </trkpt>
      <trkpt lat="44.23597" lon="5.43819">
        <ele>889.375</ele>
        <time>2019-04-27T11:38:46Z</time>
      </trkpt>
      <trkpt lat="44.23586" lon="5.43785">
        <ele>888.271</ele>
        <time>2019-04-27T11:38:57Z</time>
      </trkpt>
      <trkpt lat="44.23539" lon="5.43711">
        <ele>884.696</ele>
        <time>2019-04-27T11:39:08Z</time>
      </trkpt>
      <trkpt lat="44.23445" lon="5.437">
        <ele>880.549</ele>
        <time>2019-04-27T11:39:19Z</time>
      </trkpt>
      <trkpt lat="44.23381" lon="5.43651">
        <ele>878.53</ele>
        <time>2019-04-27T11:39:29Z</time>
      </trkpt>
      <trkpt lat="44.23363" lon="5.43755">
        <ele>876.243</ele>
        <time>2019-04-27T11:39:39Z</time>
      </trkpt>
      <trkpt lat="44.2333" lon="5.43779">
        <ele>874.372</ele>
        <time>2019-04-27T11:39:50Z</time>
      </trkpt>
      <trkpt lat="44.23292" lon="5.43729">
        <ele>871.218</ele>
        <time>2019-04-27T11:40:00Z</time>
      </trkpt>
      <trkpt lat="44.23211" lon="5.43719">
        <ele>868.975</ele>
        <time>2019-04-27T11:40:11Z</time>
      </trkpt>
      <trkpt lat="44.23166" lon="5.43624">
        <ele>867.897</ele>
        <time>2019-04-27T11:40:21Z</time>
      </trkpt>
      <trkpt lat="44.23144" lon="5.43491">
        <ele>864.306</ele>
        <time>2019-04-27T11:40:32Z</time>
      </trkpt>
      <trkpt lat="44.23045" lon="5.43459">
        <ele>859.972</ele>
        <time>2019-04-27T11:40:43Z</time>
      </trkpt>
      <trkpt lat="44.22941" lon="5.43417">
        <ele>855.824</ele>
        <time>2019-04-27T11:40:53Z</time>
      </trkpt>
      <trkpt lat="44.22822" lon="5.43395">
        <ele>851.555</ele>
        <time>2019-04-27T11:41:03Z</time>
      </trkpt>
      <trkpt lat="44.22732" lon="5.4333">
        <ele>849.061</ele>
        <time>2019-04-27T11:41:14Z</time>
      </trkpt>
      <trkpt lat="44.22645" lon="5.43276">
        <ele>843.238</ele>
        <time>2019-04-27T11:41:25Z</time>
      </trkpt>
      <trkpt lat="44.22558" lon="5.4327">
        <ele>837.994</ele>
        <time>2019-04-27T11:41:35Z</time>
      </trkpt>
      <trkpt lat="44.225" lon="5.43214">
        <ele>833.256</ele>
        <time>2019-04-27T11:41:46Z</time>
      </trkpt>
      <trkpt lat="44.225" lon="5.43214">
        <ele>832.718</ele>
        <time>2019-04-27T11:41:57Z</time>
      </trkpt>
      <trkpt lat="44.225" lon="5.43214">
        <ele>832.195</ele>
        <time>2019-04-27T11:42:08Z</time>
      </trkpt>
      <trkpt lat="44.225" lon="5.43214">
        <ele>831.947</ele>
        <time>2019-04-27T11:42:18Z</time>
      </trkpt>
      <trkpt lat="44.225" lon="5.43214">
        <ele>831.664</ele>
        <time>2019-04-27T11:42:28Z</time>
      </trkpt>
      <trkpt lat="44.225" lon="5.43214">
        <ele>831.333</ele>
        <time>2019-04-27T11:42:39Z</time>
      </trkpt>
      <trkpt lat="44.225" lon="5.43214">
        <ele>831.01</ele>
        <time>2019-04-27T11:42:50Z</time>
      </trkpt>
      <trkpt lat="44.225" lon="5.43214">
        <ele>830.706</ele>
        <time>2019-04-27T11:43:01Z</time>
      </trkpt>
      <trkpt lat="44.225" lon="5.43214">
        <ele>830.414</ele>
        <time>2019-04-27T11:43:12Z</time>
      </trkpt>
      <trkpt lat="44.225" lon="5.43214">
        <ele>830.12</ele>
        <time>2019-04-27T11:43:23Z</time>
      </trkpt>
      <trkpt lat="44.225" lon="5.43214">
        <ele>829.835</ele>
        <time>2019-04-27T11:43:34Z</time>
      </trkpt>
      <trkpt lat="44.225" lon="5.43214">
        <ele>829.546</ele>
        <time>2019-04-27T11:43:45Z</time>
      </trkpt>
      <trkpt lat="44.225" lon="5.43214">
        <ele>829.267</ele>
        <time>2019-04-27T11:43:55Z</time>
      </trkpt>
      <trkpt lat="44.22485" lon="5.4319">
        <ele>824.233</ele>
        <time>2019-04-27T11:44:06Z</time>
      </trkpt>
      <trkpt lat="44.2245" lon="5.43133">
        <ele>814.558</ele>
        <time>2019-04-27T11:44:16Z</time>
      </trkpt>
      <trkpt lat="44.22397" lon="5.43076">
        <ele>812.741</ele>
        <time>2019-04-27T11:44:27Z</time>
      </trkpt>
      <trkpt lat="44.22337" lon="5.43025">
        <ele>811.905</ele>
        <time>2019-04-27T11:44:37Z</time>
      </trkpt>
      <trkpt lat="44.22281" lon="5.42991">
        <ele>809.769</ele>
        <time>2019-04-27T11:44:47Z</time>
      </trkpt>
      <trkpt lat="44.22228" lon="5.42949">
        <ele>805.631</ele>
        <time>2019-04-27T11:44:57Z</time>
      </trkpt>
      <trkpt lat="44.22146" lon="5.42886">
        <ele>804.456</ele>
        <time>2019-04-27T11:45:08Z</time>
      </trkpt>
      <trkpt lat="44.22067" lon="5.42857">
        <ele>803.2</ele>
        <time>2019-04-27T11:45:19Z</time>
      </trkpt>
      <trkpt lat="44.22046" lon="5.4285">
        <ele>803.675</ele>
        <time>2019-04-27T11:45:29Z</time>
      </trkpt>
      <trkpt lat="44.22046" lon="5.4285">
        <ele>803.914</ele>
        <time>2019-04-27T11:45:40Z</time>
      </trkpt>
      <trkpt lat="44.22046" lon="5.4285">
        <ele>804.325</ele>
        <time>2019-04-27T11:45:50Z</time>
      </trkpt>
      <trkpt lat="44.22046" lon="5.4285">
        <ele>804.513</ele>
        <time>2019-04-27T11:46:00Z</time>
      </trkpt>
      <trkpt lat="44.22046" lon="5.4285">
        <ele>804.465</ele>
        <time>2019-04-27T11:46:10Z</time>
      </trkpt>
      <trkpt lat="44.22046" lon="5.4285">
        <ele>804.24</ele>
        <time>2019-04-27T11:46:21Z</time>
      </trkpt>
      <trkpt lat="44.22056" lon="5.42854">
        <ele>803.903</ele>
        <time>2019-04-27T11:46:32Z</time>
      </trkpt>
      <trkpt lat="44.22056" lon="5.42854">
        <ele>803.422</ele>
        <time>2019-04-27T11:46:43Z</time>
      </trkpt>
      <trkpt lat="44.22056" lon="5.42854">
        <ele>802.96</ele>
        <time>2019-04-27T11:46:53Z</time>
      </trkpt>
      <trkpt lat="44.22056" lon="5.42854">
        <ele>797.981</ele>
        <time>2019-04-27T11:47:03Z</time>
      </trkpt>
      <trkpt lat="44.22059" lon="5.42856">
        <ele>796.743</ele>
        <time>2019-04-27T11:47:14Z</time>
      </trkpt>
      <trkpt lat="44.22078" lon="5.42863">
        <ele>795.963</ele>
        <time>2019-04-27T11:47:25Z</time>
      </trkpt>
      <trkpt lat="44.22078" lon="5.42863">
        <ele>795.411</ele>
        <time>2019-04-27T11:47:36Z</time>
      </trkpt>
      <trkpt lat="44.22066" lon="5.42859">
        <ele>794.227</ele>
        <time>2019-04-27T11:47:47Z</time>
      </trkpt>
      <trkpt lat="44.2206" lon="5.42858">
        <ele>793.979</ele>
        <time>2019-04-27T11:47:57Z</time>
      </trkpt>
      <trkpt lat="44.22058" lon="5.42857">
        <ele>795.476</ele>
        <time>2019-04-27T11:48:08Z</time>
      </trkpt>
      <trkpt lat="44.22032" lon="5.42849">
        <ele>796.368</ele>
        <time>2019-04-27T11:48:18Z</time>
      </trkpt>
      <trkpt lat="44.2197" lon="5.42829">
        <ele>804.583</ele>
        <time>2019-04-27T11:48:29Z</time>
      </trkpt>
      <trkpt lat="44.21906" lon="5.42764">
        <ele>806.221</ele>
        <time>2019-04-27T11:48:40Z</time>
      </trkpt>
      <trkpt lat="44.21886" lon="5.42688">
        <ele>797.03</ele>
        <time>2019-04-27T11:48:50Z</time>
      </trkpt>
      <trkpt lat="44.21865" lon="5.42649">
        <ele>794.632</ele>
        <time>2019-04-27T11:49:00Z</time>
      </trkpt>
      <trkpt lat="44.21841" lon="5.42597">
        <ele>789.01</ele>
        <time>2019-04-27T11:49:11Z</time>
      </trkpt>
      <trkpt lat="44.21813" lon="5.42537">
        <ele>779.317</ele>
        <time>2019-04-27T11:49:22Z</time>
      </trkpt>
      <trkpt lat="44.21781" lon="5.42465">
        <ele>777.228</ele>
        <time>2019-04-27T11:49:33Z</time>
      </trkpt>
      <trkpt lat="44.2177" lon="5.42459">
        <ele>777.952</ele>
        <time>2019-04-27T11:49:43Z</time>
      </trkpt>
      <trkpt lat="44.2177" lon="5.42459">
        <ele>779.118</ele>
        <time>2019-04-27T11:49:54Z</time>
      </trkpt>
      <trkpt lat="44.2177" lon="5.42459">
        <ele>780.37</ele>
        <time>2019-04-27T11:50:05Z</time>
      </trkpt>
      <trkpt lat="44.21741" lon="5.42462">
        <ele>780.622</ele>
        <time>2019-04-27T11:50:18Z</time>
      </trkpt>
      <trkpt lat="44.21715" lon="5.42473">
        <ele>780.84</ele>
        <time>2019-04-27T11:50:28Z</time>
      </trkpt>
      <trkpt lat="44.21685" lon="5.42473">
        <ele>779.944</ele>
        <time>2019-04-27T11:50:38Z</time>
      </trkpt>
      <trkpt lat="44.21659" lon="5.42463">
        <ele>778.479</ele>
        <time>2019-04-27T11:50:48Z</time>
      </trkpt>
      <trkpt lat="44.21612" lon="5.42439">
        <ele>769.978</ele>
        <time>2019-04-27T11:50:59Z</time>
      </trkpt>
      <trkpt lat="44.2157" lon="5.42385">
        <ele>777.821</ele>
        <time>2019-04-27T11:51:10Z</time>
      </trkpt>
      <trkpt lat="44.2156" lon="5.42361">
        <ele>778.22</ele>
        <time>2019-04-27T11:51:20Z</time>
      </trkpt>
      <trkpt lat="44.21525" lon="5.42336">
        <ele>780.34</ele>
        <time>2019-04-27T11:51:31Z</time>
      </trkpt>
      <trkpt lat="44.21477" lon="5.4234">
        <ele>780.379</ele>
        <time>2019-04-27T11:51:41Z</time>
      </trkpt>
      <trkpt lat="44.21443" lon="5.42329">
        <ele>780.38</ele>
        <time>2019-04-27T11:51:52Z</time>
      </trkpt>
      <trkpt lat="44.21423" lon="5.42314">
        <ele>779.524</ele>
        <time>2019-04-27T11:52:02Z</time>
      </trkpt>
      <trkpt lat="44.2138" lon="5.42288">
        <ele>775.434</ele>
        <time>2019-04-27T11:52:13Z</time>
      </trkpt>
      <trkpt lat="44.21309" lon="5.4227">
        <ele>770.186</ele>
        <time>2019-04-27T11:52:23Z</time>
      </trkpt>
      <trkpt lat="44.21272" lon="5.42262">
        <ele>767.053</ele>
        <time>2019-04-27T11:52:34Z</time>
      </trkpt>
      <trkpt lat="44.21266" lon="5.42261">
        <ele>767.527</ele>
        <time>2019-04-27T11:52:45Z</time>
      </trkpt>
      <trkpt lat="44.21264" lon="5.42262">
        <ele>769.077</ele>
        <time>2019-04-27T11:52:55Z</time>
      </trkpt>
      <trkpt lat="44.21215" lon="5.42252">
        <ele>771.311</ele>
        <time>2019-04-27T11:53:05Z</time>
      </trkpt>
      <trkpt lat="44.21122" lon="5.42233">
        <ele>765.24</ele>
        <time>2019-04-27T11:53:16Z</time>
      </trkpt>
      <trkpt lat="44.21044" lon="5.42176">
        <ele>758.564</ele>
        <time>2019-04-27T11:53:27Z</time>
      </trkpt>
      <trkpt lat="44.20957" lon="5.42138">
        <ele>753.803</ele>
        <time>2019-04-27T11:53:38Z</time>
      </trkpt>
      <trkpt lat="44.20881" lon="5.42106">
        <ele>748.488</ele>
        <time>2019-04-27T11:53:48Z</time>
      </trkpt>
      <trkpt lat="44.20826" lon="5.4203">
        <ele>748.781</ele>
        <time>2019-04-27T11:53:59Z</time>
      </trkpt>
      <trkpt lat="44.20823" lon="5.42007">
        <ele>745.724</ele>
        <time>2019-04-27T11:54:09Z</time>
      </trkpt>
      <trkpt lat="44.20822" lon="5.42003">
        <ele>744.907</ele>
        <time>2019-04-27T11:54:20Z</time>
      </trkpt>
      <trkpt lat="44.20822" lon="5.42003">
        <ele>744.487</ele>
        <time>2019-04-27T11:54:31Z</time>
      </trkpt>
      <trkpt lat="44.20822" lon="5.42003">
        <ele>744.057</ele>
        <time>2019-04-27T11:54:41Z</time>
      </trkpt>
      <trkpt lat="44.20815" lon="5.41986">
        <ele>737.783</ele>
        <time>2019-04-27T11:54:52Z</time>
      </trkpt>
      <trkpt lat="44.20783" lon="5.41972">
        <ele>724.137</ele>
        <time>2019-04-27T11:55:02Z</time>
      </trkpt>
      <trkpt lat="44.20712" lon="5.41981">
        <ele>724.154</ele>
        <time>2019-04-27T11:55:13Z</time>
      </trkpt>
      <trkpt lat="44.20629" lon="5.41975">
        <ele>728.126</ele>
        <time>2019-04-27T11:55:24Z</time>
      </trkpt>
      <trkpt lat="44.20541" lon="5.41916">
        <ele>720.871</ele>
        <time>2019-04-27T11:55:35Z</time>
      </trkpt>
      <trkpt lat="44.20467" lon="5.4194">
        <ele>711.497</ele>
        <time>2019-04-27T11:55:45Z</time>
      </trkpt>
      <trkpt lat="44.20399" lon="5.41963">
        <ele>706.759</ele>
        <time>2019-04-27T11:55:56Z</time>
      </trkpt>
      <trkpt lat="44.20347" lon="5.41902">
        <ele>701.55</ele>
        <time>2019-04-27T11:56:06Z</time>
      </trkpt>
      <trkpt lat="44.20277" lon="5.41841">
        <ele>700.088</ele>
        <time>2019-04-27T11:56:17Z</time>
      </trkpt>
      <trkpt lat="44.20195" lon="5.41839">
        <ele>697.651</ele>
        <time>2019-04-27T11:56:28Z</time>
      </trkpt>
      <trkpt lat="44.20123" lon="5.41841">
        <ele>696.579</ele>
        <time>2019-04-27T11:56:38Z</time>
      </trkpt>
      <trkpt lat="44.20047" lon="5.4181">
        <ele>696.272</ele>
        <time>2019-04-27T11:56:49Z</time>
      </trkpt>
      <trkpt lat="44.19984" lon="5.41778">
        <ele>693.936</ele>
        <time>2019-04-27T11:57:00Z</time>
      </trkpt>
      <trkpt lat="44.19925" lon="5.41724">
        <ele>689.138</ele>
        <time>2019-04-27T11:57:11Z</time>
      </trkpt>
      <trkpt lat="44.19859" lon="5.41678">
        <ele>685.25</ele>
        <time>2019-04-27T11:57:22Z</time>
      </trkpt>
      <trkpt lat="44.19799" lon="5.41623">
        <ele>682.219</ele>
        <time>2019-04-27T11:57:32Z</time>
      </trkpt>
      <trkpt lat="44.19741" lon="5.41544">
        <ele>684.092</ele>
        <time>2019-04-27T11:57:43Z</time>
      </trkpt>
      <trkpt lat="44.19662" lon="5.41529">
        <ele>680.11</ele>
        <time>2019-04-27T11:57:54Z</time>
      </trkpt>
      <trkpt lat="44.19611" lon="5.41561">
        <ele>681.589</ele>
        <time>2019-04-27T11:58:05Z</time>
      </trkpt>
      <trkpt lat="44.19588" lon="5.41601">
        <ele>683.193</ele>
        <time>2019-04-27T11:58:15Z</time>
      </trkpt>
      <trkpt lat="44.19568" lon="5.41639">
        <ele>683.978</ele>
        <time>2019-04-27T11:58:25Z</time>
      </trkpt>
      <trkpt lat="44.19535" lon="5.41701">
        <ele>687.683</ele>
        <time>2019-04-27T11:58:36Z</time>
      </trkpt>
      <trkpt lat="44.19499" lon="5.41769">
        <ele>686.451</ele>
        <time>2019-04-27T11:58:46Z</time>
      </trkpt>
      <trkpt lat="44.19456" lon="5.41844">
        <ele>685.639</ele>
        <time>2019-04-27T11:58:57Z</time>
      </trkpt>
      <trkpt lat="44.19409" lon="5.41929">
        <ele>683.892</ele>
        <time>2019-04-27T11:59:07Z</time>
      </trkpt>
      <trkpt lat="44.19359" lon="5.42059">
        <ele>681.003</ele>
        <time>2019-04-27T11:59:18Z</time>
      </trkpt>
      <trkpt lat="44.1932" lon="5.42189">
        <ele>678.213</ele>
        <time>2019-04-27T11:59:28Z</time>
      </trkpt>
      <trkpt lat="44.19265" lon="5.42281">
        <ele>675.266</ele>
        <time>2019-04-27T11:59:38Z</time>
      </trkpt>
      <trkpt lat="44.19199" lon="5.42329">
        <ele>671.452</ele>
        <time>2019-04-27T11:59:49Z</time>
      </trkpt>
      <trkpt lat="44.1914" lon="5.42375">
        <ele>669.067</ele>
        <time>2019-04-27T12:00:00Z</time>
      </trkpt>
      <trkpt lat="44.1909" lon="5.42411">
        <ele>668.66</ele>
        <time>2019-04-27T12:00:11Z</time>
      </trkpt>
      <trkpt lat="44.19039" lon="5.42437">
        <ele>668.158</ele>
        <time>2019-04-27T12:00:22Z</time>
      </trkpt>
      <trkpt lat="44.18973" lon="5.42467">
        <ele>667.576</ele>
        <time>2019-04-27T12:00:33Z</time>
      </trkpt>
      <trkpt lat="44.18896" lon="5.42476">
        <ele>666.366</ele>
        <time>2019-04-27T12:00:43Z</time>
      </trkpt>
      <trkpt lat="44.18804" lon="5.42488">
        <ele>664.485</ele>
        <time>2019-04-27T12:00:54Z</time>
      </trkpt>
      <trkpt lat="44.18726" lon="5.42542">
        <ele>662.533</ele>
        <time>2019-04-27T12:01:04Z</time>
      </trkpt>
      <trkpt lat="44.18656" lon="5.42598">
        <ele>660.174</ele>
        <time>2019-04-27T12:01:14Z</time>
      </trkpt>
      <trkpt lat="44.18577" lon="5.42671">
        <ele>657.422</ele>
        <time>2019-04-27T12:01:25Z</time>
      </trkpt>
      <trkpt lat="44.18504" lon="5.42725">
        <ele>654.803</ele>
        <time>2019-04-27T12:01:35Z</time>
      </trkpt>
      <trkpt lat="44.18425" lon="5.42776">
        <ele>651.701</ele>
        <time>2019-04-27T12:01:46Z</time>
      </trkpt>
      <trkpt lat="44.18344" lon="5.42817">
        <ele>649.638</ele>
        <time>2019-04-27T12:01:57Z</time>
      </trkpt>
      <trkpt lat="44.18277" lon="5.42851">
        <ele>647.978</ele>
        <time>2019-04-27T12:02:07Z</time>
      </trkpt>
      <trkpt lat="44.18203" lon="5.42906">
        <ele>646.948</ele>
        <time>2019-04-27T12:02:18Z</time>
      </trkpt>
      <trkpt lat="44.1814" lon="5.42981">
        <ele>645.196</ele>
        <time>2019-04-27T12:02:29Z</time>
      </trkpt>
      <trkpt lat="44.18076" lon="5.4303">
        <ele>643.523</ele>
        <time>2019-04-27T12:02:39Z</time>
      </trkpt>
      <trkpt lat="44.18011" lon="5.43093">
        <ele>641.93</ele>
        <time>2019-04-27T12:02:50Z</time>
      </trkpt>
      <trkpt lat="44.17951" lon="5.43136">
        <ele>639.587</ele>
        <time>2019-04-27T12:03:00Z</time>
      </trkpt>
      <trkpt lat="44.17884" lon="5.43147">
        <ele>637.377</ele>
        <time>2019-04-27T12:03:10Z</time>
      </trkpt>
      <trkpt lat="44.17848" lon="5.43147">
        <ele>636.674</ele>
        <time>2019-04-27T12:03:21Z</time>
      </trkpt>
      <trkpt lat="44.17848" lon="5.43147">
        <ele>636.673</ele>
        <time>2019-04-27T12:03:31Z</time>
      </trkpt>
      <trkpt lat="44.17848" lon="5.43147">
        <ele>636.708</ele>
        <time>2019-04-27T12:03:42Z</time>
      </trkpt>
      <trkpt lat="44.17848" lon="5.43147">
        <ele>636.779</ele>
        <time>2019-04-27T12:03:53Z</time>
      </trkpt>
      <trkpt lat="44.17848" lon="5.43147">
        <ele>636.826</ele>
        <time>2019-04-27T12:04:04Z</time>
      </trkpt>
      <trkpt lat="44.17848" lon="5.43147">
        <ele>636.866</ele>
        <time>2019-04-27T12:04:15Z</time>
      </trkpt>
      <trkpt lat="44.17848" lon="5.43147">
        <ele>636.927</ele>
        <time>2019-04-27T12:04:25Z</time>
      </trkpt>
      <trkpt lat="44.17848" lon="5.43147">
        <ele>636.935</ele>
        <time>2019-04-27T12:04:36Z</time>
      </trkpt>
      <trkpt lat="44.17846" lon="5.43151">
        <ele>636.915</ele>
        <time>2019-04-27T12:04:47Z</time>
      </trkpt>
      <trkpt lat="44.17846" lon="5.43151">
        <ele>636.758</ele>
        <time>2019-04-27T12:04:58Z</time>
      </trkpt>
      <trkpt lat="44.17846" lon="5.43155">
        <ele>636.21</ele>
        <time>2019-04-27T12:05:08Z</time>
      </trkpt>
      <trkpt lat="44.17846" lon="5.43155">
        <ele>636.138</ele>
        <time>2019-04-27T12:05:19Z</time>
      </trkpt>
      <trkpt lat="44.17849" lon="5.43146">
        <ele>636.086</ele>
        <time>2019-04-27T12:05:29Z</time>
      </trkpt>
      <trkpt lat="44.17849" lon="5.43146">
        <ele>635.996</ele>
        <time>2019-04-27T12:05:40Z</time>
      </trkpt>
      <trkpt lat="44.17847" lon="5.4315">
        <ele>635.936</ele>
        <time>2019-04-27T12:05:50Z</time>
      </trkpt>
      <trkpt lat="44.17844" lon="5.43149">
        <ele>635.781</ele>
        <time>2019-04-27T12:06:01Z</time>
      </trkpt>
      <trkpt lat="44.17846" lon="5.4315">
        <ele>635.604</ele>
        <time>2019-04-27T12:06:12Z</time>
      </trkpt>
      <trkpt lat="44.17824" lon="5.43164">
        <ele>635.022</ele>
        <time>2019-04-27T12:06:22Z</time>
      </trkpt>
      <trkpt lat="44.17783" lon="5.43194">
        <ele>634.478</ele>
        <time>2019-04-27T12:06:33Z</time>
      </trkpt>
      <trkpt lat="44.17727" lon="5.4324">
        <ele>634.463</ele>
        <time>2019-04-27T12:06:44Z</time>
      </trkpt>
      <trkpt lat="44.17671" lon="5.43292">
        <ele>632.6</ele>
        <time>2019-04-27T12:06:54Z</time>
      </trkpt>
      <trkpt lat="44.17615" lon="5.43352">
        <ele>630.637</ele>
        <time>2019-04-27T12:07:05Z</time>
      </trkpt>
      <trkpt lat="44.17574" lon="5.4341">
        <ele>629.898</ele>
        <time>2019-04-27T12:07:15Z</time>
      </trkpt>
      <trkpt lat="44.17535" lon="5.43468">
        <ele>629.332</ele>
        <time>2019-04-27T12:07:25Z</time>
      </trkpt>
      <trkpt lat="44.17495" lon="5.43525">
        <ele>628.932</ele>
        <time>2019-04-27T12:07:36Z</time>
      </trkpt>
      <trkpt lat="44.17488" lon="5.43541">
        <ele>628.934</ele>
        <time>2019-04-27T12:07:47Z</time>
      </trkpt>
      <trkpt lat="44.17491" lon="5.43542">
        <ele>629.192</ele>
        <time>2019-04-27T12:07:58Z</time>
      </trkpt>
      <trkpt lat="44.17483" lon="5.43545">
        <ele>629.367</ele>
        <time>2019-04-27T12:08:08Z</time>
      </trkpt>
      <trkpt lat="44.17463" lon="5.43572">
        <ele>629.427</ele>
        <time>2019-04-27T12:08:19Z</time>
      </trkpt>
      <trkpt lat="44.17442" lon="5.43603">
        <ele>629.369</ele>
        <time>2019-04-27T12:08:29Z</time>
      </trkpt>
      <trkpt lat="44.17425" lon="5.43631">
        <ele>629.407</ele>
        <time>2019-04-27T12:08:40Z</time>
      </trkpt>
      <trkpt lat="44.17421" lon="5.4367">
        <ele>629.528</ele>
        <time>2019-04-27T12:08:50Z</time>
      </trkpt>
      <trkpt lat="44.17427" lon="5.43722">
        <ele>629.725</ele>
        <time>2019-04-27T12:09:01Z</time>
      </trkpt>
      <trkpt lat="44.17431" lon="5.43769">
        <ele>630.07</ele>
        <time>2019-04-27T12:09:11Z</time>
      </trkpt>
      <trkpt lat="44.17437" lon="5.43824">
        <ele>631.656</ele>
        <time>2019-04-27T12:09:22Z</time>
      </trkpt>
      <trkpt lat="44.17443" lon="5.43873">
        <ele>632.606</ele>
        <time>2019-04-27T12:09:32Z</time>
      </trkpt>
      <trkpt lat="44.17448" lon="5.43925">
        <ele>633.67</ele>
        <time>2019-04-27T12:09:43Z</time>
      </trkpt>
      <trkpt lat="44.17453" lon="5.43971">
        <ele>634.656</ele>
        <time>2019-04-27T12:09:53Z</time>
      </trkpt>
      <trkpt lat="44.17457" lon="5.44016">
        <ele>635.629</ele>
        <time>2019-04-27T12:10:03Z</time>
      </trkpt>
      <trkpt lat="44.17461" lon="5.44058">
        <ele>636.649</ele>
        <time>2019-04-27T12:10:13Z</time>
      </trkpt>
      <trkpt lat="44.17465" lon="5.44104">
        <ele>637.786</ele>
        <time>2019-04-27T12:10:24Z</time>
      </trkpt>
      <trkpt lat="44.17469" lon="5.44139">
        <ele>638.769</ele>
        <time>2019-04-27T12:10:34Z</time>
      </trkpt>
      <trkpt lat="44.17484" lon="5.44169">
        <ele>639.95</ele>
        <time>2019-04-27T12:10:45Z</time>
      </trkpt>
      <trkpt lat="44.17503" lon="5.44161">
        <ele>640.968</ele>
        <time>2019-04-27T12:10:56Z</time>
      </trkpt>
      <trkpt lat="44.1751" lon="5.44166">
        <ele>643.354</ele>
        <time>2019-04-27T12:11:07Z</time>
      </trkpt>
      <trkpt lat="44.1753" lon="5.44191">
        <ele>643.954</ele>
        <time>2019-04-27T12:11:18Z</time>
      </trkpt>
      <trkpt lat="44.17528" lon="5.44208">
        <ele>645.535</ele>
        <time>2019-04-27T12:11:29Z</time>
      </trkpt>
      <trkpt lat="44.17528" lon="5.44208">
        <ele>645.74</ele>
        <time>2019-04-27T12:11:39Z</time>
      </trkpt>
      <trkpt lat="44.17528" lon="5.44208">
        <ele>645.995</ele>
        <time>2019-04-27T12:11:50Z</time>
      </trkpt>
      <trkpt lat="44.17528" lon="5.44208">
        <ele>646.26</ele>
        <time>2019-04-27T12:12:01Z</time>
      </trkpt>
      <trkpt lat="44.17528" lon="5.44213">
        <ele>646.502</ele>
        <time>2019-04-27T12:12:11Z</time>
      </trkpt>
      <trkpt lat="44.17528" lon="5.44213">
        <ele>646.788</ele>
        <time>2019-04-27T12:12:22Z</time>
      </trkpt>
      <trkpt lat="44.17528" lon="5.44213">
        <ele>647.081</ele>
        <time>2019-04-27T12:12:33Z</time>
      </trkpt>
      <trkpt lat="44.17528" lon="5.44213">
        <ele>647.489</ele>
        <time>2019-04-27T12:12:43Z</time>
      </trkpt>
      <trkpt lat="44.17529" lon="5.44212">
        <ele>647.913</ele>
        <time>2019-04-27T12:12:54Z</time>
      </trkpt>
      <trkpt lat="44.17529" lon="5.44212">
        <ele>648.3</ele>
        <time>2019-04-27T12:13:05Z</time>
      </trkpt>
      <trkpt lat="44.17529" lon="5.44211">
        <ele>648.758</ele>
        <time>2019-04-27T12:13:16Z</time>
      </trkpt>
      <trkpt lat="44.1753" lon="5.44212">
        <ele>649.143</ele>
        <time>2019-04-27T12:13:27Z</time>
      </trkpt>
      <trkpt lat="44.17535" lon="5.44224">
        <ele>650.477</ele>
        <time>2019-04-27T12:13:38Z</time>
      </trkpt>
      <trkpt lat="44.17541" lon="5.44264">
        <ele>651.67</ele>
        <time>2019-04-27T12:13:49Z</time>
      </trkpt>
      <trkpt lat="44.17544" lon="5.44299">
        <ele>652.418</ele>
        <time>2019-04-27T12:13:59Z</time>
      </trkpt>
      <trkpt lat="44.17549" lon="5.44341">
        <ele>653.699</ele>
        <time>2019-04-27T12:14:10Z</time>
      </trkpt>
      <trkpt lat="44.17552" lon="5.44376">
        <ele>653.945</ele>
        <time>2019-04-27T12:14:21Z</time>
      </trkpt>
      <trkpt lat="44.17557" lon="5.44413">
        <ele>654.296</ele>
        <time>2019-04-27T12:14:32Z</time>
      </trkpt>
      <trkpt lat="44.17557" lon="5.4442">
        <ele>654.961</ele>
        <time>2019-04-27T12:14:42Z</time>
      </trkpt>
      <trkpt lat="44.1756" lon="5.44418">
        <ele>655.053</ele>
        <time>2019-04-27T12:14:53Z</time>
      </trkpt>
      <trkpt lat="44.1756" lon="5.44418">
        <ele>655.023</ele>
        <time>2019-04-27T12:15:03Z</time>
      </trkpt>
      <trkpt lat="44.17561" lon="5.44418">
        <ele>654.972</ele>
        <time>2019-04-27T12:15:14Z</time>
      </trkpt>
      <trkpt lat="44.17561" lon="5.44418">
        <ele>654.959</ele>
        <time>2019-04-27T12:15:24Z</time>
      </trkpt>
      <trkpt lat="44.17562" lon="5.44417">
        <ele>654.955</ele>
        <time>2019-04-27T12:15:35Z</time>
      </trkpt>
      <trkpt lat="44.17562" lon="5.44417">
        <ele>654.941</ele>
        <time>2019-04-27T12:15:46Z</time>
      </trkpt>
      <trkpt lat="44.17563" lon="5.44416">
        <ele>654.907</ele>
        <time>2019-04-27T12:15:56Z</time>
      </trkpt>
      <trkpt lat="44.17563" lon="5.44416">
        <ele>654.884</ele>
        <time>2019-04-27T12:16:07Z</time>
      </trkpt>
      <trkpt lat="44.17563" lon="5.44416">
        <ele>654.88</ele>
        <time>2019-04-27T12:16:18Z</time>
      </trkpt>
      <trkpt lat="44.17564" lon="5.44416">
        <ele>654.852</ele>
        <time>2019-04-27T12:16:28Z</time>
      </trkpt>
      <trkpt lat="44.17564" lon="5.44416">
        <ele>654.837</ele>
        <time>2019-04-27T12:16:38Z</time>
      </trkpt>
      <trkpt lat="44.17564" lon="5.44416">
        <ele>654.813</ele>
        <time>2019-04-27T12:16:49Z</time>
      </trkpt>
      <trkpt lat="44.17564" lon="5.44416">
        <ele>654.79</ele>
        <time>2019-04-27T12:17:00Z</time>
      </trkpt>
      <trkpt lat="44.17565" lon="5.44413">
        <ele>654.714</ele>
        <time>2019-04-27T12:17:10Z</time>
      </trkpt>
      <trkpt lat="44.17561" lon="5.44383">
        <ele>654.31</ele>
        <time>2019-04-27T12:17:21Z</time>
      </trkpt>
      <trkpt lat="44.1755" lon="5.44334">
        <ele>653.931</ele>
        <time>2019-04-27T12:17:32Z</time>
      </trkpt>
      <trkpt lat="44.17541" lon="5.44297">
        <ele>653.516</ele>
        <time>2019-04-27T12:17:42Z</time>
      </trkpt>
      <trkpt lat="44.17539" lon="5.44298">
        <ele>654.198</ele>
        <time>2019-04-27T12:17:53Z</time>
      </trkpt>
      <trkpt lat="44.17536" lon="5.44301">
        <ele>654.768</ele>
        <time>2019-04-27T12:18:03Z</time>
      </trkpt>
      <trkpt lat="44.17538" lon="5.44302">
        <ele>654.847</ele>
        <time>2019-04-27T12:18:13Z</time>
      </trkpt>
      <trkpt lat="44.17537" lon="5.44306">
        <ele>654.679</ele>
        <time>2019-04-27T12:18:24Z</time>
      </trkpt>
      <trkpt lat="44.17536" lon="5.44307">
        <ele>654.441</ele>
        <time>2019-04-27T12:18:34Z</time>
      </trkpt>
      <trkpt lat="44.17537" lon="5.4431">
        <ele>654.33</ele>
        <time>2019-04-27T12:18:44Z</time>
      </trkpt>
      <trkpt lat="44.17537" lon="5.44311">
        <ele>654.197</ele>
        <time>2019-04-27T12:18:55Z</time>
      </trkpt>
      <trkpt lat="44.17537" lon="5.44311">
        <ele>654.104</ele>
        <time>2019-04-27T12:19:05Z</time>
      </trkpt>
      <trkpt lat="44.17537" lon="5.4431">
        <ele>654.018</ele>
        <time>2019-04-27T12:19:16Z</time>
      </trkpt>
      <trkpt lat="44.17537" lon="5.44309">
        <ele>653.895</ele>
        <time>2019-04-27T12:19:27Z</time>
      </trkpt>
      <trkpt lat="44.17537" lon="5.44308">
        <ele>653.734</ele>
        <time>2019-04-27T12:19:37Z</time>
      </trkpt>
      <trkpt lat="44.17537" lon="5.44308">
        <ele>653.608</ele>
        <time>2019-04-27T12:19:48Z</time>
      </trkpt>
      <trkpt lat="44.17534" lon="5.44298">
        <ele>652.951</ele>
        <time>2019-04-27T12:19:59Z</time>
      </trkpt>
      <trkpt lat="44.17534" lon="5.44297">
        <ele>652.034</ele>
        <time>2019-04-27T12:20:09Z</time>
      </trkpt>
      <trkpt lat="44.17536" lon="5.44302">
        <ele>651.288</ele>
        <time>2019-04-27T12:20:19Z</time>
      </trkpt>
      <trkpt lat="44.17536" lon="5.44302">
        <ele>651.095</ele>
        <time>2019-04-27T12:20:30Z</time>
      </trkpt>
      <trkpt lat="44.17536" lon="5.44303">
        <ele>650.741</ele>
        <time>2019-04-27T12:20:41Z</time>
      </trkpt>
      <trkpt lat="44.17536" lon="5.44303">
        <ele>649.999</ele>
        <time>2019-04-27T12:20:52Z</time>
      </trkpt>
      <trkpt lat="44.17536" lon="5.44305">
        <ele>649.426</ele>
        <time>2019-04-27T12:21:02Z</time>
      </trkpt>
      <trkpt lat="44.17536" lon="5.44309">
        <ele>648.984</ele>
        <time>2019-04-27T12:21:13Z</time>
      </trkpt>
      <trkpt lat="44.17538" lon="5.44311">
        <ele>648.856</ele>
        <time>2019-04-27T12:21:24Z</time>
      </trkpt>
      <trkpt lat="44.17538" lon="5.44311">
        <ele>648.739</ele>
        <time>2019-04-27T12:21:34Z</time>
      </trkpt>
      <trkpt lat="44.17538" lon="5.44313">
        <ele>648.493</ele>
        <time>2019-04-27T12:21:45Z</time>
      </trkpt>
      <trkpt lat="44.17538" lon="5.44312">
        <ele>648.265</ele>
        <time>2019-04-27T12:21:56Z</time>
      </trkpt>
      <trkpt lat="44.17539" lon="5.44313">
        <ele>647.637</ele>
        <time>2019-04-27T12:22:06Z</time>
      </trkpt>
      <trkpt lat="44.17537" lon="5.44316">
        <ele>647.188</ele>
        <time>2019-04-27T12:22:17Z</time>
      </trkpt>
      <trkpt lat="44.17538" lon="5.44313">
        <ele>647.025</ele>
        <time>2019-04-27T12:22:28Z</time>
      </trkpt>
      <trkpt lat="44.17538" lon="5.44316">
        <ele>646.506</ele>
        <time>2019-04-27T12:22:38Z</time>
      </trkpt>
      <trkpt lat="44.17537" lon="5.44317">
        <ele>646.08</ele>
        <time>2019-04-27T12:22:49Z</time>
      </trkpt>
      <trkpt lat="44.17535" lon="5.44316">
        <ele>645.586</ele>
        <time>2019-04-27T12:23:00Z</time>
      </trkpt>
      <trkpt lat="44.17534" lon="5.44313">
        <ele>644.953</ele>
        <time>2019-04-27T12:23:11Z</time>
      </trkpt>
      <trkpt lat="44.17535" lon="5.44308">
        <ele>644.502</ele>
        <time>2019-04-27T12:23:23Z</time>
      </trkpt>
      <trkpt lat="44.17538" lon="5.44309">
        <ele>643.992</ele>
        <time>2019-04-27T12:23:34Z</time>
      </trkpt>
      <trkpt lat="44.17543" lon="5.44313">
        <ele>643.436</ele>
        <time>2019-04-27T12:23:47Z</time>
      </trkpt>
      <trkpt lat="44.17544" lon="5.44318">
        <ele>642.778</ele>
        <time>2019-04-27T12:23:58Z</time>
      </trkpt>
      <trkpt lat="44.17544" lon="5.44318">
        <ele>642.857</ele>
        <time>2019-04-27T12:24:09Z</time>
      </trkpt>
      <trkpt lat="44.17543" lon="5.44318">
        <ele>642.954</ele>
        <time>2019-04-27T12:24:19Z</time>
      </trkpt>
      <trkpt lat="44.17543" lon="5.44318">
        <ele>643.028</ele>
        <time>2019-04-27T12:24:30Z</time>
      </trkpt>
      <trkpt lat="44.17543" lon="5.44318">
        <ele>643.037</ele>
        <time>2019-04-27T12:24:41Z</time>
      </trkpt>
      <trkpt lat="44.17543" lon="5.44318">
        <ele>643.034</ele>
        <time>2019-04-27T12:24:52Z</time>
      </trkpt>
      <trkpt lat="44.17543" lon="5.44316">
        <ele>643.068</ele>
        <time>2019-04-27T12:25:03Z</time>
      </trkpt>
      <trkpt lat="44.17543" lon="5.44316">
        <ele>642.736</ele>
        <time>2019-04-27T12:25:13Z</time>
      </trkpt>
      <trkpt lat="44.17543" lon="5.44315">
        <ele>642.617</ele>
        <time>2019-04-27T12:25:24Z</time>
      </trkpt>
      <trkpt lat="44.17542" lon="5.44315">
        <ele>642.272</ele>
        <time>2019-04-27T12:25:35Z</time>
      </trkpt>
      <trkpt lat="44.17541" lon="5.44313">
        <ele>641.838</ele>
        <time>2019-04-27T12:25:46Z</time>
      </trkpt>
      <trkpt lat="44.17542" lon="5.44315">
        <ele>641.674</ele>
        <time>2019-04-27T12:25:57Z</time>
      </trkpt>
      <trkpt lat="44.17543" lon="5.44316">
        <ele>641.512</ele>
        <time>2019-04-27T12:26:07Z</time>
      </trkpt>
      <trkpt lat="44.17542" lon="5.44314">
        <ele>641.34</ele>
        <time>2019-04-27T12:26:18Z</time>
      </trkpt>
      <trkpt lat="44.17542" lon="5.44313">
        <ele>641.012</ele>
        <time>2019-04-27T12:26:29Z</time>
      </trkpt>
      <trkpt lat="44.17543" lon="5.44318">
        <ele>640.465</ele>
        <time>2019-04-27T12:26:40Z</time>
      </trkpt>
      <trkpt lat="44.17538" lon="5.44315">
        <ele>640.048</ele>
        <time>2019-04-27T12:26:51Z</time>
      </trkpt>
      <trkpt lat="44.17536" lon="5.44312">
        <ele>639.652</ele>
        <time>2019-04-27T12:27:01Z</time>
      </trkpt>
      <trkpt lat="44.17536" lon="5.44311">
        <ele>639.32</ele>
        <time>2019-04-27T12:27:11Z</time>
      </trkpt>
      <trkpt lat="44.17533" lon="5.44313">
        <ele>639.868</ele>
        <time>2019-04-27T12:27:22Z</time>
      </trkpt>
      <trkpt lat="44.17529" lon="5.44317">
        <ele>640.851</ele>
        <time>2019-04-27T12:27:33Z</time>
      </trkpt>
      <trkpt lat="44.17533" lon="5.44315">
        <ele>641.417</ele>
        <time>2019-04-27T12:27:43Z</time>
      </trkpt>
      <trkpt lat="44.17535" lon="5.44314">
        <ele>642.086</ele>
        <time>2019-04-27T12:27:54Z</time>
      </trkpt>
      <trkpt lat="44.17539" lon="5.44313">
        <ele>642.159</ele>
        <time>2019-04-27T12:28:04Z</time>
      </trkpt>
      <trkpt lat="44.17544" lon="5.44316">
        <ele>641.899</ele>
        <time>2019-04-27T12:28:15Z</time>
      </trkpt>
      <trkpt lat="44.17549" lon="5.4432">
        <ele>641.156</ele>
        <time>2019-04-27T12:28:26Z</time>
      </trkpt>
      <trkpt lat="44.17551" lon="5.44321">
        <ele>640.306</ele>
        <time>2019-04-27T12:28:37Z</time>
      </trkpt>
      <trkpt lat="44.17544" lon="5.44314">
        <ele>638.487</ele>
        <time>2019-04-27T12:28:48Z</time>
      </trkpt>
      <trkpt lat="44.17537" lon="5.44307">
        <ele>637.06</ele>
        <time>2019-04-27T12:28:59Z</time>
      </trkpt>
      <trkpt lat="44.17536" lon="5.44307">
        <ele>636.107</ele>
        <time>2019-04-27T12:29:10Z</time>
      </trkpt>
      <trkpt lat="44.17537" lon="5.44309">
        <ele>636.008</ele>
        <time>2019-04-27T12:29:20Z</time>
      </trkpt>
      <trkpt lat="44.17537" lon="5.44315">
        <ele>636.751</ele>
        <time>2019-04-27T12:29:30Z</time>
      </trkpt>
      <trkpt lat="44.17537" lon="5.44316">
        <ele>637.947</ele>
        <time>2019-04-27T12:29:41Z</time>
      </trkpt>
      <trkpt lat="44.17538" lon="5.44315">
        <ele>638.784</ele>
        <time>2019-04-27T12:29:52Z</time>
      </trkpt>
      <trkpt lat="44.17528" lon="5.44303">
        <ele>639.326</ele>
        <time>2019-04-27T12:30:05Z</time>
      </trkpt>
      <trkpt lat="44.17521" lon="5.44297">
        <ele>640.728</ele>
        <time>2019-04-27T12:30:16Z</time>
      </trkpt>
      <trkpt lat="44.17538" lon="5.44305">
        <ele>641.659</ele>
        <time>2019-04-27T12:30:26Z</time>
      </trkpt>
      <trkpt lat="44.17539" lon="5.44307">
        <ele>642.498</ele>
        <time>2019-04-27T12:30:36Z</time>
      </trkpt>
      <trkpt lat="44.1754" lon="5.44307">
        <ele>642.871</ele>
        <time>2019-04-27T12:30:47Z</time>
      </trkpt>
      <trkpt lat="44.17544" lon="5.4431">
        <ele>643.445</ele>
        <time>2019-04-27T12:30:58Z</time>
      </trkpt>
      <trkpt lat="44.17544" lon="5.44309">
        <ele>643.445</ele>
        <time>2019-04-27T12:31:08Z</time>
      </trkpt>
      <trkpt lat="44.17544" lon="5.44309">
        <ele>643.455</ele>
        <time>2019-04-27T12:31:19Z</time>
      </trkpt>
      <trkpt lat="44.17544" lon="5.44309">
        <ele>643.514</ele>
        <time>2019-04-27T12:31:30Z</time>
      </trkpt>
      <trkpt lat="44.17544" lon="5.44309">
        <ele>643.597</ele>
        <time>2019-04-27T12:31:40Z</time>
      </trkpt>
      <trkpt lat="44.17543" lon="5.44309">
        <ele>643.705</ele>
        <time>2019-04-27T12:31:50Z</time>
      </trkpt>
      <trkpt lat="44.17543" lon="5.44308">
        <ele>643.844</ele>
        <time>2019-04-27T12:32:01Z</time>
      </trkpt>
      <trkpt lat="44.17543" lon="5.44304">
        <ele>644.79</ele>
        <time>2019-04-27T12:32:11Z</time>
      </trkpt>
      <trkpt lat="44.17539" lon="5.44301">
        <ele>645.616</ele>
        <time>2019-04-27T12:32:22Z</time>
      </trkpt>
      <trkpt lat="44.17539" lon="5.44301">
        <ele>646.04</ele>
        <time>2019-04-27T12:32:33Z</time>
      </trkpt>
      <trkpt lat="44.1754" lon="5.443">
        <ele>646.235</ele>
        <time>2019-04-27T12:32:43Z</time>
      </trkpt>
      <trkpt lat="44.1754" lon="5.443">
        <ele>646.451</ele>
        <time>2019-04-27T12:32:53Z</time>
      </trkpt>
      <trkpt lat="44.17539" lon="5.44301">
        <ele>646.645</ele>
        <time>2019-04-27T12:33:03Z</time>
      </trkpt>
      <trkpt lat="44.17539" lon="5.44301">
        <ele>646.822</ele>
        <time>2019-04-27T12:33:13Z</time>
      </trkpt>
      <trkpt lat="44.1754" lon="5.44302">
        <ele>647.014</ele>
        <time>2019-04-27T12:33:24Z</time>
      </trkpt>
      <trkpt lat="44.17539" lon="5.44301">
        <ele>647.341</ele>
        <time>2019-04-27T12:33:35Z</time>
      </trkpt>
      <trkpt lat="44.17539" lon="5.44301">
        <ele>647.488</ele>
        <time>2019-04-27T12:33:45Z</time>
      </trkpt>
      <trkpt lat="44.1754" lon="5.44301">
        <ele>647.608</ele>
        <time>2019-04-27T12:33:56Z</time>
      </trkpt>
      <trkpt lat="44.17541" lon="5.44284">
        <ele>648.092</ele>
        <time>2019-04-27T12:34:07Z</time>
      </trkpt>
      <trkpt lat="44.17535" lon="5.44233">
        <ele>648.536</ele>
        <time>2019-04-27T12:34:17Z</time>
      </trkpt>
      <trkpt lat="44.17521" lon="5.44171">
        <ele>642.356</ele>
        <time>2019-04-27T12:34:27Z</time>
      </trkpt>
      <trkpt lat="44.17471" lon="5.44145">
        <ele>638.296</ele>
        <time>2019-04-27T12:34:38Z</time>
      </trkpt>
      <trkpt lat="44.17464" lon="5.44056">
        <ele>637.052</ele>
        <time>2019-04-27T12:34:49Z</time>
      </trkpt>
      <trkpt lat="44.17457" lon="5.43972">
        <ele>637.646</ele>
        <time>2019-04-27T12:34:59Z</time>
      </trkpt>
      <trkpt lat="44.1745" lon="5.43891">
        <ele>636.907</ele>
        <time>2019-04-27T12:35:09Z</time>
      </trkpt>
      <trkpt lat="44.17441" lon="5.43797">
        <ele>636.19</ele>
        <time>2019-04-27T12:35:20Z</time>
      </trkpt>
      <trkpt lat="44.17432" lon="5.43706">
        <ele>635.906</ele>
        <time>2019-04-27T12:35:31Z</time>
      </trkpt>
      <trkpt lat="44.17408" lon="5.43639">
        <ele>635.362</ele>
        <time>2019-04-27T12:35:41Z</time>
      </trkpt>
      <trkpt lat="44.17341" lon="5.43625">
        <ele>634.144</ele>
        <time>2019-04-27T12:35:52Z</time>
      </trkpt>
      <trkpt lat="44.17272" lon="5.43613">
        <ele>633.087</ele>
        <time>2019-04-27T12:36:03Z</time>
      </trkpt>
      <trkpt lat="44.17212" lon="5.43584">
        <ele>632.157</ele>
        <time>2019-04-27T12:36:13Z</time>
      </trkpt>
      <trkpt lat="44.17161" lon="5.43526">
        <ele>631.236</ele>
        <time>2019-04-27T12:36:24Z</time>
      </trkpt>
      <trkpt lat="44.1711" lon="5.4348">
        <ele>630.225</ele>
        <time>2019-04-27T12:36:34Z</time>
      </trkpt>
      <trkpt lat="44.17056" lon="5.43433">
        <ele>629.378</ele>
        <time>2019-04-27T12:36:45Z</time>
      </trkpt>
      <trkpt lat="44.1701" lon="5.43392">
        <ele>628.538</ele>
        <time>2019-04-27T12:36:56Z</time>
      </trkpt>
      <trkpt lat="44.16976" lon="5.43352">
        <ele>628.067</ele>
        <time>2019-04-27T12:37:07Z</time>
      </trkpt>
      <trkpt lat="44.16955" lon="5.43324">
        <ele>628.021</ele>
        <time>2019-04-27T12:37:17Z</time>
      </trkpt>
      <trkpt lat="44.16936" lon="5.43296">
        <ele>627.986</ele>
        <time>2019-04-27T12:37:28Z</time>
      </trkpt>
      <trkpt lat="44.16917" lon="5.43271">
        <ele>628.024</ele>
        <time>2019-04-27T12:37:38Z</time>
      </trkpt>
      <trkpt lat="44.16886" lon="5.43255">
        <ele>628.193</ele>
        <time>2019-04-27T12:37:49Z</time>
      </trkpt>
      <trkpt lat="44.16848" lon="5.43259">
        <ele>628.988</ele>
        <time>2019-04-27T12:37:59Z</time>
      </trkpt>
      <trkpt lat="44.16795" lon="5.43285">
        <ele>629.23</ele>
        <time>2019-04-27T12:38:10Z</time>
      </trkpt>
      <trkpt lat="44.16735" lon="5.43273">
        <ele>629.064</ele>
        <time>2019-04-27T12:38:21Z</time>
      </trkpt>
      <trkpt lat="44.16681" lon="5.43245">
        <ele>628.75</ele>
        <time>2019-04-27T12:38:31Z</time>
      </trkpt>
      <trkpt lat="44.16611" lon="5.4322">
        <ele>627.852</ele>
        <time>2019-04-27T12:38:41Z</time>
      </trkpt>
      <trkpt lat="44.16526" lon="5.43192">
        <ele>625.79</ele>
        <time>2019-04-27T12:38:52Z</time>
      </trkpt>
      <trkpt lat="44.16447" lon="5.4317">
        <ele>623.774</ele>
        <time>2019-04-27T12:39:03Z</time>
      </trkpt>
      <trkpt lat="44.1639" lon="5.43151">
        <ele>621.805</ele>
        <time>2019-04-27T12:39:13Z</time>
      </trkpt>
      <trkpt lat="44.16341" lon="5.43135">
        <ele>620.516</ele>
        <time>2019-04-27T12:39:24Z</time>
      </trkpt>
      <trkpt lat="44.163" lon="5.43143">
        <ele>619.682</ele>
        <time>2019-04-27T12:39:34Z</time>
      </trkpt>
      <trkpt lat="44.16255" lon="5.43166">
        <ele>619.282</ele>
        <time>2019-04-27T12:39:45Z</time>
      </trkpt>
      <trkpt lat="44.16218" lon="5.43187">
        <ele>619.471</ele>
        <time>2019-04-27T12:39:55Z</time>
      </trkpt>
      <trkpt lat="44.16173" lon="5.43218">
        <ele>618.267</ele>
        <time>2019-04-27T12:40:06Z</time>
      </trkpt>
      <trkpt lat="44.16132" lon="5.4325">
        <ele>617.951</ele>
        <time>2019-04-27T12:40:17Z</time>
      </trkpt>
      <trkpt lat="44.16094" lon="5.43279">
        <ele>619.959</ele>
        <time>2019-04-27T12:40:28Z</time>
      </trkpt>
      <trkpt lat="44.1605" lon="5.43291">
        <ele>622.86</ele>
        <time>2019-04-27T12:40:39Z</time>
      </trkpt>
      <trkpt lat="44.16018" lon="5.43298">
        <ele>623.284</ele>
        <time>2019-04-27T12:40:49Z</time>
      </trkpt>
      <trkpt lat="44.15985" lon="5.43323">
        <ele>623.98</ele>
        <time>2019-04-27T12:41:00Z</time>
      </trkpt>
      <trkpt lat="44.15959" lon="5.43337">
        <ele>624.86</ele>
        <time>2019-04-27T12:41:10Z</time>
      </trkpt>
      <trkpt lat="44.15925" lon="5.43344">
        <ele>625.903</ele>
        <time>2019-04-27T12:41:21Z</time>
      </trkpt>
      <trkpt lat="44.15893" lon="5.43355">
        <ele>627.067</ele>
        <time>2019-04-27T12:41:32Z</time>
      </trkpt>
      <trkpt lat="44.15871" lon="5.43381">
        <ele>629.013</ele>
        <time>2019-04-27T12:41:43Z</time>
      </trkpt>
      <trkpt lat="44.15855" lon="5.43416">
        <ele>630.21</ele>
        <time>2019-04-27T12:41:54Z</time>
      </trkpt>
      <trkpt lat="44.15839" lon="5.43436">
        <ele>631.71</ele>
        <time>2019-04-27T12:42:05Z</time>
      </trkpt>
      <trkpt lat="44.15822" lon="5.43454">
        <ele>632.853</ele>
        <time>2019-04-27T12:42:16Z</time>
      </trkpt>
      <trkpt lat="44.15804" lon="5.43474">
        <ele>633.738</ele>
        <time>2019-04-27T12:42:27Z</time>
      </trkpt>
      <trkpt lat="44.15782" lon="5.43477">
        <ele>634.836</ele>
        <time>2019-04-27T12:42:37Z</time>
      </trkpt>
      <trkpt lat="44.1576" lon="5.43483">
        <ele>636.545</ele>
        <time>2019-04-27T12:42:48Z</time>
      </trkpt>
      <trkpt lat="44.15739" lon="5.4349">
        <ele>638.372</ele>
        <time>2019-04-27T12:42:58Z</time>
      </trkpt>
      <trkpt lat="44.15718" lon="5.43497">
        <ele>640.831</ele>
        <time>2019-04-27T12:43:09Z</time>
      </trkpt>
      <trkpt lat="44.15697" lon="5.43504">
        <ele>642.826</ele>
        <time>2019-04-27T12:43:20Z</time>
      </trkpt>
      <trkpt lat="44.15675" lon="5.43515">
        <ele>644.465</ele>
        <time>2019-04-27T12:43:31Z</time>
      </trkpt>
      <trkpt lat="44.15654" lon="5.4352">
        <ele>645.83</ele>
        <time>2019-04-27T12:43:41Z</time>
      </trkpt>
      <trkpt lat="44.15631" lon="5.43521">
        <ele>647.619</ele>
        <time>2019-04-27T12:43:51Z</time>
      </trkpt>
      <trkpt lat="44.15612" lon="5.43535">
        <ele>649.109</ele>
        <time>2019-04-27T12:44:02Z</time>
      </trkpt>
      <trkpt lat="44.15589" lon="5.4357">
        <ele>650.619</ele>
        <time>2019-04-27T12:44:12Z</time>
      </trkpt>
      <trkpt lat="44.15547" lon="5.43591">
        <ele>656.673</ele>
        <time>2019-04-27T12:44:23Z</time>
      </trkpt>
      <trkpt lat="44.15506" lon="5.43575">
        <ele>656.813</ele>
        <time>2019-04-27T12:44:33Z</time>
      </trkpt>
      <trkpt lat="44.15468" lon="5.43568">
        <ele>656.075</ele>
        <time>2019-04-27T12:44:43Z</time>
      </trkpt>
      <trkpt lat="44.15435" lon="5.43566">
        <ele>655.77</ele>
        <time>2019-04-27T12:44:54Z</time>
      </trkpt>
      <trkpt lat="44.15409" lon="5.43564">
        <ele>655.359</ele>
        <time>2019-04-27T12:45:04Z</time>
      </trkpt>
      <trkpt lat="44.15379" lon="5.4356">
        <ele>655.147</ele>
        <time>2019-04-27T12:45:14Z</time>
      </trkpt>
      <trkpt lat="44.15352" lon="5.4354">
        <ele>655.218</ele>
        <time>2019-04-27T12:45:24Z</time>
      </trkpt>
      <trkpt lat="44.15321" lon="5.43504">
        <ele>656.101</ele>
        <time>2019-04-27T12:45:35Z</time>
      </trkpt>
      <trkpt lat="44.15296" lon="5.43469">
        <ele>656.577</ele>
        <time>2019-04-27T12:45:45Z</time>
      </trkpt>
      <trkpt lat="44.15281" lon="5.43419">
        <ele>656.756</ele>
        <time>2019-04-27T12:45:56Z</time>
      </trkpt>
      <trkpt lat="44.15281" lon="5.43371">
        <ele>656.956</ele>
        <time>2019-04-27T12:46:06Z</time>
      </trkpt>
      <trkpt lat="44.15286" lon="5.43325">
        <ele>657.515</ele>
        <time>2019-04-27T12:46:17Z</time>
      </trkpt>
      <trkpt lat="44.15291" lon="5.43288">
        <ele>658.247</ele>
        <time>2019-04-27T12:46:27Z</time>
      </trkpt>
      <trkpt lat="44.15294" lon="5.43246">
        <ele>659.979</ele>
        <time>2019-04-27T12:46:38Z</time>
      </trkpt>
      <trkpt lat="44.15297" lon="5.4321">
        <ele>661.43</ele>
        <time>2019-04-27T12:46:49Z</time>
      </trkpt>
      <trkpt lat="44.15299" lon="5.43178">
        <ele>662.64</ele>
        <time>2019-04-27T12:46:59Z</time>
      </trkpt>
      <trkpt lat="44.153" lon="5.43144">
        <ele>663.664</ele>
        <time>2019-04-27T12:47:10Z</time>
      </trkpt>
      <trkpt lat="44.15296" lon="5.43112">
        <ele>664.738</ele>
        <time>2019-04-27T12:47:20Z</time>
      </trkpt>
      <trkpt lat="44.15288" lon="5.43078">
        <ele>666.198</ele>
        <time>2019-04-27T12:47:31Z</time>
      </trkpt>
      <trkpt lat="44.15276" lon="5.43047">
        <ele>667.598</ele>
        <time>2019-04-27T12:47:42Z</time>
      </trkpt>
      <trkpt lat="44.15262" lon="5.43025">
        <ele>668.548</ele>
        <time>2019-04-27T12:47:52Z</time>
      </trkpt>
      <trkpt lat="44.15247" lon="5.43006">
        <ele>669.175</ele>
        <time>2019-04-27T12:48:02Z</time>
      </trkpt>
      <trkpt lat="44.15227" lon="5.42984">
        <ele>670.118</ele>
        <time>2019-04-27T12:48:13Z</time>
      </trkpt>
      <trkpt lat="44.15206" lon="5.42963">
        <ele>670.718</ele>
        <time>2019-04-27T12:48:23Z</time>
      </trkpt>
      <trkpt lat="44.15184" lon="5.42941">
        <ele>671.46</ele>
        <time>2019-04-27T12:48:34Z</time>
      </trkpt>
      <trkpt lat="44.15166" lon="5.42919">
        <ele>672.422</ele>
        <time>2019-04-27T12:48:44Z</time>
      </trkpt>
      <trkpt lat="44.15147" lon="5.42898">
        <ele>673.333</ele>
        <time>2019-04-27T12:48:55Z</time>
      </trkpt>
      <trkpt lat="44.15129" lon="5.42874">
        <ele>674.195</ele>
        <time>2019-04-27T12:49:05Z</time>
      </trkpt>
      <trkpt lat="44.15106" lon="5.42854">
        <ele>675.389</ele>
        <time>2019-04-27T12:49:16Z</time>
      </trkpt>
      <trkpt lat="44.1508" lon="5.42844">
        <ele>676.543</ele>
        <time>2019-04-27T12:49:27Z</time>
      </trkpt>
      <trkpt lat="44.15053" lon="5.42839">
        <ele>677.549</ele>
        <time>2019-04-27T12:49:38Z</time>
      </trkpt>
      <trkpt lat="44.15026" lon="5.42828">
        <ele>678.533</ele>
        <time>2019-04-27T12:49:49Z</time>
      </trkpt>
      <trkpt lat="44.15004" lon="5.42813">
        <ele>679.432</ele>
        <time>2019-04-27T12:49:59Z</time>
      </trkpt>
      <trkpt lat="44.14984" lon="5.42785">
        <ele>680.402</ele>
        <time>2019-04-27T12:50:10Z</time>
      </trkpt>
      <trkpt lat="44.14978" lon="5.42752">
        <ele>681.129</ele>
        <time>2019-04-27T12:50:20Z</time>
      </trkpt>
      <trkpt lat="44.14985" lon="5.42718">
        <ele>682.059</ele>
        <time>2019-04-27T12:50:30Z</time>
      </trkpt>
      <trkpt lat="44.14996" lon="5.42681">
        <ele>682.977</ele>
        <time>2019-04-27T12:50:41Z</time>
      </trkpt>
      <trkpt lat="44.15004" lon="5.42646">
        <ele>683.929</ele>
        <time>2019-04-27T12:50:51Z</time>
      </trkpt>
      <trkpt lat="44.15013" lon="5.4261">
        <ele>685.018</ele>
        <time>2019-04-27T12:51:02Z</time>
      </trkpt>
      <trkpt lat="44.1502" lon="5.4258">
        <ele>686.134</ele>
        <time>2019-04-27T12:51:12Z</time>
      </trkpt>
      <trkpt lat="44.15024" lon="5.42544">
        <ele>687.552</ele>
        <time>2019-04-27T12:51:23Z</time>
      </trkpt>
      <trkpt lat="44.15022" lon="5.42506">
        <ele>689.136</ele>
        <time>2019-04-27T12:51:34Z</time>
      </trkpt>
      <trkpt lat="44.15014" lon="5.42471">
        <ele>690.653</ele>
        <time>2019-04-27T12:51:45Z</time>
      </trkpt>
      <trkpt lat="44.15005" lon="5.42442">
        <ele>691.913</ele>
        <time>2019-04-27T12:51:55Z</time>
      </trkpt>
      <trkpt lat="44.14995" lon="5.42407">
        <ele>692.951</ele>
        <time>2019-04-27T12:52:06Z</time>
      </trkpt>
      <trkpt lat="44.14983" lon="5.42375">
        <ele>693.852</ele>
        <time>2019-04-27T12:52:17Z</time>
      </trkpt>
      <trkpt lat="44.14975" lon="5.42358">
        <ele>694.59</ele>
        <time>2019-04-27T12:52:27Z</time>
      </trkpt>
      <trkpt lat="44.14975" lon="5.42357">
        <ele>694.758</ele>
        <time>2019-04-27T12:52:38Z</time>
      </trkpt>
      <trkpt lat="44.14973" lon="5.42355">
        <ele>694.983</ele>
        <time>2019-04-27T12:52:49Z</time>
      </trkpt>
      <trkpt lat="44.14973" lon="5.42354">
        <ele>695.152</ele>
        <time>2019-04-27T12:52:59Z</time>
      </trkpt>
      <trkpt lat="44.14972" lon="5.42352">
        <ele>695.385</ele>
        <time>2019-04-27T12:53:10Z</time>
      </trkpt>
      <trkpt lat="44.14972" lon="5.42352">
        <ele>695.674</ele>
        <time>2019-04-27T12:53:20Z</time>
      </trkpt>
      <trkpt lat="44.14972" lon="5.42353">
        <ele>695.799</ele>
        <time>2019-04-27T12:53:31Z</time>
      </trkpt>
      <trkpt lat="44.14971" lon="5.42354">
        <ele>695.798</ele>
        <time>2019-04-27T12:53:42Z</time>
      </trkpt>
      <trkpt lat="44.14971" lon="5.42354">
        <ele>695.679</ele>
        <time>2019-04-27T12:53:52Z</time>
      </trkpt>
      <trkpt lat="44.14971" lon="5.42354">
        <ele>695.553</ele>
        <time>2019-04-27T12:54:03Z</time>
      </trkpt>
      <trkpt lat="44.14971" lon="5.42355">
        <ele>695.512</ele>
        <time>2019-04-27T12:54:13Z</time>
      </trkpt>
      <trkpt lat="44.14971" lon="5.42355">
        <ele>695.527</ele>
        <time>2019-04-27T12:54:24Z</time>
      </trkpt>
      <trkpt lat="44.14971" lon="5.42357">
        <ele>695.641</ele>
        <time>2019-04-27T12:54:34Z</time>
      </trkpt>
      <trkpt lat="44.14972" lon="5.42357">
        <ele>695.746</ele>
        <time>2019-04-27T12:54:45Z</time>
      </trkpt>
      <trkpt lat="44.1497" lon="5.42358">
        <ele>696.057</ele>
        <time>2019-04-27T12:54:55Z</time>
      </trkpt>
      <trkpt lat="44.14951" lon="5.4234">
        <ele>696.875</ele>
        <time>2019-04-27T12:55:06Z</time>
      </trkpt>
      <trkpt lat="44.14931" lon="5.4232">
        <ele>697.423</ele>
        <time>2019-04-27T12:55:16Z</time>
      </trkpt>
      <trkpt lat="44.14913" lon="5.423">
        <ele>698.028</ele>
        <time>2019-04-27T12:55:26Z</time>
      </trkpt>
      <trkpt lat="44.14891" lon="5.42276">
        <ele>698.627</ele>
        <time>2019-04-27T12:55:37Z</time>
      </trkpt>
      <trkpt lat="44.14872" lon="5.42248">
        <ele>699.47</ele>
        <time>2019-04-27T12:55:48Z</time>
      </trkpt>
      <trkpt lat="44.14853" lon="5.42221">
        <ele>700.61</ele>
        <time>2019-04-27T12:55:59Z</time>
      </trkpt>
      <trkpt lat="44.14832" lon="5.42199">
        <ele>701.96</ele>
        <time>2019-04-27T12:56:09Z</time>
      </trkpt>
      <trkpt lat="44.14806" lon="5.42171">
        <ele>703.372</ele>
        <time>2019-04-27T12:56:20Z</time>
      </trkpt>
      <trkpt lat="44.1479" lon="5.42135">
        <ele>704.588</ele>
        <time>2019-04-27T12:56:31Z</time>
      </trkpt>
      <trkpt lat="44.14774" lon="5.42109">
        <ele>706.047</ele>
        <time>2019-04-27T12:56:42Z</time>
      </trkpt>
      <trkpt lat="44.1475" lon="5.42097">
        <ele>706.782</ele>
        <time>2019-04-27T12:56:52Z</time>
      </trkpt>
      <trkpt lat="44.14723" lon="5.42075">
        <ele>707.648</ele>
        <time>2019-04-27T12:57:03Z</time>
      </trkpt>
      <trkpt lat="44.14712" lon="5.42049">
        <ele>709.464</ele>
        <time>2019-04-27T12:57:13Z</time>
      </trkpt>
      <trkpt lat="44.1469" lon="5.42028">
        <ele>711.73</ele>
        <time>2019-04-27T12:57:24Z</time>
      </trkpt>
      <trkpt lat="44.14667" lon="5.42021">
        <ele>713.271</ele>
        <time>2019-04-27T12:57:34Z</time>
      </trkpt>
      <trkpt lat="44.14639" lon="5.42013">
        <ele>714.115</ele>
        <time>2019-04-27T12:57:45Z</time>
      </trkpt>
      <trkpt lat="44.14613" lon="5.42006">
        <ele>714.834</ele>
        <time>2019-04-27T12:57:55Z</time>
      </trkpt>
      <trkpt lat="44.1459" lon="5.42001">
        <ele>715.577</ele>
        <time>2019-04-27T12:58:06Z</time>
      </trkpt>
      <trkpt lat="44.14564" lon="5.42">
        <ele>716.631</ele>
        <time>2019-04-27T12:58:17Z</time>
      </trkpt>
      <trkpt lat="44.14538" lon="5.42009">
        <ele>717.995</ele>
        <time>2019-04-27T12:58:27Z</time>
      </trkpt>
      <trkpt lat="44.14511" lon="5.42023">
        <ele>719.687</ele>
        <time>2019-04-27T12:58:38Z</time>
      </trkpt>
      <trkpt lat="44.14491" lon="5.42044">
        <ele>720.786</ele>
        <time>2019-04-27T12:58:48Z</time>
      </trkpt>
      <trkpt lat="44.14465" lon="5.42057">
        <ele>721.433</ele>
        <time>2019-04-27T12:58:59Z</time>
      </trkpt>
      <trkpt lat="44.1444" lon="5.42057">
        <ele>721.992</ele>
        <time>2019-04-27T12:59:09Z</time>
      </trkpt>
      <trkpt lat="44.14415" lon="5.42052">
        <ele>722.784</ele>
        <time>2019-04-27T12:59:20Z</time>
      </trkpt>
      <trkpt lat="44.14394" lon="5.42048">
        <ele>723.36</ele>
        <time>2019-04-27T12:59:30Z</time>
      </trkpt>
      <trkpt lat="44.14372" lon="5.42041">
        <ele>723.657</ele>
        <time>2019-04-27T12:59:40Z</time>
      </trkpt>
      <trkpt lat="44.1435" lon="5.42027">
        <ele>723.851</ele>
        <time>2019-04-27T12:59:51Z</time>
      </trkpt>
      <trkpt lat="44.14328" lon="5.42014">
        <ele>724.331</ele>
        <time>2019-04-27T13:00:02Z</time>
      </trkpt>
      <trkpt lat="44.14309" lon="5.42005">
        <ele>724.913</ele>
        <time>2019-04-27T13:00:13Z</time>
      </trkpt>
      <trkpt lat="44.14289" lon="5.42001">
        <ele>725.411</ele>
        <time>2019-04-27T13:00:23Z</time>
      </trkpt>
      <trkpt lat="44.14267" lon="5.42008">
        <ele>726.977</ele>
        <time>2019-04-27T13:00:34Z</time>
      </trkpt>
      <trkpt lat="44.1424" lon="5.42018">
        <ele>728.168</ele>
        <time>2019-04-27T13:00:45Z</time>
      </trkpt>
      <trkpt lat="44.1422" lon="5.4202">
        <ele>728.953</ele>
        <time>2019-04-27T13:00:55Z</time>
      </trkpt>
      <trkpt lat="44.14198" lon="5.42013">
        <ele>729.843</ele>
        <time>2019-04-27T13:01:06Z</time>
      </trkpt>
      <trkpt lat="44.14179" lon="5.42">
        <ele>730.727</ele>
        <time>2019-04-27T13:01:16Z</time>
      </trkpt>
      <trkpt lat="44.14164" lon="5.41977">
        <ele>732.112</ele>
        <time>2019-04-27T13:01:27Z</time>
      </trkpt>
      <trkpt lat="44.14152" lon="5.41962">
        <ele>733.801</ele>
        <time>2019-04-27T13:01:37Z</time>
      </trkpt>
      <trkpt lat="44.1413" lon="5.41942">
        <ele>735.013</ele>
        <time>2019-04-27T13:01:48Z</time>
      </trkpt>
      <trkpt lat="44.14113" lon="5.4192">
        <ele>735.923</ele>
        <time>2019-04-27T13:01:58Z</time>
      </trkpt>
      <trkpt lat="44.141" lon="5.41893">
        <ele>737.406</ele>
        <time>2019-04-27T13:02:08Z</time>
      </trkpt>
      <trkpt lat="44.1408" lon="5.41874">
        <ele>739.129</ele>
        <time>2019-04-27T13:02:19Z</time>
      </trkpt>
      <trkpt lat="44.14057" lon="5.41864">
        <ele>741.239</ele>
        <time>2019-04-27T13:02:30Z</time>
      </trkpt>
      <trkpt lat="44.14038" lon="5.41871">
        <ele>743.254</ele>
        <time>2019-04-27T13:02:41Z</time>
      </trkpt>
      <trkpt lat="44.14011" lon="5.41879">
        <ele>744.101</ele>
        <time>2019-04-27T13:02:52Z</time>
      </trkpt>
      <trkpt lat="44.13982" lon="5.41883">
        <ele>745.126</ele>
        <time>2019-04-27T13:03:02Z</time>
      </trkpt>
      <trkpt lat="44.13961" lon="5.41876">
        <ele>746.014</ele>
        <time>2019-04-27T13:03:13Z</time>
      </trkpt>
      <trkpt lat="44.13944" lon="5.41863">
        <ele>746.733</ele>
        <time>2019-04-27T13:03:24Z</time>
      </trkpt>
      <trkpt lat="44.13928" lon="5.41848">
        <ele>747.46</ele>
        <time>2019-04-27T13:03:34Z</time>
      </trkpt>
      <trkpt lat="44.13912" lon="5.41837">
        <ele>748.662</ele>
        <time>2019-04-27T13:03:44Z</time>
      </trkpt>
      <trkpt lat="44.13891" lon="5.41837">
        <ele>749.707</ele>
        <time>2019-04-27T13:03:55Z</time>
      </trkpt>
      <trkpt lat="44.13871" lon="5.41854">
        <ele>750.759</ele>
        <time>2019-04-27T13:04:06Z</time>
      </trkpt>
      <trkpt lat="44.13858" lon="5.41875">
        <ele>751.77</ele>
        <time>2019-04-27T13:04:16Z</time>
      </trkpt>
      <trkpt lat="44.13853" lon="5.41902">
        <ele>752.758</ele>
        <time>2019-04-27T13:04:27Z</time>
      </trkpt>
      <trkpt lat="44.13851" lon="5.41932">
        <ele>753.649</ele>
        <time>2019-04-27T13:04:37Z</time>
      </trkpt>
      <trkpt lat="44.13848" lon="5.41961">
        <ele>754.622</ele>
        <time>2019-04-27T13:04:47Z</time>
      </trkpt>
      <trkpt lat="44.13837" lon="5.41983">
        <ele>755.732</ele>
        <time>2019-04-27T13:04:58Z</time>
      </trkpt>
      <trkpt lat="44.13821" lon="5.41993">
        <ele>757.02</ele>
        <time>2019-04-27T13:05:09Z</time>
      </trkpt>
      <trkpt lat="44.13798" lon="5.41989">
        <ele>758.477</ele>
        <time>2019-04-27T13:05:20Z</time>
      </trkpt>
      <trkpt lat="44.13779" lon="5.41985">
        <ele>760.277</ele>
        <time>2019-04-27T13:05:31Z</time>
      </trkpt>
      <trkpt lat="44.13761" lon="5.41984">
        <ele>761.921</ele>
        <time>2019-04-27T13:05:42Z</time>
      </trkpt>
      <trkpt lat="44.13742" lon="5.41989">
        <ele>763.198</ele>
        <time>2019-04-27T13:05:52Z</time>
      </trkpt>
      <trkpt lat="44.13722" lon="5.41999">
        <ele>764.392</ele>
        <time>2019-04-27T13:06:03Z</time>
      </trkpt>
      <trkpt lat="44.13706" lon="5.42001">
        <ele>765.402</ele>
        <time>2019-04-27T13:06:13Z</time>
      </trkpt>
      <trkpt lat="44.13682" lon="5.42005">
        <ele>767.67</ele>
        <time>2019-04-27T13:06:24Z</time>
      </trkpt>
      <trkpt lat="44.13658" lon="5.42013">
        <ele>769.904</ele>
        <time>2019-04-27T13:06:35Z</time>
      </trkpt>
      <trkpt lat="44.13633" lon="5.42017">
        <ele>770.826</ele>
        <time>2019-04-27T13:06:45Z</time>
      </trkpt>
      <trkpt lat="44.13605" lon="5.42015">
        <ele>771.847</ele>
        <time>2019-04-27T13:06:56Z</time>
      </trkpt>
      <trkpt lat="44.13581" lon="5.42018">
        <ele>773.465</ele>
        <time>2019-04-27T13:07:07Z</time>
      </trkpt>
      <trkpt lat="44.13558" lon="5.4202">
        <ele>774.733</ele>
        <time>2019-04-27T13:07:17Z</time>
      </trkpt>
      <trkpt lat="44.13535" lon="5.4202">
        <ele>776.442</ele>
        <time>2019-04-27T13:07:27Z</time>
      </trkpt>
      <trkpt lat="44.13513" lon="5.42021">
        <ele>778.362</ele>
        <time>2019-04-27T13:07:38Z</time>
      </trkpt>
      <trkpt lat="44.13487" lon="5.4202">
        <ele>779.617</ele>
        <time>2019-04-27T13:07:49Z</time>
      </trkpt>
      <trkpt lat="44.13463" lon="5.42021">
        <ele>780.334</ele>
        <time>2019-04-27T13:08:00Z</time>
      </trkpt>
      <trkpt lat="44.13442" lon="5.4202">
        <ele>781.522</ele>
        <time>2019-04-27T13:08:10Z</time>
      </trkpt>
      <trkpt lat="44.1342" lon="5.42023">
        <ele>781.849</ele>
        <time>2019-04-27T13:08:21Z</time>
      </trkpt>
      <trkpt lat="44.13392" lon="5.42021">
        <ele>782.23</ele>
        <time>2019-04-27T13:08:31Z</time>
      </trkpt>
      <trkpt lat="44.13369" lon="5.42015">
        <ele>783.052</ele>
        <time>2019-04-27T13:08:42Z</time>
      </trkpt>
      <trkpt lat="44.13349" lon="5.42013">
        <ele>783.918</ele>
        <time>2019-04-27T13:08:52Z</time>
      </trkpt>
      <trkpt lat="44.13328" lon="5.42023">
        <ele>784.878</ele>
        <time>2019-04-27T13:09:03Z</time>
      </trkpt>
      <trkpt lat="44.13311" lon="5.42044">
        <ele>785.757</ele>
        <time>2019-04-27T13:09:14Z</time>
      </trkpt>
      <trkpt lat="44.13299" lon="5.42068">
        <ele>786.544</ele>
        <time>2019-04-27T13:09:24Z</time>
      </trkpt>
      <trkpt lat="44.13291" lon="5.42097">
        <ele>787.642</ele>
        <time>2019-04-27T13:09:35Z</time>
      </trkpt>
      <trkpt lat="44.13288" lon="5.42127">
        <ele>788.536</ele>
        <time>2019-04-27T13:09:45Z</time>
      </trkpt>
      <trkpt lat="44.13284" lon="5.42158">
        <ele>789.761</ele>
        <time>2019-04-27T13:09:55Z</time>
      </trkpt>
      <trkpt lat="44.13277" lon="5.42195">
        <ele>791.11</ele>
        <time>2019-04-27T13:10:06Z</time>
      </trkpt>
      <trkpt lat="44.13271" lon="5.42227">
        <ele>792.318</ele>
        <time>2019-04-27T13:10:16Z</time>
      </trkpt>
      <trkpt lat="44.13266" lon="5.42257">
        <ele>793.488</ele>
        <time>2019-04-27T13:10:27Z</time>
      </trkpt>
      <trkpt lat="44.13262" lon="5.42284">
        <ele>794.658</ele>
        <time>2019-04-27T13:10:38Z</time>
      </trkpt>
      <trkpt lat="44.13247" lon="5.42313">
        <ele>795.834</ele>
        <time>2019-04-27T13:10:49Z</time>
      </trkpt>
      <trkpt lat="44.13232" lon="5.42339">
        <ele>796.993</ele>
        <time>2019-04-27T13:11:00Z</time>
      </trkpt>
      <trkpt lat="44.1322" lon="5.42362">
        <ele>797.791</ele>
        <time>2019-04-27T13:11:11Z</time>
      </trkpt>
      <trkpt lat="44.13203" lon="5.42386">
        <ele>798.522</ele>
        <time>2019-04-27T13:11:21Z</time>
      </trkpt>
      <trkpt lat="44.13192" lon="5.42404">
        <ele>799.285</ele>
        <time>2019-04-27T13:11:31Z</time>
      </trkpt>
      <trkpt lat="44.13181" lon="5.42429">
        <ele>800.107</ele>
        <time>2019-04-27T13:11:42Z</time>
      </trkpt>
      <trkpt lat="44.13178" lon="5.42455">
        <ele>801.159</ele>
        <time>2019-04-27T13:11:52Z</time>
      </trkpt>
      <trkpt lat="44.13192" lon="5.42477">
        <ele>802.246</ele>
        <time>2019-04-27T13:12:02Z</time>
      </trkpt>
      <trkpt lat="44.13218" lon="5.4248">
        <ele>803.294</ele>
        <time>2019-04-27T13:12:13Z</time>
      </trkpt>
      <trkpt lat="44.13247" lon="5.42474">
        <ele>804.737</ele>
        <time>2019-04-27T13:12:23Z</time>
      </trkpt>
      <trkpt lat="44.13277" lon="5.42472">
        <ele>806.373</ele>
        <time>2019-04-27T13:12:34Z</time>
      </trkpt>
      <trkpt lat="44.13299" lon="5.42489">
        <ele>807.334</ele>
        <time>2019-04-27T13:12:44Z</time>
      </trkpt>
      <trkpt lat="44.13305" lon="5.42529">
        <ele>808.372</ele>
        <time>2019-04-27T13:12:55Z</time>
      </trkpt>
      <trkpt lat="44.13293" lon="5.42561">
        <ele>809.216</ele>
        <time>2019-04-27T13:13:05Z</time>
      </trkpt>
      <trkpt lat="44.13267" lon="5.42583">
        <ele>810.26</ele>
        <time>2019-04-27T13:13:16Z</time>
      </trkpt>
      <trkpt lat="44.13255" lon="5.42608">
        <ele>811.215</ele>
        <time>2019-04-27T13:13:27Z</time>
      </trkpt>
      <trkpt lat="44.13255" lon="5.42608">
        <ele>812.048</ele>
        <time>2019-04-27T13:13:39Z</time>
      </trkpt>
      <trkpt lat="44.1326" lon="5.4261">
        <ele>813.821</ele>
        <time>2019-04-27T13:13:50Z</time>
      </trkpt>
      <trkpt lat="44.13257" lon="5.42609">
        <ele>813.87</ele>
        <time>2019-04-27T13:14:00Z</time>
      </trkpt>
      <trkpt lat="44.13257" lon="5.42608">
        <ele>813.976</ele>
        <time>2019-04-27T13:14:11Z</time>
      </trkpt>
      <trkpt lat="44.13257" lon="5.42608">
        <ele>814.011</ele>
        <time>2019-04-27T13:14:21Z</time>
      </trkpt>
      <trkpt lat="44.13257" lon="5.42609">
        <ele>814.024</ele>
        <time>2019-04-27T13:14:31Z</time>
      </trkpt>
      <trkpt lat="44.13256" lon="5.42609">
        <ele>814.048</ele>
        <time>2019-04-27T13:14:42Z</time>
      </trkpt>
      <trkpt lat="44.13256" lon="5.4261">
        <ele>814.059</ele>
        <time>2019-04-27T13:14:52Z</time>
      </trkpt>
      <trkpt lat="44.13256" lon="5.4261">
        <ele>814.103</ele>
        <time>2019-04-27T13:15:02Z</time>
      </trkpt>
      <trkpt lat="44.13255" lon="5.42619">
        <ele>814.307</ele>
        <time>2019-04-27T13:15:12Z</time>
      </trkpt>
      <trkpt lat="44.13253" lon="5.42655">
        <ele>814.789</ele>
        <time>2019-04-27T13:15:23Z</time>
      </trkpt>
      <trkpt lat="44.13249" lon="5.42695">
        <ele>815.174</ele>
        <time>2019-04-27T13:15:34Z</time>
      </trkpt>
      <trkpt lat="44.13234" lon="5.42731">
        <ele>815.548</ele>
        <time>2019-04-27T13:15:45Z</time>
      </trkpt>
      <trkpt lat="44.13214" lon="5.42751">
        <ele>815.971</ele>
        <time>2019-04-27T13:15:55Z</time>
      </trkpt>
      <trkpt lat="44.13188" lon="5.42757">
        <ele>816.679</ele>
        <time>2019-04-27T13:16:05Z</time>
      </trkpt>
      <trkpt lat="44.1316" lon="5.42752">
        <ele>817.559</ele>
        <time>2019-04-27T13:16:16Z</time>
      </trkpt>
      <trkpt lat="44.13134" lon="5.42745">
        <ele>818.053</ele>
        <time>2019-04-27T13:16:27Z</time>
      </trkpt>
      <trkpt lat="44.13107" lon="5.42738">
        <ele>818.579</ele>
        <time>2019-04-27T13:16:37Z</time>
      </trkpt>
      <trkpt lat="44.13079" lon="5.42731">
        <ele>819.449</ele>
        <time>2019-04-27T13:16:48Z</time>
      </trkpt>
      <trkpt lat="44.13057" lon="5.42717">
        <ele>820.033</ele>
        <time>2019-04-27T13:16:58Z</time>
      </trkpt>
      <trkpt lat="44.13032" lon="5.42698">
        <ele>820.623</ele>
        <time>2019-04-27T13:17:09Z</time>
      </trkpt>
      <trkpt lat="44.13008" lon="5.42679">
        <ele>821.615</ele>
        <time>2019-04-27T13:17:19Z</time>
      </trkpt>
      <trkpt lat="44.12981" lon="5.4266">
        <ele>822.789</ele>
        <time>2019-04-27T13:17:30Z</time>
      </trkpt>
      <trkpt lat="44.12957" lon="5.42654">
        <ele>823.873</ele>
        <time>2019-04-27T13:17:40Z</time>
      </trkpt>
      <trkpt lat="44.12933" lon="5.42663">
        <ele>824.944</ele>
        <time>2019-04-27T13:17:50Z</time>
      </trkpt>
      <trkpt lat="44.12914" lon="5.4269">
        <ele>825.982</ele>
        <time>2019-04-27T13:18:00Z</time>
      </trkpt>
      <trkpt lat="44.12923" lon="5.42735">
        <ele>827.019</ele>
        <time>2019-04-27T13:18:11Z</time>
      </trkpt>
      <trkpt lat="44.12934" lon="5.4279">
        <ele>830.232</ele>
        <time>2019-04-27T13:18:21Z</time>
      </trkpt>
      <trkpt lat="44.12902" lon="5.42791">
        <ele>833.124</ele>
        <time>2019-04-27T13:18:31Z</time>
      </trkpt>
      <trkpt lat="44.12884" lon="5.42779">
        <ele>832.441</ele>
        <time>2019-04-27T13:18:42Z</time>
      </trkpt>
      <trkpt lat="44.12883" lon="5.42772">
        <ele>830.738</ele>
        <time>2019-04-27T13:18:53Z</time>
      </trkpt>
      <trkpt lat="44.1288" lon="5.42777">
        <ele>830.554</ele>
        <time>2019-04-27T13:19:03Z</time>
      </trkpt>
      <trkpt lat="44.12881" lon="5.42775">
        <ele>831.033</ele>
        <time>2019-04-27T13:19:14Z</time>
      </trkpt>
      <trkpt lat="44.12882" lon="5.42772">
        <ele>831.032</ele>
        <time>2019-04-27T13:19:25Z</time>
      </trkpt>
      <trkpt lat="44.12881" lon="5.42774">
        <ele>832.242</ele>
        <time>2019-04-27T13:19:35Z</time>
      </trkpt>
      <trkpt lat="44.12883" lon="5.42774">
        <ele>833.902</ele>
        <time>2019-04-27T13:19:46Z</time>
      </trkpt>
      <trkpt lat="44.12881" lon="5.42771">
        <ele>834.557</ele>
        <time>2019-04-27T13:19:56Z</time>
      </trkpt>
      <trkpt lat="44.12847" lon="5.4274">
        <ele>832.056</ele>
        <time>2019-04-27T13:20:07Z</time>
      </trkpt>
      <trkpt lat="44.12811" lon="5.42717">
        <ele>827.676</ele>
        <time>2019-04-27T13:20:17Z</time>
      </trkpt>
      <trkpt lat="44.1275" lon="5.42699">
        <ele>822.895</ele>
        <time>2019-04-27T13:20:27Z</time>
      </trkpt>
      <trkpt lat="44.12696" lon="5.4268">
        <ele>820.682</ele>
        <time>2019-04-27T13:20:38Z</time>
      </trkpt>
      <trkpt lat="44.12691" lon="5.42674">
        <ele>819.812</ele>
        <time>2019-04-27T13:20:49Z</time>
      </trkpt>
      <trkpt lat="44.12692" lon="5.42676">
        <ele>819.176</ele>
        <time>2019-04-27T13:20:59Z</time>
      </trkpt>
      <trkpt lat="44.12692" lon="5.42676">
        <ele>819.018</ele>
        <time>2019-04-27T13:21:09Z</time>
      </trkpt>
      <trkpt lat="44.12692" lon="5.42675">
        <ele>818.858</ele>
        <time>2019-04-27T13:21:19Z</time>
      </trkpt>
      <trkpt lat="44.1269" lon="5.42674">
        <ele>818.766</ele>
        <time>2019-04-27T13:21:30Z</time>
      </trkpt>
      <trkpt lat="44.12678" lon="5.42665">
        <ele>819.349</ele>
        <time>2019-04-27T13:21:40Z</time>
      </trkpt>
      <trkpt lat="44.12628" lon="5.42648">
        <ele>826.029</ele>
        <time>2019-04-27T13:21:51Z</time>
      </trkpt>
      <trkpt lat="44.12568" lon="5.42628">
        <ele>827.723</ele>
        <time>2019-04-27T13:22:01Z</time>
      </trkpt>
      <trkpt lat="44.12511" lon="5.42565">
        <ele>828.844</ele>
        <time>2019-04-27T13:22:12Z</time>
      </trkpt>
      <trkpt lat="44.12459" lon="5.42508">
        <ele>829.924</ele>
        <time>2019-04-27T13:22:22Z</time>
      </trkpt>
      <trkpt lat="44.12396" lon="5.42438">
        <ele>828.767</ele>
        <time>2019-04-27T13:22:33Z</time>
      </trkpt>
      <trkpt lat="44.12352" lon="5.42357">
        <ele>824.191</ele>
        <time>2019-04-27T13:22:43Z</time>
      </trkpt>
      <trkpt lat="44.12307" lon="5.42292">
        <ele>821.157</ele>
        <time>2019-04-27T13:22:53Z</time>
      </trkpt>
      <trkpt lat="44.12245" lon="5.42301">
        <ele>818.424</ele>
        <time>2019-04-27T13:23:04Z</time>
      </trkpt>
      <trkpt lat="44.12188" lon="5.42318">
        <ele>817.369</ele>
        <time>2019-04-27T13:23:14Z</time>
      </trkpt>
      <trkpt lat="44.12141" lon="5.42328">
        <ele>816.461</ele>
        <time>2019-04-27T13:23:24Z</time>
      </trkpt>
      <trkpt lat="44.12087" lon="5.42336">
        <ele>814.538</ele>
        <time>2019-04-27T13:23:34Z</time>
      </trkpt>
      <trkpt lat="44.12024" lon="5.4231">
        <ele>814.588</ele>
        <time>2019-04-27T13:23:45Z</time>
      </trkpt>
      <trkpt lat="44.11968" lon="5.42291">
        <ele>813.319</ele>
        <time>2019-04-27T13:23:56Z</time>
      </trkpt>
      <trkpt lat="44.11921" lon="5.42238">
        <ele>815.806</ele>
        <time>2019-04-27T13:24:07Z</time>
      </trkpt>
      <trkpt lat="44.11872" lon="5.42196">
        <ele>817.215</ele>
        <time>2019-04-27T13:24:18Z</time>
      </trkpt>
      <trkpt lat="44.11823" lon="5.42155">
        <ele>816.434</ele>
        <time>2019-04-27T13:24:29Z</time>
      </trkpt>
      <trkpt lat="44.11771" lon="5.42116">
        <ele>816.236</ele>
        <time>2019-04-27T13:24:40Z</time>
      </trkpt>
      <trkpt lat="44.11719" lon="5.42073">
        <ele>815.418</ele>
        <time>2019-04-27T13:24:51Z</time>
      </trkpt>
      <trkpt lat="44.11681" lon="5.42018">
        <ele>815.466</ele>
        <time>2019-04-27T13:25:02Z</time>
      </trkpt>
      <trkpt lat="44.11641" lon="5.41978">
        <ele>814.722</ele>
        <time>2019-04-27T13:25:12Z</time>
      </trkpt>
      <trkpt lat="44.11601" lon="5.41919">
        <ele>816.683</ele>
        <time>2019-04-27T13:25:23Z</time>
      </trkpt>
      <trkpt lat="44.11565" lon="5.4186">
        <ele>817.337</ele>
        <time>2019-04-27T13:25:33Z</time>
      </trkpt>
      <trkpt lat="44.11514" lon="5.41807">
        <ele>817.287</ele>
        <time>2019-04-27T13:25:44Z</time>
      </trkpt>
      <trkpt lat="44.11465" lon="5.41756">
        <ele>816.167</ele>
        <time>2019-04-27T13:25:55Z</time>
      </trkpt>
      <trkpt lat="44.11415" lon="5.41709">
        <ele>814.595</ele>
        <time>2019-04-27T13:26:06Z</time>
      </trkpt>
      <trkpt lat="44.11363" lon="5.41665">
        <ele>813.715</ele>
        <time>2019-04-27T13:26:17Z</time>
      </trkpt>
      <trkpt lat="44.11309" lon="5.4163">
        <ele>813.451</ele>
        <time>2019-04-27T13:26:28Z</time>
      </trkpt>
      <trkpt lat="44.11254" lon="5.41597">
        <ele>813.261</ele>
        <time>2019-04-27T13:26:39Z</time>
      </trkpt>
      <trkpt lat="44.11204" lon="5.4157">
        <ele>812.643</ele>
        <time>2019-04-27T13:26:49Z</time>
      </trkpt>
      <trkpt lat="44.11147" lon="5.41546">
        <ele>811.377</ele>
        <time>2019-04-27T13:27:00Z</time>
      </trkpt>
      <trkpt lat="44.11084" lon="5.41526">
        <ele>810.724</ele>
        <time>2019-04-27T13:27:11Z</time>
      </trkpt>
      <trkpt lat="44.11018" lon="5.41512">
        <ele>810.332</ele>
        <time>2019-04-27T13:27:22Z</time>
      </trkpt>
      <trkpt lat="44.10957" lon="5.41482">
        <ele>810.026</ele>
        <time>2019-04-27T13:27:33Z</time>
      </trkpt>
      <trkpt lat="44.10901" lon="5.41461">
        <ele>809.116</ele>
        <time>2019-04-27T13:27:43Z</time>
      </trkpt>
      <trkpt lat="44.10844" lon="5.41452">
        <ele>807.678</ele>
        <time>2019-04-27T13:27:54Z</time>
      </trkpt>
      <trkpt lat="44.10787" lon="5.41444">
        <ele>806.14</ele>
        <time>2019-04-27T13:28:05Z</time>
      </trkpt>
      <trkpt lat="44.10737" lon="5.41415">
        <ele>807.953</ele>
        <time>2019-04-27T13:28:15Z</time>
      </trkpt>
      <trkpt lat="44.10692" lon="5.41378">
        <ele>810.168</ele>
        <time>2019-04-27T13:28:26Z</time>
      </trkpt>
      <trkpt lat="44.10641" lon="5.41346">
        <ele>810.903</ele>
        <time>2019-04-27T13:28:37Z</time>
      </trkpt>
      <trkpt lat="44.10593" lon="5.41324">
        <ele>809.495</ele>
        <time>2019-04-27T13:28:47Z</time>
      </trkpt>
      <trkpt lat="44.1054" lon="5.41295">
        <ele>808.75</ele>
        <time>2019-04-27T13:28:58Z</time>
      </trkpt>
      <trkpt lat="44.10486" lon="5.41279">
        <ele>808.181</ele>
        <time>2019-04-27T13:29:09Z</time>
      </trkpt>
      <trkpt lat="44.10439" lon="5.41268">
        <ele>806.814</ele>
        <time>2019-04-27T13:29:19Z</time>
      </trkpt>
      <trkpt lat="44.10389" lon="5.41246">
        <ele>806.868</ele>
        <time>2019-04-27T13:29:29Z</time>
      </trkpt>
      <trkpt lat="44.10335" lon="5.41231">
        <ele>807.779</ele>
        <time>2019-04-27T13:29:40Z</time>
      </trkpt>
      <trkpt lat="44.1028" lon="5.41214">
        <ele>806.839</ele>
        <time>2019-04-27T13:29:51Z</time>
      </trkpt>
      <trkpt lat="44.10227" lon="5.41193">
        <ele>806.537</ele>
        <time>2019-04-27T13:30:01Z</time>
      </trkpt>
      <trkpt lat="44.10168" lon="5.41159">
        <ele>806.256</ele>
        <time>2019-04-27T13:30:12Z</time>
      </trkpt>
      <trkpt lat="44.1011" lon="5.41122">
        <ele>808.255</ele>
        <time>2019-04-27T13:30:23Z</time>
      </trkpt>
      <trkpt lat="44.10055" lon="5.41084">
        <ele>809.926</ele>
        <time>2019-04-27T13:30:34Z</time>
      </trkpt>
      <trkpt lat="44.10003" lon="5.41063">
        <ele>809.822</ele>
        <time>2019-04-27T13:30:44Z</time>
      </trkpt>
      <trkpt lat="44.09954" lon="5.41034">
        <ele>809.279</ele>
        <time>2019-04-27T13:30:54Z</time>
      </trkpt>
      <trkpt lat="44.09897" lon="5.41006">
        <ele>807.936</ele>
        <time>2019-04-27T13:31:05Z</time>
      </trkpt>
      <trkpt lat="44.09841" lon="5.40974">
        <ele>807.641</ele>
        <time>2019-04-27T13:31:16Z</time>
      </trkpt>
      <trkpt lat="44.09785" lon="5.40935">
        <ele>807.776</ele>
        <time>2019-04-27T13:31:27Z</time>
      </trkpt>
      <trkpt lat="44.09725" lon="5.40904">
        <ele>808.277</ele>
        <time>2019-04-27T13:31:38Z</time>
      </trkpt>
      <trkpt lat="44.09673" lon="5.40872">
        <ele>807.81</ele>
        <time>2019-04-27T13:31:48Z</time>
      </trkpt>
      <trkpt lat="44.09614" lon="5.40861">
        <ele>807.364</ele>
        <time>2019-04-27T13:31:59Z</time>
      </trkpt>
      <trkpt lat="44.09559" lon="5.40848">
        <ele>806.603</ele>
        <time>2019-04-27T13:32:09Z</time>
      </trkpt>
      <trkpt lat="44.09502" lon="5.40834">
        <ele>806.295</ele>
        <time>2019-04-27T13:32:20Z</time>
      </trkpt>
      <trkpt lat="44.09437" lon="5.40832">
        <ele>805.111</ele>
        <time>2019-04-27T13:32:31Z</time>
      </trkpt>
      <trkpt lat="44.09373" lon="5.40822">
        <ele>804.991</ele>
        <time>2019-04-27T13:32:42Z</time>
      </trkpt>
      <trkpt lat="44.09333" lon="5.40823">
        <ele>805.133</ele>
        <time>2019-04-27T13:32:52Z</time>
      </trkpt>
      <trkpt lat="44.09301" lon="5.40827">
        <ele>805.295</ele>
        <time>2019-04-27T13:33:03Z</time>
      </trkpt>
      <trkpt lat="44.09281" lon="5.4083">
        <ele>805.722</ele>
        <time>2019-04-27T13:33:14Z</time>
      </trkpt>
      <trkpt lat="44.09281" lon="5.4083">
        <ele>805.873</ele>
        <time>2019-04-27T13:33:25Z</time>
      </trkpt>
      <trkpt lat="44.09281" lon="5.4083">
        <ele>806.012</ele>
        <time>2019-04-27T13:33:36Z</time>
      </trkpt>
      <trkpt lat="44.09281" lon="5.4083">
        <ele>806.167</ele>
        <time>2019-04-27T13:33:46Z</time>
      </trkpt>
      <trkpt lat="44.09273" lon="5.40825">
        <ele>806.391</ele>
        <time>2019-04-27T13:33:57Z</time>
      </trkpt>
      <trkpt lat="44.09273" lon="5.40825">
        <ele>806.658</ele>
        <time>2019-04-27T13:34:08Z</time>
      </trkpt>
      <trkpt lat="44.09273" lon="5.40825">
        <ele>806.985</ele>
        <time>2019-04-27T13:34:19Z</time>
      </trkpt>
      <trkpt lat="44.09268" lon="5.40814">
        <ele>807.269</ele>
        <time>2019-04-27T13:34:29Z</time>
      </trkpt>
      <trkpt lat="44.09268" lon="5.40814">
        <ele>807.52</ele>
        <time>2019-04-27T13:34:40Z</time>
      </trkpt>
      <trkpt lat="44.09263" lon="5.40804">
        <ele>807.794</ele>
        <time>2019-04-27T13:34:51Z</time>
      </trkpt>
      <trkpt lat="44.09263" lon="5.40804">
        <ele>808.072</ele>
        <time>2019-04-27T13:35:01Z</time>
      </trkpt>
      <trkpt lat="44.09263" lon="5.40804">
        <ele>808.414</ele>
        <time>2019-04-27T13:35:12Z</time>
      </trkpt>
      <trkpt lat="44.09263" lon="5.40804">
        <ele>808.734</ele>
        <time>2019-04-27T13:35:22Z</time>
      </trkpt>
      <trkpt lat="44.09263" lon="5.40804">
        <ele>809.12</ele>
        <time>2019-04-27T13:35:33Z</time>
      </trkpt>
      <trkpt lat="44.09263" lon="5.40804">
        <ele>809.485</ele>
        <time>2019-04-27T13:35:43Z</time>
      </trkpt>
      <trkpt lat="44.09263" lon="5.40804">
        <ele>809.91</ele>
        <time>2019-04-27T13:35:54Z</time>
      </trkpt>
      <trkpt lat="44.09263" lon="5.40804">
        <ele>810.271</ele>
        <time>2019-04-27T13:36:05Z</time>
      </trkpt>
      <trkpt lat="44.09263" lon="5.40804">
        <ele>811.376</ele>
        <time>2019-04-27T13:36:16Z</time>
      </trkpt>
      <trkpt lat="44.09254" lon="5.40814">
        <ele>814.82</ele>
        <time>2019-04-27T13:36:27Z</time>
      </trkpt>
      <trkpt lat="44.09227" lon="5.40826">
        <ele>817.125</ele>
        <time>2019-04-27T13:36:38Z</time>
      </trkpt>
      <trkpt lat="44.09219" lon="5.4084">
        <ele>818.777</ele>
        <time>2019-04-27T13:36:49Z</time>
      </trkpt>
      <trkpt lat="44.09218" lon="5.4087">
        <ele>818.859</ele>
        <time>2019-04-27T13:37:00Z</time>
      </trkpt>
      <trkpt lat="44.09214" lon="5.40903">
        <ele>817.962</ele>
        <time>2019-04-27T13:37:11Z</time>
      </trkpt>
      <trkpt lat="44.092" lon="5.40922">
        <ele>817.548</ele>
        <time>2019-04-27T13:37:21Z</time>
      </trkpt>
      <trkpt lat="44.09185" lon="5.4093">
        <ele>818.798</ele>
        <time>2019-04-27T13:37:32Z</time>
      </trkpt>
      <trkpt lat="44.09199" lon="5.40966">
        <ele>819.895</ele>
        <time>2019-04-27T13:37:42Z</time>
      </trkpt>
      <trkpt lat="44.0922" lon="5.41001">
        <ele>820.372</ele>
        <time>2019-04-27T13:37:53Z</time>
      </trkpt>
      <trkpt lat="44.09239" lon="5.41033">
        <ele>820.891</ele>
        <time>2019-04-27T13:38:04Z</time>
      </trkpt>
      <trkpt lat="44.09253" lon="5.41061">
        <ele>821.195</ele>
        <time>2019-04-27T13:38:14Z</time>
      </trkpt>
      <trkpt lat="44.0927" lon="5.41086">
        <ele>820.994</ele>
        <time>2019-04-27T13:38:24Z</time>
      </trkpt>
      <trkpt lat="44.09284" lon="5.4111">
        <ele>821.07</ele>
        <time>2019-04-27T13:38:34Z</time>
      </trkpt>
      <trkpt lat="44.09296" lon="5.41137">
        <ele>822.243</ele>
        <time>2019-04-27T13:38:45Z</time>
      </trkpt>
      <trkpt lat="44.0931" lon="5.41161">
        <ele>823.123</ele>
        <time>2019-04-27T13:38:56Z</time>
      </trkpt>
      <trkpt lat="44.09325" lon="5.41184">
        <ele>823.833</ele>
        <time>2019-04-27T13:39:06Z</time>
      </trkpt>
      <trkpt lat="44.09342" lon="5.41196">
        <ele>824.936</ele>
        <time>2019-04-27T13:39:17Z</time>
      </trkpt>
      <trkpt lat="44.09363" lon="5.4119">
        <ele>825.349</ele>
        <time>2019-04-27T13:39:28Z</time>
      </trkpt>
      <trkpt lat="44.09377" lon="5.41171">
        <ele>825.676</ele>
        <time>2019-04-27T13:39:39Z</time>
      </trkpt>
      <trkpt lat="44.09388" lon="5.41146">
        <ele>826.088</ele>
        <time>2019-04-27T13:39:50Z</time>
      </trkpt>
      <trkpt lat="44.09401" lon="5.41122">
        <ele>826.73</ele>
        <time>2019-04-27T13:40:01Z</time>
      </trkpt>
      <trkpt lat="44.0941" lon="5.41096">
        <ele>827.197</ele>
        <time>2019-04-27T13:40:12Z</time>
      </trkpt>
      <trkpt lat="44.09417" lon="5.41073">
        <ele>828.152</ele>
        <time>2019-04-27T13:40:22Z</time>
      </trkpt>
      <trkpt lat="44.09434" lon="5.41052">
        <ele>829.564</ele>
        <time>2019-04-27T13:40:33Z</time>
      </trkpt>
      <trkpt lat="44.09454" lon="5.41047">
        <ele>830.503</ele>
        <time>2019-04-27T13:40:44Z</time>
      </trkpt>
      <trkpt lat="44.09474" lon="5.41049">
        <ele>831.13</ele>
        <time>2019-04-27T13:40:55Z</time>
      </trkpt>
      <trkpt lat="44.09498" lon="5.41058">
        <ele>831.943</ele>
        <time>2019-04-27T13:41:06Z</time>
      </trkpt>
      <trkpt lat="44.09513" lon="5.41075">
        <ele>832.947</ele>
        <time>2019-04-27T13:41:16Z</time>
      </trkpt>
      <trkpt lat="44.09523" lon="5.41101">
        <ele>833.962</ele>
        <time>2019-04-27T13:41:27Z</time>
      </trkpt>
      <trkpt lat="44.09529" lon="5.4113">
        <ele>835.569</ele>
        <time>2019-04-27T13:41:38Z</time>
      </trkpt>
      <trkpt lat="44.09535" lon="5.41168">
        <ele>836.911</ele>
        <time>2019-04-27T13:41:49Z</time>
      </trkpt>
      <trkpt lat="44.09551" lon="5.41207">
        <ele>837.662</ele>
        <time>2019-04-27T13:41:59Z</time>
      </trkpt>
      <trkpt lat="44.09577" lon="5.41253">
        <ele>838.05</ele>
        <time>2019-04-27T13:42:10Z</time>
      </trkpt>
      <trkpt lat="44.09602" lon="5.41289">
        <ele>839.281</ele>
        <time>2019-04-27T13:42:20Z</time>
      </trkpt>
      <trkpt lat="44.09623" lon="5.41336">
        <ele>840.754</ele>
        <time>2019-04-27T13:42:31Z</time>
      </trkpt>
      <trkpt lat="44.09654" lon="5.41334">
        <ele>841.612</ele>
        <time>2019-04-27T13:42:42Z</time>
      </trkpt>
      <trkpt lat="44.0969" lon="5.4134">
        <ele>842.888</ele>
        <time>2019-04-27T13:42:53Z</time>
      </trkpt>
      <trkpt lat="44.09709" lon="5.41353">
        <ele>843.51</ele>
        <time>2019-04-27T13:43:04Z</time>
      </trkpt>
      <trkpt lat="44.09712" lon="5.41348">
        <ele>843.828</ele>
        <time>2019-04-27T13:43:15Z</time>
      </trkpt>
      <trkpt lat="44.09712" lon="5.41348">
        <ele>843.883</ele>
        <time>2019-04-27T13:43:25Z</time>
      </trkpt>
      <trkpt lat="44.09712" lon="5.41348">
        <ele>843.965</ele>
        <time>2019-04-27T13:43:36Z</time>
      </trkpt>
      <trkpt lat="44.09712" lon="5.41347">
        <ele>844.036</ele>
        <time>2019-04-27T13:43:47Z</time>
      </trkpt>
      <trkpt lat="44.09711" lon="5.41344">
        <ele>844.086</ele>
        <time>2019-04-27T13:43:58Z</time>
      </trkpt>
      <trkpt lat="44.09711" lon="5.41344">
        <ele>844.148</ele>
        <time>2019-04-27T13:44:08Z</time>
      </trkpt>
      <trkpt lat="44.09711" lon="5.41344">
        <ele>844.222</ele>
        <time>2019-04-27T13:44:19Z</time>
      </trkpt>
      <trkpt lat="44.09712" lon="5.41344">
        <ele>844.296</ele>
        <time>2019-04-27T13:44:29Z</time>
      </trkpt>
      <trkpt lat="44.09712" lon="5.41344">
        <ele>844.382</ele>
        <time>2019-04-27T13:44:40Z</time>
      </trkpt>
      <trkpt lat="44.09712" lon="5.41344">
        <ele>844.452</ele>
        <time>2019-04-27T13:44:50Z</time>
      </trkpt>
      <trkpt lat="44.0971" lon="5.41348">
        <ele>844.752</ele>
        <time>2019-04-27T13:45:01Z</time>
      </trkpt>
      <trkpt lat="44.09693" lon="5.4134">
        <ele>844.942</ele>
        <time>2019-04-27T13:45:12Z</time>
      </trkpt>
      <trkpt lat="44.09662" lon="5.41318">
        <ele>844.921</ele>
        <time>2019-04-27T13:45:22Z</time>
      </trkpt>
      <trkpt lat="44.09623" lon="5.41326">
        <ele>843.372</ele>
        <time>2019-04-27T13:45:32Z</time>
      </trkpt>
      <trkpt lat="44.09632" lon="5.41362">
        <ele>843.286</ele>
        <time>2019-04-27T13:45:43Z</time>
      </trkpt>
      <trkpt lat="44.09662" lon="5.4139">
        <ele>843.343</ele>
        <time>2019-04-27T13:45:53Z</time>
      </trkpt>
      <trkpt lat="44.09693" lon="5.41434">
        <ele>843.481</ele>
        <time>2019-04-27T13:46:04Z</time>
      </trkpt>
      <trkpt lat="44.09724" lon="5.41479">
        <ele>843.877</ele>
        <time>2019-04-27T13:46:15Z</time>
      </trkpt>
      <trkpt lat="44.09757" lon="5.41526">
        <ele>843.947</ele>
        <time>2019-04-27T13:46:26Z</time>
      </trkpt>
      <trkpt lat="44.09793" lon="5.41578">
        <ele>842.476</ele>
        <time>2019-04-27T13:46:37Z</time>
      </trkpt>
      <trkpt lat="44.09824" lon="5.41623">
        <ele>842.191</ele>
        <time>2019-04-27T13:46:47Z</time>
      </trkpt>
      <trkpt lat="44.0986" lon="5.41671">
        <ele>846.456</ele>
        <time>2019-04-27T13:46:58Z</time>
      </trkpt>
      <trkpt lat="44.09893" lon="5.41724">
        <ele>847.146</ele>
        <time>2019-04-27T13:47:09Z</time>
      </trkpt>
      <trkpt lat="44.09937" lon="5.41785">
        <ele>845.914</ele>
        <time>2019-04-27T13:47:20Z</time>
      </trkpt>
      <trkpt lat="44.09981" lon="5.41849">
        <ele>844.621</ele>
        <time>2019-04-27T13:47:31Z</time>
      </trkpt>
      <trkpt lat="44.10021" lon="5.41908">
        <ele>843.253</ele>
        <time>2019-04-27T13:47:41Z</time>
      </trkpt>
      <trkpt lat="44.10067" lon="5.41976">
        <ele>841.712</ele>
        <time>2019-04-27T13:47:52Z</time>
      </trkpt>
      <trkpt lat="44.10107" lon="5.42036">
        <ele>841.409</ele>
        <time>2019-04-27T13:48:02Z</time>
      </trkpt>
      <trkpt lat="44.1013" lon="5.42093">
        <ele>841.986</ele>
        <time>2019-04-27T13:48:13Z</time>
      </trkpt>
      <trkpt lat="44.10145" lon="5.42146">
        <ele>842.352</ele>
        <time>2019-04-27T13:48:24Z</time>
      </trkpt>
      <trkpt lat="44.10154" lon="5.42181">
        <ele>842.818</ele>
        <time>2019-04-27T13:48:34Z</time>
      </trkpt>
      <trkpt lat="44.10159" lon="5.42221">
        <ele>843.887</ele>
        <time>2019-04-27T13:48:45Z</time>
      </trkpt>
      <trkpt lat="44.10175" lon="5.42259">
        <ele>845.063</ele>
        <time>2019-04-27T13:48:56Z</time>
      </trkpt>
      <trkpt lat="44.102" lon="5.42307">
        <ele>847.415</ele>
        <time>2019-04-27T13:49:07Z</time>
      </trkpt>
      <trkpt lat="44.10221" lon="5.42349">
        <ele>848.702</ele>
        <time>2019-04-27T13:49:17Z</time>
      </trkpt>
      <trkpt lat="44.10243" lon="5.42397">
        <ele>850.343</ele>
        <time>2019-04-27T13:49:28Z</time>
      </trkpt>
      <trkpt lat="44.10273" lon="5.42447">
        <ele>853.763</ele>
        <time>2019-04-27T13:49:39Z</time>
      </trkpt>
      <trkpt lat="44.1028" lon="5.42486">
        <ele>854.877</ele>
        <time>2019-04-27T13:49:50Z</time>
      </trkpt>
      <trkpt lat="44.10261" lon="5.4249">
        <ele>855.241</ele>
        <time>2019-04-27T13:50:01Z</time>
      </trkpt>
      <trkpt lat="44.10261" lon="5.4249">
        <ele>855.229</ele>
        <time>2019-04-27T13:50:11Z</time>
      </trkpt>
      <trkpt lat="44.10261" lon="5.4249">
        <ele>855.209</ele>
        <time>2019-04-27T13:50:22Z</time>
      </trkpt>
      <trkpt lat="44.10261" lon="5.4249">
        <ele>855.202</ele>
        <time>2019-04-27T13:50:32Z</time>
      </trkpt>
      <trkpt lat="44.10261" lon="5.4249">
        <ele>855.204</ele>
        <time>2019-04-27T13:50:43Z</time>
      </trkpt>
      <trkpt lat="44.10261" lon="5.4249">
        <ele>855.22</ele>
        <time>2019-04-27T13:50:53Z</time>
      </trkpt>
      <trkpt lat="44.10261" lon="5.4249">
        <ele>855.258</ele>
        <time>2019-04-27T13:51:04Z</time>
      </trkpt>
      <trkpt lat="44.10261" lon="5.4249">
        <ele>855.317</ele>
        <time>2019-04-27T13:51:15Z</time>
      </trkpt>
      <trkpt lat="44.10261" lon="5.4249">
        <ele>855.377</ele>
        <time>2019-04-27T13:51:25Z</time>
      </trkpt>
      <trkpt lat="44.10261" lon="5.4249">
        <ele>855.42</ele>
        <time>2019-04-27T13:51:36Z</time>
      </trkpt>
      <trkpt lat="44.10261" lon="5.4249">
        <ele>855.458</ele>
        <time>2019-04-27T13:51:47Z</time>
      </trkpt>
      <trkpt lat="44.10261" lon="5.4249">
        <ele>855.496</ele>
        <time>2019-04-27T13:51:57Z</time>
      </trkpt>
      <trkpt lat="44.10261" lon="5.4249">
        <ele>855.543</ele>
        <time>2019-04-27T13:52:08Z</time>
      </trkpt>
      <trkpt lat="44.10261" lon="5.4249">
        <ele>855.579</ele>
        <time>2019-04-27T13:52:18Z</time>
      </trkpt>
      <trkpt lat="44.10261" lon="5.4249">
        <ele>855.607</ele>
        <time>2019-04-27T13:52:29Z</time>
      </trkpt>
      <trkpt lat="44.10261" lon="5.4249">
        <ele>855.622</ele>
        <time>2019-04-27T13:52:40Z</time>
      </trkpt>
      <trkpt lat="44.10261" lon="5.4249">
        <ele>855.627</ele>
        <time>2019-04-27T13:52:51Z</time>
      </trkpt>
      <trkpt lat="44.10266" lon="5.42495">
        <ele>855.612</ele>
        <time>2019-04-27T13:53:02Z</time>
      </trkpt>
      <trkpt lat="44.10266" lon="5.42495">
        <ele>855.59</ele>
        <time>2019-04-27T13:53:12Z</time>
      </trkpt>
      <trkpt lat="44.10266" lon="5.42495">
        <ele>855.577</ele>
        <time>2019-04-27T13:53:23Z</time>
      </trkpt>
      <trkpt lat="44.10267" lon="5.42495">
        <ele>855.574</ele>
        <time>2019-04-27T13:53:33Z</time>
      </trkpt>
      <trkpt lat="44.10267" lon="5.42495">
        <ele>855.581</ele>
        <time>2019-04-27T13:53:44Z</time>
      </trkpt>
      <trkpt lat="44.10267" lon="5.42495">
        <ele>855.593</ele>
        <time>2019-04-27T13:53:54Z</time>
      </trkpt>
      <trkpt lat="44.10267" lon="5.42495">
        <ele>855.621</ele>
        <time>2019-04-27T13:54:05Z</time>
      </trkpt>
      <trkpt lat="44.10267" lon="5.42495">
        <ele>855.678</ele>
        <time>2019-04-27T13:54:16Z</time>
      </trkpt>
      <trkpt lat="44.10265" lon="5.42495">
        <ele>856.006</ele>
        <time>2019-04-27T13:54:26Z</time>
      </trkpt>
      <trkpt lat="44.10264" lon="5.42491">
        <ele>856.328</ele>
        <time>2019-04-27T13:54:37Z</time>
      </trkpt>
      <trkpt lat="44.10264" lon="5.42491">
        <ele>856.349</ele>
        <time>2019-04-27T13:54:48Z</time>
      </trkpt>
      <trkpt lat="44.10265" lon="5.42484">
        <ele>856.335</ele>
        <time>2019-04-27T13:54:59Z</time>
      </trkpt>
      <trkpt lat="44.10261" lon="5.42456">
        <ele>855.65</ele>
        <time>2019-04-27T13:55:10Z</time>
      </trkpt>
      <trkpt lat="44.10238" lon="5.4242">
        <ele>854.266</ele>
        <time>2019-04-27T13:55:21Z</time>
      </trkpt>
      <trkpt lat="44.102" lon="5.42395">
        <ele>847.899</ele>
        <time>2019-04-27T13:55:31Z</time>
      </trkpt>
      <trkpt lat="44.10169" lon="5.4237">
        <ele>846.112</ele>
        <time>2019-04-27T13:55:42Z</time>
      </trkpt>
      <trkpt lat="44.10152" lon="5.42357">
        <ele>844.45</ele>
        <time>2019-04-27T13:55:52Z</time>
      </trkpt>
      <trkpt lat="44.10132" lon="5.42363">
        <ele>843.105</ele>
        <time>2019-04-27T13:56:03Z</time>
      </trkpt>
      <trkpt lat="44.10126" lon="5.42365">
        <ele>843.006</ele>
        <time>2019-04-27T13:56:14Z</time>
      </trkpt>
      <trkpt lat="44.10125" lon="5.42366">
        <ele>842.738</ele>
        <time>2019-04-27T13:56:25Z</time>
      </trkpt>
      <trkpt lat="44.10114" lon="5.42361">
        <ele>841.894</ele>
        <time>2019-04-27T13:56:35Z</time>
      </trkpt>
      <trkpt lat="44.101" lon="5.42349">
        <ele>841.139</ele>
        <time>2019-04-27T13:56:45Z</time>
      </trkpt>
      <trkpt lat="44.10085" lon="5.42336">
        <ele>840.427</ele>
        <time>2019-04-27T13:56:56Z</time>
      </trkpt>
      <trkpt lat="44.10081" lon="5.42331">
        <ele>840.167</ele>
        <time>2019-04-27T13:57:07Z</time>
      </trkpt>
      <trkpt lat="44.1009" lon="5.42335">
        <ele>840.358</ele>
        <time>2019-04-27T13:57:17Z</time>
      </trkpt>
      <trkpt lat="44.10101" lon="5.42345">
        <ele>840.687</ele>
        <time>2019-04-27T13:57:27Z</time>
      </trkpt>
      <trkpt lat="44.10112" lon="5.42354">
        <ele>841.363</ele>
        <time>2019-04-27T13:57:37Z</time>
      </trkpt>
      <trkpt lat="44.10113" lon="5.42352">
        <ele>841.433</ele>
        <time>2019-04-27T13:57:48Z</time>
      </trkpt>
      <trkpt lat="44.10113" lon="5.42352">
        <ele>841.515</ele>
        <time>2019-04-27T13:57:58Z</time>
      </trkpt>
      <trkpt lat="44.10113" lon="5.42351">
        <ele>841.545</ele>
        <time>2019-04-27T13:58:08Z</time>
      </trkpt>
      <trkpt lat="44.10118" lon="5.42358">
        <ele>841.288</ele>
        <time>2019-04-27T13:58:19Z</time>
      </trkpt>
      <trkpt lat="44.10124" lon="5.42374">
        <ele>841.307</ele>
        <time>2019-04-27T13:58:30Z</time>
      </trkpt>
      <trkpt lat="44.10125" lon="5.42375">
        <ele>841.35</ele>
        <time>2019-04-27T13:58:41Z</time>
      </trkpt>
      <trkpt lat="44.10125" lon="5.42375">
        <ele>841.416</ele>
        <time>2019-04-27T13:58:51Z</time>
      </trkpt>
      <trkpt lat="44.10125" lon="5.42375">
        <ele>841.683</ele>
        <time>2019-04-27T13:59:01Z</time>
      </trkpt>
      <trkpt lat="44.10119" lon="5.42368">
        <ele>842.018</ele>
        <time>2019-04-27T13:59:12Z</time>
      </trkpt>
      <trkpt lat="44.10118" lon="5.42366">
        <ele>842.166</ele>
        <time>2019-04-27T13:59:23Z</time>
      </trkpt>
      <trkpt lat="44.10118" lon="5.42366">
        <ele>842.316</ele>
        <time>2019-04-27T13:59:34Z</time>
      </trkpt>
      <trkpt lat="44.10118" lon="5.42366">
        <ele>842.516</ele>
        <time>2019-04-27T13:59:44Z</time>
      </trkpt>
      <trkpt lat="44.10118" lon="5.42366">
        <ele>842.719</ele>
        <time>2019-04-27T13:59:55Z</time>
      </trkpt>
      <trkpt lat="44.10118" lon="5.42365">
        <ele>842.88</ele>
        <time>2019-04-27T14:00:05Z</time>
      </trkpt>
      <trkpt lat="44.10118" lon="5.42365">
        <ele>843.011</ele>
        <time>2019-04-27T14:00:16Z</time>
      </trkpt>
      <trkpt lat="44.10118" lon="5.42365">
        <ele>843.108</ele>
        <time>2019-04-27T14:00:26Z</time>
      </trkpt>
      <trkpt lat="44.10118" lon="5.42365">
        <ele>843.23</ele>
        <time>2019-04-27T14:00:37Z</time>
      </trkpt>
      <trkpt lat="44.10118" lon="5.42365">
        <ele>843.349</ele>
        <time>2019-04-27T14:00:47Z</time>
      </trkpt>
      <trkpt lat="44.10117" lon="5.42365">
        <ele>843.526</ele>
        <time>2019-04-27T14:00:58Z</time>
      </trkpt>
      <trkpt lat="44.10118" lon="5.42365">
        <ele>843.758</ele>
        <time>2019-04-27T14:01:08Z</time>
      </trkpt>
      <trkpt lat="44.10117" lon="5.42365">
        <ele>844.082</ele>
        <time>2019-04-27T14:01:19Z</time>
      </trkpt>
      <trkpt lat="44.10117" lon="5.42365">
        <ele>844.453</ele>
        <time>2019-04-27T14:01:30Z</time>
      </trkpt>
      <trkpt lat="44.10117" lon="5.42365">
        <ele>844.77</ele>
        <time>2019-04-27T14:01:40Z</time>
      </trkpt>
      <trkpt lat="44.10117" lon="5.42365">
        <ele>845.109</ele>
        <time>2019-04-27T14:01:51Z</time>
      </trkpt>
      <trkpt lat="44.10116" lon="5.42365">
        <ele>845.427</ele>
        <time>2019-04-27T14:02:01Z</time>
      </trkpt>
      <trkpt lat="44.10117" lon="5.42364">
        <ele>845.855</ele>
        <time>2019-04-27T14:02:12Z</time>
      </trkpt>
      <trkpt lat="44.10116" lon="5.42364">
        <ele>846.35</ele>
        <time>2019-04-27T14:02:23Z</time>
      </trkpt>
      <trkpt lat="44.10116" lon="5.42364">
        <ele>846.861</ele>
        <time>2019-04-27T14:02:33Z</time>
      </trkpt>
      <trkpt lat="44.10115" lon="5.42363">
        <ele>847.452</ele>
        <time>2019-04-27T14:02:44Z</time>
      </trkpt>
      <trkpt lat="44.10115" lon="5.42363">
        <ele>848.023</ele>
        <time>2019-04-27T14:02:55Z</time>
      </trkpt>
      <trkpt lat="44.10115" lon="5.42363">
        <ele>848.594</ele>
        <time>2019-04-27T14:03:06Z</time>
      </trkpt>
      <trkpt lat="44.10116" lon="5.42363">
        <ele>849.148</ele>
        <time>2019-04-27T14:03:17Z</time>
      </trkpt>
      <trkpt lat="44.10116" lon="5.42362">
        <ele>849.648</ele>
        <time>2019-04-27T14:03:28Z</time>
      </trkpt>
      <trkpt lat="44.10116" lon="5.42362">
        <ele>850.062</ele>
        <time>2019-04-27T14:03:39Z</time>
      </trkpt>
      <trkpt lat="44.10116" lon="5.42362">
        <ele>850.361</ele>
        <time>2019-04-27T14:03:49Z</time>
      </trkpt>
      <trkpt lat="44.10116" lon="5.42362">
        <ele>850.598</ele>
        <time>2019-04-27T14:03:59Z</time>
      </trkpt>
      <trkpt lat="44.10116" lon="5.42362">
        <ele>850.818</ele>
        <time>2019-04-27T14:04:10Z</time>
      </trkpt>
      <trkpt lat="44.10117" lon="5.42362">
        <ele>851.01</ele>
        <time>2019-04-27T14:04:20Z</time>
      </trkpt>
      <trkpt lat="44.10117" lon="5.42362">
        <ele>851.285</ele>
        <time>2019-04-27T14:04:31Z</time>
      </trkpt>
      <trkpt lat="44.10116" lon="5.42362">
        <ele>851.5</ele>
        <time>2019-04-27T14:04:42Z</time>
      </trkpt>
      <trkpt lat="44.10113" lon="5.4237">
        <ele>853.39</ele>
        <time>2019-04-27T14:04:53Z</time>
      </trkpt>
    </trkseg>
  </trk>
  <trk>
    <name><![CDATA[20190502221855-rGymn]]></name>
    <trkseg>
      <trkpt lat="44.08866" lon="5.411">
        <ele>735.582</ele>
        <time>2019-04-28T08:04:22Z</time>
      </trkpt>
      <trkpt lat="44.08859" lon="5.41113">
        <ele>786.733</ele>
        <time>2019-04-28T08:04:32Z</time>
      </trkpt>
      <trkpt lat="44.08856" lon="5.4111">
        <ele>787.103</ele>
        <time>2019-04-28T08:04:43Z</time>
      </trkpt>
      <trkpt lat="44.08852" lon="5.41111">
        <ele>788.753</ele>
        <time>2019-04-28T08:04:54Z</time>
      </trkpt>
      <trkpt lat="44.08855" lon="5.4111">
        <ele>789.27</ele>
        <time>2019-04-28T08:05:04Z</time>
      </trkpt>
      <trkpt lat="44.08858" lon="5.41111">
        <ele>789.396</ele>
        <time>2019-04-28T08:05:14Z</time>
      </trkpt>
      <trkpt lat="44.08859" lon="5.41111">
        <ele>789.435</ele>
        <time>2019-04-28T08:05:25Z</time>
      </trkpt>
      <trkpt lat="44.08873" lon="5.41111">
        <ele>790.088</ele>
        <time>2019-04-28T08:05:36Z</time>
      </trkpt>
      <trkpt lat="44.08914" lon="5.41086">
        <ele>786.673</ele>
        <time>2019-04-28T08:05:46Z</time>
      </trkpt>
      <trkpt lat="44.08959" lon="5.40977">
        <ele>783.042</ele>
        <time>2019-04-28T08:05:57Z</time>
      </trkpt>
      <trkpt lat="44.08981" lon="5.40893">
        <ele>778.684</ele>
        <time>2019-04-28T08:06:08Z</time>
      </trkpt>
      <trkpt lat="44.08982" lon="5.40797">
        <ele>775.533</ele>
        <time>2019-04-28T08:06:18Z</time>
      </trkpt>
      <trkpt lat="44.08989" lon="5.40684">
        <ele>772.889</ele>
        <time>2019-04-28T08:06:28Z</time>
      </trkpt>
      <trkpt lat="44.09059" lon="5.40602">
        <ele>770.027</ele>
        <time>2019-04-28T08:06:39Z</time>
      </trkpt>
      <trkpt lat="44.09093" lon="5.40473">
        <ele>766.635</ele>
        <time>2019-04-28T08:06:50Z</time>
      </trkpt>
      <trkpt lat="44.09137" lon="5.40369">
        <ele>763.763</ele>
        <time>2019-04-28T08:07:00Z</time>
      </trkpt>
      <trkpt lat="44.09182" lon="5.40268">
        <ele>759.71</ele>
        <time>2019-04-28T08:07:11Z</time>
      </trkpt>
      <trkpt lat="44.09221" lon="5.40178">
        <ele>756.575</ele>
        <time>2019-04-28T08:07:22Z</time>
      </trkpt>
      <trkpt lat="44.09253" lon="5.40103">
        <ele>754.304</ele>
        <time>2019-04-28T08:07:32Z</time>
      </trkpt>
      <trkpt lat="44.09287" lon="5.40021">
        <ele>751.424</ele>
        <time>2019-04-28T08:07:42Z</time>
      </trkpt>
      <trkpt lat="44.09332" lon="5.39946">
        <ele>747.805</ele>
        <time>2019-04-28T08:07:52Z</time>
      </trkpt>
      <trkpt lat="44.09365" lon="5.39881">
        <ele>743.869</ele>
        <time>2019-04-28T08:08:03Z</time>
      </trkpt>
      <trkpt lat="44.09378" lon="5.39815">
        <ele>741.895</ele>
        <time>2019-04-28T08:08:13Z</time>
      </trkpt>
      <trkpt lat="44.09381" lon="5.39756">
        <ele>742.163</ele>
        <time>2019-04-28T08:08:24Z</time>
      </trkpt>
      <trkpt lat="44.09385" lon="5.39704">
        <ele>741.714</ele>
        <time>2019-04-28T08:08:35Z</time>
      </trkpt>
      <trkpt lat="44.09389" lon="5.39651">
        <ele>740.558</ele>
        <time>2019-04-28T08:08:45Z</time>
      </trkpt>
      <trkpt lat="44.09382" lon="5.39564">
        <ele>737.368</ele>
        <time>2019-04-28T08:08:56Z</time>
      </trkpt>
      <trkpt lat="44.09382" lon="5.39477">
        <ele>735.08</ele>
        <time>2019-04-28T08:09:07Z</time>
      </trkpt>
      <trkpt lat="44.09377" lon="5.39394">
        <ele>734.38</ele>
        <time>2019-04-28T08:09:18Z</time>
      </trkpt>
      <trkpt lat="44.09375" lon="5.39305">
        <ele>734.355</ele>
        <time>2019-04-28T08:09:29Z</time>
      </trkpt>
      <trkpt lat="44.09369" lon="5.39224">
        <ele>734.203</ele>
        <time>2019-04-28T08:09:39Z</time>
      </trkpt>
      <trkpt lat="44.0936" lon="5.39136">
        <ele>734.683</ele>
        <time>2019-04-28T08:09:50Z</time>
      </trkpt>
      <trkpt lat="44.09353" lon="5.3906">
        <ele>735.03</ele>
        <time>2019-04-28T08:10:00Z</time>
      </trkpt>
      <trkpt lat="44.09348" lon="5.38986">
        <ele>733.347</ele>
        <time>2019-04-28T08:10:11Z</time>
      </trkpt>
      <trkpt lat="44.09343" lon="5.38904">
        <ele>733.448</ele>
        <time>2019-04-28T08:10:22Z</time>
      </trkpt>
      <trkpt lat="44.09338" lon="5.38829">
        <ele>734.204</ele>
        <time>2019-04-28T08:10:33Z</time>
      </trkpt>
      <trkpt lat="44.09331" lon="5.3876">
        <ele>734.922</ele>
        <time>2019-04-28T08:10:43Z</time>
      </trkpt>
      <trkpt lat="44.09324" lon="5.38681">
        <ele>734.61</ele>
        <time>2019-04-28T08:10:54Z</time>
      </trkpt>
      <trkpt lat="44.09314" lon="5.38604">
        <ele>734.312</ele>
        <time>2019-04-28T08:11:05Z</time>
      </trkpt>
      <trkpt lat="44.09275" lon="5.3855">
        <ele>732.575</ele>
        <time>2019-04-28T08:11:15Z</time>
      </trkpt>
      <trkpt lat="44.09225" lon="5.38458">
        <ele>729.632</ele>
        <time>2019-04-28T08:11:26Z</time>
      </trkpt>
      <trkpt lat="44.09179" lon="5.3837">
        <ele>728.326</ele>
        <time>2019-04-28T08:11:36Z</time>
      </trkpt>
      <trkpt lat="44.09135" lon="5.38293">
        <ele>727.326</ele>
        <time>2019-04-28T08:11:46Z</time>
      </trkpt>
      <trkpt lat="44.09077" lon="5.38227">
        <ele>726.122</ele>
        <time>2019-04-28T08:11:57Z</time>
      </trkpt>
      <trkpt lat="44.09021" lon="5.38166">
        <ele>725.264</ele>
        <time>2019-04-28T08:12:08Z</time>
      </trkpt>
      <trkpt lat="44.08968" lon="5.38107">
        <ele>724.698</ele>
        <time>2019-04-28T08:12:19Z</time>
      </trkpt>
      <trkpt lat="44.08909" lon="5.38062">
        <ele>723.859</ele>
        <time>2019-04-28T08:12:30Z</time>
      </trkpt>
      <trkpt lat="44.08843" lon="5.38031">
        <ele>723.725</ele>
        <time>2019-04-28T08:12:41Z</time>
      </trkpt>
      <trkpt lat="44.08781" lon="5.3799">
        <ele>723.352</ele>
        <time>2019-04-28T08:12:52Z</time>
      </trkpt>
      <trkpt lat="44.08719" lon="5.37947">
        <ele>722.786</ele>
        <time>2019-04-28T08:13:03Z</time>
      </trkpt>
      <trkpt lat="44.08656" lon="5.37902">
        <ele>722.151</ele>
        <time>2019-04-28T08:13:14Z</time>
      </trkpt>
      <trkpt lat="44.08597" lon="5.3785">
        <ele>721.523</ele>
        <time>2019-04-28T08:13:25Z</time>
      </trkpt>
      <trkpt lat="44.08547" lon="5.37789">
        <ele>720.944</ele>
        <time>2019-04-28T08:13:36Z</time>
      </trkpt>
      <trkpt lat="44.08492" lon="5.37751">
        <ele>720.838</ele>
        <time>2019-04-28T08:13:46Z</time>
      </trkpt>
      <trkpt lat="44.08429" lon="5.37713">
        <ele>720.904</ele>
        <time>2019-04-28T08:13:57Z</time>
      </trkpt>
      <trkpt lat="44.08369" lon="5.37657">
        <ele>720.602</ele>
        <time>2019-04-28T08:14:08Z</time>
      </trkpt>
      <trkpt lat="44.08308" lon="5.376">
        <ele>719.979</ele>
        <time>2019-04-28T08:14:18Z</time>
      </trkpt>
      <trkpt lat="44.08243" lon="5.37538">
        <ele>719.437</ele>
        <time>2019-04-28T08:14:28Z</time>
      </trkpt>
      <trkpt lat="44.08178" lon="5.37453">
        <ele>718.341</ele>
        <time>2019-04-28T08:14:39Z</time>
      </trkpt>
      <trkpt lat="44.0811" lon="5.3739">
        <ele>716.992</ele>
        <time>2019-04-28T08:14:49Z</time>
      </trkpt>
      <trkpt lat="44.08027" lon="5.37353">
        <ele>715.544</ele>
        <time>2019-04-28T08:15:00Z</time>
      </trkpt>
      <trkpt lat="44.07956" lon="5.37322">
        <ele>714.146</ele>
        <time>2019-04-28T08:15:10Z</time>
      </trkpt>
      <trkpt lat="44.07876" lon="5.37277">
        <ele>712.75</ele>
        <time>2019-04-28T08:15:21Z</time>
      </trkpt>
      <trkpt lat="44.07799" lon="5.37235">
        <ele>711.219</ele>
        <time>2019-04-28T08:15:31Z</time>
      </trkpt>
      <trkpt lat="44.07717" lon="5.37168">
        <ele>707.588</ele>
        <time>2019-04-28T08:15:42Z</time>
      </trkpt>
      <trkpt lat="44.07627" lon="5.37106">
        <ele>704.283</ele>
        <time>2019-04-28T08:15:53Z</time>
      </trkpt>
      <trkpt lat="44.0754" lon="5.3705">
        <ele>701.787</ele>
        <time>2019-04-28T08:16:03Z</time>
      </trkpt>
      <trkpt lat="44.07477" lon="5.36937">
        <ele>699.554</ele>
        <time>2019-04-28T08:16:14Z</time>
      </trkpt>
      <trkpt lat="44.07418" lon="5.36851">
        <ele>697.975</ele>
        <time>2019-04-28T08:16:24Z</time>
      </trkpt>
      <trkpt lat="44.07361" lon="5.36768">
        <ele>696.451</ele>
        <time>2019-04-28T08:16:34Z</time>
      </trkpt>
      <trkpt lat="44.07299" lon="5.36691">
        <ele>695.243</ele>
        <time>2019-04-28T08:16:45Z</time>
      </trkpt>
      <trkpt lat="44.07234" lon="5.36614">
        <ele>694.398</ele>
        <time>2019-04-28T08:16:56Z</time>
      </trkpt>
      <trkpt lat="44.07172" lon="5.36542">
        <ele>693.672</ele>
        <time>2019-04-28T08:17:06Z</time>
      </trkpt>
      <trkpt lat="44.0711" lon="5.36466">
        <ele>692.243</ele>
        <time>2019-04-28T08:17:17Z</time>
      </trkpt>
      <trkpt lat="44.07057" lon="5.36395">
        <ele>690.564</ele>
        <time>2019-04-28T08:17:27Z</time>
      </trkpt>
      <trkpt lat="44.06997" lon="5.36316">
        <ele>689.635</ele>
        <time>2019-04-28T08:17:38Z</time>
      </trkpt>
      <trkpt lat="44.06939" lon="5.36244">
        <ele>689.89</ele>
        <time>2019-04-28T08:17:49Z</time>
      </trkpt>
      <trkpt lat="44.06893" lon="5.36192">
        <ele>689.509</ele>
        <time>2019-04-28T08:18:00Z</time>
      </trkpt>
      <trkpt lat="44.06859" lon="5.36151">
        <ele>688.27</ele>
        <time>2019-04-28T08:18:10Z</time>
      </trkpt>
      <trkpt lat="44.06822" lon="5.36109">
        <ele>687.302</ele>
        <time>2019-04-28T08:18:21Z</time>
      </trkpt>
      <trkpt lat="44.06785" lon="5.36076">
        <ele>687.216</ele>
        <time>2019-04-28T08:18:31Z</time>
      </trkpt>
      <trkpt lat="44.06752" lon="5.36043">
        <ele>687.439</ele>
        <time>2019-04-28T08:18:42Z</time>
      </trkpt>
      <trkpt lat="44.06724" lon="5.36007">
        <ele>687.806</ele>
        <time>2019-04-28T08:18:52Z</time>
      </trkpt>
      <trkpt lat="44.067" lon="5.35974">
        <ele>688.126</ele>
        <time>2019-04-28T08:19:03Z</time>
      </trkpt>
      <trkpt lat="44.0668" lon="5.35937">
        <ele>688.438</ele>
        <time>2019-04-28T08:19:14Z</time>
      </trkpt>
      <trkpt lat="44.06648" lon="5.35896">
        <ele>688.477</ele>
        <time>2019-04-28T08:19:25Z</time>
      </trkpt>
      <trkpt lat="44.06624" lon="5.35862">
        <ele>689.432</ele>
        <time>2019-04-28T08:19:35Z</time>
      </trkpt>
      <trkpt lat="44.06601" lon="5.35829">
        <ele>691.422</ele>
        <time>2019-04-28T08:19:46Z</time>
      </trkpt>
      <trkpt lat="44.06572" lon="5.35805">
        <ele>693.644</ele>
        <time>2019-04-28T08:19:57Z</time>
      </trkpt>
      <trkpt lat="44.06549" lon="5.35779">
        <ele>695.7</ele>
        <time>2019-04-28T08:20:07Z</time>
      </trkpt>
      <trkpt lat="44.06525" lon="5.35755">
        <ele>697.27</ele>
        <time>2019-04-28T08:20:18Z</time>
      </trkpt>
      <trkpt lat="44.06518" lon="5.3575">
        <ele>697.96</ele>
        <time>2019-04-28T08:20:28Z</time>
      </trkpt>
      <trkpt lat="44.06514" lon="5.35747">
        <ele>698.079</ele>
        <time>2019-04-28T08:20:38Z</time>
      </trkpt>
      <trkpt lat="44.06514" lon="5.35747">
        <ele>698.3</ele>
        <time>2019-04-28T08:20:49Z</time>
      </trkpt>
      <trkpt lat="44.06514" lon="5.35747">
        <ele>698.408</ele>
        <time>2019-04-28T08:20:59Z</time>
      </trkpt>
      <trkpt lat="44.0651" lon="5.35745">
        <ele>698.553</ele>
        <time>2019-04-28T08:21:10Z</time>
      </trkpt>
      <trkpt lat="44.0651" lon="5.35745">
        <ele>698.714</ele>
        <time>2019-04-28T08:21:21Z</time>
      </trkpt>
      <trkpt lat="44.0651" lon="5.35745">
        <ele>698.886</ele>
        <time>2019-04-28T08:21:32Z</time>
      </trkpt>
      <trkpt lat="44.0651" lon="5.35745">
        <ele>699.068</ele>
        <time>2019-04-28T08:21:43Z</time>
      </trkpt>
      <trkpt lat="44.0651" lon="5.35745">
        <ele>699.259</ele>
        <time>2019-04-28T08:21:54Z</time>
      </trkpt>
      <trkpt lat="44.0651" lon="5.35745">
        <ele>699.765</ele>
        <time>2019-04-28T08:22:05Z</time>
      </trkpt>
      <trkpt lat="44.065" lon="5.35743">
        <ele>700.798</ele>
        <time>2019-04-28T08:22:16Z</time>
      </trkpt>
      <trkpt lat="44.06476" lon="5.35717">
        <ele>702.076</ele>
        <time>2019-04-28T08:22:27Z</time>
      </trkpt>
      <trkpt lat="44.06471" lon="5.35715">
        <ele>702.585</ele>
        <time>2019-04-28T08:22:37Z</time>
      </trkpt>
      <trkpt lat="44.06448" lon="5.357">
        <ele>704.217</ele>
        <time>2019-04-28T08:22:48Z</time>
      </trkpt>
      <trkpt lat="44.06411" lon="5.35688">
        <ele>706.114</ele>
        <time>2019-04-28T08:22:59Z</time>
      </trkpt>
      <trkpt lat="44.06372" lon="5.35682">
        <ele>708.343</ele>
        <time>2019-04-28T08:23:10Z</time>
      </trkpt>
      <trkpt lat="44.06339" lon="5.35676">
        <ele>710.036</ele>
        <time>2019-04-28T08:23:20Z</time>
      </trkpt>
      <trkpt lat="44.06302" lon="5.35672">
        <ele>711.357</ele>
        <time>2019-04-28T08:23:31Z</time>
      </trkpt>
      <trkpt lat="44.06269" lon="5.35669">
        <ele>712.241</ele>
        <time>2019-04-28T08:23:41Z</time>
      </trkpt>
      <trkpt lat="44.06233" lon="5.35662">
        <ele>713.006</ele>
        <time>2019-04-28T08:23:52Z</time>
      </trkpt>
      <trkpt lat="44.06202" lon="5.35642">
        <ele>713.288</ele>
        <time>2019-04-28T08:24:02Z</time>
      </trkpt>
      <trkpt lat="44.06177" lon="5.35614">
        <ele>713.363</ele>
        <time>2019-04-28T08:24:13Z</time>
      </trkpt>
      <trkpt lat="44.0615" lon="5.35583">
        <ele>713.436</ele>
        <time>2019-04-28T08:24:24Z</time>
      </trkpt>
      <trkpt lat="44.06131" lon="5.35557">
        <ele>713.805</ele>
        <time>2019-04-28T08:24:34Z</time>
      </trkpt>
      <trkpt lat="44.06106" lon="5.3553">
        <ele>714.075</ele>
        <time>2019-04-28T08:24:45Z</time>
      </trkpt>
      <trkpt lat="44.06076" lon="5.35509">
        <ele>714.908</ele>
        <time>2019-04-28T08:24:56Z</time>
      </trkpt>
      <trkpt lat="44.06047" lon="5.35489">
        <ele>715.847</ele>
        <time>2019-04-28T08:25:07Z</time>
      </trkpt>
      <trkpt lat="44.06018" lon="5.35467">
        <ele>716.758</ele>
        <time>2019-04-28T08:25:17Z</time>
      </trkpt>
      <trkpt lat="44.05992" lon="5.35444">
        <ele>717.578</ele>
        <time>2019-04-28T08:25:27Z</time>
      </trkpt>
      <trkpt lat="44.05971" lon="5.35414">
        <ele>718.377</ele>
        <time>2019-04-28T08:25:37Z</time>
      </trkpt>
      <trkpt lat="44.0595" lon="5.35382">
        <ele>719.148</ele>
        <time>2019-04-28T08:25:48Z</time>
      </trkpt>
      <trkpt lat="44.0593" lon="5.35356">
        <ele>719.784</ele>
        <time>2019-04-28T08:25:58Z</time>
      </trkpt>
      <trkpt lat="44.05907" lon="5.35337">
        <ele>720.945</ele>
        <time>2019-04-28T08:26:09Z</time>
      </trkpt>
      <trkpt lat="44.05881" lon="5.35326">
        <ele>721.802</ele>
        <time>2019-04-28T08:26:19Z</time>
      </trkpt>
      <trkpt lat="44.05846" lon="5.35321">
        <ele>722.775</ele>
        <time>2019-04-28T08:26:30Z</time>
      </trkpt>
      <trkpt lat="44.0581" lon="5.35315">
        <ele>724.335</ele>
        <time>2019-04-28T08:26:41Z</time>
      </trkpt>
      <trkpt lat="44.05784" lon="5.35298">
        <ele>725.72</ele>
        <time>2019-04-28T08:26:51Z</time>
      </trkpt>
      <trkpt lat="44.05759" lon="5.35279">
        <ele>726.539</ele>
        <time>2019-04-28T08:27:01Z</time>
      </trkpt>
      <trkpt lat="44.05725" lon="5.35277">
        <ele>727.47</ele>
        <time>2019-04-28T08:27:12Z</time>
      </trkpt>
      <trkpt lat="44.05696" lon="5.35282">
        <ele>728.73</ele>
        <time>2019-04-28T08:27:22Z</time>
      </trkpt>
      <trkpt lat="44.05667" lon="5.35278">
        <ele>729.942</ele>
        <time>2019-04-28T08:27:32Z</time>
      </trkpt>
      <trkpt lat="44.05638" lon="5.35257">
        <ele>731.067</ele>
        <time>2019-04-28T08:27:43Z</time>
      </trkpt>
      <trkpt lat="44.05614" lon="5.3523">
        <ele>732.177</ele>
        <time>2019-04-28T08:27:53Z</time>
      </trkpt>
      <trkpt lat="44.05591" lon="5.35196">
        <ele>733.377</ele>
        <time>2019-04-28T08:28:04Z</time>
      </trkpt>
      <trkpt lat="44.05584" lon="5.35156">
        <ele>734.465</ele>
        <time>2019-04-28T08:28:14Z</time>
      </trkpt>
      <trkpt lat="44.05569" lon="5.35118">
        <ele>735.199</ele>
        <time>2019-04-28T08:28:24Z</time>
      </trkpt>
      <trkpt lat="44.05541" lon="5.35111">
        <ele>735.943</ele>
        <time>2019-04-28T08:28:34Z</time>
      </trkpt>
      <trkpt lat="44.05509" lon="5.35097">
        <ele>736.635</ele>
        <time>2019-04-28T08:28:45Z</time>
      </trkpt>
      <trkpt lat="44.05482" lon="5.35072">
        <ele>737.581</ele>
        <time>2019-04-28T08:28:56Z</time>
      </trkpt>
      <trkpt lat="44.05454" lon="5.3504">
        <ele>738.424</ele>
        <time>2019-04-28T08:29:06Z</time>
      </trkpt>
      <trkpt lat="44.05429" lon="5.35006">
        <ele>739.798</ele>
        <time>2019-04-28T08:29:16Z</time>
      </trkpt>
      <trkpt lat="44.05398" lon="5.34973">
        <ele>739.728</ele>
        <time>2019-04-28T08:29:27Z</time>
      </trkpt>
      <trkpt lat="44.05367" lon="5.34942">
        <ele>740.589</ele>
        <time>2019-04-28T08:29:37Z</time>
      </trkpt>
      <trkpt lat="44.05351" lon="5.34895">
        <ele>742.31</ele>
        <time>2019-04-28T08:29:48Z</time>
      </trkpt>
      <trkpt lat="44.05338" lon="5.34851">
        <ele>743.458</ele>
        <time>2019-04-28T08:29:58Z</time>
      </trkpt>
      <trkpt lat="44.05324" lon="5.34806">
        <ele>745.212</ele>
        <time>2019-04-28T08:30:09Z</time>
      </trkpt>
      <trkpt lat="44.05316" lon="5.34761">
        <ele>746.373</ele>
        <time>2019-04-28T08:30:20Z</time>
      </trkpt>
      <trkpt lat="44.05297" lon="5.34723">
        <ele>748.022</ele>
        <time>2019-04-28T08:30:30Z</time>
      </trkpt>
      <trkpt lat="44.05266" lon="5.34707">
        <ele>749.472</ele>
        <time>2019-04-28T08:30:41Z</time>
      </trkpt>
      <trkpt lat="44.05237" lon="5.34689">
        <ele>750.532</ele>
        <time>2019-04-28T08:30:51Z</time>
      </trkpt>
      <trkpt lat="44.05205" lon="5.34666">
        <ele>751.594</ele>
        <time>2019-04-28T08:31:02Z</time>
      </trkpt>
      <trkpt lat="44.05181" lon="5.34637">
        <ele>752.669</ele>
        <time>2019-04-28T08:31:13Z</time>
      </trkpt>
      <trkpt lat="44.05175" lon="5.34594">
        <ele>753.594</ele>
        <time>2019-04-28T08:31:24Z</time>
      </trkpt>
      <trkpt lat="44.05181" lon="5.34553">
        <ele>754.828</ele>
        <time>2019-04-28T08:31:35Z</time>
      </trkpt>
      <trkpt lat="44.05195" lon="5.34523">
        <ele>755.803</ele>
        <time>2019-04-28T08:31:45Z</time>
      </trkpt>
      <trkpt lat="44.05209" lon="5.34487">
        <ele>756.656</ele>
        <time>2019-04-28T08:31:56Z</time>
      </trkpt>
      <trkpt lat="44.05198" lon="5.3445">
        <ele>758.417</ele>
        <time>2019-04-28T08:32:07Z</time>
      </trkpt>
      <trkpt lat="44.05175" lon="5.34425">
        <ele>759.778</ele>
        <time>2019-04-28T08:32:18Z</time>
      </trkpt>
      <trkpt lat="44.05144" lon="5.34416">
        <ele>760.887</ele>
        <time>2019-04-28T08:32:29Z</time>
      </trkpt>
      <trkpt lat="44.05115" lon="5.34413">
        <ele>762.302</ele>
        <time>2019-04-28T08:32:39Z</time>
      </trkpt>
      <trkpt lat="44.05082" lon="5.34398">
        <ele>764.465</ele>
        <time>2019-04-28T08:32:50Z</time>
      </trkpt>
      <trkpt lat="44.05061" lon="5.34373">
        <ele>765.677</ele>
        <time>2019-04-28T08:33:00Z</time>
      </trkpt>
      <trkpt lat="44.05046" lon="5.34338">
        <ele>766.818</ele>
        <time>2019-04-28T08:33:11Z</time>
      </trkpt>
      <trkpt lat="44.05024" lon="5.34319">
        <ele>767.51</ele>
        <time>2019-04-28T08:33:21Z</time>
      </trkpt>
      <trkpt lat="44.04991" lon="5.34309">
        <ele>767.719</ele>
        <time>2019-04-28T08:33:31Z</time>
      </trkpt>
      <trkpt lat="44.04963" lon="5.34283">
        <ele>768.42</ele>
        <time>2019-04-28T08:33:42Z</time>
      </trkpt>
      <trkpt lat="44.04942" lon="5.34252">
        <ele>769.548</ele>
        <time>2019-04-28T08:33:53Z</time>
      </trkpt>
      <trkpt lat="44.04917" lon="5.34225">
        <ele>770.884</ele>
        <time>2019-04-28T08:34:04Z</time>
      </trkpt>
      <trkpt lat="44.04882" lon="5.34214">
        <ele>771.485</ele>
        <time>2019-04-28T08:34:15Z</time>
      </trkpt>
      <trkpt lat="44.04848" lon="5.34209">
        <ele>772.477</ele>
        <time>2019-04-28T08:34:26Z</time>
      </trkpt>
      <trkpt lat="44.04813" lon="5.34204">
        <ele>774.28</ele>
        <time>2019-04-28T08:34:37Z</time>
      </trkpt>
      <trkpt lat="44.0478" lon="5.34185">
        <ele>775.506</ele>
        <time>2019-04-28T08:34:48Z</time>
      </trkpt>
      <trkpt lat="44.04751" lon="5.34164">
        <ele>776.549</ele>
        <time>2019-04-28T08:34:58Z</time>
      </trkpt>
      <trkpt lat="44.0472" lon="5.34139">
        <ele>777.943</ele>
        <time>2019-04-28T08:35:09Z</time>
      </trkpt>
      <trkpt lat="44.04695" lon="5.34107">
        <ele>779.245</ele>
        <time>2019-04-28T08:35:20Z</time>
      </trkpt>
      <trkpt lat="44.04699" lon="5.34065">
        <ele>780.324</ele>
        <time>2019-04-28T08:35:31Z</time>
      </trkpt>
      <trkpt lat="44.04718" lon="5.34035">
        <ele>780.978</ele>
        <time>2019-04-28T08:35:41Z</time>
      </trkpt>
      <trkpt lat="44.04725" lon="5.34022">
        <ele>781.818</ele>
        <time>2019-04-28T08:35:52Z</time>
      </trkpt>
      <trkpt lat="44.04724" lon="5.34021">
        <ele>782.205</ele>
        <time>2019-04-28T08:36:03Z</time>
      </trkpt>
      <trkpt lat="44.04723" lon="5.34015">
        <ele>783.262</ele>
        <time>2019-04-28T08:36:14Z</time>
      </trkpt>
      <trkpt lat="44.04723" lon="5.34006">
        <ele>784.266</ele>
        <time>2019-04-28T08:36:25Z</time>
      </trkpt>
      <trkpt lat="44.04722" lon="5.34003">
        <ele>784.812</ele>
        <time>2019-04-28T08:36:36Z</time>
      </trkpt>
      <trkpt lat="44.04722" lon="5.34002">
        <ele>785.425</ele>
        <time>2019-04-28T08:36:47Z</time>
      </trkpt>
      <trkpt lat="44.04722" lon="5.34002">
        <ele>785.552</ele>
        <time>2019-04-28T08:36:57Z</time>
      </trkpt>
      <trkpt lat="44.04722" lon="5.34002">
        <ele>785.868</ele>
        <time>2019-04-28T08:37:07Z</time>
      </trkpt>
      <trkpt lat="44.04728" lon="5.34">
        <ele>786.223</ele>
        <time>2019-04-28T08:37:18Z</time>
      </trkpt>
      <trkpt lat="44.04728" lon="5.33999">
        <ele>786.302</ele>
        <time>2019-04-28T08:37:29Z</time>
      </trkpt>
      <trkpt lat="44.04721" lon="5.34007">
        <ele>787.002</ele>
        <time>2019-04-28T08:37:40Z</time>
      </trkpt>
      <trkpt lat="44.04724" lon="5.34011">
        <ele>787.093</ele>
        <time>2019-04-28T08:37:51Z</time>
      </trkpt>
      <trkpt lat="44.04724" lon="5.34021">
        <ele>787.001</ele>
        <time>2019-04-28T08:38:01Z</time>
      </trkpt>
      <trkpt lat="44.04724" lon="5.34019">
        <ele>788.27</ele>
        <time>2019-04-28T08:38:12Z</time>
      </trkpt>
      <trkpt lat="44.04724" lon="5.34026">
        <ele>788.238</ele>
        <time>2019-04-28T08:38:22Z</time>
      </trkpt>
      <trkpt lat="44.04724" lon="5.3402">
        <ele>787.758</ele>
        <time>2019-04-28T08:38:33Z</time>
      </trkpt>
      <trkpt lat="44.04742" lon="5.33993">
        <ele>787.003</ele>
        <time>2019-04-28T08:38:44Z</time>
      </trkpt>
      <trkpt lat="44.04757" lon="5.33959">
        <ele>786.802</ele>
        <time>2019-04-28T08:38:55Z</time>
      </trkpt>
      <trkpt lat="44.04759" lon="5.33917">
        <ele>787.27</ele>
        <time>2019-04-28T08:39:06Z</time>
      </trkpt>
      <trkpt lat="44.04747" lon="5.33877">
        <ele>787.455</ele>
        <time>2019-04-28T08:39:16Z</time>
      </trkpt>
      <trkpt lat="44.04732" lon="5.33829">
        <ele>786.2</ele>
        <time>2019-04-28T08:39:27Z</time>
      </trkpt>
      <trkpt lat="44.0472" lon="5.3376">
        <ele>782.813</ele>
        <time>2019-04-28T08:39:38Z</time>
      </trkpt>
      <trkpt lat="44.04699" lon="5.33688">
        <ele>779.386</ele>
        <time>2019-04-28T08:39:49Z</time>
      </trkpt>
      <trkpt lat="44.04663" lon="5.33615">
        <ele>783.619</ele>
        <time>2019-04-28T08:40:00Z</time>
      </trkpt>
      <trkpt lat="44.04624" lon="5.33552">
        <ele>781.158</ele>
        <time>2019-04-28T08:40:11Z</time>
      </trkpt>
      <trkpt lat="44.04585" lon="5.33489">
        <ele>780.616</ele>
        <time>2019-04-28T08:40:22Z</time>
      </trkpt>
      <trkpt lat="44.04605" lon="5.33427">
        <ele>782.125</ele>
        <time>2019-04-28T08:40:33Z</time>
      </trkpt>
      <trkpt lat="44.0463" lon="5.33359">
        <ele>779.165</ele>
        <time>2019-04-28T08:40:43Z</time>
      </trkpt>
      <trkpt lat="44.04622" lon="5.33278">
        <ele>780.855</ele>
        <time>2019-04-28T08:40:54Z</time>
      </trkpt>
      <trkpt lat="44.04608" lon="5.33222">
        <ele>786.68</ele>
        <time>2019-04-28T08:41:04Z</time>
      </trkpt>
      <trkpt lat="44.04602" lon="5.33228">
        <ele>786.821</ele>
        <time>2019-04-28T08:41:15Z</time>
      </trkpt>
      <trkpt lat="44.04608" lon="5.3323">
        <ele>786.687</ele>
        <time>2019-04-28T08:41:25Z</time>
      </trkpt>
      <trkpt lat="44.04615" lon="5.33248">
        <ele>786.464</ele>
        <time>2019-04-28T08:41:36Z</time>
      </trkpt>
      <trkpt lat="44.04616" lon="5.33247">
        <ele>786.468</ele>
        <time>2019-04-28T08:41:47Z</time>
      </trkpt>
      <trkpt lat="44.04619" lon="5.33244">
        <ele>786.602</ele>
        <time>2019-04-28T08:41:59Z</time>
      </trkpt>
      <trkpt lat="44.04616" lon="5.33252">
        <ele>786.621</ele>
        <time>2019-04-28T08:42:10Z</time>
      </trkpt>
      <trkpt lat="44.04614" lon="5.33264">
        <ele>786.519</ele>
        <time>2019-04-28T08:42:21Z</time>
      </trkpt>
      <trkpt lat="44.04618" lon="5.33247">
        <ele>785.824</ele>
        <time>2019-04-28T08:42:32Z</time>
      </trkpt>
      <trkpt lat="44.04615" lon="5.33246">
        <ele>786.082</ele>
        <time>2019-04-28T08:42:42Z</time>
      </trkpt>
      <trkpt lat="44.04614" lon="5.33235">
        <ele>786.383</ele>
        <time>2019-04-28T08:42:53Z</time>
      </trkpt>
      <trkpt lat="44.04601" lon="5.33209">
        <ele>786.866</ele>
        <time>2019-04-28T08:43:04Z</time>
      </trkpt>
      <trkpt lat="44.04599" lon="5.33208">
        <ele>787.072</ele>
        <time>2019-04-28T08:43:15Z</time>
      </trkpt>
      <trkpt lat="44.04598" lon="5.33206">
        <ele>787.128</ele>
        <time>2019-04-28T08:43:26Z</time>
      </trkpt>
      <trkpt lat="44.04594" lon="5.33187">
        <ele>787.211</ele>
        <time>2019-04-28T08:43:37Z</time>
      </trkpt>
      <trkpt lat="44.04593" lon="5.33179">
        <ele>787.189</ele>
        <time>2019-04-28T08:43:48Z</time>
      </trkpt>
      <trkpt lat="44.04595" lon="5.33181">
        <ele>787.652</ele>
        <time>2019-04-28T08:43:59Z</time>
      </trkpt>
      <trkpt lat="44.04598" lon="5.33178">
        <ele>787.201</ele>
        <time>2019-04-28T08:44:10Z</time>
      </trkpt>
      <trkpt lat="44.04606" lon="5.33171">
        <ele>786.667</ele>
        <time>2019-04-28T08:44:20Z</time>
      </trkpt>
      <trkpt lat="44.04612" lon="5.3317">
        <ele>787.209</ele>
        <time>2019-04-28T08:44:31Z</time>
      </trkpt>
      <trkpt lat="44.04612" lon="5.33169">
        <ele>787.363</ele>
        <time>2019-04-28T08:44:42Z</time>
      </trkpt>
      <trkpt lat="44.04612" lon="5.3317">
        <ele>787.349</ele>
        <time>2019-04-28T08:44:52Z</time>
      </trkpt>
      <trkpt lat="44.04613" lon="5.33168">
        <ele>787.638</ele>
        <time>2019-04-28T08:45:03Z</time>
      </trkpt>
      <trkpt lat="44.04613" lon="5.33168">
        <ele>788.232</ele>
        <time>2019-04-28T08:45:14Z</time>
      </trkpt>
      <trkpt lat="44.04612" lon="5.33172">
        <ele>788.237</ele>
        <time>2019-04-28T08:45:25Z</time>
      </trkpt>
      <trkpt lat="44.04602" lon="5.33182">
        <ele>788.634</ele>
        <time>2019-04-28T08:45:36Z</time>
      </trkpt>
      <trkpt lat="44.04592" lon="5.33186">
        <ele>788.924</ele>
        <time>2019-04-28T08:45:46Z</time>
      </trkpt>
      <trkpt lat="44.04593" lon="5.33197">
        <ele>788.722</ele>
        <time>2019-04-28T08:45:56Z</time>
      </trkpt>
      <trkpt lat="44.046" lon="5.33208">
        <ele>788.655</ele>
        <time>2019-04-28T08:46:06Z</time>
      </trkpt>
      <trkpt lat="44.04598" lon="5.33208">
        <ele>788.469</ele>
        <time>2019-04-28T08:46:17Z</time>
      </trkpt>
      <trkpt lat="44.04599" lon="5.33207">
        <ele>788.359</ele>
        <time>2019-04-28T08:46:28Z</time>
      </trkpt>
      <trkpt lat="44.04596" lon="5.3321">
        <ele>788.327</ele>
        <time>2019-04-28T08:46:38Z</time>
      </trkpt>
      <trkpt lat="44.04599" lon="5.3321">
        <ele>788.549</ele>
        <time>2019-04-28T08:46:49Z</time>
      </trkpt>
      <trkpt lat="44.04605" lon="5.3321">
        <ele>788.501</ele>
        <time>2019-04-28T08:46:59Z</time>
      </trkpt>
      <trkpt lat="44.04616" lon="5.33176">
        <ele>787.952</ele>
        <time>2019-04-28T08:47:09Z</time>
      </trkpt>
      <trkpt lat="44.04662" lon="5.33144">
        <ele>786.015</ele>
        <time>2019-04-28T08:47:20Z</time>
      </trkpt>
      <trkpt lat="44.04718" lon="5.33178">
        <ele>786.409</ele>
        <time>2019-04-28T08:47:31Z</time>
      </trkpt>
      <trkpt lat="44.04756" lon="5.33254">
        <ele>781.653</ele>
        <time>2019-04-28T08:47:42Z</time>
      </trkpt>
      <trkpt lat="44.04781" lon="5.33294">
        <ele>780.692</ele>
        <time>2019-04-28T08:47:52Z</time>
      </trkpt>
      <trkpt lat="44.04841" lon="5.33381">
        <ele>783.657</ele>
        <time>2019-04-28T08:48:02Z</time>
      </trkpt>
      <trkpt lat="44.04898" lon="5.33419">
        <ele>780.86</ele>
        <time>2019-04-28T08:48:13Z</time>
      </trkpt>
      <trkpt lat="44.04909" lon="5.33328">
        <ele>777.893</ele>
        <time>2019-04-28T08:48:24Z</time>
      </trkpt>
      <trkpt lat="44.04954" lon="5.33307">
        <ele>775.441</ele>
        <time>2019-04-28T08:48:35Z</time>
      </trkpt>
      <trkpt lat="44.0501" lon="5.33302">
        <ele>769.107</ele>
        <time>2019-04-28T08:48:45Z</time>
      </trkpt>
      <trkpt lat="44.05084" lon="5.33252">
        <ele>766.645</ele>
        <time>2019-04-28T08:48:56Z</time>
      </trkpt>
      <trkpt lat="44.05152" lon="5.33207">
        <ele>768.121</ele>
        <time>2019-04-28T08:49:06Z</time>
      </trkpt>
      <trkpt lat="44.05209" lon="5.33114">
        <ele>766.082</ele>
        <time>2019-04-28T08:49:17Z</time>
      </trkpt>
      <trkpt lat="44.05278" lon="5.33053">
        <ele>759.854</ele>
        <time>2019-04-28T08:49:27Z</time>
      </trkpt>
      <trkpt lat="44.05313" lon="5.32963">
        <ele>753.882</ele>
        <time>2019-04-28T08:49:38Z</time>
      </trkpt>
      <trkpt lat="44.05328" lon="5.32956">
        <ele>753.47</ele>
        <time>2019-04-28T08:49:49Z</time>
      </trkpt>
      <trkpt lat="44.053" lon="5.32966">
        <ele>753.501</ele>
        <time>2019-04-28T08:49:59Z</time>
      </trkpt>
      <trkpt lat="44.05287" lon="5.32982">
        <ele>753.648</ele>
        <time>2019-04-28T08:50:10Z</time>
      </trkpt>
      <trkpt lat="44.05286" lon="5.32984">
        <ele>753.607</ele>
        <time>2019-04-28T08:50:21Z</time>
      </trkpt>
      <trkpt lat="44.05286" lon="5.32984">
        <ele>753.545</ele>
        <time>2019-04-28T08:50:31Z</time>
      </trkpt>
      <trkpt lat="44.05288" lon="5.32983">
        <ele>753.768</ele>
        <time>2019-04-28T08:50:42Z</time>
      </trkpt>
      <trkpt lat="44.05294" lon="5.32982">
        <ele>753.593</ele>
        <time>2019-04-28T08:50:52Z</time>
      </trkpt>
      <trkpt lat="44.05332" lon="5.3296">
        <ele>753.772</ele>
        <time>2019-04-28T08:51:03Z</time>
      </trkpt>
      <trkpt lat="44.05374" lon="5.32952">
        <ele>754.678</ele>
        <time>2019-04-28T08:51:13Z</time>
      </trkpt>
      <trkpt lat="44.05417" lon="5.32907">
        <ele>756.061</ele>
        <time>2019-04-28T08:51:24Z</time>
      </trkpt>
      <trkpt lat="44.05476" lon="5.32898">
        <ele>756.169</ele>
        <time>2019-04-28T08:51:34Z</time>
      </trkpt>
      <trkpt lat="44.05534" lon="5.32848">
        <ele>753.593</ele>
        <time>2019-04-28T08:51:44Z</time>
      </trkpt>
      <trkpt lat="44.05612" lon="5.32811">
        <ele>751.698</ele>
        <time>2019-04-28T08:51:55Z</time>
      </trkpt>
      <trkpt lat="44.05662" lon="5.32731">
        <ele>749.528</ele>
        <time>2019-04-28T08:52:05Z</time>
      </trkpt>
      <trkpt lat="44.05702" lon="5.32617">
        <ele>746.228</ele>
        <time>2019-04-28T08:52:16Z</time>
      </trkpt>
      <trkpt lat="44.05752" lon="5.32544">
        <ele>743.684</ele>
        <time>2019-04-28T08:52:26Z</time>
      </trkpt>
      <trkpt lat="44.05808" lon="5.32459">
        <ele>737.593</ele>
        <time>2019-04-28T08:52:36Z</time>
      </trkpt>
      <trkpt lat="44.05873" lon="5.32406">
        <ele>733.803</ele>
        <time>2019-04-28T08:52:46Z</time>
      </trkpt>
      <trkpt lat="44.05931" lon="5.32338">
        <ele>730.894</ele>
        <time>2019-04-28T08:52:56Z</time>
      </trkpt>
      <trkpt lat="44.05965" lon="5.32244">
        <ele>728.586</ele>
        <time>2019-04-28T08:53:07Z</time>
      </trkpt>
      <trkpt lat="44.05958" lon="5.32143">
        <ele>729.262</ele>
        <time>2019-04-28T08:53:17Z</time>
      </trkpt>
      <trkpt lat="44.06032" lon="5.32096">
        <ele>726.645</ele>
        <time>2019-04-28T08:53:28Z</time>
      </trkpt>
      <trkpt lat="44.06104" lon="5.32089">
        <ele>723.491</ele>
        <time>2019-04-28T08:53:38Z</time>
      </trkpt>
      <trkpt lat="44.06177" lon="5.32049">
        <ele>719.156</ele>
        <time>2019-04-28T08:53:48Z</time>
      </trkpt>
      <trkpt lat="44.0626" lon="5.32003">
        <ele>715.767</ele>
        <time>2019-04-28T08:53:59Z</time>
      </trkpt>
      <trkpt lat="44.06342" lon="5.31998">
        <ele>714.699</ele>
        <time>2019-04-28T08:54:09Z</time>
      </trkpt>
      <trkpt lat="44.06432" lon="5.3199">
        <ele>712.137</ele>
        <time>2019-04-28T08:54:20Z</time>
      </trkpt>
      <trkpt lat="44.06418" lon="5.32104">
        <ele>707.004</ele>
        <time>2019-04-28T08:54:31Z</time>
      </trkpt>
      <trkpt lat="44.06358" lon="5.32201">
        <ele>701.944</ele>
        <time>2019-04-28T08:54:42Z</time>
      </trkpt>
      <trkpt lat="44.06419" lon="5.32297">
        <ele>699.782</ele>
        <time>2019-04-28T08:54:53Z</time>
      </trkpt>
      <trkpt lat="44.06469" lon="5.3241">
        <ele>697.535</ele>
        <time>2019-04-28T08:55:04Z</time>
      </trkpt>
      <trkpt lat="44.06548" lon="5.32449">
        <ele>697.719</ele>
        <time>2019-04-28T08:55:14Z</time>
      </trkpt>
      <trkpt lat="44.06627" lon="5.32506">
        <ele>693.637</ele>
        <time>2019-04-28T08:55:24Z</time>
      </trkpt>
      <trkpt lat="44.06721" lon="5.32524">
        <ele>689.809</ele>
        <time>2019-04-28T08:55:35Z</time>
      </trkpt>
      <trkpt lat="44.06686" lon="5.32427">
        <ele>685.748</ele>
        <time>2019-04-28T08:55:46Z</time>
      </trkpt>
      <trkpt lat="44.06633" lon="5.32345">
        <ele>684.368</ele>
        <time>2019-04-28T08:55:56Z</time>
      </trkpt>
      <trkpt lat="44.06583" lon="5.3227">
        <ele>680.19</ele>
        <time>2019-04-28T08:56:06Z</time>
      </trkpt>
      <trkpt lat="44.06639" lon="5.32177">
        <ele>671.981</ele>
        <time>2019-04-28T08:56:17Z</time>
      </trkpt>
      <trkpt lat="44.06709" lon="5.3219">
        <ele>668.433</ele>
        <time>2019-04-28T08:56:27Z</time>
      </trkpt>
      <trkpt lat="44.06787" lon="5.32166">
        <ele>668.635</ele>
        <time>2019-04-28T08:56:38Z</time>
      </trkpt>
      <trkpt lat="44.06794" lon="5.32085">
        <ele>668.757</ele>
        <time>2019-04-28T08:56:48Z</time>
      </trkpt>
      <trkpt lat="44.06741" lon="5.32021">
        <ele>660.591</ele>
        <time>2019-04-28T08:56:59Z</time>
      </trkpt>
      <trkpt lat="44.0672" lon="5.31914">
        <ele>656.396</ele>
        <time>2019-04-28T08:57:10Z</time>
      </trkpt>
      <trkpt lat="44.06735" lon="5.318">
        <ele>651.751</ele>
        <time>2019-04-28T08:57:20Z</time>
      </trkpt>
      <trkpt lat="44.06755" lon="5.31662">
        <ele>648.659</ele>
        <time>2019-04-28T08:57:31Z</time>
      </trkpt>
      <trkpt lat="44.06719" lon="5.31549">
        <ele>648.978</ele>
        <time>2019-04-28T08:57:42Z</time>
      </trkpt>
      <trkpt lat="44.06651" lon="5.315">
        <ele>641.816</ele>
        <time>2019-04-28T08:57:52Z</time>
      </trkpt>
      <trkpt lat="44.06581" lon="5.31464">
        <ele>636.21</ele>
        <time>2019-04-28T08:58:02Z</time>
      </trkpt>
      <trkpt lat="44.06503" lon="5.31511">
        <ele>636.853</ele>
        <time>2019-04-28T08:58:13Z</time>
      </trkpt>
      <trkpt lat="44.06418" lon="5.31536">
        <ele>633.683</ele>
        <time>2019-04-28T08:58:24Z</time>
      </trkpt>
      <trkpt lat="44.06353" lon="5.31477">
        <ele>625.559</ele>
        <time>2019-04-28T08:58:35Z</time>
      </trkpt>
      <trkpt lat="44.06393" lon="5.31409">
        <ele>622.832</ele>
        <time>2019-04-28T08:58:46Z</time>
      </trkpt>
      <trkpt lat="44.06455" lon="5.31389">
        <ele>621.595</ele>
        <time>2019-04-28T08:58:57Z</time>
      </trkpt>
      <trkpt lat="44.06514" lon="5.3133">
        <ele>623.608</ele>
        <time>2019-04-28T08:59:08Z</time>
      </trkpt>
      <trkpt lat="44.06554" lon="5.31255">
        <ele>620.993</ele>
        <time>2019-04-28T08:59:18Z</time>
      </trkpt>
      <trkpt lat="44.06587" lon="5.31175">
        <ele>621.565</ele>
        <time>2019-04-28T08:59:29Z</time>
      </trkpt>
      <trkpt lat="44.0664" lon="5.31136">
        <ele>618.157</ele>
        <time>2019-04-28T08:59:40Z</time>
      </trkpt>
      <trkpt lat="44.06708" lon="5.31122">
        <ele>619.282</ele>
        <time>2019-04-28T08:59:50Z</time>
      </trkpt>
      <trkpt lat="44.06751" lon="5.31056">
        <ele>620.012</ele>
        <time>2019-04-28T09:00:01Z</time>
      </trkpt>
      <trkpt lat="44.06701" lon="5.30988">
        <ele>612.699</ele>
        <time>2019-04-28T09:00:11Z</time>
      </trkpt>
      <trkpt lat="44.06649" lon="5.30927">
        <ele>606.264</ele>
        <time>2019-04-28T09:00:21Z</time>
      </trkpt>
      <trkpt lat="44.06635" lon="5.30851">
        <ele>608.924</ele>
        <time>2019-04-28T09:00:32Z</time>
      </trkpt>
      <trkpt lat="44.06672" lon="5.30789">
        <ele>609.103</ele>
        <time>2019-04-28T09:00:42Z</time>
      </trkpt>
      <trkpt lat="44.06722" lon="5.30731">
        <ele>606.083</ele>
        <time>2019-04-28T09:00:53Z</time>
      </trkpt>
      <trkpt lat="44.06777" lon="5.30702">
        <ele>604.328</ele>
        <time>2019-04-28T09:01:03Z</time>
      </trkpt>
      <trkpt lat="44.06836" lon="5.30649">
        <ele>606.058</ele>
        <time>2019-04-28T09:01:14Z</time>
      </trkpt>
      <trkpt lat="44.06899" lon="5.30605">
        <ele>605.68</ele>
        <time>2019-04-28T09:01:24Z</time>
      </trkpt>
      <trkpt lat="44.06939" lon="5.30527">
        <ele>605.151</ele>
        <time>2019-04-28T09:01:34Z</time>
      </trkpt>
      <trkpt lat="44.06869" lon="5.30503">
        <ele>603.667</ele>
        <time>2019-04-28T09:01:44Z</time>
      </trkpt>
      <trkpt lat="44.06784" lon="5.30487">
        <ele>600.915</ele>
        <time>2019-04-28T09:01:54Z</time>
      </trkpt>
      <trkpt lat="44.06699" lon="5.30473">
        <ele>603.145</ele>
        <time>2019-04-28T09:02:04Z</time>
      </trkpt>
      <trkpt lat="44.06601" lon="5.30467">
        <ele>598.565</ele>
        <time>2019-04-28T09:02:15Z</time>
      </trkpt>
      <trkpt lat="44.06534" lon="5.30362">
        <ele>590.717</ele>
        <time>2019-04-28T09:02:26Z</time>
      </trkpt>
      <trkpt lat="44.06459" lon="5.30286">
        <ele>584.238</ele>
        <time>2019-04-28T09:02:37Z</time>
      </trkpt>
      <trkpt lat="44.06392" lon="5.30218">
        <ele>580.878</ele>
        <time>2019-04-28T09:02:48Z</time>
      </trkpt>
      <trkpt lat="44.06316" lon="5.30191">
        <ele>580.797</ele>
        <time>2019-04-28T09:02:58Z</time>
      </trkpt>
      <trkpt lat="44.06237" lon="5.30169">
        <ele>580.451</ele>
        <time>2019-04-28T09:03:09Z</time>
      </trkpt>
      <trkpt lat="44.06167" lon="5.30163">
        <ele>575.922</ele>
        <time>2019-04-28T09:03:19Z</time>
      </trkpt>
      <trkpt lat="44.06093" lon="5.30157">
        <ele>571.307</ele>
        <time>2019-04-28T09:03:30Z</time>
      </trkpt>
      <trkpt lat="44.06032" lon="5.30123">
        <ele>566.372</ele>
        <time>2019-04-28T09:03:40Z</time>
      </trkpt>
      <trkpt lat="44.05972" lon="5.30075">
        <ele>562.532</ele>
        <time>2019-04-28T09:03:51Z</time>
      </trkpt>
      <trkpt lat="44.05936" lon="5.29988">
        <ele>564.306</ele>
        <time>2019-04-28T09:04:01Z</time>
      </trkpt>
      <trkpt lat="44.05883" lon="5.29904">
        <ele>565.124</ele>
        <time>2019-04-28T09:04:12Z</time>
      </trkpt>
      <trkpt lat="44.0582" lon="5.29842">
        <ele>560.277</ele>
        <time>2019-04-28T09:04:23Z</time>
      </trkpt>
      <trkpt lat="44.05757" lon="5.29812">
        <ele>562.742</ele>
        <time>2019-04-28T09:04:33Z</time>
      </trkpt>
      <trkpt lat="44.0569" lon="5.29771">
        <ele>564.526</ele>
        <time>2019-04-28T09:04:44Z</time>
      </trkpt>
      <trkpt lat="44.05676" lon="5.29666">
        <ele>565.926</ele>
        <time>2019-04-28T09:04:55Z</time>
      </trkpt>
      <trkpt lat="44.05635" lon="5.29585">
        <ele>566.927</ele>
        <time>2019-04-28T09:05:06Z</time>
      </trkpt>
      <trkpt lat="44.05579" lon="5.29521">
        <ele>558.257</ele>
        <time>2019-04-28T09:05:16Z</time>
      </trkpt>
      <trkpt lat="44.05535" lon="5.29446">
        <ele>556.712</ele>
        <time>2019-04-28T09:05:26Z</time>
      </trkpt>
      <trkpt lat="44.05505" lon="5.29346">
        <ele>559.154</ele>
        <time>2019-04-28T09:05:37Z</time>
      </trkpt>
      <trkpt lat="44.05465" lon="5.29252">
        <ele>563.127</ele>
        <time>2019-04-28T09:05:48Z</time>
      </trkpt>
      <trkpt lat="44.05423" lon="5.29153">
        <ele>564.876</ele>
        <time>2019-04-28T09:05:59Z</time>
      </trkpt>
      <trkpt lat="44.0536" lon="5.29088">
        <ele>565.274</ele>
        <time>2019-04-28T09:06:10Z</time>
      </trkpt>
      <trkpt lat="44.05342" lon="5.2899">
        <ele>559.253</ele>
        <time>2019-04-28T09:06:21Z</time>
      </trkpt>
      <trkpt lat="44.05348" lon="5.28892">
        <ele>555.991</ele>
        <time>2019-04-28T09:06:32Z</time>
      </trkpt>
      <trkpt lat="44.05336" lon="5.28814">
        <ele>557.319</ele>
        <time>2019-04-28T09:06:42Z</time>
      </trkpt>
      <trkpt lat="44.05306" lon="5.28736">
        <ele>556.238</ele>
        <time>2019-04-28T09:06:53Z</time>
      </trkpt>
      <trkpt lat="44.05252" lon="5.28687">
        <ele>553.964</ele>
        <time>2019-04-28T09:07:03Z</time>
      </trkpt>
      <trkpt lat="44.0518" lon="5.28669">
        <ele>554.905</ele>
        <time>2019-04-28T09:07:13Z</time>
      </trkpt>
      <trkpt lat="44.05101" lon="5.28647">
        <ele>556.102</ele>
        <time>2019-04-28T09:07:24Z</time>
      </trkpt>
      <trkpt lat="44.05025" lon="5.28616">
        <ele>557.907</ele>
        <time>2019-04-28T09:07:35Z</time>
      </trkpt>
      <trkpt lat="44.04954" lon="5.28598">
        <ele>558.09</ele>
        <time>2019-04-28T09:07:45Z</time>
      </trkpt>
      <trkpt lat="44.04907" lon="5.28563">
        <ele>555.117</ele>
        <time>2019-04-28T09:07:56Z</time>
      </trkpt>
      <trkpt lat="44.04891" lon="5.285">
        <ele>551.421</ele>
        <time>2019-04-28T09:08:07Z</time>
      </trkpt>
      <trkpt lat="44.04907" lon="5.28431">
        <ele>547.477</ele>
        <time>2019-04-28T09:08:17Z</time>
      </trkpt>
      <trkpt lat="44.04926" lon="5.28363">
        <ele>545.392</ele>
        <time>2019-04-28T09:08:27Z</time>
      </trkpt>
      <trkpt lat="44.04944" lon="5.2828">
        <ele>544.494</ele>
        <time>2019-04-28T09:08:38Z</time>
      </trkpt>
      <trkpt lat="44.04957" lon="5.28208">
        <ele>543.352</ele>
        <time>2019-04-28T09:08:48Z</time>
      </trkpt>
      <trkpt lat="44.04949" lon="5.28124">
        <ele>544.199</ele>
        <time>2019-04-28T09:08:59Z</time>
      </trkpt>
      <trkpt lat="44.0493" lon="5.28045">
        <ele>545.749</ele>
        <time>2019-04-28T09:09:09Z</time>
      </trkpt>
      <trkpt lat="44.0489" lon="5.27973">
        <ele>547.216</ele>
        <time>2019-04-28T09:09:20Z</time>
      </trkpt>
      <trkpt lat="44.04856" lon="5.27924">
        <ele>545.378</ele>
        <time>2019-04-28T09:09:30Z</time>
      </trkpt>
      <trkpt lat="44.04805" lon="5.27872">
        <ele>543.427</ele>
        <time>2019-04-28T09:09:41Z</time>
      </trkpt>
      <trkpt lat="44.04747" lon="5.27824">
        <ele>541.142</ele>
        <time>2019-04-28T09:09:51Z</time>
      </trkpt>
      <trkpt lat="44.04713" lon="5.2774">
        <ele>534.053</ele>
        <time>2019-04-28T09:10:02Z</time>
      </trkpt>
      <trkpt lat="44.04713" lon="5.27655">
        <ele>534.726</ele>
        <time>2019-04-28T09:10:12Z</time>
      </trkpt>
      <trkpt lat="44.04719" lon="5.27567">
        <ele>535.993</ele>
        <time>2019-04-28T09:10:23Z</time>
      </trkpt>
      <trkpt lat="44.04704" lon="5.275">
        <ele>540.352</ele>
        <time>2019-04-28T09:10:33Z</time>
      </trkpt>
      <trkpt lat="44.04648" lon="5.27531">
        <ele>542.149</ele>
        <time>2019-04-28T09:10:44Z</time>
      </trkpt>
      <trkpt lat="44.04605" lon="5.27573">
        <ele>540.928</ele>
        <time>2019-04-28T09:10:54Z</time>
      </trkpt>
      <trkpt lat="44.04553" lon="5.27586">
        <ele>541.346</ele>
        <time>2019-04-28T09:11:04Z</time>
      </trkpt>
      <trkpt lat="44.04503" lon="5.27541">
        <ele>539.945</ele>
        <time>2019-04-28T09:11:15Z</time>
      </trkpt>
      <trkpt lat="44.04459" lon="5.27478">
        <ele>541.413</ele>
        <time>2019-04-28T09:11:26Z</time>
      </trkpt>
      <trkpt lat="44.04422" lon="5.27414">
        <ele>542.187</ele>
        <time>2019-04-28T09:11:36Z</time>
      </trkpt>
      <trkpt lat="44.04381" lon="5.27349">
        <ele>542.281</ele>
        <time>2019-04-28T09:11:47Z</time>
      </trkpt>
      <trkpt lat="44.04334" lon="5.27281">
        <ele>542.375</ele>
        <time>2019-04-28T09:11:58Z</time>
      </trkpt>
      <trkpt lat="44.0429" lon="5.27206">
        <ele>542.049</ele>
        <time>2019-04-28T09:12:09Z</time>
      </trkpt>
      <trkpt lat="44.04243" lon="5.27148">
        <ele>540.437</ele>
        <time>2019-04-28T09:12:20Z</time>
      </trkpt>
      <trkpt lat="44.04195" lon="5.27088">
        <ele>540.554</ele>
        <time>2019-04-28T09:12:31Z</time>
      </trkpt>
      <trkpt lat="44.04181" lon="5.27006">
        <ele>537.873</ele>
        <time>2019-04-28T09:12:41Z</time>
      </trkpt>
      <trkpt lat="44.04211" lon="5.26928">
        <ele>533.339</ele>
        <time>2019-04-28T09:12:52Z</time>
      </trkpt>
      <trkpt lat="44.04216" lon="5.26853">
        <ele>532.484</ele>
        <time>2019-04-28T09:13:02Z</time>
      </trkpt>
      <trkpt lat="44.04154" lon="5.26814">
        <ele>533.342</ele>
        <time>2019-04-28T09:13:13Z</time>
      </trkpt>
      <trkpt lat="44.04092" lon="5.26781">
        <ele>534.57</ele>
        <time>2019-04-28T09:13:24Z</time>
      </trkpt>
      <trkpt lat="44.04024" lon="5.26779">
        <ele>534.374</ele>
        <time>2019-04-28T09:13:35Z</time>
      </trkpt>
      <trkpt lat="44.03964" lon="5.26754">
        <ele>532.663</ele>
        <time>2019-04-28T09:13:46Z</time>
      </trkpt>
      <trkpt lat="44.03909" lon="5.26698">
        <ele>529.479</ele>
        <time>2019-04-28T09:13:57Z</time>
      </trkpt>
      <trkpt lat="44.03862" lon="5.26642">
        <ele>529.372</ele>
        <time>2019-04-28T09:14:07Z</time>
      </trkpt>
      <trkpt lat="44.03807" lon="5.26595">
        <ele>530.284</ele>
        <time>2019-04-28T09:14:18Z</time>
      </trkpt>
      <trkpt lat="44.03744" lon="5.26562">
        <ele>529.756</ele>
        <time>2019-04-28T09:14:28Z</time>
      </trkpt>
      <trkpt lat="44.03677" lon="5.26534">
        <ele>529.513</ele>
        <time>2019-04-28T09:14:38Z</time>
      </trkpt>
      <trkpt lat="44.03602" lon="5.26499">
        <ele>526.672</ele>
        <time>2019-04-28T09:14:49Z</time>
      </trkpt>
      <trkpt lat="44.03556" lon="5.26433">
        <ele>520.692</ele>
        <time>2019-04-28T09:15:00Z</time>
      </trkpt>
      <trkpt lat="44.03519" lon="5.26357">
        <ele>516.62</ele>
        <time>2019-04-28T09:15:11Z</time>
      </trkpt>
      <trkpt lat="44.03492" lon="5.26286">
        <ele>514.039</ele>
        <time>2019-04-28T09:15:21Z</time>
      </trkpt>
      <trkpt lat="44.03507" lon="5.2621">
        <ele>512.867</ele>
        <time>2019-04-28T09:15:32Z</time>
      </trkpt>
      <trkpt lat="44.03526" lon="5.26133">
        <ele>511.182</ele>
        <time>2019-04-28T09:15:43Z</time>
      </trkpt>
      <trkpt lat="44.03537" lon="5.26049">
        <ele>510.674</ele>
        <time>2019-04-28T09:15:54Z</time>
      </trkpt>
      <trkpt lat="44.03527" lon="5.25956">
        <ele>511.664</ele>
        <time>2019-04-28T09:16:05Z</time>
      </trkpt>
      <trkpt lat="44.03533" lon="5.25873">
        <ele>511.487</ele>
        <time>2019-04-28T09:16:16Z</time>
      </trkpt>
      <trkpt lat="44.03566" lon="5.25825">
        <ele>509.641</ele>
        <time>2019-04-28T09:16:26Z</time>
      </trkpt>
      <trkpt lat="44.03606" lon="5.25777">
        <ele>506.759</ele>
        <time>2019-04-28T09:16:37Z</time>
      </trkpt>
      <trkpt lat="44.0364" lon="5.25726">
        <ele>504.495</ele>
        <time>2019-04-28T09:16:47Z</time>
      </trkpt>
      <trkpt lat="44.03679" lon="5.25673">
        <ele>503.323</ele>
        <time>2019-04-28T09:16:58Z</time>
      </trkpt>
      <trkpt lat="44.03734" lon="5.2563">
        <ele>502.31</ele>
        <time>2019-04-28T09:17:09Z</time>
      </trkpt>
      <trkpt lat="44.0379" lon="5.25608">
        <ele>501.289</ele>
        <time>2019-04-28T09:17:19Z</time>
      </trkpt>
      <trkpt lat="44.03838" lon="5.25618">
        <ele>500.579</ele>
        <time>2019-04-28T09:17:30Z</time>
      </trkpt>
      <trkpt lat="44.03885" lon="5.25606">
        <ele>499.397</ele>
        <time>2019-04-28T09:17:40Z</time>
      </trkpt>
      <trkpt lat="44.03947" lon="5.25577">
        <ele>495.254</ele>
        <time>2019-04-28T09:17:51Z</time>
      </trkpt>
      <trkpt lat="44.04005" lon="5.25565">
        <ele>494.733</ele>
        <time>2019-04-28T09:18:02Z</time>
      </trkpt>
      <trkpt lat="44.0406" lon="5.25563">
        <ele>494.636</ele>
        <time>2019-04-28T09:18:12Z</time>
      </trkpt>
      <trkpt lat="44.04118" lon="5.25591">
        <ele>492.903</ele>
        <time>2019-04-28T09:18:23Z</time>
      </trkpt>
      <trkpt lat="44.04172" lon="5.25618">
        <ele>488.16</ele>
        <time>2019-04-28T09:18:33Z</time>
      </trkpt>
      <trkpt lat="44.04215" lon="5.25549">
        <ele>486.381</ele>
        <time>2019-04-28T09:18:44Z</time>
      </trkpt>
      <trkpt lat="44.04265" lon="5.25515">
        <ele>485.866</ele>
        <time>2019-04-28T09:18:54Z</time>
      </trkpt>
      <trkpt lat="44.04329" lon="5.25506">
        <ele>485.254</ele>
        <time>2019-04-28T09:19:05Z</time>
      </trkpt>
      <trkpt lat="44.04403" lon="5.25527">
        <ele>484.924</ele>
        <time>2019-04-28T09:19:16Z</time>
      </trkpt>
      <trkpt lat="44.04462" lon="5.25465">
        <ele>482.66</ele>
        <time>2019-04-28T09:19:26Z</time>
      </trkpt>
      <trkpt lat="44.04429" lon="5.25367">
        <ele>478.58</ele>
        <time>2019-04-28T09:19:37Z</time>
      </trkpt>
      <trkpt lat="44.04385" lon="5.25307">
        <ele>478.168</ele>
        <time>2019-04-28T09:19:47Z</time>
      </trkpt>
      <trkpt lat="44.04336" lon="5.25256">
        <ele>479.617</ele>
        <time>2019-04-28T09:19:58Z</time>
      </trkpt>
      <trkpt lat="44.04299" lon="5.25216">
        <ele>479.768</ele>
        <time>2019-04-28T09:20:08Z</time>
      </trkpt>
      <trkpt lat="44.04268" lon="5.25158">
        <ele>478.855</ele>
        <time>2019-04-28T09:20:19Z</time>
      </trkpt>
      <trkpt lat="44.04237" lon="5.25114">
        <ele>479.441</ele>
        <time>2019-04-28T09:20:30Z</time>
      </trkpt>
      <trkpt lat="44.04237" lon="5.25114">
        <ele>479.429</ele>
        <time>2019-04-28T09:20:41Z</time>
      </trkpt>
      <trkpt lat="44.04233" lon="5.25107">
        <ele>479.279</ele>
        <time>2019-04-28T09:20:52Z</time>
      </trkpt>
      <trkpt lat="44.0422" lon="5.25079">
        <ele>479.057</ele>
        <time>2019-04-28T09:21:02Z</time>
      </trkpt>
      <trkpt lat="44.04189" lon="5.25034">
        <ele>479.535</ele>
        <time>2019-04-28T09:21:13Z</time>
      </trkpt>
      <trkpt lat="44.0415" lon="5.2499">
        <ele>481.263</ele>
        <time>2019-04-28T09:21:24Z</time>
      </trkpt>
      <trkpt lat="44.04115" lon="5.24947">
        <ele>481.901</ele>
        <time>2019-04-28T09:21:34Z</time>
      </trkpt>
      <trkpt lat="44.04073" lon="5.24898">
        <ele>484.198</ele>
        <time>2019-04-28T09:21:45Z</time>
      </trkpt>
      <trkpt lat="44.04037" lon="5.24854">
        <ele>485.964</ele>
        <time>2019-04-28T09:21:55Z</time>
      </trkpt>
      <trkpt lat="44.04005" lon="5.24806">
        <ele>487.328</ele>
        <time>2019-04-28T09:22:06Z</time>
      </trkpt>
      <trkpt lat="44.04008" lon="5.24742">
        <ele>487.84</ele>
        <time>2019-04-28T09:22:17Z</time>
      </trkpt>
      <trkpt lat="44.04048" lon="5.24698">
        <ele>485.826</ele>
        <time>2019-04-28T09:22:28Z</time>
      </trkpt>
      <trkpt lat="44.04111" lon="5.24687">
        <ele>484.325</ele>
        <time>2019-04-28T09:22:38Z</time>
      </trkpt>
      <trkpt lat="44.04184" lon="5.24672">
        <ele>482.939</ele>
        <time>2019-04-28T09:22:49Z</time>
      </trkpt>
      <trkpt lat="44.04252" lon="5.24632">
        <ele>479.032</ele>
        <time>2019-04-28T09:23:00Z</time>
      </trkpt>
      <trkpt lat="44.04316" lon="5.24603">
        <ele>476.375</ele>
        <time>2019-04-28T09:23:10Z</time>
      </trkpt>
      <trkpt lat="44.04364" lon="5.24684">
        <ele>474.733</ele>
        <time>2019-04-28T09:23:20Z</time>
      </trkpt>
      <trkpt lat="44.04428" lon="5.24656">
        <ele>472.115</ele>
        <time>2019-04-28T09:23:31Z</time>
      </trkpt>
      <trkpt lat="44.04479" lon="5.2459">
        <ele>470.443</ele>
        <time>2019-04-28T09:23:42Z</time>
      </trkpt>
      <trkpt lat="44.04535" lon="5.2456">
        <ele>469.28</ele>
        <time>2019-04-28T09:23:52Z</time>
      </trkpt>
      <trkpt lat="44.04595" lon="5.24564">
        <ele>467.48</ele>
        <time>2019-04-28T09:24:02Z</time>
      </trkpt>
      <trkpt lat="44.04659" lon="5.24598">
        <ele>466.893</ele>
        <time>2019-04-28T09:24:13Z</time>
      </trkpt>
      <trkpt lat="44.04721" lon="5.24624">
        <ele>465.133</ele>
        <time>2019-04-28T09:24:23Z</time>
      </trkpt>
      <trkpt lat="44.04781" lon="5.24612">
        <ele>462.099</ele>
        <time>2019-04-28T09:24:34Z</time>
      </trkpt>
      <trkpt lat="44.04851" lon="5.24614">
        <ele>457.377</ele>
        <time>2019-04-28T09:24:45Z</time>
      </trkpt>
      <trkpt lat="44.04921" lon="5.24618">
        <ele>455.356</ele>
        <time>2019-04-28T09:24:56Z</time>
      </trkpt>
      <trkpt lat="44.04985" lon="5.24611">
        <ele>453.492</ele>
        <time>2019-04-28T09:25:06Z</time>
      </trkpt>
      <trkpt lat="44.05054" lon="5.24604">
        <ele>449.395</ele>
        <time>2019-04-28T09:25:17Z</time>
      </trkpt>
      <trkpt lat="44.05121" lon="5.24618">
        <ele>444.923</ele>
        <time>2019-04-28T09:25:27Z</time>
      </trkpt>
      <trkpt lat="44.05162" lon="5.24636">
        <ele>443.208</ele>
        <time>2019-04-28T09:25:38Z</time>
      </trkpt>
      <trkpt lat="44.05164" lon="5.24639">
        <ele>442.633</ele>
        <time>2019-04-28T09:25:48Z</time>
      </trkpt>
      <trkpt lat="44.05167" lon="5.24643">
        <ele>442.442</ele>
        <time>2019-04-28T09:25:59Z</time>
      </trkpt>
      <trkpt lat="44.05167" lon="5.24643">
        <ele>442.226</ele>
        <time>2019-04-28T09:26:09Z</time>
      </trkpt>
      <trkpt lat="44.05167" lon="5.24643">
        <ele>441.966</ele>
        <time>2019-04-28T09:26:20Z</time>
      </trkpt>
      <trkpt lat="44.05167" lon="5.24643">
        <ele>441.691</ele>
        <time>2019-04-28T09:26:31Z</time>
      </trkpt>
      <trkpt lat="44.05167" lon="5.24643">
        <ele>441.427</ele>
        <time>2019-04-28T09:26:42Z</time>
      </trkpt>
      <trkpt lat="44.05167" lon="5.24643">
        <ele>441.175</ele>
        <time>2019-04-28T09:26:53Z</time>
      </trkpt>
      <trkpt lat="44.05167" lon="5.24643">
        <ele>440.94</ele>
        <time>2019-04-28T09:27:04Z</time>
      </trkpt>
      <trkpt lat="44.05167" lon="5.24643">
        <ele>440.738</ele>
        <time>2019-04-28T09:27:14Z</time>
      </trkpt>
      <trkpt lat="44.05167" lon="5.24643">
        <ele>440.206</ele>
        <time>2019-04-28T09:27:25Z</time>
      </trkpt>
      <trkpt lat="44.05167" lon="5.24643">
        <ele>439.89</ele>
        <time>2019-04-28T09:27:35Z</time>
      </trkpt>
      <trkpt lat="44.05167" lon="5.24643">
        <ele>439.722</ele>
        <time>2019-04-28T09:27:46Z</time>
      </trkpt>
      <trkpt lat="44.05167" lon="5.24643">
        <ele>439.55</ele>
        <time>2019-04-28T09:27:56Z</time>
      </trkpt>
      <trkpt lat="44.05167" lon="5.24643">
        <ele>439.352</ele>
        <time>2019-04-28T09:28:07Z</time>
      </trkpt>
      <trkpt lat="44.05167" lon="5.24643">
        <ele>439.188</ele>
        <time>2019-04-28T09:28:17Z</time>
      </trkpt>
      <trkpt lat="44.05167" lon="5.24643">
        <ele>438.41</ele>
        <time>2019-04-28T09:28:28Z</time>
      </trkpt>
      <trkpt lat="44.05171" lon="5.24628">
        <ele>437.226</ele>
        <time>2019-04-28T09:28:38Z</time>
      </trkpt>
      <trkpt lat="44.05175" lon="5.24675">
        <ele>433.002</ele>
        <time>2019-04-28T09:28:48Z</time>
      </trkpt>
      <trkpt lat="44.05108" lon="5.24703">
        <ele>429.916</ele>
        <time>2019-04-28T09:28:59Z</time>
      </trkpt>
      <trkpt lat="44.05138" lon="5.24787">
        <ele>429.317</ele>
        <time>2019-04-28T09:29:10Z</time>
      </trkpt>
      <trkpt lat="44.05205" lon="5.24785">
        <ele>427.499</ele>
        <time>2019-04-28T09:29:20Z</time>
      </trkpt>
      <trkpt lat="44.0528" lon="5.24785">
        <ele>425.328</ele>
        <time>2019-04-28T09:29:31Z</time>
      </trkpt>
      <trkpt lat="44.05343" lon="5.24759">
        <ele>422.364</ele>
        <time>2019-04-28T09:29:41Z</time>
      </trkpt>
      <trkpt lat="44.0541" lon="5.24713">
        <ele>419.138</ele>
        <time>2019-04-28T09:29:51Z</time>
      </trkpt>
      <trkpt lat="44.05488" lon="5.24731">
        <ele>416.244</ele>
        <time>2019-04-28T09:30:02Z</time>
      </trkpt>
      <trkpt lat="44.05558" lon="5.24718">
        <ele>413.557</ele>
        <time>2019-04-28T09:30:12Z</time>
      </trkpt>
      <trkpt lat="44.05644" lon="5.24732">
        <ele>409.771</ele>
        <time>2019-04-28T09:30:22Z</time>
      </trkpt>
      <trkpt lat="44.05725" lon="5.24812">
        <ele>406.505</ele>
        <time>2019-04-28T09:30:33Z</time>
      </trkpt>
      <trkpt lat="44.05793" lon="5.24876">
        <ele>403.216</ele>
        <time>2019-04-28T09:30:44Z</time>
      </trkpt>
      <trkpt lat="44.05794" lon="5.24786">
        <ele>401.331</ele>
        <time>2019-04-28T09:30:54Z</time>
      </trkpt>
      <trkpt lat="44.05724" lon="5.24737">
        <ele>400.192</ele>
        <time>2019-04-28T09:31:05Z</time>
      </trkpt>
      <trkpt lat="44.05669" lon="5.24641">
        <ele>394.903</ele>
        <time>2019-04-28T09:31:15Z</time>
      </trkpt>
      <trkpt lat="44.05609" lon="5.24535">
        <ele>389.942</ele>
        <time>2019-04-28T09:31:26Z</time>
      </trkpt>
      <trkpt lat="44.05554" lon="5.24429">
        <ele>387.261</ele>
        <time>2019-04-28T09:31:37Z</time>
      </trkpt>
      <trkpt lat="44.05482" lon="5.24347">
        <ele>381.974</ele>
        <time>2019-04-28T09:31:48Z</time>
      </trkpt>
      <trkpt lat="44.05435" lon="5.24232">
        <ele>377.169</ele>
        <time>2019-04-28T09:31:59Z</time>
      </trkpt>
      <trkpt lat="44.05377" lon="5.24167">
        <ele>374.95</ele>
        <time>2019-04-28T09:32:09Z</time>
      </trkpt>
      <trkpt lat="44.05355" lon="5.24073">
        <ele>371.504</ele>
        <time>2019-04-28T09:32:20Z</time>
      </trkpt>
      <trkpt lat="44.05385" lon="5.23973">
        <ele>369.38</ele>
        <time>2019-04-28T09:32:31Z</time>
      </trkpt>
      <trkpt lat="44.05389" lon="5.23866">
        <ele>365.966</ele>
        <time>2019-04-28T09:32:41Z</time>
      </trkpt>
      <trkpt lat="44.05445" lon="5.23791">
        <ele>363.572</ele>
        <time>2019-04-28T09:32:52Z</time>
      </trkpt>
      <trkpt lat="44.05503" lon="5.2374">
        <ele>360.824</ele>
        <time>2019-04-28T09:33:03Z</time>
      </trkpt>
      <trkpt lat="44.05558" lon="5.2373">
        <ele>358.528</ele>
        <time>2019-04-28T09:33:13Z</time>
      </trkpt>
      <trkpt lat="44.05616" lon="5.23706">
        <ele>356.406</ele>
        <time>2019-04-28T09:33:24Z</time>
      </trkpt>
      <trkpt lat="44.05655" lon="5.23704">
        <ele>354.769</ele>
        <time>2019-04-28T09:33:34Z</time>
      </trkpt>
      <trkpt lat="44.05683" lon="5.23671">
        <ele>353.747</ele>
        <time>2019-04-28T09:33:44Z</time>
      </trkpt>
      <trkpt lat="44.05728" lon="5.23595">
        <ele>353.339</ele>
        <time>2019-04-28T09:33:55Z</time>
      </trkpt>
      <trkpt lat="44.05773" lon="5.23524">
        <ele>354.167</ele>
        <time>2019-04-28T09:34:06Z</time>
      </trkpt>
      <trkpt lat="44.05805" lon="5.2351">
        <ele>354.237</ele>
        <time>2019-04-28T09:34:17Z</time>
      </trkpt>
      <trkpt lat="44.05839" lon="5.23494">
        <ele>354.176</ele>
        <time>2019-04-28T09:34:28Z</time>
      </trkpt>
      <trkpt lat="44.05869" lon="5.23456">
        <ele>355.281</ele>
        <time>2019-04-28T09:34:38Z</time>
      </trkpt>
      <trkpt lat="44.05879" lon="5.23395">
        <ele>354.095</ele>
        <time>2019-04-28T09:34:49Z</time>
      </trkpt>
      <trkpt lat="44.05875" lon="5.23366">
        <ele>352.08</ele>
        <time>2019-04-28T09:35:00Z</time>
      </trkpt>
      <trkpt lat="44.05825" lon="5.23341">
        <ele>350.019</ele>
        <time>2019-04-28T09:35:10Z</time>
      </trkpt>
      <trkpt lat="44.05801" lon="5.23302">
        <ele>346.954</ele>
        <time>2019-04-28T09:35:21Z</time>
      </trkpt>
      <trkpt lat="44.05801" lon="5.23302">
        <ele>346.355</ele>
        <time>2019-04-28T09:35:32Z</time>
      </trkpt>
      <trkpt lat="44.05801" lon="5.23302">
        <ele>346.422</ele>
        <time>2019-04-28T09:35:43Z</time>
      </trkpt>
      <trkpt lat="44.05785" lon="5.2332">
        <ele>346.729</ele>
        <time>2019-04-28T09:35:53Z</time>
      </trkpt>
      <trkpt lat="44.05777" lon="5.23328">
        <ele>346.957</ele>
        <time>2019-04-28T09:36:04Z</time>
      </trkpt>
      <trkpt lat="44.05774" lon="5.23355">
        <ele>346.839</ele>
        <time>2019-04-28T09:36:14Z</time>
      </trkpt>
      <trkpt lat="44.0577" lon="5.23384">
        <ele>346.747</ele>
        <time>2019-04-28T09:36:25Z</time>
      </trkpt>
      <trkpt lat="44.05773" lon="5.23403">
        <ele>347.002</ele>
        <time>2019-04-28T09:36:35Z</time>
      </trkpt>
      <trkpt lat="44.05773" lon="5.23403">
        <ele>347.026</ele>
        <time>2019-04-28T09:36:46Z</time>
      </trkpt>
      <trkpt lat="44.05774" lon="5.23409">
        <ele>347.007</ele>
        <time>2019-04-28T09:36:56Z</time>
      </trkpt>
      <trkpt lat="44.05774" lon="5.23409">
        <ele>346.875</ele>
        <time>2019-04-28T09:37:07Z</time>
      </trkpt>
      <trkpt lat="44.05774" lon="5.23409">
        <ele>346.79</ele>
        <time>2019-04-28T09:37:17Z</time>
      </trkpt>
      <trkpt lat="44.05774" lon="5.23409">
        <ele>346.785</ele>
        <time>2019-04-28T09:37:28Z</time>
      </trkpt>
      <trkpt lat="44.05774" lon="5.23409">
        <ele>346.876</ele>
        <time>2019-04-28T09:37:38Z</time>
      </trkpt>
      <trkpt lat="44.05771" lon="5.23414">
        <ele>346.975</ele>
        <time>2019-04-28T09:37:48Z</time>
      </trkpt>
      <trkpt lat="44.05771" lon="5.23414">
        <ele>347.029</ele>
        <time>2019-04-28T09:37:59Z</time>
      </trkpt>
      <trkpt lat="44.05771" lon="5.23409">
        <ele>347.214</ele>
        <time>2019-04-28T09:38:09Z</time>
      </trkpt>
      <trkpt lat="44.05771" lon="5.234">
        <ele>347.378</ele>
        <time>2019-04-28T09:38:20Z</time>
      </trkpt>
      <trkpt lat="44.05771" lon="5.23394">
        <ele>347.445</ele>
        <time>2019-04-28T09:38:31Z</time>
      </trkpt>
      <trkpt lat="44.05771" lon="5.23394">
        <ele>347.696</ele>
        <time>2019-04-28T09:38:41Z</time>
      </trkpt>
      <trkpt lat="44.05771" lon="5.23389">
        <ele>348.326</ele>
        <time>2019-04-28T09:38:52Z</time>
      </trkpt>
      <trkpt lat="44.05779" lon="5.23388">
        <ele>348.403</ele>
        <time>2019-04-28T09:39:04Z</time>
      </trkpt>
      <trkpt lat="44.05788" lon="5.23385">
        <ele>347.789</ele>
        <time>2019-04-28T09:39:14Z</time>
      </trkpt>
      <trkpt lat="44.0579" lon="5.23392">
        <ele>346.459</ele>
        <time>2019-04-28T09:39:24Z</time>
      </trkpt>
      <trkpt lat="44.05788" lon="5.23391">
        <ele>343.401</ele>
        <time>2019-04-28T09:39:35Z</time>
      </trkpt>
      <trkpt lat="44.05789" lon="5.2339">
        <ele>342.875</ele>
        <time>2019-04-28T09:39:46Z</time>
      </trkpt>
      <trkpt lat="44.05788" lon="5.2339">
        <ele>341.906</ele>
        <time>2019-04-28T09:39:56Z</time>
      </trkpt>
      <trkpt lat="44.05804" lon="5.23376">
        <ele>331.933</ele>
        <time>2019-04-28T09:40:34Z</time>
      </trkpt>
      <trkpt lat="44.05819" lon="5.23374">
        <ele>199.038</ele>
        <time>2019-04-28T09:41:08Z</time>
      </trkpt>
      <trkpt lat="44.05822" lon="5.23369">
        <ele>201.514</ele>
        <time>2019-04-28T09:41:19Z</time>
      </trkpt>
      <trkpt lat="44.05818" lon="5.23361">
        <ele>202.268</ele>
        <time>2019-04-28T09:41:30Z</time>
      </trkpt>
      <trkpt lat="44.05816" lon="5.23354">
        <ele>202.749</ele>
        <time>2019-04-28T09:41:41Z</time>
      </trkpt>
      <trkpt lat="44.05814" lon="5.23356">
        <ele>203.846</ele>
        <time>2019-04-28T09:41:52Z</time>
      </trkpt>
      <trkpt lat="44.05814" lon="5.23367">
        <ele>209.906</ele>
        <time>2019-04-28T09:42:03Z</time>
      </trkpt>
      <trkpt lat="44.05817" lon="5.23372">
        <ele>215.167</ele>
        <time>2019-04-28T09:42:14Z</time>
      </trkpt>
      <trkpt lat="44.05817" lon="5.23371">
        <ele>219.153</ele>
        <time>2019-04-28T09:42:25Z</time>
      </trkpt>
      <trkpt lat="44.05814" lon="5.23366">
        <ele>234.373</ele>
        <time>2019-04-28T09:42:36Z</time>
      </trkpt>
      <trkpt lat="44.05818" lon="5.23364">
        <ele>236.887</ele>
        <time>2019-04-28T09:42:46Z</time>
      </trkpt>
      <trkpt lat="44.05817" lon="5.23362">
        <ele>239.731</ele>
        <time>2019-04-28T09:42:56Z</time>
      </trkpt>
      <trkpt lat="44.05815" lon="5.23364">
        <ele>239.179</ele>
        <time>2019-04-28T09:43:06Z</time>
      </trkpt>
      <trkpt lat="44.05818" lon="5.23374">
        <ele>239.296</ele>
        <time>2019-04-28T09:43:17Z</time>
      </trkpt>
      <trkpt lat="44.05818" lon="5.23375">
        <ele>239.953</ele>
        <time>2019-04-28T09:43:28Z</time>
      </trkpt>
      <trkpt lat="44.05819" lon="5.23382">
        <ele>239.762</ele>
        <time>2019-04-28T09:43:38Z</time>
      </trkpt>
      <trkpt lat="44.05821" lon="5.23387">
        <ele>238.269</ele>
        <time>2019-04-28T09:43:48Z</time>
      </trkpt>
      <trkpt lat="44.05799" lon="5.23409">
        <ele>239.266</ele>
        <time>2019-04-28T09:43:59Z</time>
      </trkpt>
      <trkpt lat="44.0578" lon="5.2339">
        <ele>241.675</ele>
        <time>2019-04-28T09:44:09Z</time>
      </trkpt>
      <trkpt lat="44.0578" lon="5.23389">
        <ele>243.829</ele>
        <time>2019-04-28T09:44:20Z</time>
      </trkpt>
      <trkpt lat="44.05778" lon="5.23388">
        <ele>246.006</ele>
        <time>2019-04-28T09:44:31Z</time>
      </trkpt>
      <trkpt lat="44.05777" lon="5.23387">
        <ele>248.152</ele>
        <time>2019-04-28T09:44:42Z</time>
      </trkpt>
      <trkpt lat="44.05777" lon="5.23387">
        <ele>250.064</ele>
        <time>2019-04-28T09:44:52Z</time>
      </trkpt>
      <trkpt lat="44.05775" lon="5.23386">
        <ele>251.954</ele>
        <time>2019-04-28T09:45:02Z</time>
      </trkpt>
      <trkpt lat="44.05774" lon="5.23384">
        <ele>255.489</ele>
        <time>2019-04-28T09:45:12Z</time>
      </trkpt>
      <trkpt lat="44.05774" lon="5.23383">
        <ele>260.629</ele>
        <time>2019-04-28T09:45:23Z</time>
      </trkpt>
      <trkpt lat="44.05775" lon="5.23381">
        <ele>268.422</ele>
        <time>2019-04-28T09:45:34Z</time>
      </trkpt>
      <trkpt lat="44.05774" lon="5.23381">
        <ele>274.427</ele>
        <time>2019-04-28T09:45:45Z</time>
      </trkpt>
      <trkpt lat="44.05767" lon="5.23378">
        <ele>299.119</ele>
        <time>2019-04-28T09:45:56Z</time>
      </trkpt>
      <trkpt lat="44.05769" lon="5.23384">
        <ele>307.572</ele>
        <time>2019-04-28T09:46:06Z</time>
      </trkpt>
      <trkpt lat="44.05769" lon="5.23384">
        <ele>308.654</ele>
        <time>2019-04-28T09:46:17Z</time>
      </trkpt>
      <trkpt lat="44.0577" lon="5.23384">
        <ele>309.624</ele>
        <time>2019-04-28T09:46:28Z</time>
      </trkpt>
      <trkpt lat="44.05771" lon="5.23383">
        <ele>312.686</ele>
        <time>2019-04-28T09:46:38Z</time>
      </trkpt>
      <trkpt lat="44.05773" lon="5.23382">
        <ele>314.88</ele>
        <time>2019-04-28T09:46:49Z</time>
      </trkpt>
      <trkpt lat="44.05776" lon="5.23381">
        <ele>317.255</ele>
        <time>2019-04-28T09:46:59Z</time>
      </trkpt>
      <trkpt lat="44.05774" lon="5.23379">
        <ele>318.916</ele>
        <time>2019-04-28T09:47:10Z</time>
      </trkpt>
      <trkpt lat="44.05774" lon="5.23378">
        <ele>319.508</ele>
        <time>2019-04-28T09:47:20Z</time>
      </trkpt>
      <trkpt lat="44.05774" lon="5.23379">
        <ele>320.158</ele>
        <time>2019-04-28T09:47:31Z</time>
      </trkpt>
      <trkpt lat="44.05775" lon="5.23378">
        <ele>320.779</ele>
        <time>2019-04-28T09:47:42Z</time>
      </trkpt>
      <trkpt lat="44.05775" lon="5.23378">
        <ele>321.389</ele>
        <time>2019-04-28T09:47:52Z</time>
      </trkpt>
      <trkpt lat="44.05775" lon="5.23379">
        <ele>322.094</ele>
        <time>2019-04-28T09:48:03Z</time>
      </trkpt>
      <trkpt lat="44.05775" lon="5.2338">
        <ele>322.787</ele>
        <time>2019-04-28T09:48:14Z</time>
      </trkpt>
      <trkpt lat="44.05775" lon="5.2338">
        <ele>323.486</ele>
        <time>2019-04-28T09:48:25Z</time>
      </trkpt>
      <trkpt lat="44.05775" lon="5.2338">
        <ele>324.207</ele>
        <time>2019-04-28T09:48:36Z</time>
      </trkpt>
      <trkpt lat="44.05775" lon="5.2338">
        <ele>324.795</ele>
        <time>2019-04-28T09:48:46Z</time>
      </trkpt>
      <trkpt lat="44.05776" lon="5.23379">
        <ele>325.245</ele>
        <time>2019-04-28T09:48:56Z</time>
      </trkpt>
      <trkpt lat="44.05776" lon="5.23379">
        <ele>325.717</ele>
        <time>2019-04-28T09:49:06Z</time>
      </trkpt>
      <trkpt lat="44.05776" lon="5.2338">
        <ele>326.324</ele>
        <time>2019-04-28T09:49:16Z</time>
      </trkpt>
      <trkpt lat="44.05776" lon="5.23378">
        <ele>326.996</ele>
        <time>2019-04-28T09:49:27Z</time>
      </trkpt>
      <trkpt lat="44.05776" lon="5.23379">
        <ele>327.663</ele>
        <time>2019-04-28T09:49:37Z</time>
      </trkpt>
      <trkpt lat="44.05776" lon="5.23378">
        <ele>328.714</ele>
        <time>2019-04-28T09:49:47Z</time>
      </trkpt>
      <trkpt lat="44.05777" lon="5.23379">
        <ele>331.549</ele>
        <time>2019-04-28T09:49:58Z</time>
      </trkpt>
      <trkpt lat="44.05776" lon="5.23376">
        <ele>332.837</ele>
        <time>2019-04-28T09:50:08Z</time>
      </trkpt>
      <trkpt lat="44.05776" lon="5.23377">
        <ele>333.433</ele>
        <time>2019-04-28T09:50:19Z</time>
      </trkpt>
      <trkpt lat="44.05776" lon="5.23377">
        <ele>333.739</ele>
        <time>2019-04-28T09:50:29Z</time>
      </trkpt>
      <trkpt lat="44.05775" lon="5.23378">
        <ele>334.078</ele>
        <time>2019-04-28T09:50:39Z</time>
      </trkpt>
      <trkpt lat="44.05769" lon="5.23381">
        <ele>336.317</ele>
        <time>2019-04-28T09:50:50Z</time>
      </trkpt>
      <trkpt lat="44.05776" lon="5.23418">
        <ele>339.894</ele>
        <time>2019-04-28T09:51:00Z</time>
      </trkpt>
      <trkpt lat="44.05788" lon="5.23464">
        <ele>342.232</ele>
        <time>2019-04-28T09:51:11Z</time>
      </trkpt>
      <trkpt lat="44.05809" lon="5.23496">
        <ele>344.11</ele>
        <time>2019-04-28T09:51:21Z</time>
      </trkpt>
      <trkpt lat="44.05841" lon="5.23497">
        <ele>346.249</ele>
        <time>2019-04-28T09:51:32Z</time>
      </trkpt>
      <trkpt lat="44.05872" lon="5.23458">
        <ele>346.489</ele>
        <time>2019-04-28T09:51:43Z</time>
      </trkpt>
      <trkpt lat="44.05881" lon="5.23405">
        <ele>346.605</ele>
        <time>2019-04-28T09:51:53Z</time>
      </trkpt>
      <trkpt lat="44.05857" lon="5.23333">
        <ele>351.061</ele>
        <time>2019-04-28T09:52:04Z</time>
      </trkpt>
      <trkpt lat="44.05811" lon="5.2331">
        <ele>350.107</ele>
        <time>2019-04-28T09:52:14Z</time>
      </trkpt>
      <trkpt lat="44.05793" lon="5.23231">
        <ele>344.842</ele>
        <time>2019-04-28T09:52:25Z</time>
      </trkpt>
      <trkpt lat="44.05767" lon="5.23151">
        <ele>339.602</ele>
        <time>2019-04-28T09:52:36Z</time>
      </trkpt>
      <trkpt lat="44.05755" lon="5.23069">
        <ele>337.113</ele>
        <time>2019-04-28T09:52:46Z</time>
      </trkpt>
      <trkpt lat="44.05741" lon="5.22984">
        <ele>337.678</ele>
        <time>2019-04-28T09:52:56Z</time>
      </trkpt>
      <trkpt lat="44.05735" lon="5.2289">
        <ele>335.945</ele>
        <time>2019-04-28T09:53:07Z</time>
      </trkpt>
      <trkpt lat="44.05728" lon="5.2281">
        <ele>334.619</ele>
        <time>2019-04-28T09:53:17Z</time>
      </trkpt>
      <trkpt lat="44.05724" lon="5.22715">
        <ele>331.202</ele>
        <time>2019-04-28T09:53:28Z</time>
      </trkpt>
      <trkpt lat="44.0571" lon="5.22623">
        <ele>330.939</ele>
        <time>2019-04-28T09:53:39Z</time>
      </trkpt>
      <trkpt lat="44.05704" lon="5.22526">
        <ele>330.508</ele>
        <time>2019-04-28T09:53:50Z</time>
      </trkpt>
      <trkpt lat="44.05687" lon="5.22446">
        <ele>328.314</ele>
        <time>2019-04-28T09:54:00Z</time>
      </trkpt>
      <trkpt lat="44.05635" lon="5.22374">
        <ele>327.926</ele>
        <time>2019-04-28T09:54:11Z</time>
      </trkpt>
      <trkpt lat="44.05586" lon="5.22315">
        <ele>326.891</ele>
        <time>2019-04-28T09:54:21Z</time>
      </trkpt>
      <trkpt lat="44.05535" lon="5.22237">
        <ele>324.192</ele>
        <time>2019-04-28T09:54:32Z</time>
      </trkpt>
      <trkpt lat="44.05463" lon="5.22177">
        <ele>320.119</ele>
        <time>2019-04-28T09:54:43Z</time>
      </trkpt>
      <trkpt lat="44.05404" lon="5.22111">
        <ele>319.137</ele>
        <time>2019-04-28T09:54:53Z</time>
      </trkpt>
      <trkpt lat="44.0533" lon="5.22033">
        <ele>318.541</ele>
        <time>2019-04-28T09:55:04Z</time>
      </trkpt>
      <trkpt lat="44.05265" lon="5.21959">
        <ele>316.874</ele>
        <time>2019-04-28T09:55:15Z</time>
      </trkpt>
      <trkpt lat="44.052" lon="5.21895">
        <ele>315.392</ele>
        <time>2019-04-28T09:55:26Z</time>
      </trkpt>
      <trkpt lat="44.05123" lon="5.21885">
        <ele>313.801</ele>
        <time>2019-04-28T09:55:36Z</time>
      </trkpt>
      <trkpt lat="44.0504" lon="5.21872">
        <ele>312.791</ele>
        <time>2019-04-28T09:55:47Z</time>
      </trkpt>
      <trkpt lat="44.04963" lon="5.21848">
        <ele>312.201</ele>
        <time>2019-04-28T09:55:58Z</time>
      </trkpt>
      <trkpt lat="44.04876" lon="5.21823">
        <ele>311.444</ele>
        <time>2019-04-28T09:56:08Z</time>
      </trkpt>
      <trkpt lat="44.04789" lon="5.21816">
        <ele>308.809</ele>
        <time>2019-04-28T09:56:19Z</time>
      </trkpt>
      <trkpt lat="44.04712" lon="5.21805">
        <ele>306.96</ele>
        <time>2019-04-28T09:56:30Z</time>
      </trkpt>
      <trkpt lat="44.04637" lon="5.21775">
        <ele>305.952</ele>
        <time>2019-04-28T09:56:41Z</time>
      </trkpt>
      <trkpt lat="44.04567" lon="5.21747">
        <ele>305.004</ele>
        <time>2019-04-28T09:56:51Z</time>
      </trkpt>
      <trkpt lat="44.04493" lon="5.21741">
        <ele>303.648</ele>
        <time>2019-04-28T09:57:02Z</time>
      </trkpt>
      <trkpt lat="44.04431" lon="5.21739">
        <ele>303.28</ele>
        <time>2019-04-28T09:57:13Z</time>
      </trkpt>
      <trkpt lat="44.04377" lon="5.21736">
        <ele>303.039</ele>
        <time>2019-04-28T09:57:24Z</time>
      </trkpt>
      <trkpt lat="44.04326" lon="5.21734">
        <ele>303.058</ele>
        <time>2019-04-28T09:57:35Z</time>
      </trkpt>
      <trkpt lat="44.04292" lon="5.21731">
        <ele>303.992</ele>
        <time>2019-04-28T09:57:45Z</time>
      </trkpt>
      <trkpt lat="44.04243" lon="5.21727">
        <ele>303.958</ele>
        <time>2019-04-28T09:57:56Z</time>
      </trkpt>
      <trkpt lat="44.04194" lon="5.21725">
        <ele>304.514</ele>
        <time>2019-04-28T09:58:07Z</time>
      </trkpt>
      <trkpt lat="44.04143" lon="5.21723">
        <ele>305.551</ele>
        <time>2019-04-28T09:58:18Z</time>
      </trkpt>
      <trkpt lat="44.04101" lon="5.21718">
        <ele>305.929</ele>
        <time>2019-04-28T09:58:28Z</time>
      </trkpt>
      <trkpt lat="44.04052" lon="5.21722">
        <ele>307.611</ele>
        <time>2019-04-28T09:58:38Z</time>
      </trkpt>
      <trkpt lat="44.04" lon="5.21725">
        <ele>308.518</ele>
        <time>2019-04-28T09:58:49Z</time>
      </trkpt>
      <trkpt lat="44.03932" lon="5.2173">
        <ele>307.113</ele>
        <time>2019-04-28T09:59:00Z</time>
      </trkpt>
      <trkpt lat="44.03862" lon="5.21727">
        <ele>306.06</ele>
        <time>2019-04-28T09:59:10Z</time>
      </trkpt>
      <trkpt lat="44.03781" lon="5.21733">
        <ele>305.17</ele>
        <time>2019-04-28T09:59:20Z</time>
      </trkpt>
      <trkpt lat="44.03696" lon="5.21735">
        <ele>303.82</ele>
        <time>2019-04-28T09:59:31Z</time>
      </trkpt>
      <trkpt lat="44.03628" lon="5.21736">
        <ele>303.194</ele>
        <time>2019-04-28T09:59:41Z</time>
      </trkpt>
      <trkpt lat="44.03586" lon="5.21735">
        <ele>303.243</ele>
        <time>2019-04-28T09:59:52Z</time>
      </trkpt>
      <trkpt lat="44.03554" lon="5.21734">
        <ele>303.369</ele>
        <time>2019-04-28T10:00:03Z</time>
      </trkpt>
      <trkpt lat="44.03526" lon="5.21743">
        <ele>303.641</ele>
        <time>2019-04-28T10:00:14Z</time>
      </trkpt>
      <trkpt lat="44.03504" lon="5.21778">
        <ele>304.381</ele>
        <time>2019-04-28T10:00:25Z</time>
      </trkpt>
      <trkpt lat="44.0348" lon="5.21821">
        <ele>306</ele>
        <time>2019-04-28T10:00:36Z</time>
      </trkpt>
      <trkpt lat="44.03444" lon="5.21856">
        <ele>307.454</ele>
        <time>2019-04-28T10:00:47Z</time>
      </trkpt>
      <trkpt lat="44.03393" lon="5.21851">
        <ele>309.662</ele>
        <time>2019-04-28T10:00:58Z</time>
      </trkpt>
      <trkpt lat="44.03348" lon="5.21839">
        <ele>311.438</ele>
        <time>2019-04-28T10:01:09Z</time>
      </trkpt>
      <trkpt lat="44.03298" lon="5.2182">
        <ele>312.026</ele>
        <time>2019-04-28T10:01:19Z</time>
      </trkpt>
      <trkpt lat="44.03234" lon="5.21797">
        <ele>312.632</ele>
        <time>2019-04-28T10:01:29Z</time>
      </trkpt>
      <trkpt lat="44.03159" lon="5.21764">
        <ele>311</ele>
        <time>2019-04-28T10:01:39Z</time>
      </trkpt>
      <trkpt lat="44.03081" lon="5.21727">
        <ele>309.502</ele>
        <time>2019-04-28T10:01:50Z</time>
      </trkpt>
      <trkpt lat="44.03026" lon="5.21691">
        <ele>308.796</ele>
        <time>2019-04-28T10:02:00Z</time>
      </trkpt>
      <trkpt lat="44.02968" lon="5.21662">
        <ele>308.665</ele>
        <time>2019-04-28T10:02:11Z</time>
      </trkpt>
      <trkpt lat="44.02907" lon="5.21643">
        <ele>307.52</ele>
        <time>2019-04-28T10:02:22Z</time>
      </trkpt>
      <trkpt lat="44.02855" lon="5.21636">
        <ele>306.525</ele>
        <time>2019-04-28T10:02:32Z</time>
      </trkpt>
      <trkpt lat="44.02796" lon="5.2162">
        <ele>306.148</ele>
        <time>2019-04-28T10:02:43Z</time>
      </trkpt>
      <trkpt lat="44.02739" lon="5.21608">
        <ele>306.832</ele>
        <time>2019-04-28T10:02:54Z</time>
      </trkpt>
      <trkpt lat="44.02681" lon="5.21599">
        <ele>308.529</ele>
        <time>2019-04-28T10:03:05Z</time>
      </trkpt>
      <trkpt lat="44.02626" lon="5.21584">
        <ele>308.953</ele>
        <time>2019-04-28T10:03:16Z</time>
      </trkpt>
      <trkpt lat="44.02566" lon="5.21561">
        <ele>311.394</ele>
        <time>2019-04-28T10:03:28Z</time>
      </trkpt>
      <trkpt lat="44.02511" lon="5.2154">
        <ele>312.487</ele>
        <time>2019-04-28T10:03:39Z</time>
      </trkpt>
      <trkpt lat="44.0246" lon="5.21521">
        <ele>313.256</ele>
        <time>2019-04-28T10:03:50Z</time>
      </trkpt>
      <trkpt lat="44.02414" lon="5.21503">
        <ele>314.159</ele>
        <time>2019-04-28T10:04:01Z</time>
      </trkpt>
      <trkpt lat="44.02377" lon="5.2149">
        <ele>314.755</ele>
        <time>2019-04-28T10:04:11Z</time>
      </trkpt>
      <trkpt lat="44.02336" lon="5.21476">
        <ele>315.639</ele>
        <time>2019-04-28T10:04:22Z</time>
      </trkpt>
      <trkpt lat="44.0229" lon="5.21459">
        <ele>316.302</ele>
        <time>2019-04-28T10:04:33Z</time>
      </trkpt>
      <trkpt lat="44.02245" lon="5.2144">
        <ele>316.908</ele>
        <time>2019-04-28T10:04:44Z</time>
      </trkpt>
      <trkpt lat="44.022" lon="5.21424">
        <ele>317.458</ele>
        <time>2019-04-28T10:04:55Z</time>
      </trkpt>
      <trkpt lat="44.02144" lon="5.21402">
        <ele>317.804</ele>
        <time>2019-04-28T10:05:05Z</time>
      </trkpt>
      <trkpt lat="44.02073" lon="5.21388">
        <ele>317.502</ele>
        <time>2019-04-28T10:05:15Z</time>
      </trkpt>
      <trkpt lat="44.01999" lon="5.21433">
        <ele>316.848</ele>
        <time>2019-04-28T10:05:25Z</time>
      </trkpt>
      <trkpt lat="44.01921" lon="5.21518">
        <ele>315.933</ele>
        <time>2019-04-28T10:05:36Z</time>
      </trkpt>
      <trkpt lat="44.01849" lon="5.21596">
        <ele>315.25</ele>
        <time>2019-04-28T10:05:46Z</time>
      </trkpt>
      <trkpt lat="44.01774" lon="5.21623">
        <ele>314.544</ele>
        <time>2019-04-28T10:05:56Z</time>
      </trkpt>
      <trkpt lat="44.01702" lon="5.21637">
        <ele>314.077</ele>
        <time>2019-04-28T10:06:07Z</time>
      </trkpt>
      <trkpt lat="44.01665" lon="5.21675">
        <ele>314.14</ele>
        <time>2019-04-28T10:06:18Z</time>
      </trkpt>
      <trkpt lat="44.01633" lon="5.21696">
        <ele>314.282</ele>
        <time>2019-04-28T10:06:29Z</time>
      </trkpt>
      <trkpt lat="44.01594" lon="5.21703">
        <ele>314.896</ele>
        <time>2019-04-28T10:06:40Z</time>
      </trkpt>
      <trkpt lat="44.01559" lon="5.21714">
        <ele>315.599</ele>
        <time>2019-04-28T10:06:50Z</time>
      </trkpt>
      <trkpt lat="44.0152" lon="5.21744">
        <ele>317.369</ele>
        <time>2019-04-28T10:07:01Z</time>
      </trkpt>
      <trkpt lat="44.01479" lon="5.21776">
        <ele>318.292</ele>
        <time>2019-04-28T10:07:12Z</time>
      </trkpt>
      <trkpt lat="44.01441" lon="5.21808">
        <ele>319.146</ele>
        <time>2019-04-28T10:07:22Z</time>
      </trkpt>
      <trkpt lat="44.01407" lon="5.21842">
        <ele>319.648</ele>
        <time>2019-04-28T10:07:33Z</time>
      </trkpt>
      <trkpt lat="44.0139" lon="5.21872">
        <ele>319.875</ele>
        <time>2019-04-28T10:07:44Z</time>
      </trkpt>
      <trkpt lat="44.01373" lon="5.21901">
        <ele>320.353</ele>
        <time>2019-04-28T10:07:55Z</time>
      </trkpt>
      <trkpt lat="44.01357" lon="5.2193">
        <ele>321.038</ele>
        <time>2019-04-28T10:08:06Z</time>
      </trkpt>
      <trkpt lat="44.01344" lon="5.21956">
        <ele>321.789</ele>
        <time>2019-04-28T10:08:16Z</time>
      </trkpt>
      <trkpt lat="44.01329" lon="5.21976">
        <ele>322.634</ele>
        <time>2019-04-28T10:08:26Z</time>
      </trkpt>
      <trkpt lat="44.01311" lon="5.21982">
        <ele>323.691</ele>
        <time>2019-04-28T10:08:37Z</time>
      </trkpt>
      <trkpt lat="44.01294" lon="5.21971">
        <ele>324.787</ele>
        <time>2019-04-28T10:08:47Z</time>
      </trkpt>
      <trkpt lat="44.01279" lon="5.21946">
        <ele>326.131</ele>
        <time>2019-04-28T10:08:58Z</time>
      </trkpt>
      <trkpt lat="44.01268" lon="5.21914">
        <ele>327.493</ele>
        <time>2019-04-28T10:09:09Z</time>
      </trkpt>
      <trkpt lat="44.01253" lon="5.21882">
        <ele>328.68</ele>
        <time>2019-04-28T10:09:19Z</time>
      </trkpt>
      <trkpt lat="44.0123" lon="5.21811">
        <ele>333.189</ele>
        <time>2019-04-28T10:09:30Z</time>
      </trkpt>
      <trkpt lat="44.01253" lon="5.21715">
        <ele>332.392</ele>
        <time>2019-04-28T10:09:40Z</time>
      </trkpt>
      <trkpt lat="44.01253" lon="5.2161">
        <ele>330.867</ele>
        <time>2019-04-28T10:09:51Z</time>
      </trkpt>
      <trkpt lat="44.01217" lon="5.21518">
        <ele>328.651</ele>
        <time>2019-04-28T10:10:02Z</time>
      </trkpt>
      <trkpt lat="44.01196" lon="5.21406">
        <ele>326.38</ele>
        <time>2019-04-28T10:10:13Z</time>
      </trkpt>
      <trkpt lat="44.01179" lon="5.21297">
        <ele>322.583</ele>
        <time>2019-04-28T10:10:23Z</time>
      </trkpt>
      <trkpt lat="44.0117" lon="5.21163">
        <ele>319.659</ele>
        <time>2019-04-28T10:10:34Z</time>
      </trkpt>
      <trkpt lat="44.01169" lon="5.21147">
        <ele>319.119</ele>
        <time>2019-04-28T10:10:45Z</time>
      </trkpt>
      <trkpt lat="44.0117" lon="5.21154">
        <ele>318.455</ele>
        <time>2019-04-28T10:10:55Z</time>
      </trkpt>
      <trkpt lat="44.0117" lon="5.21154">
        <ele>318.346</ele>
        <time>2019-04-28T10:11:05Z</time>
      </trkpt>
      <trkpt lat="44.0117" lon="5.21154">
        <ele>318.206</ele>
        <time>2019-04-28T10:11:16Z</time>
      </trkpt>
      <trkpt lat="44.0117" lon="5.21154">
        <ele>318.072</ele>
        <time>2019-04-28T10:11:26Z</time>
      </trkpt>
      <trkpt lat="44.0117" lon="5.21154">
        <ele>317.915</ele>
        <time>2019-04-28T10:11:37Z</time>
      </trkpt>
      <trkpt lat="44.0117" lon="5.21154">
        <ele>317.745</ele>
        <time>2019-04-28T10:11:48Z</time>
      </trkpt>
      <trkpt lat="44.0117" lon="5.21154">
        <ele>317.411</ele>
        <time>2019-04-28T10:11:58Z</time>
      </trkpt>
      <trkpt lat="44.0117" lon="5.21154">
        <ele>316.825</ele>
        <time>2019-04-28T10:12:09Z</time>
      </trkpt>
      <trkpt lat="44.0117" lon="5.21154">
        <ele>316.668</ele>
        <time>2019-04-28T10:12:20Z</time>
      </trkpt>
      <trkpt lat="44.0117" lon="5.21154">
        <ele>316.52</ele>
        <time>2019-04-28T10:12:31Z</time>
      </trkpt>
      <trkpt lat="44.0117" lon="5.21154">
        <ele>316.384</ele>
        <time>2019-04-28T10:12:42Z</time>
      </trkpt>
      <trkpt lat="44.0117" lon="5.21154">
        <ele>316.259</ele>
        <time>2019-04-28T10:12:53Z</time>
      </trkpt>
      <trkpt lat="44.01174" lon="5.21152">
        <ele>315.705</ele>
        <time>2019-04-28T10:13:04Z</time>
      </trkpt>
      <trkpt lat="44.01171" lon="5.21125">
        <ele>314.903</ele>
        <time>2019-04-28T10:13:14Z</time>
      </trkpt>
      <trkpt lat="44.0117" lon="5.21063">
        <ele>311.45</ele>
        <time>2019-04-28T10:13:24Z</time>
      </trkpt>
      <trkpt lat="44.01172" lon="5.20991">
        <ele>310.088</ele>
        <time>2019-04-28T10:13:35Z</time>
      </trkpt>
      <trkpt lat="44.01169" lon="5.2091">
        <ele>308.82</ele>
        <time>2019-04-28T10:13:45Z</time>
      </trkpt>
      <trkpt lat="44.01153" lon="5.20817">
        <ele>307.606</ele>
        <time>2019-04-28T10:13:56Z</time>
      </trkpt>
      <trkpt lat="44.01137" lon="5.20732">
        <ele>306.61</ele>
        <time>2019-04-28T10:14:07Z</time>
      </trkpt>
      <trkpt lat="44.01101" lon="5.2064">
        <ele>304.384</ele>
        <time>2019-04-28T10:14:17Z</time>
      </trkpt>
      <trkpt lat="44.01092" lon="5.20536">
        <ele>302.477</ele>
        <time>2019-04-28T10:14:28Z</time>
      </trkpt>
      <trkpt lat="44.01094" lon="5.20466">
        <ele>301.31</ele>
        <time>2019-04-28T10:14:39Z</time>
      </trkpt>
      <trkpt lat="44.01078" lon="5.20415">
        <ele>300.575</ele>
        <time>2019-04-28T10:14:49Z</time>
      </trkpt>
      <trkpt lat="44.01057" lon="5.20368">
        <ele>300.283</ele>
        <time>2019-04-28T10:15:00Z</time>
      </trkpt>
      <trkpt lat="44.01042" lon="5.20324">
        <ele>300.196</ele>
        <time>2019-04-28T10:15:10Z</time>
      </trkpt>
      <trkpt lat="44.01026" lon="5.20277">
        <ele>300.149</ele>
        <time>2019-04-28T10:15:21Z</time>
      </trkpt>
      <trkpt lat="44.01017" lon="5.20226">
        <ele>300.22</ele>
        <time>2019-04-28T10:15:31Z</time>
      </trkpt>
      <trkpt lat="44.0098" lon="5.20168">
        <ele>300.872</ele>
        <time>2019-04-28T10:15:42Z</time>
      </trkpt>
      <trkpt lat="44.00944" lon="5.20106">
        <ele>300.545</ele>
        <time>2019-04-28T10:15:52Z</time>
      </trkpt>
      <trkpt lat="44.00916" lon="5.20021">
        <ele>299.441</ele>
        <time>2019-04-28T10:16:03Z</time>
      </trkpt>
      <trkpt lat="44.00901" lon="5.1994">
        <ele>298.151</ele>
        <time>2019-04-28T10:16:13Z</time>
      </trkpt>
      <trkpt lat="44.00892" lon="5.19858">
        <ele>296.852</ele>
        <time>2019-04-28T10:16:24Z</time>
      </trkpt>
      <trkpt lat="44.00889" lon="5.19795">
        <ele>295.221</ele>
        <time>2019-04-28T10:16:35Z</time>
      </trkpt>
      <trkpt lat="44.00887" lon="5.19737">
        <ele>293.974</ele>
        <time>2019-04-28T10:16:45Z</time>
      </trkpt>
      <trkpt lat="44.0088" lon="5.19663">
        <ele>292.982</ele>
        <time>2019-04-28T10:16:56Z</time>
      </trkpt>
      <trkpt lat="44.00868" lon="5.19586">
        <ele>291.855</ele>
        <time>2019-04-28T10:17:06Z</time>
      </trkpt>
      <trkpt lat="44.00855" lon="5.19493">
        <ele>290.344</ele>
        <time>2019-04-28T10:17:17Z</time>
      </trkpt>
      <trkpt lat="44.00845" lon="5.19406">
        <ele>288.979</ele>
        <time>2019-04-28T10:17:28Z</time>
      </trkpt>
      <trkpt lat="44.00836" lon="5.19329">
        <ele>288.219</ele>
        <time>2019-04-28T10:17:39Z</time>
      </trkpt>
      <trkpt lat="44.00824" lon="5.19245">
        <ele>287.421</ele>
        <time>2019-04-28T10:17:50Z</time>
      </trkpt>
      <trkpt lat="44.00811" lon="5.19171">
        <ele>286.525</ele>
        <time>2019-04-28T10:18:00Z</time>
      </trkpt>
      <trkpt lat="44.00793" lon="5.1909">
        <ele>285.736</ele>
        <time>2019-04-28T10:18:11Z</time>
      </trkpt>
      <trkpt lat="44.00775" lon="5.19005">
        <ele>284.737</ele>
        <time>2019-04-28T10:18:22Z</time>
      </trkpt>
      <trkpt lat="44.00763" lon="5.18919">
        <ele>284.46</ele>
        <time>2019-04-28T10:18:33Z</time>
      </trkpt>
      <trkpt lat="44.00767" lon="5.18837">
        <ele>284.386</ele>
        <time>2019-04-28T10:18:44Z</time>
      </trkpt>
      <trkpt lat="44.0077" lon="5.18751">
        <ele>283.496</ele>
        <time>2019-04-28T10:18:55Z</time>
      </trkpt>
      <trkpt lat="44.00773" lon="5.18665">
        <ele>282.875</ele>
        <time>2019-04-28T10:19:06Z</time>
      </trkpt>
      <trkpt lat="44.00773" lon="5.18586">
        <ele>282.862</ele>
        <time>2019-04-28T10:19:17Z</time>
      </trkpt>
      <trkpt lat="44.00752" lon="5.18514">
        <ele>283.076</ele>
        <time>2019-04-28T10:19:28Z</time>
      </trkpt>
      <trkpt lat="44.00738" lon="5.18454">
        <ele>283.693</ele>
        <time>2019-04-28T10:19:38Z</time>
      </trkpt>
      <trkpt lat="44.00735" lon="5.18387">
        <ele>284.334</ele>
        <time>2019-04-28T10:19:49Z</time>
      </trkpt>
      <trkpt lat="44.00725" lon="5.18329">
        <ele>283.989</ele>
        <time>2019-04-28T10:19:59Z</time>
      </trkpt>
      <trkpt lat="44.00706" lon="5.18271">
        <ele>283.628</ele>
        <time>2019-04-28T10:20:10Z</time>
      </trkpt>
      <trkpt lat="44.00689" lon="5.18214">
        <ele>283.547</ele>
        <time>2019-04-28T10:20:21Z</time>
      </trkpt>
      <trkpt lat="44.0067" lon="5.18157">
        <ele>283.637</ele>
        <time>2019-04-28T10:20:31Z</time>
      </trkpt>
      <trkpt lat="44.0065" lon="5.18106">
        <ele>284.008</ele>
        <time>2019-04-28T10:20:41Z</time>
      </trkpt>
      <trkpt lat="44.00626" lon="5.18049">
        <ele>284.61</ele>
        <time>2019-04-28T10:20:52Z</time>
      </trkpt>
      <trkpt lat="44.00613" lon="5.17989">
        <ele>285.087</ele>
        <time>2019-04-28T10:21:03Z</time>
      </trkpt>
      <trkpt lat="44.00626" lon="5.17941">
        <ele>285.062</ele>
        <time>2019-04-28T10:21:14Z</time>
      </trkpt>
      <trkpt lat="44.00661" lon="5.17911">
        <ele>284.475</ele>
        <time>2019-04-28T10:21:25Z</time>
      </trkpt>
      <trkpt lat="44.00695" lon="5.1788">
        <ele>283.736</ele>
        <time>2019-04-28T10:21:36Z</time>
      </trkpt>
      <trkpt lat="44.00729" lon="5.17847">
        <ele>281.754</ele>
        <time>2019-04-28T10:21:46Z</time>
      </trkpt>
      <trkpt lat="44.00762" lon="5.17811">
        <ele>281.28</ele>
        <time>2019-04-28T10:21:57Z</time>
      </trkpt>
      <trkpt lat="44.00791" lon="5.17787">
        <ele>281.105</ele>
        <time>2019-04-28T10:22:07Z</time>
      </trkpt>
      <trkpt lat="44.00819" lon="5.17793">
        <ele>281.015</ele>
        <time>2019-04-28T10:22:18Z</time>
      </trkpt>
      <trkpt lat="44.00856" lon="5.17788">
        <ele>282.061</ele>
        <time>2019-04-28T10:22:29Z</time>
      </trkpt>
      <trkpt lat="44.00897" lon="5.1777">
        <ele>284.089</ele>
        <time>2019-04-28T10:22:40Z</time>
      </trkpt>
      <trkpt lat="44.00933" lon="5.17794">
        <ele>285.549</ele>
        <time>2019-04-28T10:22:51Z</time>
      </trkpt>
      <trkpt lat="44.00957" lon="5.17813">
        <ele>285.929</ele>
        <time>2019-04-28T10:23:01Z</time>
      </trkpt>
      <trkpt lat="44.00987" lon="5.1778">
        <ele>286.278</ele>
        <time>2019-04-28T10:23:11Z</time>
      </trkpt>
      <trkpt lat="44.00994" lon="5.17735">
        <ele>287.109</ele>
        <time>2019-04-28T10:23:22Z</time>
      </trkpt>
      <trkpt lat="44.00975" lon="5.17696">
        <ele>288.455</ele>
        <time>2019-04-28T10:23:33Z</time>
      </trkpt>
      <trkpt lat="44.00965" lon="5.17664">
        <ele>289.929</ele>
        <time>2019-04-28T10:23:43Z</time>
      </trkpt>
      <trkpt lat="44.00975" lon="5.17636">
        <ele>291.67</ele>
        <time>2019-04-28T10:23:54Z</time>
      </trkpt>
      <trkpt lat="44.0099" lon="5.17605">
        <ele>293.48</ele>
        <time>2019-04-28T10:24:05Z</time>
      </trkpt>
      <trkpt lat="44.00999" lon="5.17572">
        <ele>295.25</ele>
        <time>2019-04-28T10:24:16Z</time>
      </trkpt>
      <trkpt lat="44.01005" lon="5.17543">
        <ele>297.11</ele>
        <time>2019-04-28T10:24:26Z</time>
      </trkpt>
      <trkpt lat="44.01013" lon="5.17507">
        <ele>299.136</ele>
        <time>2019-04-28T10:24:37Z</time>
      </trkpt>
      <trkpt lat="44.01017" lon="5.17476">
        <ele>299.848</ele>
        <time>2019-04-28T10:24:47Z</time>
      </trkpt>
      <trkpt lat="44.01021" lon="5.17442">
        <ele>300.768</ele>
        <time>2019-04-28T10:24:58Z</time>
      </trkpt>
      <trkpt lat="44.01024" lon="5.17409">
        <ele>301.745</ele>
        <time>2019-04-28T10:25:09Z</time>
      </trkpt>
      <trkpt lat="44.01027" lon="5.17378">
        <ele>302.678</ele>
        <time>2019-04-28T10:25:20Z</time>
      </trkpt>
      <trkpt lat="44.0103" lon="5.17348">
        <ele>303.916</ele>
        <time>2019-04-28T10:25:30Z</time>
      </trkpt>
      <trkpt lat="44.0103" lon="5.17317">
        <ele>305.39</ele>
        <time>2019-04-28T10:25:42Z</time>
      </trkpt>
      <trkpt lat="44.01034" lon="5.17282">
        <ele>306.145</ele>
        <time>2019-04-28T10:25:52Z</time>
      </trkpt>
      <trkpt lat="44.01038" lon="5.17245">
        <ele>306.954</ele>
        <time>2019-04-28T10:26:02Z</time>
      </trkpt>
      <trkpt lat="44.01041" lon="5.17204">
        <ele>307.729</ele>
        <time>2019-04-28T10:26:12Z</time>
      </trkpt>
      <trkpt lat="44.01048" lon="5.17153">
        <ele>308.943</ele>
        <time>2019-04-28T10:26:23Z</time>
      </trkpt>
      <trkpt lat="44.01081" lon="5.17079">
        <ele>305.853</ele>
        <time>2019-04-28T10:26:34Z</time>
      </trkpt>
      <trkpt lat="44.01141" lon="5.17021">
        <ele>301.575</ele>
        <time>2019-04-28T10:26:45Z</time>
      </trkpt>
      <trkpt lat="44.01216" lon="5.16979">
        <ele>299.401</ele>
        <time>2019-04-28T10:26:56Z</time>
      </trkpt>
      <trkpt lat="44.01289" lon="5.16951">
        <ele>297.744</ele>
        <time>2019-04-28T10:27:06Z</time>
      </trkpt>
      <trkpt lat="44.01367" lon="5.16883">
        <ele>293.875</ele>
        <time>2019-04-28T10:27:17Z</time>
      </trkpt>
      <trkpt lat="44.01423" lon="5.16802">
        <ele>290.61</ele>
        <time>2019-04-28T10:27:27Z</time>
      </trkpt>
      <trkpt lat="44.01473" lon="5.16723">
        <ele>287.863</ele>
        <time>2019-04-28T10:27:37Z</time>
      </trkpt>
      <trkpt lat="44.01495" lon="5.16609">
        <ele>285.547</ele>
        <time>2019-04-28T10:27:48Z</time>
      </trkpt>
      <trkpt lat="44.01558" lon="5.16522">
        <ele>282.466</ele>
        <time>2019-04-28T10:27:59Z</time>
      </trkpt>
      <trkpt lat="44.01622" lon="5.16445">
        <ele>278.749</ele>
        <time>2019-04-28T10:28:09Z</time>
      </trkpt>
      <trkpt lat="44.0168" lon="5.16368">
        <ele>273.484</ele>
        <time>2019-04-28T10:28:19Z</time>
      </trkpt>
      <trkpt lat="44.01741" lon="5.16296">
        <ele>268.828</ele>
        <time>2019-04-28T10:28:30Z</time>
      </trkpt>
      <trkpt lat="44.01789" lon="5.16234">
        <ele>265.366</ele>
        <time>2019-04-28T10:28:40Z</time>
      </trkpt>
      <trkpt lat="44.01822" lon="5.16189">
        <ele>262.805</ele>
        <time>2019-04-28T10:28:51Z</time>
      </trkpt>
      <trkpt lat="44.01858" lon="5.16142">
        <ele>258.782</ele>
        <time>2019-04-28T10:29:01Z</time>
      </trkpt>
      <trkpt lat="44.01889" lon="5.16101">
        <ele>258.329</ele>
        <time>2019-04-28T10:29:13Z</time>
      </trkpt>
      <trkpt lat="44.01924" lon="5.16055">
        <ele>255.014</ele>
        <time>2019-04-28T10:29:23Z</time>
      </trkpt>
      <trkpt lat="44.01961" lon="5.16004">
        <ele>251.016</ele>
        <time>2019-04-28T10:29:35Z</time>
      </trkpt>
      <trkpt lat="44.01998" lon="5.15962">
        <ele>250.736</ele>
        <time>2019-04-28T10:29:46Z</time>
      </trkpt>
      <trkpt lat="44.02036" lon="5.15921">
        <ele>249.086</ele>
        <time>2019-04-28T10:29:57Z</time>
      </trkpt>
      <trkpt lat="44.02066" lon="5.15894">
        <ele>247.015</ele>
        <time>2019-04-28T10:30:08Z</time>
      </trkpt>
      <trkpt lat="44.02118" lon="5.15871">
        <ele>244.691</ele>
        <time>2019-04-28T10:30:19Z</time>
      </trkpt>
      <trkpt lat="44.02139" lon="5.15862">
        <ele>244.191</ele>
        <time>2019-04-28T10:30:30Z</time>
      </trkpt>
      <trkpt lat="44.02156" lon="5.15861">
        <ele>246.183</ele>
        <time>2019-04-28T10:30:41Z</time>
      </trkpt>
      <trkpt lat="44.02156" lon="5.15861">
        <ele>247.014</ele>
        <time>2019-04-28T10:30:51Z</time>
      </trkpt>
      <trkpt lat="44.02156" lon="5.15861">
        <ele>247.654</ele>
        <time>2019-04-28T10:31:01Z</time>
      </trkpt>
      <trkpt lat="44.02156" lon="5.15861">
        <ele>248.365</ele>
        <time>2019-04-28T10:31:12Z</time>
      </trkpt>
      <trkpt lat="44.02156" lon="5.15861">
        <ele>248.99</ele>
        <time>2019-04-28T10:31:22Z</time>
      </trkpt>
      <trkpt lat="44.02156" lon="5.15861">
        <ele>249.609</ele>
        <time>2019-04-28T10:31:32Z</time>
      </trkpt>
      <trkpt lat="44.02156" lon="5.15861">
        <ele>250.274</ele>
        <time>2019-04-28T10:31:43Z</time>
      </trkpt>
      <trkpt lat="44.02156" lon="5.15861">
        <ele>250.939</ele>
        <time>2019-04-28T10:31:54Z</time>
      </trkpt>
      <trkpt lat="44.02156" lon="5.15861">
        <ele>251.562</ele>
        <time>2019-04-28T10:32:04Z</time>
      </trkpt>
      <trkpt lat="44.02156" lon="5.15861">
        <ele>252.876</ele>
        <time>2019-04-28T10:32:15Z</time>
      </trkpt>
      <trkpt lat="44.02146" lon="5.15848">
        <ele>263.244</ele>
        <time>2019-04-28T10:32:27Z</time>
      </trkpt>
      <trkpt lat="44.02143" lon="5.15849">
        <ele>266.144</ele>
        <time>2019-04-28T10:32:38Z</time>
      </trkpt>
      <trkpt lat="44.02143" lon="5.15849">
        <ele>266.997</ele>
        <time>2019-04-28T10:32:48Z</time>
      </trkpt>
      <trkpt lat="44.02156" lon="5.15847">
        <ele>268.414</ele>
        <time>2019-04-28T10:32:58Z</time>
      </trkpt>
      <trkpt lat="44.02156" lon="5.15847">
        <ele>268.591</ele>
        <time>2019-04-28T10:33:09Z</time>
      </trkpt>
      <trkpt lat="44.02156" lon="5.15851">
        <ele>268.887</ele>
        <time>2019-04-28T10:33:20Z</time>
      </trkpt>
      <trkpt lat="44.02156" lon="5.15851">
        <ele>268.935</ele>
        <time>2019-04-28T10:33:30Z</time>
      </trkpt>
      <trkpt lat="44.02157" lon="5.15862">
        <ele>269.003</ele>
        <time>2019-04-28T10:33:40Z</time>
      </trkpt>
      <trkpt lat="44.02157" lon="5.15863">
        <ele>269.063</ele>
        <time>2019-04-28T10:33:50Z</time>
      </trkpt>
      <trkpt lat="44.02157" lon="5.15863">
        <ele>269.095</ele>
        <time>2019-04-28T10:34:00Z</time>
      </trkpt>
      <trkpt lat="44.02158" lon="5.15862">
        <ele>269.132</ele>
        <time>2019-04-28T10:34:10Z</time>
      </trkpt>
      <trkpt lat="44.02158" lon="5.15862">
        <ele>269.206</ele>
        <time>2019-04-28T10:34:21Z</time>
      </trkpt>
      <trkpt lat="44.02158" lon="5.15862">
        <ele>269.262</ele>
        <time>2019-04-28T10:34:32Z</time>
      </trkpt>
      <trkpt lat="44.02159" lon="5.15862">
        <ele>269.262</ele>
        <time>2019-04-28T10:34:44Z</time>
      </trkpt>
      <trkpt lat="44.02159" lon="5.15862">
        <ele>269.137</ele>
        <time>2019-04-28T10:34:54Z</time>
      </trkpt>
      <trkpt lat="44.0216" lon="5.15863">
        <ele>268.746</ele>
        <time>2019-04-28T10:35:05Z</time>
      </trkpt>
      <trkpt lat="44.02161" lon="5.15862">
        <ele>268.701</ele>
        <time>2019-04-28T10:35:15Z</time>
      </trkpt>
      <trkpt lat="44.02161" lon="5.15862">
        <ele>268.62</ele>
        <time>2019-04-28T10:35:25Z</time>
      </trkpt>
      <trkpt lat="44.02162" lon="5.15862">
        <ele>268.52</ele>
        <time>2019-04-28T10:35:36Z</time>
      </trkpt>
      <trkpt lat="44.02161" lon="5.15863">
        <ele>268.398</ele>
        <time>2019-04-28T10:35:46Z</time>
      </trkpt>
      <trkpt lat="44.02161" lon="5.15863">
        <ele>268.233</ele>
        <time>2019-04-28T10:35:57Z</time>
      </trkpt>
      <trkpt lat="44.02161" lon="5.15864">
        <ele>268.07</ele>
        <time>2019-04-28T10:36:09Z</time>
      </trkpt>
      <trkpt lat="44.02161" lon="5.15864">
        <ele>267.934</ele>
        <time>2019-04-28T10:36:19Z</time>
      </trkpt>
      <trkpt lat="44.02161" lon="5.15864">
        <ele>267.832</ele>
        <time>2019-04-28T10:36:29Z</time>
      </trkpt>
      <trkpt lat="44.02161" lon="5.15864">
        <ele>267.767</ele>
        <time>2019-04-28T10:36:40Z</time>
      </trkpt>
      <trkpt lat="44.02161" lon="5.15864">
        <ele>267.749</ele>
        <time>2019-04-28T10:36:51Z</time>
      </trkpt>
      <trkpt lat="44.02161" lon="5.15863">
        <ele>267.769</ele>
        <time>2019-04-28T10:37:02Z</time>
      </trkpt>
      <trkpt lat="44.0216" lon="5.15863">
        <ele>267.792</ele>
        <time>2019-04-28T10:37:13Z</time>
      </trkpt>
      <trkpt lat="44.0216" lon="5.15863">
        <ele>267.812</ele>
        <time>2019-04-28T10:37:23Z</time>
      </trkpt>
      <trkpt lat="44.0216" lon="5.15863">
        <ele>267.836</ele>
        <time>2019-04-28T10:37:34Z</time>
      </trkpt>
      <trkpt lat="44.0216" lon="5.15863">
        <ele>267.87</ele>
        <time>2019-04-28T10:37:44Z</time>
      </trkpt>
      <trkpt lat="44.0216" lon="5.15863">
        <ele>267.932</ele>
        <time>2019-04-28T10:37:54Z</time>
      </trkpt>
      <trkpt lat="44.02159" lon="5.15862">
        <ele>268.071</ele>
        <time>2019-04-28T10:38:05Z</time>
      </trkpt>
      <trkpt lat="44.02159" lon="5.15862">
        <ele>268.246</ele>
        <time>2019-04-28T10:38:16Z</time>
      </trkpt>
      <trkpt lat="44.02159" lon="5.15861">
        <ele>268.408</ele>
        <time>2019-04-28T10:38:26Z</time>
      </trkpt>
      <trkpt lat="44.02159" lon="5.15861">
        <ele>268.547</ele>
        <time>2019-04-28T10:38:37Z</time>
      </trkpt>
      <trkpt lat="44.02159" lon="5.15861">
        <ele>268.603</ele>
        <time>2019-04-28T10:38:47Z</time>
      </trkpt>
      <trkpt lat="44.02158" lon="5.1586">
        <ele>268.621</ele>
        <time>2019-04-28T10:38:58Z</time>
      </trkpt>
      <trkpt lat="44.02158" lon="5.1586">
        <ele>268.622</ele>
        <time>2019-04-28T10:39:10Z</time>
      </trkpt>
      <trkpt lat="44.02158" lon="5.1586">
        <ele>268.622</ele>
        <time>2019-04-28T10:39:21Z</time>
      </trkpt>
      <trkpt lat="44.02158" lon="5.1586">
        <ele>268.644</ele>
        <time>2019-04-28T10:39:31Z</time>
      </trkpt>
      <trkpt lat="44.02155" lon="5.15855">
        <ele>269.096</ele>
        <time>2019-04-28T10:39:42Z</time>
      </trkpt>
      <trkpt lat="44.02163" lon="5.15853">
        <ele>269.749</ele>
        <time>2019-04-28T10:39:53Z</time>
      </trkpt>
      <trkpt lat="44.02162" lon="5.15858">
        <ele>268.997</ele>
        <time>2019-04-28T10:40:04Z</time>
      </trkpt>
      <trkpt lat="44.02163" lon="5.15861">
        <ele>268.038</ele>
        <time>2019-04-28T10:40:15Z</time>
      </trkpt>
      <trkpt lat="44.02159" lon="5.15861">
        <ele>267.852</ele>
        <time>2019-04-28T10:40:25Z</time>
      </trkpt>
      <trkpt lat="44.02163" lon="5.15842">
        <ele>268.396</ele>
        <time>2019-04-28T10:40:36Z</time>
      </trkpt>
      <trkpt lat="44.02182" lon="5.15801">
        <ele>268.042</ele>
        <time>2019-04-28T10:40:46Z</time>
      </trkpt>
      <trkpt lat="44.02197" lon="5.15709">
        <ele>258.5</ele>
        <time>2019-04-28T10:40:56Z</time>
      </trkpt>
      <trkpt lat="44.02216" lon="5.15622">
        <ele>252.926</ele>
        <time>2019-04-28T10:41:07Z</time>
      </trkpt>
      <trkpt lat="44.02231" lon="5.15556">
        <ele>251.68</ele>
        <time>2019-04-28T10:41:17Z</time>
      </trkpt>
      <trkpt lat="44.02251" lon="5.15482">
        <ele>249.157</ele>
        <time>2019-04-28T10:41:27Z</time>
      </trkpt>
      <trkpt lat="44.02269" lon="5.15424">
        <ele>245.707</ele>
        <time>2019-04-28T10:41:37Z</time>
      </trkpt>
      <trkpt lat="44.02279" lon="5.15353">
        <ele>247.833</ele>
        <time>2019-04-28T10:41:49Z</time>
      </trkpt>
      <trkpt lat="44.02297" lon="5.15288">
        <ele>249.557</ele>
        <time>2019-04-28T10:41:59Z</time>
      </trkpt>
      <trkpt lat="44.02305" lon="5.15231">
        <ele>248.406</ele>
        <time>2019-04-28T10:42:11Z</time>
      </trkpt>
      <trkpt lat="44.02322" lon="5.15175">
        <ele>247.023</ele>
        <time>2019-04-28T10:42:22Z</time>
      </trkpt>
      <trkpt lat="44.02331" lon="5.15121">
        <ele>247.735</ele>
        <time>2019-04-28T10:42:32Z</time>
      </trkpt>
      <trkpt lat="44.02335" lon="5.1506">
        <ele>249.612</ele>
        <time>2019-04-28T10:42:43Z</time>
      </trkpt>
      <trkpt lat="44.02333" lon="5.14987">
        <ele>249.638</ele>
        <time>2019-04-28T10:42:53Z</time>
      </trkpt>
      <trkpt lat="44.02303" lon="5.14938">
        <ele>249.088</ele>
        <time>2019-04-28T10:43:03Z</time>
      </trkpt>
      <trkpt lat="44.02271" lon="5.14892">
        <ele>248.417</ele>
        <time>2019-04-28T10:43:14Z</time>
      </trkpt>
      <trkpt lat="44.02237" lon="5.14854">
        <ele>248.27</ele>
        <time>2019-04-28T10:43:24Z</time>
      </trkpt>
      <trkpt lat="44.02191" lon="5.14822">
        <ele>247.783</ele>
        <time>2019-04-28T10:43:36Z</time>
      </trkpt>
      <trkpt lat="44.02146" lon="5.1479">
        <ele>247.317</ele>
        <time>2019-04-28T10:43:46Z</time>
      </trkpt>
      <trkpt lat="44.02101" lon="5.1476">
        <ele>247.54</ele>
        <time>2019-04-28T10:43:57Z</time>
      </trkpt>
      <trkpt lat="44.02055" lon="5.14728">
        <ele>247.95</ele>
        <time>2019-04-28T10:44:08Z</time>
      </trkpt>
      <trkpt lat="44.02007" lon="5.14694">
        <ele>248.491</ele>
        <time>2019-04-28T10:44:19Z</time>
      </trkpt>
      <trkpt lat="44.01957" lon="5.14649">
        <ele>248.744</ele>
        <time>2019-04-28T10:44:29Z</time>
      </trkpt>
      <trkpt lat="44.01891" lon="5.14591">
        <ele>248.273</ele>
        <time>2019-04-28T10:44:40Z</time>
      </trkpt>
      <trkpt lat="44.01829" lon="5.14534">
        <ele>247.518</ele>
        <time>2019-04-28T10:44:50Z</time>
      </trkpt>
      <trkpt lat="44.01761" lon="5.14502">
        <ele>246.803</ele>
        <time>2019-04-28T10:45:01Z</time>
      </trkpt>
      <trkpt lat="44.017" lon="5.14494">
        <ele>246.579</ele>
        <time>2019-04-28T10:45:12Z</time>
      </trkpt>
      <trkpt lat="44.01652" lon="5.14486">
        <ele>246.903</ele>
        <time>2019-04-28T10:45:22Z</time>
      </trkpt>
      <trkpt lat="44.01601" lon="5.14484">
        <ele>247.357</ele>
        <time>2019-04-28T10:45:33Z</time>
      </trkpt>
      <trkpt lat="44.01517" lon="5.14489">
        <ele>246.61</ele>
        <time>2019-04-28T10:45:43Z</time>
      </trkpt>
      <trkpt lat="44.01427" lon="5.14471">
        <ele>244.69</ele>
        <time>2019-04-28T10:45:53Z</time>
      </trkpt>
      <trkpt lat="44.01318" lon="5.14446">
        <ele>239.771</ele>
        <time>2019-04-28T10:46:04Z</time>
      </trkpt>
      <trkpt lat="44.01215" lon="5.14411">
        <ele>237.942</ele>
        <time>2019-04-28T10:46:15Z</time>
      </trkpt>
      <trkpt lat="44.01112" lon="5.14375">
        <ele>234.789</ele>
        <time>2019-04-28T10:46:27Z</time>
      </trkpt>
      <trkpt lat="44.01012" lon="5.14364">
        <ele>230.357</ele>
        <time>2019-04-28T10:46:37Z</time>
      </trkpt>
      <trkpt lat="44.00925" lon="5.14367">
        <ele>226.447</ele>
        <time>2019-04-28T10:46:48Z</time>
      </trkpt>
      <trkpt lat="44.00849" lon="5.14374">
        <ele>223.744</ele>
        <time>2019-04-28T10:46:59Z</time>
      </trkpt>
      <trkpt lat="44.00778" lon="5.14377">
        <ele>220.902</ele>
        <time>2019-04-28T10:47:10Z</time>
      </trkpt>
      <trkpt lat="44.0071" lon="5.1438">
        <ele>219.205</ele>
        <time>2019-04-28T10:47:21Z</time>
      </trkpt>
      <trkpt lat="44.00648" lon="5.14362">
        <ele>218.135</ele>
        <time>2019-04-28T10:47:31Z</time>
      </trkpt>
      <trkpt lat="44.00586" lon="5.14349">
        <ele>217.889</ele>
        <time>2019-04-28T10:47:42Z</time>
      </trkpt>
      <trkpt lat="44.00528" lon="5.14362">
        <ele>217.976</ele>
        <time>2019-04-28T10:47:53Z</time>
      </trkpt>
      <trkpt lat="44.00522" lon="5.14362">
        <ele>217.98</ele>
        <time>2019-04-28T10:48:03Z</time>
      </trkpt>
      <trkpt lat="44.00519" lon="5.14356">
        <ele>217.903</ele>
        <time>2019-04-28T10:48:14Z</time>
      </trkpt>
      <trkpt lat="44.00519" lon="5.14356">
        <ele>217.884</ele>
        <time>2019-04-28T10:48:25Z</time>
      </trkpt>
      <trkpt lat="44.00519" lon="5.14356">
        <ele>217.861</ele>
        <time>2019-04-28T10:48:36Z</time>
      </trkpt>
      <trkpt lat="44.00519" lon="5.14356">
        <ele>217.844</ele>
        <time>2019-04-28T10:48:46Z</time>
      </trkpt>
      <trkpt lat="44.00519" lon="5.14356">
        <ele>217.83</ele>
        <time>2019-04-28T10:48:56Z</time>
      </trkpt>
      <trkpt lat="44.00519" lon="5.14356">
        <ele>217.8</ele>
        <time>2019-04-28T10:49:07Z</time>
      </trkpt>
      <trkpt lat="44.00516" lon="5.14363">
        <ele>217.708</ele>
        <time>2019-04-28T10:49:18Z</time>
      </trkpt>
      <trkpt lat="44.00511" lon="5.14365">
        <ele>217.785</ele>
        <time>2019-04-28T10:49:29Z</time>
      </trkpt>
      <trkpt lat="44.00476" lon="5.14373">
        <ele>217.978</ele>
        <time>2019-04-28T10:49:40Z</time>
      </trkpt>
      <trkpt lat="44.00436" lon="5.14383">
        <ele>218.901</ele>
        <time>2019-04-28T10:49:51Z</time>
      </trkpt>
      <trkpt lat="44.00391" lon="5.14396">
        <ele>219.83</ele>
        <time>2019-04-28T10:50:02Z</time>
      </trkpt>
      <trkpt lat="44.00353" lon="5.14405">
        <ele>220.238</ele>
        <time>2019-04-28T10:50:12Z</time>
      </trkpt>
      <trkpt lat="44.00316" lon="5.14412">
        <ele>220.544</ele>
        <time>2019-04-28T10:50:22Z</time>
      </trkpt>
      <trkpt lat="44.00277" lon="5.14424">
        <ele>221.377</ele>
        <time>2019-04-28T10:50:33Z</time>
      </trkpt>
      <trkpt lat="44.00238" lon="5.1443">
        <ele>222.675</ele>
        <time>2019-04-28T10:50:43Z</time>
      </trkpt>
      <trkpt lat="44.00201" lon="5.14438">
        <ele>222.872</ele>
        <time>2019-04-28T10:50:54Z</time>
      </trkpt>
      <trkpt lat="44.00169" lon="5.14442">
        <ele>223.229</ele>
        <time>2019-04-28T10:51:04Z</time>
      </trkpt>
      <trkpt lat="44.00128" lon="5.14442">
        <ele>225.125</ele>
        <time>2019-04-28T10:51:15Z</time>
      </trkpt>
      <trkpt lat="44.00126" lon="5.14442">
        <ele>225.188</ele>
        <time>2019-04-28T10:51:26Z</time>
      </trkpt>
      <trkpt lat="44.00126" lon="5.14442">
        <ele>225.255</ele>
        <time>2019-04-28T10:51:37Z</time>
      </trkpt>
      <trkpt lat="44.00126" lon="5.14442">
        <ele>225.327</ele>
        <time>2019-04-28T10:51:47Z</time>
      </trkpt>
      <trkpt lat="44.00126" lon="5.14442">
        <ele>225.635</ele>
        <time>2019-04-28T10:51:58Z</time>
      </trkpt>
      <trkpt lat="44.00126" lon="5.14442">
        <ele>225.683</ele>
        <time>2019-04-28T10:52:09Z</time>
      </trkpt>
      <trkpt lat="44.00115" lon="5.1444">
        <ele>226.726</ele>
        <time>2019-04-28T10:52:19Z</time>
      </trkpt>
      <trkpt lat="44.00118" lon="5.14435">
        <ele>226.757</ele>
        <time>2019-04-28T10:52:29Z</time>
      </trkpt>
      <trkpt lat="44.00115" lon="5.14441">
        <ele>227.013</ele>
        <time>2019-04-28T10:52:39Z</time>
      </trkpt>
      <trkpt lat="44.00078" lon="5.14443">
        <ele>227.722</ele>
        <time>2019-04-28T10:52:50Z</time>
      </trkpt>
      <trkpt lat="44.00047" lon="5.14431">
        <ele>227.231</ele>
        <time>2019-04-28T10:53:00Z</time>
      </trkpt>
      <trkpt lat="44.00024" lon="5.14398">
        <ele>227.078</ele>
        <time>2019-04-28T10:53:10Z</time>
      </trkpt>
      <trkpt lat="44.00004" lon="5.14373">
        <ele>227.024</ele>
        <time>2019-04-28T10:53:21Z</time>
      </trkpt>
      <trkpt lat="43.99988" lon="5.14354">
        <ele>228.336</ele>
        <time>2019-04-28T10:53:31Z</time>
      </trkpt>
      <trkpt lat="43.99973" lon="5.14339">
        <ele>230.315</ele>
        <time>2019-04-28T10:53:41Z</time>
      </trkpt>
      <trkpt lat="43.99951" lon="5.14322">
        <ele>232.117</ele>
        <time>2019-04-28T10:53:51Z</time>
      </trkpt>
      <trkpt lat="43.99934" lon="5.14307">
        <ele>234.05</ele>
        <time>2019-04-28T10:54:01Z</time>
      </trkpt>
      <trkpt lat="43.99913" lon="5.14294">
        <ele>235.83</ele>
        <time>2019-04-28T10:54:11Z</time>
      </trkpt>
      <trkpt lat="43.99896" lon="5.1428">
        <ele>237.283</ele>
        <time>2019-04-28T10:54:22Z</time>
      </trkpt>
      <trkpt lat="43.99878" lon="5.1427">
        <ele>239.213</ele>
        <time>2019-04-28T10:54:33Z</time>
      </trkpt>
      <trkpt lat="43.99858" lon="5.14259">
        <ele>240.957</ele>
        <time>2019-04-28T10:54:44Z</time>
      </trkpt>
      <trkpt lat="43.99837" lon="5.1425">
        <ele>242.522</ele>
        <time>2019-04-28T10:54:55Z</time>
      </trkpt>
      <trkpt lat="43.99819" lon="5.14247">
        <ele>243.557</ele>
        <time>2019-04-28T10:55:05Z</time>
      </trkpt>
      <trkpt lat="43.99797" lon="5.14238">
        <ele>245.121</ele>
        <time>2019-04-28T10:55:16Z</time>
      </trkpt>
      <trkpt lat="43.99779" lon="5.14234">
        <ele>246.965</ele>
        <time>2019-04-28T10:55:27Z</time>
      </trkpt>
      <trkpt lat="43.99761" lon="5.14246">
        <ele>248.807</ele>
        <time>2019-04-28T10:55:37Z</time>
      </trkpt>
      <trkpt lat="43.99745" lon="5.14261">
        <ele>250.839</ele>
        <time>2019-04-28T10:55:48Z</time>
      </trkpt>
      <trkpt lat="43.99726" lon="5.14277">
        <ele>252.643</ele>
        <time>2019-04-28T10:55:59Z</time>
      </trkpt>
      <trkpt lat="43.99712" lon="5.14295">
        <ele>254.52</ele>
        <time>2019-04-28T10:56:09Z</time>
      </trkpt>
      <trkpt lat="43.99705" lon="5.14317">
        <ele>256.232</ele>
        <time>2019-04-28T10:56:20Z</time>
      </trkpt>
      <trkpt lat="43.99693" lon="5.14335">
        <ele>257.528</ele>
        <time>2019-04-28T10:56:31Z</time>
      </trkpt>
      <trkpt lat="43.99684" lon="5.14353">
        <ele>258.596</ele>
        <time>2019-04-28T10:56:41Z</time>
      </trkpt>
      <trkpt lat="43.99672" lon="5.14378">
        <ele>259.761</ele>
        <time>2019-04-28T10:56:52Z</time>
      </trkpt>
      <trkpt lat="43.99658" lon="5.14395">
        <ele>261.473</ele>
        <time>2019-04-28T10:57:03Z</time>
      </trkpt>
      <trkpt lat="43.99645" lon="5.14413">
        <ele>263.103</ele>
        <time>2019-04-28T10:57:13Z</time>
      </trkpt>
      <trkpt lat="43.99632" lon="5.14426">
        <ele>265.678</ele>
        <time>2019-04-28T10:57:24Z</time>
      </trkpt>
      <trkpt lat="43.9962" lon="5.14441">
        <ele>268.101</ele>
        <time>2019-04-28T10:57:35Z</time>
      </trkpt>
      <trkpt lat="43.99633" lon="5.14442">
        <ele>271.155</ele>
        <time>2019-04-28T10:57:46Z</time>
      </trkpt>
      <trkpt lat="43.9965" lon="5.14435">
        <ele>273.068</ele>
        <time>2019-04-28T10:57:57Z</time>
      </trkpt>
      <trkpt lat="43.99667" lon="5.14425">
        <ele>274.348</ele>
        <time>2019-04-28T10:58:07Z</time>
      </trkpt>
      <trkpt lat="43.99687" lon="5.14412">
        <ele>275.827</ele>
        <time>2019-04-28T10:58:17Z</time>
      </trkpt>
      <trkpt lat="43.99709" lon="5.14398">
        <ele>277.595</ele>
        <time>2019-04-28T10:58:28Z</time>
      </trkpt>
      <trkpt lat="43.99729" lon="5.14381">
        <ele>279.242</ele>
        <time>2019-04-28T10:58:39Z</time>
      </trkpt>
      <trkpt lat="43.99747" lon="5.14358">
        <ele>281.174</ele>
        <time>2019-04-28T10:58:50Z</time>
      </trkpt>
      <trkpt lat="43.99749" lon="5.14369">
        <ele>285.373</ele>
        <time>2019-04-28T10:59:01Z</time>
      </trkpt>
      <trkpt lat="43.99732" lon="5.14385">
        <ele>287.453</ele>
        <time>2019-04-28T10:59:11Z</time>
      </trkpt>
      <trkpt lat="43.99717" lon="5.14403">
        <ele>288.972</ele>
        <time>2019-04-28T10:59:21Z</time>
      </trkpt>
      <trkpt lat="43.99701" lon="5.14424">
        <ele>291.035</ele>
        <time>2019-04-28T10:59:32Z</time>
      </trkpt>
      <trkpt lat="43.99684" lon="5.14446">
        <ele>292.756</ele>
        <time>2019-04-28T10:59:42Z</time>
      </trkpt>
      <trkpt lat="43.99667" lon="5.14472">
        <ele>294.035</ele>
        <time>2019-04-28T10:59:53Z</time>
      </trkpt>
      <trkpt lat="43.99648" lon="5.14497">
        <ele>294.955</ele>
        <time>2019-04-28T11:00:03Z</time>
      </trkpt>
      <trkpt lat="43.99628" lon="5.1452">
        <ele>296.606</ele>
        <time>2019-04-28T11:00:14Z</time>
      </trkpt>
      <trkpt lat="43.99609" lon="5.14539">
        <ele>298.507</ele>
        <time>2019-04-28T11:00:24Z</time>
      </trkpt>
      <trkpt lat="43.99587" lon="5.14561">
        <ele>300.419</ele>
        <time>2019-04-28T11:00:35Z</time>
      </trkpt>
      <trkpt lat="43.99565" lon="5.14581">
        <ele>302.289</ele>
        <time>2019-04-28T11:00:46Z</time>
      </trkpt>
      <trkpt lat="43.99547" lon="5.146">
        <ele>304.51</ele>
        <time>2019-04-28T11:00:56Z</time>
      </trkpt>
      <trkpt lat="43.99525" lon="5.14621">
        <ele>306.65</ele>
        <time>2019-04-28T11:01:07Z</time>
      </trkpt>
      <trkpt lat="43.99504" lon="5.1463">
        <ele>310.325</ele>
        <time>2019-04-28T11:01:17Z</time>
      </trkpt>
      <trkpt lat="43.99482" lon="5.14647">
        <ele>312.253</ele>
        <time>2019-04-28T11:01:28Z</time>
      </trkpt>
      <trkpt lat="43.99463" lon="5.14655">
        <ele>314.129</ele>
        <time>2019-04-28T11:01:39Z</time>
      </trkpt>
      <trkpt lat="43.99443" lon="5.14663">
        <ele>315.589</ele>
        <time>2019-04-28T11:01:50Z</time>
      </trkpt>
      <trkpt lat="43.99423" lon="5.14669">
        <ele>316.821</ele>
        <time>2019-04-28T11:02:01Z</time>
      </trkpt>
      <trkpt lat="43.99401" lon="5.14678">
        <ele>318.206</ele>
        <time>2019-04-28T11:02:11Z</time>
      </trkpt>
      <trkpt lat="43.99377" lon="5.14683">
        <ele>319.433</ele>
        <time>2019-04-28T11:02:22Z</time>
      </trkpt>
      <trkpt lat="43.99357" lon="5.14689">
        <ele>320.599</ele>
        <time>2019-04-28T11:02:32Z</time>
      </trkpt>
      <trkpt lat="43.99335" lon="5.14697">
        <ele>322.039</ele>
        <time>2019-04-28T11:02:43Z</time>
      </trkpt>
      <trkpt lat="43.99314" lon="5.14702">
        <ele>323.435</ele>
        <time>2019-04-28T11:02:54Z</time>
      </trkpt>
      <trkpt lat="43.99294" lon="5.14719">
        <ele>324.492</ele>
        <time>2019-04-28T11:03:05Z</time>
      </trkpt>
      <trkpt lat="43.99299" lon="5.14737">
        <ele>325.655</ele>
        <time>2019-04-28T11:03:15Z</time>
      </trkpt>
      <trkpt lat="43.99316" lon="5.14739">
        <ele>327.737</ele>
        <time>2019-04-28T11:03:25Z</time>
      </trkpt>
      <trkpt lat="43.9934" lon="5.14734">
        <ele>329.818</ele>
        <time>2019-04-28T11:03:36Z</time>
      </trkpt>
      <trkpt lat="43.99367" lon="5.14736">
        <ele>331.352</ele>
        <time>2019-04-28T11:03:46Z</time>
      </trkpt>
      <trkpt lat="43.99394" lon="5.14736">
        <ele>332.677</ele>
        <time>2019-04-28T11:03:57Z</time>
      </trkpt>
      <trkpt lat="43.99415" lon="5.14735">
        <ele>333.542</ele>
        <time>2019-04-28T11:04:07Z</time>
      </trkpt>
      <trkpt lat="43.99438" lon="5.1473">
        <ele>334.094</ele>
        <time>2019-04-28T11:04:18Z</time>
      </trkpt>
      <trkpt lat="43.99458" lon="5.1473">
        <ele>334.82</ele>
        <time>2019-04-28T11:04:28Z</time>
      </trkpt>
      <trkpt lat="43.99478" lon="5.14724">
        <ele>335.197</ele>
        <time>2019-04-28T11:04:39Z</time>
      </trkpt>
      <trkpt lat="43.99498" lon="5.14711">
        <ele>336.041</ele>
        <time>2019-04-28T11:04:49Z</time>
      </trkpt>
      <trkpt lat="43.99503" lon="5.14706">
        <ele>336.615</ele>
        <time>2019-04-28T11:04:59Z</time>
      </trkpt>
      <trkpt lat="43.99502" lon="5.14698">
        <ele>338.296</ele>
        <time>2019-04-28T11:05:10Z</time>
      </trkpt>
      <trkpt lat="43.99502" lon="5.14701">
        <ele>338.659</ele>
        <time>2019-04-28T11:05:21Z</time>
      </trkpt>
      <trkpt lat="43.99502" lon="5.14698">
        <ele>339.228</ele>
        <time>2019-04-28T11:05:33Z</time>
      </trkpt>
      <trkpt lat="43.99513" lon="5.14694">
        <ele>340.242</ele>
        <time>2019-04-28T11:05:43Z</time>
      </trkpt>
      <trkpt lat="43.99537" lon="5.147">
        <ele>341.525</ele>
        <time>2019-04-28T11:05:53Z</time>
      </trkpt>
      <trkpt lat="43.9955" lon="5.14698">
        <ele>342.632</ele>
        <time>2019-04-28T11:06:04Z</time>
      </trkpt>
      <trkpt lat="43.99554" lon="5.14696">
        <ele>343.214</ele>
        <time>2019-04-28T11:06:15Z</time>
      </trkpt>
      <trkpt lat="43.99559" lon="5.14692">
        <ele>344.053</ele>
        <time>2019-04-28T11:06:26Z</time>
      </trkpt>
      <trkpt lat="43.99571" lon="5.14682">
        <ele>344.177</ele>
        <time>2019-04-28T11:06:37Z</time>
      </trkpt>
      <trkpt lat="43.99582" lon="5.14673">
        <ele>344.827</ele>
        <time>2019-04-28T11:06:48Z</time>
      </trkpt>
      <trkpt lat="43.99599" lon="5.14661">
        <ele>346.277</ele>
        <time>2019-04-28T11:06:58Z</time>
      </trkpt>
      <trkpt lat="43.99621" lon="5.14651">
        <ele>347.636</ele>
        <time>2019-04-28T11:07:09Z</time>
      </trkpt>
      <trkpt lat="43.99632" lon="5.14636">
        <ele>348.182</ele>
        <time>2019-04-28T11:07:20Z</time>
      </trkpt>
      <trkpt lat="43.99647" lon="5.14615">
        <ele>345.316</ele>
        <time>2019-04-28T11:07:31Z</time>
      </trkpt>
      <trkpt lat="43.99658" lon="5.14614">
        <ele>337.792</ele>
        <time>2019-04-28T11:07:41Z</time>
      </trkpt>
      <trkpt lat="43.99668" lon="5.14618">
        <ele>338.563</ele>
        <time>2019-04-28T11:07:52Z</time>
      </trkpt>
      <trkpt lat="43.99682" lon="5.14586">
        <ele>338.057</ele>
        <time>2019-04-28T11:08:02Z</time>
      </trkpt>
      <trkpt lat="43.99682" lon="5.1458">
        <ele>336.533</ele>
        <time>2019-04-28T11:08:13Z</time>
      </trkpt>
      <trkpt lat="43.9968" lon="5.14579">
        <ele>335.404</ele>
        <time>2019-04-28T11:08:25Z</time>
      </trkpt>
      <trkpt lat="43.9968" lon="5.14581">
        <ele>334.82</ele>
        <time>2019-04-28T11:08:35Z</time>
      </trkpt>
      <trkpt lat="43.9968" lon="5.14581">
        <ele>332.781</ele>
        <time>2019-04-28T11:08:46Z</time>
      </trkpt>
      <trkpt lat="43.99679" lon="5.14562">
        <ele>331.972</ele>
        <time>2019-04-28T11:08:56Z</time>
      </trkpt>
      <trkpt lat="43.99689" lon="5.14546">
        <ele>330.908</ele>
        <time>2019-04-28T11:09:06Z</time>
      </trkpt>
      <trkpt lat="43.997" lon="5.14534">
        <ele>329.851</ele>
        <time>2019-04-28T11:09:17Z</time>
      </trkpt>
      <trkpt lat="43.99706" lon="5.14534">
        <ele>330.22</ele>
        <time>2019-04-28T11:09:27Z</time>
      </trkpt>
      <trkpt lat="43.99701" lon="5.14529">
        <ele>331.71</ele>
        <time>2019-04-28T11:09:38Z</time>
      </trkpt>
      <trkpt lat="43.9969" lon="5.14551">
        <ele>331.414</ele>
        <time>2019-04-28T11:09:49Z</time>
      </trkpt>
      <trkpt lat="43.99685" lon="5.14558">
        <ele>330.863</ele>
        <time>2019-04-28T11:10:00Z</time>
      </trkpt>
      <trkpt lat="43.99684" lon="5.14561">
        <ele>331.039</ele>
        <time>2019-04-28T11:10:10Z</time>
      </trkpt>
      <trkpt lat="43.99685" lon="5.14562">
        <ele>331.34</ele>
        <time>2019-04-28T11:10:21Z</time>
      </trkpt>
      <trkpt lat="43.99685" lon="5.14561">
        <ele>331.555</ele>
        <time>2019-04-28T11:10:31Z</time>
      </trkpt>
      <trkpt lat="43.99685" lon="5.14561">
        <ele>331.783</ele>
        <time>2019-04-28T11:10:41Z</time>
      </trkpt>
      <trkpt lat="43.99685" lon="5.14561">
        <ele>332.014</ele>
        <time>2019-04-28T11:10:52Z</time>
      </trkpt>
      <trkpt lat="43.99685" lon="5.14561">
        <ele>332.222</ele>
        <time>2019-04-28T11:11:03Z</time>
      </trkpt>
      <trkpt lat="43.99685" lon="5.14562">
        <ele>332.451</ele>
        <time>2019-04-28T11:11:13Z</time>
      </trkpt>
      <trkpt lat="43.99685" lon="5.14561">
        <ele>332.629</ele>
        <time>2019-04-28T11:11:23Z</time>
      </trkpt>
      <trkpt lat="43.99684" lon="5.14564">
        <ele>333.94</ele>
        <time>2019-04-28T11:11:34Z</time>
      </trkpt>
      <trkpt lat="43.99685" lon="5.14573">
        <ele>334.663</ele>
        <time>2019-04-28T11:11:45Z</time>
      </trkpt>
      <trkpt lat="43.99671" lon="5.14592">
        <ele>334.388</ele>
        <time>2019-04-28T11:11:55Z</time>
      </trkpt>
      <trkpt lat="43.99658" lon="5.14615">
        <ele>328.897</ele>
        <time>2019-04-28T11:12:05Z</time>
      </trkpt>
      <trkpt lat="43.99645" lon="5.14633">
        <ele>329.5</ele>
        <time>2019-04-28T11:12:16Z</time>
      </trkpt>
      <trkpt lat="43.99631" lon="5.14649">
        <ele>331.735</ele>
        <time>2019-04-28T11:12:26Z</time>
      </trkpt>
      <trkpt lat="43.99614" lon="5.14661">
        <ele>332.999</ele>
        <time>2019-04-28T11:12:37Z</time>
      </trkpt>
      <trkpt lat="43.99595" lon="5.1467">
        <ele>334.305</ele>
        <time>2019-04-28T11:12:48Z</time>
      </trkpt>
      <trkpt lat="43.99585" lon="5.1468">
        <ele>338.613</ele>
        <time>2019-04-28T11:12:58Z</time>
      </trkpt>
      <trkpt lat="43.99566" lon="5.14695">
        <ele>339.781</ele>
        <time>2019-04-28T11:13:09Z</time>
      </trkpt>
      <trkpt lat="43.99561" lon="5.14695">
        <ele>339.928</ele>
        <time>2019-04-28T11:13:19Z</time>
      </trkpt>
      <trkpt lat="43.99555" lon="5.14694">
        <ele>339.211</ele>
        <time>2019-04-28T11:13:30Z</time>
      </trkpt>
      <trkpt lat="43.99557" lon="5.14697">
        <ele>337.134</ele>
        <time>2019-04-28T11:13:40Z</time>
      </trkpt>
      <trkpt lat="43.99556" lon="5.14694">
        <ele>336.122</ele>
        <time>2019-04-28T11:13:51Z</time>
      </trkpt>
      <trkpt lat="43.99562" lon="5.14698">
        <ele>335.345</ele>
        <time>2019-04-28T11:14:01Z</time>
      </trkpt>
      <trkpt lat="43.99554" lon="5.14703">
        <ele>334.96</ele>
        <time>2019-04-28T11:14:11Z</time>
      </trkpt>
      <trkpt lat="43.9954" lon="5.14706">
        <ele>336.944</ele>
        <time>2019-04-28T11:14:21Z</time>
      </trkpt>
      <trkpt lat="43.99536" lon="5.14708">
        <ele>339.376</ele>
        <time>2019-04-28T11:14:32Z</time>
      </trkpt>
      <trkpt lat="43.99535" lon="5.14709">
        <ele>341.218</ele>
        <time>2019-04-28T11:14:43Z</time>
      </trkpt>
      <trkpt lat="43.99535" lon="5.14709">
        <ele>341.299</ele>
        <time>2019-04-28T11:14:53Z</time>
      </trkpt>
      <trkpt lat="43.99541" lon="5.14712">
        <ele>341.724</ele>
        <time>2019-04-28T11:15:04Z</time>
      </trkpt>
      <trkpt lat="43.99536" lon="5.14701">
        <ele>343.895</ele>
        <time>2019-04-28T11:15:14Z</time>
      </trkpt>
      <trkpt lat="43.99545" lon="5.1471">
        <ele>344.185</ele>
        <time>2019-04-28T11:15:24Z</time>
      </trkpt>
      <trkpt lat="43.99545" lon="5.1471">
        <ele>344.189</ele>
        <time>2019-04-28T11:15:35Z</time>
      </trkpt>
      <trkpt lat="43.99544" lon="5.14711">
        <ele>344.153</ele>
        <time>2019-04-28T11:15:46Z</time>
      </trkpt>
      <trkpt lat="43.99543" lon="5.14708">
        <ele>346.812</ele>
        <time>2019-04-28T11:15:56Z</time>
      </trkpt>
      <trkpt lat="43.99542" lon="5.14708">
        <ele>346.841</ele>
        <time>2019-04-28T11:16:07Z</time>
      </trkpt>
      <trkpt lat="43.9954" lon="5.14708">
        <ele>346.883</ele>
        <time>2019-04-28T11:16:17Z</time>
      </trkpt>
      <trkpt lat="43.99539" lon="5.14707">
        <ele>346.927</ele>
        <time>2019-04-28T11:16:28Z</time>
      </trkpt>
      <trkpt lat="43.99539" lon="5.14707">
        <ele>346.885</ele>
        <time>2019-04-28T11:16:39Z</time>
      </trkpt>
      <trkpt lat="43.99539" lon="5.14707">
        <ele>346.808</ele>
        <time>2019-04-28T11:16:49Z</time>
      </trkpt>
      <trkpt lat="43.99539" lon="5.14708">
        <ele>346.699</ele>
        <time>2019-04-28T11:17:00Z</time>
      </trkpt>
      <trkpt lat="43.9954" lon="5.14708">
        <ele>346.616</ele>
        <time>2019-04-28T11:17:11Z</time>
      </trkpt>
      <trkpt lat="43.9954" lon="5.14708">
        <ele>346.552</ele>
        <time>2019-04-28T11:17:21Z</time>
      </trkpt>
      <trkpt lat="43.9954" lon="5.14708">
        <ele>346.493</ele>
        <time>2019-04-28T11:17:31Z</time>
      </trkpt>
      <trkpt lat="43.99539" lon="5.14708">
        <ele>346.58</ele>
        <time>2019-04-28T11:17:42Z</time>
      </trkpt>
      <trkpt lat="43.99538" lon="5.14708">
        <ele>346.815</ele>
        <time>2019-04-28T11:17:53Z</time>
      </trkpt>
      <trkpt lat="43.99537" lon="5.14708">
        <ele>346.992</ele>
        <time>2019-04-28T11:18:03Z</time>
      </trkpt>
      <trkpt lat="43.99537" lon="5.14707">
        <ele>347.482</ele>
        <time>2019-04-28T11:18:13Z</time>
      </trkpt>
      <trkpt lat="43.99537" lon="5.14707">
        <ele>347.656</ele>
        <time>2019-04-28T11:18:24Z</time>
      </trkpt>
      <trkpt lat="43.99537" lon="5.14707">
        <ele>347.836</ele>
        <time>2019-04-28T11:18:34Z</time>
      </trkpt>
      <trkpt lat="43.99538" lon="5.14707">
        <ele>347.991</ele>
        <time>2019-04-28T11:18:44Z</time>
      </trkpt>
      <trkpt lat="43.99537" lon="5.14703">
        <ele>348.758</ele>
        <time>2019-04-28T11:18:55Z</time>
      </trkpt>
      <trkpt lat="43.99524" lon="5.14731">
        <ele>346.131</ele>
        <time>2019-04-28T11:19:05Z</time>
      </trkpt>
      <trkpt lat="43.99534" lon="5.14725">
        <ele>346.226</ele>
        <time>2019-04-28T11:19:15Z</time>
      </trkpt>
      <trkpt lat="43.99535" lon="5.14722">
        <ele>346.474</ele>
        <time>2019-04-28T11:19:25Z</time>
      </trkpt>
      <trkpt lat="43.99537" lon="5.14716">
        <ele>346.989</ele>
        <time>2019-04-28T11:19:36Z</time>
      </trkpt>
      <trkpt lat="43.99538" lon="5.14709">
        <ele>354.224</ele>
        <time>2019-04-28T11:19:46Z</time>
      </trkpt>
      <trkpt lat="43.99536" lon="5.14708">
        <ele>355.433</ele>
        <time>2019-04-28T11:19:57Z</time>
      </trkpt>
      <trkpt lat="43.99535" lon="5.14706">
        <ele>354.145</ele>
        <time>2019-04-28T11:20:08Z</time>
      </trkpt>
      <trkpt lat="43.99537" lon="5.14705">
        <ele>354.047</ele>
        <time>2019-04-28T11:20:18Z</time>
      </trkpt>
      <trkpt lat="43.99537" lon="5.14705">
        <ele>354.053</ele>
        <time>2019-04-28T11:20:28Z</time>
      </trkpt>
      <trkpt lat="43.99537" lon="5.14706">
        <ele>354.077</ele>
        <time>2019-04-28T11:20:39Z</time>
      </trkpt>
      <trkpt lat="43.9954" lon="5.14703">
        <ele>353.997</ele>
        <time>2019-04-28T11:20:50Z</time>
      </trkpt>
      <trkpt lat="43.99541" lon="5.14705">
        <ele>363.156</ele>
        <time>2019-04-28T11:21:00Z</time>
      </trkpt>
      <trkpt lat="43.9954" lon="5.14707">
        <ele>362.595</ele>
        <time>2019-04-28T11:21:11Z</time>
      </trkpt>
      <trkpt lat="43.99539" lon="5.14708">
        <ele>361.934</ele>
        <time>2019-04-28T11:21:21Z</time>
      </trkpt>
      <trkpt lat="43.99539" lon="5.14708">
        <ele>361.383</ele>
        <time>2019-04-28T11:21:31Z</time>
      </trkpt>
      <trkpt lat="43.99539" lon="5.14708">
        <ele>361.158</ele>
        <time>2019-04-28T11:21:41Z</time>
      </trkpt>
      <trkpt lat="43.99539" lon="5.14708">
        <ele>360.932</ele>
        <time>2019-04-28T11:21:52Z</time>
      </trkpt>
      <trkpt lat="43.99521" lon="5.14695">
        <ele>364.093</ele>
        <time>2019-04-28T11:22:03Z</time>
      </trkpt>
      <trkpt lat="43.99521" lon="5.14695">
        <ele>384.442</ele>
        <time>2019-04-28T11:22:13Z</time>
      </trkpt>
      <trkpt lat="43.99525" lon="5.14695">
        <ele>384.614</ele>
        <time>2019-04-28T11:22:24Z</time>
      </trkpt>
      <trkpt lat="43.99526" lon="5.14695">
        <ele>384.036</ele>
        <time>2019-04-28T11:22:35Z</time>
      </trkpt>
      <trkpt lat="43.99531" lon="5.14695">
        <ele>383.502</ele>
        <time>2019-04-28T11:22:46Z</time>
      </trkpt>
      <trkpt lat="43.99535" lon="5.147">
        <ele>381.695</ele>
        <time>2019-04-28T11:22:56Z</time>
      </trkpt>
      <trkpt lat="43.99536" lon="5.147">
        <ele>376.209</ele>
        <time>2019-04-28T11:23:08Z</time>
      </trkpt>
      <trkpt lat="43.99538" lon="5.14694">
        <ele>374.312</ele>
        <time>2019-04-28T11:23:20Z</time>
      </trkpt>
      <trkpt lat="43.99538" lon="5.14697">
        <ele>372.583</ele>
        <time>2019-04-28T11:23:31Z</time>
      </trkpt>
      <trkpt lat="43.9954" lon="5.14697">
        <ele>371.657</ele>
        <time>2019-04-28T11:23:41Z</time>
      </trkpt>
      <trkpt lat="43.9954" lon="5.14697">
        <ele>371.33</ele>
        <time>2019-04-28T11:23:51Z</time>
      </trkpt>
      <trkpt lat="43.9954" lon="5.14697">
        <ele>370.936</ele>
        <time>2019-04-28T11:24:02Z</time>
      </trkpt>
      <trkpt lat="43.9954" lon="5.14698">
        <ele>370</ele>
        <time>2019-04-28T11:24:13Z</time>
      </trkpt>
      <trkpt lat="43.99537" lon="5.14703">
        <ele>368.127</ele>
        <time>2019-04-28T11:24:23Z</time>
      </trkpt>
      <trkpt lat="43.99537" lon="5.14705">
        <ele>366.589</ele>
        <time>2019-04-28T11:24:34Z</time>
      </trkpt>
      <trkpt lat="43.99537" lon="5.14705">
        <ele>366.054</ele>
        <time>2019-04-28T11:24:44Z</time>
      </trkpt>
      <trkpt lat="43.99537" lon="5.14704">
        <ele>365.051</ele>
        <time>2019-04-28T11:24:55Z</time>
      </trkpt>
      <trkpt lat="43.99538" lon="5.14702">
        <ele>363.986</ele>
        <time>2019-04-28T11:25:05Z</time>
      </trkpt>
      <trkpt lat="43.99536" lon="5.14703">
        <ele>363.015</ele>
        <time>2019-04-28T11:25:15Z</time>
      </trkpt>
      <trkpt lat="43.99535" lon="5.14704">
        <ele>362.835</ele>
        <time>2019-04-28T11:25:26Z</time>
      </trkpt>
      <trkpt lat="43.99534" lon="5.14705">
        <ele>362.472</ele>
        <time>2019-04-28T11:25:37Z</time>
      </trkpt>
      <trkpt lat="43.99534" lon="5.14706">
        <ele>362.106</ele>
        <time>2019-04-28T11:25:47Z</time>
      </trkpt>
      <trkpt lat="43.99534" lon="5.14706">
        <ele>361.997</ele>
        <time>2019-04-28T11:25:58Z</time>
      </trkpt>
      <trkpt lat="43.99534" lon="5.14705">
        <ele>361.961</ele>
        <time>2019-04-28T11:26:09Z</time>
      </trkpt>
      <trkpt lat="43.99534" lon="5.14705">
        <ele>361.996</ele>
        <time>2019-04-28T11:26:19Z</time>
      </trkpt>
      <trkpt lat="43.99535" lon="5.14704">
        <ele>361.797</ele>
        <time>2019-04-28T11:26:30Z</time>
      </trkpt>
      <trkpt lat="43.99537" lon="5.14701">
        <ele>361.01</ele>
        <time>2019-04-28T11:26:40Z</time>
      </trkpt>
      <trkpt lat="43.99538" lon="5.14701">
        <ele>359.77</ele>
        <time>2019-04-28T11:26:51Z</time>
      </trkpt>
      <trkpt lat="43.99538" lon="5.14706">
        <ele>358.671</ele>
        <time>2019-04-28T11:27:01Z</time>
      </trkpt>
      <trkpt lat="43.99538" lon="5.14706">
        <ele>358.525</ele>
        <time>2019-04-28T11:27:12Z</time>
      </trkpt>
      <trkpt lat="43.99537" lon="5.14707">
        <ele>358.001</ele>
        <time>2019-04-28T11:27:23Z</time>
      </trkpt>
      <trkpt lat="43.99537" lon="5.14708">
        <ele>357.17</ele>
        <time>2019-04-28T11:27:34Z</time>
      </trkpt>
      <trkpt lat="43.99537" lon="5.14708">
        <ele>356.259</ele>
        <time>2019-04-28T11:27:44Z</time>
      </trkpt>
      <trkpt lat="43.99538" lon="5.14708">
        <ele>354.455</ele>
        <time>2019-04-28T11:27:55Z</time>
      </trkpt>
      <trkpt lat="43.99536" lon="5.14707">
        <ele>354.217</ele>
        <time>2019-04-28T11:28:05Z</time>
      </trkpt>
      <trkpt lat="43.99537" lon="5.14707">
        <ele>354.166</ele>
        <time>2019-04-28T11:28:15Z</time>
      </trkpt>
      <trkpt lat="43.99538" lon="5.14704">
        <ele>353.864</ele>
        <time>2019-04-28T11:28:26Z</time>
      </trkpt>
      <trkpt lat="43.9954" lon="5.14704">
        <ele>353.729</ele>
        <time>2019-04-28T11:28:37Z</time>
      </trkpt>
      <trkpt lat="43.9954" lon="5.14704">
        <ele>353.586</ele>
        <time>2019-04-28T11:28:47Z</time>
      </trkpt>
      <trkpt lat="43.99542" lon="5.14703">
        <ele>353.138</ele>
        <time>2019-04-28T11:28:58Z</time>
      </trkpt>
      <trkpt lat="43.99541" lon="5.14703">
        <ele>352.992</ele>
        <time>2019-04-28T11:29:09Z</time>
      </trkpt>
      <trkpt lat="43.99539" lon="5.14705">
        <ele>352.276</ele>
        <time>2019-04-28T11:29:20Z</time>
      </trkpt>
      <trkpt lat="43.99539" lon="5.14705">
        <ele>351.6</ele>
        <time>2019-04-28T11:29:30Z</time>
      </trkpt>
      <trkpt lat="43.99538" lon="5.14709">
        <ele>350.627</ele>
        <time>2019-04-28T11:29:41Z</time>
      </trkpt>
      <trkpt lat="43.99538" lon="5.14708">
        <ele>350.143</ele>
        <time>2019-04-28T11:29:52Z</time>
      </trkpt>
      <trkpt lat="43.99538" lon="5.14707">
        <ele>349.817</ele>
        <time>2019-04-28T11:30:04Z</time>
      </trkpt>
      <trkpt lat="43.99538" lon="5.14706">
        <ele>349.579</ele>
        <time>2019-04-28T11:30:14Z</time>
      </trkpt>
      <trkpt lat="43.99539" lon="5.14707">
        <ele>349.427</ele>
        <time>2019-04-28T11:30:24Z</time>
      </trkpt>
      <trkpt lat="43.99539" lon="5.14707">
        <ele>349.522</ele>
        <time>2019-04-28T11:30:34Z</time>
      </trkpt>
      <trkpt lat="43.9954" lon="5.14707">
        <ele>349.341</ele>
        <time>2019-04-28T11:30:44Z</time>
      </trkpt>
      <trkpt lat="43.9954" lon="5.14708">
        <ele>348.448</ele>
        <time>2019-04-28T11:30:55Z</time>
      </trkpt>
      <trkpt lat="43.99543" lon="5.14711">
        <ele>347.065</ele>
        <time>2019-04-28T11:31:05Z</time>
      </trkpt>
      <trkpt lat="43.99544" lon="5.14708">
        <ele>345.606</ele>
        <time>2019-04-28T11:31:15Z</time>
      </trkpt>
      <trkpt lat="43.99544" lon="5.14707">
        <ele>343.449</ele>
        <time>2019-04-28T11:31:26Z</time>
      </trkpt>
      <trkpt lat="43.99543" lon="5.14703">
        <ele>341.371</ele>
        <time>2019-04-28T11:31:37Z</time>
      </trkpt>
      <trkpt lat="43.99543" lon="5.14702">
        <ele>340.284</ele>
        <time>2019-04-28T11:31:48Z</time>
      </trkpt>
      <trkpt lat="43.99542" lon="5.14701">
        <ele>338.976</ele>
        <time>2019-04-28T11:31:58Z</time>
      </trkpt>
      <trkpt lat="43.99542" lon="5.14702">
        <ele>338.613</ele>
        <time>2019-04-28T11:32:08Z</time>
      </trkpt>
      <trkpt lat="43.99542" lon="5.14703">
        <ele>338.598</ele>
        <time>2019-04-28T11:32:19Z</time>
      </trkpt>
      <trkpt lat="43.99542" lon="5.14704">
        <ele>338.979</ele>
        <time>2019-04-28T11:32:31Z</time>
      </trkpt>
      <trkpt lat="43.9954" lon="5.14706">
        <ele>339.469</ele>
        <time>2019-04-28T11:32:41Z</time>
      </trkpt>
      <trkpt lat="43.99539" lon="5.14707">
        <ele>339.809</ele>
        <time>2019-04-28T11:32:51Z</time>
      </trkpt>
      <trkpt lat="43.99538" lon="5.14707">
        <ele>340.17</ele>
        <time>2019-04-28T11:33:02Z</time>
      </trkpt>
      <trkpt lat="43.99536" lon="5.14708">
        <ele>341</ele>
        <time>2019-04-28T11:33:13Z</time>
      </trkpt>
      <trkpt lat="43.99537" lon="5.14707">
        <ele>341.702</ele>
        <time>2019-04-28T11:33:23Z</time>
      </trkpt>
      <trkpt lat="43.99535" lon="5.14707">
        <ele>342.966</ele>
        <time>2019-04-28T11:33:34Z</time>
      </trkpt>
      <trkpt lat="43.99537" lon="5.14704">
        <ele>343.9</ele>
        <time>2019-04-28T11:33:44Z</time>
      </trkpt>
      <trkpt lat="43.99534" lon="5.14705">
        <ele>344.741</ele>
        <time>2019-04-28T11:33:55Z</time>
      </trkpt>
      <trkpt lat="43.99536" lon="5.14705">
        <ele>345.577</ele>
        <time>2019-04-28T11:34:06Z</time>
      </trkpt>
      <trkpt lat="43.99537" lon="5.14704">
        <ele>345.592</ele>
        <time>2019-04-28T11:34:16Z</time>
      </trkpt>
      <trkpt lat="43.99538" lon="5.14705">
        <ele>345.542</ele>
        <time>2019-04-28T11:34:26Z</time>
      </trkpt>
      <trkpt lat="43.99538" lon="5.14705">
        <ele>345.417</ele>
        <time>2019-04-28T11:34:37Z</time>
      </trkpt>
      <trkpt lat="43.99538" lon="5.14706">
        <ele>345.256</ele>
        <time>2019-04-28T11:34:48Z</time>
      </trkpt>
      <trkpt lat="43.99538" lon="5.14706">
        <ele>345.408</ele>
        <time>2019-04-28T11:34:59Z</time>
      </trkpt>
      <trkpt lat="43.99538" lon="5.14706">
        <ele>345.562</ele>
        <time>2019-04-28T11:35:11Z</time>
      </trkpt>
      <trkpt lat="43.99537" lon="5.14707">
        <ele>345.868</ele>
        <time>2019-04-28T11:35:21Z</time>
      </trkpt>
      <trkpt lat="43.99537" lon="5.14708">
        <ele>346.125</ele>
        <time>2019-04-28T11:35:31Z</time>
      </trkpt>
      <trkpt lat="43.99536" lon="5.14707">
        <ele>346.332</ele>
        <time>2019-04-28T11:35:42Z</time>
      </trkpt>
      <trkpt lat="43.99536" lon="5.14707">
        <ele>346.787</ele>
        <time>2019-04-28T11:35:52Z</time>
      </trkpt>
      <trkpt lat="43.99537" lon="5.14706">
        <ele>347.101</ele>
        <time>2019-04-28T11:36:03Z</time>
      </trkpt>
      <trkpt lat="43.99538" lon="5.14705">
        <ele>347.093</ele>
        <time>2019-04-28T11:36:14Z</time>
      </trkpt>
      <trkpt lat="43.99539" lon="5.14704">
        <ele>347.076</ele>
        <time>2019-04-28T11:36:24Z</time>
      </trkpt>
      <trkpt lat="43.99539" lon="5.14705">
        <ele>347.12</ele>
        <time>2019-04-28T11:36:35Z</time>
      </trkpt>
      <trkpt lat="43.9954" lon="5.14705">
        <ele>347.118</ele>
        <time>2019-04-28T11:36:45Z</time>
      </trkpt>
      <trkpt lat="43.99539" lon="5.14704">
        <ele>347.14</ele>
        <time>2019-04-28T11:36:56Z</time>
      </trkpt>
      <trkpt lat="43.99539" lon="5.14704">
        <ele>347.204</ele>
        <time>2019-04-28T11:37:06Z</time>
      </trkpt>
      <trkpt lat="43.99539" lon="5.14702">
        <ele>347.312</ele>
        <time>2019-04-28T11:37:17Z</time>
      </trkpt>
      <trkpt lat="43.99539" lon="5.14703">
        <ele>347.357</ele>
        <time>2019-04-28T11:37:28Z</time>
      </trkpt>
      <trkpt lat="43.99539" lon="5.14703">
        <ele>347.406</ele>
        <time>2019-04-28T11:37:38Z</time>
      </trkpt>
      <trkpt lat="43.99539" lon="5.14703">
        <ele>347.489</ele>
        <time>2019-04-28T11:37:49Z</time>
      </trkpt>
      <trkpt lat="43.99539" lon="5.14703">
        <ele>347.578</ele>
        <time>2019-04-28T11:38:00Z</time>
      </trkpt>
      <trkpt lat="43.99539" lon="5.14703">
        <ele>347.66</ele>
        <time>2019-04-28T11:38:10Z</time>
      </trkpt>
      <trkpt lat="43.99539" lon="5.14702">
        <ele>347.808</ele>
        <time>2019-04-28T11:38:21Z</time>
      </trkpt>
      <trkpt lat="43.99539" lon="5.14701">
        <ele>347.946</ele>
        <time>2019-04-28T11:38:31Z</time>
      </trkpt>
      <trkpt lat="43.99539" lon="5.14701">
        <ele>348.059</ele>
        <time>2019-04-28T11:38:41Z</time>
      </trkpt>
      <trkpt lat="43.99539" lon="5.147">
        <ele>348.133</ele>
        <time>2019-04-28T11:38:52Z</time>
      </trkpt>
      <trkpt lat="43.9954" lon="5.147">
        <ele>348.185</ele>
        <time>2019-04-28T11:39:02Z</time>
      </trkpt>
      <trkpt lat="43.9954" lon="5.147">
        <ele>348.162</ele>
        <time>2019-04-28T11:39:13Z</time>
      </trkpt>
      <trkpt lat="43.9954" lon="5.147">
        <ele>348.124</ele>
        <time>2019-04-28T11:39:23Z</time>
      </trkpt>
      <trkpt lat="43.99541" lon="5.14701">
        <ele>348.076</ele>
        <time>2019-04-28T11:39:34Z</time>
      </trkpt>
      <trkpt lat="43.99541" lon="5.14702">
        <ele>348.045</ele>
        <time>2019-04-28T11:39:45Z</time>
      </trkpt>
      <trkpt lat="43.99541" lon="5.14703">
        <ele>347.959</ele>
        <time>2019-04-28T11:39:55Z</time>
      </trkpt>
      <trkpt lat="43.99541" lon="5.14703">
        <ele>347.883</ele>
        <time>2019-04-28T11:40:06Z</time>
      </trkpt>
      <trkpt lat="43.9954" lon="5.14704">
        <ele>348.193</ele>
        <time>2019-04-28T11:40:16Z</time>
      </trkpt>
      <trkpt lat="43.99538" lon="5.14705">
        <ele>348.372</ele>
        <time>2019-04-28T11:40:27Z</time>
      </trkpt>
      <trkpt lat="43.99538" lon="5.14705">
        <ele>348.44</ele>
        <time>2019-04-28T11:40:37Z</time>
      </trkpt>
      <trkpt lat="43.99537" lon="5.14708">
        <ele>348.601</ele>
        <time>2019-04-28T11:40:48Z</time>
      </trkpt>
      <trkpt lat="43.99536" lon="5.14709">
        <ele>348.575</ele>
        <time>2019-04-28T11:40:58Z</time>
      </trkpt>
      <trkpt lat="43.99536" lon="5.1471">
        <ele>348.509</ele>
        <time>2019-04-28T11:41:08Z</time>
      </trkpt>
      <trkpt lat="43.99536" lon="5.1471">
        <ele>348.514</ele>
        <time>2019-04-28T11:41:19Z</time>
      </trkpt>
      <trkpt lat="43.99536" lon="5.1471">
        <ele>348.578</ele>
        <time>2019-04-28T11:41:30Z</time>
      </trkpt>
      <trkpt lat="43.99536" lon="5.14711">
        <ele>348.66</ele>
        <time>2019-04-28T11:41:41Z</time>
      </trkpt>
      <trkpt lat="43.99536" lon="5.14713">
        <ele>348.727</ele>
        <time>2019-04-28T11:41:52Z</time>
      </trkpt>
      <trkpt lat="43.99538" lon="5.14713">
        <ele>348.577</ele>
        <time>2019-04-28T11:42:02Z</time>
      </trkpt>
      <trkpt lat="43.99535" lon="5.14711">
        <ele>347.95</ele>
        <time>2019-04-28T11:42:13Z</time>
      </trkpt>
      <trkpt lat="43.99532" lon="5.14714">
        <ele>347.235</ele>
        <time>2019-04-28T11:42:24Z</time>
      </trkpt>
      <trkpt lat="43.99534" lon="5.14714">
        <ele>347.068</ele>
        <time>2019-04-28T11:42:34Z</time>
      </trkpt>
      <trkpt lat="43.99535" lon="5.14713">
        <ele>346.782</ele>
        <time>2019-04-28T11:42:45Z</time>
      </trkpt>
      <trkpt lat="43.99536" lon="5.14713">
        <ele>346.533</ele>
        <time>2019-04-28T11:42:55Z</time>
      </trkpt>
      <trkpt lat="43.99536" lon="5.14718">
        <ele>345.87</ele>
        <time>2019-04-28T11:43:06Z</time>
      </trkpt>
      <trkpt lat="43.99524" lon="5.1473">
        <ele>345.757</ele>
        <time>2019-04-28T11:43:17Z</time>
      </trkpt>
      <trkpt lat="43.99512" lon="5.14739">
        <ele>346.309</ele>
        <time>2019-04-28T11:43:28Z</time>
      </trkpt>
      <trkpt lat="43.995" lon="5.14754">
        <ele>346.903</ele>
        <time>2019-04-28T11:43:39Z</time>
      </trkpt>
      <trkpt lat="43.99497" lon="5.14767">
        <ele>346.812</ele>
        <time>2019-04-28T11:43:49Z</time>
      </trkpt>
      <trkpt lat="43.99479" lon="5.1478">
        <ele>347.462</ele>
        <time>2019-04-28T11:43:59Z</time>
      </trkpt>
      <trkpt lat="43.9947" lon="5.1479">
        <ele>347.69</ele>
        <time>2019-04-28T11:44:10Z</time>
      </trkpt>
      <trkpt lat="43.99469" lon="5.14791">
        <ele>347.674</ele>
        <time>2019-04-28T11:44:21Z</time>
      </trkpt>
      <trkpt lat="43.9946" lon="5.14786">
        <ele>347.199</ele>
        <time>2019-04-28T11:44:31Z</time>
      </trkpt>
      <trkpt lat="43.99445" lon="5.14796">
        <ele>346.672</ele>
        <time>2019-04-28T11:44:42Z</time>
      </trkpt>
      <trkpt lat="43.99435" lon="5.14811">
        <ele>346.431</ele>
        <time>2019-04-28T11:44:53Z</time>
      </trkpt>
      <trkpt lat="43.99437" lon="5.14825">
        <ele>346.102</ele>
        <time>2019-04-28T11:45:04Z</time>
      </trkpt>
      <trkpt lat="43.99439" lon="5.14825">
        <ele>346.057</ele>
        <time>2019-04-28T11:45:15Z</time>
      </trkpt>
      <trkpt lat="43.99439" lon="5.14825">
        <ele>346.079</ele>
        <time>2019-04-28T11:45:25Z</time>
      </trkpt>
      <trkpt lat="43.99437" lon="5.14822">
        <ele>346.171</ele>
        <time>2019-04-28T11:45:36Z</time>
      </trkpt>
      <trkpt lat="43.99424" lon="5.14837">
        <ele>346.928</ele>
        <time>2019-04-28T11:45:47Z</time>
      </trkpt>
      <trkpt lat="43.99414" lon="5.14861">
        <ele>347.504</ele>
        <time>2019-04-28T11:45:58Z</time>
      </trkpt>
      <trkpt lat="43.99399" lon="5.14888">
        <ele>347.694</ele>
        <time>2019-04-28T11:46:08Z</time>
      </trkpt>
      <trkpt lat="43.99385" lon="5.14915">
        <ele>348.146</ele>
        <time>2019-04-28T11:46:19Z</time>
      </trkpt>
      <trkpt lat="43.9937" lon="5.14938">
        <ele>348.667</ele>
        <time>2019-04-28T11:46:29Z</time>
      </trkpt>
      <trkpt lat="43.99354" lon="5.14959">
        <ele>349.315</ele>
        <time>2019-04-28T11:46:39Z</time>
      </trkpt>
      <trkpt lat="43.99344" lon="5.14984">
        <ele>350.261</ele>
        <time>2019-04-28T11:46:49Z</time>
      </trkpt>
      <trkpt lat="43.99326" lon="5.15009">
        <ele>351.696</ele>
        <time>2019-04-28T11:47:00Z</time>
      </trkpt>
      <trkpt lat="43.99311" lon="5.15034">
        <ele>352.851</ele>
        <time>2019-04-28T11:47:10Z</time>
      </trkpt>
      <trkpt lat="43.99295" lon="5.15062">
        <ele>354.03</ele>
        <time>2019-04-28T11:47:21Z</time>
      </trkpt>
      <trkpt lat="43.99282" lon="5.15083">
        <ele>355.011</ele>
        <time>2019-04-28T11:47:32Z</time>
      </trkpt>
      <trkpt lat="43.99274" lon="5.15105">
        <ele>356.012</ele>
        <time>2019-04-28T11:47:42Z</time>
      </trkpt>
      <trkpt lat="43.99259" lon="5.15126">
        <ele>357.553</ele>
        <time>2019-04-28T11:47:53Z</time>
      </trkpt>
      <trkpt lat="43.99246" lon="5.15145">
        <ele>358.861</ele>
        <time>2019-04-28T11:48:04Z</time>
      </trkpt>
      <trkpt lat="43.99237" lon="5.15165">
        <ele>360.125</ele>
        <time>2019-04-28T11:48:15Z</time>
      </trkpt>
      <trkpt lat="43.9923" lon="5.15183">
        <ele>361.949</ele>
        <time>2019-04-28T11:48:25Z</time>
      </trkpt>
      <trkpt lat="43.99227" lon="5.15202">
        <ele>363.593</ele>
        <time>2019-04-28T11:48:35Z</time>
      </trkpt>
      <trkpt lat="43.99226" lon="5.15222">
        <ele>365.781</ele>
        <time>2019-04-28T11:48:46Z</time>
      </trkpt>
      <trkpt lat="43.99227" lon="5.15241">
        <ele>367.894</ele>
        <time>2019-04-28T11:48:56Z</time>
      </trkpt>
      <trkpt lat="43.99227" lon="5.15263">
        <ele>369.845</ele>
        <time>2019-04-28T11:49:07Z</time>
      </trkpt>
      <trkpt lat="43.99223" lon="5.15284">
        <ele>370.942</ele>
        <time>2019-04-28T11:49:17Z</time>
      </trkpt>
      <trkpt lat="43.9922" lon="5.15305">
        <ele>372.453</ele>
        <time>2019-04-28T11:49:28Z</time>
      </trkpt>
      <trkpt lat="43.99217" lon="5.15324">
        <ele>373.846</ele>
        <time>2019-04-28T11:49:38Z</time>
      </trkpt>
      <trkpt lat="43.99216" lon="5.15331">
        <ele>374.4</ele>
        <time>2019-04-28T11:49:49Z</time>
      </trkpt>
      <trkpt lat="43.99216" lon="5.15331">
        <ele>374.54</ele>
        <time>2019-04-28T11:50:00Z</time>
      </trkpt>
      <trkpt lat="43.99216" lon="5.15332">
        <ele>374.672</ele>
        <time>2019-04-28T11:50:11Z</time>
      </trkpt>
      <trkpt lat="43.99215" lon="5.15345">
        <ele>375.912</ele>
        <time>2019-04-28T11:50:21Z</time>
      </trkpt>
      <trkpt lat="43.99212" lon="5.15368">
        <ele>377.377</ele>
        <time>2019-04-28T11:50:32Z</time>
      </trkpt>
      <trkpt lat="43.99205" lon="5.15388">
        <ele>378.434</ele>
        <time>2019-04-28T11:50:42Z</time>
      </trkpt>
      <trkpt lat="43.99197" lon="5.1541">
        <ele>379.578</ele>
        <time>2019-04-28T11:50:52Z</time>
      </trkpt>
      <trkpt lat="43.9919" lon="5.15434">
        <ele>380.752</ele>
        <time>2019-04-28T11:51:03Z</time>
      </trkpt>
      <trkpt lat="43.99185" lon="5.15461">
        <ele>382.21</ele>
        <time>2019-04-28T11:51:14Z</time>
      </trkpt>
      <trkpt lat="43.99171" lon="5.15498">
        <ele>384.765</ele>
        <time>2019-04-28T11:51:25Z</time>
      </trkpt>
      <trkpt lat="43.99149" lon="5.15561">
        <ele>386.596</ele>
        <time>2019-04-28T11:51:36Z</time>
      </trkpt>
      <trkpt lat="43.99145" lon="5.1557">
        <ele>386.568</ele>
        <time>2019-04-28T11:51:46Z</time>
      </trkpt>
      <trkpt lat="43.99145" lon="5.15571">
        <ele>386.285</ele>
        <time>2019-04-28T11:51:59Z</time>
      </trkpt>
      <trkpt lat="43.99142" lon="5.1557">
        <ele>386.104</ele>
        <time>2019-04-28T11:52:09Z</time>
      </trkpt>
      <trkpt lat="43.99129" lon="5.15603">
        <ele>385.721</ele>
        <time>2019-04-28T11:52:20Z</time>
      </trkpt>
      <trkpt lat="43.99119" lon="5.1569">
        <ele>382.902</ele>
        <time>2019-04-28T11:52:31Z</time>
      </trkpt>
      <trkpt lat="43.99075" lon="5.15809">
        <ele>377.536</ele>
        <time>2019-04-28T11:52:42Z</time>
      </trkpt>
      <trkpt lat="43.99018" lon="5.15958">
        <ele>371.714</ele>
        <time>2019-04-28T11:52:53Z</time>
      </trkpt>
      <trkpt lat="43.98948" lon="5.16045">
        <ele>367.737</ele>
        <time>2019-04-28T11:53:04Z</time>
      </trkpt>
      <trkpt lat="43.98872" lon="5.16105">
        <ele>364.874</ele>
        <time>2019-04-28T11:53:14Z</time>
      </trkpt>
      <trkpt lat="43.98862" lon="5.16245">
        <ele>360.655</ele>
        <time>2019-04-28T11:53:24Z</time>
      </trkpt>
      <trkpt lat="43.98885" lon="5.1641">
        <ele>352.984</ele>
        <time>2019-04-28T11:53:34Z</time>
      </trkpt>
      <trkpt lat="43.98891" lon="5.1652">
        <ele>348.52</ele>
        <time>2019-04-28T11:53:45Z</time>
      </trkpt>
      <trkpt lat="43.98889" lon="5.16563">
        <ele>348.109</ele>
        <time>2019-04-28T11:53:55Z</time>
      </trkpt>
      <trkpt lat="43.98898" lon="5.16586">
        <ele>348.463</ele>
        <time>2019-04-28T11:54:06Z</time>
      </trkpt>
      <trkpt lat="43.98913" lon="5.16601">
        <ele>349.171</ele>
        <time>2019-04-28T11:54:17Z</time>
      </trkpt>
      <trkpt lat="43.98931" lon="5.16609">
        <ele>350.028</ele>
        <time>2019-04-28T11:54:27Z</time>
      </trkpt>
      <trkpt lat="43.98952" lon="5.16617">
        <ele>351.21</ele>
        <time>2019-04-28T11:54:38Z</time>
      </trkpt>
      <trkpt lat="43.98975" lon="5.16633">
        <ele>352.369</ele>
        <time>2019-04-28T11:54:48Z</time>
      </trkpt>
      <trkpt lat="43.99016" lon="5.16696">
        <ele>356.023</ele>
        <time>2019-04-28T11:54:59Z</time>
      </trkpt>
      <trkpt lat="43.9901" lon="5.16761">
        <ele>355.835</ele>
        <time>2019-04-28T11:55:09Z</time>
      </trkpt>
      <trkpt lat="43.98988" lon="5.16798">
        <ele>355.58</ele>
        <time>2019-04-28T11:55:20Z</time>
      </trkpt>
      <trkpt lat="43.98969" lon="5.16832">
        <ele>355.327</ele>
        <time>2019-04-28T11:55:30Z</time>
      </trkpt>
      <trkpt lat="43.98948" lon="5.1687">
        <ele>355.089</ele>
        <time>2019-04-28T11:55:41Z</time>
      </trkpt>
      <trkpt lat="43.98928" lon="5.16906">
        <ele>355.018</ele>
        <time>2019-04-28T11:55:52Z</time>
      </trkpt>
      <trkpt lat="43.98911" lon="5.16936">
        <ele>355.09</ele>
        <time>2019-04-28T11:56:02Z</time>
      </trkpt>
      <trkpt lat="43.98892" lon="5.16969">
        <ele>355.345</ele>
        <time>2019-04-28T11:56:13Z</time>
      </trkpt>
      <trkpt lat="43.98875" lon="5.17002">
        <ele>355.799</ele>
        <time>2019-04-28T11:56:24Z</time>
      </trkpt>
      <trkpt lat="43.98857" lon="5.17033">
        <ele>356.39</ele>
        <time>2019-04-28T11:56:35Z</time>
      </trkpt>
      <trkpt lat="43.98838" lon="5.17067">
        <ele>357.16</ele>
        <time>2019-04-28T11:56:46Z</time>
      </trkpt>
      <trkpt lat="43.98814" lon="5.17097">
        <ele>358.064</ele>
        <time>2019-04-28T11:56:57Z</time>
      </trkpt>
      <trkpt lat="43.98792" lon="5.17123">
        <ele>358.986</ele>
        <time>2019-04-28T11:57:07Z</time>
      </trkpt>
      <trkpt lat="43.9877" lon="5.1715">
        <ele>360.001</ele>
        <time>2019-04-28T11:57:17Z</time>
      </trkpt>
      <trkpt lat="43.98747" lon="5.17179">
        <ele>361.146</ele>
        <time>2019-04-28T11:57:28Z</time>
      </trkpt>
      <trkpt lat="43.98747" lon="5.17176">
        <ele>362.435</ele>
        <time>2019-04-28T11:57:39Z</time>
      </trkpt>
      <trkpt lat="43.98747" lon="5.17176">
        <ele>362.795</ele>
        <time>2019-04-28T11:57:51Z</time>
      </trkpt>
      <trkpt lat="43.98747" lon="5.17176">
        <ele>362.94</ele>
        <time>2019-04-28T11:58:02Z</time>
      </trkpt>
      <trkpt lat="43.98747" lon="5.17182">
        <ele>363.52</ele>
        <time>2019-04-28T11:58:12Z</time>
      </trkpt>
      <trkpt lat="43.98738" lon="5.17194">
        <ele>364.789</ele>
        <time>2019-04-28T11:58:22Z</time>
      </trkpt>
      <trkpt lat="43.98714" lon="5.17222">
        <ele>366.145</ele>
        <time>2019-04-28T11:58:33Z</time>
      </trkpt>
      <trkpt lat="43.98691" lon="5.17252">
        <ele>367.226</ele>
        <time>2019-04-28T11:58:43Z</time>
      </trkpt>
      <trkpt lat="43.98665" lon="5.17286">
        <ele>368.301</ele>
        <time>2019-04-28T11:58:54Z</time>
      </trkpt>
      <trkpt lat="43.98643" lon="5.17314">
        <ele>369.291</ele>
        <time>2019-04-28T11:59:04Z</time>
      </trkpt>
      <trkpt lat="43.9862" lon="5.17344">
        <ele>370.382</ele>
        <time>2019-04-28T11:59:15Z</time>
      </trkpt>
      <trkpt lat="43.98598" lon="5.17374">
        <ele>371.934</ele>
        <time>2019-04-28T11:59:26Z</time>
      </trkpt>
      <trkpt lat="43.98571" lon="5.17407">
        <ele>373</ele>
        <time>2019-04-28T11:59:37Z</time>
      </trkpt>
      <trkpt lat="43.98547" lon="5.17438">
        <ele>374.238</ele>
        <time>2019-04-28T11:59:48Z</time>
      </trkpt>
      <trkpt lat="43.98521" lon="5.17469">
        <ele>375.513</ele>
        <time>2019-04-28T11:59:59Z</time>
      </trkpt>
      <trkpt lat="43.98497" lon="5.17496">
        <ele>377.009</ele>
        <time>2019-04-28T12:00:09Z</time>
      </trkpt>
      <trkpt lat="43.98474" lon="5.17528">
        <ele>379.276</ele>
        <time>2019-04-28T12:00:20Z</time>
      </trkpt>
      <trkpt lat="43.98468" lon="5.17566">
        <ele>381.228</ele>
        <time>2019-04-28T12:00:30Z</time>
      </trkpt>
      <trkpt lat="43.98488" lon="5.17603">
        <ele>383.333</ele>
        <time>2019-04-28T12:00:41Z</time>
      </trkpt>
      <trkpt lat="43.98509" lon="5.17629">
        <ele>385.006</ele>
        <time>2019-04-28T12:00:51Z</time>
      </trkpt>
      <trkpt lat="43.98531" lon="5.17656">
        <ele>386.845</ele>
        <time>2019-04-28T12:01:02Z</time>
      </trkpt>
      <trkpt lat="43.98549" lon="5.17677">
        <ele>388.469</ele>
        <time>2019-04-28T12:01:12Z</time>
      </trkpt>
      <trkpt lat="43.98564" lon="5.17697">
        <ele>389.648</ele>
        <time>2019-04-28T12:01:22Z</time>
      </trkpt>
      <trkpt lat="43.98583" lon="5.17718">
        <ele>390.796</ele>
        <time>2019-04-28T12:01:33Z</time>
      </trkpt>
      <trkpt lat="43.98602" lon="5.1774">
        <ele>391.759</ele>
        <time>2019-04-28T12:01:43Z</time>
      </trkpt>
      <trkpt lat="43.9862" lon="5.17776">
        <ele>392.541</ele>
        <time>2019-04-28T12:01:54Z</time>
      </trkpt>
      <trkpt lat="43.98628" lon="5.17818">
        <ele>393.17</ele>
        <time>2019-04-28T12:02:04Z</time>
      </trkpt>
      <trkpt lat="43.98628" lon="5.17862">
        <ele>393.751</ele>
        <time>2019-04-28T12:02:14Z</time>
      </trkpt>
      <trkpt lat="43.9862" lon="5.17912">
        <ele>394.773</ele>
        <time>2019-04-28T12:02:25Z</time>
      </trkpt>
      <trkpt lat="43.98611" lon="5.17959">
        <ele>396.244</ele>
        <time>2019-04-28T12:02:36Z</time>
      </trkpt>
      <trkpt lat="43.98598" lon="5.17995">
        <ele>397.885</ele>
        <time>2019-04-28T12:02:47Z</time>
      </trkpt>
      <trkpt lat="43.9857" lon="5.18003">
        <ele>399.075</ele>
        <time>2019-04-28T12:02:58Z</time>
      </trkpt>
      <trkpt lat="43.98543" lon="5.18007">
        <ele>400.739</ele>
        <time>2019-04-28T12:03:08Z</time>
      </trkpt>
      <trkpt lat="43.98515" lon="5.18009">
        <ele>402.845</ele>
        <time>2019-04-28T12:03:19Z</time>
      </trkpt>
      <trkpt lat="43.98492" lon="5.18009">
        <ele>404.196</ele>
        <time>2019-04-28T12:03:29Z</time>
      </trkpt>
      <trkpt lat="43.98463" lon="5.18012">
        <ele>405.758</ele>
        <time>2019-04-28T12:03:40Z</time>
      </trkpt>
      <trkpt lat="43.9844" lon="5.1804">
        <ele>407.065</ele>
        <time>2019-04-28T12:03:51Z</time>
      </trkpt>
      <trkpt lat="43.98398" lon="5.18079">
        <ele>406.68</ele>
        <time>2019-04-28T12:04:01Z</time>
      </trkpt>
      <trkpt lat="43.98369" lon="5.18065">
        <ele>406.778</ele>
        <time>2019-04-28T12:04:11Z</time>
      </trkpt>
      <trkpt lat="43.98357" lon="5.18052">
        <ele>409.479</ele>
        <time>2019-04-28T12:04:22Z</time>
      </trkpt>
      <trkpt lat="43.98332" lon="5.18049">
        <ele>410.578</ele>
        <time>2019-04-28T12:04:33Z</time>
      </trkpt>
      <trkpt lat="43.98311" lon="5.18055">
        <ele>412.125</ele>
        <time>2019-04-28T12:04:44Z</time>
      </trkpt>
      <trkpt lat="43.98292" lon="5.18059">
        <ele>413.828</ele>
        <time>2019-04-28T12:04:54Z</time>
      </trkpt>
      <trkpt lat="43.98274" lon="5.1804">
        <ele>415.369</ele>
        <time>2019-04-28T12:05:05Z</time>
      </trkpt>
      <trkpt lat="43.98268" lon="5.18031">
        <ele>416.26</ele>
        <time>2019-04-28T12:05:16Z</time>
      </trkpt>
      <trkpt lat="43.98268" lon="5.18032">
        <ele>416.313</ele>
        <time>2019-04-28T12:05:26Z</time>
      </trkpt>
      <trkpt lat="43.98268" lon="5.18032">
        <ele>416.346</ele>
        <time>2019-04-28T12:05:37Z</time>
      </trkpt>
      <trkpt lat="43.98268" lon="5.18033">
        <ele>416.403</ele>
        <time>2019-04-28T12:05:48Z</time>
      </trkpt>
      <trkpt lat="43.98268" lon="5.18033">
        <ele>416.467</ele>
        <time>2019-04-28T12:05:59Z</time>
      </trkpt>
      <trkpt lat="43.98268" lon="5.18033">
        <ele>416.497</ele>
        <time>2019-04-28T12:06:09Z</time>
      </trkpt>
      <trkpt lat="43.98268" lon="5.18033">
        <ele>416.504</ele>
        <time>2019-04-28T12:06:20Z</time>
      </trkpt>
      <trkpt lat="43.98267" lon="5.18033">
        <ele>416.54</ele>
        <time>2019-04-28T12:06:30Z</time>
      </trkpt>
      <trkpt lat="43.98258" lon="5.18021">
        <ele>416.75</ele>
        <time>2019-04-28T12:06:41Z</time>
      </trkpt>
      <trkpt lat="43.98242" lon="5.17998">
        <ele>417.422</ele>
        <time>2019-04-28T12:06:52Z</time>
      </trkpt>
      <trkpt lat="43.98225" lon="5.17979">
        <ele>418.297</ele>
        <time>2019-04-28T12:07:03Z</time>
      </trkpt>
      <trkpt lat="43.98204" lon="5.17979">
        <ele>419.284</ele>
        <time>2019-04-28T12:07:14Z</time>
      </trkpt>
      <trkpt lat="43.98183" lon="5.17988">
        <ele>420.514</ele>
        <time>2019-04-28T12:07:25Z</time>
      </trkpt>
      <trkpt lat="43.98164" lon="5.17996">
        <ele>422.007</ele>
        <time>2019-04-28T12:07:35Z</time>
      </trkpt>
      <trkpt lat="43.98144" lon="5.17993">
        <ele>423.77</ele>
        <time>2019-04-28T12:07:45Z</time>
      </trkpt>
      <trkpt lat="43.98124" lon="5.1798">
        <ele>425.556</ele>
        <time>2019-04-28T12:07:56Z</time>
      </trkpt>
      <trkpt lat="43.98106" lon="5.17967">
        <ele>427.361</ele>
        <time>2019-04-28T12:08:07Z</time>
      </trkpt>
      <trkpt lat="43.98093" lon="5.17947">
        <ele>428.817</ele>
        <time>2019-04-28T12:08:17Z</time>
      </trkpt>
      <trkpt lat="43.98084" lon="5.17919">
        <ele>430.306</ele>
        <time>2019-04-28T12:08:28Z</time>
      </trkpt>
      <trkpt lat="43.98074" lon="5.17898">
        <ele>431.722</ele>
        <time>2019-04-28T12:08:38Z</time>
      </trkpt>
      <trkpt lat="43.98055" lon="5.17892">
        <ele>433.003</ele>
        <time>2019-04-28T12:08:48Z</time>
      </trkpt>
      <trkpt lat="43.98032" lon="5.17888">
        <ele>434.675</ele>
        <time>2019-04-28T12:08:59Z</time>
      </trkpt>
      <trkpt lat="43.98014" lon="5.17898">
        <ele>436.18</ele>
        <time>2019-04-28T12:09:09Z</time>
      </trkpt>
      <trkpt lat="43.97996" lon="5.17919">
        <ele>437.655</ele>
        <time>2019-04-28T12:09:20Z</time>
      </trkpt>
      <trkpt lat="43.9798" lon="5.1794">
        <ele>439.144</ele>
        <time>2019-04-28T12:09:31Z</time>
      </trkpt>
      <trkpt lat="43.97964" lon="5.17959">
        <ele>440.436</ele>
        <time>2019-04-28T12:09:41Z</time>
      </trkpt>
      <trkpt lat="43.97937" lon="5.17982">
        <ele>441.504</ele>
        <time>2019-04-28T12:09:52Z</time>
      </trkpt>
      <trkpt lat="43.97936" lon="5.18039">
        <ele>444.777</ele>
        <time>2019-04-28T12:10:03Z</time>
      </trkpt>
      <trkpt lat="43.97956" lon="5.18104">
        <ele>441.348</ele>
        <time>2019-04-28T12:10:13Z</time>
      </trkpt>
      <trkpt lat="43.97941" lon="5.18172">
        <ele>439.159</ele>
        <time>2019-04-28T12:10:24Z</time>
      </trkpt>
      <trkpt lat="43.97902" lon="5.18197">
        <ele>439.56</ele>
        <time>2019-04-28T12:10:34Z</time>
      </trkpt>
      <trkpt lat="43.9786" lon="5.18203">
        <ele>440.459</ele>
        <time>2019-04-28T12:10:44Z</time>
      </trkpt>
      <trkpt lat="43.97825" lon="5.18203">
        <ele>440.854</ele>
        <time>2019-04-28T12:10:55Z</time>
      </trkpt>
      <trkpt lat="43.97789" lon="5.182">
        <ele>443.026</ele>
        <time>2019-04-28T12:11:05Z</time>
      </trkpt>
      <trkpt lat="43.97753" lon="5.18189">
        <ele>444.254</ele>
        <time>2019-04-28T12:11:16Z</time>
      </trkpt>
      <trkpt lat="43.97723" lon="5.18168">
        <ele>445.422</ele>
        <time>2019-04-28T12:11:27Z</time>
      </trkpt>
      <trkpt lat="43.977" lon="5.18148">
        <ele>447.034</ele>
        <time>2019-04-28T12:11:37Z</time>
      </trkpt>
      <trkpt lat="43.97664" lon="5.1814">
        <ele>450.276</ele>
        <time>2019-04-28T12:11:48Z</time>
      </trkpt>
      <trkpt lat="43.97643" lon="5.18135">
        <ele>453.794</ele>
        <time>2019-04-28T12:11:58Z</time>
      </trkpt>
      <trkpt lat="43.97625" lon="5.18125">
        <ele>457.277</ele>
        <time>2019-04-28T12:12:09Z</time>
      </trkpt>
      <trkpt lat="43.97612" lon="5.18119">
        <ele>459.127</ele>
        <time>2019-04-28T12:12:20Z</time>
      </trkpt>
      <trkpt lat="43.97602" lon="5.18136">
        <ele>459.585</ele>
        <time>2019-04-28T12:12:31Z</time>
      </trkpt>
      <trkpt lat="43.97597" lon="5.18163">
        <ele>459.773</ele>
        <time>2019-04-28T12:12:41Z</time>
      </trkpt>
      <trkpt lat="43.97599" lon="5.18189">
        <ele>460.325</ele>
        <time>2019-04-28T12:12:52Z</time>
      </trkpt>
      <trkpt lat="43.97589" lon="5.18213">
        <ele>461.332</ele>
        <time>2019-04-28T12:13:03Z</time>
      </trkpt>
      <trkpt lat="43.97572" lon="5.18227">
        <ele>462.928</ele>
        <time>2019-04-28T12:13:14Z</time>
      </trkpt>
      <trkpt lat="43.97552" lon="5.18241">
        <ele>464.867</ele>
        <time>2019-04-28T12:13:25Z</time>
      </trkpt>
      <trkpt lat="43.97535" lon="5.18251">
        <ele>467.319</ele>
        <time>2019-04-28T12:13:36Z</time>
      </trkpt>
      <trkpt lat="43.97514" lon="5.18256">
        <ele>468.146</ele>
        <time>2019-04-28T12:13:46Z</time>
      </trkpt>
      <trkpt lat="43.97492" lon="5.1826">
        <ele>469.027</ele>
        <time>2019-04-28T12:13:57Z</time>
      </trkpt>
      <trkpt lat="43.9747" lon="5.18261">
        <ele>470.1</ele>
        <time>2019-04-28T12:14:08Z</time>
      </trkpt>
      <trkpt lat="43.97453" lon="5.18262">
        <ele>471.138</ele>
        <time>2019-04-28T12:14:18Z</time>
      </trkpt>
      <trkpt lat="43.97436" lon="5.18271">
        <ele>471.915</ele>
        <time>2019-04-28T12:14:28Z</time>
      </trkpt>
      <trkpt lat="43.97418" lon="5.18283">
        <ele>472.666</ele>
        <time>2019-04-28T12:14:39Z</time>
      </trkpt>
      <trkpt lat="43.97397" lon="5.18294">
        <ele>473.467</ele>
        <time>2019-04-28T12:14:50Z</time>
      </trkpt>
      <trkpt lat="43.97381" lon="5.18306">
        <ele>474.489</ele>
        <time>2019-04-28T12:15:00Z</time>
      </trkpt>
      <trkpt lat="43.97364" lon="5.18319">
        <ele>475.689</ele>
        <time>2019-04-28T12:15:11Z</time>
      </trkpt>
      <trkpt lat="43.97346" lon="5.18331">
        <ele>476.603</ele>
        <time>2019-04-28T12:15:22Z</time>
      </trkpt>
      <trkpt lat="43.97329" lon="5.18341">
        <ele>477.593</ele>
        <time>2019-04-28T12:15:32Z</time>
      </trkpt>
      <trkpt lat="43.97315" lon="5.18348">
        <ele>478.766</ele>
        <time>2019-04-28T12:15:42Z</time>
      </trkpt>
      <trkpt lat="43.97298" lon="5.18348">
        <ele>480.138</ele>
        <time>2019-04-28T12:15:53Z</time>
      </trkpt>
      <trkpt lat="43.97282" lon="5.18344">
        <ele>481.466</ele>
        <time>2019-04-28T12:16:03Z</time>
      </trkpt>
      <trkpt lat="43.97264" lon="5.1834">
        <ele>483.288</ele>
        <time>2019-04-28T12:16:14Z</time>
      </trkpt>
      <trkpt lat="43.97248" lon="5.18338">
        <ele>486.269</ele>
        <time>2019-04-28T12:16:25Z</time>
      </trkpt>
      <trkpt lat="43.97233" lon="5.18341">
        <ele>488.923</ele>
        <time>2019-04-28T12:16:35Z</time>
      </trkpt>
      <trkpt lat="43.97212" lon="5.18351">
        <ele>492.965</ele>
        <time>2019-04-28T12:16:46Z</time>
      </trkpt>
      <trkpt lat="43.97195" lon="5.18355">
        <ele>497.582</ele>
        <time>2019-04-28T12:16:57Z</time>
      </trkpt>
      <trkpt lat="43.9718" lon="5.1836">
        <ele>500.512</ele>
        <time>2019-04-28T12:17:07Z</time>
      </trkpt>
      <trkpt lat="43.97163" lon="5.18363">
        <ele>501.996</ele>
        <time>2019-04-28T12:17:17Z</time>
      </trkpt>
      <trkpt lat="43.97141" lon="5.18371">
        <ele>502.827</ele>
        <time>2019-04-28T12:17:28Z</time>
      </trkpt>
      <trkpt lat="43.9712" lon="5.18383">
        <ele>503.44</ele>
        <time>2019-04-28T12:17:39Z</time>
      </trkpt>
      <trkpt lat="43.97107" lon="5.18399">
        <ele>504.191</ele>
        <time>2019-04-28T12:17:49Z</time>
      </trkpt>
      <trkpt lat="43.97098" lon="5.1842">
        <ele>504.931</ele>
        <time>2019-04-28T12:17:59Z</time>
      </trkpt>
      <trkpt lat="43.9709" lon="5.18446">
        <ele>505.784</ele>
        <time>2019-04-28T12:18:10Z</time>
      </trkpt>
      <trkpt lat="43.97083" lon="5.18473">
        <ele>506.502</ele>
        <time>2019-04-28T12:18:21Z</time>
      </trkpt>
      <trkpt lat="43.9708" lon="5.18502">
        <ele>507.508</ele>
        <time>2019-04-28T12:18:31Z</time>
      </trkpt>
      <trkpt lat="43.97077" lon="5.18524">
        <ele>508.985</ele>
        <time>2019-04-28T12:18:41Z</time>
      </trkpt>
      <trkpt lat="43.97069" lon="5.1855">
        <ele>510.889</ele>
        <time>2019-04-28T12:18:52Z</time>
      </trkpt>
      <trkpt lat="43.97063" lon="5.1857">
        <ele>512.677</ele>
        <time>2019-04-28T12:19:02Z</time>
      </trkpt>
      <trkpt lat="43.97047" lon="5.18585">
        <ele>514.525</ele>
        <time>2019-04-28T12:19:13Z</time>
      </trkpt>
      <trkpt lat="43.97028" lon="5.18586">
        <ele>516.286</ele>
        <time>2019-04-28T12:19:24Z</time>
      </trkpt>
      <trkpt lat="43.97007" lon="5.18587">
        <ele>518.132</ele>
        <time>2019-04-28T12:19:35Z</time>
      </trkpt>
      <trkpt lat="43.96986" lon="5.18584">
        <ele>519.868</ele>
        <time>2019-04-28T12:19:46Z</time>
      </trkpt>
      <trkpt lat="43.96964" lon="5.18581">
        <ele>520.967</ele>
        <time>2019-04-28T12:19:56Z</time>
      </trkpt>
      <trkpt lat="43.96942" lon="5.18585">
        <ele>522.26</ele>
        <time>2019-04-28T12:20:07Z</time>
      </trkpt>
      <trkpt lat="43.96931" lon="5.18598">
        <ele>523.264</ele>
        <time>2019-04-28T12:20:17Z</time>
      </trkpt>
      <trkpt lat="43.96926" lon="5.18623">
        <ele>523.97</ele>
        <time>2019-04-28T12:20:28Z</time>
      </trkpt>
      <trkpt lat="43.96918" lon="5.18646">
        <ele>524.75</ele>
        <time>2019-04-28T12:20:39Z</time>
      </trkpt>
      <trkpt lat="43.96899" lon="5.1865">
        <ele>526.169</ele>
        <time>2019-04-28T12:20:50Z</time>
      </trkpt>
      <trkpt lat="43.96881" lon="5.1865">
        <ele>528.12</ele>
        <time>2019-04-28T12:21:01Z</time>
      </trkpt>
      <trkpt lat="43.96865" lon="5.18659">
        <ele>529.636</ele>
        <time>2019-04-28T12:21:12Z</time>
      </trkpt>
      <trkpt lat="43.9686" lon="5.1868">
        <ele>530.782</ele>
        <time>2019-04-28T12:21:22Z</time>
      </trkpt>
      <trkpt lat="43.96863" lon="5.18701">
        <ele>532.115</ele>
        <time>2019-04-28T12:21:32Z</time>
      </trkpt>
      <trkpt lat="43.96869" lon="5.18723">
        <ele>533.579</ele>
        <time>2019-04-28T12:21:43Z</time>
      </trkpt>
      <trkpt lat="43.96864" lon="5.18743">
        <ele>535.021</ele>
        <time>2019-04-28T12:21:54Z</time>
      </trkpt>
      <trkpt lat="43.96848" lon="5.18761">
        <ele>536.555</ele>
        <time>2019-04-28T12:22:05Z</time>
      </trkpt>
      <trkpt lat="43.96831" lon="5.18784">
        <ele>538.259</ele>
        <time>2019-04-28T12:22:16Z</time>
      </trkpt>
      <trkpt lat="43.96814" lon="5.18807">
        <ele>539.963</ele>
        <time>2019-04-28T12:22:26Z</time>
      </trkpt>
      <trkpt lat="43.96796" lon="5.18831">
        <ele>541.465</ele>
        <time>2019-04-28T12:22:36Z</time>
      </trkpt>
      <trkpt lat="43.96779" lon="5.18856">
        <ele>543.199</ele>
        <time>2019-04-28T12:22:47Z</time>
      </trkpt>
      <trkpt lat="43.96756" lon="5.1888">
        <ele>544.739</ele>
        <time>2019-04-28T12:22:57Z</time>
      </trkpt>
      <trkpt lat="43.96729" lon="5.18903">
        <ele>546.556</ele>
        <time>2019-04-28T12:23:08Z</time>
      </trkpt>
      <trkpt lat="43.96706" lon="5.18926">
        <ele>548.188</ele>
        <time>2019-04-28T12:23:18Z</time>
      </trkpt>
      <trkpt lat="43.96681" lon="5.18948">
        <ele>549.607</ele>
        <time>2019-04-28T12:23:28Z</time>
      </trkpt>
      <trkpt lat="43.96651" lon="5.18948">
        <ele>551.142</ele>
        <time>2019-04-28T12:23:39Z</time>
      </trkpt>
      <trkpt lat="43.96625" lon="5.18937">
        <ele>552.103</ele>
        <time>2019-04-28T12:23:50Z</time>
      </trkpt>
      <trkpt lat="43.96589" lon="5.18936">
        <ele>553.283</ele>
        <time>2019-04-28T12:24:01Z</time>
      </trkpt>
      <trkpt lat="43.96549" lon="5.18938">
        <ele>554.311</ele>
        <time>2019-04-28T12:24:12Z</time>
      </trkpt>
      <trkpt lat="43.96509" lon="5.18939">
        <ele>555.055</ele>
        <time>2019-04-28T12:24:23Z</time>
      </trkpt>
      <trkpt lat="43.96472" lon="5.18943">
        <ele>555.642</ele>
        <time>2019-04-28T12:24:34Z</time>
      </trkpt>
      <trkpt lat="43.9644" lon="5.18944">
        <ele>556.214</ele>
        <time>2019-04-28T12:24:44Z</time>
      </trkpt>
      <trkpt lat="43.96413" lon="5.18943">
        <ele>556.851</ele>
        <time>2019-04-28T12:24:56Z</time>
      </trkpt>
      <trkpt lat="43.96407" lon="5.18945">
        <ele>557.231</ele>
        <time>2019-04-28T12:25:06Z</time>
      </trkpt>
      <trkpt lat="43.96378" lon="5.18947">
        <ele>557.937</ele>
        <time>2019-04-28T12:25:17Z</time>
      </trkpt>
      <trkpt lat="43.96343" lon="5.18948">
        <ele>558.513</ele>
        <time>2019-04-28T12:25:27Z</time>
      </trkpt>
      <trkpt lat="43.96308" lon="5.18951">
        <ele>559.532</ele>
        <time>2019-04-28T12:25:38Z</time>
      </trkpt>
      <trkpt lat="43.96276" lon="5.18952">
        <ele>560.574</ele>
        <time>2019-04-28T12:25:49Z</time>
      </trkpt>
      <trkpt lat="43.96244" lon="5.18954">
        <ele>561.547</ele>
        <time>2019-04-28T12:26:00Z</time>
      </trkpt>
      <trkpt lat="43.96213" lon="5.18955">
        <ele>562.534</ele>
        <time>2019-04-28T12:26:11Z</time>
      </trkpt>
      <trkpt lat="43.96184" lon="5.18956">
        <ele>563.339</ele>
        <time>2019-04-28T12:26:21Z</time>
      </trkpt>
      <trkpt lat="43.96154" lon="5.18957">
        <ele>564.401</ele>
        <time>2019-04-28T12:26:32Z</time>
      </trkpt>
      <trkpt lat="43.96127" lon="5.1896">
        <ele>565.381</ele>
        <time>2019-04-28T12:26:42Z</time>
      </trkpt>
      <trkpt lat="43.96098" lon="5.18967">
        <ele>566.242</ele>
        <time>2019-04-28T12:26:52Z</time>
      </trkpt>
      <trkpt lat="43.9607" lon="5.18973">
        <ele>567.36</ele>
        <time>2019-04-28T12:27:03Z</time>
      </trkpt>
      <trkpt lat="43.9604" lon="5.18981">
        <ele>568.25</ele>
        <time>2019-04-28T12:27:14Z</time>
      </trkpt>
      <trkpt lat="43.96018" lon="5.18985">
        <ele>569.141</ele>
        <time>2019-04-28T12:27:24Z</time>
      </trkpt>
      <trkpt lat="43.95989" lon="5.18991">
        <ele>570.388</ele>
        <time>2019-04-28T12:27:35Z</time>
      </trkpt>
      <trkpt lat="43.9596" lon="5.18996">
        <ele>571.478</ele>
        <time>2019-04-28T12:27:46Z</time>
      </trkpt>
      <trkpt lat="43.95928" lon="5.19">
        <ele>572.397</ele>
        <time>2019-04-28T12:27:57Z</time>
      </trkpt>
      <trkpt lat="43.95903" lon="5.18996">
        <ele>573.525</ele>
        <time>2019-04-28T12:28:07Z</time>
      </trkpt>
      <trkpt lat="43.95883" lon="5.18989">
        <ele>575.24</ele>
        <time>2019-04-28T12:28:17Z</time>
      </trkpt>
      <trkpt lat="43.95856" lon="5.18985">
        <ele>576.347</ele>
        <time>2019-04-28T12:28:28Z</time>
      </trkpt>
      <trkpt lat="43.9583" lon="5.18992">
        <ele>577.524</ele>
        <time>2019-04-28T12:28:39Z</time>
      </trkpt>
      <trkpt lat="43.95816" lon="5.19017">
        <ele>578.744</ele>
        <time>2019-04-28T12:28:50Z</time>
      </trkpt>
      <trkpt lat="43.95811" lon="5.19049">
        <ele>580.069</ele>
        <time>2019-04-28T12:29:00Z</time>
      </trkpt>
      <trkpt lat="43.95806" lon="5.19089">
        <ele>581.507</ele>
        <time>2019-04-28T12:29:11Z</time>
      </trkpt>
      <trkpt lat="43.95802" lon="5.1912">
        <ele>582.518</ele>
        <time>2019-04-28T12:29:21Z</time>
      </trkpt>
      <trkpt lat="43.95786" lon="5.19149">
        <ele>583.761</ele>
        <time>2019-04-28T12:29:32Z</time>
      </trkpt>
      <trkpt lat="43.95771" lon="5.19171">
        <ele>584.793</ele>
        <time>2019-04-28T12:29:42Z</time>
      </trkpt>
      <trkpt lat="43.95752" lon="5.1919">
        <ele>586.513</ele>
        <time>2019-04-28T12:29:53Z</time>
      </trkpt>
      <trkpt lat="43.95737" lon="5.19211">
        <ele>588.484</ele>
        <time>2019-04-28T12:30:04Z</time>
      </trkpt>
      <trkpt lat="43.95722" lon="5.19237">
        <ele>590.301</ele>
        <time>2019-04-28T12:30:15Z</time>
      </trkpt>
      <trkpt lat="43.95709" lon="5.1927">
        <ele>591.799</ele>
        <time>2019-04-28T12:30:26Z</time>
      </trkpt>
      <trkpt lat="43.95699" lon="5.19303">
        <ele>592.924</ele>
        <time>2019-04-28T12:30:36Z</time>
      </trkpt>
      <trkpt lat="43.95683" lon="5.19338">
        <ele>594.396</ele>
        <time>2019-04-28T12:30:47Z</time>
      </trkpt>
      <trkpt lat="43.95668" lon="5.19373">
        <ele>595.952</ele>
        <time>2019-04-28T12:30:58Z</time>
      </trkpt>
      <trkpt lat="43.95647" lon="5.19405">
        <ele>597.652</ele>
        <time>2019-04-28T12:31:09Z</time>
      </trkpt>
      <trkpt lat="43.95619" lon="5.19425">
        <ele>599.209</ele>
        <time>2019-04-28T12:31:20Z</time>
      </trkpt>
      <trkpt lat="43.95587" lon="5.19439">
        <ele>600.193</ele>
        <time>2019-04-28T12:31:31Z</time>
      </trkpt>
      <trkpt lat="43.95557" lon="5.19453">
        <ele>601.05</ele>
        <time>2019-04-28T12:31:41Z</time>
      </trkpt>
      <trkpt lat="43.95521" lon="5.19466">
        <ele>601.912</ele>
        <time>2019-04-28T12:31:52Z</time>
      </trkpt>
      <trkpt lat="43.95486" lon="5.1948">
        <ele>602.849</ele>
        <time>2019-04-28T12:32:03Z</time>
      </trkpt>
      <trkpt lat="43.95454" lon="5.19491">
        <ele>603.53</ele>
        <time>2019-04-28T12:32:13Z</time>
      </trkpt>
      <trkpt lat="43.9542" lon="5.19497">
        <ele>604.449</ele>
        <time>2019-04-28T12:32:24Z</time>
      </trkpt>
      <trkpt lat="43.95386" lon="5.195">
        <ele>605.338</ele>
        <time>2019-04-28T12:32:34Z</time>
      </trkpt>
      <trkpt lat="43.95353" lon="5.19502">
        <ele>606.281</ele>
        <time>2019-04-28T12:32:44Z</time>
      </trkpt>
      <trkpt lat="43.95316" lon="5.19508">
        <ele>607.195</ele>
        <time>2019-04-28T12:32:55Z</time>
      </trkpt>
      <trkpt lat="43.95281" lon="5.19523">
        <ele>608.605</ele>
        <time>2019-04-28T12:33:06Z</time>
      </trkpt>
      <trkpt lat="43.9525" lon="5.1954">
        <ele>610.688</ele>
        <time>2019-04-28T12:33:17Z</time>
      </trkpt>
      <trkpt lat="43.9522" lon="5.19551">
        <ele>612.257</ele>
        <time>2019-04-28T12:33:27Z</time>
      </trkpt>
      <trkpt lat="43.95191" lon="5.19559">
        <ele>613.501</ele>
        <time>2019-04-28T12:33:38Z</time>
      </trkpt>
      <trkpt lat="43.95165" lon="5.19564">
        <ele>614.48</ele>
        <time>2019-04-28T12:33:48Z</time>
      </trkpt>
      <trkpt lat="43.95137" lon="5.19568">
        <ele>615.669</ele>
        <time>2019-04-28T12:33:59Z</time>
      </trkpt>
      <trkpt lat="43.95105" lon="5.19573">
        <ele>616.888</ele>
        <time>2019-04-28T12:34:10Z</time>
      </trkpt>
      <trkpt lat="43.95076" lon="5.19577">
        <ele>618.237</ele>
        <time>2019-04-28T12:34:21Z</time>
      </trkpt>
      <trkpt lat="43.95051" lon="5.19582">
        <ele>619.625</ele>
        <time>2019-04-28T12:34:31Z</time>
      </trkpt>
      <trkpt lat="43.95031" lon="5.19595">
        <ele>621.399</ele>
        <time>2019-04-28T12:34:41Z</time>
      </trkpt>
      <trkpt lat="43.95037" lon="5.1965">
        <ele>623.035</ele>
        <time>2019-04-28T12:34:52Z</time>
      </trkpt>
      <trkpt lat="43.95046" lon="5.19693">
        <ele>623.636</ele>
        <time>2019-04-28T12:35:03Z</time>
      </trkpt>
      <trkpt lat="43.95056" lon="5.19724">
        <ele>624.451</ele>
        <time>2019-04-28T12:35:14Z</time>
      </trkpt>
      <trkpt lat="43.95062" lon="5.19757">
        <ele>625.842</ele>
        <time>2019-04-28T12:35:25Z</time>
      </trkpt>
      <trkpt lat="43.95069" lon="5.19789">
        <ele>627.475</ele>
        <time>2019-04-28T12:35:36Z</time>
      </trkpt>
      <trkpt lat="43.95076" lon="5.1982">
        <ele>629.031</ele>
        <time>2019-04-28T12:35:47Z</time>
      </trkpt>
      <trkpt lat="43.95085" lon="5.19853">
        <ele>630.029</ele>
        <time>2019-04-28T12:35:58Z</time>
      </trkpt>
      <trkpt lat="43.95089" lon="5.19856">
        <ele>630.868</ele>
        <time>2019-04-28T12:36:09Z</time>
      </trkpt>
      <trkpt lat="43.95087" lon="5.19853">
        <ele>631.71</ele>
        <time>2019-04-28T12:36:19Z</time>
      </trkpt>
      <trkpt lat="43.95087" lon="5.19854">
        <ele>631.981</ele>
        <time>2019-04-28T12:36:30Z</time>
      </trkpt>
      <trkpt lat="43.95089" lon="5.19856">
        <ele>632.255</ele>
        <time>2019-04-28T12:36:40Z</time>
      </trkpt>
      <trkpt lat="43.95097" lon="5.19876">
        <ele>632.828</ele>
        <time>2019-04-28T12:36:50Z</time>
      </trkpt>
      <trkpt lat="43.95114" lon="5.19904">
        <ele>633.369</ele>
        <time>2019-04-28T12:37:01Z</time>
      </trkpt>
      <trkpt lat="43.95137" lon="5.19955">
        <ele>636.52</ele>
        <time>2019-04-28T12:37:12Z</time>
      </trkpt>
      <trkpt lat="43.95161" lon="5.20028">
        <ele>631.56</ele>
        <time>2019-04-28T12:37:22Z</time>
      </trkpt>
      <trkpt lat="43.95205" lon="5.20071">
        <ele>633.076</ele>
        <time>2019-04-28T12:37:33Z</time>
      </trkpt>
      <trkpt lat="43.95229" lon="5.20091">
        <ele>633.671</ele>
        <time>2019-04-28T12:37:44Z</time>
      </trkpt>
      <trkpt lat="43.95238" lon="5.20113">
        <ele>634.418</ele>
        <time>2019-04-28T12:37:54Z</time>
      </trkpt>
      <trkpt lat="43.95243" lon="5.20148">
        <ele>635.083</ele>
        <time>2019-04-28T12:38:05Z</time>
      </trkpt>
      <trkpt lat="43.95246" lon="5.20191">
        <ele>635.572</ele>
        <time>2019-04-28T12:38:16Z</time>
      </trkpt>
      <trkpt lat="43.95253" lon="5.20257">
        <ele>634.401</ele>
        <time>2019-04-28T12:38:26Z</time>
      </trkpt>
      <trkpt lat="43.95281" lon="5.20322">
        <ele>636.66</ele>
        <time>2019-04-28T12:38:37Z</time>
      </trkpt>
      <trkpt lat="43.95324" lon="5.20384">
        <ele>634.804</ele>
        <time>2019-04-28T12:38:49Z</time>
      </trkpt>
      <trkpt lat="43.95363" lon="5.20485">
        <ele>629.312</ele>
        <time>2019-04-28T12:38:59Z</time>
      </trkpt>
      <trkpt lat="43.95435" lon="5.20548">
        <ele>624.042</ele>
        <time>2019-04-28T12:39:10Z</time>
      </trkpt>
      <trkpt lat="43.95453" lon="5.20558">
        <ele>623.998</ele>
        <time>2019-04-28T12:39:21Z</time>
      </trkpt>
      <trkpt lat="43.95473" lon="5.20572">
        <ele>624.171</ele>
        <time>2019-04-28T12:39:32Z</time>
      </trkpt>
      <trkpt lat="43.9549" lon="5.20589">
        <ele>624.447</ele>
        <time>2019-04-28T12:39:42Z</time>
      </trkpt>
      <trkpt lat="43.95503" lon="5.20611">
        <ele>624.829</ele>
        <time>2019-04-28T12:39:52Z</time>
      </trkpt>
      <trkpt lat="43.95509" lon="5.20651">
        <ele>624.93</ele>
        <time>2019-04-28T12:40:02Z</time>
      </trkpt>
      <trkpt lat="43.95475" lon="5.20688">
        <ele>625.288</ele>
        <time>2019-04-28T12:40:12Z</time>
      </trkpt>
      <trkpt lat="43.95438" lon="5.20728">
        <ele>626.297</ele>
        <time>2019-04-28T12:40:23Z</time>
      </trkpt>
      <trkpt lat="43.95391" lon="5.20798">
        <ele>626.868</ele>
        <time>2019-04-28T12:40:34Z</time>
      </trkpt>
      <trkpt lat="43.95324" lon="5.20839">
        <ele>627.812</ele>
        <time>2019-04-28T12:40:45Z</time>
      </trkpt>
      <trkpt lat="43.9528" lon="5.20854">
        <ele>628.46</ele>
        <time>2019-04-28T12:40:56Z</time>
      </trkpt>
      <trkpt lat="43.95227" lon="5.20881">
        <ele>629.609</ele>
        <time>2019-04-28T12:41:06Z</time>
      </trkpt>
      <trkpt lat="43.95137" lon="5.2091">
        <ele>630.23</ele>
        <time>2019-04-28T12:41:17Z</time>
      </trkpt>
      <trkpt lat="43.95049" lon="5.20953">
        <ele>628.289</ele>
        <time>2019-04-28T12:41:27Z</time>
      </trkpt>
      <trkpt lat="43.94954" lon="5.21026">
        <ele>625.257</ele>
        <time>2019-04-28T12:41:37Z</time>
      </trkpt>
      <trkpt lat="43.94836" lon="5.21029">
        <ele>614.747</ele>
        <time>2019-04-28T12:41:48Z</time>
      </trkpt>
      <trkpt lat="43.9473" lon="5.21126">
        <ele>606.596</ele>
        <time>2019-04-28T12:41:59Z</time>
      </trkpt>
      <trkpt lat="43.94636" lon="5.21167">
        <ele>601.082</ele>
        <time>2019-04-28T12:42:09Z</time>
      </trkpt>
      <trkpt lat="43.9453" lon="5.21265">
        <ele>596.017</ele>
        <time>2019-04-28T12:42:20Z</time>
      </trkpt>
      <trkpt lat="43.94452" lon="5.21332">
        <ele>590.915</ele>
        <time>2019-04-28T12:42:31Z</time>
      </trkpt>
      <trkpt lat="43.94429" lon="5.21324">
        <ele>589.899</ele>
        <time>2019-04-28T12:42:41Z</time>
      </trkpt>
      <trkpt lat="43.94386" lon="5.21278">
        <ele>582.741</ele>
        <time>2019-04-28T12:42:52Z</time>
      </trkpt>
      <trkpt lat="43.94342" lon="5.21229">
        <ele>580.249</ele>
        <time>2019-04-28T12:43:03Z</time>
      </trkpt>
      <trkpt lat="43.94294" lon="5.21173">
        <ele>578.538</ele>
        <time>2019-04-28T12:43:14Z</time>
      </trkpt>
      <trkpt lat="43.94248" lon="5.21122">
        <ele>577.178</ele>
        <time>2019-04-28T12:43:24Z</time>
      </trkpt>
      <trkpt lat="43.94196" lon="5.21063">
        <ele>576.19</ele>
        <time>2019-04-28T12:43:35Z</time>
      </trkpt>
      <trkpt lat="43.94149" lon="5.2101">
        <ele>576.635</ele>
        <time>2019-04-28T12:43:46Z</time>
      </trkpt>
      <trkpt lat="43.94103" lon="5.20967">
        <ele>574.744</ele>
        <time>2019-04-28T12:43:56Z</time>
      </trkpt>
      <trkpt lat="43.94042" lon="5.20944">
        <ele>572.997</ele>
        <time>2019-04-28T12:44:07Z</time>
      </trkpt>
      <trkpt lat="43.93979" lon="5.20951">
        <ele>572.25</ele>
        <time>2019-04-28T12:44:17Z</time>
      </trkpt>
      <trkpt lat="43.93909" lon="5.20961">
        <ele>572.081</ele>
        <time>2019-04-28T12:44:28Z</time>
      </trkpt>
      <trkpt lat="43.93841" lon="5.20971">
        <ele>571.189</ele>
        <time>2019-04-28T12:44:38Z</time>
      </trkpt>
      <trkpt lat="43.93761" lon="5.20989">
        <ele>572.161</ele>
        <time>2019-04-28T12:44:49Z</time>
      </trkpt>
      <trkpt lat="43.93673" lon="5.2105">
        <ele>571.851</ele>
        <time>2019-04-28T12:45:00Z</time>
      </trkpt>
      <trkpt lat="43.93587" lon="5.21105">
        <ele>571.884</ele>
        <time>2019-04-28T12:45:11Z</time>
      </trkpt>
      <trkpt lat="43.93473" lon="5.21126">
        <ele>567.758</ele>
        <time>2019-04-28T12:45:21Z</time>
      </trkpt>
      <trkpt lat="43.93355" lon="5.21187">
        <ele>560.47</ele>
        <time>2019-04-28T12:45:31Z</time>
      </trkpt>
      <trkpt lat="43.9323" lon="5.21231">
        <ele>553.307</ele>
        <time>2019-04-28T12:45:41Z</time>
      </trkpt>
      <trkpt lat="43.9313" lon="5.21161">
        <ele>547.245</ele>
        <time>2019-04-28T12:45:52Z</time>
      </trkpt>
      <trkpt lat="43.93035" lon="5.21142">
        <ele>540.642</ele>
        <time>2019-04-28T12:46:03Z</time>
      </trkpt>
      <trkpt lat="43.92963" lon="5.21056">
        <ele>534.189</ele>
        <time>2019-04-28T12:46:13Z</time>
      </trkpt>
      <trkpt lat="43.92885" lon="5.20954">
        <ele>527.038</ele>
        <time>2019-04-28T12:46:24Z</time>
      </trkpt>
      <trkpt lat="43.92837" lon="5.20844">
        <ele>523.641</ele>
        <time>2019-04-28T12:46:35Z</time>
      </trkpt>
      <trkpt lat="43.92809" lon="5.20837">
        <ele>522.294</ele>
        <time>2019-04-28T12:46:46Z</time>
      </trkpt>
      <trkpt lat="43.92809" lon="5.20837">
        <ele>522.179</ele>
        <time>2019-04-28T12:46:56Z</time>
      </trkpt>
      <trkpt lat="43.92809" lon="5.20837">
        <ele>522.002</ele>
        <time>2019-04-28T12:47:06Z</time>
      </trkpt>
      <trkpt lat="43.92809" lon="5.20837">
        <ele>521.773</ele>
        <time>2019-04-28T12:47:17Z</time>
      </trkpt>
      <trkpt lat="43.92809" lon="5.20837">
        <ele>521.322</ele>
        <time>2019-04-28T12:47:28Z</time>
      </trkpt>
      <trkpt lat="43.92808" lon="5.20845">
        <ele>519.866</ele>
        <time>2019-04-28T12:47:38Z</time>
      </trkpt>
      <trkpt lat="43.92808" lon="5.2085">
        <ele>518.411</ele>
        <time>2019-04-28T12:47:49Z</time>
      </trkpt>
      <trkpt lat="43.92808" lon="5.2085">
        <ele>517.144</ele>
        <time>2019-04-28T12:47:59Z</time>
      </trkpt>
      <trkpt lat="43.92808" lon="5.2085">
        <ele>516.694</ele>
        <time>2019-04-28T12:48:10Z</time>
      </trkpt>
      <trkpt lat="43.9281" lon="5.20853">
        <ele>513.687</ele>
        <time>2019-04-28T12:48:21Z</time>
      </trkpt>
      <trkpt lat="43.9281" lon="5.20853">
        <ele>513.215</ele>
        <time>2019-04-28T12:48:32Z</time>
      </trkpt>
      <trkpt lat="43.9281" lon="5.20853">
        <ele>513.05</ele>
        <time>2019-04-28T12:48:43Z</time>
      </trkpt>
      <trkpt lat="43.92809" lon="5.20852">
        <ele>512.406</ele>
        <time>2019-04-28T12:48:53Z</time>
      </trkpt>
      <trkpt lat="43.92809" lon="5.20842">
        <ele>511.31</ele>
        <time>2019-04-28T12:49:04Z</time>
      </trkpt>
      <trkpt lat="43.9281" lon="5.20847">
        <ele>509.233</ele>
        <time>2019-04-28T12:49:14Z</time>
      </trkpt>
      <trkpt lat="43.92807" lon="5.20847">
        <ele>508.668</ele>
        <time>2019-04-28T12:49:24Z</time>
      </trkpt>
      <trkpt lat="43.92807" lon="5.20838">
        <ele>508.001</ele>
        <time>2019-04-28T12:49:35Z</time>
      </trkpt>
      <trkpt lat="43.92795" lon="5.20816">
        <ele>507.193</ele>
        <time>2019-04-28T12:49:45Z</time>
      </trkpt>
      <trkpt lat="43.92764" lon="5.20797">
        <ele>505.128</ele>
        <time>2019-04-28T12:49:55Z</time>
      </trkpt>
      <trkpt lat="43.92709" lon="5.20759">
        <ele>503.406</ele>
        <time>2019-04-28T12:50:06Z</time>
      </trkpt>
      <trkpt lat="43.92669" lon="5.20672">
        <ele>501.984</ele>
        <time>2019-04-28T12:50:17Z</time>
      </trkpt>
      <trkpt lat="43.92622" lon="5.20565">
        <ele>499.823</ele>
        <time>2019-04-28T12:50:28Z</time>
      </trkpt>
      <trkpt lat="43.9257" lon="5.20465">
        <ele>497.854</ele>
        <time>2019-04-28T12:50:38Z</time>
      </trkpt>
      <trkpt lat="43.92469" lon="5.20423">
        <ele>494.403</ele>
        <time>2019-04-28T12:50:49Z</time>
      </trkpt>
      <trkpt lat="43.9238" lon="5.2039">
        <ele>491.486</ele>
        <time>2019-04-28T12:50:59Z</time>
      </trkpt>
      <trkpt lat="43.92271" lon="5.204">
        <ele>490.132</ele>
        <time>2019-04-28T12:51:10Z</time>
      </trkpt>
      <trkpt lat="43.92175" lon="5.2035">
        <ele>487.521</ele>
        <time>2019-04-28T12:51:21Z</time>
      </trkpt>
      <trkpt lat="43.92086" lon="5.20285">
        <ele>484.054</ele>
        <time>2019-04-28T12:51:32Z</time>
      </trkpt>
      <trkpt lat="43.91987" lon="5.20248">
        <ele>479.898</ele>
        <time>2019-04-28T12:51:43Z</time>
      </trkpt>
      <trkpt lat="43.91889" lon="5.20251">
        <ele>477.017</ele>
        <time>2019-04-28T12:51:53Z</time>
      </trkpt>
      <trkpt lat="43.91783" lon="5.20189">
        <ele>468.22</ele>
        <time>2019-04-28T12:52:04Z</time>
      </trkpt>
      <trkpt lat="43.91666" lon="5.20154">
        <ele>465.277</ele>
        <time>2019-04-28T12:52:14Z</time>
      </trkpt>
      <trkpt lat="43.91531" lon="5.20104">
        <ele>457.584</ele>
        <time>2019-04-28T12:52:25Z</time>
      </trkpt>
      <trkpt lat="43.91419" lon="5.20057">
        <ele>452.038</ele>
        <time>2019-04-28T12:52:35Z</time>
      </trkpt>
      <trkpt lat="43.91316" lon="5.20058">
        <ele>443.696</ele>
        <time>2019-04-28T12:52:46Z</time>
      </trkpt>
      <trkpt lat="43.91234" lon="5.20004">
        <ele>433.738</ele>
        <time>2019-04-28T12:52:56Z</time>
      </trkpt>
      <trkpt lat="43.91163" lon="5.19986">
        <ele>426.68</ele>
        <time>2019-04-28T12:53:07Z</time>
      </trkpt>
      <trkpt lat="43.91145" lon="5.1997">
        <ele>425.334</ele>
        <time>2019-04-28T12:53:17Z</time>
      </trkpt>
      <trkpt lat="43.91146" lon="5.19969">
        <ele>424.065</ele>
        <time>2019-04-28T12:53:28Z</time>
      </trkpt>
      <trkpt lat="43.91146" lon="5.19969">
        <ele>423.763</ele>
        <time>2019-04-28T12:53:38Z</time>
      </trkpt>
      <trkpt lat="43.91146" lon="5.19969">
        <ele>423.38</ele>
        <time>2019-04-28T12:53:49Z</time>
      </trkpt>
      <trkpt lat="43.91146" lon="5.19969">
        <ele>422.966</ele>
        <time>2019-04-28T12:54:00Z</time>
      </trkpt>
      <trkpt lat="43.91146" lon="5.19969">
        <ele>422.576</ele>
        <time>2019-04-28T12:54:10Z</time>
      </trkpt>
      <trkpt lat="43.91146" lon="5.19969">
        <ele>422.184</ele>
        <time>2019-04-28T12:54:20Z</time>
      </trkpt>
      <trkpt lat="43.91146" lon="5.19969">
        <ele>421.753</ele>
        <time>2019-04-28T12:54:31Z</time>
      </trkpt>
      <trkpt lat="43.91146" lon="5.19969">
        <ele>421.362</ele>
        <time>2019-04-28T12:54:41Z</time>
      </trkpt>
      <trkpt lat="43.91146" lon="5.19969">
        <ele>420.928</ele>
        <time>2019-04-28T12:54:52Z</time>
      </trkpt>
      <trkpt lat="43.91146" lon="5.19969">
        <ele>419.851</ele>
        <time>2019-04-28T12:55:02Z</time>
      </trkpt>
      <trkpt lat="43.91146" lon="5.19969">
        <ele>419.469</ele>
        <time>2019-04-28T12:55:13Z</time>
      </trkpt>
      <trkpt lat="43.91146" lon="5.19969">
        <ele>419.118</ele>
        <time>2019-04-28T12:55:24Z</time>
      </trkpt>
      <trkpt lat="43.91146" lon="5.19969">
        <ele>418.793</ele>
        <time>2019-04-28T12:55:35Z</time>
      </trkpt>
      <trkpt lat="43.91146" lon="5.19969">
        <ele>418.49</ele>
        <time>2019-04-28T12:55:46Z</time>
      </trkpt>
      <trkpt lat="43.91146" lon="5.19969">
        <ele>418.227</ele>
        <time>2019-04-28T12:55:56Z</time>
      </trkpt>
      <trkpt lat="43.91146" lon="5.19969">
        <ele>417.971</ele>
        <time>2019-04-28T12:56:06Z</time>
      </trkpt>
      <trkpt lat="43.91146" lon="5.19969">
        <ele>417.691</ele>
        <time>2019-04-28T12:56:17Z</time>
      </trkpt>
      <trkpt lat="43.91146" lon="5.19969">
        <ele>417.403</ele>
        <time>2019-04-28T12:56:28Z</time>
      </trkpt>
      <trkpt lat="43.91146" lon="5.19969">
        <ele>417.107</ele>
        <time>2019-04-28T12:56:39Z</time>
      </trkpt>
      <trkpt lat="43.91146" lon="5.19969">
        <ele>416.827</ele>
        <time>2019-04-28T12:56:49Z</time>
      </trkpt>
      <trkpt lat="43.91146" lon="5.19969">
        <ele>416.536</ele>
        <time>2019-04-28T12:56:59Z</time>
      </trkpt>
      <trkpt lat="43.91146" lon="5.19969">
        <ele>416.212</ele>
        <time>2019-04-28T12:57:10Z</time>
      </trkpt>
      <trkpt lat="43.91146" lon="5.19969">
        <ele>415.888</ele>
        <time>2019-04-28T12:57:21Z</time>
      </trkpt>
      <trkpt lat="43.91146" lon="5.19969">
        <ele>415.568</ele>
        <time>2019-04-28T12:57:32Z</time>
      </trkpt>
      <trkpt lat="43.91146" lon="5.19969">
        <ele>415.254</ele>
        <time>2019-04-28T12:57:43Z</time>
      </trkpt>
      <trkpt lat="43.91146" lon="5.19969">
        <ele>414.951</ele>
        <time>2019-04-28T12:57:54Z</time>
      </trkpt>
      <trkpt lat="43.91145" lon="5.19971">
        <ele>414.664</ele>
        <time>2019-04-28T12:58:05Z</time>
      </trkpt>
      <trkpt lat="43.91145" lon="5.19971">
        <ele>414.398</ele>
        <time>2019-04-28T12:58:16Z</time>
      </trkpt>
      <trkpt lat="43.91145" lon="5.19971">
        <ele>414.123</ele>
        <time>2019-04-28T12:58:27Z</time>
      </trkpt>
      <trkpt lat="43.91145" lon="5.19971">
        <ele>413.861</ele>
        <time>2019-04-28T12:58:37Z</time>
      </trkpt>
      <trkpt lat="43.91145" lon="5.19971">
        <ele>413.602</ele>
        <time>2019-04-28T12:58:47Z</time>
      </trkpt>
      <trkpt lat="43.91144" lon="5.19971">
        <ele>413.328</ele>
        <time>2019-04-28T12:58:58Z</time>
      </trkpt>
      <trkpt lat="43.91143" lon="5.19971">
        <ele>413.066</ele>
        <time>2019-04-28T12:59:09Z</time>
      </trkpt>
      <trkpt lat="43.91143" lon="5.19972">
        <ele>412.839</ele>
        <time>2019-04-28T12:59:19Z</time>
      </trkpt>
      <trkpt lat="43.91143" lon="5.19972">
        <ele>412.598</ele>
        <time>2019-04-28T12:59:30Z</time>
      </trkpt>
      <trkpt lat="43.91142" lon="5.19971">
        <ele>412.432</ele>
        <time>2019-04-28T12:59:41Z</time>
      </trkpt>
      <trkpt lat="43.91142" lon="5.19971">
        <ele>412.329</ele>
        <time>2019-04-28T12:59:52Z</time>
      </trkpt>
      <trkpt lat="43.91142" lon="5.19971">
        <ele>412.23</ele>
        <time>2019-04-28T13:00:02Z</time>
      </trkpt>
      <trkpt lat="43.91142" lon="5.19971">
        <ele>412.104</ele>
        <time>2019-04-28T13:00:13Z</time>
      </trkpt>
      <trkpt lat="43.91142" lon="5.19971">
        <ele>411.974</ele>
        <time>2019-04-28T13:00:24Z</time>
      </trkpt>
      <trkpt lat="43.91142" lon="5.19971">
        <ele>411.851</ele>
        <time>2019-04-28T13:00:35Z</time>
      </trkpt>
      <trkpt lat="43.91142" lon="5.19971">
        <ele>411.737</ele>
        <time>2019-04-28T13:00:45Z</time>
      </trkpt>
      <trkpt lat="43.91143" lon="5.19971">
        <ele>411.607</ele>
        <time>2019-04-28T13:00:56Z</time>
      </trkpt>
      <trkpt lat="43.91143" lon="5.19971">
        <ele>411.48</ele>
        <time>2019-04-28T13:01:06Z</time>
      </trkpt>
      <trkpt lat="43.91143" lon="5.19971">
        <ele>411.348</ele>
        <time>2019-04-28T13:01:16Z</time>
      </trkpt>
      <trkpt lat="43.91143" lon="5.19971">
        <ele>411.174</ele>
        <time>2019-04-28T13:01:27Z</time>
      </trkpt>
      <trkpt lat="43.91143" lon="5.19972">
        <ele>410.96</ele>
        <time>2019-04-28T13:01:38Z</time>
      </trkpt>
      <trkpt lat="43.91143" lon="5.19972">
        <ele>410.727</ele>
        <time>2019-04-28T13:01:49Z</time>
      </trkpt>
      <trkpt lat="43.91143" lon="5.19973">
        <ele>410.489</ele>
        <time>2019-04-28T13:02:00Z</time>
      </trkpt>
      <trkpt lat="43.91143" lon="5.19973">
        <ele>410.29</ele>
        <time>2019-04-28T13:02:10Z</time>
      </trkpt>
      <trkpt lat="43.91143" lon="5.19972">
        <ele>410.12</ele>
        <time>2019-04-28T13:02:21Z</time>
      </trkpt>
      <trkpt lat="43.91142" lon="5.19972">
        <ele>409.966</ele>
        <time>2019-04-28T13:02:32Z</time>
      </trkpt>
      <trkpt lat="43.91142" lon="5.19972">
        <ele>409.816</ele>
        <time>2019-04-28T13:02:43Z</time>
      </trkpt>
      <trkpt lat="43.91142" lon="5.19972">
        <ele>409.673</ele>
        <time>2019-04-28T13:02:54Z</time>
      </trkpt>
      <trkpt lat="43.91142" lon="5.19972">
        <ele>409.542</ele>
        <time>2019-04-28T13:03:04Z</time>
      </trkpt>
      <trkpt lat="43.91143" lon="5.19972">
        <ele>409.391</ele>
        <time>2019-04-28T13:03:15Z</time>
      </trkpt>
      <trkpt lat="43.91143" lon="5.19973">
        <ele>409.224</ele>
        <time>2019-04-28T13:03:25Z</time>
      </trkpt>
      <trkpt lat="43.91143" lon="5.19973">
        <ele>409.03</ele>
        <time>2019-04-28T13:03:36Z</time>
      </trkpt>
      <trkpt lat="43.91144" lon="5.19973">
        <ele>408.845</ele>
        <time>2019-04-28T13:03:46Z</time>
      </trkpt>
      <trkpt lat="43.91144" lon="5.19973">
        <ele>408.654</ele>
        <time>2019-04-28T13:03:57Z</time>
      </trkpt>
      <trkpt lat="43.91144" lon="5.19973">
        <ele>408.495</ele>
        <time>2019-04-28T13:04:07Z</time>
      </trkpt>
      <trkpt lat="43.91144" lon="5.19972">
        <ele>408.374</ele>
        <time>2019-04-28T13:04:18Z</time>
      </trkpt>
      <trkpt lat="43.91144" lon="5.19972">
        <ele>408.282</ele>
        <time>2019-04-28T13:04:29Z</time>
      </trkpt>
      <trkpt lat="43.91144" lon="5.19971">
        <ele>408.207</ele>
        <time>2019-04-28T13:04:39Z</time>
      </trkpt>
      <trkpt lat="43.91144" lon="5.19971">
        <ele>408.12</ele>
        <time>2019-04-28T13:04:50Z</time>
      </trkpt>
      <trkpt lat="43.91144" lon="5.19971">
        <ele>408.044</ele>
        <time>2019-04-28T13:05:01Z</time>
      </trkpt>
      <trkpt lat="43.91144" lon="5.19972">
        <ele>407.956</ele>
        <time>2019-04-28T13:05:12Z</time>
      </trkpt>
      <trkpt lat="43.91145" lon="5.19972">
        <ele>407.853</ele>
        <time>2019-04-28T13:05:22Z</time>
      </trkpt>
      <trkpt lat="43.91145" lon="5.19971">
        <ele>407.754</ele>
        <time>2019-04-28T13:05:33Z</time>
      </trkpt>
      <trkpt lat="43.91145" lon="5.19971">
        <ele>407.676</ele>
        <time>2019-04-28T13:05:44Z</time>
      </trkpt>
      <trkpt lat="43.91144" lon="5.1997">
        <ele>407.618</ele>
        <time>2019-04-28T13:05:54Z</time>
      </trkpt>
      <trkpt lat="43.91145" lon="5.1997">
        <ele>407.499</ele>
        <time>2019-04-28T13:06:05Z</time>
      </trkpt>
      <trkpt lat="43.91145" lon="5.1997">
        <ele>407.359</ele>
        <time>2019-04-28T13:06:16Z</time>
      </trkpt>
      <trkpt lat="43.91145" lon="5.1997">
        <ele>407.259</ele>
        <time>2019-04-28T13:06:26Z</time>
      </trkpt>
      <trkpt lat="43.91145" lon="5.1997">
        <ele>407.13</ele>
        <time>2019-04-28T13:06:37Z</time>
      </trkpt>
      <trkpt lat="43.91145" lon="5.1997">
        <ele>407.008</ele>
        <time>2019-04-28T13:06:47Z</time>
      </trkpt>
      <trkpt lat="43.91145" lon="5.1997">
        <ele>406.892</ele>
        <time>2019-04-28T13:06:58Z</time>
      </trkpt>
      <trkpt lat="43.91145" lon="5.1997">
        <ele>406.809</ele>
        <time>2019-04-28T13:07:09Z</time>
      </trkpt>
      <trkpt lat="43.91145" lon="5.1997">
        <ele>406.724</ele>
        <time>2019-04-28T13:07:20Z</time>
      </trkpt>
      <trkpt lat="43.91145" lon="5.1997">
        <ele>406.645</ele>
        <time>2019-04-28T13:07:31Z</time>
      </trkpt>
      <trkpt lat="43.91145" lon="5.19969">
        <ele>406.564</ele>
        <time>2019-04-28T13:07:41Z</time>
      </trkpt>
      <trkpt lat="43.91145" lon="5.19969">
        <ele>406.511</ele>
        <time>2019-04-28T13:07:52Z</time>
      </trkpt>
      <trkpt lat="43.91145" lon="5.19969">
        <ele>406.479</ele>
        <time>2019-04-28T13:08:02Z</time>
      </trkpt>
      <trkpt lat="43.91146" lon="5.19969">
        <ele>406.404</ele>
        <time>2019-04-28T13:08:13Z</time>
      </trkpt>
      <trkpt lat="43.91146" lon="5.19969">
        <ele>406.344</ele>
        <time>2019-04-28T13:08:24Z</time>
      </trkpt>
      <trkpt lat="43.91145" lon="5.19969">
        <ele>406.305</ele>
        <time>2019-04-28T13:08:34Z</time>
      </trkpt>
      <trkpt lat="43.91145" lon="5.19969">
        <ele>406.267</ele>
        <time>2019-04-28T13:08:44Z</time>
      </trkpt>
      <trkpt lat="43.91145" lon="5.19969">
        <ele>406.24</ele>
        <time>2019-04-28T13:08:55Z</time>
      </trkpt>
      <trkpt lat="43.91146" lon="5.1998">
        <ele>406.261</ele>
        <time>2019-04-28T13:09:06Z</time>
      </trkpt>
      <trkpt lat="43.91145" lon="5.19981">
        <ele>406.181</ele>
        <time>2019-04-28T13:09:17Z</time>
      </trkpt>
      <trkpt lat="43.91131" lon="5.19972">
        <ele>408.488</ele>
        <time>2019-04-28T13:09:28Z</time>
      </trkpt>
      <trkpt lat="43.91135" lon="5.19978">
        <ele>408.933</ele>
        <time>2019-04-28T13:09:38Z</time>
      </trkpt>
      <trkpt lat="43.91137" lon="5.19978">
        <ele>408.873</ele>
        <time>2019-04-28T13:09:48Z</time>
      </trkpt>
      <trkpt lat="43.91139" lon="5.19978">
        <ele>408.588</ele>
        <time>2019-04-28T13:09:58Z</time>
      </trkpt>
      <trkpt lat="43.91142" lon="5.19979">
        <ele>407.993</ele>
        <time>2019-04-28T13:10:09Z</time>
      </trkpt>
      <trkpt lat="43.91142" lon="5.19979">
        <ele>407.803</ele>
        <time>2019-04-28T13:10:20Z</time>
      </trkpt>
      <trkpt lat="43.91143" lon="5.1998">
        <ele>407.479</ele>
        <time>2019-04-28T13:10:31Z</time>
      </trkpt>
      <trkpt lat="43.91144" lon="5.19981">
        <ele>406.716</ele>
        <time>2019-04-28T13:10:41Z</time>
      </trkpt>
      <trkpt lat="43.91146" lon="5.19981">
        <ele>406.312</ele>
        <time>2019-04-28T13:10:52Z</time>
      </trkpt>
      <trkpt lat="43.91149" lon="5.19979">
        <ele>405.35</ele>
        <time>2019-04-28T13:11:03Z</time>
      </trkpt>
      <trkpt lat="43.91148" lon="5.19979">
        <ele>404.815</ele>
        <time>2019-04-28T13:11:14Z</time>
      </trkpt>
      <trkpt lat="43.91151" lon="5.19972">
        <ele>404.22</ele>
        <time>2019-04-28T13:11:25Z</time>
      </trkpt>
      <trkpt lat="43.91153" lon="5.1997">
        <ele>403.264</ele>
        <time>2019-04-28T13:11:35Z</time>
      </trkpt>
      <trkpt lat="43.91155" lon="5.1997">
        <ele>401.705</ele>
        <time>2019-04-28T13:11:46Z</time>
      </trkpt>
      <trkpt lat="43.91153" lon="5.19969">
        <ele>401.151</ele>
        <time>2019-04-28T13:11:56Z</time>
      </trkpt>
      <trkpt lat="43.9115" lon="5.19971">
        <ele>399.64</ele>
        <time>2019-04-28T13:12:07Z</time>
      </trkpt>
      <trkpt lat="43.9115" lon="5.19971">
        <ele>399.57</ele>
        <time>2019-04-28T13:12:18Z</time>
      </trkpt>
      <trkpt lat="43.9115" lon="5.19971">
        <ele>399.525</ele>
        <time>2019-04-28T13:12:28Z</time>
      </trkpt>
      <trkpt lat="43.91148" lon="5.19972">
        <ele>399.41</ele>
        <time>2019-04-28T13:12:39Z</time>
      </trkpt>
      <trkpt lat="43.9115" lon="5.1997">
        <ele>400.476</ele>
        <time>2019-04-28T13:12:50Z</time>
      </trkpt>
      <trkpt lat="43.91152" lon="5.19967">
        <ele>400.676</ele>
        <time>2019-04-28T13:13:01Z</time>
      </trkpt>
      <trkpt lat="43.91146" lon="5.19968">
        <ele>401.574</ele>
        <time>2019-04-28T13:13:11Z</time>
      </trkpt>
      <trkpt lat="43.91146" lon="5.19968">
        <ele>401.606</ele>
        <time>2019-04-28T13:13:22Z</time>
      </trkpt>
      <trkpt lat="43.91146" lon="5.19969">
        <ele>401.623</ele>
        <time>2019-04-28T13:13:32Z</time>
      </trkpt>
      <trkpt lat="43.91147" lon="5.19969">
        <ele>401.632</ele>
        <time>2019-04-28T13:13:43Z</time>
      </trkpt>
      <trkpt lat="43.91147" lon="5.19969">
        <ele>401.621</ele>
        <time>2019-04-28T13:13:54Z</time>
      </trkpt>
      <trkpt lat="43.91145" lon="5.19968">
        <ele>401.553</ele>
        <time>2019-04-28T13:14:05Z</time>
      </trkpt>
      <trkpt lat="43.91138" lon="5.19954">
        <ele>400.717</ele>
        <time>2019-04-28T13:14:15Z</time>
      </trkpt>
      <trkpt lat="43.91114" lon="5.19957">
        <ele>400.389</ele>
        <time>2019-04-28T13:14:26Z</time>
      </trkpt>
      <trkpt lat="43.91104" lon="5.19957">
        <ele>400.701</ele>
        <time>2019-04-28T13:14:36Z</time>
      </trkpt>
      <trkpt lat="43.91096" lon="5.19963">
        <ele>401.592</ele>
        <time>2019-04-28T13:14:47Z</time>
      </trkpt>
      <trkpt lat="43.91087" lon="5.19979">
        <ele>402.921</ele>
        <time>2019-04-28T13:14:57Z</time>
      </trkpt>
      <trkpt lat="43.91089" lon="5.19998">
        <ele>404.373</ele>
        <time>2019-04-28T13:15:08Z</time>
      </trkpt>
      <trkpt lat="43.91086" lon="5.20004">
        <ele>407.585</ele>
        <time>2019-04-28T13:15:19Z</time>
      </trkpt>
      <trkpt lat="43.91091" lon="5.20006">
        <ele>408.101</ele>
        <time>2019-04-28T13:15:29Z</time>
      </trkpt>
      <trkpt lat="43.91094" lon="5.19999">
        <ele>409.071</ele>
        <time>2019-04-28T13:15:40Z</time>
      </trkpt>
      <trkpt lat="43.91096" lon="5.19992">
        <ele>410.417</ele>
        <time>2019-04-28T13:15:50Z</time>
      </trkpt>
      <trkpt lat="43.91098" lon="5.19982">
        <ele>411.546</ele>
        <time>2019-04-28T13:16:01Z</time>
      </trkpt>
      <trkpt lat="43.91099" lon="5.19981">
        <ele>411.515</ele>
        <time>2019-04-28T13:16:11Z</time>
      </trkpt>
      <trkpt lat="43.91098" lon="5.19974">
        <ele>410.386</ele>
        <time>2019-04-28T13:16:22Z</time>
      </trkpt>
      <trkpt lat="43.91097" lon="5.19977">
        <ele>410.02</ele>
        <time>2019-04-28T13:16:33Z</time>
      </trkpt>
      <trkpt lat="43.91096" lon="5.19981">
        <ele>409.14</ele>
        <time>2019-04-28T13:16:44Z</time>
      </trkpt>
      <trkpt lat="43.91095" lon="5.19981">
        <ele>408.598</ele>
        <time>2019-04-28T13:16:54Z</time>
      </trkpt>
      <trkpt lat="43.91096" lon="5.19981">
        <ele>408.388</ele>
        <time>2019-04-28T13:17:05Z</time>
      </trkpt>
      <trkpt lat="43.91095" lon="5.19981">
        <ele>408.196</ele>
        <time>2019-04-28T13:17:16Z</time>
      </trkpt>
      <trkpt lat="43.91095" lon="5.19982">
        <ele>407.987</ele>
        <time>2019-04-28T13:17:27Z</time>
      </trkpt>
      <trkpt lat="43.91095" lon="5.19982">
        <ele>407.782</ele>
        <time>2019-04-28T13:17:38Z</time>
      </trkpt>
      <trkpt lat="43.91095" lon="5.19982">
        <ele>407.579</ele>
        <time>2019-04-28T13:17:48Z</time>
      </trkpt>
      <trkpt lat="43.91095" lon="5.19983">
        <ele>407.351</ele>
        <time>2019-04-28T13:17:58Z</time>
      </trkpt>
      <trkpt lat="43.91095" lon="5.19983">
        <ele>407.086</ele>
        <time>2019-04-28T13:18:09Z</time>
      </trkpt>
      <trkpt lat="43.91095" lon="5.19983">
        <ele>406.79</ele>
        <time>2019-04-28T13:18:19Z</time>
      </trkpt>
      <trkpt lat="43.91096" lon="5.19983">
        <ele>406.463</ele>
        <time>2019-04-28T13:18:30Z</time>
      </trkpt>
      <trkpt lat="43.91098" lon="5.19982">
        <ele>405.853</ele>
        <time>2019-04-28T13:18:41Z</time>
      </trkpt>
      <trkpt lat="43.91105" lon="5.19987">
        <ele>398.175</ele>
        <time>2019-04-28T13:18:52Z</time>
      </trkpt>
      <trkpt lat="43.91107" lon="5.19982">
        <ele>396.58</ele>
        <time>2019-04-28T13:19:03Z</time>
      </trkpt>
      <trkpt lat="43.91108" lon="5.19982">
        <ele>396.535</ele>
        <time>2019-04-28T13:19:13Z</time>
      </trkpt>
      <trkpt lat="43.91108" lon="5.19982">
        <ele>396.286</ele>
        <time>2019-04-28T13:19:23Z</time>
      </trkpt>
      <trkpt lat="43.91107" lon="5.19983">
        <ele>396.039</ele>
        <time>2019-04-28T13:19:34Z</time>
      </trkpt>
      <trkpt lat="43.91107" lon="5.19982">
        <ele>395.589</ele>
        <time>2019-04-28T13:19:45Z</time>
      </trkpt>
      <trkpt lat="43.91104" lon="5.19982">
        <ele>395.376</ele>
        <time>2019-04-28T13:19:55Z</time>
      </trkpt>
      <trkpt lat="43.91102" lon="5.19986">
        <ele>395.36</ele>
        <time>2019-04-28T13:20:05Z</time>
      </trkpt>
      <trkpt lat="43.91102" lon="5.19989">
        <ele>395.946</ele>
        <time>2019-04-28T13:20:15Z</time>
      </trkpt>
      <trkpt lat="43.91104" lon="5.19994">
        <ele>396.191</ele>
        <time>2019-04-28T13:20:26Z</time>
      </trkpt>
      <trkpt lat="43.91104" lon="5.19995">
        <ele>396.379</ele>
        <time>2019-04-28T13:20:37Z</time>
      </trkpt>
      <trkpt lat="43.91104" lon="5.19998">
        <ele>397.098</ele>
        <time>2019-04-28T13:20:47Z</time>
      </trkpt>
      <trkpt lat="43.91106" lon="5.2001">
        <ele>399.123</ele>
        <time>2019-04-28T13:20:57Z</time>
      </trkpt>
      <trkpt lat="43.91106" lon="5.20011">
        <ele>400.083</ele>
        <time>2019-04-28T13:21:08Z</time>
      </trkpt>
      <trkpt lat="43.91106" lon="5.20011">
        <ele>400.117</ele>
        <time>2019-04-28T13:21:19Z</time>
      </trkpt>
      <trkpt lat="43.91105" lon="5.20012">
        <ele>400.438</ele>
        <time>2019-04-28T13:21:29Z</time>
      </trkpt>
      <trkpt lat="43.91104" lon="5.20015">
        <ele>401.371</ele>
        <time>2019-04-28T13:21:40Z</time>
      </trkpt>
      <trkpt lat="43.91106" lon="5.20017">
        <ele>403.046</ele>
        <time>2019-04-28T13:21:50Z</time>
      </trkpt>
      <trkpt lat="43.91107" lon="5.20013">
        <ele>405.217</ele>
        <time>2019-04-28T13:22:00Z</time>
      </trkpt>
      <trkpt lat="43.91117" lon="5.19999">
        <ele>407.698</ele>
        <time>2019-04-28T13:22:11Z</time>
      </trkpt>
      <trkpt lat="43.91117" lon="5.2">
        <ele>408.848</ele>
        <time>2019-04-28T13:22:21Z</time>
      </trkpt>
      <trkpt lat="43.91117" lon="5.20001">
        <ele>409.216</ele>
        <time>2019-04-28T13:22:32Z</time>
      </trkpt>
      <trkpt lat="43.91118" lon="5.2">
        <ele>410.199</ele>
        <time>2019-04-28T13:22:42Z</time>
      </trkpt>
      <trkpt lat="43.91091" lon="5.19978">
        <ele>411.383</ele>
        <time>2019-04-28T13:41:07Z</time>
      </trkpt>
      <trkpt lat="43.91099" lon="5.19972">
        <ele>409.687</ele>
        <time>2019-04-28T13:41:17Z</time>
      </trkpt>
      <trkpt lat="43.91105" lon="5.19958">
        <ele>404.003</ele>
        <time>2019-04-28T13:41:28Z</time>
      </trkpt>
      <trkpt lat="43.91119" lon="5.1996">
        <ele>404.307</ele>
        <time>2019-04-28T13:41:39Z</time>
      </trkpt>
      <trkpt lat="43.91146" lon="5.19923">
        <ele>404.614</ele>
        <time>2019-04-28T13:41:49Z</time>
      </trkpt>
      <trkpt lat="43.91175" lon="5.19862">
        <ele>404.385</ele>
        <time>2019-04-28T13:41:59Z</time>
      </trkpt>
      <trkpt lat="43.91229" lon="5.19802">
        <ele>398.409</ele>
        <time>2019-04-28T13:42:10Z</time>
      </trkpt>
      <trkpt lat="43.91279" lon="5.19785">
        <ele>395.169</ele>
        <time>2019-04-28T13:42:21Z</time>
      </trkpt>
      <trkpt lat="43.91319" lon="5.19776">
        <ele>394.281</ele>
        <time>2019-04-28T13:42:32Z</time>
      </trkpt>
      <trkpt lat="43.91358" lon="5.19763">
        <ele>392.739</ele>
        <time>2019-04-28T13:42:42Z</time>
      </trkpt>
      <trkpt lat="43.91391" lon="5.19735">
        <ele>391.35</ele>
        <time>2019-04-28T13:42:53Z</time>
      </trkpt>
      <trkpt lat="43.91375" lon="5.19692">
        <ele>386.606</ele>
        <time>2019-04-28T13:43:03Z</time>
      </trkpt>
      <trkpt lat="43.9134" lon="5.19673">
        <ele>385.861</ele>
        <time>2019-04-28T13:43:13Z</time>
      </trkpt>
      <trkpt lat="43.91307" lon="5.19664">
        <ele>386.835</ele>
        <time>2019-04-28T13:43:24Z</time>
      </trkpt>
      <trkpt lat="43.91276" lon="5.19662">
        <ele>389.536</ele>
        <time>2019-04-28T13:43:34Z</time>
      </trkpt>
      <trkpt lat="43.91243" lon="5.19647">
        <ele>389.965</ele>
        <time>2019-04-28T13:43:45Z</time>
      </trkpt>
      <trkpt lat="43.91225" lon="5.19643">
        <ele>390.339</ele>
        <time>2019-04-28T13:43:55Z</time>
      </trkpt>
      <trkpt lat="43.91226" lon="5.19642">
        <ele>390.577</ele>
        <time>2019-04-28T13:44:06Z</time>
      </trkpt>
      <trkpt lat="43.91225" lon="5.19642">
        <ele>391.14</ele>
        <time>2019-04-28T13:44:17Z</time>
      </trkpt>
      <trkpt lat="43.91225" lon="5.19639">
        <ele>391.372</ele>
        <time>2019-04-28T13:44:27Z</time>
      </trkpt>
      <trkpt lat="43.91226" lon="5.1964">
        <ele>391.628</ele>
        <time>2019-04-28T13:44:37Z</time>
      </trkpt>
      <trkpt lat="43.91226" lon="5.1964">
        <ele>391.72</ele>
        <time>2019-04-28T13:44:48Z</time>
      </trkpt>
      <trkpt lat="43.91226" lon="5.1964">
        <ele>391.825</ele>
        <time>2019-04-28T13:44:59Z</time>
      </trkpt>
      <trkpt lat="43.91225" lon="5.19641">
        <ele>391.946</ele>
        <time>2019-04-28T13:45:10Z</time>
      </trkpt>
      <trkpt lat="43.91225" lon="5.19641">
        <ele>392.154</ele>
        <time>2019-04-28T13:45:20Z</time>
      </trkpt>
      <trkpt lat="43.91223" lon="5.19643">
        <ele>392.978</ele>
        <time>2019-04-28T13:45:31Z</time>
      </trkpt>
      <trkpt lat="43.91217" lon="5.19643">
        <ele>393.193</ele>
        <time>2019-04-28T13:45:42Z</time>
      </trkpt>
      <trkpt lat="43.91212" lon="5.19642">
        <ele>393.317</ele>
        <time>2019-04-28T13:45:52Z</time>
      </trkpt>
      <trkpt lat="43.91207" lon="5.1965">
        <ele>393.587</ele>
        <time>2019-04-28T13:46:03Z</time>
      </trkpt>
      <trkpt lat="43.91207" lon="5.1965">
        <ele>393.449</ele>
        <time>2019-04-28T13:46:14Z</time>
      </trkpt>
      <trkpt lat="43.91207" lon="5.1965">
        <ele>393.352</ele>
        <time>2019-04-28T13:46:24Z</time>
      </trkpt>
      <trkpt lat="43.91206" lon="5.1965">
        <ele>393.274</ele>
        <time>2019-04-28T13:46:35Z</time>
      </trkpt>
      <trkpt lat="43.91205" lon="5.1965">
        <ele>393.187</ele>
        <time>2019-04-28T13:46:45Z</time>
      </trkpt>
      <trkpt lat="43.91204" lon="5.19649">
        <ele>393.16</ele>
        <time>2019-04-28T13:46:56Z</time>
      </trkpt>
      <trkpt lat="43.91205" lon="5.19648">
        <ele>393.582</ele>
        <time>2019-04-28T13:47:07Z</time>
      </trkpt>
      <trkpt lat="43.9121" lon="5.19642">
        <ele>398.941</ele>
        <time>2019-04-28T13:47:17Z</time>
      </trkpt>
      <trkpt lat="43.91221" lon="5.1964">
        <ele>399.158</ele>
        <time>2019-04-28T13:47:28Z</time>
      </trkpt>
      <trkpt lat="43.91227" lon="5.19643">
        <ele>398.848</ele>
        <time>2019-04-28T13:47:39Z</time>
      </trkpt>
      <trkpt lat="43.91226" lon="5.19643">
        <ele>397.962</ele>
        <time>2019-04-28T13:47:50Z</time>
      </trkpt>
      <trkpt lat="43.91225" lon="5.19643">
        <ele>396.978</ele>
        <time>2019-04-28T13:48:01Z</time>
      </trkpt>
      <trkpt lat="43.9122" lon="5.19643">
        <ele>396.55</ele>
        <time>2019-04-28T13:48:11Z</time>
      </trkpt>
      <trkpt lat="43.91194" lon="5.19641">
        <ele>394.335</ele>
        <time>2019-04-28T13:48:21Z</time>
      </trkpt>
      <trkpt lat="43.91158" lon="5.19659">
        <ele>393.583</ele>
        <time>2019-04-28T13:48:32Z</time>
      </trkpt>
      <trkpt lat="43.91145" lon="5.19664">
        <ele>393.69</ele>
        <time>2019-04-28T13:48:43Z</time>
      </trkpt>
      <trkpt lat="43.91145" lon="5.19666">
        <ele>393.711</ele>
        <time>2019-04-28T13:48:54Z</time>
      </trkpt>
      <trkpt lat="43.91146" lon="5.19666">
        <ele>393.597</ele>
        <time>2019-04-28T13:49:05Z</time>
      </trkpt>
      <trkpt lat="43.91146" lon="5.19666">
        <ele>393.508</ele>
        <time>2019-04-28T13:49:16Z</time>
      </trkpt>
      <trkpt lat="43.91146" lon="5.19666">
        <ele>393.42</ele>
        <time>2019-04-28T13:49:27Z</time>
      </trkpt>
      <trkpt lat="43.91146" lon="5.19666">
        <ele>393.318</ele>
        <time>2019-04-28T13:49:38Z</time>
      </trkpt>
      <trkpt lat="43.91146" lon="5.19667">
        <ele>393.119</ele>
        <time>2019-04-28T13:49:48Z</time>
      </trkpt>
      <trkpt lat="43.91145" lon="5.19663">
        <ele>392.534</ele>
        <time>2019-04-28T13:49:59Z</time>
      </trkpt>
      <trkpt lat="43.91145" lon="5.19664">
        <ele>392.493</ele>
        <time>2019-04-28T13:50:10Z</time>
      </trkpt>
      <trkpt lat="43.91147" lon="5.19665">
        <ele>392.427</ele>
        <time>2019-04-28T13:50:21Z</time>
      </trkpt>
      <trkpt lat="43.91145" lon="5.19666">
        <ele>392.507</ele>
        <time>2019-04-28T13:50:32Z</time>
      </trkpt>
      <trkpt lat="43.91145" lon="5.19667">
        <ele>392.492</ele>
        <time>2019-04-28T13:50:42Z</time>
      </trkpt>
      <trkpt lat="43.9111" lon="5.19669">
        <ele>391.486</ele>
        <time>2019-04-28T13:50:53Z</time>
      </trkpt>
      <trkpt lat="43.91053" lon="5.197">
        <ele>390.607</ele>
        <time>2019-04-28T13:51:04Z</time>
      </trkpt>
      <trkpt lat="43.90977" lon="5.19725">
        <ele>381.693</ele>
        <time>2019-04-28T13:51:14Z</time>
      </trkpt>
      <trkpt lat="43.90897" lon="5.19757">
        <ele>376.136</ele>
        <time>2019-04-28T13:51:25Z</time>
      </trkpt>
      <trkpt lat="43.90837" lon="5.19772">
        <ele>375.11</ele>
        <time>2019-04-28T13:51:35Z</time>
      </trkpt>
      <trkpt lat="43.9078" lon="5.19739">
        <ele>374.391</ele>
        <time>2019-04-28T13:51:46Z</time>
      </trkpt>
      <trkpt lat="43.90707" lon="5.19715">
        <ele>372.74</ele>
        <time>2019-04-28T13:51:56Z</time>
      </trkpt>
      <trkpt lat="43.90615" lon="5.19742">
        <ele>371.217</ele>
        <time>2019-04-28T13:52:07Z</time>
      </trkpt>
      <trkpt lat="43.90508" lon="5.19706">
        <ele>366.749</ele>
        <time>2019-04-28T13:52:18Z</time>
      </trkpt>
      <trkpt lat="43.90447" lon="5.1963">
        <ele>362.496</ele>
        <time>2019-04-28T13:52:28Z</time>
      </trkpt>
      <trkpt lat="43.90493" lon="5.19552">
        <ele>356.523</ele>
        <time>2019-04-28T13:52:38Z</time>
      </trkpt>
      <trkpt lat="43.90514" lon="5.19481">
        <ele>351.054</ele>
        <time>2019-04-28T13:52:49Z</time>
      </trkpt>
      <trkpt lat="43.90449" lon="5.19465">
        <ele>346.958</ele>
        <time>2019-04-28T13:53:00Z</time>
      </trkpt>
      <trkpt lat="43.90371" lon="5.19478">
        <ele>343.066</ele>
        <time>2019-04-28T13:53:10Z</time>
      </trkpt>
      <trkpt lat="43.90284" lon="5.19458">
        <ele>341.059</ele>
        <time>2019-04-28T13:53:20Z</time>
      </trkpt>
      <trkpt lat="43.9018" lon="5.19426">
        <ele>343.712</ele>
        <time>2019-04-28T13:53:31Z</time>
      </trkpt>
      <trkpt lat="43.90158" lon="5.19368">
        <ele>340.873</ele>
        <time>2019-04-28T13:53:41Z</time>
      </trkpt>
      <trkpt lat="43.90109" lon="5.19321">
        <ele>333.919</ele>
        <time>2019-04-28T13:53:51Z</time>
      </trkpt>
      <trkpt lat="43.90057" lon="5.19295">
        <ele>328.468</ele>
        <time>2019-04-28T13:54:02Z</time>
      </trkpt>
      <trkpt lat="43.90027" lon="5.19255">
        <ele>325.281</ele>
        <time>2019-04-28T13:54:12Z</time>
      </trkpt>
      <trkpt lat="43.90025" lon="5.19254">
        <ele>325.023</ele>
        <time>2019-04-28T13:54:23Z</time>
      </trkpt>
      <trkpt lat="43.90025" lon="5.19254">
        <ele>324.928</ele>
        <time>2019-04-28T13:54:34Z</time>
      </trkpt>
      <trkpt lat="43.90025" lon="5.19254">
        <ele>324.816</ele>
        <time>2019-04-28T13:54:45Z</time>
      </trkpt>
      <trkpt lat="43.90025" lon="5.19254">
        <ele>324.703</ele>
        <time>2019-04-28T13:54:55Z</time>
      </trkpt>
      <trkpt lat="43.90021" lon="5.19252">
        <ele>324.56</ele>
        <time>2019-04-28T13:55:06Z</time>
      </trkpt>
      <trkpt lat="43.90021" lon="5.19252">
        <ele>323.903</ele>
        <time>2019-04-28T13:55:17Z</time>
      </trkpt>
      <trkpt lat="43.90021" lon="5.19252">
        <ele>323.626</ele>
        <time>2019-04-28T13:55:28Z</time>
      </trkpt>
      <trkpt lat="43.90019" lon="5.19253">
        <ele>322.353</ele>
        <time>2019-04-28T13:55:38Z</time>
      </trkpt>
      <trkpt lat="43.90018" lon="5.19253">
        <ele>320.042</ele>
        <time>2019-04-28T13:55:49Z</time>
      </trkpt>
      <trkpt lat="43.89995" lon="5.1924">
        <ele>317.997</ele>
        <time>2019-04-28T13:55:59Z</time>
      </trkpt>
      <trkpt lat="43.89928" lon="5.192">
        <ele>315.162</ele>
        <time>2019-04-28T13:56:09Z</time>
      </trkpt>
      <trkpt lat="43.89845" lon="5.19115">
        <ele>314.911</ele>
        <time>2019-04-28T13:56:20Z</time>
      </trkpt>
      <trkpt lat="43.8978" lon="5.1902">
        <ele>311.181</ele>
        <time>2019-04-28T13:56:31Z</time>
      </trkpt>
      <trkpt lat="43.89679" lon="5.19001">
        <ele>306.435</ele>
        <time>2019-04-28T13:56:41Z</time>
      </trkpt>
      <trkpt lat="43.89571" lon="5.18967">
        <ele>301.821</ele>
        <time>2019-04-28T13:56:52Z</time>
      </trkpt>
      <trkpt lat="43.8947" lon="5.18905">
        <ele>294.757</ele>
        <time>2019-04-28T13:57:02Z</time>
      </trkpt>
      <trkpt lat="43.89347" lon="5.18828">
        <ele>284.114</ele>
        <time>2019-04-28T13:57:13Z</time>
      </trkpt>
      <trkpt lat="43.8924" lon="5.18733">
        <ele>275.935</ele>
        <time>2019-04-28T13:57:23Z</time>
      </trkpt>
      <trkpt lat="43.89136" lon="5.18612">
        <ele>269.868</ele>
        <time>2019-04-28T13:57:34Z</time>
      </trkpt>
      <trkpt lat="43.89065" lon="5.18477">
        <ele>263.887</ele>
        <time>2019-04-28T13:57:44Z</time>
      </trkpt>
      <trkpt lat="43.89011" lon="5.18354">
        <ele>256.953</ele>
        <time>2019-04-28T13:57:54Z</time>
      </trkpt>
      <trkpt lat="43.88954" lon="5.1824">
        <ele>248.718</ele>
        <time>2019-04-28T13:58:05Z</time>
      </trkpt>
      <trkpt lat="43.88888" lon="5.18167">
        <ele>243.595</ele>
        <time>2019-04-28T13:58:15Z</time>
      </trkpt>
      <trkpt lat="43.88832" lon="5.1809">
        <ele>238.51</ele>
        <time>2019-04-28T13:58:25Z</time>
      </trkpt>
      <trkpt lat="43.88795" lon="5.17992">
        <ele>235.957</ele>
        <time>2019-04-28T13:58:36Z</time>
      </trkpt>
      <trkpt lat="43.88759" lon="5.17886">
        <ele>232.801</ele>
        <time>2019-04-28T13:58:47Z</time>
      </trkpt>
      <trkpt lat="43.88724" lon="5.17786">
        <ele>229.634</ele>
        <time>2019-04-28T13:58:58Z</time>
      </trkpt>
      <trkpt lat="43.88693" lon="5.17691">
        <ele>228.512</ele>
        <time>2019-04-28T13:59:08Z</time>
      </trkpt>
      <trkpt lat="43.88664" lon="5.17613">
        <ele>223.695</ele>
        <time>2019-04-28T13:59:19Z</time>
      </trkpt>
      <trkpt lat="43.88629" lon="5.17489">
        <ele>217.898</ele>
        <time>2019-04-28T13:59:29Z</time>
      </trkpt>
      <trkpt lat="43.88595" lon="5.17374">
        <ele>209.487</ele>
        <time>2019-04-28T13:59:40Z</time>
      </trkpt>
      <trkpt lat="43.88573" lon="5.17273">
        <ele>205.228</ele>
        <time>2019-04-28T13:59:50Z</time>
      </trkpt>
      <trkpt lat="43.88545" lon="5.1717">
        <ele>203.96</ele>
        <time>2019-04-28T14:00:01Z</time>
      </trkpt>
      <trkpt lat="43.88526" lon="5.17069">
        <ele>199.594</ele>
        <time>2019-04-28T14:00:12Z</time>
      </trkpt>
      <trkpt lat="43.88496" lon="5.16968">
        <ele>195.816</ele>
        <time>2019-04-28T14:00:23Z</time>
      </trkpt>
      <trkpt lat="43.88472" lon="5.16868">
        <ele>195.244</ele>
        <time>2019-04-28T14:00:34Z</time>
      </trkpt>
      <trkpt lat="43.88446" lon="5.16767">
        <ele>194.778</ele>
        <time>2019-04-28T14:00:45Z</time>
      </trkpt>
      <trkpt lat="43.88429" lon="5.16681">
        <ele>193.708</ele>
        <time>2019-04-28T14:00:56Z</time>
      </trkpt>
      <trkpt lat="43.88391" lon="5.16617">
        <ele>193.616</ele>
        <time>2019-04-28T14:01:07Z</time>
      </trkpt>
      <trkpt lat="43.88326" lon="5.16575">
        <ele>194.132</ele>
        <time>2019-04-28T14:01:18Z</time>
      </trkpt>
      <trkpt lat="43.88293" lon="5.16548">
        <ele>193.187</ele>
        <time>2019-04-28T14:01:29Z</time>
      </trkpt>
      <trkpt lat="43.88293" lon="5.16548">
        <ele>193.159</ele>
        <time>2019-04-28T14:01:40Z</time>
      </trkpt>
      <trkpt lat="43.88286" lon="5.16543">
        <ele>192.923</ele>
        <time>2019-04-28T14:01:50Z</time>
      </trkpt>
      <trkpt lat="43.8827" lon="5.16565">
        <ele>192.689</ele>
        <time>2019-04-28T14:02:01Z</time>
      </trkpt>
      <trkpt lat="43.88273" lon="5.16592">
        <ele>191.251</ele>
        <time>2019-04-28T14:02:11Z</time>
      </trkpt>
      <trkpt lat="43.88281" lon="5.16594">
        <ele>190.957</ele>
        <time>2019-04-28T14:02:22Z</time>
      </trkpt>
      <trkpt lat="43.88283" lon="5.16598">
        <ele>190.796</ele>
        <time>2019-04-28T14:02:33Z</time>
      </trkpt>
      <trkpt lat="43.88285" lon="5.16596">
        <ele>189.277</ele>
        <time>2019-04-28T14:02:44Z</time>
      </trkpt>
      <trkpt lat="43.88285" lon="5.16596">
        <ele>189.232</ele>
        <time>2019-04-28T14:02:54Z</time>
      </trkpt>
      <trkpt lat="43.88285" lon="5.16596">
        <ele>189.204</ele>
        <time>2019-04-28T14:03:05Z</time>
      </trkpt>
      <trkpt lat="43.88285" lon="5.16596">
        <ele>189.188</ele>
        <time>2019-04-28T14:03:15Z</time>
      </trkpt>
      <trkpt lat="43.88285" lon="5.16596">
        <ele>189.192</ele>
        <time>2019-04-28T14:03:26Z</time>
      </trkpt>
      <trkpt lat="43.88285" lon="5.16596">
        <ele>189.182</ele>
        <time>2019-04-28T14:03:37Z</time>
      </trkpt>
      <trkpt lat="43.88285" lon="5.16596">
        <ele>189.17</ele>
        <time>2019-04-28T14:03:48Z</time>
      </trkpt>
      <trkpt lat="43.88285" lon="5.16596">
        <ele>189.107</ele>
        <time>2019-04-28T14:03:59Z</time>
      </trkpt>
      <trkpt lat="43.88285" lon="5.16596">
        <ele>189.067</ele>
        <time>2019-04-28T14:04:09Z</time>
      </trkpt>
      <trkpt lat="43.88285" lon="5.16596">
        <ele>189.018</ele>
        <time>2019-04-28T14:04:20Z</time>
      </trkpt>
      <trkpt lat="43.88285" lon="5.16596">
        <ele>189.021</ele>
        <time>2019-04-28T14:04:31Z</time>
      </trkpt>
      <trkpt lat="43.88285" lon="5.16596">
        <ele>189.009</ele>
        <time>2019-04-28T14:04:42Z</time>
      </trkpt>
      <trkpt lat="43.88285" lon="5.16596">
        <ele>189.027</ele>
        <time>2019-04-28T14:04:52Z</time>
      </trkpt>
      <trkpt lat="43.88285" lon="5.16596">
        <ele>189.087</ele>
        <time>2019-04-28T14:05:03Z</time>
      </trkpt>
      <trkpt lat="43.88285" lon="5.16596">
        <ele>189.164</ele>
        <time>2019-04-28T14:05:14Z</time>
      </trkpt>
      <trkpt lat="43.88285" lon="5.16596">
        <ele>189.38</ele>
        <time>2019-04-28T14:05:25Z</time>
      </trkpt>
      <trkpt lat="43.88285" lon="5.16596">
        <ele>189.445</ele>
        <time>2019-04-28T14:05:35Z</time>
      </trkpt>
      <trkpt lat="43.88285" lon="5.16596">
        <ele>189.507</ele>
        <time>2019-04-28T14:05:46Z</time>
      </trkpt>
      <trkpt lat="43.88285" lon="5.16596">
        <ele>189.558</ele>
        <time>2019-04-28T14:05:56Z</time>
      </trkpt>
      <trkpt lat="43.88281" lon="5.16598">
        <ele>189.603</ele>
        <time>2019-04-28T14:06:06Z</time>
      </trkpt>
      <trkpt lat="43.88281" lon="5.16598">
        <ele>189.642</ele>
        <time>2019-04-28T14:06:17Z</time>
      </trkpt>
      <trkpt lat="43.88282" lon="5.16597">
        <ele>189.655</ele>
        <time>2019-04-28T14:06:28Z</time>
      </trkpt>
      <trkpt lat="43.88282" lon="5.16596">
        <ele>189.635</ele>
        <time>2019-04-28T14:06:38Z</time>
      </trkpt>
      <trkpt lat="43.88281" lon="5.16595">
        <ele>189.66</ele>
        <time>2019-04-28T14:06:49Z</time>
      </trkpt>
      <trkpt lat="43.88281" lon="5.16593">
        <ele>189.868</ele>
        <time>2019-04-28T14:07:00Z</time>
      </trkpt>
      <trkpt lat="43.8828" lon="5.16593">
        <ele>190.03</ele>
        <time>2019-04-28T14:07:10Z</time>
      </trkpt>
      <trkpt lat="43.8828" lon="5.16593">
        <ele>190.24</ele>
        <time>2019-04-28T14:07:21Z</time>
      </trkpt>
      <trkpt lat="43.88279" lon="5.16593">
        <ele>190.313</ele>
        <time>2019-04-28T14:07:31Z</time>
      </trkpt>
      <trkpt lat="43.8828" lon="5.16593">
        <ele>190.408</ele>
        <time>2019-04-28T14:07:42Z</time>
      </trkpt>
      <trkpt lat="43.8828" lon="5.16592">
        <ele>190.544</ele>
        <time>2019-04-28T14:07:52Z</time>
      </trkpt>
      <trkpt lat="43.8828" lon="5.16592">
        <ele>190.688</ele>
        <time>2019-04-28T14:08:02Z</time>
      </trkpt>
      <trkpt lat="43.8828" lon="5.16594">
        <ele>191.395</ele>
        <time>2019-04-28T14:08:13Z</time>
      </trkpt>
      <trkpt lat="43.8828" lon="5.16594">
        <ele>191.583</ele>
        <time>2019-04-28T14:08:23Z</time>
      </trkpt>
      <trkpt lat="43.8828" lon="5.16593">
        <ele>191.65</ele>
        <time>2019-04-28T14:08:34Z</time>
      </trkpt>
      <trkpt lat="43.88281" lon="5.166">
        <ele>192.373</ele>
        <time>2019-04-28T14:08:45Z</time>
      </trkpt>
      <trkpt lat="43.88282" lon="5.16597">
        <ele>192.526</ele>
        <time>2019-04-28T14:08:56Z</time>
      </trkpt>
      <trkpt lat="43.88282" lon="5.16597">
        <ele>192.501</ele>
        <time>2019-04-28T14:09:06Z</time>
      </trkpt>
      <trkpt lat="43.88282" lon="5.16596">
        <ele>192.264</ele>
        <time>2019-04-28T14:09:17Z</time>
      </trkpt>
      <trkpt lat="43.88282" lon="5.16596">
        <ele>192.149</ele>
        <time>2019-04-28T14:09:28Z</time>
      </trkpt>
      <trkpt lat="43.88283" lon="5.16596">
        <ele>192.055</ele>
        <time>2019-04-28T14:09:38Z</time>
      </trkpt>
      <trkpt lat="43.88283" lon="5.16595">
        <ele>191.906</ele>
        <time>2019-04-28T14:09:49Z</time>
      </trkpt>
      <trkpt lat="43.88283" lon="5.16595">
        <ele>191.737</ele>
        <time>2019-04-28T14:09:59Z</time>
      </trkpt>
      <trkpt lat="43.88283" lon="5.16608">
        <ele>191.79</ele>
        <time>2019-04-28T14:10:10Z</time>
      </trkpt>
      <trkpt lat="43.88278" lon="5.16611">
        <ele>186.58</ele>
        <time>2019-04-28T14:14:49Z</time>
      </trkpt>
      <trkpt lat="43.88278" lon="5.16607">
        <ele>178.585</ele>
        <time>2019-04-28T14:14:59Z</time>
      </trkpt>
      <trkpt lat="43.88278" lon="5.16607">
        <ele>177.931</ele>
        <time>2019-04-28T14:15:09Z</time>
      </trkpt>
      <trkpt lat="43.88278" lon="5.16607">
        <ele>179.205</ele>
        <time>2019-04-28T14:15:20Z</time>
      </trkpt>
      <trkpt lat="43.88278" lon="5.16607">
        <ele>179.294</ele>
        <time>2019-04-28T14:15:30Z</time>
      </trkpt>
      <trkpt lat="43.88278" lon="5.16607">
        <ele>179.327</ele>
        <time>2019-04-28T14:15:40Z</time>
      </trkpt>
      <trkpt lat="43.88278" lon="5.16607">
        <ele>179.348</ele>
        <time>2019-04-28T14:15:51Z</time>
      </trkpt>
      <trkpt lat="43.88285" lon="5.166">
        <ele>179.361</ele>
        <time>2019-04-28T14:16:01Z</time>
      </trkpt>
      <trkpt lat="43.88285" lon="5.166">
        <ele>179.364</ele>
        <time>2019-04-28T14:16:11Z</time>
      </trkpt>
      <trkpt lat="43.88285" lon="5.166">
        <ele>179.367</ele>
        <time>2019-04-28T14:16:17Z</time>
      </trkpt>
      <trkpt lat="43.88285" lon="5.166">
        <ele>179.307</ele>
        <time>2019-04-28T14:16:23Z</time>
      </trkpt>
      <trkpt lat="43.88286" lon="5.16598">
        <ele>179.547</ele>
        <time>2019-04-28T14:16:29Z</time>
      </trkpt>
      <trkpt lat="43.88286" lon="5.16598">
        <ele>179.786</ele>
        <time>2019-04-28T14:16:35Z</time>
      </trkpt>
      <trkpt lat="43.88285" lon="5.16597">
        <ele>180.117</ele>
        <time>2019-04-28T14:16:41Z</time>
      </trkpt>
      <trkpt lat="43.88285" lon="5.16597">
        <ele>180.174</ele>
        <time>2019-04-28T14:16:47Z</time>
      </trkpt>
      <trkpt lat="43.88285" lon="5.16597">
        <ele>180.377</ele>
        <time>2019-04-28T14:16:53Z</time>
      </trkpt>
      <trkpt lat="43.88283" lon="5.16594">
        <ele>180.547</ele>
        <time>2019-04-28T14:16:58Z</time>
      </trkpt>
      <trkpt lat="43.88273" lon="5.16584">
        <ele>180.679</ele>
        <time>2019-04-28T14:17:04Z</time>
      </trkpt>
      <trkpt lat="43.88269" lon="5.16561">
        <ele>180.714</ele>
        <time>2019-04-28T14:17:10Z</time>
      </trkpt>
      <trkpt lat="43.88273" lon="5.16552">
        <ele>180.658</ele>
        <time>2019-04-28T14:17:15Z</time>
      </trkpt>
      <trkpt lat="43.88283" lon="5.16551">
        <ele>180.633</ele>
        <time>2019-04-28T14:17:21Z</time>
      </trkpt>
      <trkpt lat="43.88286" lon="5.1655">
        <ele>180.7</ele>
        <time>2019-04-28T14:17:27Z</time>
      </trkpt>
      <trkpt lat="43.88286" lon="5.1655">
        <ele>180.713</ele>
        <time>2019-04-28T14:17:33Z</time>
      </trkpt>
      <trkpt lat="43.88287" lon="5.16547">
        <ele>180.871</ele>
        <time>2019-04-28T14:17:39Z</time>
      </trkpt>
      <trkpt lat="43.88273" lon="5.16525">
        <ele>182.069</ele>
        <time>2019-04-28T14:17:45Z</time>
      </trkpt>
      <trkpt lat="43.88257" lon="5.16498">
        <ele>183.734</ele>
        <time>2019-04-28T14:17:50Z</time>
      </trkpt>
      <trkpt lat="43.88241" lon="5.1647">
        <ele>184.473</ele>
        <time>2019-04-28T14:17:55Z</time>
      </trkpt>
      <trkpt lat="43.88221" lon="5.16431">
        <ele>183.824</ele>
        <time>2019-04-28T14:18:01Z</time>
      </trkpt>
      <trkpt lat="43.88199" lon="5.16388">
        <ele>184.825</ele>
        <time>2019-04-28T14:18:07Z</time>
      </trkpt>
      <trkpt lat="43.88175" lon="5.1634">
        <ele>184.795</ele>
        <time>2019-04-28T14:18:13Z</time>
      </trkpt>
      <trkpt lat="43.88155" lon="5.16287">
        <ele>180.476</ele>
        <time>2019-04-28T14:18:19Z</time>
      </trkpt>
      <trkpt lat="43.8814" lon="5.16246">
        <ele>179.921</ele>
        <time>2019-04-28T14:18:24Z</time>
      </trkpt>
      <trkpt lat="43.88123" lon="5.16203">
        <ele>179.536</ele>
        <time>2019-04-28T14:18:29Z</time>
      </trkpt>
      <trkpt lat="43.88105" lon="5.16158">
        <ele>182.12</ele>
        <time>2019-04-28T14:18:35Z</time>
      </trkpt>
      <trkpt lat="43.88085" lon="5.16119">
        <ele>184.116</ele>
        <time>2019-04-28T14:18:40Z</time>
      </trkpt>
      <trkpt lat="43.88063" lon="5.16084">
        <ele>183.845</ele>
        <time>2019-04-28T14:18:45Z</time>
      </trkpt>
      <trkpt lat="43.8805" lon="5.16033">
        <ele>183.236</ele>
        <time>2019-04-28T14:18:51Z</time>
      </trkpt>
      <trkpt lat="43.88033" lon="5.15987">
        <ele>184.16</ele>
        <time>2019-04-28T14:18:57Z</time>
      </trkpt>
      <trkpt lat="43.88018" lon="5.15938">
        <ele>184.771</ele>
        <time>2019-04-28T14:19:03Z</time>
      </trkpt>
      <trkpt lat="43.88005" lon="5.159">
        <ele>181.528</ele>
        <time>2019-04-28T14:19:08Z</time>
      </trkpt>
      <trkpt lat="43.87993" lon="5.1585">
        <ele>178.268</ele>
        <time>2019-04-28T14:19:14Z</time>
      </trkpt>
      <trkpt lat="43.87985" lon="5.15808">
        <ele>175.06</ele>
        <time>2019-04-28T14:19:19Z</time>
      </trkpt>
      <trkpt lat="43.87979" lon="5.15763">
        <ele>172.191</ele>
        <time>2019-04-28T14:19:25Z</time>
      </trkpt>
      <trkpt lat="43.87974" lon="5.15719">
        <ele>171.919</ele>
        <time>2019-04-28T14:19:31Z</time>
      </trkpt>
      <trkpt lat="43.87957" lon="5.15672">
        <ele>174.337</ele>
        <time>2019-04-28T14:19:37Z</time>
      </trkpt>
      <trkpt lat="43.87945" lon="5.15639">
        <ele>174.518</ele>
        <time>2019-04-28T14:19:42Z</time>
      </trkpt>
      <trkpt lat="43.87928" lon="5.15592">
        <ele>174.41</ele>
        <time>2019-04-28T14:19:48Z</time>
      </trkpt>
      <trkpt lat="43.8791" lon="5.15548">
        <ele>174.912</ele>
        <time>2019-04-28T14:19:54Z</time>
      </trkpt>
      <trkpt lat="43.87895" lon="5.15515">
        <ele>174.972</ele>
        <time>2019-04-28T14:19:59Z</time>
      </trkpt>
      <trkpt lat="43.87877" lon="5.15475">
        <ele>177.009</ele>
        <time>2019-04-28T14:20:04Z</time>
      </trkpt>
      <trkpt lat="43.87859" lon="5.15432">
        <ele>175.026</ele>
        <time>2019-04-28T14:20:10Z</time>
      </trkpt>
      <trkpt lat="43.87853" lon="5.15377">
        <ele>172.775</ele>
        <time>2019-04-28T14:20:16Z</time>
      </trkpt>
      <trkpt lat="43.87847" lon="5.15326">
        <ele>172.312</ele>
        <time>2019-04-28T14:20:22Z</time>
      </trkpt>
      <trkpt lat="43.87838" lon="5.15275">
        <ele>172.448</ele>
        <time>2019-04-28T14:20:28Z</time>
      </trkpt>
      <trkpt lat="43.87834" lon="5.15236">
        <ele>171.409</ele>
        <time>2019-04-28T14:20:33Z</time>
      </trkpt>
      <trkpt lat="43.87825" lon="5.15191">
        <ele>172.056</ele>
        <time>2019-04-28T14:20:39Z</time>
      </trkpt>
      <trkpt lat="43.87811" lon="5.15154">
        <ele>171.934</ele>
        <time>2019-04-28T14:20:44Z</time>
      </trkpt>
      <trkpt lat="43.87796" lon="5.15109">
        <ele>171.171</ele>
        <time>2019-04-28T14:20:50Z</time>
      </trkpt>
      <trkpt lat="43.87777" lon="5.15064">
        <ele>170.647</ele>
        <time>2019-04-28T14:20:56Z</time>
      </trkpt>
      <trkpt lat="43.87751" lon="5.15019">
        <ele>170.204</ele>
        <time>2019-04-28T14:21:02Z</time>
      </trkpt>
      <trkpt lat="43.87725" lon="5.14972">
        <ele>169.637</ele>
        <time>2019-04-28T14:21:08Z</time>
      </trkpt>
      <trkpt lat="43.87698" lon="5.14923">
        <ele>168.909</ele>
        <time>2019-04-28T14:21:14Z</time>
      </trkpt>
      <trkpt lat="43.8767" lon="5.14876">
        <ele>168.078</ele>
        <time>2019-04-28T14:21:20Z</time>
      </trkpt>
      <trkpt lat="43.87644" lon="5.14831">
        <ele>167.529</ele>
        <time>2019-04-28T14:21:26Z</time>
      </trkpt>
      <trkpt lat="43.87622" lon="5.14797">
        <ele>167.15</ele>
        <time>2019-04-28T14:21:31Z</time>
      </trkpt>
      <trkpt lat="43.87601" lon="5.1476">
        <ele>166.865</ele>
        <time>2019-04-28T14:21:36Z</time>
      </trkpt>
      <trkpt lat="43.87578" lon="5.1472">
        <ele>166.34</ele>
        <time>2019-04-28T14:21:42Z</time>
      </trkpt>
      <trkpt lat="43.87555" lon="5.14678">
        <ele>165.552</ele>
        <time>2019-04-28T14:21:48Z</time>
      </trkpt>
      <trkpt lat="43.87531" lon="5.14635">
        <ele>164.609</ele>
        <time>2019-04-28T14:21:54Z</time>
      </trkpt>
      <trkpt lat="43.87511" lon="5.14587">
        <ele>163.708</ele>
        <time>2019-04-28T14:22:00Z</time>
      </trkpt>
      <trkpt lat="43.87495" lon="5.14548">
        <ele>163.126</ele>
        <time>2019-04-28T14:22:05Z</time>
      </trkpt>
      <trkpt lat="43.87476" lon="5.14503">
        <ele>162.736</ele>
        <time>2019-04-28T14:22:11Z</time>
      </trkpt>
      <trkpt lat="43.87456" lon="5.14456">
        <ele>162.319</ele>
        <time>2019-04-28T14:22:17Z</time>
      </trkpt>
      <trkpt lat="43.87438" lon="5.14409">
        <ele>161.96</ele>
        <time>2019-04-28T14:22:23Z</time>
      </trkpt>
      <trkpt lat="43.87419" lon="5.14363">
        <ele>161.597</ele>
        <time>2019-04-28T14:22:29Z</time>
      </trkpt>
      <trkpt lat="43.87397" lon="5.14317">
        <ele>161.242</ele>
        <time>2019-04-28T14:22:35Z</time>
      </trkpt>
      <trkpt lat="43.87378" lon="5.14278">
        <ele>160.838</ele>
        <time>2019-04-28T14:22:41Z</time>
      </trkpt>
      <trkpt lat="43.87364" lon="5.14246">
        <ele>160.671</ele>
        <time>2019-04-28T14:22:46Z</time>
      </trkpt>
      <trkpt lat="43.87349" lon="5.14205">
        <ele>160.54</ele>
        <time>2019-04-28T14:22:52Z</time>
      </trkpt>
      <trkpt lat="43.87335" lon="5.14168">
        <ele>160.391</ele>
        <time>2019-04-28T14:22:57Z</time>
      </trkpt>
      <trkpt lat="43.87316" lon="5.14124">
        <ele>160.07</ele>
        <time>2019-04-28T14:23:03Z</time>
      </trkpt>
      <trkpt lat="43.87296" lon="5.1408">
        <ele>159.662</ele>
        <time>2019-04-28T14:23:09Z</time>
      </trkpt>
      <trkpt lat="43.87275" lon="5.14035">
        <ele>159.345</ele>
        <time>2019-04-28T14:23:15Z</time>
      </trkpt>
      <trkpt lat="43.87254" lon="5.13991">
        <ele>158.941</ele>
        <time>2019-04-28T14:23:21Z</time>
      </trkpt>
      <trkpt lat="43.87234" lon="5.13945">
        <ele>158.455</ele>
        <time>2019-04-28T14:23:27Z</time>
      </trkpt>
      <trkpt lat="43.87216" lon="5.13907">
        <ele>158.014</ele>
        <time>2019-04-28T14:23:32Z</time>
      </trkpt>
      <trkpt lat="43.87202" lon="5.13866">
        <ele>157.569</ele>
        <time>2019-04-28T14:23:37Z</time>
      </trkpt>
      <trkpt lat="43.87187" lon="5.13815">
        <ele>156.95</ele>
        <time>2019-04-28T14:23:43Z</time>
      </trkpt>
      <trkpt lat="43.87174" lon="5.13765">
        <ele>156.025</ele>
        <time>2019-04-28T14:23:49Z</time>
      </trkpt>
      <trkpt lat="43.87169" lon="5.13718">
        <ele>156.83</ele>
        <time>2019-04-28T14:23:55Z</time>
      </trkpt>
      <trkpt lat="43.87166" lon="5.1368">
        <ele>154.804</ele>
        <time>2019-04-28T14:24:00Z</time>
      </trkpt>
      <trkpt lat="43.87158" lon="5.13637">
        <ele>153.975</ele>
        <time>2019-04-28T14:24:06Z</time>
      </trkpt>
      <trkpt lat="43.87153" lon="5.136">
        <ele>153.108</ele>
        <time>2019-04-28T14:24:11Z</time>
      </trkpt>
      <trkpt lat="43.87148" lon="5.13548">
        <ele>153.219</ele>
        <time>2019-04-28T14:24:17Z</time>
      </trkpt>
      <trkpt lat="43.87145" lon="5.1351">
        <ele>152.376</ele>
        <time>2019-04-28T14:24:22Z</time>
      </trkpt>
      <trkpt lat="43.87141" lon="5.13475">
        <ele>151.577</ele>
        <time>2019-04-28T14:24:27Z</time>
      </trkpt>
      <trkpt lat="43.87131" lon="5.13418">
        <ele>151.549</ele>
        <time>2019-04-28T14:24:35Z</time>
      </trkpt>
      <trkpt lat="43.87123" lon="5.13377">
        <ele>149.343</ele>
        <time>2019-04-28T14:24:41Z</time>
      </trkpt>
      <trkpt lat="43.87117" lon="5.13342">
        <ele>149.881</ele>
        <time>2019-04-28T14:24:46Z</time>
      </trkpt>
      <trkpt lat="43.8711" lon="5.13303">
        <ele>150.249</ele>
        <time>2019-04-28T14:24:52Z</time>
      </trkpt>
      <trkpt lat="43.87104" lon="5.13268">
        <ele>150.023</ele>
        <time>2019-04-28T14:24:57Z</time>
      </trkpt>
      <trkpt lat="43.87098" lon="5.13226">
        <ele>149.951</ele>
        <time>2019-04-28T14:25:03Z</time>
      </trkpt>
      <trkpt lat="43.87087" lon="5.13194">
        <ele>149.474</ele>
        <time>2019-04-28T14:25:08Z</time>
      </trkpt>
      <trkpt lat="43.87073" lon="5.13159">
        <ele>150.559</ele>
        <time>2019-04-28T14:25:14Z</time>
      </trkpt>
      <trkpt lat="43.87059" lon="5.13126">
        <ele>150.953</ele>
        <time>2019-04-28T14:25:19Z</time>
      </trkpt>
      <trkpt lat="43.87047" lon="5.13085">
        <ele>151.038</ele>
        <time>2019-04-28T14:25:25Z</time>
      </trkpt>
      <trkpt lat="43.87039" lon="5.13046">
        <ele>151.021</ele>
        <time>2019-04-28T14:25:30Z</time>
      </trkpt>
      <trkpt lat="43.87033" lon="5.13004">
        <ele>149.342</ele>
        <time>2019-04-28T14:25:35Z</time>
      </trkpt>
      <trkpt lat="43.87025" lon="5.12963">
        <ele>147.788</ele>
        <time>2019-04-28T14:25:40Z</time>
      </trkpt>
      <trkpt lat="43.87018" lon="5.12922">
        <ele>146.485</ele>
        <time>2019-04-28T14:25:46Z</time>
      </trkpt>
      <trkpt lat="43.87011" lon="5.12873">
        <ele>145.547</ele>
        <time>2019-04-28T14:25:51Z</time>
      </trkpt>
      <trkpt lat="43.87005" lon="5.12834">
        <ele>145.345</ele>
        <time>2019-04-28T14:25:56Z</time>
      </trkpt>
      <trkpt lat="43.86997" lon="5.12784">
        <ele>145.008</ele>
        <time>2019-04-28T14:26:02Z</time>
      </trkpt>
      <trkpt lat="43.86988" lon="5.12743">
        <ele>144.22</ele>
        <time>2019-04-28T14:26:07Z</time>
      </trkpt>
      <trkpt lat="43.86981" lon="5.12697">
        <ele>144.474</ele>
        <time>2019-04-28T14:26:13Z</time>
      </trkpt>
      <trkpt lat="43.86977" lon="5.12655">
        <ele>144.276</ele>
        <time>2019-04-28T14:26:18Z</time>
      </trkpt>
      <trkpt lat="43.86973" lon="5.12605">
        <ele>143.912</ele>
        <time>2019-04-28T14:26:24Z</time>
      </trkpt>
      <trkpt lat="43.86965" lon="5.12561">
        <ele>142.827</ele>
        <time>2019-04-28T14:26:30Z</time>
      </trkpt>
      <trkpt lat="43.86946" lon="5.12516">
        <ele>142.32</ele>
        <time>2019-04-28T14:26:37Z</time>
      </trkpt>
      <trkpt lat="43.86933" lon="5.12484">
        <ele>141.54</ele>
        <time>2019-04-28T14:26:43Z</time>
      </trkpt>
      <trkpt lat="43.86907" lon="5.12481">
        <ele>141.825</ele>
        <time>2019-04-28T14:26:49Z</time>
      </trkpt>
      <trkpt lat="43.86883" lon="5.12479">
        <ele>141.532</ele>
        <time>2019-04-28T14:26:54Z</time>
      </trkpt>
      <trkpt lat="43.86863" lon="5.12453">
        <ele>141.451</ele>
        <time>2019-04-28T14:26:59Z</time>
      </trkpt>
      <trkpt lat="43.8685" lon="5.12412">
        <ele>141.466</ele>
        <time>2019-04-28T14:27:05Z</time>
      </trkpt>
      <trkpt lat="43.86839" lon="5.12372">
        <ele>141.323</ele>
        <time>2019-04-28T14:27:11Z</time>
      </trkpt>
      <trkpt lat="43.86828" lon="5.12327">
        <ele>141.515</ele>
        <time>2019-04-28T14:27:17Z</time>
      </trkpt>
      <trkpt lat="43.86819" lon="5.12289">
        <ele>140.247</ele>
        <time>2019-04-28T14:27:22Z</time>
      </trkpt>
      <trkpt lat="43.86809" lon="5.12242">
        <ele>140.043</ele>
        <time>2019-04-28T14:27:28Z</time>
      </trkpt>
      <trkpt lat="43.86797" lon="5.12206">
        <ele>139.523</ele>
        <time>2019-04-28T14:27:34Z</time>
      </trkpt>
      <trkpt lat="43.86784" lon="5.12158">
        <ele>139.944</ele>
        <time>2019-04-28T14:27:40Z</time>
      </trkpt>
      <trkpt lat="43.86777" lon="5.12125">
        <ele>139.974</ele>
        <time>2019-04-28T14:27:45Z</time>
      </trkpt>
      <trkpt lat="43.86762" lon="5.12077">
        <ele>139.545</ele>
        <time>2019-04-28T14:27:51Z</time>
      </trkpt>
      <trkpt lat="43.8675" lon="5.1204">
        <ele>139.848</ele>
        <time>2019-04-28T14:27:56Z</time>
      </trkpt>
      <trkpt lat="43.86741" lon="5.12005">
        <ele>139.909</ele>
        <time>2019-04-28T14:28:01Z</time>
      </trkpt>
      <trkpt lat="43.86731" lon="5.11969">
        <ele>140.041</ele>
        <time>2019-04-28T14:28:07Z</time>
      </trkpt>
      <trkpt lat="43.86723" lon="5.11942">
        <ele>140.09</ele>
        <time>2019-04-28T14:28:12Z</time>
      </trkpt>
      <trkpt lat="43.86712" lon="5.11907">
        <ele>140.736</ele>
        <time>2019-04-28T14:28:18Z</time>
      </trkpt>
      <trkpt lat="43.86699" lon="5.11872">
        <ele>141.06</ele>
        <time>2019-04-28T14:28:24Z</time>
      </trkpt>
      <trkpt lat="43.86689" lon="5.11841">
        <ele>141.055</ele>
        <time>2019-04-28T14:28:29Z</time>
      </trkpt>
      <trkpt lat="43.86676" lon="5.11807">
        <ele>141.015</ele>
        <time>2019-04-28T14:28:35Z</time>
      </trkpt>
      <trkpt lat="43.86665" lon="5.1177">
        <ele>141.358</ele>
        <time>2019-04-28T14:28:41Z</time>
      </trkpt>
      <trkpt lat="43.86654" lon="5.11738">
        <ele>141.56</ele>
        <time>2019-04-28T14:28:46Z</time>
      </trkpt>
      <trkpt lat="43.86642" lon="5.11702">
        <ele>141.766</ele>
        <time>2019-04-28T14:28:52Z</time>
      </trkpt>
      <trkpt lat="43.8663" lon="5.11671">
        <ele>141.763</ele>
        <time>2019-04-28T14:28:57Z</time>
      </trkpt>
      <trkpt lat="43.86615" lon="5.11633">
        <ele>141.663</ele>
        <time>2019-04-28T14:29:03Z</time>
      </trkpt>
      <trkpt lat="43.86604" lon="5.11602">
        <ele>141.334</ele>
        <time>2019-04-28T14:29:08Z</time>
      </trkpt>
      <trkpt lat="43.86593" lon="5.1157">
        <ele>141.351</ele>
        <time>2019-04-28T14:29:13Z</time>
      </trkpt>
      <trkpt lat="43.86579" lon="5.11531">
        <ele>141.321</ele>
        <time>2019-04-28T14:29:19Z</time>
      </trkpt>
      <trkpt lat="43.86566" lon="5.11493">
        <ele>141.581</ele>
        <time>2019-04-28T14:29:25Z</time>
      </trkpt>
      <trkpt lat="43.86556" lon="5.11461">
        <ele>141.833</ele>
        <time>2019-04-28T14:29:30Z</time>
      </trkpt>
      <trkpt lat="43.86544" lon="5.11424">
        <ele>141.977</ele>
        <time>2019-04-28T14:29:36Z</time>
      </trkpt>
      <trkpt lat="43.86533" lon="5.11388">
        <ele>142.015</ele>
        <time>2019-04-28T14:29:42Z</time>
      </trkpt>
      <trkpt lat="43.86523" lon="5.11354">
        <ele>142.014</ele>
        <time>2019-04-28T14:29:48Z</time>
      </trkpt>
      <trkpt lat="43.86513" lon="5.11323">
        <ele>141.889</ele>
        <time>2019-04-28T14:29:54Z</time>
      </trkpt>
      <trkpt lat="43.86505" lon="5.11292">
        <ele>141.622</ele>
        <time>2019-04-28T14:29:59Z</time>
      </trkpt>
      <trkpt lat="43.86494" lon="5.11259">
        <ele>141.445</ele>
        <time>2019-04-28T14:30:05Z</time>
      </trkpt>
      <trkpt lat="43.86485" lon="5.11232">
        <ele>141.471</ele>
        <time>2019-04-28T14:30:11Z</time>
      </trkpt>
      <trkpt lat="43.86476" lon="5.11205">
        <ele>141.541</ele>
        <time>2019-04-28T14:30:17Z</time>
      </trkpt>
      <trkpt lat="43.86469" lon="5.11184">
        <ele>141.58</ele>
        <time>2019-04-28T14:30:22Z</time>
      </trkpt>
      <trkpt lat="43.86456" lon="5.11153">
        <ele>142.257</ele>
        <time>2019-04-28T14:30:28Z</time>
      </trkpt>
      <trkpt lat="43.86444" lon="5.11113">
        <ele>142.277</ele>
        <time>2019-04-28T14:30:34Z</time>
      </trkpt>
      <trkpt lat="43.86431" lon="5.11067">
        <ele>142.102</ele>
        <time>2019-04-28T14:30:40Z</time>
      </trkpt>
      <trkpt lat="43.8642" lon="5.11034">
        <ele>141.846</ele>
        <time>2019-04-28T14:30:45Z</time>
      </trkpt>
      <trkpt lat="43.86411" lon="5.11002">
        <ele>141.837</ele>
        <time>2019-04-28T14:30:50Z</time>
      </trkpt>
      <trkpt lat="43.86403" lon="5.10969">
        <ele>141.838</ele>
        <time>2019-04-28T14:30:55Z</time>
      </trkpt>
      <trkpt lat="43.86394" lon="5.10931">
        <ele>141.538</ele>
        <time>2019-04-28T14:31:00Z</time>
      </trkpt>
      <trkpt lat="43.86384" lon="5.10884">
        <ele>141.212</ele>
        <time>2019-04-28T14:31:06Z</time>
      </trkpt>
      <trkpt lat="43.86372" lon="5.10839">
        <ele>140.377</ele>
        <time>2019-04-28T14:31:12Z</time>
      </trkpt>
      <trkpt lat="43.86366" lon="5.10798">
        <ele>139.62</ele>
        <time>2019-04-28T14:31:17Z</time>
      </trkpt>
      <trkpt lat="43.86357" lon="5.10755">
        <ele>138.421</ele>
        <time>2019-04-28T14:31:23Z</time>
      </trkpt>
      <trkpt lat="43.86347" lon="5.10715">
        <ele>137.336</ele>
        <time>2019-04-28T14:31:29Z</time>
      </trkpt>
      <trkpt lat="43.8634" lon="5.10681">
        <ele>138.184</ele>
        <time>2019-04-28T14:31:34Z</time>
      </trkpt>
      <trkpt lat="43.86328" lon="5.10643">
        <ele>137.737</ele>
        <time>2019-04-28T14:31:40Z</time>
      </trkpt>
      <trkpt lat="43.86319" lon="5.10612">
        <ele>138.062</ele>
        <time>2019-04-28T14:31:45Z</time>
      </trkpt>
      <trkpt lat="43.86308" lon="5.10577">
        <ele>137.803</ele>
        <time>2019-04-28T14:31:51Z</time>
      </trkpt>
      <trkpt lat="43.86292" lon="5.10534">
        <ele>136.948</ele>
        <time>2019-04-28T14:31:57Z</time>
      </trkpt>
      <trkpt lat="43.86283" lon="5.10492">
        <ele>134.354</ele>
        <time>2019-04-28T14:32:03Z</time>
      </trkpt>
      <trkpt lat="43.86271" lon="5.10449">
        <ele>134.294</ele>
        <time>2019-04-28T14:32:09Z</time>
      </trkpt>
      <trkpt lat="43.86261" lon="5.10406">
        <ele>133.828</ele>
        <time>2019-04-28T14:32:15Z</time>
      </trkpt>
      <trkpt lat="43.86252" lon="5.1037">
        <ele>133.679</ele>
        <time>2019-04-28T14:32:20Z</time>
      </trkpt>
      <trkpt lat="43.86248" lon="5.10338">
        <ele>133.801</ele>
        <time>2019-04-28T14:32:25Z</time>
      </trkpt>
      <trkpt lat="43.8627" lon="5.10326">
        <ele>133.35</ele>
        <time>2019-04-28T14:32:31Z</time>
      </trkpt>
      <trkpt lat="43.8627" lon="5.10325">
        <ele>133.403</ele>
        <time>2019-04-28T14:32:36Z</time>
      </trkpt>
      <trkpt lat="43.8627" lon="5.10325">
        <ele>133.436</ele>
        <time>2019-04-28T14:32:41Z</time>
      </trkpt>
      <trkpt lat="43.8627" lon="5.10325">
        <ele>133.389</ele>
        <time>2019-04-28T14:32:47Z</time>
      </trkpt>
      <trkpt lat="43.8627" lon="5.10325">
        <ele>133.301</ele>
        <time>2019-04-28T14:32:53Z</time>
      </trkpt>
      <trkpt lat="43.8627" lon="5.10325">
        <ele>133.253</ele>
        <time>2019-04-28T14:32:59Z</time>
      </trkpt>
      <trkpt lat="43.86278" lon="5.10322">
        <ele>133.195</ele>
        <time>2019-04-28T14:33:10Z</time>
      </trkpt>
      <trkpt lat="43.86317" lon="5.10307">
        <ele>132.192</ele>
        <time>2019-04-28T14:33:20Z</time>
      </trkpt>
      <trkpt lat="43.8636" lon="5.10291">
        <ele>133.135</ele>
        <time>2019-04-28T14:33:30Z</time>
      </trkpt>
      <trkpt lat="43.86408" lon="5.10275">
        <ele>133.697</ele>
        <time>2019-04-28T14:33:41Z</time>
      </trkpt>
      <trkpt lat="43.86452" lon="5.10258">
        <ele>133.978</ele>
        <time>2019-04-28T14:33:51Z</time>
      </trkpt>
      <trkpt lat="43.86503" lon="5.10235">
        <ele>134.206</ele>
        <time>2019-04-28T14:34:02Z</time>
      </trkpt>
      <trkpt lat="43.86547" lon="5.10217">
        <ele>134.795</ele>
        <time>2019-04-28T14:34:12Z</time>
      </trkpt>
      <trkpt lat="43.86591" lon="5.10206">
        <ele>135.261</ele>
        <time>2019-04-28T14:34:22Z</time>
      </trkpt>
      <trkpt lat="43.86605" lon="5.10222">
        <ele>135.246</ele>
        <time>2019-04-28T14:34:33Z</time>
      </trkpt>
      <trkpt lat="43.86605" lon="5.10222">
        <ele>135.246</ele>
        <time>2019-04-28T14:34:44Z</time>
      </trkpt>
      <trkpt lat="43.86605" lon="5.10222">
        <ele>135.258</ele>
        <time>2019-04-28T14:34:55Z</time>
      </trkpt>
      <trkpt lat="43.86598" lon="5.10231">
        <ele>133.468</ele>
        <time>2019-04-28T14:35:06Z</time>
      </trkpt>
      <trkpt lat="43.86619" lon="5.10282">
        <ele>135.449</ele>
        <time>2019-04-28T14:35:17Z</time>
      </trkpt>
      <trkpt lat="43.86646" lon="5.10286">
        <ele>133.824</ele>
        <time>2019-04-28T14:35:28Z</time>
      </trkpt>
      <trkpt lat="43.86667" lon="5.10301">
        <ele>134.098</ele>
        <time>2019-04-28T14:35:39Z</time>
      </trkpt>
      <trkpt lat="43.86674" lon="5.10339">
        <ele>135.129</ele>
        <time>2019-04-28T14:35:49Z</time>
      </trkpt>
      <trkpt lat="43.86666" lon="5.10378">
        <ele>135.705</ele>
        <time>2019-04-28T14:36:01Z</time>
      </trkpt>
      <trkpt lat="43.86651" lon="5.10413">
        <ele>136.398</ele>
        <time>2019-04-28T14:36:11Z</time>
      </trkpt>
      <trkpt lat="43.86635" lon="5.10408">
        <ele>136.591</ele>
        <time>2019-04-28T14:36:21Z</time>
      </trkpt>
      <trkpt lat="43.86627" lon="5.10395">
        <ele>136.757</ele>
        <time>2019-04-28T14:36:32Z</time>
      </trkpt>
      <trkpt lat="43.86627" lon="5.10395">
        <ele>136.797</ele>
        <time>2019-04-28T14:36:43Z</time>
      </trkpt>
      <trkpt lat="43.86626" lon="5.10389">
        <ele>136.92</ele>
        <time>2019-04-28T14:36:53Z</time>
      </trkpt>
      <trkpt lat="43.86626" lon="5.10389">
        <ele>137.053</ele>
        <time>2019-04-28T14:37:04Z</time>
      </trkpt>
      <trkpt lat="43.86626" lon="5.10389">
        <ele>137.133</ele>
        <time>2019-04-28T14:37:14Z</time>
      </trkpt>
      <trkpt lat="43.86626" lon="5.10389">
        <ele>137.23</ele>
        <time>2019-04-28T14:37:25Z</time>
      </trkpt>
      <trkpt lat="43.86626" lon="5.10389">
        <ele>137.345</ele>
        <time>2019-04-28T14:37:35Z</time>
      </trkpt>
      <trkpt lat="43.86626" lon="5.10389">
        <ele>137.481</ele>
        <time>2019-04-28T14:37:46Z</time>
      </trkpt>
      <trkpt lat="43.86626" lon="5.10389">
        <ele>137.603</ele>
        <time>2019-04-28T14:37:56Z</time>
      </trkpt>
      <trkpt lat="43.86626" lon="5.10389">
        <ele>137.73</ele>
        <time>2019-04-28T14:38:07Z</time>
      </trkpt>
      <trkpt lat="43.86626" lon="5.10389">
        <ele>137.847</ele>
        <time>2019-04-28T14:38:17Z</time>
      </trkpt>
      <trkpt lat="43.86626" lon="5.10389">
        <ele>137.979</ele>
        <time>2019-04-28T14:38:28Z</time>
      </trkpt>
      <trkpt lat="43.86626" lon="5.10389">
        <ele>138.097</ele>
        <time>2019-04-28T14:38:39Z</time>
      </trkpt>
      <trkpt lat="43.86626" lon="5.10389">
        <ele>138.187</ele>
        <time>2019-04-28T14:38:49Z</time>
      </trkpt>
      <trkpt lat="43.86626" lon="5.10389">
        <ele>138.271</ele>
        <time>2019-04-28T14:39:00Z</time>
      </trkpt>
      <trkpt lat="43.86626" lon="5.10389">
        <ele>138.34</ele>
        <time>2019-04-28T14:39:10Z</time>
      </trkpt>
      <trkpt lat="43.86626" lon="5.10389">
        <ele>138.41</ele>
        <time>2019-04-28T14:39:21Z</time>
      </trkpt>
      <trkpt lat="43.86626" lon="5.10389">
        <ele>138.472</ele>
        <time>2019-04-28T14:39:32Z</time>
      </trkpt>
      <trkpt lat="43.86626" lon="5.10389">
        <ele>138.56</ele>
        <time>2019-04-28T14:39:43Z</time>
      </trkpt>
      <trkpt lat="43.86626" lon="5.10389">
        <ele>138.592</ele>
        <time>2019-04-28T14:39:54Z</time>
      </trkpt>
      <trkpt lat="43.86626" lon="5.10389">
        <ele>138.632</ele>
        <time>2019-04-28T14:40:05Z</time>
      </trkpt>
      <trkpt lat="43.86626" lon="5.10389">
        <ele>138.658</ele>
        <time>2019-04-28T14:40:15Z</time>
      </trkpt>
      <trkpt lat="43.86626" lon="5.10389">
        <ele>138.687</ele>
        <time>2019-04-28T14:40:25Z</time>
      </trkpt>
      <trkpt lat="43.86626" lon="5.10389">
        <ele>138.718</ele>
        <time>2019-04-28T14:40:36Z</time>
      </trkpt>
      <trkpt lat="43.86628" lon="5.1039">
        <ele>138.729</ele>
        <time>2019-04-28T14:40:47Z</time>
      </trkpt>
      <trkpt lat="43.86628" lon="5.1039">
        <ele>138.713</ele>
        <time>2019-04-28T14:40:57Z</time>
      </trkpt>
      <trkpt lat="43.86628" lon="5.1039">
        <ele>138.692</ele>
        <time>2019-04-28T14:41:08Z</time>
      </trkpt>
      <trkpt lat="43.86628" lon="5.10389">
        <ele>138.662</ele>
        <time>2019-04-28T14:41:19Z</time>
      </trkpt>
      <trkpt lat="43.86627" lon="5.10389">
        <ele>138.637</ele>
        <time>2019-04-28T14:41:29Z</time>
      </trkpt>
      <trkpt lat="43.86627" lon="5.10389">
        <ele>138.623</ele>
        <time>2019-04-28T14:41:39Z</time>
      </trkpt>
      <trkpt lat="43.86627" lon="5.10389">
        <ele>138.611</ele>
        <time>2019-04-28T14:41:50Z</time>
      </trkpt>
      <trkpt lat="43.86627" lon="5.10389">
        <ele>138.602</ele>
        <time>2019-04-28T14:42:00Z</time>
      </trkpt>
      <trkpt lat="43.86627" lon="5.10388">
        <ele>138.591</ele>
        <time>2019-04-28T14:42:11Z</time>
      </trkpt>
      <trkpt lat="43.86627" lon="5.10388">
        <ele>138.593</ele>
        <time>2019-04-28T14:42:21Z</time>
      </trkpt>
      <trkpt lat="43.86627" lon="5.10388">
        <ele>138.588</ele>
        <time>2019-04-28T14:42:32Z</time>
      </trkpt>
      <trkpt lat="43.86627" lon="5.10388">
        <ele>138.568</ele>
        <time>2019-04-28T14:42:42Z</time>
      </trkpt>
      <trkpt lat="43.86627" lon="5.10389">
        <ele>138.527</ele>
        <time>2019-04-28T14:42:53Z</time>
      </trkpt>
      <trkpt lat="43.86627" lon="5.10388">
        <ele>138.566</ele>
        <time>2019-04-28T14:43:04Z</time>
      </trkpt>
      <trkpt lat="43.86628" lon="5.1039">
        <ele>138.539</ele>
        <time>2019-04-28T14:43:14Z</time>
      </trkpt>
      <trkpt lat="43.86628" lon="5.10391">
        <ele>138.5</ele>
        <time>2019-04-28T14:43:24Z</time>
      </trkpt>
      <trkpt lat="43.8663" lon="5.10388">
        <ele>138.37</ele>
        <time>2019-04-28T14:43:34Z</time>
      </trkpt>
      <trkpt lat="43.86638" lon="5.10368">
        <ele>138.153</ele>
        <time>2019-04-28T14:43:45Z</time>
      </trkpt>
      <trkpt lat="43.86655" lon="5.10366">
        <ele>137.284</ele>
        <time>2019-04-28T14:43:55Z</time>
      </trkpt>
      <trkpt lat="43.86677" lon="5.10375">
        <ele>136.743</ele>
        <time>2019-04-28T14:44:06Z</time>
      </trkpt>
      <trkpt lat="43.86687" lon="5.1035">
        <ele>136.036</ele>
        <time>2019-04-28T14:44:16Z</time>
      </trkpt>
      <trkpt lat="43.86678" lon="5.1032">
        <ele>135.204</ele>
        <time>2019-04-28T14:44:27Z</time>
      </trkpt>
      <trkpt lat="43.86672" lon="5.10302">
        <ele>134.502</ele>
        <time>2019-04-28T14:44:37Z</time>
      </trkpt>
      <trkpt lat="43.86667" lon="5.10319">
        <ele>134.096</ele>
        <time>2019-04-28T14:44:47Z</time>
      </trkpt>
      <trkpt lat="43.86663" lon="5.10325">
        <ele>134.238</ele>
        <time>2019-04-28T14:44:58Z</time>
      </trkpt>
      <trkpt lat="43.86663" lon="5.10332">
        <ele>134.36</ele>
        <time>2019-04-28T14:45:08Z</time>
      </trkpt>
      <trkpt lat="43.86662" lon="5.10333">
        <ele>134.546</ele>
        <time>2019-04-28T14:45:19Z</time>
      </trkpt>
      <trkpt lat="43.86661" lon="5.10331">
        <ele>134.832</ele>
        <time>2019-04-28T14:45:30Z</time>
      </trkpt>
      <trkpt lat="43.86661" lon="5.1033">
        <ele>135.266</ele>
        <time>2019-04-28T14:45:41Z</time>
      </trkpt>
      <trkpt lat="43.86661" lon="5.10329">
        <ele>135.675</ele>
        <time>2019-04-28T14:45:52Z</time>
      </trkpt>
      <trkpt lat="43.86661" lon="5.1033">
        <ele>135.976</ele>
        <time>2019-04-28T14:46:02Z</time>
      </trkpt>
      <trkpt lat="43.86661" lon="5.1033">
        <ele>136.131</ele>
        <time>2019-04-28T14:46:13Z</time>
      </trkpt>
      <trkpt lat="43.86661" lon="5.1033">
        <ele>136.088</ele>
        <time>2019-04-28T14:46:24Z</time>
      </trkpt>
      <trkpt lat="43.86662" lon="5.1033">
        <ele>136.053</ele>
        <time>2019-04-28T14:46:34Z</time>
      </trkpt>
      <trkpt lat="43.86662" lon="5.1033">
        <ele>136.05</ele>
        <time>2019-04-28T14:46:45Z</time>
      </trkpt>
      <trkpt lat="43.86662" lon="5.10329">
        <ele>136.096</ele>
        <time>2019-04-28T14:46:55Z</time>
      </trkpt>
      <trkpt lat="43.86663" lon="5.10328">
        <ele>136.146</ele>
        <time>2019-04-28T14:47:06Z</time>
      </trkpt>
      <trkpt lat="43.86663" lon="5.10327">
        <ele>136.173</ele>
        <time>2019-04-28T14:47:17Z</time>
      </trkpt>
      <trkpt lat="43.86663" lon="5.10327">
        <ele>136.119</ele>
        <time>2019-04-28T14:47:27Z</time>
      </trkpt>
      <trkpt lat="43.86663" lon="5.10327">
        <ele>136.125</ele>
        <time>2019-04-28T14:47:38Z</time>
      </trkpt>
      <trkpt lat="43.86663" lon="5.10324">
        <ele>136.366</ele>
        <time>2019-04-28T14:47:49Z</time>
      </trkpt>
      <trkpt lat="43.86663" lon="5.10323">
        <ele>136.626</ele>
        <time>2019-04-28T14:48:00Z</time>
      </trkpt>
      <trkpt lat="43.86663" lon="5.10322">
        <ele>136.831</ele>
        <time>2019-04-28T14:48:11Z</time>
      </trkpt>
      <trkpt lat="43.86662" lon="5.10322">
        <ele>136.982</ele>
        <time>2019-04-28T14:48:21Z</time>
      </trkpt>
      <trkpt lat="43.86662" lon="5.10322">
        <ele>137.116</ele>
        <time>2019-04-28T14:48:32Z</time>
      </trkpt>
      <trkpt lat="43.86662" lon="5.10322">
        <ele>137.237</ele>
        <time>2019-04-28T14:48:43Z</time>
      </trkpt>
      <trkpt lat="43.86662" lon="5.10322">
        <ele>137.346</ele>
        <time>2019-04-28T14:48:54Z</time>
      </trkpt>
      <trkpt lat="43.86661" lon="5.10322">
        <ele>137.439</ele>
        <time>2019-04-28T14:49:05Z</time>
      </trkpt>
      <trkpt lat="43.86661" lon="5.10322">
        <ele>137.51</ele>
        <time>2019-04-28T14:49:15Z</time>
      </trkpt>
      <trkpt lat="43.86661" lon="5.10322">
        <ele>137.566</ele>
        <time>2019-04-28T14:49:26Z</time>
      </trkpt>
      <trkpt lat="43.86661" lon="5.10323">
        <ele>137.608</ele>
        <time>2019-04-28T14:49:36Z</time>
      </trkpt>
      <trkpt lat="43.8666" lon="5.10323">
        <ele>137.65</ele>
        <time>2019-04-28T14:49:46Z</time>
      </trkpt>
      <trkpt lat="43.8666" lon="5.10323">
        <ele>137.701</ele>
        <time>2019-04-28T14:49:57Z</time>
      </trkpt>
      <trkpt lat="43.8666" lon="5.10323">
        <ele>137.759</ele>
        <time>2019-04-28T14:50:07Z</time>
      </trkpt>
      <trkpt lat="43.86659" lon="5.10329">
        <ele>137.943</ele>
        <time>2019-04-28T14:50:18Z</time>
      </trkpt>
      <trkpt lat="43.86659" lon="5.1033">
        <ele>137.894</ele>
        <time>2019-04-28T14:50:28Z</time>
      </trkpt>
      <trkpt lat="43.86659" lon="5.10333">
        <ele>137.776</ele>
        <time>2019-04-28T14:50:38Z</time>
      </trkpt>
      <trkpt lat="43.8666" lon="5.10336">
        <ele>137.656</ele>
        <time>2019-04-28T14:50:49Z</time>
      </trkpt>
      <trkpt lat="43.8666" lon="5.10337">
        <ele>137.497</ele>
        <time>2019-04-28T14:51:00Z</time>
      </trkpt>
      <trkpt lat="43.8666" lon="5.10338">
        <ele>137.357</ele>
        <time>2019-04-28T14:51:11Z</time>
      </trkpt>
      <trkpt lat="43.8666" lon="5.10339">
        <ele>137.246</ele>
        <time>2019-04-28T14:51:22Z</time>
      </trkpt>
      <trkpt lat="43.86661" lon="5.10338">
        <ele>137.179</ele>
        <time>2019-04-28T14:51:32Z</time>
      </trkpt>
      <trkpt lat="43.86661" lon="5.10338">
        <ele>137.139</ele>
        <time>2019-04-28T14:51:42Z</time>
      </trkpt>
      <trkpt lat="43.86661" lon="5.10337">
        <ele>137.133</ele>
        <time>2019-04-28T14:51:53Z</time>
      </trkpt>
      <trkpt lat="43.86662" lon="5.10337">
        <ele>137.138</ele>
        <time>2019-04-28T14:52:03Z</time>
      </trkpt>
      <trkpt lat="43.86662" lon="5.10336">
        <ele>137.16</ele>
        <time>2019-04-28T14:52:13Z</time>
      </trkpt>
      <trkpt lat="43.86662" lon="5.10336">
        <ele>137.192</ele>
        <time>2019-04-28T14:52:24Z</time>
      </trkpt>
      <trkpt lat="43.86662" lon="5.10336">
        <ele>137.219</ele>
        <time>2019-04-28T14:52:35Z</time>
      </trkpt>
      <trkpt lat="43.86667" lon="5.10336">
        <ele>137.842</ele>
        <time>2019-04-28T14:52:46Z</time>
      </trkpt>
      <trkpt lat="43.86667" lon="5.10336">
        <ele>138.101</ele>
        <time>2019-04-28T14:52:57Z</time>
      </trkpt>
      <trkpt lat="43.86664" lon="5.10332">
        <ele>138.911</ele>
        <time>2019-04-28T14:53:08Z</time>
      </trkpt>
      <trkpt lat="43.86665" lon="5.10331">
        <ele>138.789</ele>
        <time>2019-04-28T14:53:18Z</time>
      </trkpt>
      <trkpt lat="43.86664" lon="5.10332">
        <ele>138.592</ele>
        <time>2019-04-28T14:53:29Z</time>
      </trkpt>
      <trkpt lat="43.86664" lon="5.10333">
        <ele>137.619</ele>
        <time>2019-04-28T14:53:40Z</time>
      </trkpt>
      <trkpt lat="43.86665" lon="5.10331">
        <ele>136.148</ele>
        <time>2019-04-28T14:53:50Z</time>
      </trkpt>
      <trkpt lat="43.86657" lon="5.10334">
        <ele>134.067</ele>
        <time>2019-04-28T14:54:01Z</time>
      </trkpt>
      <trkpt lat="43.86657" lon="5.10332">
        <ele>133.765</ele>
        <time>2019-04-28T14:54:12Z</time>
      </trkpt>
      <trkpt lat="43.86662" lon="5.10337">
        <ele>133.363</ele>
        <time>2019-04-28T14:54:23Z</time>
      </trkpt>
      <trkpt lat="43.86662" lon="5.10335">
        <ele>133.3</ele>
        <time>2019-04-28T14:54:34Z</time>
      </trkpt>
      <trkpt lat="43.86662" lon="5.10335">
        <ele>133.17</ele>
        <time>2019-04-28T14:54:45Z</time>
      </trkpt>
      <trkpt lat="43.86663" lon="5.10336">
        <ele>133.046</ele>
        <time>2019-04-28T14:54:56Z</time>
      </trkpt>
      <trkpt lat="43.86663" lon="5.10336">
        <ele>132.97</ele>
        <time>2019-04-28T14:55:06Z</time>
      </trkpt>
      <trkpt lat="43.86662" lon="5.10336">
        <ele>132.882</ele>
        <time>2019-04-28T14:55:17Z</time>
      </trkpt>
      <trkpt lat="43.86663" lon="5.10336">
        <ele>132.716</ele>
        <time>2019-04-28T14:55:28Z</time>
      </trkpt>
      <trkpt lat="43.86659" lon="5.10335">
        <ele>132.331</ele>
        <time>2019-04-28T14:55:38Z</time>
      </trkpt>
      <trkpt lat="43.86659" lon="5.10333">
        <ele>132.197</ele>
        <time>2019-04-28T14:55:48Z</time>
      </trkpt>
      <trkpt lat="43.86658" lon="5.10324">
        <ele>131.675</ele>
        <time>2019-04-28T14:55:59Z</time>
      </trkpt>
      <trkpt lat="43.8666" lon="5.10328">
        <ele>130.624</ele>
        <time>2019-04-28T14:56:10Z</time>
      </trkpt>
      <trkpt lat="43.86662" lon="5.10331">
        <ele>130.24</ele>
        <time>2019-04-28T14:56:20Z</time>
      </trkpt>
      <trkpt lat="43.86662" lon="5.10332">
        <ele>130.279</ele>
        <time>2019-04-28T14:56:31Z</time>
      </trkpt>
      <trkpt lat="43.86662" lon="5.10333">
        <ele>130.316</ele>
        <time>2019-04-28T14:56:42Z</time>
      </trkpt>
      <trkpt lat="43.86662" lon="5.10332">
        <ele>130.311</ele>
        <time>2019-04-28T14:56:53Z</time>
      </trkpt>
      <trkpt lat="43.86662" lon="5.10332">
        <ele>130.3</ele>
        <time>2019-04-28T14:57:03Z</time>
      </trkpt>
      <trkpt lat="43.86662" lon="5.10331">
        <ele>130.273</ele>
        <time>2019-04-28T14:57:14Z</time>
      </trkpt>
      <trkpt lat="43.86659" lon="5.10331">
        <ele>130.194</ele>
        <time>2019-04-28T14:57:24Z</time>
      </trkpt>
      <trkpt lat="43.86658" lon="5.1033">
        <ele>130.283</ele>
        <time>2019-04-28T14:57:34Z</time>
      </trkpt>
      <trkpt lat="43.86658" lon="5.10328">
        <ele>130.179</ele>
        <time>2019-04-28T14:57:45Z</time>
      </trkpt>
      <trkpt lat="43.8666" lon="5.10329">
        <ele>128.933</ele>
        <time>2019-04-28T14:57:56Z</time>
      </trkpt>
      <trkpt lat="43.86662" lon="5.10328">
        <ele>128.623</ele>
        <time>2019-04-28T14:58:07Z</time>
      </trkpt>
      <trkpt lat="43.86663" lon="5.10333">
        <ele>129.858</ele>
        <time>2019-04-28T14:58:18Z</time>
      </trkpt>
      <trkpt lat="43.86664" lon="5.10335">
        <ele>130.66</ele>
        <time>2019-04-28T14:58:28Z</time>
      </trkpt>
      <trkpt lat="43.86661" lon="5.10332">
        <ele>132.914</ele>
        <time>2019-04-28T14:58:39Z</time>
      </trkpt>
      <trkpt lat="43.8666" lon="5.10331">
        <ele>133.309</ele>
        <time>2019-04-28T14:58:49Z</time>
      </trkpt>
      <trkpt lat="43.86661" lon="5.1033">
        <ele>133.249</ele>
        <time>2019-04-28T14:59:00Z</time>
      </trkpt>
      <trkpt lat="43.86664" lon="5.10336">
        <ele>133.391</ele>
        <time>2019-04-28T14:59:10Z</time>
      </trkpt>
      <trkpt lat="43.86663" lon="5.10333">
        <ele>133.679</ele>
        <time>2019-04-28T14:59:21Z</time>
      </trkpt>
      <trkpt lat="43.86665" lon="5.10333">
        <ele>133.616</ele>
        <time>2019-04-28T14:59:32Z</time>
      </trkpt>
      <trkpt lat="43.86663" lon="5.10332">
        <ele>133.444</ele>
        <time>2019-04-28T14:59:42Z</time>
      </trkpt>
      <trkpt lat="43.86666" lon="5.10336">
        <ele>134.494</ele>
        <time>2019-04-28T14:59:53Z</time>
      </trkpt>
      <trkpt lat="43.86665" lon="5.10335">
        <ele>134.88</ele>
        <time>2019-04-28T15:00:04Z</time>
      </trkpt>
      <trkpt lat="43.86664" lon="5.10333">
        <ele>136.147</ele>
        <time>2019-04-28T15:00:14Z</time>
      </trkpt>
      <trkpt lat="43.86664" lon="5.10331">
        <ele>136.128</ele>
        <time>2019-04-28T15:00:24Z</time>
      </trkpt>
      <trkpt lat="43.86663" lon="5.10332">
        <ele>135.756</ele>
        <time>2019-04-28T15:00:35Z</time>
      </trkpt>
      <trkpt lat="43.86662" lon="5.10333">
        <ele>135.576</ele>
        <time>2019-04-28T15:00:46Z</time>
      </trkpt>
      <trkpt lat="43.86661" lon="5.10333">
        <ele>135.397</ele>
        <time>2019-04-28T15:00:57Z</time>
      </trkpt>
      <trkpt lat="43.86657" lon="5.10332">
        <ele>134.743</ele>
        <time>2019-04-28T15:01:07Z</time>
      </trkpt>
      <trkpt lat="43.86657" lon="5.10331">
        <ele>133.352</ele>
        <time>2019-04-28T15:01:18Z</time>
      </trkpt>
      <trkpt lat="43.86656" lon="5.10334">
        <ele>133.221</ele>
        <time>2019-04-28T15:01:29Z</time>
      </trkpt>
      <trkpt lat="43.86661" lon="5.10334">
        <ele>133.985</ele>
        <time>2019-04-28T15:01:40Z</time>
      </trkpt>
      <trkpt lat="43.86661" lon="5.10333">
        <ele>134.125</ele>
        <time>2019-04-28T15:01:50Z</time>
      </trkpt>
      <trkpt lat="43.86662" lon="5.10332">
        <ele>134.29</ele>
        <time>2019-04-28T15:02:00Z</time>
      </trkpt>
      <trkpt lat="43.86663" lon="5.10332">
        <ele>134.396</ele>
        <time>2019-04-28T15:02:11Z</time>
      </trkpt>
      <trkpt lat="43.86663" lon="5.10335">
        <ele>134.594</ele>
        <time>2019-04-28T15:02:21Z</time>
      </trkpt>
      <trkpt lat="43.86662" lon="5.10338">
        <ele>134.919</ele>
        <time>2019-04-28T15:02:31Z</time>
      </trkpt>
      <trkpt lat="43.86663" lon="5.1033">
        <ele>134.873</ele>
        <time>2019-04-28T15:02:42Z</time>
      </trkpt>
      <trkpt lat="43.86663" lon="5.10329">
        <ele>134.708</ele>
        <time>2019-04-28T15:02:53Z</time>
      </trkpt>
      <trkpt lat="43.8666" lon="5.10327">
        <ele>134.333</ele>
        <time>2019-04-28T15:03:04Z</time>
      </trkpt>
      <trkpt lat="43.8666" lon="5.10326">
        <ele>134.238</ele>
        <time>2019-04-28T15:03:14Z</time>
      </trkpt>
      <trkpt lat="43.86661" lon="5.10327">
        <ele>133.608</ele>
        <time>2019-04-28T15:03:25Z</time>
      </trkpt>
    </trkseg>
  </trk>
  <trk>
    <name><![CDATA[20190502221855-rGymn]]></name>
    <trkseg>
      <trkpt lat="43.86636" lon="5.10274">
        <ele>134.046</ele>
        <time>2019-04-29T07:28:03Z</time>
      </trkpt>
      <trkpt lat="43.86637" lon="5.10279">
        <ele>133.268</ele>
        <time>2019-04-29T07:28:13Z</time>
      </trkpt>
      <trkpt lat="43.86639" lon="5.10279">
        <ele>132.796</ele>
        <time>2019-04-29T07:28:24Z</time>
      </trkpt>
      <trkpt lat="43.86635" lon="5.10277">
        <ele>132.963</ele>
        <time>2019-04-29T07:28:34Z</time>
      </trkpt>
      <trkpt lat="43.86634" lon="5.10277">
        <ele>132.942</ele>
        <time>2019-04-29T07:28:45Z</time>
      </trkpt>
      <trkpt lat="43.86633" lon="5.10276">
        <ele>132.879</ele>
        <time>2019-04-29T07:28:55Z</time>
      </trkpt>
      <trkpt lat="43.86633" lon="5.10275">
        <ele>132.817</ele>
        <time>2019-04-29T07:29:06Z</time>
      </trkpt>
      <trkpt lat="43.86634" lon="5.10274">
        <ele>132.843</ele>
        <time>2019-04-29T07:29:16Z</time>
      </trkpt>
      <trkpt lat="43.86634" lon="5.10274">
        <ele>133.015</ele>
        <time>2019-04-29T07:29:26Z</time>
      </trkpt>
      <trkpt lat="43.86634" lon="5.10274">
        <ele>133.231</ele>
        <time>2019-04-29T07:29:37Z</time>
      </trkpt>
      <trkpt lat="43.86634" lon="5.10274">
        <ele>133.394</ele>
        <time>2019-04-29T07:29:47Z</time>
      </trkpt>
      <trkpt lat="43.86634" lon="5.10275">
        <ele>133.566</ele>
        <time>2019-04-29T07:29:57Z</time>
      </trkpt>
      <trkpt lat="43.86635" lon="5.10276">
        <ele>133.822</ele>
        <time>2019-04-29T07:30:07Z</time>
      </trkpt>
      <trkpt lat="43.86636" lon="5.10279">
        <ele>134.086</ele>
        <time>2019-04-29T07:30:17Z</time>
      </trkpt>
      <trkpt lat="43.86634" lon="5.10288">
        <ele>134.474</ele>
        <time>2019-04-29T07:30:28Z</time>
      </trkpt>
      <trkpt lat="43.86616" lon="5.10269">
        <ele>135.109</ele>
        <time>2019-04-29T07:30:39Z</time>
      </trkpt>
      <trkpt lat="43.86608" lon="5.10242">
        <ele>135.609</ele>
        <time>2019-04-29T07:30:49Z</time>
      </trkpt>
      <trkpt lat="43.86612" lon="5.10223">
        <ele>135.762</ele>
        <time>2019-04-29T07:31:00Z</time>
      </trkpt>
      <trkpt lat="43.86612" lon="5.10223">
        <ele>135.699</ele>
        <time>2019-04-29T07:31:10Z</time>
      </trkpt>
      <trkpt lat="43.86612" lon="5.10222">
        <ele>135.636</ele>
        <time>2019-04-29T07:31:21Z</time>
      </trkpt>
      <trkpt lat="43.86604" lon="5.10223">
        <ele>135.567</ele>
        <time>2019-04-29T07:31:31Z</time>
      </trkpt>
      <trkpt lat="43.86591" lon="5.10209">
        <ele>136.171</ele>
        <time>2019-04-29T07:31:42Z</time>
      </trkpt>
      <trkpt lat="43.8656" lon="5.10216">
        <ele>136.931</ele>
        <time>2019-04-29T07:31:52Z</time>
      </trkpt>
      <trkpt lat="43.86513" lon="5.10224">
        <ele>140.621</ele>
        <time>2019-04-29T07:32:03Z</time>
      </trkpt>
      <trkpt lat="43.86475" lon="5.10242">
        <ele>141.145</ele>
        <time>2019-04-29T07:32:13Z</time>
      </trkpt>
      <trkpt lat="43.86433" lon="5.10263">
        <ele>140.824</ele>
        <time>2019-04-29T07:32:24Z</time>
      </trkpt>
      <trkpt lat="43.86385" lon="5.1028">
        <ele>141.944</ele>
        <time>2019-04-29T07:32:35Z</time>
      </trkpt>
      <trkpt lat="43.86337" lon="5.10296">
        <ele>141.928</ele>
        <time>2019-04-29T07:32:45Z</time>
      </trkpt>
      <trkpt lat="43.86291" lon="5.10312">
        <ele>143.654</ele>
        <time>2019-04-29T07:32:55Z</time>
      </trkpt>
      <trkpt lat="43.86245" lon="5.1033">
        <ele>144.521</ele>
        <time>2019-04-29T07:33:06Z</time>
      </trkpt>
      <trkpt lat="43.86227" lon="5.10289">
        <ele>143.365</ele>
        <time>2019-04-29T07:33:17Z</time>
      </trkpt>
      <trkpt lat="43.86211" lon="5.10229">
        <ele>142.121</ele>
        <time>2019-04-29T07:33:28Z</time>
      </trkpt>
      <trkpt lat="43.86192" lon="5.10169">
        <ele>139.815</ele>
        <time>2019-04-29T07:33:39Z</time>
      </trkpt>
      <trkpt lat="43.86176" lon="5.10115">
        <ele>140.729</ele>
        <time>2019-04-29T07:33:50Z</time>
      </trkpt>
      <trkpt lat="43.86155" lon="5.10055">
        <ele>140.059</ele>
        <time>2019-04-29T07:34:01Z</time>
      </trkpt>
      <trkpt lat="43.86136" lon="5.10002">
        <ele>140.314</ele>
        <time>2019-04-29T07:34:11Z</time>
      </trkpt>
      <trkpt lat="43.86111" lon="5.09936">
        <ele>140.777</ele>
        <time>2019-04-29T07:34:22Z</time>
      </trkpt>
      <trkpt lat="43.86089" lon="5.09878">
        <ele>140.584</ele>
        <time>2019-04-29T07:34:32Z</time>
      </trkpt>
      <trkpt lat="43.86072" lon="5.09824">
        <ele>140.07</ele>
        <time>2019-04-29T07:34:42Z</time>
      </trkpt>
      <trkpt lat="43.86045" lon="5.09777">
        <ele>140.558</ele>
        <time>2019-04-29T07:34:52Z</time>
      </trkpt>
      <trkpt lat="43.86022" lon="5.09805">
        <ele>139.847</ele>
        <time>2019-04-29T07:35:03Z</time>
      </trkpt>
      <trkpt lat="43.86006" lon="5.09828">
        <ele>138.878</ele>
        <time>2019-04-29T07:35:13Z</time>
      </trkpt>
      <trkpt lat="43.85974" lon="5.09811">
        <ele>138.19</ele>
        <time>2019-04-29T07:35:23Z</time>
      </trkpt>
      <trkpt lat="43.85934" lon="5.09792">
        <ele>139.375</ele>
        <time>2019-04-29T07:35:34Z</time>
      </trkpt>
      <trkpt lat="43.85892" lon="5.09775">
        <ele>140.485</ele>
        <time>2019-04-29T07:35:44Z</time>
      </trkpt>
      <trkpt lat="43.85862" lon="5.09764">
        <ele>140.294</ele>
        <time>2019-04-29T07:35:54Z</time>
      </trkpt>
      <trkpt lat="43.85852" lon="5.09763">
        <ele>140.277</ele>
        <time>2019-04-29T07:36:05Z</time>
      </trkpt>
      <trkpt lat="43.85852" lon="5.09763">
        <ele>140.28</ele>
        <time>2019-04-29T07:36:15Z</time>
      </trkpt>
      <trkpt lat="43.85856" lon="5.09768">
        <ele>140.296</ele>
        <time>2019-04-29T07:36:26Z</time>
      </trkpt>
      <trkpt lat="43.85856" lon="5.09767">
        <ele>140.277</ele>
        <time>2019-04-29T07:36:36Z</time>
      </trkpt>
      <trkpt lat="43.85855" lon="5.09766">
        <ele>140.298</ele>
        <time>2019-04-29T07:36:47Z</time>
      </trkpt>
      <trkpt lat="43.85855" lon="5.09768">
        <ele>140.201</ele>
        <time>2019-04-29T07:36:57Z</time>
      </trkpt>
      <trkpt lat="43.85844" lon="5.09756">
        <ele>139.033</ele>
        <time>2019-04-29T07:37:08Z</time>
      </trkpt>
      <trkpt lat="43.85829" lon="5.09751">
        <ele>138.975</ele>
        <time>2019-04-29T07:37:18Z</time>
      </trkpt>
      <trkpt lat="43.85825" lon="5.09746">
        <ele>139.301</ele>
        <time>2019-04-29T07:37:28Z</time>
      </trkpt>
      <trkpt lat="43.85826" lon="5.09753">
        <ele>139.383</ele>
        <time>2019-04-29T07:37:39Z</time>
      </trkpt>
      <trkpt lat="43.85825" lon="5.09751">
        <ele>139.365</ele>
        <time>2019-04-29T07:37:50Z</time>
      </trkpt>
      <trkpt lat="43.85806" lon="5.09739">
        <ele>139.177</ele>
        <time>2019-04-29T07:38:00Z</time>
      </trkpt>
      <trkpt lat="43.85766" lon="5.09728">
        <ele>140.827</ele>
        <time>2019-04-29T07:38:11Z</time>
      </trkpt>
      <trkpt lat="43.85736" lon="5.09739">
        <ele>141.199</ele>
        <time>2019-04-29T07:38:22Z</time>
      </trkpt>
      <trkpt lat="43.85733" lon="5.09773">
        <ele>141.487</ele>
        <time>2019-04-29T07:38:33Z</time>
      </trkpt>
      <trkpt lat="43.85734" lon="5.09783">
        <ele>141.526</ele>
        <time>2019-04-29T07:38:43Z</time>
      </trkpt>
      <trkpt lat="43.85735" lon="5.09842">
        <ele>139.79</ele>
        <time>2019-04-29T07:38:53Z</time>
      </trkpt>
      <trkpt lat="43.85706" lon="5.09917">
        <ele>138.719</ele>
        <time>2019-04-29T07:39:04Z</time>
      </trkpt>
      <trkpt lat="43.85674" lon="5.09945">
        <ele>138.997</ele>
        <time>2019-04-29T07:39:15Z</time>
      </trkpt>
      <trkpt lat="43.85673" lon="5.09946">
        <ele>139.018</ele>
        <time>2019-04-29T07:39:25Z</time>
      </trkpt>
      <trkpt lat="43.85642" lon="5.09974">
        <ele>139.597</ele>
        <time>2019-04-29T07:39:36Z</time>
      </trkpt>
      <trkpt lat="43.85603" lon="5.10011">
        <ele>139.783</ele>
        <time>2019-04-29T07:39:46Z</time>
      </trkpt>
      <trkpt lat="43.85556" lon="5.10049">
        <ele>139.789</ele>
        <time>2019-04-29T07:39:57Z</time>
      </trkpt>
      <trkpt lat="43.85515" lon="5.10083">
        <ele>141.242</ele>
        <time>2019-04-29T07:40:08Z</time>
      </trkpt>
      <trkpt lat="43.85481" lon="5.10114">
        <ele>140.666</ele>
        <time>2019-04-29T07:40:19Z</time>
      </trkpt>
      <trkpt lat="43.85449" lon="5.1014">
        <ele>140.808</ele>
        <time>2019-04-29T07:40:30Z</time>
      </trkpt>
      <trkpt lat="43.85424" lon="5.10162">
        <ele>141.528</ele>
        <time>2019-04-29T07:40:40Z</time>
      </trkpt>
      <trkpt lat="43.85397" lon="5.10185">
        <ele>142.333</ele>
        <time>2019-04-29T07:40:51Z</time>
      </trkpt>
      <trkpt lat="43.8537" lon="5.10207">
        <ele>142.829</ele>
        <time>2019-04-29T07:41:01Z</time>
      </trkpt>
      <trkpt lat="43.85343" lon="5.10228">
        <ele>143.198</ele>
        <time>2019-04-29T07:41:11Z</time>
      </trkpt>
      <trkpt lat="43.85318" lon="5.1025">
        <ele>144.077</ele>
        <time>2019-04-29T07:41:22Z</time>
      </trkpt>
      <trkpt lat="43.85288" lon="5.10276">
        <ele>144.519</ele>
        <time>2019-04-29T07:41:33Z</time>
      </trkpt>
      <trkpt lat="43.85253" lon="5.10309">
        <ele>146.672</ele>
        <time>2019-04-29T07:41:44Z</time>
      </trkpt>
      <trkpt lat="43.85222" lon="5.10331">
        <ele>148.208</ele>
        <time>2019-04-29T07:41:54Z</time>
      </trkpt>
      <trkpt lat="43.85192" lon="5.10354">
        <ele>148.852</ele>
        <time>2019-04-29T07:42:05Z</time>
      </trkpt>
      <trkpt lat="43.85169" lon="5.10376">
        <ele>149.155</ele>
        <time>2019-04-29T07:42:15Z</time>
      </trkpt>
      <trkpt lat="43.85144" lon="5.10397">
        <ele>149.766</ele>
        <time>2019-04-29T07:42:26Z</time>
      </trkpt>
      <trkpt lat="43.85176" lon="5.10375">
        <ele>150.163</ele>
        <time>2019-04-29T07:42:37Z</time>
      </trkpt>
      <trkpt lat="43.85223" lon="5.10333">
        <ele>151.907</ele>
        <time>2019-04-29T07:42:48Z</time>
      </trkpt>
      <trkpt lat="43.85277" lon="5.1029">
        <ele>149.963</ele>
        <time>2019-04-29T07:42:58Z</time>
      </trkpt>
      <trkpt lat="43.85315" lon="5.1026">
        <ele>150.26</ele>
        <time>2019-04-29T07:43:08Z</time>
      </trkpt>
      <trkpt lat="43.85355" lon="5.10222">
        <ele>145.472</ele>
        <time>2019-04-29T07:43:18Z</time>
      </trkpt>
      <trkpt lat="43.85345" lon="5.10168">
        <ele>145.448</ele>
        <time>2019-04-29T07:43:28Z</time>
      </trkpt>
      <trkpt lat="43.85316" lon="5.101">
        <ele>144.29</ele>
        <time>2019-04-29T07:43:39Z</time>
      </trkpt>
      <trkpt lat="43.85283" lon="5.1004">
        <ele>144.259</ele>
        <time>2019-04-29T07:43:49Z</time>
      </trkpt>
      <trkpt lat="43.85242" lon="5.09983">
        <ele>144.038</ele>
        <time>2019-04-29T07:44:00Z</time>
      </trkpt>
      <trkpt lat="43.85192" lon="5.09915">
        <ele>143.707</ele>
        <time>2019-04-29T07:44:11Z</time>
      </trkpt>
      <trkpt lat="43.85141" lon="5.09845">
        <ele>143.08</ele>
        <time>2019-04-29T07:44:22Z</time>
      </trkpt>
      <trkpt lat="43.8509" lon="5.09777">
        <ele>143.578</ele>
        <time>2019-04-29T07:44:33Z</time>
      </trkpt>
      <trkpt lat="43.85038" lon="5.09729">
        <ele>143.529</ele>
        <time>2019-04-29T07:44:44Z</time>
      </trkpt>
      <trkpt lat="43.85009" lon="5.09692">
        <ele>141.226</ele>
        <time>2019-04-29T07:44:54Z</time>
      </trkpt>
      <trkpt lat="43.84984" lon="5.09632">
        <ele>140.961</ele>
        <time>2019-04-29T07:45:05Z</time>
      </trkpt>
      <trkpt lat="43.84966" lon="5.09574">
        <ele>141.297</ele>
        <time>2019-04-29T07:45:15Z</time>
      </trkpt>
      <trkpt lat="43.84951" lon="5.09508">
        <ele>141.827</ele>
        <time>2019-04-29T07:45:26Z</time>
      </trkpt>
      <trkpt lat="43.84939" lon="5.09443">
        <ele>140.921</ele>
        <time>2019-04-29T07:45:37Z</time>
      </trkpt>
      <trkpt lat="43.84937" lon="5.09379">
        <ele>141.72</ele>
        <time>2019-04-29T07:45:48Z</time>
      </trkpt>
      <trkpt lat="43.84929" lon="5.09321">
        <ele>143.704</ele>
        <time>2019-04-29T07:45:58Z</time>
      </trkpt>
      <trkpt lat="43.84933" lon="5.09253">
        <ele>143.291</ele>
        <time>2019-04-29T07:46:09Z</time>
      </trkpt>
      <trkpt lat="43.8494" lon="5.09185">
        <ele>141.838</ele>
        <time>2019-04-29T07:46:19Z</time>
      </trkpt>
      <trkpt lat="43.8491" lon="5.09118">
        <ele>140.654</ele>
        <time>2019-04-29T07:46:30Z</time>
      </trkpt>
      <trkpt lat="43.84874" lon="5.09093">
        <ele>140.461</ele>
        <time>2019-04-29T07:46:40Z</time>
      </trkpt>
      <trkpt lat="43.84833" lon="5.09061">
        <ele>140.031</ele>
        <time>2019-04-29T07:46:50Z</time>
      </trkpt>
      <trkpt lat="43.84794" lon="5.09006">
        <ele>138.624</ele>
        <time>2019-04-29T07:47:01Z</time>
      </trkpt>
      <trkpt lat="43.84776" lon="5.08948">
        <ele>139.761</ele>
        <time>2019-04-29T07:47:12Z</time>
      </trkpt>
      <trkpt lat="43.84778" lon="5.08935">
        <ele>140.226</ele>
        <time>2019-04-29T07:47:23Z</time>
      </trkpt>
      <trkpt lat="43.8477" lon="5.08922">
        <ele>140.228</ele>
        <time>2019-04-29T07:47:34Z</time>
      </trkpt>
      <trkpt lat="43.8474" lon="5.08866">
        <ele>139.775</ele>
        <time>2019-04-29T07:47:45Z</time>
      </trkpt>
      <trkpt lat="43.84708" lon="5.08804">
        <ele>139.158</ele>
        <time>2019-04-29T07:47:56Z</time>
      </trkpt>
      <trkpt lat="43.84675" lon="5.08743">
        <ele>138.311</ele>
        <time>2019-04-29T07:48:06Z</time>
      </trkpt>
      <trkpt lat="43.84634" lon="5.08688">
        <ele>137.757</ele>
        <time>2019-04-29T07:48:17Z</time>
      </trkpt>
      <trkpt lat="43.84586" lon="5.08676">
        <ele>136.633</ele>
        <time>2019-04-29T07:48:28Z</time>
      </trkpt>
      <trkpt lat="43.84547" lon="5.08672">
        <ele>137.398</ele>
        <time>2019-04-29T07:48:38Z</time>
      </trkpt>
      <trkpt lat="43.84526" lon="5.08644">
        <ele>137.721</ele>
        <time>2019-04-29T07:48:48Z</time>
      </trkpt>
      <trkpt lat="43.84489" lon="5.08652">
        <ele>138.545</ele>
        <time>2019-04-29T07:48:59Z</time>
      </trkpt>
      <trkpt lat="43.84449" lon="5.0863">
        <ele>139.809</ele>
        <time>2019-04-29T07:49:09Z</time>
      </trkpt>
      <trkpt lat="43.8441" lon="5.08608">
        <ele>139.944</ele>
        <time>2019-04-29T07:49:20Z</time>
      </trkpt>
      <trkpt lat="43.84399" lon="5.086">
        <ele>139.987</ele>
        <time>2019-04-29T07:49:30Z</time>
      </trkpt>
      <trkpt lat="43.84399" lon="5.086">
        <ele>139.954</ele>
        <time>2019-04-29T07:49:41Z</time>
      </trkpt>
      <trkpt lat="43.84395" lon="5.08598">
        <ele>139.933</ele>
        <time>2019-04-29T07:49:51Z</time>
      </trkpt>
      <trkpt lat="43.84395" lon="5.08598">
        <ele>139.914</ele>
        <time>2019-04-29T07:50:02Z</time>
      </trkpt>
      <trkpt lat="43.8439" lon="5.08598">
        <ele>139.802</ele>
        <time>2019-04-29T07:50:12Z</time>
      </trkpt>
      <trkpt lat="43.84362" lon="5.0858">
        <ele>139.353</ele>
        <time>2019-04-29T07:50:22Z</time>
      </trkpt>
      <trkpt lat="43.84318" lon="5.08559">
        <ele>139.561</ele>
        <time>2019-04-29T07:50:33Z</time>
      </trkpt>
      <trkpt lat="43.84281" lon="5.08541">
        <ele>139.37</ele>
        <time>2019-04-29T07:50:43Z</time>
      </trkpt>
      <trkpt lat="43.84233" lon="5.08519">
        <ele>139.804</ele>
        <time>2019-04-29T07:50:54Z</time>
      </trkpt>
      <trkpt lat="43.84191" lon="5.08497">
        <ele>140.691</ele>
        <time>2019-04-29T07:51:04Z</time>
      </trkpt>
      <trkpt lat="43.84141" lon="5.08469">
        <ele>142.115</ele>
        <time>2019-04-29T07:51:15Z</time>
      </trkpt>
      <trkpt lat="43.84095" lon="5.08443">
        <ele>142.892</ele>
        <time>2019-04-29T07:51:25Z</time>
      </trkpt>
      <trkpt lat="43.84043" lon="5.08426">
        <ele>143.088</ele>
        <time>2019-04-29T07:51:36Z</time>
      </trkpt>
      <trkpt lat="43.83994" lon="5.08407">
        <ele>142.435</ele>
        <time>2019-04-29T07:51:47Z</time>
      </trkpt>
      <trkpt lat="43.83945" lon="5.0839">
        <ele>142.381</ele>
        <time>2019-04-29T07:51:58Z</time>
      </trkpt>
      <trkpt lat="43.83899" lon="5.08373">
        <ele>142.538</ele>
        <time>2019-04-29T07:52:08Z</time>
      </trkpt>
      <trkpt lat="43.83851" lon="5.08355">
        <ele>143.083</ele>
        <time>2019-04-29T07:52:19Z</time>
      </trkpt>
      <trkpt lat="43.83801" lon="5.08336">
        <ele>143.608</ele>
        <time>2019-04-29T07:52:30Z</time>
      </trkpt>
      <trkpt lat="43.83749" lon="5.08321">
        <ele>144.122</ele>
        <time>2019-04-29T07:52:41Z</time>
      </trkpt>
      <trkpt lat="43.83696" lon="5.08318">
        <ele>143.813</ele>
        <time>2019-04-29T07:52:52Z</time>
      </trkpt>
      <trkpt lat="43.83657" lon="5.08309">
        <ele>143.531</ele>
        <time>2019-04-29T07:53:03Z</time>
      </trkpt>
      <trkpt lat="43.83641" lon="5.08288">
        <ele>143.694</ele>
        <time>2019-04-29T07:53:14Z</time>
      </trkpt>
      <trkpt lat="43.83634" lon="5.08226">
        <ele>142.381</ele>
        <time>2019-04-29T07:53:24Z</time>
      </trkpt>
      <trkpt lat="43.83626" lon="5.08159">
        <ele>138.427</ele>
        <time>2019-04-29T07:53:35Z</time>
      </trkpt>
      <trkpt lat="43.83612" lon="5.0808">
        <ele>134.336</ele>
        <time>2019-04-29T07:53:45Z</time>
      </trkpt>
      <trkpt lat="43.83593" lon="5.07996">
        <ele>133.128</ele>
        <time>2019-04-29T07:53:56Z</time>
      </trkpt>
      <trkpt lat="43.83576" lon="5.07922">
        <ele>133.905</ele>
        <time>2019-04-29T07:54:06Z</time>
      </trkpt>
      <trkpt lat="43.83555" lon="5.07844">
        <ele>132.862</ele>
        <time>2019-04-29T07:54:17Z</time>
      </trkpt>
      <trkpt lat="43.8354" lon="5.07754">
        <ele>131.715</ele>
        <time>2019-04-29T07:54:28Z</time>
      </trkpt>
      <trkpt lat="43.83532" lon="5.07675">
        <ele>130.194</ele>
        <time>2019-04-29T07:54:39Z</time>
      </trkpt>
      <trkpt lat="43.83521" lon="5.07603">
        <ele>130.415</ele>
        <time>2019-04-29T07:54:50Z</time>
      </trkpt>
      <trkpt lat="43.83508" lon="5.07526">
        <ele>129.797</ele>
        <time>2019-04-29T07:55:01Z</time>
      </trkpt>
      <trkpt lat="43.83495" lon="5.07445">
        <ele>129.456</ele>
        <time>2019-04-29T07:55:12Z</time>
      </trkpt>
      <trkpt lat="43.83485" lon="5.07376">
        <ele>129.153</ele>
        <time>2019-04-29T07:55:22Z</time>
      </trkpt>
      <trkpt lat="43.83476" lon="5.07331">
        <ele>129.294</ele>
        <time>2019-04-29T07:55:32Z</time>
      </trkpt>
      <trkpt lat="43.83466" lon="5.07284">
        <ele>129.446</ele>
        <time>2019-04-29T07:55:43Z</time>
      </trkpt>
      <trkpt lat="43.83459" lon="5.07228">
        <ele>129.523</ele>
        <time>2019-04-29T07:55:54Z</time>
      </trkpt>
      <trkpt lat="43.83456" lon="5.0717">
        <ele>129.764</ele>
        <time>2019-04-29T07:56:04Z</time>
      </trkpt>
      <trkpt lat="43.83453" lon="5.07108">
        <ele>130.242</ele>
        <time>2019-04-29T07:56:15Z</time>
      </trkpt>
      <trkpt lat="43.83449" lon="5.07041">
        <ele>129.333</ele>
        <time>2019-04-29T07:56:26Z</time>
      </trkpt>
      <trkpt lat="43.83446" lon="5.06979">
        <ele>127.539</ele>
        <time>2019-04-29T07:56:36Z</time>
      </trkpt>
      <trkpt lat="43.8344" lon="5.06913">
        <ele>126.932</ele>
        <time>2019-04-29T07:56:47Z</time>
      </trkpt>
      <trkpt lat="43.83435" lon="5.06844">
        <ele>127.086</ele>
        <time>2019-04-29T07:56:58Z</time>
      </trkpt>
      <trkpt lat="43.83428" lon="5.06782">
        <ele>127.075</ele>
        <time>2019-04-29T07:57:08Z</time>
      </trkpt>
      <trkpt lat="43.83423" lon="5.06724">
        <ele>126.54</ele>
        <time>2019-04-29T07:57:18Z</time>
      </trkpt>
      <trkpt lat="43.83415" lon="5.06652">
        <ele>125.362</ele>
        <time>2019-04-29T07:57:29Z</time>
      </trkpt>
      <trkpt lat="43.83406" lon="5.06592">
        <ele>124.983</ele>
        <time>2019-04-29T07:57:39Z</time>
      </trkpt>
      <trkpt lat="43.83397" lon="5.0653">
        <ele>125.426</ele>
        <time>2019-04-29T07:57:50Z</time>
      </trkpt>
      <trkpt lat="43.83394" lon="5.06475">
        <ele>125.089</ele>
        <time>2019-04-29T07:58:00Z</time>
      </trkpt>
      <trkpt lat="43.83388" lon="5.06411">
        <ele>124.091</ele>
        <time>2019-04-29T07:58:11Z</time>
      </trkpt>
      <trkpt lat="43.83384" lon="5.06352">
        <ele>123.711</ele>
        <time>2019-04-29T07:58:21Z</time>
      </trkpt>
      <trkpt lat="43.83376" lon="5.06328">
        <ele>125.435</ele>
        <time>2019-04-29T07:58:31Z</time>
      </trkpt>
      <trkpt lat="43.8336" lon="5.06271">
        <ele>124.156</ele>
        <time>2019-04-29T07:58:41Z</time>
      </trkpt>
      <trkpt lat="43.83357" lon="5.06261">
        <ele>124.139</ele>
        <time>2019-04-29T07:58:51Z</time>
      </trkpt>
      <trkpt lat="43.83357" lon="5.06261">
        <ele>124.19</ele>
        <time>2019-04-29T07:59:01Z</time>
      </trkpt>
      <trkpt lat="43.83357" lon="5.06261">
        <ele>124.235</ele>
        <time>2019-04-29T07:59:12Z</time>
      </trkpt>
      <trkpt lat="43.83357" lon="5.06261">
        <ele>124.271</ele>
        <time>2019-04-29T07:59:23Z</time>
      </trkpt>
      <trkpt lat="43.83357" lon="5.06261">
        <ele>124.294</ele>
        <time>2019-04-29T07:59:34Z</time>
      </trkpt>
      <trkpt lat="43.83357" lon="5.06261">
        <ele>124.307</ele>
        <time>2019-04-29T07:59:45Z</time>
      </trkpt>
      <trkpt lat="43.8335" lon="5.06254">
        <ele>124.29</ele>
        <time>2019-04-29T07:59:55Z</time>
      </trkpt>
      <trkpt lat="43.83332" lon="5.0621">
        <ele>124.019</ele>
        <time>2019-04-29T08:00:06Z</time>
      </trkpt>
      <trkpt lat="43.83311" lon="5.06166">
        <ele>123.478</ele>
        <time>2019-04-29T08:00:16Z</time>
      </trkpt>
      <trkpt lat="43.83285" lon="5.06132">
        <ele>123.436</ele>
        <time>2019-04-29T08:00:27Z</time>
      </trkpt>
      <trkpt lat="43.83274" lon="5.06133">
        <ele>124.069</ele>
        <time>2019-04-29T08:00:38Z</time>
      </trkpt>
      <trkpt lat="43.8331" lon="5.06181">
        <ele>123.487</ele>
        <time>2019-04-29T08:00:49Z</time>
      </trkpt>
      <trkpt lat="43.83342" lon="5.0624">
        <ele>124.527</ele>
        <time>2019-04-29T08:01:00Z</time>
      </trkpt>
      <trkpt lat="43.83368" lon="5.06298">
        <ele>124.791</ele>
        <time>2019-04-29T08:01:11Z</time>
      </trkpt>
      <trkpt lat="43.83392" lon="5.06339">
        <ele>125.189</ele>
        <time>2019-04-29T08:01:21Z</time>
      </trkpt>
      <trkpt lat="43.83417" lon="5.06379">
        <ele>125.737</ele>
        <time>2019-04-29T08:01:31Z</time>
      </trkpt>
      <trkpt lat="43.83443" lon="5.06417">
        <ele>125.832</ele>
        <time>2019-04-29T08:01:42Z</time>
      </trkpt>
      <trkpt lat="43.83466" lon="5.06448">
        <ele>125.861</ele>
        <time>2019-04-29T08:01:53Z</time>
      </trkpt>
      <trkpt lat="43.83493" lon="5.06481">
        <ele>125.936</ele>
        <time>2019-04-29T08:02:04Z</time>
      </trkpt>
      <trkpt lat="43.83501" lon="5.06495">
        <ele>126.088</ele>
        <time>2019-04-29T08:02:14Z</time>
      </trkpt>
      <trkpt lat="43.83502" lon="5.06495">
        <ele>126.142</ele>
        <time>2019-04-29T08:02:25Z</time>
      </trkpt>
      <trkpt lat="43.83502" lon="5.06494">
        <ele>126.212</ele>
        <time>2019-04-29T08:02:35Z</time>
      </trkpt>
      <trkpt lat="43.83501" lon="5.06494">
        <ele>126.284</ele>
        <time>2019-04-29T08:02:46Z</time>
      </trkpt>
      <trkpt lat="43.83501" lon="5.06494">
        <ele>126.321</ele>
        <time>2019-04-29T08:02:56Z</time>
      </trkpt>
      <trkpt lat="43.83503" lon="5.06496">
        <ele>126.951</ele>
        <time>2019-04-29T08:03:07Z</time>
      </trkpt>
      <trkpt lat="43.83508" lon="5.06482">
        <ele>127.095</ele>
        <time>2019-04-29T08:03:17Z</time>
      </trkpt>
      <trkpt lat="43.83512" lon="5.06471">
        <ele>126.84</ele>
        <time>2019-04-29T08:03:28Z</time>
      </trkpt>
      <trkpt lat="43.83506" lon="5.06462">
        <ele>126.675</ele>
        <time>2019-04-29T08:03:39Z</time>
      </trkpt>
      <trkpt lat="43.83484" lon="5.06433">
        <ele>126.301</ele>
        <time>2019-04-29T08:03:49Z</time>
      </trkpt>
      <trkpt lat="43.8345" lon="5.06385">
        <ele>127.025</ele>
        <time>2019-04-29T08:04:00Z</time>
      </trkpt>
      <trkpt lat="43.83416" lon="5.06334">
        <ele>127.059</ele>
        <time>2019-04-29T08:04:11Z</time>
      </trkpt>
      <trkpt lat="43.83385" lon="5.0628">
        <ele>125.635</ele>
        <time>2019-04-29T08:04:22Z</time>
      </trkpt>
      <trkpt lat="43.83369" lon="5.06229">
        <ele>123.497</ele>
        <time>2019-04-29T08:04:32Z</time>
      </trkpt>
      <trkpt lat="43.83359" lon="5.06172">
        <ele>124.661</ele>
        <time>2019-04-29T08:04:42Z</time>
      </trkpt>
      <trkpt lat="43.83346" lon="5.06119">
        <ele>125.429</ele>
        <time>2019-04-29T08:04:53Z</time>
      </trkpt>
      <trkpt lat="43.83335" lon="5.06067">
        <ele>125.894</ele>
        <time>2019-04-29T08:05:04Z</time>
      </trkpt>
      <trkpt lat="43.83328" lon="5.06006">
        <ele>125.251</ele>
        <time>2019-04-29T08:05:15Z</time>
      </trkpt>
      <trkpt lat="43.83332" lon="5.05939">
        <ele>125.141</ele>
        <time>2019-04-29T08:05:26Z</time>
      </trkpt>
      <trkpt lat="43.83345" lon="5.05887">
        <ele>126.662</ele>
        <time>2019-04-29T08:05:36Z</time>
      </trkpt>
      <trkpt lat="43.83355" lon="5.05834">
        <ele>125.582</ele>
        <time>2019-04-29T08:05:46Z</time>
      </trkpt>
      <trkpt lat="43.83368" lon="5.05773">
        <ele>126.792</ele>
        <time>2019-04-29T08:05:57Z</time>
      </trkpt>
      <trkpt lat="43.83387" lon="5.05711">
        <ele>128.676</ele>
        <time>2019-04-29T08:06:07Z</time>
      </trkpt>
      <trkpt lat="43.834" lon="5.05652">
        <ele>129.056</ele>
        <time>2019-04-29T08:06:18Z</time>
      </trkpt>
      <trkpt lat="43.8341" lon="5.056">
        <ele>127.177</ele>
        <time>2019-04-29T08:06:28Z</time>
      </trkpt>
      <trkpt lat="43.83421" lon="5.05548">
        <ele>125.12</ele>
        <time>2019-04-29T08:06:38Z</time>
      </trkpt>
      <trkpt lat="43.83443" lon="5.05502">
        <ele>125.237</ele>
        <time>2019-04-29T08:06:49Z</time>
      </trkpt>
      <trkpt lat="43.83464" lon="5.05464">
        <ele>125.038</ele>
        <time>2019-04-29T08:06:59Z</time>
      </trkpt>
      <trkpt lat="43.83482" lon="5.05425">
        <ele>124.742</ele>
        <time>2019-04-29T08:07:10Z</time>
      </trkpt>
      <trkpt lat="43.83511" lon="5.05383">
        <ele>124.175</ele>
        <time>2019-04-29T08:07:21Z</time>
      </trkpt>
      <trkpt lat="43.83536" lon="5.05353">
        <ele>123.597</ele>
        <time>2019-04-29T08:07:32Z</time>
      </trkpt>
      <trkpt lat="43.83558" lon="5.05352">
        <ele>123.573</ele>
        <time>2019-04-29T08:07:43Z</time>
      </trkpt>
      <trkpt lat="43.83587" lon="5.0535">
        <ele>123.961</ele>
        <time>2019-04-29T08:07:54Z</time>
      </trkpt>
      <trkpt lat="43.83621" lon="5.05352">
        <ele>124.991</ele>
        <time>2019-04-29T08:08:05Z</time>
      </trkpt>
      <trkpt lat="43.83651" lon="5.05346">
        <ele>125.393</ele>
        <time>2019-04-29T08:08:16Z</time>
      </trkpt>
      <trkpt lat="43.83682" lon="5.05335">
        <ele>126.142</ele>
        <time>2019-04-29T08:08:27Z</time>
      </trkpt>
      <trkpt lat="43.83682" lon="5.05285">
        <ele>122.407</ele>
        <time>2019-04-29T08:08:37Z</time>
      </trkpt>
      <trkpt lat="43.83676" lon="5.05219">
        <ele>121.666</ele>
        <time>2019-04-29T08:08:48Z</time>
      </trkpt>
      <trkpt lat="43.83673" lon="5.05153">
        <ele>123.472</ele>
        <time>2019-04-29T08:08:59Z</time>
      </trkpt>
      <trkpt lat="43.83668" lon="5.05093">
        <ele>123.227</ele>
        <time>2019-04-29T08:09:10Z</time>
      </trkpt>
      <trkpt lat="43.83665" lon="5.05044">
        <ele>122.764</ele>
        <time>2019-04-29T08:09:20Z</time>
      </trkpt>
      <trkpt lat="43.83665" lon="5.05035">
        <ele>122.675</ele>
        <time>2019-04-29T08:09:31Z</time>
      </trkpt>
      <trkpt lat="43.83665" lon="5.05035">
        <ele>122.673</ele>
        <time>2019-04-29T08:09:41Z</time>
      </trkpt>
      <trkpt lat="43.83665" lon="5.05035">
        <ele>122.699</ele>
        <time>2019-04-29T08:09:52Z</time>
      </trkpt>
      <trkpt lat="43.83665" lon="5.05035">
        <ele>122.723</ele>
        <time>2019-04-29T08:10:03Z</time>
      </trkpt>
      <trkpt lat="43.8366" lon="5.04998">
        <ele>123.008</ele>
        <time>2019-04-29T08:10:13Z</time>
      </trkpt>
      <trkpt lat="43.83651" lon="5.04942">
        <ele>123.764</ele>
        <time>2019-04-29T08:10:23Z</time>
      </trkpt>
      <trkpt lat="43.83642" lon="5.04881">
        <ele>122.718</ele>
        <time>2019-04-29T08:10:33Z</time>
      </trkpt>
      <trkpt lat="43.83631" lon="5.04825">
        <ele>126.363</ele>
        <time>2019-04-29T08:10:43Z</time>
      </trkpt>
      <trkpt lat="43.83615" lon="5.04763">
        <ele>126.401</ele>
        <time>2019-04-29T08:10:54Z</time>
      </trkpt>
      <trkpt lat="43.83602" lon="5.04704">
        <ele>125.238</ele>
        <time>2019-04-29T08:11:04Z</time>
      </trkpt>
      <trkpt lat="43.8359" lon="5.04642">
        <ele>125.381</ele>
        <time>2019-04-29T08:11:15Z</time>
      </trkpt>
      <trkpt lat="43.8358" lon="5.04587">
        <ele>124.678</ele>
        <time>2019-04-29T08:11:25Z</time>
      </trkpt>
      <trkpt lat="43.83577" lon="5.04525">
        <ele>122.666</ele>
        <time>2019-04-29T08:11:36Z</time>
      </trkpt>
      <trkpt lat="43.83577" lon="5.04469">
        <ele>122.763</ele>
        <time>2019-04-29T08:11:47Z</time>
      </trkpt>
      <trkpt lat="43.83582" lon="5.04422">
        <ele>122.84</ele>
        <time>2019-04-29T08:11:57Z</time>
      </trkpt>
      <trkpt lat="43.83615" lon="5.04407">
        <ele>123.185</ele>
        <time>2019-04-29T08:12:08Z</time>
      </trkpt>
      <trkpt lat="43.83652" lon="5.04395">
        <ele>123.443</ele>
        <time>2019-04-29T08:12:19Z</time>
      </trkpt>
      <trkpt lat="43.83684" lon="5.04383">
        <ele>124.227</ele>
        <time>2019-04-29T08:12:29Z</time>
      </trkpt>
      <trkpt lat="43.83725" lon="5.04372">
        <ele>124.093</ele>
        <time>2019-04-29T08:12:40Z</time>
      </trkpt>
      <trkpt lat="43.83755" lon="5.04363">
        <ele>124.062</ele>
        <time>2019-04-29T08:12:50Z</time>
      </trkpt>
      <trkpt lat="43.83769" lon="5.0434">
        <ele>124.864</ele>
        <time>2019-04-29T08:13:01Z</time>
      </trkpt>
      <trkpt lat="43.83761" lon="5.04305">
        <ele>124.138</ele>
        <time>2019-04-29T08:13:11Z</time>
      </trkpt>
      <trkpt lat="43.83749" lon="5.04326">
        <ele>123.454</ele>
        <time>2019-04-29T08:13:22Z</time>
      </trkpt>
      <trkpt lat="43.83761" lon="5.04341">
        <ele>123.56</ele>
        <time>2019-04-29T08:13:33Z</time>
      </trkpt>
      <trkpt lat="43.83768" lon="5.04302">
        <ele>121.384</ele>
        <time>2019-04-29T08:13:43Z</time>
      </trkpt>
      <trkpt lat="43.83743" lon="5.04254">
        <ele>121.24</ele>
        <time>2019-04-29T08:13:54Z</time>
      </trkpt>
      <trkpt lat="43.83712" lon="5.04234">
        <ele>123.831</ele>
        <time>2019-04-29T08:14:05Z</time>
      </trkpt>
      <trkpt lat="43.83682" lon="5.04254">
        <ele>125.181</ele>
        <time>2019-04-29T08:14:15Z</time>
      </trkpt>
      <trkpt lat="43.83636" lon="5.04265">
        <ele>125.851</ele>
        <time>2019-04-29T08:14:25Z</time>
      </trkpt>
      <trkpt lat="43.83612" lon="5.04272">
        <ele>125.944</ele>
        <time>2019-04-29T08:14:36Z</time>
      </trkpt>
      <trkpt lat="43.83603" lon="5.04274">
        <ele>125.919</ele>
        <time>2019-04-29T08:14:47Z</time>
      </trkpt>
      <trkpt lat="43.8356" lon="5.04279">
        <ele>124.309</ele>
        <time>2019-04-29T08:14:58Z</time>
      </trkpt>
      <trkpt lat="43.83502" lon="5.04303">
        <ele>125.976</ele>
        <time>2019-04-29T08:15:09Z</time>
      </trkpt>
      <trkpt lat="43.83454" lon="5.04308">
        <ele>128.108</ele>
        <time>2019-04-29T08:15:19Z</time>
      </trkpt>
      <trkpt lat="43.83452" lon="5.0424">
        <ele>133.182</ele>
        <time>2019-04-29T08:15:30Z</time>
      </trkpt>
      <trkpt lat="43.83448" lon="5.04181">
        <ele>138.937</ele>
        <time>2019-04-29T08:15:40Z</time>
      </trkpt>
      <trkpt lat="43.83457" lon="5.04122">
        <ele>145.828</ele>
        <time>2019-04-29T08:15:50Z</time>
      </trkpt>
      <trkpt lat="43.83429" lon="5.04085">
        <ele>144.595</ele>
        <time>2019-04-29T08:16:00Z</time>
      </trkpt>
      <trkpt lat="43.83399" lon="5.0408">
        <ele>141.958</ele>
        <time>2019-04-29T08:16:10Z</time>
      </trkpt>
      <trkpt lat="43.83365" lon="5.04066">
        <ele>137.334</ele>
        <time>2019-04-29T08:16:21Z</time>
      </trkpt>
      <trkpt lat="43.83318" lon="5.04052">
        <ele>131.138</ele>
        <time>2019-04-29T08:16:32Z</time>
      </trkpt>
      <trkpt lat="43.83279" lon="5.04034">
        <ele>136.05</ele>
        <time>2019-04-29T08:16:42Z</time>
      </trkpt>
      <trkpt lat="43.83227" lon="5.03997">
        <ele>132.601</ele>
        <time>2019-04-29T08:16:52Z</time>
      </trkpt>
      <trkpt lat="43.83182" lon="5.03956">
        <ele>125.481</ele>
        <time>2019-04-29T08:17:03Z</time>
      </trkpt>
      <trkpt lat="43.83167" lon="5.03935">
        <ele>126.598</ele>
        <time>2019-04-29T08:17:14Z</time>
      </trkpt>
      <trkpt lat="43.83153" lon="5.03917">
        <ele>126.127</ele>
        <time>2019-04-29T08:17:25Z</time>
      </trkpt>
      <trkpt lat="43.83124" lon="5.03866">
        <ele>124.231</ele>
        <time>2019-04-29T08:17:36Z</time>
      </trkpt>
      <trkpt lat="43.8309" lon="5.03802">
        <ele>121.611</ele>
        <time>2019-04-29T08:17:47Z</time>
      </trkpt>
      <trkpt lat="43.83056" lon="5.0374">
        <ele>121.814</ele>
        <time>2019-04-29T08:17:58Z</time>
      </trkpt>
      <trkpt lat="43.83022" lon="5.03682">
        <ele>121.074</ele>
        <time>2019-04-29T08:18:09Z</time>
      </trkpt>
      <trkpt lat="43.82995" lon="5.03634">
        <ele>121.885</ele>
        <time>2019-04-29T08:18:20Z</time>
      </trkpt>
      <trkpt lat="43.82966" lon="5.03591">
        <ele>125.168</ele>
        <time>2019-04-29T08:18:31Z</time>
      </trkpt>
      <trkpt lat="43.82933" lon="5.03538">
        <ele>126.14</ele>
        <time>2019-04-29T08:18:41Z</time>
      </trkpt>
      <trkpt lat="43.82901" lon="5.03478">
        <ele>125.108</ele>
        <time>2019-04-29T08:18:52Z</time>
      </trkpt>
      <trkpt lat="43.82875" lon="5.03434">
        <ele>125.145</ele>
        <time>2019-04-29T08:19:02Z</time>
      </trkpt>
      <trkpt lat="43.82832" lon="5.03403">
        <ele>124.838</ele>
        <time>2019-04-29T08:19:13Z</time>
      </trkpt>
      <trkpt lat="43.82811" lon="5.03368">
        <ele>124.472</ele>
        <time>2019-04-29T08:19:23Z</time>
      </trkpt>
      <trkpt lat="43.82793" lon="5.03348">
        <ele>124.598</ele>
        <time>2019-04-29T08:19:34Z</time>
      </trkpt>
      <trkpt lat="43.82786" lon="5.03308">
        <ele>124.797</ele>
        <time>2019-04-29T08:19:45Z</time>
      </trkpt>
      <trkpt lat="43.82778" lon="5.03272">
        <ele>124.549</ele>
        <time>2019-04-29T08:19:55Z</time>
      </trkpt>
      <trkpt lat="43.82762" lon="5.03237">
        <ele>124.718</ele>
        <time>2019-04-29T08:20:05Z</time>
      </trkpt>
      <trkpt lat="43.82742" lon="5.03199">
        <ele>125.272</ele>
        <time>2019-04-29T08:20:16Z</time>
      </trkpt>
      <trkpt lat="43.82719" lon="5.03156">
        <ele>127.17</ele>
        <time>2019-04-29T08:20:27Z</time>
      </trkpt>
      <trkpt lat="43.82695" lon="5.03115">
        <ele>128.744</ele>
        <time>2019-04-29T08:20:37Z</time>
      </trkpt>
      <trkpt lat="43.82668" lon="5.03067">
        <ele>130.543</ele>
        <time>2019-04-29T08:20:48Z</time>
      </trkpt>
      <trkpt lat="43.8264" lon="5.03016">
        <ele>129.453</ele>
        <time>2019-04-29T08:20:59Z</time>
      </trkpt>
      <trkpt lat="43.82609" lon="5.02964">
        <ele>129.034</ele>
        <time>2019-04-29T08:21:09Z</time>
      </trkpt>
      <trkpt lat="43.82575" lon="5.02902">
        <ele>128.75</ele>
        <time>2019-04-29T08:21:20Z</time>
      </trkpt>
      <trkpt lat="43.82557" lon="5.02868">
        <ele>128.706</ele>
        <time>2019-04-29T08:21:31Z</time>
      </trkpt>
      <trkpt lat="43.82535" lon="5.02834">
        <ele>128.229</ele>
        <time>2019-04-29T08:21:41Z</time>
      </trkpt>
      <trkpt lat="43.8251" lon="5.02791">
        <ele>128.234</ele>
        <time>2019-04-29T08:21:52Z</time>
      </trkpt>
      <trkpt lat="43.82487" lon="5.02753">
        <ele>128.01</ele>
        <time>2019-04-29T08:22:02Z</time>
      </trkpt>
      <trkpt lat="43.82465" lon="5.02714">
        <ele>128.091</ele>
        <time>2019-04-29T08:22:13Z</time>
      </trkpt>
      <trkpt lat="43.82445" lon="5.02681">
        <ele>128.619</ele>
        <time>2019-04-29T08:22:24Z</time>
      </trkpt>
      <trkpt lat="43.82426" lon="5.02649">
        <ele>129.632</ele>
        <time>2019-04-29T08:22:34Z</time>
      </trkpt>
      <trkpt lat="43.82405" lon="5.02613">
        <ele>130.906</ele>
        <time>2019-04-29T08:22:44Z</time>
      </trkpt>
      <trkpt lat="43.82373" lon="5.02554">
        <ele>131.003</ele>
        <time>2019-04-29T08:22:55Z</time>
      </trkpt>
      <trkpt lat="43.82357" lon="5.02521">
        <ele>128.245</ele>
        <time>2019-04-29T08:23:06Z</time>
      </trkpt>
      <trkpt lat="43.82358" lon="5.02525">
        <ele>128.007</ele>
        <time>2019-04-29T08:23:16Z</time>
      </trkpt>
      <trkpt lat="43.82357" lon="5.02524">
        <ele>127.918</ele>
        <time>2019-04-29T08:23:27Z</time>
      </trkpt>
      <trkpt lat="43.82338" lon="5.02492">
        <ele>125.103</ele>
        <time>2019-04-29T08:23:38Z</time>
      </trkpt>
      <trkpt lat="43.82328" lon="5.02474">
        <ele>123.835</ele>
        <time>2019-04-29T08:23:49Z</time>
      </trkpt>
      <trkpt lat="43.82328" lon="5.02474">
        <ele>123.759</ele>
        <time>2019-04-29T08:24:00Z</time>
      </trkpt>
      <trkpt lat="43.82328" lon="5.02474">
        <ele>123.712</ele>
        <time>2019-04-29T08:24:11Z</time>
      </trkpt>
      <trkpt lat="43.82327" lon="5.02473">
        <ele>123.436</ele>
        <time>2019-04-29T08:24:22Z</time>
      </trkpt>
      <trkpt lat="43.82327" lon="5.02472">
        <ele>123.372</ele>
        <time>2019-04-29T08:24:32Z</time>
      </trkpt>
      <trkpt lat="43.82328" lon="5.02472">
        <ele>123.349</ele>
        <time>2019-04-29T08:24:43Z</time>
      </trkpt>
      <trkpt lat="43.82328" lon="5.02473">
        <ele>122.905</ele>
        <time>2019-04-29T08:24:53Z</time>
      </trkpt>
      <trkpt lat="43.82328" lon="5.02474">
        <ele>122.656</ele>
        <time>2019-04-29T08:25:04Z</time>
      </trkpt>
      <trkpt lat="43.82328" lon="5.02474">
        <ele>122.566</ele>
        <time>2019-04-29T08:25:14Z</time>
      </trkpt>
      <trkpt lat="43.82328" lon="5.02475">
        <ele>122.376</ele>
        <time>2019-04-29T08:25:24Z</time>
      </trkpt>
      <trkpt lat="43.82328" lon="5.02475">
        <ele>122.187</ele>
        <time>2019-04-29T08:25:35Z</time>
      </trkpt>
      <trkpt lat="43.82326" lon="5.02472">
        <ele>122.481</ele>
        <time>2019-04-29T08:25:45Z</time>
      </trkpt>
      <trkpt lat="43.82323" lon="5.02465">
        <ele>122.696</ele>
        <time>2019-04-29T08:25:55Z</time>
      </trkpt>
      <trkpt lat="43.82292" lon="5.02414">
        <ele>122.853</ele>
        <time>2019-04-29T08:26:05Z</time>
      </trkpt>
      <trkpt lat="43.8225" lon="5.02345">
        <ele>121.16</ele>
        <time>2019-04-29T08:26:16Z</time>
      </trkpt>
      <trkpt lat="43.8221" lon="5.02278">
        <ele>121.373</ele>
        <time>2019-04-29T08:26:27Z</time>
      </trkpt>
      <trkpt lat="43.82188" lon="5.02218">
        <ele>116.925</ele>
        <time>2019-04-29T08:26:37Z</time>
      </trkpt>
      <trkpt lat="43.82178" lon="5.02181">
        <ele>117.666</ele>
        <time>2019-04-29T08:26:48Z</time>
      </trkpt>
      <trkpt lat="43.82177" lon="5.02181">
        <ele>117.693</ele>
        <time>2019-04-29T08:26:58Z</time>
      </trkpt>
      <trkpt lat="43.82178" lon="5.02181">
        <ele>117.695</ele>
        <time>2019-04-29T08:27:09Z</time>
      </trkpt>
      <trkpt lat="43.8218" lon="5.02155">
        <ele>117.978</ele>
        <time>2019-04-29T08:27:19Z</time>
      </trkpt>
      <trkpt lat="43.82155" lon="5.02117">
        <ele>122.638</ele>
        <time>2019-04-29T08:27:29Z</time>
      </trkpt>
      <trkpt lat="43.82137" lon="5.02112">
        <ele>122.632</ele>
        <time>2019-04-29T08:27:40Z</time>
      </trkpt>
      <trkpt lat="43.82134" lon="5.02108">
        <ele>122.587</ele>
        <time>2019-04-29T08:27:51Z</time>
      </trkpt>
      <trkpt lat="43.82134" lon="5.02108">
        <ele>122.581</ele>
        <time>2019-04-29T08:28:02Z</time>
      </trkpt>
      <trkpt lat="43.82116" lon="5.02083">
        <ele>121.694</ele>
        <time>2019-04-29T08:28:12Z</time>
      </trkpt>
      <trkpt lat="43.82091" lon="5.02027">
        <ele>120.409</ele>
        <time>2019-04-29T08:28:23Z</time>
      </trkpt>
      <trkpt lat="43.82067" lon="5.01972">
        <ele>121.171</ele>
        <time>2019-04-29T08:28:33Z</time>
      </trkpt>
      <trkpt lat="43.82032" lon="5.01907">
        <ele>119.875</ele>
        <time>2019-04-29T08:28:43Z</time>
      </trkpt>
      <trkpt lat="43.81997" lon="5.01843">
        <ele>118.463</ele>
        <time>2019-04-29T08:28:54Z</time>
      </trkpt>
      <trkpt lat="43.81967" lon="5.01781">
        <ele>119.093</ele>
        <time>2019-04-29T08:29:05Z</time>
      </trkpt>
      <trkpt lat="43.81942" lon="5.01729">
        <ele>123.328</ele>
        <time>2019-04-29T08:29:15Z</time>
      </trkpt>
      <trkpt lat="43.81917" lon="5.01686">
        <ele>123.797</ele>
        <time>2019-04-29T08:29:26Z</time>
      </trkpt>
      <trkpt lat="43.8189" lon="5.01635">
        <ele>124.33</ele>
        <time>2019-04-29T08:29:36Z</time>
      </trkpt>
      <trkpt lat="43.81866" lon="5.01596">
        <ele>124.063</ele>
        <time>2019-04-29T08:29:47Z</time>
      </trkpt>
      <trkpt lat="43.81847" lon="5.01544">
        <ele>123.029</ele>
        <time>2019-04-29T08:29:58Z</time>
      </trkpt>
      <trkpt lat="43.81817" lon="5.01586">
        <ele>122.927</ele>
        <time>2019-04-29T08:30:08Z</time>
      </trkpt>
      <trkpt lat="43.81785" lon="5.01617">
        <ele>120.663</ele>
        <time>2019-04-29T08:30:19Z</time>
      </trkpt>
      <trkpt lat="43.81791" lon="5.01626">
        <ele>120.541</ele>
        <time>2019-04-29T08:30:29Z</time>
      </trkpt>
      <trkpt lat="43.81802" lon="5.01617">
        <ele>120.002</ele>
        <time>2019-04-29T08:30:40Z</time>
      </trkpt>
      <trkpt lat="43.81844" lon="5.01607">
        <ele>120.156</ele>
        <time>2019-04-29T08:30:50Z</time>
      </trkpt>
      <trkpt lat="43.8188" lon="5.01653">
        <ele>122.623</ele>
        <time>2019-04-29T08:31:01Z</time>
      </trkpt>
      <trkpt lat="43.81901" lon="5.01699">
        <ele>122.592</ele>
        <time>2019-04-29T08:31:12Z</time>
      </trkpt>
      <trkpt lat="43.81919" lon="5.01747">
        <ele>121.696</ele>
        <time>2019-04-29T08:31:22Z</time>
      </trkpt>
      <trkpt lat="43.81941" lon="5.01795">
        <ele>118.639</ele>
        <time>2019-04-29T08:31:32Z</time>
      </trkpt>
      <trkpt lat="43.81967" lon="5.01849">
        <ele>119.926</ele>
        <time>2019-04-29T08:31:43Z</time>
      </trkpt>
      <trkpt lat="43.8199" lon="5.01894">
        <ele>121.827</ele>
        <time>2019-04-29T08:31:53Z</time>
      </trkpt>
      <trkpt lat="43.82015" lon="5.01938">
        <ele>123.499</ele>
        <time>2019-04-29T08:32:03Z</time>
      </trkpt>
      <trkpt lat="43.82042" lon="5.0199">
        <ele>123.579</ele>
        <time>2019-04-29T08:32:14Z</time>
      </trkpt>
      <trkpt lat="43.82062" lon="5.02031">
        <ele>123.635</ele>
        <time>2019-04-29T08:32:24Z</time>
      </trkpt>
      <trkpt lat="43.82027" lon="5.02097">
        <ele>119.411</ele>
        <time>2019-04-29T08:32:35Z</time>
      </trkpt>
      <trkpt lat="43.81987" lon="5.02165">
        <ele>118.513</ele>
        <time>2019-04-29T08:32:46Z</time>
      </trkpt>
      <trkpt lat="43.81951" lon="5.02224">
        <ele>118.1</ele>
        <time>2019-04-29T08:32:56Z</time>
      </trkpt>
      <trkpt lat="43.81918" lon="5.02282">
        <ele>118.654</ele>
        <time>2019-04-29T08:33:06Z</time>
      </trkpt>
      <trkpt lat="43.81881" lon="5.0234">
        <ele>117.029</ele>
        <time>2019-04-29T08:33:16Z</time>
      </trkpt>
      <trkpt lat="43.81843" lon="5.02406">
        <ele>118.104</ele>
        <time>2019-04-29T08:33:27Z</time>
      </trkpt>
      <trkpt lat="43.81813" lon="5.02464">
        <ele>120.379</ele>
        <time>2019-04-29T08:33:37Z</time>
      </trkpt>
      <trkpt lat="43.81777" lon="5.02522">
        <ele>120.582</ele>
        <time>2019-04-29T08:33:47Z</time>
      </trkpt>
      <trkpt lat="43.8174" lon="5.02587">
        <ele>121.733</ele>
        <time>2019-04-29T08:33:58Z</time>
      </trkpt>
      <trkpt lat="43.81702" lon="5.02648">
        <ele>122.355</ele>
        <time>2019-04-29T08:34:09Z</time>
      </trkpt>
      <trkpt lat="43.81669" lon="5.02708">
        <ele>121.64</ele>
        <time>2019-04-29T08:34:20Z</time>
      </trkpt>
      <trkpt lat="43.81631" lon="5.02763">
        <ele>120.444</ele>
        <time>2019-04-29T08:34:30Z</time>
      </trkpt>
      <trkpt lat="43.81601" lon="5.02819">
        <ele>119.314</ele>
        <time>2019-04-29T08:34:40Z</time>
      </trkpt>
      <trkpt lat="43.81567" lon="5.02881">
        <ele>122.263</ele>
        <time>2019-04-29T08:34:51Z</time>
      </trkpt>
      <trkpt lat="43.81533" lon="5.02933">
        <ele>122.588</ele>
        <time>2019-04-29T08:35:02Z</time>
      </trkpt>
      <trkpt lat="43.81502" lon="5.02989">
        <ele>124.843</ele>
        <time>2019-04-29T08:35:12Z</time>
      </trkpt>
      <trkpt lat="43.81461" lon="5.03038">
        <ele>122.024</ele>
        <time>2019-04-29T08:35:23Z</time>
      </trkpt>
      <trkpt lat="43.81419" lon="5.03083">
        <ele>119.758</ele>
        <time>2019-04-29T08:35:34Z</time>
      </trkpt>
      <trkpt lat="43.81386" lon="5.03122">
        <ele>120.494</ele>
        <time>2019-04-29T08:35:44Z</time>
      </trkpt>
      <trkpt lat="43.81346" lon="5.03168">
        <ele>120.062</ele>
        <time>2019-04-29T08:35:55Z</time>
      </trkpt>
      <trkpt lat="43.81312" lon="5.03203">
        <ele>119.479</ele>
        <time>2019-04-29T08:36:06Z</time>
      </trkpt>
      <trkpt lat="43.81312" lon="5.03203">
        <ele>119.681</ele>
        <time>2019-04-29T08:36:16Z</time>
      </trkpt>
      <trkpt lat="43.81312" lon="5.03203">
        <ele>119.767</ele>
        <time>2019-04-29T08:36:27Z</time>
      </trkpt>
      <trkpt lat="43.81312" lon="5.03203">
        <ele>119.86</ele>
        <time>2019-04-29T08:36:38Z</time>
      </trkpt>
      <trkpt lat="43.81312" lon="5.03203">
        <ele>119.938</ele>
        <time>2019-04-29T08:36:48Z</time>
      </trkpt>
      <trkpt lat="43.81312" lon="5.03203">
        <ele>119.986</ele>
        <time>2019-04-29T08:36:58Z</time>
      </trkpt>
      <trkpt lat="43.8131" lon="5.03206">
        <ele>120.211</ele>
        <time>2019-04-29T08:37:09Z</time>
      </trkpt>
      <trkpt lat="43.81289" lon="5.03232">
        <ele>120.95</ele>
        <time>2019-04-29T08:37:19Z</time>
      </trkpt>
      <trkpt lat="43.81255" lon="5.03273">
        <ele>128.536</ele>
        <time>2019-04-29T08:37:30Z</time>
      </trkpt>
      <trkpt lat="43.81221" lon="5.03311">
        <ele>131.094</ele>
        <time>2019-04-29T08:37:40Z</time>
      </trkpt>
      <trkpt lat="43.81183" lon="5.03353">
        <ele>132.116</ele>
        <time>2019-04-29T08:37:51Z</time>
      </trkpt>
      <trkpt lat="43.81145" lon="5.03399">
        <ele>131.601</ele>
        <time>2019-04-29T08:38:01Z</time>
      </trkpt>
      <trkpt lat="43.81097" lon="5.03442">
        <ele>128.642</ele>
        <time>2019-04-29T08:38:12Z</time>
      </trkpt>
      <trkpt lat="43.81044" lon="5.0345">
        <ele>127.423</ele>
        <time>2019-04-29T08:38:23Z</time>
      </trkpt>
      <trkpt lat="43.80996" lon="5.03453">
        <ele>127.628</ele>
        <time>2019-04-29T08:38:33Z</time>
      </trkpt>
      <trkpt lat="43.80944" lon="5.03462">
        <ele>125.782</ele>
        <time>2019-04-29T08:38:44Z</time>
      </trkpt>
      <trkpt lat="43.80898" lon="5.03487">
        <ele>126.576</ele>
        <time>2019-04-29T08:38:55Z</time>
      </trkpt>
      <trkpt lat="43.80856" lon="5.03513">
        <ele>127.407</ele>
        <time>2019-04-29T08:39:05Z</time>
      </trkpt>
      <trkpt lat="43.80811" lon="5.03551">
        <ele>126.753</ele>
        <time>2019-04-29T08:39:16Z</time>
      </trkpt>
      <trkpt lat="43.80765" lon="5.03582">
        <ele>127.336</ele>
        <time>2019-04-29T08:39:26Z</time>
      </trkpt>
      <trkpt lat="43.8072" lon="5.03599">
        <ele>127.825</ele>
        <time>2019-04-29T08:39:36Z</time>
      </trkpt>
      <trkpt lat="43.80674" lon="5.03616">
        <ele>130.808</ele>
        <time>2019-04-29T08:39:47Z</time>
      </trkpt>
      <trkpt lat="43.80621" lon="5.03643">
        <ele>133.377</ele>
        <time>2019-04-29T08:39:58Z</time>
      </trkpt>
      <trkpt lat="43.80579" lon="5.03674">
        <ele>132.971</ele>
        <time>2019-04-29T08:40:09Z</time>
      </trkpt>
      <trkpt lat="43.80537" lon="5.03712">
        <ele>131.941</ele>
        <time>2019-04-29T08:40:20Z</time>
      </trkpt>
      <trkpt lat="43.80487" lon="5.03737">
        <ele>133.768</ele>
        <time>2019-04-29T08:40:31Z</time>
      </trkpt>
      <trkpt lat="43.80436" lon="5.03747">
        <ele>135.46</ele>
        <time>2019-04-29T08:40:42Z</time>
      </trkpt>
      <trkpt lat="43.80389" lon="5.0377">
        <ele>137.458</ele>
        <time>2019-04-29T08:40:53Z</time>
      </trkpt>
      <trkpt lat="43.80341" lon="5.03793">
        <ele>144.771</ele>
        <time>2019-04-29T08:41:03Z</time>
      </trkpt>
      <trkpt lat="43.80295" lon="5.03826">
        <ele>152.373</ele>
        <time>2019-04-29T08:41:14Z</time>
      </trkpt>
      <trkpt lat="43.80249" lon="5.03859">
        <ele>152.266</ele>
        <time>2019-04-29T08:41:25Z</time>
      </trkpt>
      <trkpt lat="43.80202" lon="5.03885">
        <ele>153.238</ele>
        <time>2019-04-29T08:41:36Z</time>
      </trkpt>
      <trkpt lat="43.80156" lon="5.03885">
        <ele>141.12</ele>
        <time>2019-04-29T08:41:46Z</time>
      </trkpt>
      <trkpt lat="43.801" lon="5.03891">
        <ele>133.789</ele>
        <time>2019-04-29T08:41:57Z</time>
      </trkpt>
      <trkpt lat="43.80042" lon="5.03912">
        <ele>133.778</ele>
        <time>2019-04-29T08:42:08Z</time>
      </trkpt>
      <trkpt lat="43.79989" lon="5.0393">
        <ele>133.211</ele>
        <time>2019-04-29T08:42:19Z</time>
      </trkpt>
      <trkpt lat="43.79945" lon="5.03932">
        <ele>134.314</ele>
        <time>2019-04-29T08:42:29Z</time>
      </trkpt>
      <trkpt lat="43.79895" lon="5.03932">
        <ele>132.767</ele>
        <time>2019-04-29T08:42:40Z</time>
      </trkpt>
      <trkpt lat="43.79846" lon="5.03935">
        <ele>131.795</ele>
        <time>2019-04-29T08:42:51Z</time>
      </trkpt>
      <trkpt lat="43.79804" lon="5.03933">
        <ele>130.224</ele>
        <time>2019-04-29T08:43:02Z</time>
      </trkpt>
      <trkpt lat="43.79797" lon="5.03937">
        <ele>131.229</ele>
        <time>2019-04-29T08:43:12Z</time>
      </trkpt>
      <trkpt lat="43.79787" lon="5.03937">
        <ele>131.252</ele>
        <time>2019-04-29T08:43:23Z</time>
      </trkpt>
      <trkpt lat="43.79746" lon="5.03937">
        <ele>131.584</ele>
        <time>2019-04-29T08:43:34Z</time>
      </trkpt>
      <trkpt lat="43.79693" lon="5.03944">
        <ele>133.315</ele>
        <time>2019-04-29T08:43:45Z</time>
      </trkpt>
      <trkpt lat="43.79645" lon="5.03952">
        <ele>131.586</ele>
        <time>2019-04-29T08:43:55Z</time>
      </trkpt>
      <trkpt lat="43.79594" lon="5.03968">
        <ele>133.887</ele>
        <time>2019-04-29T08:44:06Z</time>
      </trkpt>
      <trkpt lat="43.79547" lon="5.04009">
        <ele>130.206</ele>
        <time>2019-04-29T08:44:16Z</time>
      </trkpt>
      <trkpt lat="43.79501" lon="5.04037">
        <ele>128.879</ele>
        <time>2019-04-29T08:44:27Z</time>
      </trkpt>
      <trkpt lat="43.79458" lon="5.0405">
        <ele>132.219</ele>
        <time>2019-04-29T08:44:37Z</time>
      </trkpt>
      <trkpt lat="43.79433" lon="5.04056">
        <ele>133.676</ele>
        <time>2019-04-29T08:44:48Z</time>
      </trkpt>
      <trkpt lat="43.79426" lon="5.04054">
        <ele>133.743</ele>
        <time>2019-04-29T08:44:58Z</time>
      </trkpt>
      <trkpt lat="43.79426" lon="5.04055">
        <ele>133.657</ele>
        <time>2019-04-29T08:45:08Z</time>
      </trkpt>
      <trkpt lat="43.79425" lon="5.04057">
        <ele>133.461</ele>
        <time>2019-04-29T08:45:19Z</time>
      </trkpt>
      <trkpt lat="43.79429" lon="5.04062">
        <ele>130.825</ele>
        <time>2019-04-29T08:45:29Z</time>
      </trkpt>
      <trkpt lat="43.79427" lon="5.0408">
        <ele>130.922</ele>
        <time>2019-04-29T08:45:40Z</time>
      </trkpt>
      <trkpt lat="43.79384" lon="5.04104">
        <ele>131.524</ele>
        <time>2019-04-29T08:45:50Z</time>
      </trkpt>
      <trkpt lat="43.79336" lon="5.04128">
        <ele>132.056</ele>
        <time>2019-04-29T08:46:00Z</time>
      </trkpt>
      <trkpt lat="43.79289" lon="5.04162">
        <ele>132.292</ele>
        <time>2019-04-29T08:46:11Z</time>
      </trkpt>
      <trkpt lat="43.79234" lon="5.04194">
        <ele>133.379</ele>
        <time>2019-04-29T08:46:22Z</time>
      </trkpt>
      <trkpt lat="43.79185" lon="5.04226">
        <ele>134.744</ele>
        <time>2019-04-29T08:46:33Z</time>
      </trkpt>
      <trkpt lat="43.79146" lon="5.04259">
        <ele>134.487</ele>
        <time>2019-04-29T08:46:44Z</time>
      </trkpt>
      <trkpt lat="43.79121" lon="5.04286">
        <ele>134.267</ele>
        <time>2019-04-29T08:46:55Z</time>
      </trkpt>
      <trkpt lat="43.79107" lon="5.04261">
        <ele>135.27</ele>
        <time>2019-04-29T08:47:06Z</time>
      </trkpt>
      <trkpt lat="43.79101" lon="5.04247">
        <ele>136.297</ele>
        <time>2019-04-29T08:47:16Z</time>
      </trkpt>
      <trkpt lat="43.79089" lon="5.0426">
        <ele>135.764</ele>
        <time>2019-04-29T08:47:26Z</time>
      </trkpt>
      <trkpt lat="43.79083" lon="5.04266">
        <ele>134.626</ele>
        <time>2019-04-29T08:47:37Z</time>
      </trkpt>
      <trkpt lat="43.79082" lon="5.04271">
        <ele>131.827</ele>
        <time>2019-04-29T08:47:48Z</time>
      </trkpt>
      <trkpt lat="43.79084" lon="5.04269">
        <ele>131.444</ele>
        <time>2019-04-29T08:47:58Z</time>
      </trkpt>
      <trkpt lat="43.79084" lon="5.04268">
        <ele>131.487</ele>
        <time>2019-04-29T08:48:08Z</time>
      </trkpt>
      <trkpt lat="43.79084" lon="5.04269">
        <ele>131.33</ele>
        <time>2019-04-29T08:48:18Z</time>
      </trkpt>
      <trkpt lat="43.79087" lon="5.04267">
        <ele>130.61</ele>
        <time>2019-04-29T08:48:29Z</time>
      </trkpt>
      <trkpt lat="43.79095" lon="5.04253">
        <ele>131.923</ele>
        <time>2019-04-29T08:48:39Z</time>
      </trkpt>
      <trkpt lat="43.79117" lon="5.04206">
        <ele>132.345</ele>
        <time>2019-04-29T08:48:50Z</time>
      </trkpt>
      <trkpt lat="43.79137" lon="5.0416">
        <ele>134.507</ele>
        <time>2019-04-29T08:49:00Z</time>
      </trkpt>
      <trkpt lat="43.7916" lon="5.04116">
        <ele>134.554</ele>
        <time>2019-04-29T08:49:11Z</time>
      </trkpt>
      <trkpt lat="43.79171" lon="5.04075">
        <ele>135.053</ele>
        <time>2019-04-29T08:49:21Z</time>
      </trkpt>
      <trkpt lat="43.79167" lon="5.04045">
        <ele>135.732</ele>
        <time>2019-04-29T08:49:31Z</time>
      </trkpt>
      <trkpt lat="43.79136" lon="5.04044">
        <ele>136.389</ele>
        <time>2019-04-29T08:49:42Z</time>
      </trkpt>
      <trkpt lat="43.79101" lon="5.04039">
        <ele>137.36</ele>
        <time>2019-04-29T08:49:52Z</time>
      </trkpt>
      <trkpt lat="43.79077" lon="5.04023">
        <ele>137.682</ele>
        <time>2019-04-29T08:50:02Z</time>
      </trkpt>
      <trkpt lat="43.79068" lon="5.03997">
        <ele>138.549</ele>
        <time>2019-04-29T08:50:13Z</time>
      </trkpt>
      <trkpt lat="43.79055" lon="5.03977">
        <ele>139.366</ele>
        <time>2019-04-29T08:50:23Z</time>
      </trkpt>
      <trkpt lat="43.79038" lon="5.03971">
        <ele>140.391</ele>
        <time>2019-04-29T08:50:34Z</time>
      </trkpt>
      <trkpt lat="43.79016" lon="5.0397">
        <ele>141.939</ele>
        <time>2019-04-29T08:50:44Z</time>
      </trkpt>
      <trkpt lat="43.7901" lon="5.03947">
        <ele>143.918</ele>
        <time>2019-04-29T08:50:55Z</time>
      </trkpt>
      <trkpt lat="43.79012" lon="5.03924">
        <ele>144.277</ele>
        <time>2019-04-29T08:51:06Z</time>
      </trkpt>
      <trkpt lat="43.79006" lon="5.03917">
        <ele>144.591</ele>
        <time>2019-04-29T08:51:16Z</time>
      </trkpt>
      <trkpt lat="43.79005" lon="5.03929">
        <ele>145.082</ele>
        <time>2019-04-29T08:51:27Z</time>
      </trkpt>
      <trkpt lat="43.79004" lon="5.03904">
        <ele>145.502</ele>
        <time>2019-04-29T08:51:37Z</time>
      </trkpt>
      <trkpt lat="43.79" lon="5.03883">
        <ele>146.277</ele>
        <time>2019-04-29T08:51:48Z</time>
      </trkpt>
      <trkpt lat="43.79004" lon="5.0386">
        <ele>146.853</ele>
        <time>2019-04-29T08:51:59Z</time>
      </trkpt>
      <trkpt lat="43.79007" lon="5.03838">
        <ele>147.729</ele>
        <time>2019-04-29T08:52:10Z</time>
      </trkpt>
      <trkpt lat="43.79013" lon="5.0382">
        <ele>148.967</ele>
        <time>2019-04-29T08:52:20Z</time>
      </trkpt>
      <trkpt lat="43.79018" lon="5.03799">
        <ele>150.426</ele>
        <time>2019-04-29T08:52:31Z</time>
      </trkpt>
      <trkpt lat="43.79025" lon="5.03778">
        <ele>151.624</ele>
        <time>2019-04-29T08:52:42Z</time>
      </trkpt>
      <trkpt lat="43.79029" lon="5.03759">
        <ele>152.795</ele>
        <time>2019-04-29T08:52:52Z</time>
      </trkpt>
      <trkpt lat="43.79037" lon="5.03744">
        <ele>153.888</ele>
        <time>2019-04-29T08:53:03Z</time>
      </trkpt>
      <trkpt lat="43.79063" lon="5.03756">
        <ele>154.743</ele>
        <time>2019-04-29T08:53:14Z</time>
      </trkpt>
      <trkpt lat="43.7908" lon="5.03739">
        <ele>154.986</ele>
        <time>2019-04-29T08:53:24Z</time>
      </trkpt>
      <trkpt lat="43.7908" lon="5.03689">
        <ele>156.944</ele>
        <time>2019-04-29T08:53:35Z</time>
      </trkpt>
      <trkpt lat="43.791" lon="5.03657">
        <ele>155.195</ele>
        <time>2019-04-29T08:53:45Z</time>
      </trkpt>
      <trkpt lat="43.79106" lon="5.03652">
        <ele>154.277</ele>
        <time>2019-04-29T08:53:56Z</time>
      </trkpt>
      <trkpt lat="43.79109" lon="5.03644">
        <ele>153.688</ele>
        <time>2019-04-29T08:54:07Z</time>
      </trkpt>
      <trkpt lat="43.79109" lon="5.03645">
        <ele>153.709</ele>
        <time>2019-04-29T08:54:17Z</time>
      </trkpt>
      <trkpt lat="43.79117" lon="5.03643">
        <ele>153.751</ele>
        <time>2019-04-29T08:54:27Z</time>
      </trkpt>
      <trkpt lat="43.79125" lon="5.03602">
        <ele>152.894</ele>
        <time>2019-04-29T08:54:38Z</time>
      </trkpt>
      <trkpt lat="43.79136" lon="5.03529">
        <ele>149.444</ele>
        <time>2019-04-29T08:54:49Z</time>
      </trkpt>
      <trkpt lat="43.79138" lon="5.03523">
        <ele>149.001</ele>
        <time>2019-04-29T08:55:00Z</time>
      </trkpt>
      <trkpt lat="43.79138" lon="5.03523">
        <ele>148.909</ele>
        <time>2019-04-29T08:55:10Z</time>
      </trkpt>
      <trkpt lat="43.79137" lon="5.03524">
        <ele>148.686</ele>
        <time>2019-04-29T08:55:20Z</time>
      </trkpt>
      <trkpt lat="43.7914" lon="5.03495">
        <ele>147.756</ele>
        <time>2019-04-29T08:55:31Z</time>
      </trkpt>
      <trkpt lat="43.79148" lon="5.03451">
        <ele>146.93</ele>
        <time>2019-04-29T08:55:42Z</time>
      </trkpt>
      <trkpt lat="43.79158" lon="5.03412">
        <ele>146.705</ele>
        <time>2019-04-29T08:55:52Z</time>
      </trkpt>
      <trkpt lat="43.79164" lon="5.03367">
        <ele>146.678</ele>
        <time>2019-04-29T08:56:02Z</time>
      </trkpt>
      <trkpt lat="43.79175" lon="5.03312">
        <ele>148.018</ele>
        <time>2019-04-29T08:56:12Z</time>
      </trkpt>
      <trkpt lat="43.79184" lon="5.0326">
        <ele>147.96</ele>
        <time>2019-04-29T08:56:22Z</time>
      </trkpt>
      <trkpt lat="43.79194" lon="5.03206">
        <ele>147.826</ele>
        <time>2019-04-29T08:56:33Z</time>
      </trkpt>
      <trkpt lat="43.79202" lon="5.03153">
        <ele>147.581</ele>
        <time>2019-04-29T08:56:43Z</time>
      </trkpt>
      <trkpt lat="43.79211" lon="5.03109">
        <ele>146.977</ele>
        <time>2019-04-29T08:56:53Z</time>
      </trkpt>
      <trkpt lat="43.79224" lon="5.03065">
        <ele>146.562</ele>
        <time>2019-04-29T08:57:04Z</time>
      </trkpt>
      <trkpt lat="43.79255" lon="5.03052">
        <ele>146.6</ele>
        <time>2019-04-29T08:57:15Z</time>
      </trkpt>
      <trkpt lat="43.79254" lon="5.03051">
        <ele>146.658</ele>
        <time>2019-04-29T08:57:25Z</time>
      </trkpt>
      <trkpt lat="43.79254" lon="5.03051">
        <ele>146.729</ele>
        <time>2019-04-29T08:57:35Z</time>
      </trkpt>
      <trkpt lat="43.79253" lon="5.03052">
        <ele>147.085</ele>
        <time>2019-04-29T08:57:46Z</time>
      </trkpt>
      <trkpt lat="43.79253" lon="5.03052">
        <ele>147.348</ele>
        <time>2019-04-29T08:57:57Z</time>
      </trkpt>
      <trkpt lat="43.79253" lon="5.03052">
        <ele>147.45</ele>
        <time>2019-04-29T08:58:07Z</time>
      </trkpt>
      <trkpt lat="43.79253" lon="5.03052">
        <ele>147.52</ele>
        <time>2019-04-29T08:58:18Z</time>
      </trkpt>
      <trkpt lat="43.7925" lon="5.03048">
        <ele>147.903</ele>
        <time>2019-04-29T08:58:29Z</time>
      </trkpt>
      <trkpt lat="43.79261" lon="5.03009">
        <ele>147.68</ele>
        <time>2019-04-29T08:58:39Z</time>
      </trkpt>
      <trkpt lat="43.79253" lon="5.02974">
        <ele>147.148</ele>
        <time>2019-04-29T08:58:49Z</time>
      </trkpt>
      <trkpt lat="43.79284" lon="5.02941">
        <ele>145.002</ele>
        <time>2019-04-29T08:59:00Z</time>
      </trkpt>
      <trkpt lat="43.79277" lon="5.02878">
        <ele>146.35</ele>
        <time>2019-04-29T08:59:11Z</time>
      </trkpt>
      <trkpt lat="43.79232" lon="5.02895">
        <ele>147.685</ele>
        <time>2019-04-29T08:59:22Z</time>
      </trkpt>
      <trkpt lat="43.79186" lon="5.02891">
        <ele>147.384</ele>
        <time>2019-04-29T08:59:32Z</time>
      </trkpt>
      <trkpt lat="43.7915" lon="5.02865">
        <ele>147.561</ele>
        <time>2019-04-29T08:59:43Z</time>
      </trkpt>
      <trkpt lat="43.79126" lon="5.02826">
        <ele>147.902</ele>
        <time>2019-04-29T08:59:54Z</time>
      </trkpt>
      <trkpt lat="43.79108" lon="5.02793">
        <ele>148.748</ele>
        <time>2019-04-29T09:00:04Z</time>
      </trkpt>
      <trkpt lat="43.79088" lon="5.02762">
        <ele>149.958</ele>
        <time>2019-04-29T09:00:15Z</time>
      </trkpt>
      <trkpt lat="43.79069" lon="5.02733">
        <ele>150.856</ele>
        <time>2019-04-29T09:00:25Z</time>
      </trkpt>
      <trkpt lat="43.79047" lon="5.02709">
        <ele>151.733</ele>
        <time>2019-04-29T09:00:35Z</time>
      </trkpt>
      <trkpt lat="43.7902" lon="5.02684">
        <ele>152.829</ele>
        <time>2019-04-29T09:00:46Z</time>
      </trkpt>
      <trkpt lat="43.78994" lon="5.02668">
        <ele>153.998</ele>
        <time>2019-04-29T09:00:56Z</time>
      </trkpt>
      <trkpt lat="43.78963" lon="5.02653">
        <ele>155.055</ele>
        <time>2019-04-29T09:01:07Z</time>
      </trkpt>
      <trkpt lat="43.78934" lon="5.02643">
        <ele>156.211</ele>
        <time>2019-04-29T09:01:18Z</time>
      </trkpt>
      <trkpt lat="43.78905" lon="5.02633">
        <ele>157.996</ele>
        <time>2019-04-29T09:01:29Z</time>
      </trkpt>
      <trkpt lat="43.78904" lon="5.026">
        <ele>158.919</ele>
        <time>2019-04-29T09:01:39Z</time>
      </trkpt>
      <trkpt lat="43.78904" lon="5.026">
        <ele>158.884</ele>
        <time>2019-04-29T09:01:49Z</time>
      </trkpt>
      <trkpt lat="43.78894" lon="5.02595">
        <ele>158.586</ele>
        <time>2019-04-29T09:02:00Z</time>
      </trkpt>
      <trkpt lat="43.78894" lon="5.02595">
        <ele>158.584</ele>
        <time>2019-04-29T09:02:11Z</time>
      </trkpt>
      <trkpt lat="43.78895" lon="5.02596">
        <ele>158.512</ele>
        <time>2019-04-29T09:02:22Z</time>
      </trkpt>
      <trkpt lat="43.78895" lon="5.02596">
        <ele>158.393</ele>
        <time>2019-04-29T09:02:33Z</time>
      </trkpt>
      <trkpt lat="43.78896" lon="5.02596">
        <ele>158.272</ele>
        <time>2019-04-29T09:02:43Z</time>
      </trkpt>
      <trkpt lat="43.78896" lon="5.02596">
        <ele>158.193</ele>
        <time>2019-04-29T09:02:54Z</time>
      </trkpt>
      <trkpt lat="43.78896" lon="5.02596">
        <ele>158.095</ele>
        <time>2019-04-29T09:03:05Z</time>
      </trkpt>
      <trkpt lat="43.78896" lon="5.02596">
        <ele>158.03</ele>
        <time>2019-04-29T09:03:15Z</time>
      </trkpt>
      <trkpt lat="43.78895" lon="5.02596">
        <ele>157.974</ele>
        <time>2019-04-29T09:03:26Z</time>
      </trkpt>
      <trkpt lat="43.78895" lon="5.02596">
        <ele>157.954</ele>
        <time>2019-04-29T09:03:36Z</time>
      </trkpt>
      <trkpt lat="43.78895" lon="5.02597">
        <ele>157.926</ele>
        <time>2019-04-29T09:03:47Z</time>
      </trkpt>
      <trkpt lat="43.78895" lon="5.02597">
        <ele>157.886</ele>
        <time>2019-04-29T09:03:57Z</time>
      </trkpt>
      <trkpt lat="43.78895" lon="5.02597">
        <ele>157.842</ele>
        <time>2019-04-29T09:04:08Z</time>
      </trkpt>
      <trkpt lat="43.78895" lon="5.02598">
        <ele>157.743</ele>
        <time>2019-04-29T09:04:18Z</time>
      </trkpt>
      <trkpt lat="43.78895" lon="5.02598">
        <ele>157.665</ele>
        <time>2019-04-29T09:04:29Z</time>
      </trkpt>
      <trkpt lat="43.78895" lon="5.02598">
        <ele>157.548</ele>
        <time>2019-04-29T09:04:39Z</time>
      </trkpt>
      <trkpt lat="43.78895" lon="5.02598">
        <ele>157.456</ele>
        <time>2019-04-29T09:04:50Z</time>
      </trkpt>
      <trkpt lat="43.78894" lon="5.02598">
        <ele>157.413</ele>
        <time>2019-04-29T09:05:00Z</time>
      </trkpt>
      <trkpt lat="43.78894" lon="5.02597">
        <ele>157.353</ele>
        <time>2019-04-29T09:05:11Z</time>
      </trkpt>
      <trkpt lat="43.78894" lon="5.02598">
        <ele>157.314</ele>
        <time>2019-04-29T09:05:21Z</time>
      </trkpt>
      <trkpt lat="43.78894" lon="5.02598">
        <ele>157.321</ele>
        <time>2019-04-29T09:05:32Z</time>
      </trkpt>
      <trkpt lat="43.78894" lon="5.02598">
        <ele>157.359</ele>
        <time>2019-04-29T09:05:42Z</time>
      </trkpt>
      <trkpt lat="43.78894" lon="5.02598">
        <ele>157.409</ele>
        <time>2019-04-29T09:05:53Z</time>
      </trkpt>
      <trkpt lat="43.78894" lon="5.02598">
        <ele>157.455</ele>
        <time>2019-04-29T09:06:04Z</time>
      </trkpt>
      <trkpt lat="43.78894" lon="5.02598">
        <ele>157.463</ele>
        <time>2019-04-29T09:06:15Z</time>
      </trkpt>
      <trkpt lat="43.78894" lon="5.02598">
        <ele>157.464</ele>
        <time>2019-04-29T09:06:25Z</time>
      </trkpt>
      <trkpt lat="43.78894" lon="5.02599">
        <ele>157.498</ele>
        <time>2019-04-29T09:06:35Z</time>
      </trkpt>
      <trkpt lat="43.78894" lon="5.02599">
        <ele>157.54</ele>
        <time>2019-04-29T09:06:46Z</time>
      </trkpt>
      <trkpt lat="43.78894" lon="5.02598">
        <ele>157.562</ele>
        <time>2019-04-29T09:06:56Z</time>
      </trkpt>
      <trkpt lat="43.78893" lon="5.02597">
        <ele>157.657</ele>
        <time>2019-04-29T09:07:07Z</time>
      </trkpt>
      <trkpt lat="43.78901" lon="5.02605">
        <ele>157.683</ele>
        <time>2019-04-29T09:07:18Z</time>
      </trkpt>
      <trkpt lat="43.789" lon="5.02615">
        <ele>157.843</ele>
        <time>2019-04-29T09:07:29Z</time>
      </trkpt>
      <trkpt lat="43.78886" lon="5.02624">
        <ele>158.958</ele>
        <time>2019-04-29T09:07:39Z</time>
      </trkpt>
      <trkpt lat="43.78861" lon="5.02616">
        <ele>160.552</ele>
        <time>2019-04-29T09:07:50Z</time>
      </trkpt>
      <trkpt lat="43.78837" lon="5.02606">
        <ele>162.143</ele>
        <time>2019-04-29T09:08:00Z</time>
      </trkpt>
      <trkpt lat="43.78809" lon="5.02593">
        <ele>164.028</ele>
        <time>2019-04-29T09:08:11Z</time>
      </trkpt>
      <trkpt lat="43.7878" lon="5.02583">
        <ele>165.026</ele>
        <time>2019-04-29T09:08:21Z</time>
      </trkpt>
      <trkpt lat="43.78751" lon="5.02573">
        <ele>165.669</ele>
        <time>2019-04-29T09:08:32Z</time>
      </trkpt>
      <trkpt lat="43.78721" lon="5.02566">
        <ele>165.993</ele>
        <time>2019-04-29T09:08:42Z</time>
      </trkpt>
      <trkpt lat="43.78684" lon="5.02558">
        <ele>167.019</ele>
        <time>2019-04-29T09:08:53Z</time>
      </trkpt>
      <trkpt lat="43.78651" lon="5.02544">
        <ele>168.036</ele>
        <time>2019-04-29T09:09:03Z</time>
      </trkpt>
      <trkpt lat="43.78625" lon="5.0252">
        <ele>168.856</ele>
        <time>2019-04-29T09:09:14Z</time>
      </trkpt>
      <trkpt lat="43.78599" lon="5.02491">
        <ele>169.48</ele>
        <time>2019-04-29T09:09:24Z</time>
      </trkpt>
      <trkpt lat="43.78578" lon="5.02454">
        <ele>170.094</ele>
        <time>2019-04-29T09:09:34Z</time>
      </trkpt>
      <trkpt lat="43.78556" lon="5.02408">
        <ele>168.812</ele>
        <time>2019-04-29T09:09:44Z</time>
      </trkpt>
      <trkpt lat="43.78541" lon="5.02353">
        <ele>167.518</ele>
        <time>2019-04-29T09:09:54Z</time>
      </trkpt>
      <trkpt lat="43.78524" lon="5.02286">
        <ele>165.941</ele>
        <time>2019-04-29T09:10:05Z</time>
      </trkpt>
      <trkpt lat="43.78511" lon="5.02216">
        <ele>164.042</ele>
        <time>2019-04-29T09:10:15Z</time>
      </trkpt>
      <trkpt lat="43.78495" lon="5.02132">
        <ele>165.28</ele>
        <time>2019-04-29T09:10:26Z</time>
      </trkpt>
      <trkpt lat="43.7847" lon="5.02054">
        <ele>163.583</ele>
        <time>2019-04-29T09:10:37Z</time>
      </trkpt>
      <trkpt lat="43.78451" lon="5.01985">
        <ele>162.437</ele>
        <time>2019-04-29T09:10:48Z</time>
      </trkpt>
      <trkpt lat="43.78432" lon="5.01935">
        <ele>163.228</ele>
        <time>2019-04-29T09:10:59Z</time>
      </trkpt>
      <trkpt lat="43.78449" lon="5.01917">
        <ele>163.413</ele>
        <time>2019-04-29T09:11:09Z</time>
      </trkpt>
      <trkpt lat="43.78446" lon="5.01914">
        <ele>163.438</ele>
        <time>2019-04-29T09:11:20Z</time>
      </trkpt>
      <trkpt lat="43.78446" lon="5.01913">
        <ele>163.552</ele>
        <time>2019-04-29T09:11:31Z</time>
      </trkpt>
      <trkpt lat="43.78447" lon="5.01913">
        <ele>163.451</ele>
        <time>2019-04-29T09:11:41Z</time>
      </trkpt>
      <trkpt lat="43.78447" lon="5.01914">
        <ele>163.39</ele>
        <time>2019-04-29T09:11:51Z</time>
      </trkpt>
      <trkpt lat="43.78447" lon="5.01914">
        <ele>163.261</ele>
        <time>2019-04-29T09:12:02Z</time>
      </trkpt>
      <trkpt lat="43.78448" lon="5.01914">
        <ele>163.388</ele>
        <time>2019-04-29T09:12:12Z</time>
      </trkpt>
      <trkpt lat="43.78446" lon="5.01913">
        <ele>163.282</ele>
        <time>2019-04-29T09:12:23Z</time>
      </trkpt>
      <trkpt lat="43.78444" lon="5.01921">
        <ele>163.479</ele>
        <time>2019-04-29T09:12:33Z</time>
      </trkpt>
      <trkpt lat="43.78435" lon="5.01929">
        <ele>164.022</ele>
        <time>2019-04-29T09:12:44Z</time>
      </trkpt>
      <trkpt lat="43.78429" lon="5.01926">
        <ele>165.4</ele>
        <time>2019-04-29T09:12:55Z</time>
      </trkpt>
      <trkpt lat="43.7842" lon="5.01918">
        <ele>165.395</ele>
        <time>2019-04-29T09:13:05Z</time>
      </trkpt>
      <trkpt lat="43.78405" lon="5.01858">
        <ele>164.145</ele>
        <time>2019-04-29T09:13:16Z</time>
      </trkpt>
      <trkpt lat="43.78389" lon="5.01778">
        <ele>163.708</ele>
        <time>2019-04-29T09:13:27Z</time>
      </trkpt>
      <trkpt lat="43.78372" lon="5.01708">
        <ele>163.316</ele>
        <time>2019-04-29T09:13:38Z</time>
      </trkpt>
      <trkpt lat="43.78357" lon="5.01647">
        <ele>161.205</ele>
        <time>2019-04-29T09:13:48Z</time>
      </trkpt>
      <trkpt lat="43.7834" lon="5.01577">
        <ele>160.537</ele>
        <time>2019-04-29T09:13:59Z</time>
      </trkpt>
      <trkpt lat="43.78311" lon="5.0153">
        <ele>163.083</ele>
        <time>2019-04-29T09:14:09Z</time>
      </trkpt>
      <trkpt lat="43.78278" lon="5.01498">
        <ele>165.052</ele>
        <time>2019-04-29T09:14:19Z</time>
      </trkpt>
      <trkpt lat="43.78243" lon="5.01449">
        <ele>165.505</ele>
        <time>2019-04-29T09:14:30Z</time>
      </trkpt>
      <trkpt lat="43.78219" lon="5.0139">
        <ele>162.245</ele>
        <time>2019-04-29T09:14:41Z</time>
      </trkpt>
      <trkpt lat="43.78197" lon="5.01322">
        <ele>161.596</ele>
        <time>2019-04-29T09:14:51Z</time>
      </trkpt>
      <trkpt lat="43.78159" lon="5.01243">
        <ele>161.866</ele>
        <time>2019-04-29T09:15:02Z</time>
      </trkpt>
      <trkpt lat="43.78115" lon="5.01197">
        <ele>164.265</ele>
        <time>2019-04-29T09:15:12Z</time>
      </trkpt>
      <trkpt lat="43.78079" lon="5.01141">
        <ele>166.576</ele>
        <time>2019-04-29T09:15:23Z</time>
      </trkpt>
      <trkpt lat="43.78057" lon="5.01095">
        <ele>166.036</ele>
        <time>2019-04-29T09:15:33Z</time>
      </trkpt>
      <trkpt lat="43.78026" lon="5.01041">
        <ele>165.79</ele>
        <time>2019-04-29T09:15:44Z</time>
      </trkpt>
      <trkpt lat="43.77991" lon="5.00981">
        <ele>168.056</ele>
        <time>2019-04-29T09:15:55Z</time>
      </trkpt>
      <trkpt lat="43.77963" lon="5.00913">
        <ele>166.401</ele>
        <time>2019-04-29T09:16:06Z</time>
      </trkpt>
      <trkpt lat="43.77934" lon="5.00848">
        <ele>163.199</ele>
        <time>2019-04-29T09:16:16Z</time>
      </trkpt>
      <trkpt lat="43.77898" lon="5.00774">
        <ele>166.275</ele>
        <time>2019-04-29T09:16:27Z</time>
      </trkpt>
      <trkpt lat="43.77861" lon="5.00709">
        <ele>169.744</ele>
        <time>2019-04-29T09:16:37Z</time>
      </trkpt>
      <trkpt lat="43.77821" lon="5.00633">
        <ele>168.817</ele>
        <time>2019-04-29T09:16:48Z</time>
      </trkpt>
      <trkpt lat="43.77778" lon="5.00581">
        <ele>163.812</ele>
        <time>2019-04-29T09:16:58Z</time>
      </trkpt>
      <trkpt lat="43.77734" lon="5.00517">
        <ele>163.176</ele>
        <time>2019-04-29T09:17:09Z</time>
      </trkpt>
      <trkpt lat="43.77703" lon="5.0045">
        <ele>162.366</ele>
        <time>2019-04-29T09:17:19Z</time>
      </trkpt>
      <trkpt lat="43.77667" lon="5.00384">
        <ele>161.097</ele>
        <time>2019-04-29T09:17:30Z</time>
      </trkpt>
      <trkpt lat="43.77643" lon="5.00333">
        <ele>161.819</ele>
        <time>2019-04-29T09:17:40Z</time>
      </trkpt>
      <trkpt lat="43.77619" lon="5.00277">
        <ele>163.448</ele>
        <time>2019-04-29T09:17:51Z</time>
      </trkpt>
      <trkpt lat="43.77585" lon="5.00227">
        <ele>162.576</ele>
        <time>2019-04-29T09:18:02Z</time>
      </trkpt>
      <trkpt lat="43.77558" lon="5.0018">
        <ele>162.684</ele>
        <time>2019-04-29T09:18:12Z</time>
      </trkpt>
      <trkpt lat="43.77529" lon="5.00127">
        <ele>163.81</ele>
        <time>2019-04-29T09:18:23Z</time>
      </trkpt>
      <trkpt lat="43.77501" lon="5.00078">
        <ele>164.417</ele>
        <time>2019-04-29T09:18:33Z</time>
      </trkpt>
      <trkpt lat="43.7747" lon="5.00021">
        <ele>164.598</ele>
        <time>2019-04-29T09:18:44Z</time>
      </trkpt>
      <trkpt lat="43.77443" lon="4.99952">
        <ele>163.434</ele>
        <time>2019-04-29T09:18:55Z</time>
      </trkpt>
      <trkpt lat="43.7742" lon="4.99876">
        <ele>162.245</ele>
        <time>2019-04-29T09:19:05Z</time>
      </trkpt>
      <trkpt lat="43.77394" lon="4.99806">
        <ele>162.143</ele>
        <time>2019-04-29T09:19:16Z</time>
      </trkpt>
      <trkpt lat="43.77369" lon="4.99741">
        <ele>158.981</ele>
        <time>2019-04-29T09:19:26Z</time>
      </trkpt>
      <trkpt lat="43.77347" lon="4.99679">
        <ele>158.501</ele>
        <time>2019-04-29T09:19:36Z</time>
      </trkpt>
      <trkpt lat="43.7732" lon="4.99604">
        <ele>159.041</ele>
        <time>2019-04-29T09:19:47Z</time>
      </trkpt>
      <trkpt lat="43.77292" lon="4.99523">
        <ele>158.059</ele>
        <time>2019-04-29T09:19:57Z</time>
      </trkpt>
      <trkpt lat="43.77266" lon="4.99429">
        <ele>156.991</ele>
        <time>2019-04-29T09:20:08Z</time>
      </trkpt>
      <trkpt lat="43.77253" lon="4.9935">
        <ele>155.921</ele>
        <time>2019-04-29T09:20:18Z</time>
      </trkpt>
      <trkpt lat="43.7724" lon="4.99262">
        <ele>154.194</ele>
        <time>2019-04-29T09:20:29Z</time>
      </trkpt>
      <trkpt lat="43.77237" lon="4.99185">
        <ele>153.332</ele>
        <time>2019-04-29T09:20:40Z</time>
      </trkpt>
      <trkpt lat="43.77232" lon="4.99111">
        <ele>152.984</ele>
        <time>2019-04-29T09:20:50Z</time>
      </trkpt>
      <trkpt lat="43.77226" lon="4.99048">
        <ele>152.977</ele>
        <time>2019-04-29T09:21:00Z</time>
      </trkpt>
      <trkpt lat="43.77208" lon="4.98985">
        <ele>152.945</ele>
        <time>2019-04-29T09:21:11Z</time>
      </trkpt>
      <trkpt lat="43.77178" lon="4.98939">
        <ele>153.368</ele>
        <time>2019-04-29T09:21:22Z</time>
      </trkpt>
      <trkpt lat="43.77156" lon="4.98886">
        <ele>154.227</ele>
        <time>2019-04-29T09:21:33Z</time>
      </trkpt>
      <trkpt lat="43.77138" lon="4.9884">
        <ele>154.402</ele>
        <time>2019-04-29T09:21:43Z</time>
      </trkpt>
      <trkpt lat="43.77116" lon="4.98793">
        <ele>154.67</ele>
        <time>2019-04-29T09:21:54Z</time>
      </trkpt>
      <trkpt lat="43.77093" lon="4.98741">
        <ele>156.221</ele>
        <time>2019-04-29T09:22:05Z</time>
      </trkpt>
      <trkpt lat="43.7707" lon="4.98694">
        <ele>156.943</ele>
        <time>2019-04-29T09:22:16Z</time>
      </trkpt>
      <trkpt lat="43.77049" lon="4.98658">
        <ele>157.069</ele>
        <time>2019-04-29T09:22:26Z</time>
      </trkpt>
      <trkpt lat="43.77021" lon="4.98613">
        <ele>157.586</ele>
        <time>2019-04-29T09:22:37Z</time>
      </trkpt>
      <trkpt lat="43.76995" lon="4.98564">
        <ele>158.004</ele>
        <time>2019-04-29T09:22:48Z</time>
      </trkpt>
      <trkpt lat="43.76973" lon="4.98519">
        <ele>158.659</ele>
        <time>2019-04-29T09:22:58Z</time>
      </trkpt>
      <trkpt lat="43.76947" lon="4.98476">
        <ele>159.764</ele>
        <time>2019-04-29T09:23:09Z</time>
      </trkpt>
      <trkpt lat="43.76908" lon="4.98433">
        <ele>161.489</ele>
        <time>2019-04-29T09:23:20Z</time>
      </trkpt>
      <trkpt lat="43.76875" lon="4.98396">
        <ele>161.846</ele>
        <time>2019-04-29T09:23:30Z</time>
      </trkpt>
      <trkpt lat="43.76837" lon="4.98352">
        <ele>162.599</ele>
        <time>2019-04-29T09:23:41Z</time>
      </trkpt>
      <trkpt lat="43.768" lon="4.98307">
        <ele>162.252</ele>
        <time>2019-04-29T09:23:51Z</time>
      </trkpt>
      <trkpt lat="43.76764" lon="4.98262">
        <ele>162.376</ele>
        <time>2019-04-29T09:24:01Z</time>
      </trkpt>
      <trkpt lat="43.76725" lon="4.98207">
        <ele>162.384</ele>
        <time>2019-04-29T09:24:12Z</time>
      </trkpt>
      <trkpt lat="43.76686" lon="4.9815">
        <ele>162.619</ele>
        <time>2019-04-29T09:24:23Z</time>
      </trkpt>
      <trkpt lat="43.7665" lon="4.98092">
        <ele>162.258</ele>
        <time>2019-04-29T09:24:34Z</time>
      </trkpt>
      <trkpt lat="43.76622" lon="4.98045">
        <ele>162.517</ele>
        <time>2019-04-29T09:24:44Z</time>
      </trkpt>
      <trkpt lat="43.766" lon="4.98007">
        <ele>162.668</ele>
        <time>2019-04-29T09:24:55Z</time>
      </trkpt>
      <trkpt lat="43.7658" lon="4.97966">
        <ele>163.371</ele>
        <time>2019-04-29T09:25:05Z</time>
      </trkpt>
      <trkpt lat="43.76566" lon="4.97913">
        <ele>163.657</ele>
        <time>2019-04-29T09:25:16Z</time>
      </trkpt>
      <trkpt lat="43.7655" lon="4.97858">
        <ele>164.468</ele>
        <time>2019-04-29T09:25:27Z</time>
      </trkpt>
      <trkpt lat="43.76534" lon="4.97784">
        <ele>164.139</ele>
        <time>2019-04-29T09:25:38Z</time>
      </trkpt>
      <trkpt lat="43.76519" lon="4.97708">
        <ele>161.61</ele>
        <time>2019-04-29T09:25:48Z</time>
      </trkpt>
      <trkpt lat="43.76498" lon="4.97611">
        <ele>159.442</ele>
        <time>2019-04-29T09:25:59Z</time>
      </trkpt>
      <trkpt lat="43.76482" lon="4.97521">
        <ele>158.351</ele>
        <time>2019-04-29T09:26:10Z</time>
      </trkpt>
      <trkpt lat="43.76454" lon="4.97431">
        <ele>158.238</ele>
        <time>2019-04-29T09:26:21Z</time>
      </trkpt>
      <trkpt lat="43.76424" lon="4.97338">
        <ele>157.991</ele>
        <time>2019-04-29T09:26:31Z</time>
      </trkpt>
      <trkpt lat="43.76404" lon="4.97232">
        <ele>155.448</ele>
        <time>2019-04-29T09:26:42Z</time>
      </trkpt>
      <trkpt lat="43.764" lon="4.97116">
        <ele>153.988</ele>
        <time>2019-04-29T09:26:53Z</time>
      </trkpt>
      <trkpt lat="43.76381" lon="4.97018">
        <ele>152.622</ele>
        <time>2019-04-29T09:27:04Z</time>
      </trkpt>
      <trkpt lat="43.7637" lon="4.96936">
        <ele>151.538</ele>
        <time>2019-04-29T09:27:15Z</time>
      </trkpt>
      <trkpt lat="43.76362" lon="4.96871">
        <ele>150.461</ele>
        <time>2019-04-29T09:27:26Z</time>
      </trkpt>
      <trkpt lat="43.76353" lon="4.96809">
        <ele>149.59</ele>
        <time>2019-04-29T09:27:36Z</time>
      </trkpt>
      <trkpt lat="43.76344" lon="4.96739">
        <ele>148.995</ele>
        <time>2019-04-29T09:27:47Z</time>
      </trkpt>
      <trkpt lat="43.76331" lon="4.96688">
        <ele>148.796</ele>
        <time>2019-04-29T09:27:57Z</time>
      </trkpt>
      <trkpt lat="43.76315" lon="4.96623">
        <ele>148.747</ele>
        <time>2019-04-29T09:28:08Z</time>
      </trkpt>
      <trkpt lat="43.76296" lon="4.96544">
        <ele>148.594</ele>
        <time>2019-04-29T09:28:19Z</time>
      </trkpt>
      <trkpt lat="43.76277" lon="4.9647">
        <ele>148.183</ele>
        <time>2019-04-29T09:28:30Z</time>
      </trkpt>
      <trkpt lat="43.76259" lon="4.96396">
        <ele>147.37</ele>
        <time>2019-04-29T09:28:41Z</time>
      </trkpt>
      <trkpt lat="43.76244" lon="4.96334">
        <ele>146.926</ele>
        <time>2019-04-29T09:28:51Z</time>
      </trkpt>
      <trkpt lat="43.76229" lon="4.96267">
        <ele>146.593</ele>
        <time>2019-04-29T09:29:02Z</time>
      </trkpt>
      <trkpt lat="43.76216" lon="4.96208">
        <ele>146.236</ele>
        <time>2019-04-29T09:29:12Z</time>
      </trkpt>
      <trkpt lat="43.76201" lon="4.96144">
        <ele>146.131</ele>
        <time>2019-04-29T09:29:23Z</time>
      </trkpt>
      <trkpt lat="43.76191" lon="4.96086">
        <ele>146.2</ele>
        <time>2019-04-29T09:29:33Z</time>
      </trkpt>
      <trkpt lat="43.76177" lon="4.96027">
        <ele>146.368</ele>
        <time>2019-04-29T09:29:44Z</time>
      </trkpt>
      <trkpt lat="43.76166" lon="4.95972">
        <ele>146.734</ele>
        <time>2019-04-29T09:29:54Z</time>
      </trkpt>
      <trkpt lat="43.76151" lon="4.95907">
        <ele>147.3</ele>
        <time>2019-04-29T09:30:05Z</time>
      </trkpt>
      <trkpt lat="43.76137" lon="4.95839">
        <ele>148.139</ele>
        <time>2019-04-29T09:30:16Z</time>
      </trkpt>
      <trkpt lat="43.76125" lon="4.95783">
        <ele>148.886</ele>
        <time>2019-04-29T09:30:26Z</time>
      </trkpt>
      <trkpt lat="43.76114" lon="4.95719">
        <ele>149.079</ele>
        <time>2019-04-29T09:30:37Z</time>
      </trkpt>
      <trkpt lat="43.76105" lon="4.95655">
        <ele>149.067</ele>
        <time>2019-04-29T09:30:48Z</time>
      </trkpt>
      <trkpt lat="43.761" lon="4.95591">
        <ele>149.041</ele>
        <time>2019-04-29T09:30:59Z</time>
      </trkpt>
      <trkpt lat="43.76094" lon="4.95527">
        <ele>149.402</ele>
        <time>2019-04-29T09:31:10Z</time>
      </trkpt>
      <trkpt lat="43.76086" lon="4.95463">
        <ele>150.182</ele>
        <time>2019-04-29T09:31:21Z</time>
      </trkpt>
      <trkpt lat="43.76078" lon="4.95398">
        <ele>151.036</ele>
        <time>2019-04-29T09:31:32Z</time>
      </trkpt>
      <trkpt lat="43.76072" lon="4.95342">
        <ele>151.13</ele>
        <time>2019-04-29T09:31:42Z</time>
      </trkpt>
      <trkpt lat="43.76069" lon="4.95287">
        <ele>151.243</ele>
        <time>2019-04-29T09:31:53Z</time>
      </trkpt>
      <trkpt lat="43.76066" lon="4.95237">
        <ele>151.483</ele>
        <time>2019-04-29T09:32:04Z</time>
      </trkpt>
      <trkpt lat="43.76066" lon="4.9519">
        <ele>152.607</ele>
        <time>2019-04-29T09:32:14Z</time>
      </trkpt>
      <trkpt lat="43.76066" lon="4.9514">
        <ele>153.844</ele>
        <time>2019-04-29T09:32:25Z</time>
      </trkpt>
      <trkpt lat="43.76063" lon="4.95092">
        <ele>154.812</ele>
        <time>2019-04-29T09:32:36Z</time>
      </trkpt>
      <trkpt lat="43.76071" lon="4.95048">
        <ele>155.849</ele>
        <time>2019-04-29T09:32:46Z</time>
      </trkpt>
      <trkpt lat="43.76078" lon="4.95017">
        <ele>157.152</ele>
        <time>2019-04-29T09:32:57Z</time>
      </trkpt>
      <trkpt lat="43.76069" lon="4.95003">
        <ele>158.507</ele>
        <time>2019-04-29T09:33:08Z</time>
      </trkpt>
      <trkpt lat="43.76051" lon="4.95015">
        <ele>159.414</ele>
        <time>2019-04-29T09:33:19Z</time>
      </trkpt>
      <trkpt lat="43.7605" lon="4.9501">
        <ele>160.634</ele>
        <time>2019-04-29T09:33:29Z</time>
      </trkpt>
      <trkpt lat="43.7605" lon="4.95009">
        <ele>160.79</ele>
        <time>2019-04-29T09:33:40Z</time>
      </trkpt>
      <trkpt lat="43.76051" lon="4.95008">
        <ele>160.947</ele>
        <time>2019-04-29T09:33:50Z</time>
      </trkpt>
      <trkpt lat="43.76051" lon="4.95008">
        <ele>161.059</ele>
        <time>2019-04-29T09:34:00Z</time>
      </trkpt>
      <trkpt lat="43.76052" lon="4.95007">
        <ele>161.157</ele>
        <time>2019-04-29T09:34:11Z</time>
      </trkpt>
      <trkpt lat="43.76054" lon="4.95004">
        <ele>161.503</ele>
        <time>2019-04-29T09:34:22Z</time>
      </trkpt>
      <trkpt lat="43.76058" lon="4.95004">
        <ele>162.018</ele>
        <time>2019-04-29T09:34:33Z</time>
      </trkpt>
      <trkpt lat="43.7606" lon="4.95006">
        <ele>162.43</ele>
        <time>2019-04-29T09:34:44Z</time>
      </trkpt>
      <trkpt lat="43.7606" lon="4.95004">
        <ele>162.474</ele>
        <time>2019-04-29T09:34:55Z</time>
      </trkpt>
      <trkpt lat="43.7606" lon="4.95005">
        <ele>162.549</ele>
        <time>2019-04-29T09:35:06Z</time>
      </trkpt>
      <trkpt lat="43.76061" lon="4.95005">
        <ele>162.512</ele>
        <time>2019-04-29T09:35:17Z</time>
      </trkpt>
      <trkpt lat="43.76058" lon="4.95009">
        <ele>162.371</ele>
        <time>2019-04-29T09:35:28Z</time>
      </trkpt>
      <trkpt lat="43.76057" lon="4.95012">
        <ele>162.652</ele>
        <time>2019-04-29T09:35:38Z</time>
      </trkpt>
      <trkpt lat="43.76057" lon="4.95012">
        <ele>162.697</ele>
        <time>2019-04-29T09:35:48Z</time>
      </trkpt>
      <trkpt lat="43.76058" lon="4.95014">
        <ele>163.042</ele>
        <time>2019-04-29T09:35:59Z</time>
      </trkpt>
      <trkpt lat="43.76057" lon="4.95013">
        <ele>163.295</ele>
        <time>2019-04-29T09:36:09Z</time>
      </trkpt>
      <trkpt lat="43.76058" lon="4.95017">
        <ele>169.161</ele>
        <time>2019-04-29T09:36:20Z</time>
      </trkpt>
      <trkpt lat="43.76055" lon="4.95016">
        <ele>170.935</ele>
        <time>2019-04-29T09:36:31Z</time>
      </trkpt>
      <trkpt lat="43.76055" lon="4.95016">
        <ele>170.922</ele>
        <time>2019-04-29T09:36:42Z</time>
      </trkpt>
      <trkpt lat="43.76055" lon="4.95016">
        <ele>170.894</ele>
        <time>2019-04-29T09:36:52Z</time>
      </trkpt>
      <trkpt lat="43.76055" lon="4.95015">
        <ele>170.782</ele>
        <time>2019-04-29T09:37:03Z</time>
      </trkpt>
      <trkpt lat="43.76055" lon="4.95014">
        <ele>170.706</ele>
        <time>2019-04-29T09:37:13Z</time>
      </trkpt>
      <trkpt lat="43.76055" lon="4.95013">
        <ele>170.723</ele>
        <time>2019-04-29T09:37:24Z</time>
      </trkpt>
      <trkpt lat="43.76056" lon="4.95013">
        <ele>170.843</ele>
        <time>2019-04-29T09:37:35Z</time>
      </trkpt>
      <trkpt lat="43.76056" lon="4.95012">
        <ele>170.932</ele>
        <time>2019-04-29T09:37:46Z</time>
      </trkpt>
      <trkpt lat="43.76056" lon="4.95011">
        <ele>170.935</ele>
        <time>2019-04-29T09:37:56Z</time>
      </trkpt>
      <trkpt lat="43.76057" lon="4.9501">
        <ele>170.883</ele>
        <time>2019-04-29T09:38:07Z</time>
      </trkpt>
      <trkpt lat="43.76057" lon="4.95009">
        <ele>170.616</ele>
        <time>2019-04-29T09:38:18Z</time>
      </trkpt>
      <trkpt lat="43.76054" lon="4.95009">
        <ele>169.937</ele>
        <time>2019-04-29T09:38:28Z</time>
      </trkpt>
      <trkpt lat="43.76057" lon="4.9502">
        <ele>169.642</ele>
        <time>2019-04-29T09:38:39Z</time>
      </trkpt>
      <trkpt lat="43.76062" lon="4.95006">
        <ele>169.031</ele>
        <time>2019-04-29T09:38:50Z</time>
      </trkpt>
      <trkpt lat="43.76062" lon="4.95004">
        <ele>168.577</ele>
        <time>2019-04-29T09:39:00Z</time>
      </trkpt>
      <trkpt lat="43.76062" lon="4.95003">
        <ele>168.472</ele>
        <time>2019-04-29T09:39:11Z</time>
      </trkpt>
      <trkpt lat="43.76062" lon="4.95003">
        <ele>168.39</ele>
        <time>2019-04-29T09:39:21Z</time>
      </trkpt>
      <trkpt lat="43.76063" lon="4.95006">
        <ele>168.341</ele>
        <time>2019-04-29T09:39:32Z</time>
      </trkpt>
      <trkpt lat="43.76063" lon="4.95007">
        <ele>168.14</ele>
        <time>2019-04-29T09:39:42Z</time>
      </trkpt>
      <trkpt lat="43.76063" lon="4.95007">
        <ele>167.912</ele>
        <time>2019-04-29T09:39:53Z</time>
      </trkpt>
      <trkpt lat="43.76064" lon="4.95007">
        <ele>167.811</ele>
        <time>2019-04-29T09:40:03Z</time>
      </trkpt>
      <trkpt lat="43.76069" lon="4.95005">
        <ele>169.867</ele>
        <time>2019-04-29T09:40:13Z</time>
      </trkpt>
      <trkpt lat="43.76063" lon="4.95001">
        <ele>169.817</ele>
        <time>2019-04-29T09:40:24Z</time>
      </trkpt>
      <trkpt lat="43.76063" lon="4.95001">
        <ele>169.6</ele>
        <time>2019-04-29T09:40:34Z</time>
      </trkpt>
      <trkpt lat="43.76062" lon="4.95001">
        <ele>169.012</ele>
        <time>2019-04-29T09:40:45Z</time>
      </trkpt>
      <trkpt lat="43.76062" lon="4.95">
        <ele>168.8</ele>
        <time>2019-04-29T09:40:55Z</time>
      </trkpt>
      <trkpt lat="43.76062" lon="4.95">
        <ele>168.55</ele>
        <time>2019-04-29T09:41:06Z</time>
      </trkpt>
      <trkpt lat="43.76062" lon="4.95">
        <ele>168.294</ele>
        <time>2019-04-29T09:41:17Z</time>
      </trkpt>
      <trkpt lat="43.76062" lon="4.95">
        <ele>168.045</ele>
        <time>2019-04-29T09:41:28Z</time>
      </trkpt>
      <trkpt lat="43.76062" lon="4.95">
        <ele>167.824</ele>
        <time>2019-04-29T09:41:38Z</time>
      </trkpt>
      <trkpt lat="43.76062" lon="4.95">
        <ele>167.594</ele>
        <time>2019-04-29T09:41:49Z</time>
      </trkpt>
      <trkpt lat="43.76062" lon="4.95">
        <ele>167.184</ele>
        <time>2019-04-29T09:42:00Z</time>
      </trkpt>
      <trkpt lat="43.76062" lon="4.95">
        <ele>166.947</ele>
        <time>2019-04-29T09:42:11Z</time>
      </trkpt>
      <trkpt lat="43.76061" lon="4.94999">
        <ele>166.528</ele>
        <time>2019-04-29T09:42:22Z</time>
      </trkpt>
      <trkpt lat="43.76062" lon="4.94999">
        <ele>166.312</ele>
        <time>2019-04-29T09:42:33Z</time>
      </trkpt>
      <trkpt lat="43.76062" lon="4.95">
        <ele>166.098</ele>
        <time>2019-04-29T09:42:44Z</time>
      </trkpt>
      <trkpt lat="43.76062" lon="4.95">
        <ele>165.911</ele>
        <time>2019-04-29T09:42:54Z</time>
      </trkpt>
      <trkpt lat="43.76062" lon="4.95">
        <ele>165.706</ele>
        <time>2019-04-29T09:43:05Z</time>
      </trkpt>
      <trkpt lat="43.76062" lon="4.95">
        <ele>165.538</ele>
        <time>2019-04-29T09:43:15Z</time>
      </trkpt>
      <trkpt lat="43.76061" lon="4.95">
        <ele>165.33</ele>
        <time>2019-04-29T09:43:26Z</time>
      </trkpt>
      <trkpt lat="43.76061" lon="4.95">
        <ele>165.114</ele>
        <time>2019-04-29T09:43:37Z</time>
      </trkpt>
      <trkpt lat="43.76061" lon="4.95">
        <ele>164.936</ele>
        <time>2019-04-29T09:43:48Z</time>
      </trkpt>
      <trkpt lat="43.76061" lon="4.95001">
        <ele>164.79</ele>
        <time>2019-04-29T09:43:59Z</time>
      </trkpt>
      <trkpt lat="43.76061" lon="4.95001">
        <ele>164.659</ele>
        <time>2019-04-29T09:44:10Z</time>
      </trkpt>
      <trkpt lat="43.76061" lon="4.95001">
        <ele>164.551</ele>
        <time>2019-04-29T09:44:21Z</time>
      </trkpt>
      <trkpt lat="43.76061" lon="4.95002">
        <ele>164.473</ele>
        <time>2019-04-29T09:44:31Z</time>
      </trkpt>
      <trkpt lat="43.76061" lon="4.95002">
        <ele>164.379</ele>
        <time>2019-04-29T09:44:42Z</time>
      </trkpt>
      <trkpt lat="43.76061" lon="4.95003">
        <ele>164.302</ele>
        <time>2019-04-29T09:44:53Z</time>
      </trkpt>
      <trkpt lat="43.76061" lon="4.95003">
        <ele>164.312</ele>
        <time>2019-04-29T09:45:03Z</time>
      </trkpt>
      <trkpt lat="43.76061" lon="4.95003">
        <ele>164.213</ele>
        <time>2019-04-29T09:45:14Z</time>
      </trkpt>
      <trkpt lat="43.7606" lon="4.95003">
        <ele>163.813</ele>
        <time>2019-04-29T09:45:24Z</time>
      </trkpt>
      <trkpt lat="43.7606" lon="4.95003">
        <ele>163.687</ele>
        <time>2019-04-29T09:45:35Z</time>
      </trkpt>
      <trkpt lat="43.7606" lon="4.95003">
        <ele>163.599</ele>
        <time>2019-04-29T09:45:46Z</time>
      </trkpt>
      <trkpt lat="43.7606" lon="4.95003">
        <ele>163.45</ele>
        <time>2019-04-29T09:45:57Z</time>
      </trkpt>
      <trkpt lat="43.76061" lon="4.95003">
        <ele>163.315</ele>
        <time>2019-04-29T09:46:08Z</time>
      </trkpt>
      <trkpt lat="43.76061" lon="4.95003">
        <ele>163.128</ele>
        <time>2019-04-29T09:46:19Z</time>
      </trkpt>
      <trkpt lat="43.7606" lon="4.95002">
        <ele>162.989</ele>
        <time>2019-04-29T09:46:29Z</time>
      </trkpt>
      <trkpt lat="43.76061" lon="4.95002">
        <ele>162.849</ele>
        <time>2019-04-29T09:46:40Z</time>
      </trkpt>
      <trkpt lat="43.76061" lon="4.95003">
        <ele>162.852</ele>
        <time>2019-04-29T09:46:50Z</time>
      </trkpt>
      <trkpt lat="43.76061" lon="4.95003">
        <ele>162.77</ele>
        <time>2019-04-29T09:47:01Z</time>
      </trkpt>
      <trkpt lat="43.76061" lon="4.95003">
        <ele>162.689</ele>
        <time>2019-04-29T09:47:12Z</time>
      </trkpt>
      <trkpt lat="43.76061" lon="4.95003">
        <ele>162.603</ele>
        <time>2019-04-29T09:47:23Z</time>
      </trkpt>
      <trkpt lat="43.76061" lon="4.95003">
        <ele>162.554</ele>
        <time>2019-04-29T09:47:33Z</time>
      </trkpt>
      <trkpt lat="43.76061" lon="4.95003">
        <ele>162.505</ele>
        <time>2019-04-29T09:47:44Z</time>
      </trkpt>
      <trkpt lat="43.7606" lon="4.95003">
        <ele>162.502</ele>
        <time>2019-04-29T09:47:54Z</time>
      </trkpt>
      <trkpt lat="43.7606" lon="4.95004">
        <ele>162.473</ele>
        <time>2019-04-29T09:48:05Z</time>
      </trkpt>
      <trkpt lat="43.7606" lon="4.95003">
        <ele>162.369</ele>
        <time>2019-04-29T09:48:16Z</time>
      </trkpt>
      <trkpt lat="43.7606" lon="4.95003">
        <ele>162.241</ele>
        <time>2019-04-29T09:48:27Z</time>
      </trkpt>
      <trkpt lat="43.7606" lon="4.95003">
        <ele>162.198</ele>
        <time>2019-04-29T09:48:37Z</time>
      </trkpt>
      <trkpt lat="43.7606" lon="4.95004">
        <ele>162.216</ele>
        <time>2019-04-29T09:48:47Z</time>
      </trkpt>
      <trkpt lat="43.7606" lon="4.95006">
        <ele>162.297</ele>
        <time>2019-04-29T09:48:57Z</time>
      </trkpt>
      <trkpt lat="43.7606" lon="4.95007">
        <ele>162.41</ele>
        <time>2019-04-29T09:49:08Z</time>
      </trkpt>
      <trkpt lat="43.7606" lon="4.95007">
        <ele>162.511</ele>
        <time>2019-04-29T09:49:18Z</time>
      </trkpt>
      <trkpt lat="43.7606" lon="4.95008">
        <ele>162.617</ele>
        <time>2019-04-29T09:49:29Z</time>
      </trkpt>
      <trkpt lat="43.76059" lon="4.95009">
        <ele>162.716</ele>
        <time>2019-04-29T09:49:39Z</time>
      </trkpt>
      <trkpt lat="43.76059" lon="4.95009">
        <ele>162.816</ele>
        <time>2019-04-29T09:49:50Z</time>
      </trkpt>
      <trkpt lat="43.76059" lon="4.95009">
        <ele>162.843</ele>
        <time>2019-04-29T09:50:00Z</time>
      </trkpt>
      <trkpt lat="43.7606" lon="4.95008">
        <ele>162.818</ele>
        <time>2019-04-29T09:50:11Z</time>
      </trkpt>
      <trkpt lat="43.7606" lon="4.95008">
        <ele>162.754</ele>
        <time>2019-04-29T09:50:22Z</time>
      </trkpt>
      <trkpt lat="43.76061" lon="4.95007">
        <ele>162.565</ele>
        <time>2019-04-29T09:50:32Z</time>
      </trkpt>
      <trkpt lat="43.76061" lon="4.95006">
        <ele>162.497</ele>
        <time>2019-04-29T09:50:43Z</time>
      </trkpt>
      <trkpt lat="43.7606" lon="4.95006">
        <ele>162.494</ele>
        <time>2019-04-29T09:50:54Z</time>
      </trkpt>
      <trkpt lat="43.7606" lon="4.95005">
        <ele>162.502</ele>
        <time>2019-04-29T09:51:04Z</time>
      </trkpt>
      <trkpt lat="43.7606" lon="4.95005">
        <ele>162.505</ele>
        <time>2019-04-29T09:51:15Z</time>
      </trkpt>
      <trkpt lat="43.7606" lon="4.95005">
        <ele>162.501</ele>
        <time>2019-04-29T09:51:25Z</time>
      </trkpt>
      <trkpt lat="43.7606" lon="4.95005">
        <ele>162.497</ele>
        <time>2019-04-29T09:51:35Z</time>
      </trkpt>
      <trkpt lat="43.76059" lon="4.95005">
        <ele>162.5</ele>
        <time>2019-04-29T09:51:46Z</time>
      </trkpt>
      <trkpt lat="43.76059" lon="4.95005">
        <ele>162.504</ele>
        <time>2019-04-29T09:51:57Z</time>
      </trkpt>
      <trkpt lat="43.76059" lon="4.95005">
        <ele>162.501</ele>
        <time>2019-04-29T09:52:08Z</time>
      </trkpt>
      <trkpt lat="43.76059" lon="4.95005">
        <ele>162.51</ele>
        <time>2019-04-29T09:52:18Z</time>
      </trkpt>
      <trkpt lat="43.76059" lon="4.95005">
        <ele>162.496</ele>
        <time>2019-04-29T09:52:29Z</time>
      </trkpt>
      <trkpt lat="43.76059" lon="4.95005">
        <ele>162.479</ele>
        <time>2019-04-29T09:52:40Z</time>
      </trkpt>
      <trkpt lat="43.76053" lon="4.95006">
        <ele>162.523</ele>
        <time>2019-04-29T09:52:51Z</time>
      </trkpt>
      <trkpt lat="43.76053" lon="4.95006">
        <ele>162.776</ele>
        <time>2019-04-29T09:53:02Z</time>
      </trkpt>
      <trkpt lat="43.76053" lon="4.95007">
        <ele>162.917</ele>
        <time>2019-04-29T09:53:13Z</time>
      </trkpt>
      <trkpt lat="43.76053" lon="4.95009">
        <ele>163.269</ele>
        <time>2019-04-29T09:53:24Z</time>
      </trkpt>
      <trkpt lat="43.76053" lon="4.95009">
        <ele>163.493</ele>
        <time>2019-04-29T09:53:34Z</time>
      </trkpt>
      <trkpt lat="43.76053" lon="4.95008">
        <ele>163.699</ele>
        <time>2019-04-29T09:53:45Z</time>
      </trkpt>
      <trkpt lat="43.76052" lon="4.95006">
        <ele>164.18</ele>
        <time>2019-04-29T09:53:56Z</time>
      </trkpt>
      <trkpt lat="43.76057" lon="4.95011">
        <ele>165.152</ele>
        <time>2019-04-29T09:54:06Z</time>
      </trkpt>
      <trkpt lat="43.76071" lon="4.95014">
        <ele>164.98</ele>
        <time>2019-04-29T09:54:16Z</time>
      </trkpt>
      <trkpt lat="43.76091" lon="4.94995">
        <ele>164.008</ele>
        <time>2019-04-29T09:54:27Z</time>
      </trkpt>
      <trkpt lat="43.76119" lon="4.94971">
        <ele>163.779</ele>
        <time>2019-04-29T09:54:38Z</time>
      </trkpt>
      <trkpt lat="43.76142" lon="4.94952">
        <ele>163.811</ele>
        <time>2019-04-29T09:54:48Z</time>
      </trkpt>
      <trkpt lat="43.76163" lon="4.94934">
        <ele>164.043</ele>
        <time>2019-04-29T09:54:58Z</time>
      </trkpt>
      <trkpt lat="43.76183" lon="4.9492">
        <ele>164.088</ele>
        <time>2019-04-29T09:55:08Z</time>
      </trkpt>
      <trkpt lat="43.76204" lon="4.94909">
        <ele>164.217</ele>
        <time>2019-04-29T09:55:19Z</time>
      </trkpt>
      <trkpt lat="43.76216" lon="4.94899">
        <ele>165.305</ele>
        <time>2019-04-29T09:55:30Z</time>
      </trkpt>
      <trkpt lat="43.7622" lon="4.94897">
        <ele>165.719</ele>
        <time>2019-04-29T09:55:41Z</time>
      </trkpt>
      <trkpt lat="43.7622" lon="4.94902">
        <ele>166.915</ele>
        <time>2019-04-29T09:55:51Z</time>
      </trkpt>
      <trkpt lat="43.76223" lon="4.94899">
        <ele>168.102</ele>
        <time>2019-04-29T09:56:02Z</time>
      </trkpt>
      <trkpt lat="43.76223" lon="4.94898">
        <ele>168.277</ele>
        <time>2019-04-29T09:56:13Z</time>
      </trkpt>
      <trkpt lat="43.76224" lon="4.94898">
        <ele>168.321</ele>
        <time>2019-04-29T09:56:24Z</time>
      </trkpt>
      <trkpt lat="43.76224" lon="4.94897">
        <ele>168.478</ele>
        <time>2019-04-29T09:56:34Z</time>
      </trkpt>
      <trkpt lat="43.76224" lon="4.94896">
        <ele>168.624</ele>
        <time>2019-04-29T09:56:45Z</time>
      </trkpt>
      <trkpt lat="43.76224" lon="4.94895">
        <ele>168.73</ele>
        <time>2019-04-29T09:56:56Z</time>
      </trkpt>
      <trkpt lat="43.76224" lon="4.94894">
        <ele>168.881</ele>
        <time>2019-04-29T09:57:06Z</time>
      </trkpt>
      <trkpt lat="43.76224" lon="4.94894">
        <ele>169.058</ele>
        <time>2019-04-29T09:57:17Z</time>
      </trkpt>
      <trkpt lat="43.76222" lon="4.94898">
        <ele>169.753</ele>
        <time>2019-04-29T09:57:27Z</time>
      </trkpt>
      <trkpt lat="43.7621" lon="4.94905">
        <ele>170.207</ele>
        <time>2019-04-29T09:57:37Z</time>
      </trkpt>
      <trkpt lat="43.76208" lon="4.94871">
        <ele>170.174</ele>
        <time>2019-04-29T09:57:47Z</time>
      </trkpt>
      <trkpt lat="43.76206" lon="4.9482">
        <ele>168.04</ele>
        <time>2019-04-29T09:57:58Z</time>
      </trkpt>
      <trkpt lat="43.76211" lon="4.94807">
        <ele>167.836</ele>
        <time>2019-04-29T09:58:08Z</time>
      </trkpt>
      <trkpt lat="43.76199" lon="4.94805">
        <ele>167.79</ele>
        <time>2019-04-29T09:58:19Z</time>
      </trkpt>
      <trkpt lat="43.76173" lon="4.94821">
        <ele>166.449</ele>
        <time>2019-04-29T09:58:29Z</time>
      </trkpt>
      <trkpt lat="43.76126" lon="4.94841">
        <ele>162.325</ele>
        <time>2019-04-29T09:58:40Z</time>
      </trkpt>
      <trkpt lat="43.76089" lon="4.94843">
        <ele>161.358</ele>
        <time>2019-04-29T09:58:50Z</time>
      </trkpt>
      <trkpt lat="43.76069" lon="4.94812">
        <ele>160.833</ele>
        <time>2019-04-29T09:59:00Z</time>
      </trkpt>
      <trkpt lat="43.76069" lon="4.94758">
        <ele>159.701</ele>
        <time>2019-04-29T09:59:11Z</time>
      </trkpt>
      <trkpt lat="43.76068" lon="4.94702">
        <ele>156.816</ele>
        <time>2019-04-29T09:59:21Z</time>
      </trkpt>
      <trkpt lat="43.76069" lon="4.94644">
        <ele>155.521</ele>
        <time>2019-04-29T09:59:32Z</time>
      </trkpt>
      <trkpt lat="43.76071" lon="4.94577">
        <ele>156.464</ele>
        <time>2019-04-29T09:59:43Z</time>
      </trkpt>
      <trkpt lat="43.76075" lon="4.94576">
        <ele>156.151</ele>
        <time>2019-04-29T09:59:53Z</time>
      </trkpt>
      <trkpt lat="43.76071" lon="4.94582">
        <ele>156.306</ele>
        <time>2019-04-29T10:00:04Z</time>
      </trkpt>
      <trkpt lat="43.76072" lon="4.94582">
        <ele>156.263</ele>
        <time>2019-04-29T10:00:14Z</time>
      </trkpt>
      <trkpt lat="43.76071" lon="4.94581">
        <ele>156.203</ele>
        <time>2019-04-29T10:00:24Z</time>
      </trkpt>
      <trkpt lat="43.76071" lon="4.94578">
        <ele>156.042</ele>
        <time>2019-04-29T10:00:35Z</time>
      </trkpt>
      <trkpt lat="43.76068" lon="4.9455">
        <ele>156.208</ele>
        <time>2019-04-29T10:00:45Z</time>
      </trkpt>
      <trkpt lat="43.76064" lon="4.94498">
        <ele>156.06</ele>
        <time>2019-04-29T10:00:55Z</time>
      </trkpt>
      <trkpt lat="43.76059" lon="4.94438">
        <ele>149.999</ele>
        <time>2019-04-29T10:01:05Z</time>
      </trkpt>
      <trkpt lat="43.76063" lon="4.94369">
        <ele>153.213</ele>
        <time>2019-04-29T10:01:16Z</time>
      </trkpt>
      <trkpt lat="43.76069" lon="4.94303">
        <ele>152.805</ele>
        <time>2019-04-29T10:01:26Z</time>
      </trkpt>
      <trkpt lat="43.76078" lon="4.94237">
        <ele>152.423</ele>
        <time>2019-04-29T10:01:36Z</time>
      </trkpt>
      <trkpt lat="43.7609" lon="4.94176">
        <ele>155.266</ele>
        <time>2019-04-29T10:01:46Z</time>
      </trkpt>
      <trkpt lat="43.76095" lon="4.94103">
        <ele>154.199</ele>
        <time>2019-04-29T10:01:57Z</time>
      </trkpt>
      <trkpt lat="43.76106" lon="4.9403">
        <ele>151.065</ele>
        <time>2019-04-29T10:02:08Z</time>
      </trkpt>
      <trkpt lat="43.76122" lon="4.93961">
        <ele>150.216</ele>
        <time>2019-04-29T10:02:19Z</time>
      </trkpt>
      <trkpt lat="43.76147" lon="4.93892">
        <ele>151.097</ele>
        <time>2019-04-29T10:02:30Z</time>
      </trkpt>
      <trkpt lat="43.7617" lon="4.93826">
        <ele>151.796</ele>
        <time>2019-04-29T10:02:41Z</time>
      </trkpt>
      <trkpt lat="43.76195" lon="4.93773">
        <ele>151.874</ele>
        <time>2019-04-29T10:02:51Z</time>
      </trkpt>
      <trkpt lat="43.76218" lon="4.93721">
        <ele>148.561</ele>
        <time>2019-04-29T10:03:02Z</time>
      </trkpt>
      <trkpt lat="43.76234" lon="4.93669">
        <ele>149.696</ele>
        <time>2019-04-29T10:03:13Z</time>
      </trkpt>
      <trkpt lat="43.76244" lon="4.93619">
        <ele>151.657</ele>
        <time>2019-04-29T10:03:24Z</time>
      </trkpt>
      <trkpt lat="43.76252" lon="4.93562">
        <ele>152.294</ele>
        <time>2019-04-29T10:03:35Z</time>
      </trkpt>
      <trkpt lat="43.76262" lon="4.93509">
        <ele>151.078</ele>
        <time>2019-04-29T10:03:46Z</time>
      </trkpt>
      <trkpt lat="43.76271" lon="4.93496">
        <ele>151.847</ele>
        <time>2019-04-29T10:03:57Z</time>
      </trkpt>
      <trkpt lat="43.76283" lon="4.93415">
        <ele>145.707</ele>
        <time>2019-04-29T10:04:07Z</time>
      </trkpt>
      <trkpt lat="43.76294" lon="4.93329">
        <ele>144.266</ele>
        <time>2019-04-29T10:04:17Z</time>
      </trkpt>
      <trkpt lat="43.7633" lon="4.93263">
        <ele>145.923</ele>
        <time>2019-04-29T10:04:28Z</time>
      </trkpt>
      <trkpt lat="43.76356" lon="4.93207">
        <ele>148.782</ele>
        <time>2019-04-29T10:04:38Z</time>
      </trkpt>
      <trkpt lat="43.76373" lon="4.93143">
        <ele>148.15</ele>
        <time>2019-04-29T10:04:49Z</time>
      </trkpt>
      <trkpt lat="43.76402" lon="4.93091">
        <ele>147.186</ele>
        <time>2019-04-29T10:05:00Z</time>
      </trkpt>
      <trkpt lat="43.76427" lon="4.93045">
        <ele>147.017</ele>
        <time>2019-04-29T10:05:11Z</time>
      </trkpt>
      <trkpt lat="43.76448" lon="4.93008">
        <ele>147.511</ele>
        <time>2019-04-29T10:05:21Z</time>
      </trkpt>
      <trkpt lat="43.76473" lon="4.92956">
        <ele>148.511</ele>
        <time>2019-04-29T10:05:32Z</time>
      </trkpt>
      <trkpt lat="43.765" lon="4.92907">
        <ele>148.792</ele>
        <time>2019-04-29T10:05:43Z</time>
      </trkpt>
      <trkpt lat="43.76536" lon="4.92841">
        <ele>147.694</ele>
        <time>2019-04-29T10:05:54Z</time>
      </trkpt>
      <trkpt lat="43.76572" lon="4.92774">
        <ele>147.219</ele>
        <time>2019-04-29T10:06:05Z</time>
      </trkpt>
      <trkpt lat="43.76605" lon="4.92723">
        <ele>145.982</ele>
        <time>2019-04-29T10:06:15Z</time>
      </trkpt>
      <trkpt lat="43.76629" lon="4.92679">
        <ele>145.073</ele>
        <time>2019-04-29T10:06:26Z</time>
      </trkpt>
      <trkpt lat="43.76646" lon="4.92648">
        <ele>145.28</ele>
        <time>2019-04-29T10:06:36Z</time>
      </trkpt>
      <trkpt lat="43.76653" lon="4.92612">
        <ele>145.133</ele>
        <time>2019-04-29T10:06:47Z</time>
      </trkpt>
      <trkpt lat="43.76626" lon="4.92605">
        <ele>144.721</ele>
        <time>2019-04-29T10:06:57Z</time>
      </trkpt>
      <trkpt lat="43.76597" lon="4.92599">
        <ele>145.135</ele>
        <time>2019-04-29T10:07:07Z</time>
      </trkpt>
      <trkpt lat="43.76568" lon="4.92592">
        <ele>146.192</ele>
        <time>2019-04-29T10:07:18Z</time>
      </trkpt>
      <trkpt lat="43.76536" lon="4.92586">
        <ele>148.736</ele>
        <time>2019-04-29T10:07:28Z</time>
      </trkpt>
      <trkpt lat="43.76503" lon="4.92577">
        <ele>149.2</ele>
        <time>2019-04-29T10:07:39Z</time>
      </trkpt>
      <trkpt lat="43.76468" lon="4.92572">
        <ele>151.19</ele>
        <time>2019-04-29T10:07:49Z</time>
      </trkpt>
      <trkpt lat="43.76433" lon="4.92566">
        <ele>151.064</ele>
        <time>2019-04-29T10:07:59Z</time>
      </trkpt>
      <trkpt lat="43.76401" lon="4.92567">
        <ele>151.526</ele>
        <time>2019-04-29T10:08:10Z</time>
      </trkpt>
      <trkpt lat="43.76362" lon="4.92562">
        <ele>152.173</ele>
        <time>2019-04-29T10:08:21Z</time>
      </trkpt>
      <trkpt lat="43.76327" lon="4.92557">
        <ele>153.109</ele>
        <time>2019-04-29T10:08:31Z</time>
      </trkpt>
      <trkpt lat="43.76297" lon="4.92557">
        <ele>154.181</ele>
        <time>2019-04-29T10:08:42Z</time>
      </trkpt>
      <trkpt lat="43.76263" lon="4.92554">
        <ele>154.977</ele>
        <time>2019-04-29T10:08:52Z</time>
      </trkpt>
      <trkpt lat="43.76229" lon="4.9255">
        <ele>156.117</ele>
        <time>2019-04-29T10:09:03Z</time>
      </trkpt>
      <trkpt lat="43.76191" lon="4.92546">
        <ele>157.463</ele>
        <time>2019-04-29T10:09:14Z</time>
      </trkpt>
      <trkpt lat="43.76161" lon="4.92545">
        <ele>159.167</ele>
        <time>2019-04-29T10:09:24Z</time>
      </trkpt>
      <trkpt lat="43.76129" lon="4.92541">
        <ele>160.621</ele>
        <time>2019-04-29T10:09:35Z</time>
      </trkpt>
      <trkpt lat="43.76092" lon="4.92538">
        <ele>162.048</ele>
        <time>2019-04-29T10:09:46Z</time>
      </trkpt>
      <trkpt lat="43.76058" lon="4.92533">
        <ele>164.026</ele>
        <time>2019-04-29T10:09:57Z</time>
      </trkpt>
      <trkpt lat="43.76035" lon="4.92534">
        <ele>165.491</ele>
        <time>2019-04-29T10:10:07Z</time>
      </trkpt>
      <trkpt lat="43.76007" lon="4.92528">
        <ele>170.534</ele>
        <time>2019-04-29T10:10:18Z</time>
      </trkpt>
      <trkpt lat="43.75955" lon="4.92528">
        <ele>172.286</ele>
        <time>2019-04-29T10:10:28Z</time>
      </trkpt>
      <trkpt lat="43.75898" lon="4.92516">
        <ele>174.465</ele>
        <time>2019-04-29T10:10:39Z</time>
      </trkpt>
      <trkpt lat="43.7584" lon="4.92507">
        <ele>171.862</ele>
        <time>2019-04-29T10:10:50Z</time>
      </trkpt>
      <trkpt lat="43.75789" lon="4.92494">
        <ele>170.998</ele>
        <time>2019-04-29T10:11:00Z</time>
      </trkpt>
      <trkpt lat="43.75737" lon="4.92482">
        <ele>171.104</ele>
        <time>2019-04-29T10:11:10Z</time>
      </trkpt>
      <trkpt lat="43.75677" lon="4.92468">
        <ele>171.208</ele>
        <time>2019-04-29T10:11:21Z</time>
      </trkpt>
      <trkpt lat="43.7562" lon="4.9246">
        <ele>172.118</ele>
        <time>2019-04-29T10:11:31Z</time>
      </trkpt>
      <trkpt lat="43.75556" lon="4.92452">
        <ele>172.292</ele>
        <time>2019-04-29T10:11:42Z</time>
      </trkpt>
      <trkpt lat="43.75498" lon="4.92428">
        <ele>172.341</ele>
        <time>2019-04-29T10:11:52Z</time>
      </trkpt>
      <trkpt lat="43.75444" lon="4.92394">
        <ele>173.679</ele>
        <time>2019-04-29T10:12:03Z</time>
      </trkpt>
      <trkpt lat="43.75399" lon="4.92364">
        <ele>175.215</ele>
        <time>2019-04-29T10:12:14Z</time>
      </trkpt>
      <trkpt lat="43.75356" lon="4.92338">
        <ele>176.084</ele>
        <time>2019-04-29T10:12:25Z</time>
      </trkpt>
      <trkpt lat="43.75315" lon="4.92313">
        <ele>176.68</ele>
        <time>2019-04-29T10:12:35Z</time>
      </trkpt>
      <trkpt lat="43.75272" lon="4.92286">
        <ele>177.241</ele>
        <time>2019-04-29T10:12:46Z</time>
      </trkpt>
      <trkpt lat="43.75234" lon="4.92261">
        <ele>177.972</ele>
        <time>2019-04-29T10:12:57Z</time>
      </trkpt>
      <trkpt lat="43.75197" lon="4.92242">
        <ele>178.644</ele>
        <time>2019-04-29T10:13:07Z</time>
      </trkpt>
      <trkpt lat="43.75156" lon="4.92233">
        <ele>179.01</ele>
        <time>2019-04-29T10:13:18Z</time>
      </trkpt>
      <trkpt lat="43.75122" lon="4.92233">
        <ele>179.345</ele>
        <time>2019-04-29T10:13:29Z</time>
      </trkpt>
      <trkpt lat="43.75091" lon="4.92229">
        <ele>179.814</ele>
        <time>2019-04-29T10:13:40Z</time>
      </trkpt>
      <trkpt lat="43.7506" lon="4.92214">
        <ele>180.547</ele>
        <time>2019-04-29T10:13:51Z</time>
      </trkpt>
      <trkpt lat="43.75039" lon="4.922">
        <ele>181.585</ele>
        <time>2019-04-29T10:14:02Z</time>
      </trkpt>
      <trkpt lat="43.75012" lon="4.92186">
        <ele>182.762</ele>
        <time>2019-04-29T10:14:12Z</time>
      </trkpt>
      <trkpt lat="43.74978" lon="4.92166">
        <ele>184.2</ele>
        <time>2019-04-29T10:14:23Z</time>
      </trkpt>
      <trkpt lat="43.74948" lon="4.92146">
        <ele>185.528</ele>
        <time>2019-04-29T10:14:34Z</time>
      </trkpt>
      <trkpt lat="43.74919" lon="4.92124">
        <ele>186.811</ele>
        <time>2019-04-29T10:14:45Z</time>
      </trkpt>
      <trkpt lat="43.74889" lon="4.92103">
        <ele>188.265</ele>
        <time>2019-04-29T10:14:56Z</time>
      </trkpt>
      <trkpt lat="43.74859" lon="4.92082">
        <ele>189.635</ele>
        <time>2019-04-29T10:15:07Z</time>
      </trkpt>
      <trkpt lat="43.74829" lon="4.92068">
        <ele>190.845</ele>
        <time>2019-04-29T10:15:18Z</time>
      </trkpt>
      <trkpt lat="43.74797" lon="4.92061">
        <ele>191.738</ele>
        <time>2019-04-29T10:15:28Z</time>
      </trkpt>
      <trkpt lat="43.74763" lon="4.9207">
        <ele>192.682</ele>
        <time>2019-04-29T10:15:39Z</time>
      </trkpt>
      <trkpt lat="43.74734" lon="4.9208">
        <ele>193.668</ele>
        <time>2019-04-29T10:15:49Z</time>
      </trkpt>
      <trkpt lat="43.74705" lon="4.92091">
        <ele>194.871</ele>
        <time>2019-04-29T10:15:59Z</time>
      </trkpt>
      <trkpt lat="43.74673" lon="4.92107">
        <ele>195.938</ele>
        <time>2019-04-29T10:16:10Z</time>
      </trkpt>
      <trkpt lat="43.74641" lon="4.92089">
        <ele>196.722</ele>
        <time>2019-04-29T10:16:20Z</time>
      </trkpt>
      <trkpt lat="43.74596" lon="4.92077">
        <ele>200.133</ele>
        <time>2019-04-29T10:16:31Z</time>
      </trkpt>
      <trkpt lat="43.74548" lon="4.92072">
        <ele>200.384</ele>
        <time>2019-04-29T10:16:41Z</time>
      </trkpt>
      <trkpt lat="43.74499" lon="4.92065">
        <ele>200.65</ele>
        <time>2019-04-29T10:16:52Z</time>
      </trkpt>
      <trkpt lat="43.74459" lon="4.92059">
        <ele>202.404</ele>
        <time>2019-04-29T10:17:02Z</time>
      </trkpt>
      <trkpt lat="43.74421" lon="4.92051">
        <ele>202.793</ele>
        <time>2019-04-29T10:17:13Z</time>
      </trkpt>
      <trkpt lat="43.74391" lon="4.92022">
        <ele>203.7</ele>
        <time>2019-04-29T10:17:24Z</time>
      </trkpt>
      <trkpt lat="43.74378" lon="4.91984">
        <ele>204.782</ele>
        <time>2019-04-29T10:17:35Z</time>
      </trkpt>
      <trkpt lat="43.74377" lon="4.91951">
        <ele>205.649</ele>
        <time>2019-04-29T10:17:46Z</time>
      </trkpt>
      <trkpt lat="43.7438" lon="4.91922">
        <ele>206.228</ele>
        <time>2019-04-29T10:17:56Z</time>
      </trkpt>
      <trkpt lat="43.74386" lon="4.91893">
        <ele>206.731</ele>
        <time>2019-04-29T10:18:07Z</time>
      </trkpt>
      <trkpt lat="43.74397" lon="4.91866">
        <ele>207.507</ele>
        <time>2019-04-29T10:18:18Z</time>
      </trkpt>
      <trkpt lat="43.74404" lon="4.91834">
        <ele>207.93</ele>
        <time>2019-04-29T10:18:29Z</time>
      </trkpt>
      <trkpt lat="43.74409" lon="4.91803">
        <ele>208.55</ele>
        <time>2019-04-29T10:18:39Z</time>
      </trkpt>
      <trkpt lat="43.74405" lon="4.91778">
        <ele>209.812</ele>
        <time>2019-04-29T10:18:50Z</time>
      </trkpt>
      <trkpt lat="43.74402" lon="4.91751">
        <ele>211.266</ele>
        <time>2019-04-29T10:19:00Z</time>
      </trkpt>
      <trkpt lat="43.74397" lon="4.91717">
        <ele>213.157</ele>
        <time>2019-04-29T10:19:11Z</time>
      </trkpt>
      <trkpt lat="43.74393" lon="4.91681">
        <ele>214.745</ele>
        <time>2019-04-29T10:19:21Z</time>
      </trkpt>
      <trkpt lat="43.74389" lon="4.91653">
        <ele>216.579</ele>
        <time>2019-04-29T10:19:32Z</time>
      </trkpt>
      <trkpt lat="43.74392" lon="4.91624">
        <ele>218.35</ele>
        <time>2019-04-29T10:19:42Z</time>
      </trkpt>
      <trkpt lat="43.74386" lon="4.91589">
        <ele>220.282</ele>
        <time>2019-04-29T10:19:52Z</time>
      </trkpt>
      <trkpt lat="43.74385" lon="4.91548">
        <ele>222.11</ele>
        <time>2019-04-29T10:20:03Z</time>
      </trkpt>
      <trkpt lat="43.74383" lon="4.91515">
        <ele>223.354</ele>
        <time>2019-04-29T10:20:13Z</time>
      </trkpt>
      <trkpt lat="43.74381" lon="4.91478">
        <ele>224.646</ele>
        <time>2019-04-29T10:20:24Z</time>
      </trkpt>
      <trkpt lat="43.74379" lon="4.91446">
        <ele>225.6</ele>
        <time>2019-04-29T10:20:34Z</time>
      </trkpt>
      <trkpt lat="43.74378" lon="4.91414">
        <ele>226.202</ele>
        <time>2019-04-29T10:20:45Z</time>
      </trkpt>
      <trkpt lat="43.74379" lon="4.91385">
        <ele>227.313</ele>
        <time>2019-04-29T10:20:55Z</time>
      </trkpt>
      <trkpt lat="43.74376" lon="4.91353">
        <ele>229.293</ele>
        <time>2019-04-29T10:21:06Z</time>
      </trkpt>
      <trkpt lat="43.74371" lon="4.91322">
        <ele>230.897</ele>
        <time>2019-04-29T10:21:17Z</time>
      </trkpt>
      <trkpt lat="43.74365" lon="4.91288">
        <ele>232.467</ele>
        <time>2019-04-29T10:21:28Z</time>
      </trkpt>
      <trkpt lat="43.74361" lon="4.91255">
        <ele>233.622</ele>
        <time>2019-04-29T10:21:39Z</time>
      </trkpt>
      <trkpt lat="43.7436" lon="4.91223">
        <ele>234.791</ele>
        <time>2019-04-29T10:21:50Z</time>
      </trkpt>
      <trkpt lat="43.74353" lon="4.91192">
        <ele>236.508</ele>
        <time>2019-04-29T10:22:00Z</time>
      </trkpt>
      <trkpt lat="43.74353" lon="4.91161">
        <ele>238.095</ele>
        <time>2019-04-29T10:22:11Z</time>
      </trkpt>
      <trkpt lat="43.74345" lon="4.91129">
        <ele>239.851</ele>
        <time>2019-04-29T10:22:22Z</time>
      </trkpt>
      <trkpt lat="43.74342" lon="4.91101">
        <ele>240.7</ele>
        <time>2019-04-29T10:22:32Z</time>
      </trkpt>
      <trkpt lat="43.74345" lon="4.91071">
        <ele>241.84</ele>
        <time>2019-04-29T10:22:43Z</time>
      </trkpt>
      <trkpt lat="43.74341" lon="4.91042">
        <ele>242.778</ele>
        <time>2019-04-29T10:22:53Z</time>
      </trkpt>
      <trkpt lat="43.74349" lon="4.91011">
        <ele>243.387</ele>
        <time>2019-04-29T10:23:04Z</time>
      </trkpt>
      <trkpt lat="43.74348" lon="4.90982">
        <ele>244.948</ele>
        <time>2019-04-29T10:23:15Z</time>
      </trkpt>
      <trkpt lat="43.74346" lon="4.90955">
        <ele>246.6</ele>
        <time>2019-04-29T10:23:25Z</time>
      </trkpt>
      <trkpt lat="43.74342" lon="4.90924">
        <ele>248.515</ele>
        <time>2019-04-29T10:23:36Z</time>
      </trkpt>
      <trkpt lat="43.74343" lon="4.9089">
        <ele>250.09</ele>
        <time>2019-04-29T10:23:47Z</time>
      </trkpt>
      <trkpt lat="43.74343" lon="4.90855">
        <ele>251.032</ele>
        <time>2019-04-29T10:23:57Z</time>
      </trkpt>
      <trkpt lat="43.74346" lon="4.9082">
        <ele>251.431</ele>
        <time>2019-04-29T10:24:08Z</time>
      </trkpt>
      <trkpt lat="43.7435" lon="4.90788">
        <ele>251.934</ele>
        <time>2019-04-29T10:24:19Z</time>
      </trkpt>
      <trkpt lat="43.74359" lon="4.90758">
        <ele>252.551</ele>
        <time>2019-04-29T10:24:30Z</time>
      </trkpt>
      <trkpt lat="43.74362" lon="4.9073">
        <ele>254.086</ele>
        <time>2019-04-29T10:24:41Z</time>
      </trkpt>
      <trkpt lat="43.74364" lon="4.90697">
        <ele>255.709</ele>
        <time>2019-04-29T10:24:51Z</time>
      </trkpt>
      <trkpt lat="43.74366" lon="4.90661">
        <ele>257.628</ele>
        <time>2019-04-29T10:25:02Z</time>
      </trkpt>
      <trkpt lat="43.74366" lon="4.90634">
        <ele>259.391</ele>
        <time>2019-04-29T10:25:13Z</time>
      </trkpt>
      <trkpt lat="43.74371" lon="4.90602">
        <ele>261.517</ele>
        <time>2019-04-29T10:25:24Z</time>
      </trkpt>
      <trkpt lat="43.74357" lon="4.90551">
        <ele>264.119</ele>
        <time>2019-04-29T10:25:35Z</time>
      </trkpt>
      <trkpt lat="43.74302" lon="4.90543">
        <ele>261.993</ele>
        <time>2019-04-29T10:25:46Z</time>
      </trkpt>
      <trkpt lat="43.7422" lon="4.90611">
        <ele>257.305</ele>
        <time>2019-04-29T10:25:56Z</time>
      </trkpt>
      <trkpt lat="43.74122" lon="4.90676">
        <ele>254.547</ele>
        <time>2019-04-29T10:26:07Z</time>
      </trkpt>
      <trkpt lat="43.74035" lon="4.90733">
        <ele>251.446</ele>
        <time>2019-04-29T10:26:17Z</time>
      </trkpt>
      <trkpt lat="43.73956" lon="4.90841">
        <ele>247.59</ele>
        <time>2019-04-29T10:26:28Z</time>
      </trkpt>
      <trkpt lat="43.73867" lon="4.90913">
        <ele>243.896</ele>
        <time>2019-04-29T10:26:38Z</time>
      </trkpt>
      <trkpt lat="43.73758" lon="4.90964">
        <ele>241.692</ele>
        <time>2019-04-29T10:26:49Z</time>
      </trkpt>
      <trkpt lat="43.7365" lon="4.90964">
        <ele>237.523</ele>
        <time>2019-04-29T10:27:00Z</time>
      </trkpt>
      <trkpt lat="43.73543" lon="4.90925">
        <ele>234.115</ele>
        <time>2019-04-29T10:27:10Z</time>
      </trkpt>
      <trkpt lat="43.73437" lon="4.90884">
        <ele>228.862</ele>
        <time>2019-04-29T10:27:20Z</time>
      </trkpt>
      <trkpt lat="43.73338" lon="4.90808">
        <ele>224.191</ele>
        <time>2019-04-29T10:27:31Z</time>
      </trkpt>
      <trkpt lat="43.73257" lon="4.90717">
        <ele>219.469</ele>
        <time>2019-04-29T10:27:41Z</time>
      </trkpt>
      <trkpt lat="43.73195" lon="4.90607">
        <ele>214.602</ele>
        <time>2019-04-29T10:27:52Z</time>
      </trkpt>
      <trkpt lat="43.73124" lon="4.90549">
        <ele>210.002</ele>
        <time>2019-04-29T10:28:02Z</time>
      </trkpt>
      <trkpt lat="43.73028" lon="4.90567">
        <ele>205.618</ele>
        <time>2019-04-29T10:28:13Z</time>
      </trkpt>
      <trkpt lat="43.72936" lon="4.90568">
        <ele>201.53</ele>
        <time>2019-04-29T10:28:24Z</time>
      </trkpt>
      <trkpt lat="43.72843" lon="4.90517">
        <ele>197.761</ele>
        <time>2019-04-29T10:28:35Z</time>
      </trkpt>
      <trkpt lat="43.72763" lon="4.90469">
        <ele>194.06</ele>
        <time>2019-04-29T10:28:45Z</time>
      </trkpt>
      <trkpt lat="43.72673" lon="4.90435">
        <ele>190.627</ele>
        <time>2019-04-29T10:28:56Z</time>
      </trkpt>
      <trkpt lat="43.72655" lon="4.90427">
        <ele>190.165</ele>
        <time>2019-04-29T10:29:06Z</time>
      </trkpt>
      <trkpt lat="43.72655" lon="4.90427">
        <ele>190.184</ele>
        <time>2019-04-29T10:29:17Z</time>
      </trkpt>
      <trkpt lat="43.72655" lon="4.90427">
        <ele>190.188</ele>
        <time>2019-04-29T10:29:27Z</time>
      </trkpt>
      <trkpt lat="43.72655" lon="4.90427">
        <ele>190.133</ele>
        <time>2019-04-29T10:29:38Z</time>
      </trkpt>
      <trkpt lat="43.72628" lon="4.90417">
        <ele>189.782</ele>
        <time>2019-04-29T10:29:48Z</time>
      </trkpt>
      <trkpt lat="43.72562" lon="4.90435">
        <ele>187.018</ele>
        <time>2019-04-29T10:29:59Z</time>
      </trkpt>
      <trkpt lat="43.72493" lon="4.90513">
        <ele>182.539</ele>
        <time>2019-04-29T10:30:10Z</time>
      </trkpt>
      <trkpt lat="43.72414" lon="4.90493">
        <ele>180.274</ele>
        <time>2019-04-29T10:30:20Z</time>
      </trkpt>
      <trkpt lat="43.72331" lon="4.90505">
        <ele>177.939</ele>
        <time>2019-04-29T10:30:30Z</time>
      </trkpt>
      <trkpt lat="43.72244" lon="4.90459">
        <ele>174.754</ele>
        <time>2019-04-29T10:30:41Z</time>
      </trkpt>
      <trkpt lat="43.72163" lon="4.90385">
        <ele>171.828</ele>
        <time>2019-04-29T10:30:52Z</time>
      </trkpt>
      <trkpt lat="43.72076" lon="4.90308">
        <ele>169.755</ele>
        <time>2019-04-29T10:31:03Z</time>
      </trkpt>
      <trkpt lat="43.72009" lon="4.90233">
        <ele>166.856</ele>
        <time>2019-04-29T10:31:13Z</time>
      </trkpt>
      <trkpt lat="43.71972" lon="4.90111">
        <ele>163.99</ele>
        <time>2019-04-29T10:31:24Z</time>
      </trkpt>
      <trkpt lat="43.71938" lon="4.90004">
        <ele>161.51</ele>
        <time>2019-04-29T10:31:34Z</time>
      </trkpt>
      <trkpt lat="43.71889" lon="4.8991">
        <ele>156.258</ele>
        <time>2019-04-29T10:31:44Z</time>
      </trkpt>
      <trkpt lat="43.71832" lon="4.89816">
        <ele>151.545</ele>
        <time>2019-04-29T10:31:55Z</time>
      </trkpt>
      <trkpt lat="43.7178" lon="4.89721">
        <ele>150.703</ele>
        <time>2019-04-29T10:32:06Z</time>
      </trkpt>
      <trkpt lat="43.71728" lon="4.89631">
        <ele>150.312</ele>
        <time>2019-04-29T10:32:17Z</time>
      </trkpt>
      <trkpt lat="43.71712" lon="4.89598">
        <ele>149.218</ele>
        <time>2019-04-29T10:32:28Z</time>
      </trkpt>
      <trkpt lat="43.71709" lon="4.89599">
        <ele>148.851</ele>
        <time>2019-04-29T10:32:39Z</time>
      </trkpt>
      <trkpt lat="43.71709" lon="4.89599">
        <ele>148.35</ele>
        <time>2019-04-29T10:32:50Z</time>
      </trkpt>
      <trkpt lat="43.71707" lon="4.89599">
        <ele>148.02</ele>
        <time>2019-04-29T10:33:01Z</time>
      </trkpt>
      <trkpt lat="43.71707" lon="4.89597">
        <ele>147.696</ele>
        <time>2019-04-29T10:33:12Z</time>
      </trkpt>
      <trkpt lat="43.71707" lon="4.89597">
        <ele>147.52</ele>
        <time>2019-04-29T10:33:23Z</time>
      </trkpt>
      <trkpt lat="43.71707" lon="4.89597">
        <ele>147.451</ele>
        <time>2019-04-29T10:33:34Z</time>
      </trkpt>
      <trkpt lat="43.71707" lon="4.89598">
        <ele>147.121</ele>
        <time>2019-04-29T10:33:45Z</time>
      </trkpt>
      <trkpt lat="43.71708" lon="4.89602">
        <ele>145.697</ele>
        <time>2019-04-29T10:33:56Z</time>
      </trkpt>
      <trkpt lat="43.71725" lon="4.89597">
        <ele>144.418</ele>
        <time>2019-04-29T10:34:07Z</time>
      </trkpt>
      <trkpt lat="43.71732" lon="4.89563">
        <ele>144.125</ele>
        <time>2019-04-29T10:34:18Z</time>
      </trkpt>
      <trkpt lat="43.71737" lon="4.89525">
        <ele>143.654</ele>
        <time>2019-04-29T10:34:29Z</time>
      </trkpt>
      <trkpt lat="43.71744" lon="4.89494">
        <ele>143.51</ele>
        <time>2019-04-29T10:34:40Z</time>
      </trkpt>
      <trkpt lat="43.71755" lon="4.89466">
        <ele>143.684</ele>
        <time>2019-04-29T10:34:50Z</time>
      </trkpt>
      <trkpt lat="43.71775" lon="4.89449">
        <ele>144.143</ele>
        <time>2019-04-29T10:35:00Z</time>
      </trkpt>
      <trkpt lat="43.71789" lon="4.89429">
        <ele>144.729</ele>
        <time>2019-04-29T10:35:11Z</time>
      </trkpt>
      <trkpt lat="43.71792" lon="4.89408">
        <ele>143.197</ele>
        <time>2019-04-29T10:35:21Z</time>
      </trkpt>
      <trkpt lat="43.71802" lon="4.89363">
        <ele>144.472</ele>
        <time>2019-04-29T10:35:32Z</time>
      </trkpt>
      <trkpt lat="43.71807" lon="4.89326">
        <ele>145.73</ele>
        <time>2019-04-29T10:35:43Z</time>
      </trkpt>
      <trkpt lat="43.71818" lon="4.89294">
        <ele>147.083</ele>
        <time>2019-04-29T10:35:53Z</time>
      </trkpt>
      <trkpt lat="43.71842" lon="4.89269">
        <ele>149.792</ele>
        <time>2019-04-29T10:36:04Z</time>
      </trkpt>
      <trkpt lat="43.71858" lon="4.89252">
        <ele>150.799</ele>
        <time>2019-04-29T10:36:15Z</time>
      </trkpt>
      <trkpt lat="43.71872" lon="4.89235">
        <ele>151.603</ele>
        <time>2019-04-29T10:36:25Z</time>
      </trkpt>
      <trkpt lat="43.71874" lon="4.89211">
        <ele>152.436</ele>
        <time>2019-04-29T10:36:36Z</time>
      </trkpt>
      <trkpt lat="43.71888" lon="4.89182">
        <ele>153.193</ele>
        <time>2019-04-29T10:36:46Z</time>
      </trkpt>
      <trkpt lat="43.71898" lon="4.89148">
        <ele>154.05</ele>
        <time>2019-04-29T10:36:57Z</time>
      </trkpt>
      <trkpt lat="43.71906" lon="4.89116">
        <ele>155.44</ele>
        <time>2019-04-29T10:37:08Z</time>
      </trkpt>
      <trkpt lat="43.71912" lon="4.89086">
        <ele>156.619</ele>
        <time>2019-04-29T10:37:18Z</time>
      </trkpt>
      <trkpt lat="43.71923" lon="4.89049">
        <ele>157.879</ele>
        <time>2019-04-29T10:37:29Z</time>
      </trkpt>
      <trkpt lat="43.71926" lon="4.8902">
        <ele>159.559</ele>
        <time>2019-04-29T10:37:39Z</time>
      </trkpt>
      <trkpt lat="43.71934" lon="4.88985">
        <ele>160.825</ele>
        <time>2019-04-29T10:37:50Z</time>
      </trkpt>
      <trkpt lat="43.7194" lon="4.88953">
        <ele>161.735</ele>
        <time>2019-04-29T10:38:00Z</time>
      </trkpt>
      <trkpt lat="43.71944" lon="4.88919">
        <ele>163.764</ele>
        <time>2019-04-29T10:38:11Z</time>
      </trkpt>
      <trkpt lat="43.71954" lon="4.88889">
        <ele>165.22</ele>
        <time>2019-04-29T10:38:22Z</time>
      </trkpt>
      <trkpt lat="43.71981" lon="4.88857">
        <ele>166.201</ele>
        <time>2019-04-29T10:38:33Z</time>
      </trkpt>
      <trkpt lat="43.72002" lon="4.88819">
        <ele>166.324</ele>
        <time>2019-04-29T10:38:44Z</time>
      </trkpt>
      <trkpt lat="43.72016" lon="4.88775">
        <ele>166.443</ele>
        <time>2019-04-29T10:38:55Z</time>
      </trkpt>
      <trkpt lat="43.72027" lon="4.88729">
        <ele>166.638</ele>
        <time>2019-04-29T10:39:06Z</time>
      </trkpt>
      <trkpt lat="43.72035" lon="4.88683">
        <ele>166.825</ele>
        <time>2019-04-29T10:39:17Z</time>
      </trkpt>
      <trkpt lat="43.72043" lon="4.8864">
        <ele>167.077</ele>
        <time>2019-04-29T10:39:27Z</time>
      </trkpt>
      <trkpt lat="43.72051" lon="4.88599">
        <ele>167.407</ele>
        <time>2019-04-29T10:39:37Z</time>
      </trkpt>
      <trkpt lat="43.72057" lon="4.88558">
        <ele>167.877</ele>
        <time>2019-04-29T10:39:48Z</time>
      </trkpt>
      <trkpt lat="43.7206" lon="4.8852">
        <ele>168.315</ele>
        <time>2019-04-29T10:39:58Z</time>
      </trkpt>
      <trkpt lat="43.7207" lon="4.88477">
        <ele>169.354</ele>
        <time>2019-04-29T10:40:09Z</time>
      </trkpt>
      <trkpt lat="43.72075" lon="4.88437">
        <ele>169.964</ele>
        <time>2019-04-29T10:40:19Z</time>
      </trkpt>
      <trkpt lat="43.72076" lon="4.88394">
        <ele>171.317</ele>
        <time>2019-04-29T10:40:30Z</time>
      </trkpt>
      <trkpt lat="43.72084" lon="4.88351">
        <ele>172.407</ele>
        <time>2019-04-29T10:40:41Z</time>
      </trkpt>
      <trkpt lat="43.72091" lon="4.88304">
        <ele>172.295</ele>
        <time>2019-04-29T10:40:52Z</time>
      </trkpt>
      <trkpt lat="43.72099" lon="4.88253">
        <ele>171.606</ele>
        <time>2019-04-29T10:41:02Z</time>
      </trkpt>
      <trkpt lat="43.72094" lon="4.88159">
        <ele>170.678</ele>
        <time>2019-04-29T10:41:13Z</time>
      </trkpt>
      <trkpt lat="43.72085" lon="4.8806">
        <ele>167.106</ele>
        <time>2019-04-29T10:41:24Z</time>
      </trkpt>
      <trkpt lat="43.7208" lon="4.87965">
        <ele>165.608</ele>
        <time>2019-04-29T10:41:35Z</time>
      </trkpt>
      <trkpt lat="43.72078" lon="4.87873">
        <ele>164.533</ele>
        <time>2019-04-29T10:41:45Z</time>
      </trkpt>
      <trkpt lat="43.7207" lon="4.8777">
        <ele>162.837</ele>
        <time>2019-04-29T10:41:56Z</time>
      </trkpt>
      <trkpt lat="43.72054" lon="4.87687">
        <ele>161.5</ele>
        <time>2019-04-29T10:42:06Z</time>
      </trkpt>
      <trkpt lat="43.72033" lon="4.87599">
        <ele>160.235</ele>
        <time>2019-04-29T10:42:17Z</time>
      </trkpt>
      <trkpt lat="43.72032" lon="4.87507">
        <ele>159.641</ele>
        <time>2019-04-29T10:42:28Z</time>
      </trkpt>
      <trkpt lat="43.72032" lon="4.87417">
        <ele>157.335</ele>
        <time>2019-04-29T10:42:39Z</time>
      </trkpt>
      <trkpt lat="43.72025" lon="4.87336">
        <ele>155.572</ele>
        <time>2019-04-29T10:42:49Z</time>
      </trkpt>
      <trkpt lat="43.72028" lon="4.87249">
        <ele>153.944</ele>
        <time>2019-04-29T10:43:00Z</time>
      </trkpt>
      <trkpt lat="43.72054" lon="4.87222">
        <ele>153.5</ele>
        <time>2019-04-29T10:43:11Z</time>
      </trkpt>
      <trkpt lat="43.72074" lon="4.87204">
        <ele>153.212</ele>
        <time>2019-04-29T10:43:21Z</time>
      </trkpt>
      <trkpt lat="43.72083" lon="4.87172">
        <ele>152.996</ele>
        <time>2019-04-29T10:43:32Z</time>
      </trkpt>
      <trkpt lat="43.72087" lon="4.87145">
        <ele>152.451</ele>
        <time>2019-04-29T10:43:42Z</time>
      </trkpt>
      <trkpt lat="43.72082" lon="4.87095">
        <ele>154.679</ele>
        <time>2019-04-29T10:43:53Z</time>
      </trkpt>
      <trkpt lat="43.72081" lon="4.87056">
        <ele>155.131</ele>
        <time>2019-04-29T10:44:03Z</time>
      </trkpt>
      <trkpt lat="43.7208" lon="4.87013">
        <ele>155.356</ele>
        <time>2019-04-29T10:44:14Z</time>
      </trkpt>
      <trkpt lat="43.72076" lon="4.8696">
        <ele>156.051</ele>
        <time>2019-04-29T10:44:25Z</time>
      </trkpt>
      <trkpt lat="43.72067" lon="4.86913">
        <ele>156.509</ele>
        <time>2019-04-29T10:44:36Z</time>
      </trkpt>
      <trkpt lat="43.72059" lon="4.86879">
        <ele>156.85</ele>
        <time>2019-04-29T10:44:46Z</time>
      </trkpt>
      <trkpt lat="43.7205" lon="4.86843">
        <ele>157.573</ele>
        <time>2019-04-29T10:44:56Z</time>
      </trkpt>
      <trkpt lat="43.7205" lon="4.86813">
        <ele>158.386</ele>
        <time>2019-04-29T10:45:07Z</time>
      </trkpt>
      <trkpt lat="43.72046" lon="4.86787">
        <ele>159.023</ele>
        <time>2019-04-29T10:45:18Z</time>
      </trkpt>
      <trkpt lat="43.72043" lon="4.86746">
        <ele>159.724</ele>
        <time>2019-04-29T10:45:29Z</time>
      </trkpt>
      <trkpt lat="43.72043" lon="4.86709">
        <ele>160.669</ele>
        <time>2019-04-29T10:45:39Z</time>
      </trkpt>
      <trkpt lat="43.72041" lon="4.86675">
        <ele>161.662</ele>
        <time>2019-04-29T10:45:49Z</time>
      </trkpt>
      <trkpt lat="43.7204" lon="4.86646">
        <ele>162.663</ele>
        <time>2019-04-29T10:46:00Z</time>
      </trkpt>
      <trkpt lat="43.72043" lon="4.86598">
        <ele>163.772</ele>
        <time>2019-04-29T10:46:11Z</time>
      </trkpt>
      <trkpt lat="43.72053" lon="4.86555">
        <ele>164.866</ele>
        <time>2019-04-29T10:46:22Z</time>
      </trkpt>
      <trkpt lat="43.72061" lon="4.8652">
        <ele>165.906</ele>
        <time>2019-04-29T10:46:33Z</time>
      </trkpt>
      <trkpt lat="43.72067" lon="4.86493">
        <ele>166.837</ele>
        <time>2019-04-29T10:46:44Z</time>
      </trkpt>
      <trkpt lat="43.72067" lon="4.86493">
        <ele>166.933</ele>
        <time>2019-04-29T10:46:54Z</time>
      </trkpt>
      <trkpt lat="43.72067" lon="4.86493">
        <ele>167.044</ele>
        <time>2019-04-29T10:47:05Z</time>
      </trkpt>
      <trkpt lat="43.72067" lon="4.86493">
        <ele>167.16</ele>
        <time>2019-04-29T10:47:16Z</time>
      </trkpt>
      <trkpt lat="43.72067" lon="4.86493">
        <ele>167.269</ele>
        <time>2019-04-29T10:47:26Z</time>
      </trkpt>
      <trkpt lat="43.7207" lon="4.86487">
        <ele>167.702</ele>
        <time>2019-04-29T10:47:37Z</time>
      </trkpt>
      <trkpt lat="43.7207" lon="4.86487">
        <ele>167.789</ele>
        <time>2019-04-29T10:47:48Z</time>
      </trkpt>
      <trkpt lat="43.7207" lon="4.86487">
        <ele>168</ele>
        <time>2019-04-29T10:47:58Z</time>
      </trkpt>
      <trkpt lat="43.7207" lon="4.86484">
        <ele>168.169</ele>
        <time>2019-04-29T10:48:09Z</time>
      </trkpt>
      <trkpt lat="43.72069" lon="4.86421">
        <ele>166.7</ele>
        <time>2019-04-29T10:48:19Z</time>
      </trkpt>
      <trkpt lat="43.72097" lon="4.86314">
        <ele>161.592</ele>
        <time>2019-04-29T10:48:30Z</time>
      </trkpt>
      <trkpt lat="43.72119" lon="4.86216">
        <ele>160.308</ele>
        <time>2019-04-29T10:48:41Z</time>
      </trkpt>
      <trkpt lat="43.72128" lon="4.86162">
        <ele>160.479</ele>
        <time>2019-04-29T10:48:52Z</time>
      </trkpt>
      <trkpt lat="43.72131" lon="4.86125">
        <ele>160.689</ele>
        <time>2019-04-29T10:49:02Z</time>
      </trkpt>
      <trkpt lat="43.72133" lon="4.86081">
        <ele>161.111</ele>
        <time>2019-04-29T10:49:13Z</time>
      </trkpt>
      <trkpt lat="43.72137" lon="4.8605">
        <ele>161.676</ele>
        <time>2019-04-29T10:49:23Z</time>
      </trkpt>
      <trkpt lat="43.72141" lon="4.86014">
        <ele>162.631</ele>
        <time>2019-04-29T10:49:34Z</time>
      </trkpt>
      <trkpt lat="43.72143" lon="4.85981">
        <ele>163.675</ele>
        <time>2019-04-29T10:49:44Z</time>
      </trkpt>
      <trkpt lat="43.72146" lon="4.85948">
        <ele>164.797</ele>
        <time>2019-04-29T10:49:54Z</time>
      </trkpt>
      <trkpt lat="43.72146" lon="4.85912">
        <ele>166.026</ele>
        <time>2019-04-29T10:50:05Z</time>
      </trkpt>
      <trkpt lat="43.72147" lon="4.85876">
        <ele>167.249</ele>
        <time>2019-04-29T10:50:16Z</time>
      </trkpt>
      <trkpt lat="43.72147" lon="4.85843">
        <ele>168.324</ele>
        <time>2019-04-29T10:50:26Z</time>
      </trkpt>
      <trkpt lat="43.72148" lon="4.8581">
        <ele>169.331</ele>
        <time>2019-04-29T10:50:36Z</time>
      </trkpt>
      <trkpt lat="43.72147" lon="4.8578">
        <ele>170.812</ele>
        <time>2019-04-29T10:50:46Z</time>
      </trkpt>
      <trkpt lat="43.72149" lon="4.85719">
        <ele>171.483</ele>
        <time>2019-04-29T10:50:57Z</time>
      </trkpt>
      <trkpt lat="43.72189" lon="4.85661">
        <ele>170.933</ele>
        <time>2019-04-29T10:51:08Z</time>
      </trkpt>
      <trkpt lat="43.72207" lon="4.85573">
        <ele>171.187</ele>
        <time>2019-04-29T10:51:19Z</time>
      </trkpt>
      <trkpt lat="43.72194" lon="4.85477">
        <ele>167.07</ele>
        <time>2019-04-29T10:51:30Z</time>
      </trkpt>
      <trkpt lat="43.72184" lon="4.85435">
        <ele>162.776</ele>
        <time>2019-04-29T10:51:41Z</time>
      </trkpt>
      <trkpt lat="43.7215" lon="4.85425">
        <ele>157.219</ele>
        <time>2019-04-29T10:51:52Z</time>
      </trkpt>
      <trkpt lat="43.72106" lon="4.85301">
        <ele>151.357</ele>
        <time>2019-04-29T10:52:02Z</time>
      </trkpt>
      <trkpt lat="43.72052" lon="4.8516">
        <ele>145.38</ele>
        <time>2019-04-29T10:52:13Z</time>
      </trkpt>
      <trkpt lat="43.72026" lon="4.85002">
        <ele>140.246</ele>
        <time>2019-04-29T10:52:24Z</time>
      </trkpt>
      <trkpt lat="43.71985" lon="4.84879">
        <ele>136.683</ele>
        <time>2019-04-29T10:52:34Z</time>
      </trkpt>
      <trkpt lat="43.71975" lon="4.84742">
        <ele>131.822</ele>
        <time>2019-04-29T10:52:45Z</time>
      </trkpt>
      <trkpt lat="43.71994" lon="4.8463">
        <ele>128.681</ele>
        <time>2019-04-29T10:52:56Z</time>
      </trkpt>
      <trkpt lat="43.71997" lon="4.84514">
        <ele>124.894</ele>
        <time>2019-04-29T10:53:07Z</time>
      </trkpt>
      <trkpt lat="43.72" lon="4.84402">
        <ele>120.388</ele>
        <time>2019-04-29T10:53:17Z</time>
      </trkpt>
      <trkpt lat="43.71924" lon="4.84316">
        <ele>116.524</ele>
        <time>2019-04-29T10:53:28Z</time>
      </trkpt>
      <trkpt lat="43.71871" lon="4.84191">
        <ele>112.975</ele>
        <time>2019-04-29T10:53:39Z</time>
      </trkpt>
      <trkpt lat="43.71871" lon="4.8406">
        <ele>110.62</ele>
        <time>2019-04-29T10:53:50Z</time>
      </trkpt>
      <trkpt lat="43.71872" lon="4.83991">
        <ele>108.8</ele>
        <time>2019-04-29T10:54:00Z</time>
      </trkpt>
      <trkpt lat="43.7188" lon="4.83933">
        <ele>109.336</ele>
        <time>2019-04-29T10:54:11Z</time>
      </trkpt>
      <trkpt lat="43.71889" lon="4.83886">
        <ele>109.118</ele>
        <time>2019-04-29T10:54:22Z</time>
      </trkpt>
      <trkpt lat="43.71903" lon="4.83838">
        <ele>107.477</ele>
        <time>2019-04-29T10:54:32Z</time>
      </trkpt>
      <trkpt lat="43.71922" lon="4.83798">
        <ele>106.841</ele>
        <time>2019-04-29T10:54:42Z</time>
      </trkpt>
      <trkpt lat="43.71941" lon="4.8375">
        <ele>106.579</ele>
        <time>2019-04-29T10:54:53Z</time>
      </trkpt>
      <trkpt lat="43.7196" lon="4.83708">
        <ele>106.482</ele>
        <time>2019-04-29T10:55:03Z</time>
      </trkpt>
      <trkpt lat="43.71975" lon="4.83674">
        <ele>106.528</ele>
        <time>2019-04-29T10:55:13Z</time>
      </trkpt>
      <trkpt lat="43.71989" lon="4.83635">
        <ele>106.573</ele>
        <time>2019-04-29T10:55:24Z</time>
      </trkpt>
      <trkpt lat="43.72007" lon="4.83587">
        <ele>106.608</ele>
        <time>2019-04-29T10:55:35Z</time>
      </trkpt>
      <trkpt lat="43.72022" lon="4.83544">
        <ele>106.608</ele>
        <time>2019-04-29T10:55:45Z</time>
      </trkpt>
      <trkpt lat="43.72037" lon="4.83511">
        <ele>106.727</ele>
        <time>2019-04-29T10:55:55Z</time>
      </trkpt>
      <trkpt lat="43.72052" lon="4.83472">
        <ele>107.044</ele>
        <time>2019-04-29T10:56:06Z</time>
      </trkpt>
      <trkpt lat="43.72061" lon="4.83433">
        <ele>107.939</ele>
        <time>2019-04-29T10:56:17Z</time>
      </trkpt>
      <trkpt lat="43.72061" lon="4.83397">
        <ele>107.8</ele>
        <time>2019-04-29T10:56:27Z</time>
      </trkpt>
      <trkpt lat="43.72054" lon="4.8335">
        <ele>107.741</ele>
        <time>2019-04-29T10:56:37Z</time>
      </trkpt>
      <trkpt lat="43.72046" lon="4.83293">
        <ele>105.44</ele>
        <time>2019-04-29T10:56:47Z</time>
      </trkpt>
      <trkpt lat="43.72049" lon="4.83255">
        <ele>105.289</ele>
        <time>2019-04-29T10:56:57Z</time>
      </trkpt>
      <trkpt lat="43.72026" lon="4.83271">
        <ele>105.145</ele>
        <time>2019-04-29T10:57:08Z</time>
      </trkpt>
      <trkpt lat="43.72002" lon="4.83301">
        <ele>104.765</ele>
        <time>2019-04-29T10:57:19Z</time>
      </trkpt>
      <trkpt lat="43.71981" lon="4.83321">
        <ele>104.118</ele>
        <time>2019-04-29T10:57:29Z</time>
      </trkpt>
      <trkpt lat="43.71957" lon="4.8334">
        <ele>103.597</ele>
        <time>2019-04-29T10:57:40Z</time>
      </trkpt>
      <trkpt lat="43.71932" lon="4.83367">
        <ele>103.246</ele>
        <time>2019-04-29T10:57:51Z</time>
      </trkpt>
      <trkpt lat="43.71908" lon="4.83397">
        <ele>102.96</ele>
        <time>2019-04-29T10:58:02Z</time>
      </trkpt>
      <trkpt lat="43.7188" lon="4.83423">
        <ele>102.732</ele>
        <time>2019-04-29T10:58:13Z</time>
      </trkpt>
      <trkpt lat="43.71868" lon="4.83444">
        <ele>102.488</ele>
        <time>2019-04-29T10:58:23Z</time>
      </trkpt>
      <trkpt lat="43.71891" lon="4.83459">
        <ele>102.523</ele>
        <time>2019-04-29T10:58:34Z</time>
      </trkpt>
      <trkpt lat="43.71913" lon="4.83473">
        <ele>102.844</ele>
        <time>2019-04-29T10:58:44Z</time>
      </trkpt>
      <trkpt lat="43.7194" lon="4.83488">
        <ele>102.881</ele>
        <time>2019-04-29T10:58:55Z</time>
      </trkpt>
      <trkpt lat="43.71962" lon="4.83504">
        <ele>103.322</ele>
        <time>2019-04-29T10:59:05Z</time>
      </trkpt>
      <trkpt lat="43.71987" lon="4.83525">
        <ele>104.416</ele>
        <time>2019-04-29T10:59:16Z</time>
      </trkpt>
      <trkpt lat="43.72009" lon="4.83543">
        <ele>105.677</ele>
        <time>2019-04-29T10:59:27Z</time>
      </trkpt>
      <trkpt lat="43.72025" lon="4.8354">
        <ele>106.122</ele>
        <time>2019-04-29T10:59:38Z</time>
      </trkpt>
      <trkpt lat="43.72037" lon="4.8351">
        <ele>106.221</ele>
        <time>2019-04-29T10:59:49Z</time>
      </trkpt>
      <trkpt lat="43.7205" lon="4.83476">
        <ele>105.719</ele>
        <time>2019-04-29T11:00:00Z</time>
      </trkpt>
      <trkpt lat="43.72059" lon="4.83435">
        <ele>105.717</ele>
        <time>2019-04-29T11:00:11Z</time>
      </trkpt>
      <trkpt lat="43.72057" lon="4.83394">
        <ele>105.433</ele>
        <time>2019-04-29T11:00:22Z</time>
      </trkpt>
      <trkpt lat="43.72049" lon="4.83343">
        <ele>104.691</ele>
        <time>2019-04-29T11:00:32Z</time>
      </trkpt>
      <trkpt lat="43.72048" lon="4.83272">
        <ele>104.201</ele>
        <time>2019-04-29T11:00:43Z</time>
      </trkpt>
      <trkpt lat="43.72063" lon="4.83226">
        <ele>105.045</ele>
        <time>2019-04-29T11:00:53Z</time>
      </trkpt>
      <trkpt lat="43.72086" lon="4.8318">
        <ele>106.2</ele>
        <time>2019-04-29T11:01:04Z</time>
      </trkpt>
      <trkpt lat="43.72102" lon="4.83133">
        <ele>106.627</ele>
        <time>2019-04-29T11:01:15Z</time>
      </trkpt>
      <trkpt lat="43.72112" lon="4.83086">
        <ele>106.643</ele>
        <time>2019-04-29T11:01:26Z</time>
      </trkpt>
      <trkpt lat="43.72123" lon="4.83013">
        <ele>106.466</ele>
        <time>2019-04-29T11:01:36Z</time>
      </trkpt>
      <trkpt lat="43.7213" lon="4.82927">
        <ele>105.508</ele>
        <time>2019-04-29T11:01:47Z</time>
      </trkpt>
      <trkpt lat="43.7213" lon="4.82854">
        <ele>102.927</ele>
        <time>2019-04-29T11:01:58Z</time>
      </trkpt>
      <trkpt lat="43.72132" lon="4.82785">
        <ele>102.772</ele>
        <time>2019-04-29T11:02:09Z</time>
      </trkpt>
      <trkpt lat="43.72134" lon="4.82709">
        <ele>102.863</ele>
        <time>2019-04-29T11:02:20Z</time>
      </trkpt>
      <trkpt lat="43.72132" lon="4.82632">
        <ele>103.947</ele>
        <time>2019-04-29T11:02:31Z</time>
      </trkpt>
      <trkpt lat="43.72137" lon="4.82559">
        <ele>102.725</ele>
        <time>2019-04-29T11:02:42Z</time>
      </trkpt>
      <trkpt lat="43.72141" lon="4.82472">
        <ele>101.958</ele>
        <time>2019-04-29T11:02:53Z</time>
      </trkpt>
      <trkpt lat="43.72148" lon="4.82381">
        <ele>100.8</ele>
        <time>2019-04-29T11:03:04Z</time>
      </trkpt>
      <trkpt lat="43.72155" lon="4.82313">
        <ele>99.978</ele>
        <time>2019-04-29T11:03:15Z</time>
      </trkpt>
      <trkpt lat="43.72159" lon="4.82253">
        <ele>100.333</ele>
        <time>2019-04-29T11:03:26Z</time>
      </trkpt>
      <trkpt lat="43.72153" lon="4.82175">
        <ele>101.331</ele>
        <time>2019-04-29T11:03:36Z</time>
      </trkpt>
      <trkpt lat="43.72104" lon="4.82107">
        <ele>101.734</ele>
        <time>2019-04-29T11:03:47Z</time>
      </trkpt>
      <trkpt lat="43.72025" lon="4.82023">
        <ele>99.259</ele>
        <time>2019-04-29T11:03:58Z</time>
      </trkpt>
      <trkpt lat="43.72001" lon="4.81903">
        <ele>97.484</ele>
        <time>2019-04-29T11:04:09Z</time>
      </trkpt>
      <trkpt lat="43.71994" lon="4.81812">
        <ele>94.163</ele>
        <time>2019-04-29T11:04:19Z</time>
      </trkpt>
      <trkpt lat="43.71992" lon="4.81745">
        <ele>89.444</ele>
        <time>2019-04-29T11:04:29Z</time>
      </trkpt>
      <trkpt lat="43.7199" lon="4.81683">
        <ele>86.732</ele>
        <time>2019-04-29T11:04:40Z</time>
      </trkpt>
      <trkpt lat="43.71986" lon="4.81627">
        <ele>86.262</ele>
        <time>2019-04-29T11:04:51Z</time>
      </trkpt>
      <trkpt lat="43.71985" lon="4.81583">
        <ele>86.246</ele>
        <time>2019-04-29T11:05:02Z</time>
      </trkpt>
      <trkpt lat="43.71982" lon="4.81521">
        <ele>86.833</ele>
        <time>2019-04-29T11:05:13Z</time>
      </trkpt>
      <trkpt lat="43.71977" lon="4.8147">
        <ele>87.164</ele>
        <time>2019-04-29T11:05:24Z</time>
      </trkpt>
      <trkpt lat="43.71975" lon="4.81414">
        <ele>88.784</ele>
        <time>2019-04-29T11:05:34Z</time>
      </trkpt>
      <trkpt lat="43.71975" lon="4.81354">
        <ele>88.892</ele>
        <time>2019-04-29T11:05:44Z</time>
      </trkpt>
      <trkpt lat="43.71969" lon="4.81293">
        <ele>89.182</ele>
        <time>2019-04-29T11:05:55Z</time>
      </trkpt>
      <trkpt lat="43.71964" lon="4.81233">
        <ele>89.329</ele>
        <time>2019-04-29T11:06:05Z</time>
      </trkpt>
      <trkpt lat="43.71968" lon="4.81182">
        <ele>89.31</ele>
        <time>2019-04-29T11:06:15Z</time>
      </trkpt>
      <trkpt lat="43.71973" lon="4.81134">
        <ele>88.827</ele>
        <time>2019-04-29T11:06:25Z</time>
      </trkpt>
      <trkpt lat="43.71997" lon="4.81081">
        <ele>86.341</ele>
        <time>2019-04-29T11:06:36Z</time>
      </trkpt>
      <trkpt lat="43.72015" lon="4.81029">
        <ele>86.007</ele>
        <time>2019-04-29T11:06:46Z</time>
      </trkpt>
      <trkpt lat="43.72029" lon="4.80973">
        <ele>86.451</ele>
        <time>2019-04-29T11:06:57Z</time>
      </trkpt>
      <trkpt lat="43.72059" lon="4.80966">
        <ele>87.831</ele>
        <time>2019-04-29T11:07:08Z</time>
      </trkpt>
      <trkpt lat="43.72084" lon="4.80975">
        <ele>88.461</ele>
        <time>2019-04-29T11:07:18Z</time>
      </trkpt>
      <trkpt lat="43.72101" lon="4.80947">
        <ele>88.548</ele>
        <time>2019-04-29T11:07:29Z</time>
      </trkpt>
      <trkpt lat="43.72093" lon="4.80947">
        <ele>88.755</ele>
        <time>2019-04-29T11:07:40Z</time>
      </trkpt>
      <trkpt lat="43.72093" lon="4.80948">
        <ele>88.848</ele>
        <time>2019-04-29T11:07:50Z</time>
      </trkpt>
      <trkpt lat="43.72093" lon="4.80948">
        <ele>88.574</ele>
        <time>2019-04-29T11:08:01Z</time>
      </trkpt>
      <trkpt lat="43.7209" lon="4.80952">
        <ele>88.269</ele>
        <time>2019-04-29T11:08:12Z</time>
      </trkpt>
      <trkpt lat="43.72099" lon="4.8094">
        <ele>88.138</ele>
        <time>2019-04-29T11:08:22Z</time>
      </trkpt>
      <trkpt lat="43.72121" lon="4.809">
        <ele>88.656</ele>
        <time>2019-04-29T11:08:32Z</time>
      </trkpt>
      <trkpt lat="43.72145" lon="4.80851">
        <ele>89.881</ele>
        <time>2019-04-29T11:08:43Z</time>
      </trkpt>
      <trkpt lat="43.72166" lon="4.80808">
        <ele>90.52</ele>
        <time>2019-04-29T11:08:53Z</time>
      </trkpt>
      <trkpt lat="43.72185" lon="4.80762">
        <ele>90.894</ele>
        <time>2019-04-29T11:09:04Z</time>
      </trkpt>
      <trkpt lat="43.72209" lon="4.80711">
        <ele>90.644</ele>
        <time>2019-04-29T11:09:14Z</time>
      </trkpt>
      <trkpt lat="43.72229" lon="4.80642">
        <ele>90.381</ele>
        <time>2019-04-29T11:09:25Z</time>
      </trkpt>
      <trkpt lat="43.72247" lon="4.80567">
        <ele>91.232</ele>
        <time>2019-04-29T11:09:36Z</time>
      </trkpt>
      <trkpt lat="43.72237" lon="4.80544">
        <ele>90.721</ele>
        <time>2019-04-29T11:09:47Z</time>
      </trkpt>
      <trkpt lat="43.72196" lon="4.80532">
        <ele>90.144</ele>
        <time>2019-04-29T11:09:58Z</time>
      </trkpt>
      <trkpt lat="43.72149" lon="4.80512">
        <ele>88.203</ele>
        <time>2019-04-29T11:10:09Z</time>
      </trkpt>
      <trkpt lat="43.72146" lon="4.80526">
        <ele>87.586</ele>
        <time>2019-04-29T11:10:20Z</time>
      </trkpt>
      <trkpt lat="43.72149" lon="4.80575">
        <ele>87.468</ele>
        <time>2019-04-29T11:10:31Z</time>
      </trkpt>
      <trkpt lat="43.72128" lon="4.80591">
        <ele>87.651</ele>
        <time>2019-04-29T11:10:41Z</time>
      </trkpt>
      <trkpt lat="43.72108" lon="4.80581">
        <ele>87.294</ele>
        <time>2019-04-29T11:10:52Z</time>
      </trkpt>
      <trkpt lat="43.72107" lon="4.80558">
        <ele>87.02</ele>
        <time>2019-04-29T11:11:02Z</time>
      </trkpt>
      <trkpt lat="43.72108" lon="4.80565">
        <ele>87.25</ele>
        <time>2019-04-29T11:11:13Z</time>
      </trkpt>
      <trkpt lat="43.72105" lon="4.80585">
        <ele>88.067</ele>
        <time>2019-04-29T11:11:23Z</time>
      </trkpt>
      <trkpt lat="43.72124" lon="4.80589">
        <ele>89.306</ele>
        <time>2019-04-29T11:11:34Z</time>
      </trkpt>
      <trkpt lat="43.72129" lon="4.80613">
        <ele>93.113</ele>
        <time>2019-04-29T11:11:44Z</time>
      </trkpt>
      <trkpt lat="43.72127" lon="4.80653">
        <ele>93.141</ele>
        <time>2019-04-29T11:11:55Z</time>
      </trkpt>
      <trkpt lat="43.72126" lon="4.80682">
        <ele>91.135</ele>
        <time>2019-04-29T11:12:05Z</time>
      </trkpt>
      <trkpt lat="43.7213" lon="4.80706">
        <ele>91.757</ele>
        <time>2019-04-29T11:12:16Z</time>
      </trkpt>
      <trkpt lat="43.72107" lon="4.80722">
        <ele>92.364</ele>
        <time>2019-04-29T11:12:27Z</time>
      </trkpt>
      <trkpt lat="43.72084" lon="4.80727">
        <ele>92.424</ele>
        <time>2019-04-29T11:12:37Z</time>
      </trkpt>
      <trkpt lat="43.72057" lon="4.80745">
        <ele>91.989</ele>
        <time>2019-04-29T11:12:47Z</time>
      </trkpt>
      <trkpt lat="43.72041" lon="4.80755">
        <ele>91.813</ele>
        <time>2019-04-29T11:12:58Z</time>
      </trkpt>
      <trkpt lat="43.7204" lon="4.80759">
        <ele>92.467</ele>
        <time>2019-04-29T11:13:09Z</time>
      </trkpt>
      <trkpt lat="43.72041" lon="4.80757">
        <ele>93.257</ele>
        <time>2019-04-29T11:13:20Z</time>
      </trkpt>
      <trkpt lat="43.72045" lon="4.80757">
        <ele>93.564</ele>
        <time>2019-04-29T11:13:30Z</time>
      </trkpt>
      <trkpt lat="43.72045" lon="4.80757">
        <ele>93.466</ele>
        <time>2019-04-29T11:13:41Z</time>
      </trkpt>
      <trkpt lat="43.72046" lon="4.80757">
        <ele>93.347</ele>
        <time>2019-04-29T11:13:51Z</time>
      </trkpt>
      <trkpt lat="43.72047" lon="4.80759">
        <ele>92.791</ele>
        <time>2019-04-29T11:14:02Z</time>
      </trkpt>
      <trkpt lat="43.72048" lon="4.80759">
        <ele>92.613</ele>
        <time>2019-04-29T11:14:12Z</time>
      </trkpt>
      <trkpt lat="43.72048" lon="4.80759">
        <ele>92.451</ele>
        <time>2019-04-29T11:14:23Z</time>
      </trkpt>
      <trkpt lat="43.72048" lon="4.80759">
        <ele>92.337</ele>
        <time>2019-04-29T11:14:34Z</time>
      </trkpt>
      <trkpt lat="43.72048" lon="4.80759">
        <ele>92.234</ele>
        <time>2019-04-29T11:14:45Z</time>
      </trkpt>
      <trkpt lat="43.72047" lon="4.80759">
        <ele>92.193</ele>
        <time>2019-04-29T11:14:55Z</time>
      </trkpt>
      <trkpt lat="43.72047" lon="4.80759">
        <ele>92.204</ele>
        <time>2019-04-29T11:15:05Z</time>
      </trkpt>
      <trkpt lat="43.72046" lon="4.80758">
        <ele>92.189</ele>
        <time>2019-04-29T11:15:16Z</time>
      </trkpt>
      <trkpt lat="43.72046" lon="4.80758">
        <ele>92.119</ele>
        <time>2019-04-29T11:15:27Z</time>
      </trkpt>
      <trkpt lat="43.72046" lon="4.80758">
        <ele>92.001</ele>
        <time>2019-04-29T11:15:38Z</time>
      </trkpt>
      <trkpt lat="43.72046" lon="4.80758">
        <ele>91.866</ele>
        <time>2019-04-29T11:15:48Z</time>
      </trkpt>
      <trkpt lat="43.72045" lon="4.80758">
        <ele>91.733</ele>
        <time>2019-04-29T11:15:58Z</time>
      </trkpt>
      <trkpt lat="43.72045" lon="4.80757">
        <ele>91.645</ele>
        <time>2019-04-29T11:16:09Z</time>
      </trkpt>
      <trkpt lat="43.72045" lon="4.80757">
        <ele>91.582</ele>
        <time>2019-04-29T11:16:20Z</time>
      </trkpt>
      <trkpt lat="43.72044" lon="4.80757">
        <ele>91.563</ele>
        <time>2019-04-29T11:16:30Z</time>
      </trkpt>
      <trkpt lat="43.72044" lon="4.80756">
        <ele>91.624</ele>
        <time>2019-04-29T11:16:40Z</time>
      </trkpt>
      <trkpt lat="43.72043" lon="4.80756">
        <ele>91.7</ele>
        <time>2019-04-29T11:16:51Z</time>
      </trkpt>
      <trkpt lat="43.72043" lon="4.80756">
        <ele>91.713</ele>
        <time>2019-04-29T11:17:02Z</time>
      </trkpt>
      <trkpt lat="43.72043" lon="4.80756">
        <ele>91.685</ele>
        <time>2019-04-29T11:17:13Z</time>
      </trkpt>
      <trkpt lat="43.72043" lon="4.80755">
        <ele>91.637</ele>
        <time>2019-04-29T11:17:23Z</time>
      </trkpt>
      <trkpt lat="43.72042" lon="4.80755">
        <ele>91.573</ele>
        <time>2019-04-29T11:17:33Z</time>
      </trkpt>
      <trkpt lat="43.72042" lon="4.80755">
        <ele>91.485</ele>
        <time>2019-04-29T11:17:43Z</time>
      </trkpt>
      <trkpt lat="43.72042" lon="4.80755">
        <ele>91.389</ele>
        <time>2019-04-29T11:17:53Z</time>
      </trkpt>
      <trkpt lat="43.72042" lon="4.80755">
        <ele>91.305</ele>
        <time>2019-04-29T11:18:04Z</time>
      </trkpt>
      <trkpt lat="43.72042" lon="4.80755">
        <ele>91.235</ele>
        <time>2019-04-29T11:18:14Z</time>
      </trkpt>
      <trkpt lat="43.72042" lon="4.80755">
        <ele>91.158</ele>
        <time>2019-04-29T11:18:24Z</time>
      </trkpt>
      <trkpt lat="43.72042" lon="4.80755">
        <ele>91.105</ele>
        <time>2019-04-29T11:18:35Z</time>
      </trkpt>
      <trkpt lat="43.72041" lon="4.80755">
        <ele>91.07</ele>
        <time>2019-04-29T11:18:46Z</time>
      </trkpt>
      <trkpt lat="43.72041" lon="4.80755">
        <ele>91.013</ele>
        <time>2019-04-29T11:18:56Z</time>
      </trkpt>
      <trkpt lat="43.72041" lon="4.80755">
        <ele>90.925</ele>
        <time>2019-04-29T11:19:07Z</time>
      </trkpt>
      <trkpt lat="43.72041" lon="4.80755">
        <ele>90.827</ele>
        <time>2019-04-29T11:19:17Z</time>
      </trkpt>
      <trkpt lat="43.72044" lon="4.80758">
        <ele>89.891</ele>
        <time>2019-04-29T11:19:28Z</time>
      </trkpt>
      <trkpt lat="43.72042" lon="4.80752">
        <ele>89.113</ele>
        <time>2019-04-29T11:19:38Z</time>
      </trkpt>
      <trkpt lat="43.72041" lon="4.80756">
        <ele>86.271</ele>
        <time>2019-04-29T11:19:49Z</time>
      </trkpt>
      <trkpt lat="43.72041" lon="4.80757">
        <ele>85.727</ele>
        <time>2019-04-29T11:20:00Z</time>
      </trkpt>
      <trkpt lat="43.72044" lon="4.80756">
        <ele>84.614</ele>
        <time>2019-04-29T11:20:10Z</time>
      </trkpt>
      <trkpt lat="43.72044" lon="4.80757">
        <ele>82.746</ele>
        <time>2019-04-29T11:20:21Z</time>
      </trkpt>
      <trkpt lat="43.72044" lon="4.80758">
        <ele>81.318</ele>
        <time>2019-04-29T11:20:31Z</time>
      </trkpt>
      <trkpt lat="43.72044" lon="4.80758">
        <ele>81.329</ele>
        <time>2019-04-29T11:20:41Z</time>
      </trkpt>
      <trkpt lat="43.72043" lon="4.80758">
        <ele>81.334</ele>
        <time>2019-04-29T11:20:51Z</time>
      </trkpt>
      <trkpt lat="43.72043" lon="4.80758">
        <ele>81.349</ele>
        <time>2019-04-29T11:21:01Z</time>
      </trkpt>
      <trkpt lat="43.72042" lon="4.80758">
        <ele>81.428</ele>
        <time>2019-04-29T11:21:12Z</time>
      </trkpt>
      <trkpt lat="43.72042" lon="4.80757">
        <ele>81.553</ele>
        <time>2019-04-29T11:21:23Z</time>
      </trkpt>
      <trkpt lat="43.72041" lon="4.80756">
        <ele>82.066</ele>
        <time>2019-04-29T11:21:33Z</time>
      </trkpt>
      <trkpt lat="43.72042" lon="4.80757">
        <ele>83.021</ele>
        <time>2019-04-29T11:21:43Z</time>
      </trkpt>
      <trkpt lat="43.72042" lon="4.80757">
        <ele>83.617</ele>
        <time>2019-04-29T11:21:54Z</time>
      </trkpt>
      <trkpt lat="43.72044" lon="4.8076">
        <ele>83.932</ele>
        <time>2019-04-29T11:22:04Z</time>
      </trkpt>
      <trkpt lat="43.72045" lon="4.8076">
        <ele>84.022</ele>
        <time>2019-04-29T11:22:15Z</time>
      </trkpt>
      <trkpt lat="43.72045" lon="4.80757">
        <ele>83.706</ele>
        <time>2019-04-29T11:22:26Z</time>
      </trkpt>
      <trkpt lat="43.72044" lon="4.80757">
        <ele>83.563</ele>
        <time>2019-04-29T11:22:37Z</time>
      </trkpt>
      <trkpt lat="43.72042" lon="4.80755">
        <ele>83.716</ele>
        <time>2019-04-29T11:22:47Z</time>
      </trkpt>
      <trkpt lat="43.72041" lon="4.80755">
        <ele>83.915</ele>
        <time>2019-04-29T11:22:57Z</time>
      </trkpt>
      <trkpt lat="43.72043" lon="4.80755">
        <ele>84.138</ele>
        <time>2019-04-29T11:23:08Z</time>
      </trkpt>
      <trkpt lat="43.72048" lon="4.80752">
        <ele>83.493</ele>
        <time>2019-04-29T11:23:18Z</time>
      </trkpt>
      <trkpt lat="43.72048" lon="4.80754">
        <ele>82.72</ele>
        <time>2019-04-29T11:23:29Z</time>
      </trkpt>
      <trkpt lat="43.72046" lon="4.80756">
        <ele>82.848</ele>
        <time>2019-04-29T11:23:40Z</time>
      </trkpt>
      <trkpt lat="43.72048" lon="4.80761">
        <ele>83.38</ele>
        <time>2019-04-29T11:23:50Z</time>
      </trkpt>
      <trkpt lat="43.72048" lon="4.80758">
        <ele>82.888</ele>
        <time>2019-04-29T11:24:01Z</time>
      </trkpt>
      <trkpt lat="43.72047" lon="4.80758">
        <ele>82.041</ele>
        <time>2019-04-29T11:24:12Z</time>
      </trkpt>
      <trkpt lat="43.72047" lon="4.80758">
        <ele>82.13</ele>
        <time>2019-04-29T11:24:23Z</time>
      </trkpt>
      <trkpt lat="43.72051" lon="4.80761">
        <ele>82.167</ele>
        <time>2019-04-29T11:24:33Z</time>
      </trkpt>
      <trkpt lat="43.72051" lon="4.80762">
        <ele>81.954</ele>
        <time>2019-04-29T11:24:44Z</time>
      </trkpt>
      <trkpt lat="43.7205" lon="4.80761">
        <ele>81.781</ele>
        <time>2019-04-29T11:24:54Z</time>
      </trkpt>
      <trkpt lat="43.7205" lon="4.8076">
        <ele>81.151</ele>
        <time>2019-04-29T11:25:05Z</time>
      </trkpt>
      <trkpt lat="43.7205" lon="4.80759">
        <ele>81.21</ele>
        <time>2019-04-29T11:25:15Z</time>
      </trkpt>
      <trkpt lat="43.72049" lon="4.80757">
        <ele>81.987</ele>
        <time>2019-04-29T11:25:26Z</time>
      </trkpt>
      <trkpt lat="43.7205" lon="4.80758">
        <ele>82.058</ele>
        <time>2019-04-29T11:25:37Z</time>
      </trkpt>
      <trkpt lat="43.7205" lon="4.80759">
        <ele>83.151</ele>
        <time>2019-04-29T11:25:48Z</time>
      </trkpt>
      <trkpt lat="43.72048" lon="4.80758">
        <ele>83.121</ele>
        <time>2019-04-29T11:25:59Z</time>
      </trkpt>
      <trkpt lat="43.72046" lon="4.80756">
        <ele>83.2</ele>
        <time>2019-04-29T11:26:10Z</time>
      </trkpt>
      <trkpt lat="43.72047" lon="4.80755">
        <ele>83.433</ele>
        <time>2019-04-29T11:26:20Z</time>
      </trkpt>
      <trkpt lat="43.72048" lon="4.80756">
        <ele>82.861</ele>
        <time>2019-04-29T11:26:31Z</time>
      </trkpt>
      <trkpt lat="43.72048" lon="4.80756">
        <ele>82.71</ele>
        <time>2019-04-29T11:26:41Z</time>
      </trkpt>
      <trkpt lat="43.7205" lon="4.80756">
        <ele>81.747</ele>
        <time>2019-04-29T11:26:52Z</time>
      </trkpt>
      <trkpt lat="43.72049" lon="4.80757">
        <ele>81.778</ele>
        <time>2019-04-29T11:27:02Z</time>
      </trkpt>
      <trkpt lat="43.72048" lon="4.80757">
        <ele>81.895</ele>
        <time>2019-04-29T11:27:13Z</time>
      </trkpt>
      <trkpt lat="43.72046" lon="4.80757">
        <ele>81.898</ele>
        <time>2019-04-29T11:27:23Z</time>
      </trkpt>
      <trkpt lat="43.72045" lon="4.80757">
        <ele>82.133</ele>
        <time>2019-04-29T11:27:34Z</time>
      </trkpt>
      <trkpt lat="43.72045" lon="4.80755">
        <ele>83.032</ele>
        <time>2019-04-29T11:27:44Z</time>
      </trkpt>
      <trkpt lat="43.72044" lon="4.80754">
        <ele>83.283</ele>
        <time>2019-04-29T11:27:54Z</time>
      </trkpt>
      <trkpt lat="43.72045" lon="4.80754">
        <ele>83.255</ele>
        <time>2019-04-29T11:28:04Z</time>
      </trkpt>
      <trkpt lat="43.72045" lon="4.80755">
        <ele>82.513</ele>
        <time>2019-04-29T11:28:15Z</time>
      </trkpt>
      <trkpt lat="43.72046" lon="4.80756">
        <ele>82.149</ele>
        <time>2019-04-29T11:28:25Z</time>
      </trkpt>
      <trkpt lat="43.72046" lon="4.80756">
        <ele>82.374</ele>
        <time>2019-04-29T11:28:36Z</time>
      </trkpt>
      <trkpt lat="43.7205" lon="4.8076">
        <ele>83.203</ele>
        <time>2019-04-29T11:28:47Z</time>
      </trkpt>
      <trkpt lat="43.7205" lon="4.8076">
        <ele>83.412</ele>
        <time>2019-04-29T11:28:57Z</time>
      </trkpt>
      <trkpt lat="43.7205" lon="4.80757">
        <ele>84.237</ele>
        <time>2019-04-29T11:29:08Z</time>
      </trkpt>
      <trkpt lat="43.72049" lon="4.80753">
        <ele>86.591</ele>
        <time>2019-04-29T11:29:18Z</time>
      </trkpt>
      <trkpt lat="43.72048" lon="4.80755">
        <ele>86.65</ele>
        <time>2019-04-29T11:29:29Z</time>
      </trkpt>
      <trkpt lat="43.72047" lon="4.80754">
        <ele>88.203</ele>
        <time>2019-04-29T11:29:39Z</time>
      </trkpt>
      <trkpt lat="43.72047" lon="4.80757">
        <ele>88.261</ele>
        <time>2019-04-29T11:29:50Z</time>
      </trkpt>
      <trkpt lat="43.72047" lon="4.80756">
        <ele>88.429</ele>
        <time>2019-04-29T11:30:00Z</time>
      </trkpt>
      <trkpt lat="43.72044" lon="4.80755">
        <ele>89.462</ele>
        <time>2019-04-29T11:30:11Z</time>
      </trkpt>
      <trkpt lat="43.72044" lon="4.80755">
        <ele>89.5</ele>
        <time>2019-04-29T11:30:21Z</time>
      </trkpt>
      <trkpt lat="43.72043" lon="4.80754">
        <ele>89.426</ele>
        <time>2019-04-29T11:30:32Z</time>
      </trkpt>
      <trkpt lat="43.72043" lon="4.80754">
        <ele>89.897</ele>
        <time>2019-04-29T11:30:43Z</time>
      </trkpt>
      <trkpt lat="43.72043" lon="4.80754">
        <ele>90.127</ele>
        <time>2019-04-29T11:30:53Z</time>
      </trkpt>
      <trkpt lat="43.72043" lon="4.80756">
        <ele>90.569</ele>
        <time>2019-04-29T11:31:04Z</time>
      </trkpt>
      <trkpt lat="43.72044" lon="4.80755">
        <ele>90.535</ele>
        <time>2019-04-29T11:31:14Z</time>
      </trkpt>
      <trkpt lat="43.72044" lon="4.80755">
        <ele>90.548</ele>
        <time>2019-04-29T11:31:24Z</time>
      </trkpt>
      <trkpt lat="43.72041" lon="4.80751">
        <ele>90.186</ele>
        <time>2019-04-29T11:31:34Z</time>
      </trkpt>
      <trkpt lat="43.72044" lon="4.80755">
        <ele>89.941</ele>
        <time>2019-04-29T11:31:45Z</time>
      </trkpt>
      <trkpt lat="43.72044" lon="4.80758">
        <ele>89.615</ele>
        <time>2019-04-29T11:31:55Z</time>
      </trkpt>
      <trkpt lat="43.72046" lon="4.80757">
        <ele>88.101</ele>
        <time>2019-04-29T11:32:05Z</time>
      </trkpt>
      <trkpt lat="43.72046" lon="4.80756">
        <ele>87.952</ele>
        <time>2019-04-29T11:32:16Z</time>
      </trkpt>
      <trkpt lat="43.72044" lon="4.80756">
        <ele>87.172</ele>
        <time>2019-04-29T11:32:27Z</time>
      </trkpt>
      <trkpt lat="43.72043" lon="4.80757">
        <ele>87.406</ele>
        <time>2019-04-29T11:32:37Z</time>
      </trkpt>
      <trkpt lat="43.72043" lon="4.80757">
        <ele>87.606</ele>
        <time>2019-04-29T11:32:48Z</time>
      </trkpt>
      <trkpt lat="43.72041" lon="4.80757">
        <ele>88.602</ele>
        <time>2019-04-29T11:32:59Z</time>
      </trkpt>
      <trkpt lat="43.7204" lon="4.80756">
        <ele>88.923</ele>
        <time>2019-04-29T11:33:09Z</time>
      </trkpt>
      <trkpt lat="43.7204" lon="4.80756">
        <ele>89.84</ele>
        <time>2019-04-29T11:33:20Z</time>
      </trkpt>
      <trkpt lat="43.72041" lon="4.80758">
        <ele>91.406</ele>
        <time>2019-04-29T11:33:31Z</time>
      </trkpt>
      <trkpt lat="43.72041" lon="4.80758">
        <ele>91.627</ele>
        <time>2019-04-29T11:33:42Z</time>
      </trkpt>
      <trkpt lat="43.72042" lon="4.80757">
        <ele>92.429</ele>
        <time>2019-04-29T11:33:52Z</time>
      </trkpt>
      <trkpt lat="43.72045" lon="4.80754">
        <ele>92.744</ele>
        <time>2019-04-29T11:34:03Z</time>
      </trkpt>
      <trkpt lat="43.72046" lon="4.80754">
        <ele>92.741</ele>
        <time>2019-04-29T11:34:13Z</time>
      </trkpt>
      <trkpt lat="43.72045" lon="4.80756">
        <ele>92.712</ele>
        <time>2019-04-29T11:34:24Z</time>
      </trkpt>
      <trkpt lat="43.72045" lon="4.80757">
        <ele>93.043</ele>
        <time>2019-04-29T11:34:34Z</time>
      </trkpt>
      <trkpt lat="43.72044" lon="4.80755">
        <ele>94.125</ele>
        <time>2019-04-29T11:34:45Z</time>
      </trkpt>
      <trkpt lat="43.72042" lon="4.80755">
        <ele>95.258</ele>
        <time>2019-04-29T11:34:55Z</time>
      </trkpt>
      <trkpt lat="43.72042" lon="4.80755">
        <ele>95.573</ele>
        <time>2019-04-29T11:35:06Z</time>
      </trkpt>
      <trkpt lat="43.72042" lon="4.80755">
        <ele>97.42</ele>
        <time>2019-04-29T11:35:17Z</time>
      </trkpt>
      <trkpt lat="43.72044" lon="4.80754">
        <ele>97.806</ele>
        <time>2019-04-29T11:35:28Z</time>
      </trkpt>
      <trkpt lat="43.72045" lon="4.80754">
        <ele>97.761</ele>
        <time>2019-04-29T11:35:38Z</time>
      </trkpt>
      <trkpt lat="43.72045" lon="4.80757">
        <ele>97.651</ele>
        <time>2019-04-29T11:35:48Z</time>
      </trkpt>
      <trkpt lat="43.72044" lon="4.80757">
        <ele>97.491</ele>
        <time>2019-04-29T11:35:58Z</time>
      </trkpt>
      <trkpt lat="43.72045" lon="4.80757">
        <ele>97.04</ele>
        <time>2019-04-29T11:36:08Z</time>
      </trkpt>
      <trkpt lat="43.72046" lon="4.80758">
        <ele>96.015</ele>
        <time>2019-04-29T11:36:19Z</time>
      </trkpt>
      <trkpt lat="43.72046" lon="4.80758">
        <ele>95.793</ele>
        <time>2019-04-29T11:36:29Z</time>
      </trkpt>
      <trkpt lat="43.72045" lon="4.80756">
        <ele>95.248</ele>
        <time>2019-04-29T11:36:40Z</time>
      </trkpt>
      <trkpt lat="43.72044" lon="4.80753">
        <ele>94.912</ele>
        <time>2019-04-29T11:36:51Z</time>
      </trkpt>
      <trkpt lat="43.72044" lon="4.80753">
        <ele>94.688</ele>
        <time>2019-04-29T11:37:02Z</time>
      </trkpt>
      <trkpt lat="43.72048" lon="4.80755">
        <ele>93.754</ele>
        <time>2019-04-29T11:37:13Z</time>
      </trkpt>
      <trkpt lat="43.72049" lon="4.80755">
        <ele>93.556</ele>
        <time>2019-04-29T11:37:24Z</time>
      </trkpt>
      <trkpt lat="43.72047" lon="4.80753">
        <ele>90.568</ele>
        <time>2019-04-29T11:37:35Z</time>
      </trkpt>
      <trkpt lat="43.72048" lon="4.80752">
        <ele>88.363</ele>
        <time>2019-04-29T11:37:46Z</time>
      </trkpt>
      <trkpt lat="43.72048" lon="4.80753">
        <ele>88.322</ele>
        <time>2019-04-29T11:37:56Z</time>
      </trkpt>
      <trkpt lat="43.72047" lon="4.80757">
        <ele>87.374</ele>
        <time>2019-04-29T11:38:06Z</time>
      </trkpt>
      <trkpt lat="43.72049" lon="4.80758">
        <ele>87.7</ele>
        <time>2019-04-29T11:38:17Z</time>
      </trkpt>
      <trkpt lat="43.72047" lon="4.80759">
        <ele>87.878</ele>
        <time>2019-04-29T11:38:27Z</time>
      </trkpt>
      <trkpt lat="43.72044" lon="4.80758">
        <ele>87.83</ele>
        <time>2019-04-29T11:38:37Z</time>
      </trkpt>
      <trkpt lat="43.72044" lon="4.80757">
        <ele>87.689</ele>
        <time>2019-04-29T11:38:48Z</time>
      </trkpt>
      <trkpt lat="43.7205" lon="4.80754">
        <ele>86.594</ele>
        <time>2019-04-29T11:38:58Z</time>
      </trkpt>
      <trkpt lat="43.72047" lon="4.80758">
        <ele>82.656</ele>
        <time>2019-04-29T11:39:09Z</time>
      </trkpt>
      <trkpt lat="43.72047" lon="4.80757">
        <ele>81.753</ele>
        <time>2019-04-29T11:39:19Z</time>
      </trkpt>
      <trkpt lat="43.72044" lon="4.80753">
        <ele>81.462</ele>
        <time>2019-04-29T11:39:29Z</time>
      </trkpt>
      <trkpt lat="43.72045" lon="4.80754">
        <ele>81.91</ele>
        <time>2019-04-29T11:39:40Z</time>
      </trkpt>
      <trkpt lat="43.72044" lon="4.80755">
        <ele>82.156</ele>
        <time>2019-04-29T11:39:50Z</time>
      </trkpt>
      <trkpt lat="43.72044" lon="4.80755">
        <ele>82.311</ele>
        <time>2019-04-29T11:40:01Z</time>
      </trkpt>
      <trkpt lat="43.72043" lon="4.80755">
        <ele>82.524</ele>
        <time>2019-04-29T11:40:11Z</time>
      </trkpt>
      <trkpt lat="43.72042" lon="4.80756">
        <ele>82.664</ele>
        <time>2019-04-29T11:40:23Z</time>
      </trkpt>
      <trkpt lat="43.72045" lon="4.80755">
        <ele>83.265</ele>
        <time>2019-04-29T11:40:33Z</time>
      </trkpt>
      <trkpt lat="43.72042" lon="4.80754">
        <ele>83.163</ele>
        <time>2019-04-29T11:40:45Z</time>
      </trkpt>
      <trkpt lat="43.72046" lon="4.80761">
        <ele>83.442</ele>
        <time>2019-04-29T11:40:56Z</time>
      </trkpt>
      <trkpt lat="43.72046" lon="4.80757">
        <ele>83.592</ele>
        <time>2019-04-29T11:41:06Z</time>
      </trkpt>
      <trkpt lat="43.72043" lon="4.80754">
        <ele>83.102</ele>
        <time>2019-04-29T11:41:17Z</time>
      </trkpt>
      <trkpt lat="43.72044" lon="4.80755">
        <ele>82.325</ele>
        <time>2019-04-29T11:41:28Z</time>
      </trkpt>
      <trkpt lat="43.72047" lon="4.80759">
        <ele>80.106</ele>
        <time>2019-04-29T11:41:38Z</time>
      </trkpt>
      <trkpt lat="43.72047" lon="4.80758">
        <ele>79.263</ele>
        <time>2019-04-29T11:41:49Z</time>
      </trkpt>
      <trkpt lat="43.72048" lon="4.80755">
        <ele>77.063</ele>
        <time>2019-04-29T11:42:00Z</time>
      </trkpt>
      <trkpt lat="43.72052" lon="4.80763">
        <ele>76.605</ele>
        <time>2019-04-29T11:42:10Z</time>
      </trkpt>
      <trkpt lat="43.72052" lon="4.80763">
        <ele>76.481</ele>
        <time>2019-04-29T11:42:21Z</time>
      </trkpt>
      <trkpt lat="43.72051" lon="4.80762">
        <ele>76.044</ele>
        <time>2019-04-29T11:42:32Z</time>
      </trkpt>
      <trkpt lat="43.72051" lon="4.80761">
        <ele>75.89</ele>
        <time>2019-04-29T11:42:43Z</time>
      </trkpt>
      <trkpt lat="43.7205" lon="4.80761">
        <ele>75.812</ele>
        <time>2019-04-29T11:42:54Z</time>
      </trkpt>
      <trkpt lat="43.7205" lon="4.8076">
        <ele>75.775</ele>
        <time>2019-04-29T11:43:05Z</time>
      </trkpt>
      <trkpt lat="43.7205" lon="4.8076">
        <ele>75.787</ele>
        <time>2019-04-29T11:43:16Z</time>
      </trkpt>
      <trkpt lat="43.72049" lon="4.8076">
        <ele>75.846</ele>
        <time>2019-04-29T11:43:26Z</time>
      </trkpt>
      <trkpt lat="43.72049" lon="4.8076">
        <ele>75.918</ele>
        <time>2019-04-29T11:43:38Z</time>
      </trkpt>
      <trkpt lat="43.72049" lon="4.8076">
        <ele>76.004</ele>
        <time>2019-04-29T11:43:49Z</time>
      </trkpt>
      <trkpt lat="43.72048" lon="4.8076">
        <ele>76.115</ele>
        <time>2019-04-29T11:44:00Z</time>
      </trkpt>
      <trkpt lat="43.72048" lon="4.80759">
        <ele>76.243</ele>
        <time>2019-04-29T11:44:10Z</time>
      </trkpt>
      <trkpt lat="43.72048" lon="4.80759">
        <ele>76.376</ele>
        <time>2019-04-29T11:44:21Z</time>
      </trkpt>
      <trkpt lat="43.72048" lon="4.80759">
        <ele>76.533</ele>
        <time>2019-04-29T11:44:32Z</time>
      </trkpt>
      <trkpt lat="43.7205" lon="4.80759">
        <ele>77.294</ele>
        <time>2019-04-29T11:44:42Z</time>
      </trkpt>
      <trkpt lat="43.72049" lon="4.80758">
        <ele>77.372</ele>
        <time>2019-04-29T11:44:52Z</time>
      </trkpt>
      <trkpt lat="43.72046" lon="4.80757">
        <ele>77.744</ele>
        <time>2019-04-29T11:45:04Z</time>
      </trkpt>
      <trkpt lat="43.72046" lon="4.80756">
        <ele>77.836</ele>
        <time>2019-04-29T11:45:14Z</time>
      </trkpt>
      <trkpt lat="43.72049" lon="4.80753">
        <ele>77.903</ele>
        <time>2019-04-29T11:45:25Z</time>
      </trkpt>
      <trkpt lat="43.72051" lon="4.80753">
        <ele>77.911</ele>
        <time>2019-04-29T11:45:36Z</time>
      </trkpt>
      <trkpt lat="43.72051" lon="4.80753">
        <ele>77.929</ele>
        <time>2019-04-29T11:45:46Z</time>
      </trkpt>
      <trkpt lat="43.7205" lon="4.80758">
        <ele>78.168</ele>
        <time>2019-04-29T11:45:57Z</time>
      </trkpt>
      <trkpt lat="43.72051" lon="4.80757">
        <ele>78.475</ele>
        <time>2019-04-29T11:46:07Z</time>
      </trkpt>
      <trkpt lat="43.72048" lon="4.80757">
        <ele>78.802</ele>
        <time>2019-04-29T11:46:18Z</time>
      </trkpt>
      <trkpt lat="43.72045" lon="4.80757">
        <ele>79.499</ele>
        <time>2019-04-29T11:46:29Z</time>
      </trkpt>
      <trkpt lat="43.72044" lon="4.80761">
        <ele>79.933</ele>
        <time>2019-04-29T11:46:39Z</time>
      </trkpt>
      <trkpt lat="43.72044" lon="4.80762">
        <ele>80.064</ele>
        <time>2019-04-29T11:46:49Z</time>
      </trkpt>
      <trkpt lat="43.72044" lon="4.80761">
        <ele>80.228</ele>
        <time>2019-04-29T11:47:01Z</time>
      </trkpt>
      <trkpt lat="43.72044" lon="4.80761">
        <ele>80.455</ele>
        <time>2019-04-29T11:47:11Z</time>
      </trkpt>
      <trkpt lat="43.72044" lon="4.80761">
        <ele>80.631</ele>
        <time>2019-04-29T11:47:22Z</time>
      </trkpt>
      <trkpt lat="43.72044" lon="4.80761">
        <ele>80.842</ele>
        <time>2019-04-29T11:47:33Z</time>
      </trkpt>
      <trkpt lat="43.72044" lon="4.8076">
        <ele>81.085</ele>
        <time>2019-04-29T11:47:44Z</time>
      </trkpt>
      <trkpt lat="43.72044" lon="4.8076">
        <ele>81.324</ele>
        <time>2019-04-29T11:47:55Z</time>
      </trkpt>
      <trkpt lat="43.72044" lon="4.80759">
        <ele>81.538</ele>
        <time>2019-04-29T11:48:06Z</time>
      </trkpt>
      <trkpt lat="43.72043" lon="4.80758">
        <ele>81.828</ele>
        <time>2019-04-29T11:48:17Z</time>
      </trkpt>
      <trkpt lat="43.72042" lon="4.80764">
        <ele>84.178</ele>
        <time>2019-04-29T11:48:27Z</time>
      </trkpt>
      <trkpt lat="43.72031" lon="4.80766">
        <ele>85.428</ele>
        <time>2019-04-29T11:48:37Z</time>
      </trkpt>
      <trkpt lat="43.72026" lon="4.80762">
        <ele>85.331</ele>
        <time>2019-04-29T11:48:48Z</time>
      </trkpt>
      <trkpt lat="43.72024" lon="4.80757">
        <ele>85.395</ele>
        <time>2019-04-29T11:48:58Z</time>
      </trkpt>
      <trkpt lat="43.72023" lon="4.80754">
        <ele>85.453</ele>
        <time>2019-04-29T11:49:09Z</time>
      </trkpt>
      <trkpt lat="43.72019" lon="4.8076">
        <ele>85.691</ele>
        <time>2019-04-29T11:49:20Z</time>
      </trkpt>
      <trkpt lat="43.71992" lon="4.80745">
        <ele>88.391</ele>
        <time>2019-04-29T11:49:30Z</time>
      </trkpt>
      <trkpt lat="43.71944" lon="4.80736">
        <ele>86.19</ele>
        <time>2019-04-29T11:49:40Z</time>
      </trkpt>
      <trkpt lat="43.71892" lon="4.80726">
        <ele>79.202</ele>
        <time>2019-04-29T11:49:50Z</time>
      </trkpt>
      <trkpt lat="43.71841" lon="4.8071">
        <ele>77.582</ele>
        <time>2019-04-29T11:50:01Z</time>
      </trkpt>
      <trkpt lat="43.71777" lon="4.80695">
        <ele>72.947</ele>
        <time>2019-04-29T11:50:11Z</time>
      </trkpt>
      <trkpt lat="43.71727" lon="4.80668">
        <ele>71.267</ele>
        <time>2019-04-29T11:50:22Z</time>
      </trkpt>
      <trkpt lat="43.71667" lon="4.80638">
        <ele>71.427</ele>
        <time>2019-04-29T11:50:32Z</time>
      </trkpt>
      <trkpt lat="43.71648" lon="4.8063">
        <ele>70.884</ele>
        <time>2019-04-29T11:50:42Z</time>
      </trkpt>
      <trkpt lat="43.71627" lon="4.80615">
        <ele>71.218</ele>
        <time>2019-04-29T11:50:52Z</time>
      </trkpt>
      <trkpt lat="43.71621" lon="4.80609">
        <ele>71.549</ele>
        <time>2019-04-29T11:51:04Z</time>
      </trkpt>
      <trkpt lat="43.71615" lon="4.80607">
        <ele>72.148</ele>
        <time>2019-04-29T11:51:14Z</time>
      </trkpt>
      <trkpt lat="43.71594" lon="4.80583">
        <ele>72.605</ele>
        <time>2019-04-29T11:51:26Z</time>
      </trkpt>
      <trkpt lat="43.7156" lon="4.80554">
        <ele>71.528</ele>
        <time>2019-04-29T11:51:36Z</time>
      </trkpt>
      <trkpt lat="43.71548" lon="4.80547">
        <ele>70.52</ele>
        <time>2019-04-29T11:51:46Z</time>
      </trkpt>
      <trkpt lat="43.71517" lon="4.80528">
        <ele>69.554</ele>
        <time>2019-04-29T11:51:56Z</time>
      </trkpt>
      <trkpt lat="43.71484" lon="4.80502">
        <ele>69.169</ele>
        <time>2019-04-29T11:52:08Z</time>
      </trkpt>
      <trkpt lat="43.71441" lon="4.80461">
        <ele>68.494</ele>
        <time>2019-04-29T11:52:18Z</time>
      </trkpt>
      <trkpt lat="43.71407" lon="4.80429">
        <ele>67.124</ele>
        <time>2019-04-29T11:52:29Z</time>
      </trkpt>
      <trkpt lat="43.71363" lon="4.80399">
        <ele>64.999</ele>
        <time>2019-04-29T11:52:39Z</time>
      </trkpt>
      <trkpt lat="43.71322" lon="4.80359">
        <ele>65.014</ele>
        <time>2019-04-29T11:52:50Z</time>
      </trkpt>
      <trkpt lat="43.71293" lon="4.80341">
        <ele>66.538</ele>
        <time>2019-04-29T11:53:01Z</time>
      </trkpt>
      <trkpt lat="43.71313" lon="4.80346">
        <ele>65.236</ele>
        <time>2019-04-29T11:53:12Z</time>
      </trkpt>
      <trkpt lat="43.7132" lon="4.80296">
        <ele>63.67</ele>
        <time>2019-04-29T11:53:22Z</time>
      </trkpt>
      <trkpt lat="43.7134" lon="4.80242">
        <ele>57.495</ele>
        <time>2019-04-29T11:53:33Z</time>
      </trkpt>
      <trkpt lat="43.71358" lon="4.80188">
        <ele>58.67</ele>
        <time>2019-04-29T11:53:44Z</time>
      </trkpt>
      <trkpt lat="43.71377" lon="4.80132">
        <ele>58.302</ele>
        <time>2019-04-29T11:53:55Z</time>
      </trkpt>
      <trkpt lat="43.71403" lon="4.80081">
        <ele>60.013</ele>
        <time>2019-04-29T11:54:06Z</time>
      </trkpt>
      <trkpt lat="43.71425" lon="4.80045">
        <ele>59.141</ele>
        <time>2019-04-29T11:54:17Z</time>
      </trkpt>
      <trkpt lat="43.71442" lon="4.80001">
        <ele>60.191</ele>
        <time>2019-04-29T11:54:27Z</time>
      </trkpt>
      <trkpt lat="43.71458" lon="4.79944">
        <ele>64.889</ele>
        <time>2019-04-29T11:54:38Z</time>
      </trkpt>
      <trkpt lat="43.71476" lon="4.79885">
        <ele>64.896</ele>
        <time>2019-04-29T11:54:49Z</time>
      </trkpt>
      <trkpt lat="43.71499" lon="4.79829">
        <ele>63.184</ele>
        <time>2019-04-29T11:54:59Z</time>
      </trkpt>
      <trkpt lat="43.71517" lon="4.79798">
        <ele>62.059</ele>
        <time>2019-04-29T11:55:09Z</time>
      </trkpt>
      <trkpt lat="43.71537" lon="4.79746">
        <ele>61.069</ele>
        <time>2019-04-29T11:55:20Z</time>
      </trkpt>
      <trkpt lat="43.71558" lon="4.79701">
        <ele>57.236</ele>
        <time>2019-04-29T11:55:31Z</time>
      </trkpt>
      <trkpt lat="43.71594" lon="4.7964">
        <ele>53.913</ele>
        <time>2019-04-29T11:55:41Z</time>
      </trkpt>
      <trkpt lat="43.71616" lon="4.7957">
        <ele>51.567</ele>
        <time>2019-04-29T11:55:52Z</time>
      </trkpt>
      <trkpt lat="43.71626" lon="4.79502">
        <ele>55.576</ele>
        <time>2019-04-29T11:56:03Z</time>
      </trkpt>
      <trkpt lat="43.71612" lon="4.79427">
        <ele>61.04</ele>
        <time>2019-04-29T11:56:13Z</time>
      </trkpt>
      <trkpt lat="43.71622" lon="4.79373">
        <ele>59.534</ele>
        <time>2019-04-29T11:56:24Z</time>
      </trkpt>
      <trkpt lat="43.71636" lon="4.79319">
        <ele>56.75</ele>
        <time>2019-04-29T11:56:34Z</time>
      </trkpt>
      <trkpt lat="43.71652" lon="4.79261">
        <ele>55.138</ele>
        <time>2019-04-29T11:56:45Z</time>
      </trkpt>
      <trkpt lat="43.71669" lon="4.79194">
        <ele>53.555</ele>
        <time>2019-04-29T11:56:55Z</time>
      </trkpt>
      <trkpt lat="43.71686" lon="4.7913">
        <ele>56.118</ele>
        <time>2019-04-29T11:57:06Z</time>
      </trkpt>
      <trkpt lat="43.71702" lon="4.79073">
        <ele>57.775</ele>
        <time>2019-04-29T11:57:17Z</time>
      </trkpt>
      <trkpt lat="43.71714" lon="4.79034">
        <ele>58.215</ele>
        <time>2019-04-29T11:57:27Z</time>
      </trkpt>
      <trkpt lat="43.71726" lon="4.7899">
        <ele>58.515</ele>
        <time>2019-04-29T11:57:38Z</time>
      </trkpt>
      <trkpt lat="43.71739" lon="4.78951">
        <ele>58.51</ele>
        <time>2019-04-29T11:57:48Z</time>
      </trkpt>
      <trkpt lat="43.7175" lon="4.78913">
        <ele>58.391</ele>
        <time>2019-04-29T11:57:58Z</time>
      </trkpt>
      <trkpt lat="43.71763" lon="4.78871">
        <ele>57.864</ele>
        <time>2019-04-29T11:58:09Z</time>
      </trkpt>
      <trkpt lat="43.71775" lon="4.78823">
        <ele>57.853</ele>
        <time>2019-04-29T11:58:20Z</time>
      </trkpt>
      <trkpt lat="43.71786" lon="4.78771">
        <ele>57.939</ele>
        <time>2019-04-29T11:58:31Z</time>
      </trkpt>
      <trkpt lat="43.71788" lon="4.78719">
        <ele>58.886</ele>
        <time>2019-04-29T11:58:42Z</time>
      </trkpt>
      <trkpt lat="43.71787" lon="4.78673">
        <ele>58.792</ele>
        <time>2019-04-29T11:58:52Z</time>
      </trkpt>
      <trkpt lat="43.71782" lon="4.78605">
        <ele>63.96</ele>
        <time>2019-04-29T11:59:03Z</time>
      </trkpt>
      <trkpt lat="43.71783" lon="4.78548">
        <ele>65.276</ele>
        <time>2019-04-29T11:59:14Z</time>
      </trkpt>
      <trkpt lat="43.71786" lon="4.78491">
        <ele>64.109</ele>
        <time>2019-04-29T11:59:24Z</time>
      </trkpt>
      <trkpt lat="43.71787" lon="4.78449">
        <ele>63.387</ele>
        <time>2019-04-29T11:59:35Z</time>
      </trkpt>
      <trkpt lat="43.71798" lon="4.78415">
        <ele>62.929</ele>
        <time>2019-04-29T11:59:45Z</time>
      </trkpt>
      <trkpt lat="43.71776" lon="4.78387">
        <ele>62.677</ele>
        <time>2019-04-29T11:59:56Z</time>
      </trkpt>
      <trkpt lat="43.71735" lon="4.7836">
        <ele>63.413</ele>
        <time>2019-04-29T12:00:06Z</time>
      </trkpt>
      <trkpt lat="43.71694" lon="4.78332">
        <ele>66.47</ele>
        <time>2019-04-29T12:00:16Z</time>
      </trkpt>
      <trkpt lat="43.71637" lon="4.78305">
        <ele>67.321</ele>
        <time>2019-04-29T12:00:27Z</time>
      </trkpt>
      <trkpt lat="43.71573" lon="4.78274">
        <ele>63.408</ele>
        <time>2019-04-29T12:00:38Z</time>
      </trkpt>
      <trkpt lat="43.71514" lon="4.78234">
        <ele>63.168</ele>
        <time>2019-04-29T12:00:48Z</time>
      </trkpt>
      <trkpt lat="43.7147" lon="4.78157">
        <ele>55.761</ele>
        <time>2019-04-29T12:00:59Z</time>
      </trkpt>
      <trkpt lat="43.71434" lon="4.78074">
        <ele>58.975</ele>
        <time>2019-04-29T12:01:10Z</time>
      </trkpt>
      <trkpt lat="43.71411" lon="4.77987">
        <ele>51.357</ele>
        <time>2019-04-29T12:01:20Z</time>
      </trkpt>
      <trkpt lat="43.71386" lon="4.77904">
        <ele>51.213</ele>
        <time>2019-04-29T12:01:31Z</time>
      </trkpt>
      <trkpt lat="43.71355" lon="4.77841">
        <ele>51.859</ele>
        <time>2019-04-29T12:01:42Z</time>
      </trkpt>
      <trkpt lat="43.71319" lon="4.77779">
        <ele>56.348</ele>
        <time>2019-04-29T12:01:52Z</time>
      </trkpt>
      <trkpt lat="43.7127" lon="4.77724">
        <ele>57.042</ele>
        <time>2019-04-29T12:02:03Z</time>
      </trkpt>
      <trkpt lat="43.71229" lon="4.77674">
        <ele>56.694</ele>
        <time>2019-04-29T12:02:14Z</time>
      </trkpt>
      <trkpt lat="43.71189" lon="4.77619">
        <ele>57.592</ele>
        <time>2019-04-29T12:02:25Z</time>
      </trkpt>
      <trkpt lat="43.71142" lon="4.77572">
        <ele>57.561</ele>
        <time>2019-04-29T12:02:36Z</time>
      </trkpt>
      <trkpt lat="43.71105" lon="4.77517">
        <ele>54.829</ele>
        <time>2019-04-29T12:02:47Z</time>
      </trkpt>
      <trkpt lat="43.71075" lon="4.7745">
        <ele>53.822</ele>
        <time>2019-04-29T12:02:57Z</time>
      </trkpt>
      <trkpt lat="43.71046" lon="4.77376">
        <ele>55.498</ele>
        <time>2019-04-29T12:03:08Z</time>
      </trkpt>
      <trkpt lat="43.71038" lon="4.77299">
        <ele>54.966</ele>
        <time>2019-04-29T12:03:18Z</time>
      </trkpt>
      <trkpt lat="43.71037" lon="4.77219">
        <ele>56.113</ele>
        <time>2019-04-29T12:03:29Z</time>
      </trkpt>
      <trkpt lat="43.71034" lon="4.77143">
        <ele>55.547</ele>
        <time>2019-04-29T12:03:40Z</time>
      </trkpt>
      <trkpt lat="43.71026" lon="4.77077">
        <ele>55.826</ele>
        <time>2019-04-29T12:03:50Z</time>
      </trkpt>
      <trkpt lat="43.71016" lon="4.77">
        <ele>55.004</ele>
        <time>2019-04-29T12:04:01Z</time>
      </trkpt>
      <trkpt lat="43.71006" lon="4.76936">
        <ele>53.066</ele>
        <time>2019-04-29T12:04:11Z</time>
      </trkpt>
      <trkpt lat="43.70986" lon="4.76882">
        <ele>50.647</ele>
        <time>2019-04-29T12:04:21Z</time>
      </trkpt>
      <trkpt lat="43.70961" lon="4.76814">
        <ele>46.773</ele>
        <time>2019-04-29T12:04:31Z</time>
      </trkpt>
      <trkpt lat="43.70944" lon="4.76746">
        <ele>43.923</ele>
        <time>2019-04-29T12:04:42Z</time>
      </trkpt>
      <trkpt lat="43.70924" lon="4.76681">
        <ele>45.051</ele>
        <time>2019-04-29T12:04:53Z</time>
      </trkpt>
      <trkpt lat="43.70906" lon="4.76613">
        <ele>48.355</ele>
        <time>2019-04-29T12:05:03Z</time>
      </trkpt>
      <trkpt lat="43.70895" lon="4.76544">
        <ele>49.231</ele>
        <time>2019-04-29T12:05:14Z</time>
      </trkpt>
      <trkpt lat="43.70892" lon="4.76473">
        <ele>49.983</ele>
        <time>2019-04-29T12:05:25Z</time>
      </trkpt>
      <trkpt lat="43.70884" lon="4.76407">
        <ele>49.753</ele>
        <time>2019-04-29T12:05:36Z</time>
      </trkpt>
      <trkpt lat="43.70876" lon="4.76347">
        <ele>49.475</ele>
        <time>2019-04-29T12:05:47Z</time>
      </trkpt>
      <trkpt lat="43.70875" lon="4.7629">
        <ele>48.832</ele>
        <time>2019-04-29T12:05:58Z</time>
      </trkpt>
      <trkpt lat="43.70876" lon="4.76252">
        <ele>49.208</ele>
        <time>2019-04-29T12:06:08Z</time>
      </trkpt>
      <trkpt lat="43.70876" lon="4.76212">
        <ele>49.658</ele>
        <time>2019-04-29T12:06:18Z</time>
      </trkpt>
      <trkpt lat="43.70869" lon="4.76165">
        <ele>50.415</ele>
        <time>2019-04-29T12:06:29Z</time>
      </trkpt>
      <trkpt lat="43.70855" lon="4.76113">
        <ele>50.945</ele>
        <time>2019-04-29T12:06:40Z</time>
      </trkpt>
      <trkpt lat="43.7084" lon="4.76069">
        <ele>51.302</ele>
        <time>2019-04-29T12:06:51Z</time>
      </trkpt>
      <trkpt lat="43.70827" lon="4.76024">
        <ele>51.135</ele>
        <time>2019-04-29T12:07:02Z</time>
      </trkpt>
      <trkpt lat="43.70822" lon="4.75987">
        <ele>50.78</ele>
        <time>2019-04-29T12:07:12Z</time>
      </trkpt>
      <trkpt lat="43.70818" lon="4.7594">
        <ele>50.467</ele>
        <time>2019-04-29T12:07:22Z</time>
      </trkpt>
      <trkpt lat="43.70802" lon="4.75875">
        <ele>48.794</ele>
        <time>2019-04-29T12:07:33Z</time>
      </trkpt>
      <trkpt lat="43.70775" lon="4.75806">
        <ele>50.361</ele>
        <time>2019-04-29T12:07:43Z</time>
      </trkpt>
      <trkpt lat="43.70744" lon="4.7573">
        <ele>50.812</ele>
        <time>2019-04-29T12:07:53Z</time>
      </trkpt>
      <trkpt lat="43.70712" lon="4.75637">
        <ele>50.992</ele>
        <time>2019-04-29T12:08:04Z</time>
      </trkpt>
      <trkpt lat="43.70694" lon="4.75555">
        <ele>50.379</ele>
        <time>2019-04-29T12:08:14Z</time>
      </trkpt>
      <trkpt lat="43.70726" lon="4.75532">
        <ele>50.638</ele>
        <time>2019-04-29T12:08:25Z</time>
      </trkpt>
      <trkpt lat="43.7075" lon="4.75517">
        <ele>51.929</ele>
        <time>2019-04-29T12:08:36Z</time>
      </trkpt>
      <trkpt lat="43.70777" lon="4.75498">
        <ele>53.089</ele>
        <time>2019-04-29T12:08:47Z</time>
      </trkpt>
      <trkpt lat="43.70794" lon="4.75488">
        <ele>53.5</ele>
        <time>2019-04-29T12:08:57Z</time>
      </trkpt>
      <trkpt lat="43.70822" lon="4.75474">
        <ele>54.08</ele>
        <time>2019-04-29T12:09:08Z</time>
      </trkpt>
      <trkpt lat="43.70847" lon="4.7546">
        <ele>56.059</ele>
        <time>2019-04-29T12:09:19Z</time>
      </trkpt>
      <trkpt lat="43.7087" lon="4.75454">
        <ele>56.775</ele>
        <time>2019-04-29T12:09:29Z</time>
      </trkpt>
      <trkpt lat="43.70894" lon="4.7544">
        <ele>57.668</ele>
        <time>2019-04-29T12:09:40Z</time>
      </trkpt>
      <trkpt lat="43.70913" lon="4.7543">
        <ele>58.087</ele>
        <time>2019-04-29T12:09:51Z</time>
      </trkpt>
      <trkpt lat="43.70919" lon="4.75412">
        <ele>59.565</ele>
        <time>2019-04-29T12:10:01Z</time>
      </trkpt>
      <trkpt lat="43.70922" lon="4.75359">
        <ele>62.151</ele>
        <time>2019-04-29T12:10:12Z</time>
      </trkpt>
      <trkpt lat="43.70904" lon="4.75293">
        <ele>63.584</ele>
        <time>2019-04-29T12:10:23Z</time>
      </trkpt>
      <trkpt lat="43.70893" lon="4.75227">
        <ele>64.049</ele>
        <time>2019-04-29T12:10:34Z</time>
      </trkpt>
      <trkpt lat="43.70871" lon="4.75145">
        <ele>63.633</ele>
        <time>2019-04-29T12:10:44Z</time>
      </trkpt>
      <trkpt lat="43.70842" lon="4.75074">
        <ele>63.87</ele>
        <time>2019-04-29T12:10:54Z</time>
      </trkpt>
      <trkpt lat="43.70808" lon="4.7499">
        <ele>62.975</ele>
        <time>2019-04-29T12:11:05Z</time>
      </trkpt>
      <trkpt lat="43.70781" lon="4.74922">
        <ele>61.947</ele>
        <time>2019-04-29T12:11:15Z</time>
      </trkpt>
      <trkpt lat="43.70749" lon="4.74854">
        <ele>60.55</ele>
        <time>2019-04-29T12:11:26Z</time>
      </trkpt>
      <trkpt lat="43.70739" lon="4.7479">
        <ele>57.867</ele>
        <time>2019-04-29T12:11:36Z</time>
      </trkpt>
      <trkpt lat="43.70729" lon="4.74733">
        <ele>55.97</ele>
        <time>2019-04-29T12:11:46Z</time>
      </trkpt>
      <trkpt lat="43.70722" lon="4.74664">
        <ele>55.547</ele>
        <time>2019-04-29T12:11:57Z</time>
      </trkpt>
      <trkpt lat="43.70716" lon="4.74648">
        <ele>55.749</ele>
        <time>2019-04-29T12:12:07Z</time>
      </trkpt>
      <trkpt lat="43.70716" lon="4.74648">
        <ele>55.831</ele>
        <time>2019-04-29T12:12:18Z</time>
      </trkpt>
      <trkpt lat="43.70716" lon="4.74648">
        <ele>55.91</ele>
        <time>2019-04-29T12:12:28Z</time>
      </trkpt>
      <trkpt lat="43.70716" lon="4.74648">
        <ele>56.009</ele>
        <time>2019-04-29T12:12:39Z</time>
      </trkpt>
      <trkpt lat="43.70716" lon="4.74648">
        <ele>56.092</ele>
        <time>2019-04-29T12:12:49Z</time>
      </trkpt>
      <trkpt lat="43.70716" lon="4.74648">
        <ele>56.194</ele>
        <time>2019-04-29T12:13:00Z</time>
      </trkpt>
      <trkpt lat="43.70716" lon="4.74648">
        <ele>56.286</ele>
        <time>2019-04-29T12:13:10Z</time>
      </trkpt>
      <trkpt lat="43.70716" lon="4.74648">
        <ele>56.38</ele>
        <time>2019-04-29T12:13:21Z</time>
      </trkpt>
      <trkpt lat="43.70716" lon="4.74648">
        <ele>56.461</ele>
        <time>2019-04-29T12:13:31Z</time>
      </trkpt>
      <trkpt lat="43.70716" lon="4.74648">
        <ele>56.54</ele>
        <time>2019-04-29T12:13:41Z</time>
      </trkpt>
      <trkpt lat="43.70717" lon="4.74645">
        <ele>57.224</ele>
        <time>2019-04-29T12:13:52Z</time>
      </trkpt>
      <trkpt lat="43.70717" lon="4.74645">
        <ele>57.519</ele>
        <time>2019-04-29T12:14:03Z</time>
      </trkpt>
      <trkpt lat="43.70718" lon="4.74644">
        <ele>57.933</ele>
        <time>2019-04-29T12:14:14Z</time>
      </trkpt>
      <trkpt lat="43.70717" lon="4.74644">
        <ele>58.484</ele>
        <time>2019-04-29T12:14:24Z</time>
      </trkpt>
      <trkpt lat="43.70709" lon="4.74611">
        <ele>59.441</ele>
        <time>2019-04-29T12:14:34Z</time>
      </trkpt>
      <trkpt lat="43.70699" lon="4.74558">
        <ele>61.105</ele>
        <time>2019-04-29T12:14:45Z</time>
      </trkpt>
      <trkpt lat="43.70687" lon="4.74504">
        <ele>61.921</ele>
        <time>2019-04-29T12:14:55Z</time>
      </trkpt>
      <trkpt lat="43.70667" lon="4.74445">
        <ele>62.713</ele>
        <time>2019-04-29T12:15:05Z</time>
      </trkpt>
      <trkpt lat="43.70649" lon="4.74379">
        <ele>63.756</ele>
        <time>2019-04-29T12:15:16Z</time>
      </trkpt>
      <trkpt lat="43.70641" lon="4.74316">
        <ele>62.85</ele>
        <time>2019-04-29T12:15:27Z</time>
      </trkpt>
      <trkpt lat="43.70634" lon="4.74256">
        <ele>62.459</ele>
        <time>2019-04-29T12:15:37Z</time>
      </trkpt>
      <trkpt lat="43.70627" lon="4.74201">
        <ele>61.938</ele>
        <time>2019-04-29T12:15:47Z</time>
      </trkpt>
      <trkpt lat="43.70619" lon="4.74133">
        <ele>63.404</ele>
        <time>2019-04-29T12:15:58Z</time>
      </trkpt>
      <trkpt lat="43.70613" lon="4.74077">
        <ele>64.047</ele>
        <time>2019-04-29T12:16:09Z</time>
      </trkpt>
      <trkpt lat="43.70612" lon="4.74032">
        <ele>64.083</ele>
        <time>2019-04-29T12:16:19Z</time>
      </trkpt>
      <trkpt lat="43.70607" lon="4.73984">
        <ele>63.955</ele>
        <time>2019-04-29T12:16:29Z</time>
      </trkpt>
      <trkpt lat="43.70609" lon="4.73948">
        <ele>65.686</ele>
        <time>2019-04-29T12:16:40Z</time>
      </trkpt>
      <trkpt lat="43.70602" lon="4.73902">
        <ele>65.633</ele>
        <time>2019-04-29T12:16:50Z</time>
      </trkpt>
      <trkpt lat="43.70598" lon="4.73844">
        <ele>66.223</ele>
        <time>2019-04-29T12:17:01Z</time>
      </trkpt>
      <trkpt lat="43.70592" lon="4.73793">
        <ele>66.224</ele>
        <time>2019-04-29T12:17:11Z</time>
      </trkpt>
      <trkpt lat="43.70588" lon="4.73736">
        <ele>66.337</ele>
        <time>2019-04-29T12:17:22Z</time>
      </trkpt>
      <trkpt lat="43.70584" lon="4.73678">
        <ele>65.76</ele>
        <time>2019-04-29T12:17:32Z</time>
      </trkpt>
      <trkpt lat="43.7058" lon="4.73618">
        <ele>65.229</ele>
        <time>2019-04-29T12:17:43Z</time>
      </trkpt>
      <trkpt lat="43.70577" lon="4.73556">
        <ele>64.972</ele>
        <time>2019-04-29T12:17:53Z</time>
      </trkpt>
      <trkpt lat="43.70569" lon="4.73475">
        <ele>65.589</ele>
        <time>2019-04-29T12:18:04Z</time>
      </trkpt>
      <trkpt lat="43.70563" lon="4.73398">
        <ele>65.042</ele>
        <time>2019-04-29T12:18:14Z</time>
      </trkpt>
      <trkpt lat="43.70556" lon="4.73325">
        <ele>64.293</ele>
        <time>2019-04-29T12:18:24Z</time>
      </trkpt>
      <trkpt lat="43.70553" lon="4.73256">
        <ele>64.57</ele>
        <time>2019-04-29T12:18:35Z</time>
      </trkpt>
      <trkpt lat="43.70547" lon="4.73183">
        <ele>63.992</ele>
        <time>2019-04-29T12:18:45Z</time>
      </trkpt>
      <trkpt lat="43.70543" lon="4.73111">
        <ele>62.903</ele>
        <time>2019-04-29T12:18:56Z</time>
      </trkpt>
      <trkpt lat="43.70538" lon="4.73039">
        <ele>64.478</ele>
        <time>2019-04-29T12:19:06Z</time>
      </trkpt>
      <trkpt lat="43.70534" lon="4.72969">
        <ele>63.927</ele>
        <time>2019-04-29T12:19:17Z</time>
      </trkpt>
      <trkpt lat="43.70529" lon="4.72911">
        <ele>63.733</ele>
        <time>2019-04-29T12:19:27Z</time>
      </trkpt>
      <trkpt lat="43.70522" lon="4.72846">
        <ele>62.896</ele>
        <time>2019-04-29T12:19:38Z</time>
      </trkpt>
      <trkpt lat="43.70519" lon="4.72778">
        <ele>62.122</ele>
        <time>2019-04-29T12:19:48Z</time>
      </trkpt>
      <trkpt lat="43.70517" lon="4.72716">
        <ele>61.845</ele>
        <time>2019-04-29T12:19:58Z</time>
      </trkpt>
      <trkpt lat="43.7051" lon="4.72643">
        <ele>61.003</ele>
        <time>2019-04-29T12:20:08Z</time>
      </trkpt>
      <trkpt lat="43.70503" lon="4.72574">
        <ele>61.633</ele>
        <time>2019-04-29T12:20:19Z</time>
      </trkpt>
      <trkpt lat="43.70496" lon="4.72511">
        <ele>61.209</ele>
        <time>2019-04-29T12:20:30Z</time>
      </trkpt>
      <trkpt lat="43.70495" lon="4.72461">
        <ele>61.56</ele>
        <time>2019-04-29T12:20:40Z</time>
      </trkpt>
      <trkpt lat="43.70493" lon="4.72399">
        <ele>61.121</ele>
        <time>2019-04-29T12:20:51Z</time>
      </trkpt>
      <trkpt lat="43.70489" lon="4.72342">
        <ele>61.074</ele>
        <time>2019-04-29T12:21:02Z</time>
      </trkpt>
      <trkpt lat="43.70493" lon="4.72265">
        <ele>58.215</ele>
        <time>2019-04-29T12:21:13Z</time>
      </trkpt>
      <trkpt lat="43.70495" lon="4.72218">
        <ele>57.907</ele>
        <time>2019-04-29T12:21:23Z</time>
      </trkpt>
      <trkpt lat="43.70495" lon="4.72176">
        <ele>57.509</ele>
        <time>2019-04-29T12:21:33Z</time>
      </trkpt>
      <trkpt lat="43.70497" lon="4.72134">
        <ele>57.471</ele>
        <time>2019-04-29T12:21:43Z</time>
      </trkpt>
      <trkpt lat="43.70499" lon="4.72117">
        <ele>57.638</ele>
        <time>2019-04-29T12:21:53Z</time>
      </trkpt>
      <trkpt lat="43.70497" lon="4.72149">
        <ele>58.209</ele>
        <time>2019-04-29T12:22:04Z</time>
      </trkpt>
      <trkpt lat="43.70494" lon="4.72175">
        <ele>58.582</ele>
        <time>2019-04-29T12:22:14Z</time>
      </trkpt>
      <trkpt lat="43.70483" lon="4.72169">
        <ele>59.387</ele>
        <time>2019-04-29T12:22:25Z</time>
      </trkpt>
      <trkpt lat="43.70463" lon="4.72164">
        <ele>60.425</ele>
        <time>2019-04-29T12:22:36Z</time>
      </trkpt>
      <trkpt lat="43.70436" lon="4.72167">
        <ele>60.645</ele>
        <time>2019-04-29T12:22:47Z</time>
      </trkpt>
      <trkpt lat="43.70422" lon="4.72163">
        <ele>60.719</ele>
        <time>2019-04-29T12:22:57Z</time>
      </trkpt>
      <trkpt lat="43.70405" lon="4.72164">
        <ele>61.228</ele>
        <time>2019-04-29T12:23:08Z</time>
      </trkpt>
      <trkpt lat="43.70403" lon="4.72158">
        <ele>60.734</ele>
        <time>2019-04-29T12:23:19Z</time>
      </trkpt>
      <trkpt lat="43.70403" lon="4.72154">
        <ele>60.787</ele>
        <time>2019-04-29T12:23:29Z</time>
      </trkpt>
      <trkpt lat="43.70396" lon="4.72153">
        <ele>61.066</ele>
        <time>2019-04-29T12:23:39Z</time>
      </trkpt>
      <trkpt lat="43.70371" lon="4.7215">
        <ele>61.5</ele>
        <time>2019-04-29T12:23:50Z</time>
      </trkpt>
      <trkpt lat="43.70372" lon="4.72151">
        <ele>62.596</ele>
        <time>2019-04-29T12:24:02Z</time>
      </trkpt>
      <trkpt lat="43.70369" lon="4.7215">
        <ele>62.197</ele>
        <time>2019-04-29T12:24:12Z</time>
      </trkpt>
      <trkpt lat="43.70369" lon="4.7215">
        <ele>62.175</ele>
        <time>2019-04-29T12:24:24Z</time>
      </trkpt>
      <trkpt lat="43.70369" lon="4.7215">
        <ele>62.177</ele>
        <time>2019-04-29T12:24:34Z</time>
      </trkpt>
      <trkpt lat="43.70369" lon="4.7215">
        <ele>62.196</ele>
        <time>2019-04-29T12:24:44Z</time>
      </trkpt>
      <trkpt lat="43.70369" lon="4.7215">
        <ele>62.218</ele>
        <time>2019-04-29T12:24:54Z</time>
      </trkpt>
      <trkpt lat="43.70369" lon="4.7215">
        <ele>62.227</ele>
        <time>2019-04-29T12:25:05Z</time>
      </trkpt>
      <trkpt lat="43.70369" lon="4.7215">
        <ele>62.256</ele>
        <time>2019-04-29T12:25:16Z</time>
      </trkpt>
      <trkpt lat="43.70369" lon="4.7215">
        <ele>62.279</ele>
        <time>2019-04-29T12:25:26Z</time>
      </trkpt>
      <trkpt lat="43.70369" lon="4.7215">
        <ele>62.318</ele>
        <time>2019-04-29T12:25:37Z</time>
      </trkpt>
      <trkpt lat="43.70369" lon="4.7215">
        <ele>62.369</ele>
        <time>2019-04-29T12:25:47Z</time>
      </trkpt>
      <trkpt lat="43.70369" lon="4.7215">
        <ele>62.433</ele>
        <time>2019-04-29T12:25:58Z</time>
      </trkpt>
      <trkpt lat="43.7037" lon="4.7215">
        <ele>62.487</ele>
        <time>2019-04-29T12:26:09Z</time>
      </trkpt>
      <trkpt lat="43.7037" lon="4.7215">
        <ele>62.526</ele>
        <time>2019-04-29T12:26:20Z</time>
      </trkpt>
      <trkpt lat="43.7037" lon="4.72149">
        <ele>62.559</ele>
        <time>2019-04-29T12:26:30Z</time>
      </trkpt>
      <trkpt lat="43.7037" lon="4.72149">
        <ele>62.604</ele>
        <time>2019-04-29T12:26:41Z</time>
      </trkpt>
      <trkpt lat="43.7037" lon="4.72149">
        <ele>62.639</ele>
        <time>2019-04-29T12:26:51Z</time>
      </trkpt>
      <trkpt lat="43.7037" lon="4.72149">
        <ele>62.66</ele>
        <time>2019-04-29T12:27:01Z</time>
      </trkpt>
      <trkpt lat="43.7037" lon="4.72149">
        <ele>62.674</ele>
        <time>2019-04-29T12:27:12Z</time>
      </trkpt>
      <trkpt lat="43.7037" lon="4.72149">
        <ele>62.675</ele>
        <time>2019-04-29T12:27:23Z</time>
      </trkpt>
      <trkpt lat="43.7037" lon="4.72149">
        <ele>62.671</ele>
        <time>2019-04-29T12:27:34Z</time>
      </trkpt>
      <trkpt lat="43.7037" lon="4.72149">
        <ele>62.655</ele>
        <time>2019-04-29T12:27:45Z</time>
      </trkpt>
      <trkpt lat="43.7037" lon="4.72149">
        <ele>62.639</ele>
        <time>2019-04-29T12:27:55Z</time>
      </trkpt>
      <trkpt lat="43.7037" lon="4.72149">
        <ele>62.616</ele>
        <time>2019-04-29T12:28:05Z</time>
      </trkpt>
      <trkpt lat="43.7037" lon="4.72149">
        <ele>62.621</ele>
        <time>2019-04-29T12:28:16Z</time>
      </trkpt>
      <trkpt lat="43.7037" lon="4.72149">
        <ele>62.613</ele>
        <time>2019-04-29T12:28:27Z</time>
      </trkpt>
      <trkpt lat="43.7037" lon="4.72149">
        <ele>62.585</ele>
        <time>2019-04-29T12:28:38Z</time>
      </trkpt>
      <trkpt lat="43.7037" lon="4.72149">
        <ele>62.567</ele>
        <time>2019-04-29T12:28:49Z</time>
      </trkpt>
      <trkpt lat="43.7037" lon="4.72149">
        <ele>62.552</ele>
        <time>2019-04-29T12:28:59Z</time>
      </trkpt>
      <trkpt lat="43.7037" lon="4.72149">
        <ele>62.537</ele>
        <time>2019-04-29T12:29:09Z</time>
      </trkpt>
      <trkpt lat="43.7037" lon="4.72149">
        <ele>62.527</ele>
        <time>2019-04-29T12:29:20Z</time>
      </trkpt>
      <trkpt lat="43.7037" lon="4.72149">
        <ele>62.524</ele>
        <time>2019-04-29T12:29:30Z</time>
      </trkpt>
      <trkpt lat="43.7037" lon="4.72149">
        <ele>62.506</ele>
        <time>2019-04-29T12:29:41Z</time>
      </trkpt>
      <trkpt lat="43.7037" lon="4.72149">
        <ele>62.499</ele>
        <time>2019-04-29T12:29:52Z</time>
      </trkpt>
      <trkpt lat="43.70371" lon="4.72149">
        <ele>62.507</ele>
        <time>2019-04-29T12:30:03Z</time>
      </trkpt>
      <trkpt lat="43.70372" lon="4.72149">
        <ele>62.397</ele>
        <time>2019-04-29T12:30:14Z</time>
      </trkpt>
      <trkpt lat="43.70396" lon="4.72154">
        <ele>62.032</ele>
        <time>2019-04-29T12:30:25Z</time>
      </trkpt>
      <trkpt lat="43.70425" lon="4.7217">
        <ele>62.148</ele>
        <time>2019-04-29T12:30:36Z</time>
      </trkpt>
      <trkpt lat="43.70451" lon="4.72164">
        <ele>62.487</ele>
        <time>2019-04-29T12:30:47Z</time>
      </trkpt>
      <trkpt lat="43.70476" lon="4.72165">
        <ele>62.774</ele>
        <time>2019-04-29T12:30:57Z</time>
      </trkpt>
      <trkpt lat="43.70491" lon="4.72177">
        <ele>62.944</ele>
        <time>2019-04-29T12:31:07Z</time>
      </trkpt>
      <trkpt lat="43.70495" lon="4.72179">
        <ele>62.947</ele>
        <time>2019-04-29T12:31:17Z</time>
      </trkpt>
      <trkpt lat="43.70498" lon="4.72138">
        <ele>63.025</ele>
        <time>2019-04-29T12:31:28Z</time>
      </trkpt>
      <trkpt lat="43.70508" lon="4.72081">
        <ele>65.275</ele>
        <time>2019-04-29T12:31:38Z</time>
      </trkpt>
      <trkpt lat="43.7052" lon="4.72057">
        <ele>65.238</ele>
        <time>2019-04-29T12:31:49Z</time>
      </trkpt>
      <trkpt lat="43.70523" lon="4.72067">
        <ele>64.428</ele>
        <time>2019-04-29T12:31:59Z</time>
      </trkpt>
      <trkpt lat="43.70523" lon="4.72067">
        <ele>64.422</ele>
        <time>2019-04-29T12:32:10Z</time>
      </trkpt>
      <trkpt lat="43.70523" lon="4.72068">
        <ele>64.495</ele>
        <time>2019-04-29T12:32:20Z</time>
      </trkpt>
      <trkpt lat="43.70523" lon="4.72068">
        <ele>64.635</ele>
        <time>2019-04-29T12:32:31Z</time>
      </trkpt>
      <trkpt lat="43.70522" lon="4.7207">
        <ele>64.808</ele>
        <time>2019-04-29T12:32:42Z</time>
      </trkpt>
      <trkpt lat="43.70526" lon="4.72073">
        <ele>69.882</ele>
        <time>2019-04-29T12:32:52Z</time>
      </trkpt>
      <trkpt lat="43.70526" lon="4.72068">
        <ele>69.837</ele>
        <time>2019-04-29T12:33:02Z</time>
      </trkpt>
      <trkpt lat="43.70522" lon="4.72067">
        <ele>69.883</ele>
        <time>2019-04-29T12:33:12Z</time>
      </trkpt>
      <trkpt lat="43.70521" lon="4.72057">
        <ele>69.202</ele>
        <time>2019-04-29T12:33:23Z</time>
      </trkpt>
      <trkpt lat="43.70524" lon="4.72004">
        <ele>68.548</ele>
        <time>2019-04-29T12:33:34Z</time>
      </trkpt>
      <trkpt lat="43.70532" lon="4.71941">
        <ele>66.291</ele>
        <time>2019-04-29T12:33:45Z</time>
      </trkpt>
      <trkpt lat="43.70545" lon="4.71869">
        <ele>60.825</ele>
        <time>2019-04-29T12:33:55Z</time>
      </trkpt>
      <trkpt lat="43.70555" lon="4.71799">
        <ele>61.746</ele>
        <time>2019-04-29T12:34:06Z</time>
      </trkpt>
      <trkpt lat="43.7056" lon="4.71743">
        <ele>61.91</ele>
        <time>2019-04-29T12:34:16Z</time>
      </trkpt>
      <trkpt lat="43.70573" lon="4.71682">
        <ele>62.623</ele>
        <time>2019-04-29T12:34:26Z</time>
      </trkpt>
      <trkpt lat="43.7059" lon="4.71594">
        <ele>66.491</ele>
        <time>2019-04-29T12:34:39Z</time>
      </trkpt>
      <trkpt lat="43.70599" lon="4.71524">
        <ele>64.617</ele>
        <time>2019-04-29T12:34:50Z</time>
      </trkpt>
      <trkpt lat="43.70602" lon="4.71456">
        <ele>63.04</ele>
        <time>2019-04-29T12:35:00Z</time>
      </trkpt>
      <trkpt lat="43.70602" lon="4.71384">
        <ele>61.196</ele>
        <time>2019-04-29T12:35:10Z</time>
      </trkpt>
      <trkpt lat="43.70612" lon="4.71322">
        <ele>58.183</ele>
        <time>2019-04-29T12:35:21Z</time>
      </trkpt>
      <trkpt lat="43.7062" lon="4.71265">
        <ele>60.177</ele>
        <time>2019-04-29T12:35:32Z</time>
      </trkpt>
      <trkpt lat="43.70629" lon="4.71209">
        <ele>61.108</ele>
        <time>2019-04-29T12:35:42Z</time>
      </trkpt>
      <trkpt lat="43.70639" lon="4.71153">
        <ele>61.342</ele>
        <time>2019-04-29T12:35:53Z</time>
      </trkpt>
      <trkpt lat="43.70648" lon="4.71094">
        <ele>62.092</ele>
        <time>2019-04-29T12:36:03Z</time>
      </trkpt>
      <trkpt lat="43.70658" lon="4.71032">
        <ele>61.433</ele>
        <time>2019-04-29T12:36:14Z</time>
      </trkpt>
      <trkpt lat="43.70658" lon="4.70969">
        <ele>65.214</ele>
        <time>2019-04-29T12:36:24Z</time>
      </trkpt>
      <trkpt lat="43.7066" lon="4.70899">
        <ele>64.116</ele>
        <time>2019-04-29T12:36:35Z</time>
      </trkpt>
      <trkpt lat="43.70673" lon="4.70845">
        <ele>64.155</ele>
        <time>2019-04-29T12:36:46Z</time>
      </trkpt>
      <trkpt lat="43.70688" lon="4.708">
        <ele>63.491</ele>
        <time>2019-04-29T12:36:56Z</time>
      </trkpt>
      <trkpt lat="43.7069" lon="4.70755">
        <ele>63.096</ele>
        <time>2019-04-29T12:37:07Z</time>
      </trkpt>
      <trkpt lat="43.7069" lon="4.70704">
        <ele>62.362</ele>
        <time>2019-04-29T12:37:18Z</time>
      </trkpt>
      <trkpt lat="43.70684" lon="4.70644">
        <ele>60.065</ele>
        <time>2019-04-29T12:37:28Z</time>
      </trkpt>
      <trkpt lat="43.70678" lon="4.70576">
        <ele>62.598</ele>
        <time>2019-04-29T12:37:39Z</time>
      </trkpt>
      <trkpt lat="43.70673" lon="4.70508">
        <ele>65.609</ele>
        <time>2019-04-29T12:37:49Z</time>
      </trkpt>
      <trkpt lat="43.70686" lon="4.70437">
        <ele>60.397</ele>
        <time>2019-04-29T12:37:59Z</time>
      </trkpt>
      <trkpt lat="43.7071" lon="4.70358">
        <ele>56.512</ele>
        <time>2019-04-29T12:38:10Z</time>
      </trkpt>
      <trkpt lat="43.7073" lon="4.70281">
        <ele>55.053</ele>
        <time>2019-04-29T12:38:21Z</time>
      </trkpt>
      <trkpt lat="43.70746" lon="4.70206">
        <ele>56.709</ele>
        <time>2019-04-29T12:38:32Z</time>
      </trkpt>
      <trkpt lat="43.70762" lon="4.70131">
        <ele>54.966</ele>
        <time>2019-04-29T12:38:42Z</time>
      </trkpt>
      <trkpt lat="43.70778" lon="4.70063">
        <ele>53.153</ele>
        <time>2019-04-29T12:38:52Z</time>
      </trkpt>
      <trkpt lat="43.70794" lon="4.6999">
        <ele>53.888</ele>
        <time>2019-04-29T12:39:03Z</time>
      </trkpt>
      <trkpt lat="43.70813" lon="4.69914">
        <ele>54.133</ele>
        <time>2019-04-29T12:39:14Z</time>
      </trkpt>
      <trkpt lat="43.70834" lon="4.69849">
        <ele>54.605</ele>
        <time>2019-04-29T12:39:24Z</time>
      </trkpt>
      <trkpt lat="43.70859" lon="4.69777">
        <ele>56.361</ele>
        <time>2019-04-29T12:39:35Z</time>
      </trkpt>
      <trkpt lat="43.70876" lon="4.69718">
        <ele>53.566</ele>
        <time>2019-04-29T12:39:45Z</time>
      </trkpt>
      <trkpt lat="43.70895" lon="4.69659">
        <ele>55.807</ele>
        <time>2019-04-29T12:39:56Z</time>
      </trkpt>
      <trkpt lat="43.70911" lon="4.69613">
        <ele>56.668</ele>
        <time>2019-04-29T12:40:07Z</time>
      </trkpt>
      <trkpt lat="43.70929" lon="4.69563">
        <ele>61.85</ele>
        <time>2019-04-29T12:40:17Z</time>
      </trkpt>
      <trkpt lat="43.70957" lon="4.6952">
        <ele>61.131</ele>
        <time>2019-04-29T12:40:27Z</time>
      </trkpt>
      <trkpt lat="43.71001" lon="4.69459">
        <ele>57.382</ele>
        <time>2019-04-29T12:40:39Z</time>
      </trkpt>
      <trkpt lat="43.71035" lon="4.69405">
        <ele>55.883</ele>
        <time>2019-04-29T12:40:50Z</time>
      </trkpt>
      <trkpt lat="43.71066" lon="4.69362">
        <ele>54.576</ele>
        <time>2019-04-29T12:41:01Z</time>
      </trkpt>
      <trkpt lat="43.71088" lon="4.69322">
        <ele>55.013</ele>
        <time>2019-04-29T12:41:11Z</time>
      </trkpt>
      <trkpt lat="43.71117" lon="4.69272">
        <ele>55.743</ele>
        <time>2019-04-29T12:41:22Z</time>
      </trkpt>
      <trkpt lat="43.71152" lon="4.69239">
        <ele>54.055</ele>
        <time>2019-04-29T12:41:32Z</time>
      </trkpt>
      <trkpt lat="43.71191" lon="4.69199">
        <ele>52.551</ele>
        <time>2019-04-29T12:41:42Z</time>
      </trkpt>
      <trkpt lat="43.71227" lon="4.69161">
        <ele>52.875</ele>
        <time>2019-04-29T12:41:53Z</time>
      </trkpt>
      <trkpt lat="43.71252" lon="4.69126">
        <ele>52.801</ele>
        <time>2019-04-29T12:42:03Z</time>
      </trkpt>
      <trkpt lat="43.71262" lon="4.69071">
        <ele>53.028</ele>
        <time>2019-04-29T12:42:14Z</time>
      </trkpt>
      <trkpt lat="43.71262" lon="4.69014">
        <ele>53.65</ele>
        <time>2019-04-29T12:42:25Z</time>
      </trkpt>
      <trkpt lat="43.71262" lon="4.68946">
        <ele>53.765</ele>
        <time>2019-04-29T12:42:35Z</time>
      </trkpt>
      <trkpt lat="43.71259" lon="4.68861">
        <ele>50.425</ele>
        <time>2019-04-29T12:42:46Z</time>
      </trkpt>
      <trkpt lat="43.71263" lon="4.68797">
        <ele>47.297</ele>
        <time>2019-04-29T12:42:56Z</time>
      </trkpt>
      <trkpt lat="43.7127" lon="4.68741">
        <ele>49.278</ele>
        <time>2019-04-29T12:43:06Z</time>
      </trkpt>
      <trkpt lat="43.71277" lon="4.68683">
        <ele>49.749</ele>
        <time>2019-04-29T12:43:16Z</time>
      </trkpt>
      <trkpt lat="43.71283" lon="4.6866">
        <ele>49.876</ele>
        <time>2019-04-29T12:43:27Z</time>
      </trkpt>
      <trkpt lat="43.71267" lon="4.68608">
        <ele>49.62</ele>
        <time>2019-04-29T12:43:37Z</time>
      </trkpt>
      <trkpt lat="43.71238" lon="4.68538">
        <ele>50.02</ele>
        <time>2019-04-29T12:43:48Z</time>
      </trkpt>
      <trkpt lat="43.71216" lon="4.68487">
        <ele>54.372</ele>
        <time>2019-04-29T12:43:58Z</time>
      </trkpt>
      <trkpt lat="43.71196" lon="4.68441">
        <ele>54.041</ele>
        <time>2019-04-29T12:44:09Z</time>
      </trkpt>
      <trkpt lat="43.71178" lon="4.68403">
        <ele>50.387</ele>
        <time>2019-04-29T12:44:20Z</time>
      </trkpt>
      <trkpt lat="43.7116" lon="4.68367">
        <ele>50.66</ele>
        <time>2019-04-29T12:44:30Z</time>
      </trkpt>
      <trkpt lat="43.71137" lon="4.6833">
        <ele>51.303</ele>
        <time>2019-04-29T12:44:41Z</time>
      </trkpt>
      <trkpt lat="43.71114" lon="4.68288">
        <ele>55.271</ele>
        <time>2019-04-29T12:44:51Z</time>
      </trkpt>
      <trkpt lat="43.71083" lon="4.68234">
        <ele>55.241</ele>
        <time>2019-04-29T12:45:02Z</time>
      </trkpt>
      <trkpt lat="43.71062" lon="4.68164">
        <ele>55.084</ele>
        <time>2019-04-29T12:45:13Z</time>
      </trkpt>
      <trkpt lat="43.71052" lon="4.68096">
        <ele>54.245</ele>
        <time>2019-04-29T12:45:23Z</time>
      </trkpt>
      <trkpt lat="43.71047" lon="4.6802">
        <ele>54.409</ele>
        <time>2019-04-29T12:45:34Z</time>
      </trkpt>
      <trkpt lat="43.71044" lon="4.67944">
        <ele>54.061</ele>
        <time>2019-04-29T12:45:45Z</time>
      </trkpt>
      <trkpt lat="43.71024" lon="4.67874">
        <ele>56.536</ele>
        <time>2019-04-29T12:45:56Z</time>
      </trkpt>
      <trkpt lat="43.70993" lon="4.67809">
        <ele>54.488</ele>
        <time>2019-04-29T12:46:06Z</time>
      </trkpt>
      <trkpt lat="43.70961" lon="4.67742">
        <ele>53.88</ele>
        <time>2019-04-29T12:46:17Z</time>
      </trkpt>
      <trkpt lat="43.70934" lon="4.67661">
        <ele>53.762</ele>
        <time>2019-04-29T12:46:27Z</time>
      </trkpt>
      <trkpt lat="43.70909" lon="4.67575">
        <ele>53.371</ele>
        <time>2019-04-29T12:46:38Z</time>
      </trkpt>
      <trkpt lat="43.70893" lon="4.67504">
        <ele>52.841</ele>
        <time>2019-04-29T12:46:48Z</time>
      </trkpt>
      <trkpt lat="43.70864" lon="4.67437">
        <ele>52.518</ele>
        <time>2019-04-29T12:46:59Z</time>
      </trkpt>
      <trkpt lat="43.70818" lon="4.67384">
        <ele>50.93</ele>
        <time>2019-04-29T12:47:09Z</time>
      </trkpt>
      <trkpt lat="43.70761" lon="4.67339">
        <ele>50.381</ele>
        <time>2019-04-29T12:47:19Z</time>
      </trkpt>
      <trkpt lat="43.70706" lon="4.67281">
        <ele>50.347</ele>
        <time>2019-04-29T12:47:29Z</time>
      </trkpt>
      <trkpt lat="43.70673" lon="4.67208">
        <ele>49.97</ele>
        <time>2019-04-29T12:47:39Z</time>
      </trkpt>
      <trkpt lat="43.70662" lon="4.67123">
        <ele>50.407</ele>
        <time>2019-04-29T12:47:50Z</time>
      </trkpt>
      <trkpt lat="43.70672" lon="4.67041">
        <ele>49.13</ele>
        <time>2019-04-29T12:48:01Z</time>
      </trkpt>
      <trkpt lat="43.70682" lon="4.66969">
        <ele>49.404</ele>
        <time>2019-04-29T12:48:11Z</time>
      </trkpt>
      <trkpt lat="43.70684" lon="4.66896">
        <ele>49.68</ele>
        <time>2019-04-29T12:48:22Z</time>
      </trkpt>
      <trkpt lat="43.70676" lon="4.66834">
        <ele>49.126</ele>
        <time>2019-04-29T12:48:32Z</time>
      </trkpt>
      <trkpt lat="43.70662" lon="4.66773">
        <ele>50.187</ele>
        <time>2019-04-29T12:48:43Z</time>
      </trkpt>
      <trkpt lat="43.70657" lon="4.66723">
        <ele>47.851</ele>
        <time>2019-04-29T12:48:54Z</time>
      </trkpt>
      <trkpt lat="43.70649" lon="4.66659">
        <ele>46.779</ele>
        <time>2019-04-29T12:49:04Z</time>
      </trkpt>
      <trkpt lat="43.70639" lon="4.66601">
        <ele>47.179</ele>
        <time>2019-04-29T12:49:15Z</time>
      </trkpt>
      <trkpt lat="43.70628" lon="4.66556">
        <ele>47.954</ele>
        <time>2019-04-29T12:49:25Z</time>
      </trkpt>
      <trkpt lat="43.70624" lon="4.66518">
        <ele>50.451</ele>
        <time>2019-04-29T12:49:36Z</time>
      </trkpt>
      <trkpt lat="43.70623" lon="4.66513">
        <ele>50.598</ele>
        <time>2019-04-29T12:49:46Z</time>
      </trkpt>
      <trkpt lat="43.7062" lon="4.6651">
        <ele>50.809</ele>
        <time>2019-04-29T12:49:57Z</time>
      </trkpt>
      <trkpt lat="43.7062" lon="4.6651">
        <ele>50.854</ele>
        <time>2019-04-29T12:50:07Z</time>
      </trkpt>
      <trkpt lat="43.70619" lon="4.66508">
        <ele>51.002</ele>
        <time>2019-04-29T12:50:18Z</time>
      </trkpt>
      <trkpt lat="43.70615" lon="4.66491">
        <ele>51.336</ele>
        <time>2019-04-29T12:50:29Z</time>
      </trkpt>
      <trkpt lat="43.70608" lon="4.66457">
        <ele>52.121</ele>
        <time>2019-04-29T12:50:40Z</time>
      </trkpt>
      <trkpt lat="43.70598" lon="4.66435">
        <ele>52.494</ele>
        <time>2019-04-29T12:50:50Z</time>
      </trkpt>
      <trkpt lat="43.70605" lon="4.66428">
        <ele>54.037</ele>
        <time>2019-04-29T12:51:00Z</time>
      </trkpt>
      <trkpt lat="43.70602" lon="4.66425">
        <ele>54.972</ele>
        <time>2019-04-29T12:51:11Z</time>
      </trkpt>
      <trkpt lat="43.70602" lon="4.66425">
        <ele>55.374</ele>
        <time>2019-04-29T12:51:22Z</time>
      </trkpt>
      <trkpt lat="43.70602" lon="4.66425">
        <ele>55.992</ele>
        <time>2019-04-29T12:51:33Z</time>
      </trkpt>
      <trkpt lat="43.70595" lon="4.66424">
        <ele>56.51</ele>
        <time>2019-04-29T12:51:44Z</time>
      </trkpt>
      <trkpt lat="43.70599" lon="4.66436">
        <ele>57.306</ele>
        <time>2019-04-29T12:51:55Z</time>
      </trkpt>
      <trkpt lat="43.70602" lon="4.66444">
        <ele>56.505</ele>
        <time>2019-04-29T12:52:06Z</time>
      </trkpt>
      <trkpt lat="43.70605" lon="4.66426">
        <ele>56.461</ele>
        <time>2019-04-29T12:52:16Z</time>
      </trkpt>
      <trkpt lat="43.7061" lon="4.66395">
        <ele>56.445</ele>
        <time>2019-04-29T12:52:27Z</time>
      </trkpt>
      <trkpt lat="43.70617" lon="4.66354">
        <ele>56.303</ele>
        <time>2019-04-29T12:52:38Z</time>
      </trkpt>
      <trkpt lat="43.70633" lon="4.66314">
        <ele>58.315</ele>
        <time>2019-04-29T12:52:48Z</time>
      </trkpt>
      <trkpt lat="43.7065" lon="4.66255">
        <ele>59.777</ele>
        <time>2019-04-29T12:52:58Z</time>
      </trkpt>
      <trkpt lat="43.70654" lon="4.66174">
        <ele>57.504</ele>
        <time>2019-04-29T12:53:08Z</time>
      </trkpt>
      <trkpt lat="43.70653" lon="4.6609">
        <ele>53.761</ele>
        <time>2019-04-29T12:53:19Z</time>
      </trkpt>
      <trkpt lat="43.70644" lon="4.65999">
        <ele>51.655</ele>
        <time>2019-04-29T12:53:30Z</time>
      </trkpt>
      <trkpt lat="43.70625" lon="4.65923">
        <ele>50.895</ele>
        <time>2019-04-29T12:53:41Z</time>
      </trkpt>
      <trkpt lat="43.70607" lon="4.6585">
        <ele>50.605</ele>
        <time>2019-04-29T12:53:51Z</time>
      </trkpt>
      <trkpt lat="43.70582" lon="4.65775">
        <ele>49.797</ele>
        <time>2019-04-29T12:54:02Z</time>
      </trkpt>
      <trkpt lat="43.70542" lon="4.65725">
        <ele>50.912</ele>
        <time>2019-04-29T12:54:12Z</time>
      </trkpt>
      <trkpt lat="43.70491" lon="4.65687">
        <ele>48.526</ele>
        <time>2019-04-29T12:54:23Z</time>
      </trkpt>
      <trkpt lat="43.70425" lon="4.65666">
        <ele>46.621</ele>
        <time>2019-04-29T12:54:34Z</time>
      </trkpt>
      <trkpt lat="43.70369" lon="4.6567">
        <ele>47.59</ele>
        <time>2019-04-29T12:54:44Z</time>
      </trkpt>
      <trkpt lat="43.70303" lon="4.65679">
        <ele>47.028</ele>
        <time>2019-04-29T12:54:55Z</time>
      </trkpt>
      <trkpt lat="43.70241" lon="4.65688">
        <ele>45.621</ele>
        <time>2019-04-29T12:55:06Z</time>
      </trkpt>
      <trkpt lat="43.70181" lon="4.65674">
        <ele>45.677</ele>
        <time>2019-04-29T12:55:16Z</time>
      </trkpt>
      <trkpt lat="43.70129" lon="4.6562">
        <ele>46.507</ele>
        <time>2019-04-29T12:55:26Z</time>
      </trkpt>
      <trkpt lat="43.70092" lon="4.65539">
        <ele>45.914</ele>
        <time>2019-04-29T12:55:37Z</time>
      </trkpt>
      <trkpt lat="43.70058" lon="4.65464">
        <ele>45.607</ele>
        <time>2019-04-29T12:55:48Z</time>
      </trkpt>
      <trkpt lat="43.70026" lon="4.65406">
        <ele>45.554</ele>
        <time>2019-04-29T12:55:58Z</time>
      </trkpt>
      <trkpt lat="43.69987" lon="4.65349">
        <ele>46.158</ele>
        <time>2019-04-29T12:56:09Z</time>
      </trkpt>
      <trkpt lat="43.6995" lon="4.65287">
        <ele>47.09</ele>
        <time>2019-04-29T12:56:20Z</time>
      </trkpt>
      <trkpt lat="43.69919" lon="4.65232">
        <ele>47.995</ele>
        <time>2019-04-29T12:56:30Z</time>
      </trkpt>
      <trkpt lat="43.69885" lon="4.65168">
        <ele>47.346</ele>
        <time>2019-04-29T12:56:41Z</time>
      </trkpt>
      <trkpt lat="43.69855" lon="4.65107">
        <ele>47.398</ele>
        <time>2019-04-29T12:56:52Z</time>
      </trkpt>
      <trkpt lat="43.69839" lon="4.65036">
        <ele>47.757</ele>
        <time>2019-04-29T12:57:03Z</time>
      </trkpt>
      <trkpt lat="43.6984" lon="4.64971">
        <ele>48.628</ele>
        <time>2019-04-29T12:57:14Z</time>
      </trkpt>
      <trkpt lat="43.69833" lon="4.64914">
        <ele>49.53</ele>
        <time>2019-04-29T12:57:25Z</time>
      </trkpt>
      <trkpt lat="43.69832" lon="4.64858">
        <ele>50.645</ele>
        <time>2019-04-29T12:57:35Z</time>
      </trkpt>
      <trkpt lat="43.69831" lon="4.648">
        <ele>50.444</ele>
        <time>2019-04-29T12:57:46Z</time>
      </trkpt>
      <trkpt lat="43.69831" lon="4.64744">
        <ele>50.116</ele>
        <time>2019-04-29T12:57:56Z</time>
      </trkpt>
      <trkpt lat="43.69834" lon="4.64693">
        <ele>50.228</ele>
        <time>2019-04-29T12:58:07Z</time>
      </trkpt>
      <trkpt lat="43.69849" lon="4.64665">
        <ele>50.274</ele>
        <time>2019-04-29T12:58:17Z</time>
      </trkpt>
      <trkpt lat="43.69868" lon="4.64635">
        <ele>50.233</ele>
        <time>2019-04-29T12:58:27Z</time>
      </trkpt>
      <trkpt lat="43.69866" lon="4.64584">
        <ele>50.104</ele>
        <time>2019-04-29T12:58:38Z</time>
      </trkpt>
      <trkpt lat="43.69838" lon="4.64546">
        <ele>49.583</ele>
        <time>2019-04-29T12:58:48Z</time>
      </trkpt>
      <trkpt lat="43.69831" lon="4.64492">
        <ele>49.196</ele>
        <time>2019-04-29T12:58:58Z</time>
      </trkpt>
      <trkpt lat="43.69833" lon="4.64446">
        <ele>49.197</ele>
        <time>2019-04-29T12:59:09Z</time>
      </trkpt>
      <trkpt lat="43.69833" lon="4.64446">
        <ele>49.215</ele>
        <time>2019-04-29T12:59:20Z</time>
      </trkpt>
      <trkpt lat="43.69832" lon="4.64445">
        <ele>49.305</ele>
        <time>2019-04-29T12:59:31Z</time>
      </trkpt>
      <trkpt lat="43.69832" lon="4.64445">
        <ele>49.362</ele>
        <time>2019-04-29T12:59:41Z</time>
      </trkpt>
      <trkpt lat="43.69832" lon="4.64445">
        <ele>49.439</ele>
        <time>2019-04-29T12:59:52Z</time>
      </trkpt>
      <trkpt lat="43.69832" lon="4.64445">
        <ele>49.52</ele>
        <time>2019-04-29T13:00:02Z</time>
      </trkpt>
      <trkpt lat="43.69832" lon="4.64435">
        <ele>49.845</ele>
        <time>2019-04-29T13:00:13Z</time>
      </trkpt>
      <trkpt lat="43.6983" lon="4.64388">
        <ele>50.034</ele>
        <time>2019-04-29T13:00:24Z</time>
      </trkpt>
      <trkpt lat="43.69839" lon="4.64333">
        <ele>50.262</ele>
        <time>2019-04-29T13:00:34Z</time>
      </trkpt>
      <trkpt lat="43.69864" lon="4.64287">
        <ele>51.523</ele>
        <time>2019-04-29T13:00:45Z</time>
      </trkpt>
      <trkpt lat="43.6986" lon="4.64234">
        <ele>50.941</ele>
        <time>2019-04-29T13:00:55Z</time>
      </trkpt>
      <trkpt lat="43.69813" lon="4.64239">
        <ele>48.433</ele>
        <time>2019-04-29T13:01:06Z</time>
      </trkpt>
      <trkpt lat="43.69764" lon="4.64208">
        <ele>47.248</ele>
        <time>2019-04-29T13:01:17Z</time>
      </trkpt>
      <trkpt lat="43.69713" lon="4.64175">
        <ele>46.426</ele>
        <time>2019-04-29T13:01:28Z</time>
      </trkpt>
      <trkpt lat="43.69667" lon="4.64143">
        <ele>47.393</ele>
        <time>2019-04-29T13:01:38Z</time>
      </trkpt>
      <trkpt lat="43.69619" lon="4.64113">
        <ele>47.078</ele>
        <time>2019-04-29T13:01:48Z</time>
      </trkpt>
      <trkpt lat="43.69563" lon="4.64077">
        <ele>47.645</ele>
        <time>2019-04-29T13:01:59Z</time>
      </trkpt>
      <trkpt lat="43.69511" lon="4.64042">
        <ele>49.327</ele>
        <time>2019-04-29T13:02:09Z</time>
      </trkpt>
      <trkpt lat="43.6946" lon="4.64007">
        <ele>46.464</ele>
        <time>2019-04-29T13:02:19Z</time>
      </trkpt>
      <trkpt lat="43.69399" lon="4.63968">
        <ele>47.081</ele>
        <time>2019-04-29T13:02:30Z</time>
      </trkpt>
      <trkpt lat="43.6934" lon="4.63931">
        <ele>47.457</ele>
        <time>2019-04-29T13:02:41Z</time>
      </trkpt>
      <trkpt lat="43.69284" lon="4.63895">
        <ele>48.231</ele>
        <time>2019-04-29T13:02:52Z</time>
      </trkpt>
      <trkpt lat="43.69246" lon="4.6387">
        <ele>48.403</ele>
        <time>2019-04-29T13:03:02Z</time>
      </trkpt>
      <trkpt lat="43.69214" lon="4.63849">
        <ele>48.75</ele>
        <time>2019-04-29T13:03:13Z</time>
      </trkpt>
      <trkpt lat="43.69172" lon="4.6382">
        <ele>48.152</ele>
        <time>2019-04-29T13:03:23Z</time>
      </trkpt>
      <trkpt lat="43.69127" lon="4.63792">
        <ele>51.062</ele>
        <time>2019-04-29T13:03:33Z</time>
      </trkpt>
      <trkpt lat="43.69073" lon="4.63757">
        <ele>51.42</ele>
        <time>2019-04-29T13:03:44Z</time>
      </trkpt>
      <trkpt lat="43.69022" lon="4.63724">
        <ele>51.073</ele>
        <time>2019-04-29T13:03:54Z</time>
      </trkpt>
      <trkpt lat="43.68966" lon="4.63686">
        <ele>49.891</ele>
        <time>2019-04-29T13:04:05Z</time>
      </trkpt>
      <trkpt lat="43.68916" lon="4.63653">
        <ele>48.836</ele>
        <time>2019-04-29T13:04:15Z</time>
      </trkpt>
      <trkpt lat="43.68864" lon="4.63618">
        <ele>49.146</ele>
        <time>2019-04-29T13:04:26Z</time>
      </trkpt>
      <trkpt lat="43.68813" lon="4.63584">
        <ele>48.956</ele>
        <time>2019-04-29T13:04:37Z</time>
      </trkpt>
      <trkpt lat="43.68764" lon="4.63554">
        <ele>49.89</ele>
        <time>2019-04-29T13:04:47Z</time>
      </trkpt>
      <trkpt lat="43.6871" lon="4.63518">
        <ele>47.705</ele>
        <time>2019-04-29T13:04:58Z</time>
      </trkpt>
      <trkpt lat="43.68657" lon="4.63488">
        <ele>49.256</ele>
        <time>2019-04-29T13:05:08Z</time>
      </trkpt>
      <trkpt lat="43.68612" lon="4.63455">
        <ele>48.727</ele>
        <time>2019-04-29T13:05:18Z</time>
      </trkpt>
      <trkpt lat="43.68582" lon="4.63435">
        <ele>49.182</ele>
        <time>2019-04-29T13:05:28Z</time>
      </trkpt>
      <trkpt lat="43.68562" lon="4.63412">
        <ele>49.576</ele>
        <time>2019-04-29T13:05:39Z</time>
      </trkpt>
      <trkpt lat="43.68538" lon="4.63379">
        <ele>48.965</ele>
        <time>2019-04-29T13:05:49Z</time>
      </trkpt>
      <trkpt lat="43.68499" lon="4.63337">
        <ele>52.174</ele>
        <time>2019-04-29T13:05:59Z</time>
      </trkpt>
      <trkpt lat="43.6846" lon="4.63285">
        <ele>51.676</ele>
        <time>2019-04-29T13:06:10Z</time>
      </trkpt>
      <trkpt lat="43.68409" lon="4.63285">
        <ele>54.019</ele>
        <time>2019-04-29T13:06:20Z</time>
      </trkpt>
      <trkpt lat="43.68367" lon="4.63291">
        <ele>59.166</ele>
        <time>2019-04-29T13:06:30Z</time>
      </trkpt>
      <trkpt lat="43.68322" lon="4.6326">
        <ele>62.174</ele>
        <time>2019-04-29T13:06:40Z</time>
      </trkpt>
      <trkpt lat="43.68264" lon="4.63226">
        <ele>57.693</ele>
        <time>2019-04-29T13:06:52Z</time>
      </trkpt>
      <trkpt lat="43.68225" lon="4.63199">
        <ele>55.046</ele>
        <time>2019-04-29T13:07:02Z</time>
      </trkpt>
      <trkpt lat="43.68191" lon="4.63161">
        <ele>57.266</ele>
        <time>2019-04-29T13:07:13Z</time>
      </trkpt>
      <trkpt lat="43.68213" lon="4.63126">
        <ele>56.545</ele>
        <time>2019-04-29T13:07:23Z</time>
      </trkpt>
      <trkpt lat="43.68243" lon="4.63115">
        <ele>56.607</ele>
        <time>2019-04-29T13:07:34Z</time>
      </trkpt>
      <trkpt lat="43.68269" lon="4.63134">
        <ele>57.153</ele>
        <time>2019-04-29T13:07:44Z</time>
      </trkpt>
      <trkpt lat="43.68309" lon="4.63153">
        <ele>57.995</ele>
        <time>2019-04-29T13:07:54Z</time>
      </trkpt>
      <trkpt lat="43.68345" lon="4.63166">
        <ele>59.217</ele>
        <time>2019-04-29T13:08:05Z</time>
      </trkpt>
      <trkpt lat="43.68382" lon="4.6318">
        <ele>61.673</ele>
        <time>2019-04-29T13:08:16Z</time>
      </trkpt>
      <trkpt lat="43.68421" lon="4.63179">
        <ele>63.747</ele>
        <time>2019-04-29T13:08:27Z</time>
      </trkpt>
      <trkpt lat="43.68446" lon="4.63186">
        <ele>65.527</ele>
        <time>2019-04-29T13:08:37Z</time>
      </trkpt>
      <trkpt lat="43.68476" lon="4.63185">
        <ele>64.811</ele>
        <time>2019-04-29T13:08:48Z</time>
      </trkpt>
      <trkpt lat="43.68484" lon="4.63192">
        <ele>64.603</ele>
        <time>2019-04-29T13:08:59Z</time>
      </trkpt>
      <trkpt lat="43.68484" lon="4.63192">
        <ele>63.983</ele>
        <time>2019-04-29T13:09:10Z</time>
      </trkpt>
      <trkpt lat="43.68484" lon="4.63192">
        <ele>63.015</ele>
        <time>2019-04-29T13:09:20Z</time>
      </trkpt>
      <trkpt lat="43.68484" lon="4.63192">
        <ele>62.346</ele>
        <time>2019-04-29T13:09:31Z</time>
      </trkpt>
      <trkpt lat="43.68481" lon="4.63198">
        <ele>61.993</ele>
        <time>2019-04-29T13:09:41Z</time>
      </trkpt>
      <trkpt lat="43.68482" lon="4.632">
        <ele>61.15</ele>
        <time>2019-04-29T13:09:52Z</time>
      </trkpt>
      <trkpt lat="43.68482" lon="4.632">
        <ele>60.74</ele>
        <time>2019-04-29T13:10:02Z</time>
      </trkpt>
      <trkpt lat="43.68482" lon="4.632">
        <ele>60.146</ele>
        <time>2019-04-29T13:10:13Z</time>
      </trkpt>
      <trkpt lat="43.68482" lon="4.632">
        <ele>59.521</ele>
        <time>2019-04-29T13:10:23Z</time>
      </trkpt>
      <trkpt lat="43.68482" lon="4.632">
        <ele>58.908</ele>
        <time>2019-04-29T13:10:34Z</time>
      </trkpt>
      <trkpt lat="43.68477" lon="4.63202">
        <ele>58.3</ele>
        <time>2019-04-29T13:10:45Z</time>
      </trkpt>
      <trkpt lat="43.68475" lon="4.63205">
        <ele>57.668</ele>
        <time>2019-04-29T13:10:56Z</time>
      </trkpt>
      <trkpt lat="43.68475" lon="4.63204">
        <ele>57.076</ele>
        <time>2019-04-29T13:11:06Z</time>
      </trkpt>
      <trkpt lat="43.68475" lon="4.63204">
        <ele>56.6</ele>
        <time>2019-04-29T13:11:17Z</time>
      </trkpt>
      <trkpt lat="43.68475" lon="4.63204">
        <ele>56.383</ele>
        <time>2019-04-29T13:11:27Z</time>
      </trkpt>
      <trkpt lat="43.68475" lon="4.63205">
        <ele>56.104</ele>
        <time>2019-04-29T13:11:38Z</time>
      </trkpt>
      <trkpt lat="43.68474" lon="4.63206">
        <ele>56.06</ele>
        <time>2019-04-29T13:11:48Z</time>
      </trkpt>
      <trkpt lat="43.68474" lon="4.63207">
        <ele>55.868</ele>
        <time>2019-04-29T13:11:59Z</time>
      </trkpt>
      <trkpt lat="43.68473" lon="4.63207">
        <ele>55.766</ele>
        <time>2019-04-29T13:12:09Z</time>
      </trkpt>
      <trkpt lat="43.68472" lon="4.63208">
        <ele>55.764</ele>
        <time>2019-04-29T13:12:19Z</time>
      </trkpt>
      <trkpt lat="43.68472" lon="4.63208">
        <ele>55.857</ele>
        <time>2019-04-29T13:12:30Z</time>
      </trkpt>
      <trkpt lat="43.68472" lon="4.63205">
        <ele>55.892</ele>
        <time>2019-04-29T13:12:40Z</time>
      </trkpt>
      <trkpt lat="43.68475" lon="4.63206">
        <ele>55.8</ele>
        <time>2019-04-29T13:12:51Z</time>
      </trkpt>
      <trkpt lat="43.68477" lon="4.63206">
        <ele>55.628</ele>
        <time>2019-04-29T13:13:01Z</time>
      </trkpt>
      <trkpt lat="43.68478" lon="4.63207">
        <ele>55.369</ele>
        <time>2019-04-29T13:13:12Z</time>
      </trkpt>
      <trkpt lat="43.6848" lon="4.63203">
        <ele>55.408</ele>
        <time>2019-04-29T13:13:22Z</time>
      </trkpt>
      <trkpt lat="43.68479" lon="4.63201">
        <ele>55.732</ele>
        <time>2019-04-29T13:13:33Z</time>
      </trkpt>
      <trkpt lat="43.68479" lon="4.63199">
        <ele>55.861</ele>
        <time>2019-04-29T13:13:44Z</time>
      </trkpt>
      <trkpt lat="43.6848" lon="4.63198">
        <ele>56.086</ele>
        <time>2019-04-29T13:13:55Z</time>
      </trkpt>
      <trkpt lat="43.6848" lon="4.63196">
        <ele>56.356</ele>
        <time>2019-04-29T13:14:05Z</time>
      </trkpt>
      <trkpt lat="43.68481" lon="4.63196">
        <ele>56.564</ele>
        <time>2019-04-29T13:14:15Z</time>
      </trkpt>
      <trkpt lat="43.68481" lon="4.63195">
        <ele>56.727</ele>
        <time>2019-04-29T13:14:25Z</time>
      </trkpt>
      <trkpt lat="43.68481" lon="4.63194">
        <ele>56.869</ele>
        <time>2019-04-29T13:14:35Z</time>
      </trkpt>
      <trkpt lat="43.68486" lon="4.63197">
        <ele>60.4</ele>
        <time>2019-04-29T13:14:46Z</time>
      </trkpt>
      <trkpt lat="43.68481" lon="4.63193">
        <ele>57.244</ele>
        <time>2019-04-29T13:14:56Z</time>
      </trkpt>
      <trkpt lat="43.68481" lon="4.63193">
        <ele>57.58</ele>
        <time>2019-04-29T13:15:07Z</time>
      </trkpt>
      <trkpt lat="43.68481" lon="4.63192">
        <ele>58.081</ele>
        <time>2019-04-29T13:15:17Z</time>
      </trkpt>
      <trkpt lat="43.68483" lon="4.63191">
        <ele>58.499</ele>
        <time>2019-04-29T13:15:28Z</time>
      </trkpt>
      <trkpt lat="43.68485" lon="4.6319">
        <ele>58.814</ele>
        <time>2019-04-29T13:15:39Z</time>
      </trkpt>
      <trkpt lat="43.68484" lon="4.6319">
        <ele>58.865</ele>
        <time>2019-04-29T13:15:46Z</time>
      </trkpt>
      <trkpt lat="43.68484" lon="4.63191">
        <ele>58.953</ele>
        <time>2019-04-29T13:15:52Z</time>
      </trkpt>
      <trkpt lat="43.68485" lon="4.63189">
        <ele>59.375</ele>
        <time>2019-04-29T13:15:57Z</time>
      </trkpt>
      <trkpt lat="43.68487" lon="4.63193">
        <ele>59.699</ele>
        <time>2019-04-29T13:16:02Z</time>
      </trkpt>
      <trkpt lat="43.68488" lon="4.63194">
        <ele>60.007</ele>
        <time>2019-04-29T13:16:08Z</time>
      </trkpt>
      <trkpt lat="43.68489" lon="4.63193">
        <ele>60.193</ele>
        <time>2019-04-29T13:16:14Z</time>
      </trkpt>
      <trkpt lat="43.68488" lon="4.63189">
        <ele>60.364</ele>
        <time>2019-04-29T13:16:20Z</time>
      </trkpt>
      <trkpt lat="43.68487" lon="4.63186">
        <ele>60.35</ele>
        <time>2019-04-29T13:16:25Z</time>
      </trkpt>
      <trkpt lat="43.68487" lon="4.63186">
        <ele>60.335</ele>
        <time>2019-04-29T13:16:31Z</time>
      </trkpt>
      <trkpt lat="43.68487" lon="4.63186">
        <ele>60.315</ele>
        <time>2019-04-29T13:16:36Z</time>
      </trkpt>
      <trkpt lat="43.68487" lon="4.63187">
        <ele>60.276</ele>
        <time>2019-04-29T13:16:42Z</time>
      </trkpt>
      <trkpt lat="43.68487" lon="4.63179">
        <ele>59.735</ele>
        <time>2019-04-29T13:16:48Z</time>
      </trkpt>
      <trkpt lat="43.68483" lon="4.63176">
        <ele>59.213</ele>
        <time>2019-04-29T13:16:53Z</time>
      </trkpt>
      <trkpt lat="43.68469" lon="4.63178">
        <ele>59.038</ele>
        <time>2019-04-29T13:16:58Z</time>
      </trkpt>
      <trkpt lat="43.68446" lon="4.63181">
        <ele>59.483</ele>
        <time>2019-04-29T13:17:04Z</time>
      </trkpt>
      <trkpt lat="43.68427" lon="4.63185">
        <ele>59.859</ele>
        <time>2019-04-29T13:17:09Z</time>
      </trkpt>
      <trkpt lat="43.68405" lon="4.63185">
        <ele>59.885</ele>
        <time>2019-04-29T13:17:15Z</time>
      </trkpt>
      <trkpt lat="43.68385" lon="4.6318">
        <ele>60.34</ele>
        <time>2019-04-29T13:17:20Z</time>
      </trkpt>
      <trkpt lat="43.68354" lon="4.63167">
        <ele>60.807</ele>
        <time>2019-04-29T13:17:26Z</time>
      </trkpt>
      <trkpt lat="43.68327" lon="4.63158">
        <ele>64.815</ele>
        <time>2019-04-29T13:17:31Z</time>
      </trkpt>
      <trkpt lat="43.68295" lon="4.63142">
        <ele>66.39</ele>
        <time>2019-04-29T13:17:37Z</time>
      </trkpt>
      <trkpt lat="43.68248" lon="4.63117">
        <ele>63.231</ele>
        <time>2019-04-29T13:17:43Z</time>
      </trkpt>
      <trkpt lat="43.68227" lon="4.63105">
        <ele>59.139</ele>
        <time>2019-04-29T13:17:48Z</time>
      </trkpt>
      <trkpt lat="43.68208" lon="4.63117">
        <ele>56.472</ele>
        <time>2019-04-29T13:17:53Z</time>
      </trkpt>
      <trkpt lat="43.6819" lon="4.63133">
        <ele>54.555</ele>
        <time>2019-04-29T13:17:58Z</time>
      </trkpt>
      <trkpt lat="43.68171" lon="4.63134">
        <ele>54.463</ele>
        <time>2019-04-29T13:18:04Z</time>
      </trkpt>
      <trkpt lat="43.6815" lon="4.63135">
        <ele>53.965</ele>
        <time>2019-04-29T13:18:10Z</time>
      </trkpt>
      <trkpt lat="43.6813" lon="4.63135">
        <ele>53.48</ele>
        <time>2019-04-29T13:18:15Z</time>
      </trkpt>
      <trkpt lat="43.68118" lon="4.63129">
        <ele>53.459</ele>
        <time>2019-04-29T13:18:21Z</time>
      </trkpt>
      <trkpt lat="43.6811" lon="4.63127">
        <ele>53.199</ele>
        <time>2019-04-29T13:18:27Z</time>
      </trkpt>
      <trkpt lat="43.68092" lon="4.63127">
        <ele>52.909</ele>
        <time>2019-04-29T13:18:33Z</time>
      </trkpt>
      <trkpt lat="43.68075" lon="4.63125">
        <ele>52.644</ele>
        <time>2019-04-29T13:18:39Z</time>
      </trkpt>
      <trkpt lat="43.68063" lon="4.63127">
        <ele>52.436</ele>
        <time>2019-04-29T13:18:44Z</time>
      </trkpt>
      <trkpt lat="43.68043" lon="4.63129">
        <ele>52.206</ele>
        <time>2019-04-29T13:18:50Z</time>
      </trkpt>
      <trkpt lat="43.6803" lon="4.63123">
        <ele>52.427</ele>
        <time>2019-04-29T13:18:55Z</time>
      </trkpt>
      <trkpt lat="43.68021" lon="4.63121">
        <ele>52.788</ele>
        <time>2019-04-29T13:19:00Z</time>
      </trkpt>
      <trkpt lat="43.68012" lon="4.63121">
        <ele>53.32</ele>
        <time>2019-04-29T13:19:06Z</time>
      </trkpt>
      <trkpt lat="43.68" lon="4.63118">
        <ele>53.686</ele>
        <time>2019-04-29T13:19:11Z</time>
      </trkpt>
      <trkpt lat="43.67989" lon="4.63115">
        <ele>54.008</ele>
        <time>2019-04-29T13:19:17Z</time>
      </trkpt>
      <trkpt lat="43.67976" lon="4.6311">
        <ele>54.246</ele>
        <time>2019-04-29T13:19:23Z</time>
      </trkpt>
      <trkpt lat="43.67964" lon="4.63106">
        <ele>54.239</ele>
        <time>2019-04-29T13:19:28Z</time>
      </trkpt>
      <trkpt lat="43.67952" lon="4.63105">
        <ele>53.953</ele>
        <time>2019-04-29T13:19:33Z</time>
      </trkpt>
      <trkpt lat="43.67942" lon="4.63101">
        <ele>52.317</ele>
        <time>2019-04-29T13:19:39Z</time>
      </trkpt>
      <trkpt lat="43.67937" lon="4.63098">
        <ele>51.948</ele>
        <time>2019-04-29T13:19:44Z</time>
      </trkpt>
      <trkpt lat="43.67927" lon="4.63092">
        <ele>51.504</ele>
        <time>2019-04-29T13:19:50Z</time>
      </trkpt>
      <trkpt lat="43.67915" lon="4.63089">
        <ele>50.396</ele>
        <time>2019-04-29T13:19:56Z</time>
      </trkpt>
      <trkpt lat="43.67897" lon="4.63086">
        <ele>49.321</ele>
        <time>2019-04-29T13:20:02Z</time>
      </trkpt>
      <trkpt lat="43.6788" lon="4.6308">
        <ele>48.946</ele>
        <time>2019-04-29T13:20:07Z</time>
      </trkpt>
      <trkpt lat="43.67871" lon="4.63072">
        <ele>48.661</ele>
        <time>2019-04-29T13:20:13Z</time>
      </trkpt>
      <trkpt lat="43.67864" lon="4.63073">
        <ele>48.087</ele>
        <time>2019-04-29T13:20:19Z</time>
      </trkpt>
      <trkpt lat="43.67861" lon="4.63074">
        <ele>48.881</ele>
        <time>2019-04-29T13:20:24Z</time>
      </trkpt>
      <trkpt lat="43.6786" lon="4.63066">
        <ele>50.607</ele>
        <time>2019-04-29T13:20:30Z</time>
      </trkpt>
      <trkpt lat="43.6786" lon="4.63055">
        <ele>52.046</ele>
        <time>2019-04-29T13:20:35Z</time>
      </trkpt>
      <trkpt lat="43.67855" lon="4.63048">
        <ele>53.575</ele>
        <time>2019-04-29T13:20:41Z</time>
      </trkpt>
      <trkpt lat="43.67858" lon="4.63045">
        <ele>54.486</ele>
        <time>2019-04-29T13:20:46Z</time>
      </trkpt>
      <trkpt lat="43.67861" lon="4.63051">
        <ele>55.069</ele>
        <time>2019-04-29T13:20:52Z</time>
      </trkpt>
      <trkpt lat="43.6786" lon="4.63055">
        <ele>55.588</ele>
        <time>2019-04-29T13:20:58Z</time>
      </trkpt>
      <trkpt lat="43.67862" lon="4.63065">
        <ele>56.495</ele>
        <time>2019-04-29T13:21:04Z</time>
      </trkpt>
      <trkpt lat="43.6786" lon="4.63081">
        <ele>58.518</ele>
        <time>2019-04-29T13:21:10Z</time>
      </trkpt>
      <trkpt lat="43.67859" lon="4.63089">
        <ele>59.857</ele>
        <time>2019-04-29T13:21:16Z</time>
      </trkpt>
      <trkpt lat="43.67854" lon="4.63109">
        <ele>60.625</ele>
        <time>2019-04-29T13:21:22Z</time>
      </trkpt>
      <trkpt lat="43.67848" lon="4.6313">
        <ele>61.129</ele>
        <time>2019-04-29T13:21:27Z</time>
      </trkpt>
      <trkpt lat="43.67847" lon="4.63141">
        <ele>61.183</ele>
        <time>2019-04-29T13:21:32Z</time>
      </trkpt>
      <trkpt lat="43.67834" lon="4.63152">
        <ele>61.291</ele>
        <time>2019-04-29T13:21:38Z</time>
      </trkpt>
      <trkpt lat="43.67819" lon="4.63156">
        <ele>61.567</ele>
        <time>2019-04-29T13:21:43Z</time>
      </trkpt>
      <trkpt lat="43.67805" lon="4.6316">
        <ele>62.356</ele>
        <time>2019-04-29T13:21:49Z</time>
      </trkpt>
      <trkpt lat="43.6779" lon="4.63163">
        <ele>62.853</ele>
        <time>2019-04-29T13:21:55Z</time>
      </trkpt>
      <trkpt lat="43.67781" lon="4.63169">
        <ele>64.538</ele>
        <time>2019-04-29T13:22:01Z</time>
      </trkpt>
      <trkpt lat="43.67768" lon="4.63175">
        <ele>64.727</ele>
        <time>2019-04-29T13:22:06Z</time>
      </trkpt>
      <trkpt lat="43.67756" lon="4.63181">
        <ele>64.857</ele>
        <time>2019-04-29T13:22:12Z</time>
      </trkpt>
      <trkpt lat="43.67747" lon="4.63178">
        <ele>65.108</ele>
        <time>2019-04-29T13:22:17Z</time>
      </trkpt>
      <trkpt lat="43.67739" lon="4.63175">
        <ele>65.442</ele>
        <time>2019-04-29T13:22:23Z</time>
      </trkpt>
      <trkpt lat="43.67745" lon="4.63179">
        <ele>65.641</ele>
        <time>2019-04-29T13:22:29Z</time>
      </trkpt>
      <trkpt lat="43.67744" lon="4.63183">
        <ele>65.873</ele>
        <time>2019-04-29T13:22:35Z</time>
      </trkpt>
      <trkpt lat="43.67743" lon="4.63185">
        <ele>66.065</ele>
        <time>2019-04-29T13:22:40Z</time>
      </trkpt>
      <trkpt lat="43.67746" lon="4.63194">
        <ele>66.739</ele>
        <time>2019-04-29T13:22:46Z</time>
      </trkpt>
      <trkpt lat="43.67747" lon="4.63211">
        <ele>67.379</ele>
        <time>2019-04-29T13:22:52Z</time>
      </trkpt>
      <trkpt lat="43.67751" lon="4.63232">
        <ele>68.809</ele>
        <time>2019-04-29T13:22:58Z</time>
      </trkpt>
      <trkpt lat="43.67756" lon="4.63251">
        <ele>71.417</ele>
        <time>2019-04-29T13:23:04Z</time>
      </trkpt>
      <trkpt lat="43.67736" lon="4.63245">
        <ele>73.259</ele>
        <time>2019-04-29T13:23:09Z</time>
      </trkpt>
      <trkpt lat="43.67719" lon="4.63243">
        <ele>73.491</ele>
        <time>2019-04-29T13:23:15Z</time>
      </trkpt>
      <trkpt lat="43.67703" lon="4.63239">
        <ele>73.737</ele>
        <time>2019-04-29T13:23:21Z</time>
      </trkpt>
      <trkpt lat="43.67688" lon="4.63235">
        <ele>73.859</ele>
        <time>2019-04-29T13:23:26Z</time>
      </trkpt>
      <trkpt lat="43.67675" lon="4.63227">
        <ele>74.139</ele>
        <time>2019-04-29T13:23:31Z</time>
      </trkpt>
      <trkpt lat="43.67661" lon="4.63221">
        <ele>74.507</ele>
        <time>2019-04-29T13:23:37Z</time>
      </trkpt>
      <trkpt lat="43.67652" lon="4.63215">
        <ele>74.836</ele>
        <time>2019-04-29T13:23:42Z</time>
      </trkpt>
      <trkpt lat="43.67644" lon="4.63208">
        <ele>75.075</ele>
        <time>2019-04-29T13:23:48Z</time>
      </trkpt>
      <trkpt lat="43.67637" lon="4.63199">
        <ele>75.049</ele>
        <time>2019-04-29T13:23:53Z</time>
      </trkpt>
      <trkpt lat="43.67628" lon="4.63184">
        <ele>74.865</ele>
        <time>2019-04-29T13:23:58Z</time>
      </trkpt>
      <trkpt lat="43.67626" lon="4.6317">
        <ele>74.624</ele>
        <time>2019-04-29T13:24:04Z</time>
      </trkpt>
      <trkpt lat="43.67623" lon="4.63167">
        <ele>74.365</ele>
        <time>2019-04-29T13:24:10Z</time>
      </trkpt>
      <trkpt lat="43.67627" lon="4.63165">
        <ele>74.089</ele>
        <time>2019-04-29T13:24:16Z</time>
      </trkpt>
      <trkpt lat="43.67634" lon="4.63167">
        <ele>74.217</ele>
        <time>2019-04-29T13:24:21Z</time>
      </trkpt>
      <trkpt lat="43.67646" lon="4.63167">
        <ele>74.513</ele>
        <time>2019-04-29T13:24:27Z</time>
      </trkpt>
      <trkpt lat="43.67655" lon="4.6317">
        <ele>75.068</ele>
        <time>2019-04-29T13:24:33Z</time>
      </trkpt>
      <trkpt lat="43.67657" lon="4.6317">
        <ele>74.997</ele>
        <time>2019-04-29T13:24:38Z</time>
      </trkpt>
      <trkpt lat="43.6765" lon="4.63166">
        <ele>74.759</ele>
        <time>2019-04-29T13:24:43Z</time>
      </trkpt>
      <trkpt lat="43.67647" lon="4.63163">
        <ele>73.826</ele>
        <time>2019-04-29T13:24:49Z</time>
      </trkpt>
      <trkpt lat="43.6765" lon="4.63147">
        <ele>72.602</ele>
        <time>2019-04-29T13:24:55Z</time>
      </trkpt>
      <trkpt lat="43.67651" lon="4.63132">
        <ele>71.602</ele>
        <time>2019-04-29T13:25:00Z</time>
      </trkpt>
      <trkpt lat="43.67651" lon="4.63111">
        <ele>68.509</ele>
        <time>2019-04-29T13:25:05Z</time>
      </trkpt>
      <trkpt lat="43.67651" lon="4.63089">
        <ele>67.142</ele>
        <time>2019-04-29T13:25:11Z</time>
      </trkpt>
      <trkpt lat="43.67659" lon="4.63069">
        <ele>66.108</ele>
        <time>2019-04-29T13:25:17Z</time>
      </trkpt>
      <trkpt lat="43.67657" lon="4.63054">
        <ele>65.524</ele>
        <time>2019-04-29T13:25:22Z</time>
      </trkpt>
      <trkpt lat="43.6766" lon="4.63047">
        <ele>65.071</ele>
        <time>2019-04-29T13:25:28Z</time>
      </trkpt>
      <trkpt lat="43.67669" lon="4.63045">
        <ele>65.286</ele>
        <time>2019-04-29T13:25:39Z</time>
      </trkpt>
      <trkpt lat="43.67669" lon="4.63045">
        <ele>65.392</ele>
        <time>2019-04-29T13:25:50Z</time>
      </trkpt>
      <trkpt lat="43.67671" lon="4.63046">
        <ele>66.287</ele>
        <time>2019-04-29T13:26:00Z</time>
      </trkpt>
      <trkpt lat="43.67675" lon="4.63043">
        <ele>67.472</ele>
        <time>2019-04-29T13:26:11Z</time>
      </trkpt>
      <trkpt lat="43.6768" lon="4.63041">
        <ele>68.74</ele>
        <time>2019-04-29T13:26:22Z</time>
      </trkpt>
      <trkpt lat="43.67683" lon="4.63042">
        <ele>69.675</ele>
        <time>2019-04-29T13:26:33Z</time>
      </trkpt>
      <trkpt lat="43.67683" lon="4.63042">
        <ele>69.86</ele>
        <time>2019-04-29T13:26:43Z</time>
      </trkpt>
      <trkpt lat="43.67683" lon="4.63042">
        <ele>70.1</ele>
        <time>2019-04-29T13:26:54Z</time>
      </trkpt>
      <trkpt lat="43.67683" lon="4.63042">
        <ele>70.32</ele>
        <time>2019-04-29T13:27:05Z</time>
      </trkpt>
      <trkpt lat="43.6768" lon="4.63037">
        <ele>72.985</ele>
        <time>2019-04-29T13:27:15Z</time>
      </trkpt>
      <trkpt lat="43.67681" lon="4.63039">
        <ele>75.054</ele>
        <time>2019-04-29T13:27:26Z</time>
      </trkpt>
      <trkpt lat="43.67686" lon="4.6303">
        <ele>75.751</ele>
        <time>2019-04-29T13:27:36Z</time>
      </trkpt>
      <trkpt lat="43.67697" lon="4.62992">
        <ele>76.959</ele>
        <time>2019-04-29T13:27:47Z</time>
      </trkpt>
      <trkpt lat="43.677" lon="4.62961">
        <ele>78.606</ele>
        <time>2019-04-29T13:27:58Z</time>
      </trkpt>
      <trkpt lat="43.677" lon="4.62935">
        <ele>78.124</ele>
        <time>2019-04-29T13:28:08Z</time>
      </trkpt>
      <trkpt lat="43.67697" lon="4.62908">
        <ele>77.133</ele>
        <time>2019-04-29T13:28:18Z</time>
      </trkpt>
      <trkpt lat="43.67698" lon="4.62851">
        <ele>73.142</ele>
        <time>2019-04-29T13:28:29Z</time>
      </trkpt>
      <trkpt lat="43.67696" lon="4.62801">
        <ele>72.316</ele>
        <time>2019-04-29T13:28:40Z</time>
      </trkpt>
      <trkpt lat="43.67683" lon="4.62776">
        <ele>71.321</ele>
        <time>2019-04-29T13:28:51Z</time>
      </trkpt>
      <trkpt lat="43.67662" lon="4.62764">
        <ele>71.151</ele>
        <time>2019-04-29T13:29:01Z</time>
      </trkpt>
      <trkpt lat="43.67647" lon="4.62735">
        <ele>71.157</ele>
        <time>2019-04-29T13:29:12Z</time>
      </trkpt>
      <trkpt lat="43.67637" lon="4.62739">
        <ele>70.702</ele>
        <time>2019-04-29T13:29:23Z</time>
      </trkpt>
      <trkpt lat="43.67637" lon="4.62739">
        <ele>70.507</ele>
        <time>2019-04-29T13:29:34Z</time>
      </trkpt>
      <trkpt lat="43.67637" lon="4.6274">
        <ele>70.331</ele>
        <time>2019-04-29T13:29:44Z</time>
      </trkpt>
      <trkpt lat="43.67638" lon="4.62741">
        <ele>69.649</ele>
        <time>2019-04-29T13:29:55Z</time>
      </trkpt>
      <trkpt lat="43.67637" lon="4.62739">
        <ele>65.61</ele>
        <time>2019-04-29T13:30:05Z</time>
      </trkpt>
      <trkpt lat="43.67639" lon="4.62742">
        <ele>65.71</ele>
        <time>2019-04-29T13:30:15Z</time>
      </trkpt>
      <trkpt lat="43.67635" lon="4.62745">
        <ele>65.935</ele>
        <time>2019-04-29T13:30:26Z</time>
      </trkpt>
      <trkpt lat="43.67635" lon="4.62735">
        <ele>65.828</ele>
        <time>2019-04-29T13:30:36Z</time>
      </trkpt>
      <trkpt lat="43.67635" lon="4.62735">
        <ele>65.833</ele>
        <time>2019-04-29T13:30:47Z</time>
      </trkpt>
      <trkpt lat="43.67635" lon="4.62736">
        <ele>65.706</ele>
        <time>2019-04-29T13:30:57Z</time>
      </trkpt>
      <trkpt lat="43.67635" lon="4.62736">
        <ele>65.44</ele>
        <time>2019-04-29T13:31:07Z</time>
      </trkpt>
      <trkpt lat="43.67635" lon="4.62736">
        <ele>65.231</ele>
        <time>2019-04-29T13:31:17Z</time>
      </trkpt>
      <trkpt lat="43.67636" lon="4.62736">
        <ele>65.132</ele>
        <time>2019-04-29T13:31:28Z</time>
      </trkpt>
      <trkpt lat="43.67651" lon="4.62738">
        <ele>64.794</ele>
        <time>2019-04-29T13:31:39Z</time>
      </trkpt>
      <trkpt lat="43.67668" lon="4.62772">
        <ele>65.447</ele>
        <time>2019-04-29T13:31:50Z</time>
      </trkpt>
      <trkpt lat="43.67692" lon="4.62779">
        <ele>65.531</ele>
        <time>2019-04-29T13:32:01Z</time>
      </trkpt>
      <trkpt lat="43.67712" lon="4.62816">
        <ele>65.288</ele>
        <time>2019-04-29T13:32:12Z</time>
      </trkpt>
      <trkpt lat="43.67708" lon="4.62851">
        <ele>64.585</ele>
        <time>2019-04-29T13:32:23Z</time>
      </trkpt>
      <trkpt lat="43.67709" lon="4.62877">
        <ele>64.287</ele>
        <time>2019-04-29T13:32:33Z</time>
      </trkpt>
      <trkpt lat="43.67709" lon="4.62906">
        <ele>63.253</ele>
        <time>2019-04-29T13:32:43Z</time>
      </trkpt>
      <trkpt lat="43.67708" lon="4.62945">
        <ele>59.766</ele>
        <time>2019-04-29T13:32:54Z</time>
      </trkpt>
      <trkpt lat="43.67706" lon="4.62958">
        <ele>59.997</ele>
        <time>2019-04-29T13:33:04Z</time>
      </trkpt>
      <trkpt lat="43.6771" lon="4.62982">
        <ele>60.069</ele>
        <time>2019-04-29T13:33:15Z</time>
      </trkpt>
      <trkpt lat="43.677" lon="4.63023">
        <ele>60.39</ele>
        <time>2019-04-29T13:33:25Z</time>
      </trkpt>
      <trkpt lat="43.67686" lon="4.63046">
        <ele>61.892</ele>
        <time>2019-04-29T13:33:36Z</time>
      </trkpt>
      <trkpt lat="43.67684" lon="4.63045">
        <ele>62.257</ele>
        <time>2019-04-29T13:33:47Z</time>
      </trkpt>
      <trkpt lat="43.67684" lon="4.63038">
        <ele>66.497</ele>
        <time>2019-04-29T13:33:58Z</time>
      </trkpt>
      <trkpt lat="43.67682" lon="4.63044">
        <ele>68.075</ele>
        <time>2019-04-29T13:34:08Z</time>
      </trkpt>
      <trkpt lat="43.67685" lon="4.63027">
        <ele>71.411</ele>
        <time>2019-04-29T13:34:19Z</time>
      </trkpt>
      <trkpt lat="43.67683" lon="4.63028">
        <ele>75.352</ele>
        <time>2019-04-29T13:34:29Z</time>
      </trkpt>
      <trkpt lat="43.67677" lon="4.6304">
        <ele>77.105</ele>
        <time>2019-04-29T13:34:42Z</time>
      </trkpt>
      <trkpt lat="43.67692" lon="4.63031">
        <ele>79.15</ele>
        <time>2019-04-29T13:38:56Z</time>
      </trkpt>
      <trkpt lat="43.67681" lon="4.63043">
        <ele>78.74</ele>
        <time>2019-04-29T13:39:06Z</time>
      </trkpt>
      <trkpt lat="43.67676" lon="4.6304">
        <ele>78.088</ele>
        <time>2019-04-29T13:39:16Z</time>
      </trkpt>
      <trkpt lat="43.67662" lon="4.63046">
        <ele>76.742</ele>
        <time>2019-04-29T13:39:27Z</time>
      </trkpt>
      <trkpt lat="43.6766" lon="4.63067">
        <ele>75.736</ele>
        <time>2019-04-29T13:39:37Z</time>
      </trkpt>
      <trkpt lat="43.67661" lon="4.63073">
        <ele>76.159</ele>
        <time>2019-04-29T13:39:48Z</time>
      </trkpt>
      <trkpt lat="43.67665" lon="4.63083">
        <ele>77.044</ele>
        <time>2019-04-29T13:39:58Z</time>
      </trkpt>
      <trkpt lat="43.67664" lon="4.63088">
        <ele>77.884</ele>
        <time>2019-04-29T13:40:09Z</time>
      </trkpt>
      <trkpt lat="43.67664" lon="4.63088">
        <ele>77.873</ele>
        <time>2019-04-29T13:40:19Z</time>
      </trkpt>
      <trkpt lat="43.67663" lon="4.63088">
        <ele>77.777</ele>
        <time>2019-04-29T13:40:30Z</time>
      </trkpt>
      <trkpt lat="43.67664" lon="4.63088">
        <ele>77.384</ele>
        <time>2019-04-29T13:40:40Z</time>
      </trkpt>
      <trkpt lat="43.67662" lon="4.63088">
        <ele>77.019</ele>
        <time>2019-04-29T13:40:52Z</time>
      </trkpt>
      <trkpt lat="43.67662" lon="4.63088">
        <ele>76.87</ele>
        <time>2019-04-29T13:41:02Z</time>
      </trkpt>
      <trkpt lat="43.67662" lon="4.63088">
        <ele>76.699</ele>
        <time>2019-04-29T13:41:12Z</time>
      </trkpt>
      <trkpt lat="43.67663" lon="4.63088">
        <ele>76.5</ele>
        <time>2019-04-29T13:41:23Z</time>
      </trkpt>
      <trkpt lat="43.67663" lon="4.63088">
        <ele>76.312</ele>
        <time>2019-04-29T13:41:34Z</time>
      </trkpt>
      <trkpt lat="43.67663" lon="4.63088">
        <ele>76.175</ele>
        <time>2019-04-29T13:41:45Z</time>
      </trkpt>
      <trkpt lat="43.67663" lon="4.63088">
        <ele>76.082</ele>
        <time>2019-04-29T13:41:56Z</time>
      </trkpt>
      <trkpt lat="43.67663" lon="4.63089">
        <ele>75.786</ele>
        <time>2019-04-29T13:42:07Z</time>
      </trkpt>
      <trkpt lat="43.67663" lon="4.63089">
        <ele>75.683</ele>
        <time>2019-04-29T13:42:18Z</time>
      </trkpt>
      <trkpt lat="43.67663" lon="4.63089">
        <ele>75.577</ele>
        <time>2019-04-29T13:42:28Z</time>
      </trkpt>
      <trkpt lat="43.67664" lon="4.63089">
        <ele>75.532</ele>
        <time>2019-04-29T13:42:39Z</time>
      </trkpt>
      <trkpt lat="43.67664" lon="4.63089">
        <ele>75.503</ele>
        <time>2019-04-29T13:42:50Z</time>
      </trkpt>
      <trkpt lat="43.67664" lon="4.63089">
        <ele>75.46</ele>
        <time>2019-04-29T13:43:00Z</time>
      </trkpt>
      <trkpt lat="43.67664" lon="4.63089">
        <ele>75.378</ele>
        <time>2019-04-29T13:43:11Z</time>
      </trkpt>
      <trkpt lat="43.67664" lon="4.63089">
        <ele>75.271</ele>
        <time>2019-04-29T13:43:22Z</time>
      </trkpt>
      <trkpt lat="43.67664" lon="4.63088">
        <ele>75.175</ele>
        <time>2019-04-29T13:43:33Z</time>
      </trkpt>
      <trkpt lat="43.67663" lon="4.63087">
        <ele>75.024</ele>
        <time>2019-04-29T13:43:44Z</time>
      </trkpt>
      <trkpt lat="43.67664" lon="4.63087">
        <ele>74.9</ele>
        <time>2019-04-29T13:43:55Z</time>
      </trkpt>
      <trkpt lat="43.67664" lon="4.63087">
        <ele>74.784</ele>
        <time>2019-04-29T13:44:05Z</time>
      </trkpt>
      <trkpt lat="43.67664" lon="4.63087">
        <ele>74.671</ele>
        <time>2019-04-29T13:44:15Z</time>
      </trkpt>
      <trkpt lat="43.67664" lon="4.63087">
        <ele>74.469</ele>
        <time>2019-04-29T13:44:26Z</time>
      </trkpt>
      <trkpt lat="43.67665" lon="4.63089">
        <ele>74.242</ele>
        <time>2019-04-29T13:44:37Z</time>
      </trkpt>
      <trkpt lat="43.67665" lon="4.63089">
        <ele>74.197</ele>
        <time>2019-04-29T13:44:48Z</time>
      </trkpt>
      <trkpt lat="43.67664" lon="4.6309">
        <ele>74.092</ele>
        <time>2019-04-29T13:44:59Z</time>
      </trkpt>
      <trkpt lat="43.67664" lon="4.6309">
        <ele>73.944</ele>
        <time>2019-04-29T13:45:10Z</time>
      </trkpt>
      <trkpt lat="43.67664" lon="4.6309">
        <ele>73.683</ele>
        <time>2019-04-29T13:45:21Z</time>
      </trkpt>
      <trkpt lat="43.67665" lon="4.6309">
        <ele>73.022</ele>
        <time>2019-04-29T13:45:31Z</time>
      </trkpt>
      <trkpt lat="43.67665" lon="4.63089">
        <ele>72.697</ele>
        <time>2019-04-29T13:45:41Z</time>
      </trkpt>
      <trkpt lat="43.67666" lon="4.63085">
        <ele>72.081</ele>
        <time>2019-04-29T13:45:52Z</time>
      </trkpt>
      <trkpt lat="43.67662" lon="4.63074">
        <ele>73.144</ele>
        <time>2019-04-29T13:46:03Z</time>
      </trkpt>
      <trkpt lat="43.67654" lon="4.63088">
        <ele>75.118</ele>
        <time>2019-04-29T13:46:13Z</time>
      </trkpt>
      <trkpt lat="43.67651" lon="4.63083">
        <ele>77.798</ele>
        <time>2019-04-29T13:46:25Z</time>
      </trkpt>
      <trkpt lat="43.67654" lon="4.63074">
        <ele>79.304</ele>
        <time>2019-04-29T13:46:35Z</time>
      </trkpt>
      <trkpt lat="43.67658" lon="4.63073">
        <ele>81.847</ele>
        <time>2019-04-29T13:46:45Z</time>
      </trkpt>
      <trkpt lat="43.67643" lon="4.63096">
        <ele>82.231</ele>
        <time>2019-04-29T13:47:20Z</time>
      </trkpt>
      <trkpt lat="43.67646" lon="4.63096">
        <ele>80.643</ele>
        <time>2019-04-29T13:47:30Z</time>
      </trkpt>
      <trkpt lat="43.67644" lon="4.63099">
        <ele>79.827</ele>
        <time>2019-04-29T13:47:41Z</time>
      </trkpt>
      <trkpt lat="43.67641" lon="4.63098">
        <ele>79.307</ele>
        <time>2019-04-29T13:47:52Z</time>
      </trkpt>
      <trkpt lat="43.67641" lon="4.63096">
        <ele>78.109</ele>
        <time>2019-04-29T13:48:04Z</time>
      </trkpt>
      <trkpt lat="43.67641" lon="4.63096">
        <ele>77.997</ele>
        <time>2019-04-29T13:48:14Z</time>
      </trkpt>
      <trkpt lat="43.67641" lon="4.63095">
        <ele>77.927</ele>
        <time>2019-04-29T13:48:25Z</time>
      </trkpt>
      <trkpt lat="43.67642" lon="4.63095">
        <ele>77.862</ele>
        <time>2019-04-29T13:48:36Z</time>
      </trkpt>
      <trkpt lat="43.67642" lon="4.63095">
        <ele>77.781</ele>
        <time>2019-04-29T13:48:47Z</time>
      </trkpt>
      <trkpt lat="43.67642" lon="4.63095">
        <ele>77.702</ele>
        <time>2019-04-29T13:48:58Z</time>
      </trkpt>
      <trkpt lat="43.67642" lon="4.63094">
        <ele>77.627</ele>
        <time>2019-04-29T13:49:08Z</time>
      </trkpt>
      <trkpt lat="43.67642" lon="4.63094">
        <ele>77.57</ele>
        <time>2019-04-29T13:49:18Z</time>
      </trkpt>
      <trkpt lat="43.67642" lon="4.63094">
        <ele>77.52</ele>
        <time>2019-04-29T13:49:29Z</time>
      </trkpt>
      <trkpt lat="43.67642" lon="4.63094">
        <ele>77.466</ele>
        <time>2019-04-29T13:49:40Z</time>
      </trkpt>
      <trkpt lat="43.67643" lon="4.63093">
        <ele>77.403</ele>
        <time>2019-04-29T13:49:51Z</time>
      </trkpt>
      <trkpt lat="43.67643" lon="4.63093">
        <ele>77.309</ele>
        <time>2019-04-29T13:50:02Z</time>
      </trkpt>
      <trkpt lat="43.67643" lon="4.63093">
        <ele>77.264</ele>
        <time>2019-04-29T13:50:12Z</time>
      </trkpt>
      <trkpt lat="43.67644" lon="4.63092">
        <ele>77.454</ele>
        <time>2019-04-29T13:50:23Z</time>
      </trkpt>
      <trkpt lat="43.67645" lon="4.63092">
        <ele>77.695</ele>
        <time>2019-04-29T13:50:34Z</time>
      </trkpt>
      <trkpt lat="43.67645" lon="4.63092">
        <ele>77.981</ele>
        <time>2019-04-29T13:50:44Z</time>
      </trkpt>
      <trkpt lat="43.67645" lon="4.63092">
        <ele>78.69</ele>
        <time>2019-04-29T13:50:55Z</time>
      </trkpt>
      <trkpt lat="43.67645" lon="4.63092">
        <ele>79.043</ele>
        <time>2019-04-29T13:51:05Z</time>
      </trkpt>
      <trkpt lat="43.67645" lon="4.63092">
        <ele>79.329</ele>
        <time>2019-04-29T13:51:15Z</time>
      </trkpt>
      <trkpt lat="43.67647" lon="4.63093">
        <ele>79.316</ele>
        <time>2019-04-29T13:51:26Z</time>
      </trkpt>
      <trkpt lat="43.67642" lon="4.63094">
        <ele>79.353</ele>
        <time>2019-04-29T13:51:37Z</time>
      </trkpt>
      <trkpt lat="43.67641" lon="4.63094">
        <ele>79.265</ele>
        <time>2019-04-29T13:51:48Z</time>
      </trkpt>
      <trkpt lat="43.67641" lon="4.63094">
        <ele>79.301</ele>
        <time>2019-04-29T13:51:58Z</time>
      </trkpt>
      <trkpt lat="43.67641" lon="4.63093">
        <ele>79.352</ele>
        <time>2019-04-29T13:52:09Z</time>
      </trkpt>
      <trkpt lat="43.67641" lon="4.63093">
        <ele>79.335</ele>
        <time>2019-04-29T13:52:20Z</time>
      </trkpt>
      <trkpt lat="43.67641" lon="4.63093">
        <ele>79.304</ele>
        <time>2019-04-29T13:52:31Z</time>
      </trkpt>
      <trkpt lat="43.67641" lon="4.63093">
        <ele>79.271</ele>
        <time>2019-04-29T13:52:41Z</time>
      </trkpt>
      <trkpt lat="43.67641" lon="4.63093">
        <ele>79.261</ele>
        <time>2019-04-29T13:52:52Z</time>
      </trkpt>
      <trkpt lat="43.67641" lon="4.63094">
        <ele>79.18</ele>
        <time>2019-04-29T13:53:02Z</time>
      </trkpt>
      <trkpt lat="43.67641" lon="4.63094">
        <ele>79.112</ele>
        <time>2019-04-29T13:53:13Z</time>
      </trkpt>
      <trkpt lat="43.67641" lon="4.63094">
        <ele>79.077</ele>
        <time>2019-04-29T13:53:24Z</time>
      </trkpt>
      <trkpt lat="43.67641" lon="4.63094">
        <ele>79.085</ele>
        <time>2019-04-29T13:53:34Z</time>
      </trkpt>
      <trkpt lat="43.67641" lon="4.63095">
        <ele>79.095</ele>
        <time>2019-04-29T13:53:45Z</time>
      </trkpt>
      <trkpt lat="43.67641" lon="4.63096">
        <ele>79.061</ele>
        <time>2019-04-29T13:53:55Z</time>
      </trkpt>
      <trkpt lat="43.6764" lon="4.63097">
        <ele>79.008</ele>
        <time>2019-04-29T13:54:05Z</time>
      </trkpt>
      <trkpt lat="43.6764" lon="4.63097">
        <ele>78.872</ele>
        <time>2019-04-29T13:54:16Z</time>
      </trkpt>
      <trkpt lat="43.6764" lon="4.63098">
        <ele>78.704</ele>
        <time>2019-04-29T13:54:26Z</time>
      </trkpt>
      <trkpt lat="43.6764" lon="4.63098">
        <ele>78.528</ele>
        <time>2019-04-29T13:54:37Z</time>
      </trkpt>
      <trkpt lat="43.6764" lon="4.63098">
        <ele>78.38</ele>
        <time>2019-04-29T13:54:48Z</time>
      </trkpt>
      <trkpt lat="43.6764" lon="4.63097">
        <ele>78.287</ele>
        <time>2019-04-29T13:54:58Z</time>
      </trkpt>
      <trkpt lat="43.6764" lon="4.63097">
        <ele>78.069</ele>
        <time>2019-04-29T13:55:08Z</time>
      </trkpt>
      <trkpt lat="43.6764" lon="4.63097">
        <ele>77.866</ele>
        <time>2019-04-29T13:55:19Z</time>
      </trkpt>
      <trkpt lat="43.6764" lon="4.63096">
        <ele>77.784</ele>
        <time>2019-04-29T13:55:30Z</time>
      </trkpt>
      <trkpt lat="43.6764" lon="4.63096">
        <ele>77.832</ele>
        <time>2019-04-29T13:55:41Z</time>
      </trkpt>
      <trkpt lat="43.6764" lon="4.63095">
        <ele>77.987</ele>
        <time>2019-04-29T13:55:51Z</time>
      </trkpt>
      <trkpt lat="43.6764" lon="4.63095">
        <ele>78.146</ele>
        <time>2019-04-29T13:56:02Z</time>
      </trkpt>
      <trkpt lat="43.6764" lon="4.63095">
        <ele>78.182</ele>
        <time>2019-04-29T13:56:12Z</time>
      </trkpt>
      <trkpt lat="43.6764" lon="4.63095">
        <ele>78.256</ele>
        <time>2019-04-29T13:56:23Z</time>
      </trkpt>
      <trkpt lat="43.6764" lon="4.63096">
        <ele>78.431</ele>
        <time>2019-04-29T13:56:33Z</time>
      </trkpt>
      <trkpt lat="43.6764" lon="4.63096">
        <ele>78.901</ele>
        <time>2019-04-29T13:56:43Z</time>
      </trkpt>
      <trkpt lat="43.67641" lon="4.63097">
        <ele>79.664</ele>
        <time>2019-04-29T13:56:53Z</time>
      </trkpt>
      <trkpt lat="43.67642" lon="4.63097">
        <ele>80.046</ele>
        <time>2019-04-29T13:57:04Z</time>
      </trkpt>
      <trkpt lat="43.67643" lon="4.63097">
        <ele>80.06</ele>
        <time>2019-04-29T13:57:15Z</time>
      </trkpt>
      <trkpt lat="43.67642" lon="4.63096">
        <ele>79.973</ele>
        <time>2019-04-29T13:57:25Z</time>
      </trkpt>
      <trkpt lat="43.67641" lon="4.63095">
        <ele>79.669</ele>
        <time>2019-04-29T13:57:36Z</time>
      </trkpt>
      <trkpt lat="43.6764" lon="4.63095">
        <ele>78.955</ele>
        <time>2019-04-29T13:57:47Z</time>
      </trkpt>
      <trkpt lat="43.6764" lon="4.63095">
        <ele>78.419</ele>
        <time>2019-04-29T13:57:58Z</time>
      </trkpt>
      <trkpt lat="43.6764" lon="4.63095">
        <ele>78.136</ele>
        <time>2019-04-29T13:58:09Z</time>
      </trkpt>
      <trkpt lat="43.6764" lon="4.63095">
        <ele>77.934</ele>
        <time>2019-04-29T13:58:20Z</time>
      </trkpt>
      <trkpt lat="43.6764" lon="4.63096">
        <ele>77.597</ele>
        <time>2019-04-29T13:58:31Z</time>
      </trkpt>
      <trkpt lat="43.6764" lon="4.63096">
        <ele>77.453</ele>
        <time>2019-04-29T13:58:42Z</time>
      </trkpt>
      <trkpt lat="43.67641" lon="4.63095">
        <ele>77.092</ele>
        <time>2019-04-29T13:58:53Z</time>
      </trkpt>
      <trkpt lat="43.67641" lon="4.63095">
        <ele>77.043</ele>
        <time>2019-04-29T13:59:03Z</time>
      </trkpt>
      <trkpt lat="43.67641" lon="4.63095">
        <ele>77.059</ele>
        <time>2019-04-29T13:59:14Z</time>
      </trkpt>
      <trkpt lat="43.67642" lon="4.63096">
        <ele>77.078</ele>
        <time>2019-04-29T13:59:25Z</time>
      </trkpt>
      <trkpt lat="43.6764" lon="4.63096">
        <ele>76.906</ele>
        <time>2019-04-29T13:59:35Z</time>
      </trkpt>
      <trkpt lat="43.67642" lon="4.63096">
        <ele>76.875</ele>
        <time>2019-04-29T13:59:45Z</time>
      </trkpt>
      <trkpt lat="43.67643" lon="4.63096">
        <ele>76.894</ele>
        <time>2019-04-29T13:59:55Z</time>
      </trkpt>
      <trkpt lat="43.67644" lon="4.63097">
        <ele>77.858</ele>
        <time>2019-04-29T14:00:06Z</time>
      </trkpt>
      <trkpt lat="43.67642" lon="4.63096">
        <ele>78.217</ele>
        <time>2019-04-29T14:00:17Z</time>
      </trkpt>
      <trkpt lat="43.67642" lon="4.63093">
        <ele>78.334</ele>
        <time>2019-04-29T14:00:28Z</time>
      </trkpt>
      <trkpt lat="43.67641" lon="4.63093">
        <ele>78.362</ele>
        <time>2019-04-29T14:00:38Z</time>
      </trkpt>
      <trkpt lat="43.6764" lon="4.63093">
        <ele>78.5</ele>
        <time>2019-04-29T14:00:48Z</time>
      </trkpt>
      <trkpt lat="43.67641" lon="4.63095">
        <ele>78.506</ele>
        <time>2019-04-29T14:00:59Z</time>
      </trkpt>
      <trkpt lat="43.67641" lon="4.63095">
        <ele>78.162</ele>
        <time>2019-04-29T14:01:10Z</time>
      </trkpt>
      <trkpt lat="43.67642" lon="4.63096">
        <ele>77.851</ele>
        <time>2019-04-29T14:01:20Z</time>
      </trkpt>
      <trkpt lat="43.67642" lon="4.63096">
        <ele>77.256</ele>
        <time>2019-04-29T14:01:31Z</time>
      </trkpt>
      <trkpt lat="43.6764" lon="4.63097">
        <ele>76.703</ele>
        <time>2019-04-29T14:01:42Z</time>
      </trkpt>
      <trkpt lat="43.67639" lon="4.63098">
        <ele>76.152</ele>
        <time>2019-04-29T14:01:53Z</time>
      </trkpt>
      <trkpt lat="43.67642" lon="4.63096">
        <ele>75.867</ele>
        <time>2019-04-29T14:02:03Z</time>
      </trkpt>
      <trkpt lat="43.67642" lon="4.63095">
        <ele>75.784</ele>
        <time>2019-04-29T14:02:13Z</time>
      </trkpt>
      <trkpt lat="43.67637" lon="4.63093">
        <ele>74.908</ele>
        <time>2019-04-29T14:02:23Z</time>
      </trkpt>
      <trkpt lat="43.67636" lon="4.63094">
        <ele>73.893</ele>
        <time>2019-04-29T14:02:34Z</time>
      </trkpt>
      <trkpt lat="43.67637" lon="4.63094">
        <ele>73.16</ele>
        <time>2019-04-29T14:02:45Z</time>
      </trkpt>
      <trkpt lat="43.67638" lon="4.63094">
        <ele>72.739</ele>
        <time>2019-04-29T14:02:56Z</time>
      </trkpt>
      <trkpt lat="43.67638" lon="4.63095">
        <ele>72.645</ele>
        <time>2019-04-29T14:03:06Z</time>
      </trkpt>
      <trkpt lat="43.67641" lon="4.63096">
        <ele>72.272</ele>
        <time>2019-04-29T14:03:17Z</time>
      </trkpt>
      <trkpt lat="43.67643" lon="4.63099">
        <ele>71.995</ele>
        <time>2019-04-29T14:03:28Z</time>
      </trkpt>
      <trkpt lat="43.6764" lon="4.631">
        <ele>71.876</ele>
        <time>2019-04-29T14:03:38Z</time>
      </trkpt>
    </trkseg>
  </trk>
  <trk>
    <name><![CDATA[20190502221855-rGymn]]></name>
    <trkseg>
      <trkpt lat="43.67656" lon="4.6311">
        <ele>111.094</ele>
        <time>2019-04-30T06:54:52Z</time>
      </trkpt>
      <trkpt lat="43.6766" lon="4.63101">
        <ele>99.577</ele>
        <time>2019-04-30T06:55:02Z</time>
      </trkpt>
      <trkpt lat="43.67661" lon="4.63099">
        <ele>97.905</ele>
        <time>2019-04-30T06:55:12Z</time>
      </trkpt>
      <trkpt lat="43.67661" lon="4.63099">
        <ele>91.493</ele>
        <time>2019-04-30T06:55:22Z</time>
      </trkpt>
      <trkpt lat="43.67664" lon="4.63098">
        <ele>91.346</ele>
        <time>2019-04-30T06:55:33Z</time>
      </trkpt>
      <trkpt lat="43.67672" lon="4.63095">
        <ele>90.972</ele>
        <time>2019-04-30T06:55:44Z</time>
      </trkpt>
      <trkpt lat="43.67671" lon="4.63097">
        <ele>90.86</ele>
        <time>2019-04-30T06:55:54Z</time>
      </trkpt>
      <trkpt lat="43.67668" lon="4.63101">
        <ele>90.832</ele>
        <time>2019-04-30T06:56:04Z</time>
      </trkpt>
      <trkpt lat="43.67667" lon="4.63102">
        <ele>90.92</ele>
        <time>2019-04-30T06:56:15Z</time>
      </trkpt>
      <trkpt lat="43.67665" lon="4.63105">
        <ele>91.097</ele>
        <time>2019-04-30T06:56:26Z</time>
      </trkpt>
      <trkpt lat="43.67663" lon="4.63104">
        <ele>91.652</ele>
        <time>2019-04-30T06:56:37Z</time>
      </trkpt>
      <trkpt lat="43.67663" lon="4.63105">
        <ele>92.125</ele>
        <time>2019-04-30T06:56:48Z</time>
      </trkpt>
      <trkpt lat="43.67664" lon="4.63106">
        <ele>92.599</ele>
        <time>2019-04-30T06:56:58Z</time>
      </trkpt>
      <trkpt lat="43.67665" lon="4.63106">
        <ele>93.052</ele>
        <time>2019-04-30T06:57:08Z</time>
      </trkpt>
      <trkpt lat="43.67667" lon="4.63106">
        <ele>93.423</ele>
        <time>2019-04-30T06:57:18Z</time>
      </trkpt>
      <trkpt lat="43.67668" lon="4.63105">
        <ele>93.758</ele>
        <time>2019-04-30T06:57:29Z</time>
      </trkpt>
      <trkpt lat="43.67668" lon="4.63104">
        <ele>94.099</ele>
        <time>2019-04-30T06:57:39Z</time>
      </trkpt>
      <trkpt lat="43.67668" lon="4.63103">
        <ele>94.457</ele>
        <time>2019-04-30T06:57:50Z</time>
      </trkpt>
      <trkpt lat="43.6767" lon="4.63102">
        <ele>94.713</ele>
        <time>2019-04-30T06:58:01Z</time>
      </trkpt>
      <trkpt lat="43.67671" lon="4.631">
        <ele>94.909</ele>
        <time>2019-04-30T06:58:12Z</time>
      </trkpt>
      <trkpt lat="43.67671" lon="4.63099">
        <ele>95.022</ele>
        <time>2019-04-30T06:58:23Z</time>
      </trkpt>
      <trkpt lat="43.67671" lon="4.63097">
        <ele>95.067</ele>
        <time>2019-04-30T06:58:33Z</time>
      </trkpt>
      <trkpt lat="43.67671" lon="4.63096">
        <ele>95.089</ele>
        <time>2019-04-30T06:58:44Z</time>
      </trkpt>
      <trkpt lat="43.67672" lon="4.63096">
        <ele>95.178</ele>
        <time>2019-04-30T06:58:55Z</time>
      </trkpt>
      <trkpt lat="43.67672" lon="4.63094">
        <ele>95.484</ele>
        <time>2019-04-30T06:59:05Z</time>
      </trkpt>
      <trkpt lat="43.67671" lon="4.63088">
        <ele>95.335</ele>
        <time>2019-04-30T06:59:16Z</time>
      </trkpt>
      <trkpt lat="43.67665" lon="4.63058">
        <ele>94.215</ele>
        <time>2019-04-30T06:59:27Z</time>
      </trkpt>
      <trkpt lat="43.67677" lon="4.63037">
        <ele>92.648</ele>
        <time>2019-04-30T06:59:37Z</time>
      </trkpt>
      <trkpt lat="43.677" lon="4.63033">
        <ele>90.718</ele>
        <time>2019-04-30T06:59:48Z</time>
      </trkpt>
      <trkpt lat="43.67704" lon="4.62981">
        <ele>87.172</ele>
        <time>2019-04-30T06:59:59Z</time>
      </trkpt>
      <trkpt lat="43.67707" lon="4.62952">
        <ele>83.972</ele>
        <time>2019-04-30T07:00:09Z</time>
      </trkpt>
      <trkpt lat="43.67699" lon="4.62919">
        <ele>81.014</ele>
        <time>2019-04-30T07:00:20Z</time>
      </trkpt>
      <trkpt lat="43.67693" lon="4.62865">
        <ele>76.298</ele>
        <time>2019-04-30T07:00:30Z</time>
      </trkpt>
      <trkpt lat="43.67689" lon="4.62811">
        <ele>62.2</ele>
        <time>2019-04-30T07:00:40Z</time>
      </trkpt>
      <trkpt lat="43.67687" lon="4.62776">
        <ele>59.855</ele>
        <time>2019-04-30T07:00:50Z</time>
      </trkpt>
      <trkpt lat="43.67687" lon="4.62723">
        <ele>58.455</ele>
        <time>2019-04-30T07:01:01Z</time>
      </trkpt>
      <trkpt lat="43.67716" lon="4.6272">
        <ele>58.746</ele>
        <time>2019-04-30T07:01:12Z</time>
      </trkpt>
      <trkpt lat="43.67748" lon="4.62718">
        <ele>59.983</ele>
        <time>2019-04-30T07:01:22Z</time>
      </trkpt>
      <trkpt lat="43.67774" lon="4.62717">
        <ele>61.167</ele>
        <time>2019-04-30T07:01:33Z</time>
      </trkpt>
      <trkpt lat="43.67779" lon="4.62695">
        <ele>62.289</ele>
        <time>2019-04-30T07:01:44Z</time>
      </trkpt>
      <trkpt lat="43.67779" lon="4.62687">
        <ele>62.252</ele>
        <time>2019-04-30T07:01:55Z</time>
      </trkpt>
      <trkpt lat="43.67779" lon="4.62687">
        <ele>62.806</ele>
        <time>2019-04-30T07:02:05Z</time>
      </trkpt>
      <trkpt lat="43.67775" lon="4.62684">
        <ele>63.549</ele>
        <time>2019-04-30T07:02:16Z</time>
      </trkpt>
      <trkpt lat="43.67775" lon="4.62684">
        <ele>63.747</ele>
        <time>2019-04-30T07:02:26Z</time>
      </trkpt>
      <trkpt lat="43.67775" lon="4.62684">
        <ele>64.003</ele>
        <time>2019-04-30T07:02:37Z</time>
      </trkpt>
      <trkpt lat="43.67776" lon="4.62684">
        <ele>64.216</ele>
        <time>2019-04-30T07:02:47Z</time>
      </trkpt>
      <trkpt lat="43.67777" lon="4.62684">
        <ele>64.581</ele>
        <time>2019-04-30T07:02:58Z</time>
      </trkpt>
      <trkpt lat="43.67777" lon="4.62684">
        <ele>64.734</ele>
        <time>2019-04-30T07:03:08Z</time>
      </trkpt>
      <trkpt lat="43.67777" lon="4.62684">
        <ele>64.908</ele>
        <time>2019-04-30T07:03:19Z</time>
      </trkpt>
      <trkpt lat="43.67777" lon="4.62684">
        <ele>65.095</ele>
        <time>2019-04-30T07:03:30Z</time>
      </trkpt>
      <trkpt lat="43.67776" lon="4.62684">
        <ele>65.277</ele>
        <time>2019-04-30T07:03:40Z</time>
      </trkpt>
      <trkpt lat="43.67776" lon="4.62684">
        <ele>65.466</ele>
        <time>2019-04-30T07:03:51Z</time>
      </trkpt>
      <trkpt lat="43.67777" lon="4.62683">
        <ele>65.645</ele>
        <time>2019-04-30T07:04:02Z</time>
      </trkpt>
      <trkpt lat="43.67777" lon="4.62683">
        <ele>65.808</ele>
        <time>2019-04-30T07:04:12Z</time>
      </trkpt>
      <trkpt lat="43.67777" lon="4.62682">
        <ele>65.979</ele>
        <time>2019-04-30T07:04:23Z</time>
      </trkpt>
      <trkpt lat="43.67777" lon="4.62682">
        <ele>66.138</ele>
        <time>2019-04-30T07:04:34Z</time>
      </trkpt>
      <trkpt lat="43.67775" lon="4.62682">
        <ele>66.403</ele>
        <time>2019-04-30T07:04:44Z</time>
      </trkpt>
      <trkpt lat="43.67775" lon="4.62682">
        <ele>66.528</ele>
        <time>2019-04-30T07:04:55Z</time>
      </trkpt>
      <trkpt lat="43.67775" lon="4.62681">
        <ele>66.591</ele>
        <time>2019-04-30T07:05:05Z</time>
      </trkpt>
      <trkpt lat="43.67775" lon="4.62681">
        <ele>66.628</ele>
        <time>2019-04-30T07:05:15Z</time>
      </trkpt>
      <trkpt lat="43.67775" lon="4.62681">
        <ele>66.642</ele>
        <time>2019-04-30T07:05:26Z</time>
      </trkpt>
      <trkpt lat="43.67775" lon="4.62681">
        <ele>66.637</ele>
        <time>2019-04-30T07:05:37Z</time>
      </trkpt>
      <trkpt lat="43.67774" lon="4.6268">
        <ele>66.628</ele>
        <time>2019-04-30T07:05:47Z</time>
      </trkpt>
      <trkpt lat="43.67774" lon="4.6268">
        <ele>66.628</ele>
        <time>2019-04-30T07:05:57Z</time>
      </trkpt>
      <trkpt lat="43.67774" lon="4.6268">
        <ele>66.672</ele>
        <time>2019-04-30T07:06:07Z</time>
      </trkpt>
      <trkpt lat="43.67774" lon="4.62679">
        <ele>66.742</ele>
        <time>2019-04-30T07:06:18Z</time>
      </trkpt>
      <trkpt lat="43.67774" lon="4.62679">
        <ele>66.801</ele>
        <time>2019-04-30T07:06:28Z</time>
      </trkpt>
      <trkpt lat="43.67773" lon="4.62679">
        <ele>66.804</ele>
        <time>2019-04-30T07:06:38Z</time>
      </trkpt>
      <trkpt lat="43.67773" lon="4.62679">
        <ele>66.754</ele>
        <time>2019-04-30T07:06:49Z</time>
      </trkpt>
      <trkpt lat="43.67773" lon="4.62679">
        <ele>66.656</ele>
        <time>2019-04-30T07:06:59Z</time>
      </trkpt>
      <trkpt lat="43.67772" lon="4.62678">
        <ele>66.537</ele>
        <time>2019-04-30T07:07:10Z</time>
      </trkpt>
      <trkpt lat="43.67772" lon="4.62678">
        <ele>66.466</ele>
        <time>2019-04-30T07:07:20Z</time>
      </trkpt>
      <trkpt lat="43.67772" lon="4.62678">
        <ele>66.37</ele>
        <time>2019-04-30T07:07:30Z</time>
      </trkpt>
      <trkpt lat="43.67772" lon="4.62678">
        <ele>66.279</ele>
        <time>2019-04-30T07:07:41Z</time>
      </trkpt>
      <trkpt lat="43.67772" lon="4.62678">
        <ele>66.19</ele>
        <time>2019-04-30T07:07:51Z</time>
      </trkpt>
      <trkpt lat="43.67772" lon="4.62677">
        <ele>66.059</ele>
        <time>2019-04-30T07:08:02Z</time>
      </trkpt>
      <trkpt lat="43.67771" lon="4.62677">
        <ele>65.954</ele>
        <time>2019-04-30T07:08:13Z</time>
      </trkpt>
      <trkpt lat="43.67771" lon="4.62677">
        <ele>65.872</ele>
        <time>2019-04-30T07:08:24Z</time>
      </trkpt>
      <trkpt lat="43.67771" lon="4.62677">
        <ele>65.821</ele>
        <time>2019-04-30T07:08:35Z</time>
      </trkpt>
      <trkpt lat="43.67771" lon="4.62677">
        <ele>65.793</ele>
        <time>2019-04-30T07:08:45Z</time>
      </trkpt>
      <trkpt lat="43.67771" lon="4.62678">
        <ele>65.796</ele>
        <time>2019-04-30T07:08:56Z</time>
      </trkpt>
      <trkpt lat="43.67771" lon="4.62678">
        <ele>65.819</ele>
        <time>2019-04-30T07:09:06Z</time>
      </trkpt>
      <trkpt lat="43.67772" lon="4.62679">
        <ele>65.844</ele>
        <time>2019-04-30T07:09:17Z</time>
      </trkpt>
      <trkpt lat="43.67772" lon="4.62679">
        <ele>65.901</ele>
        <time>2019-04-30T07:09:28Z</time>
      </trkpt>
      <trkpt lat="43.67773" lon="4.62679">
        <ele>65.97</ele>
        <time>2019-04-30T07:09:39Z</time>
      </trkpt>
      <trkpt lat="43.67773" lon="4.6268">
        <ele>66.019</ele>
        <time>2019-04-30T07:09:50Z</time>
      </trkpt>
      <trkpt lat="43.67773" lon="4.6268">
        <ele>66.089</ele>
        <time>2019-04-30T07:10:01Z</time>
      </trkpt>
      <trkpt lat="43.67772" lon="4.62681">
        <ele>66.124</ele>
        <time>2019-04-30T07:10:11Z</time>
      </trkpt>
      <trkpt lat="43.67773" lon="4.62681">
        <ele>66.136</ele>
        <time>2019-04-30T07:10:22Z</time>
      </trkpt>
      <trkpt lat="43.67773" lon="4.62681">
        <ele>66.108</ele>
        <time>2019-04-30T07:10:32Z</time>
      </trkpt>
      <trkpt lat="43.67773" lon="4.62681">
        <ele>66.047</ele>
        <time>2019-04-30T07:10:43Z</time>
      </trkpt>
      <trkpt lat="43.67773" lon="4.62682">
        <ele>66.006</ele>
        <time>2019-04-30T07:10:54Z</time>
      </trkpt>
      <trkpt lat="43.67773" lon="4.62681">
        <ele>65.984</ele>
        <time>2019-04-30T07:11:04Z</time>
      </trkpt>
      <trkpt lat="43.67773" lon="4.6268">
        <ele>66.033</ele>
        <time>2019-04-30T07:11:15Z</time>
      </trkpt>
      <trkpt lat="43.67774" lon="4.62678">
        <ele>66.666</ele>
        <time>2019-04-30T07:11:26Z</time>
      </trkpt>
      <trkpt lat="43.67775" lon="4.62676">
        <ele>66.7</ele>
        <time>2019-04-30T07:11:37Z</time>
      </trkpt>
      <trkpt lat="43.67782" lon="4.6268">
        <ele>66.924</ele>
        <time>2019-04-30T07:11:47Z</time>
      </trkpt>
      <trkpt lat="43.67782" lon="4.62681">
        <ele>66.927</ele>
        <time>2019-04-30T07:11:58Z</time>
      </trkpt>
      <trkpt lat="43.67781" lon="4.62681">
        <ele>66.897</ele>
        <time>2019-04-30T07:12:08Z</time>
      </trkpt>
      <trkpt lat="43.6778" lon="4.62682">
        <ele>66.805</ele>
        <time>2019-04-30T07:12:19Z</time>
      </trkpt>
      <trkpt lat="43.6778" lon="4.62682">
        <ele>66.682</ele>
        <time>2019-04-30T07:12:30Z</time>
      </trkpt>
      <trkpt lat="43.6778" lon="4.62682">
        <ele>66.572</ele>
        <time>2019-04-30T07:12:40Z</time>
      </trkpt>
      <trkpt lat="43.6778" lon="4.62682">
        <ele>66.471</ele>
        <time>2019-04-30T07:12:51Z</time>
      </trkpt>
      <trkpt lat="43.6778" lon="4.62682">
        <ele>66.436</ele>
        <time>2019-04-30T07:13:02Z</time>
      </trkpt>
      <trkpt lat="43.67781" lon="4.62682">
        <ele>66.454</ele>
        <time>2019-04-30T07:13:13Z</time>
      </trkpt>
      <trkpt lat="43.67781" lon="4.62682">
        <ele>66.522</ele>
        <time>2019-04-30T07:13:23Z</time>
      </trkpt>
      <trkpt lat="43.67781" lon="4.62682">
        <ele>66.626</ele>
        <time>2019-04-30T07:13:33Z</time>
      </trkpt>
      <trkpt lat="43.67782" lon="4.62682">
        <ele>66.723</ele>
        <time>2019-04-30T07:13:44Z</time>
      </trkpt>
      <trkpt lat="43.67778" lon="4.62682">
        <ele>68.552</ele>
        <time>2019-04-30T07:13:54Z</time>
      </trkpt>
      <trkpt lat="43.67776" lon="4.62681">
        <ele>68.631</ele>
        <time>2019-04-30T07:14:05Z</time>
      </trkpt>
      <trkpt lat="43.67762" lon="4.62682">
        <ele>68.842</ele>
        <time>2019-04-30T07:14:15Z</time>
      </trkpt>
      <trkpt lat="43.67762" lon="4.62682">
        <ele>68.873</ele>
        <time>2019-04-30T07:14:25Z</time>
      </trkpt>
      <trkpt lat="43.67763" lon="4.62682">
        <ele>68.91</ele>
        <time>2019-04-30T07:14:36Z</time>
      </trkpt>
      <trkpt lat="43.67764" lon="4.62682">
        <ele>68.89</ele>
        <time>2019-04-30T07:14:46Z</time>
      </trkpt>
      <trkpt lat="43.67765" lon="4.62682">
        <ele>68.843</ele>
        <time>2019-04-30T07:14:56Z</time>
      </trkpt>
      <trkpt lat="43.67766" lon="4.62682">
        <ele>68.814</ele>
        <time>2019-04-30T07:15:07Z</time>
      </trkpt>
      <trkpt lat="43.67766" lon="4.62681">
        <ele>68.825</ele>
        <time>2019-04-30T07:15:18Z</time>
      </trkpt>
      <trkpt lat="43.67767" lon="4.62681">
        <ele>68.831</ele>
        <time>2019-04-30T07:15:29Z</time>
      </trkpt>
      <trkpt lat="43.67768" lon="4.62681">
        <ele>68.804</ele>
        <time>2019-04-30T07:15:40Z</time>
      </trkpt>
      <trkpt lat="43.67769" lon="4.62682">
        <ele>68.789</ele>
        <time>2019-04-30T07:15:51Z</time>
      </trkpt>
      <trkpt lat="43.6777" lon="4.62681">
        <ele>68.781</ele>
        <time>2019-04-30T07:16:02Z</time>
      </trkpt>
      <trkpt lat="43.67769" lon="4.62682">
        <ele>68.719</ele>
        <time>2019-04-30T07:16:13Z</time>
      </trkpt>
      <trkpt lat="43.67769" lon="4.62682">
        <ele>68.666</ele>
        <time>2019-04-30T07:16:23Z</time>
      </trkpt>
      <trkpt lat="43.67775" lon="4.62666">
        <ele>69.279</ele>
        <time>2019-04-30T07:16:34Z</time>
      </trkpt>
      <trkpt lat="43.67777" lon="4.6263">
        <ele>72.033</ele>
        <time>2019-04-30T07:16:44Z</time>
      </trkpt>
      <trkpt lat="43.67778" lon="4.62605">
        <ele>72.061</ele>
        <time>2019-04-30T07:16:55Z</time>
      </trkpt>
      <trkpt lat="43.67776" lon="4.62602">
        <ele>71.747</ele>
        <time>2019-04-30T07:17:05Z</time>
      </trkpt>
      <trkpt lat="43.67764" lon="4.62592">
        <ele>71.716</ele>
        <time>2019-04-30T07:17:15Z</time>
      </trkpt>
      <trkpt lat="43.67764" lon="4.62556">
        <ele>69.839</ele>
        <time>2019-04-30T07:17:26Z</time>
      </trkpt>
      <trkpt lat="43.67761" lon="4.62504">
        <ele>63.916</ele>
        <time>2019-04-30T07:17:36Z</time>
      </trkpt>
      <trkpt lat="43.67754" lon="4.62459">
        <ele>50.566</ele>
        <time>2019-04-30T07:17:46Z</time>
      </trkpt>
      <trkpt lat="43.67738" lon="4.62432">
        <ele>50.284</ele>
        <time>2019-04-30T07:17:57Z</time>
      </trkpt>
      <trkpt lat="43.67764" lon="4.62418">
        <ele>54.589</ele>
        <time>2019-04-30T07:18:07Z</time>
      </trkpt>
      <trkpt lat="43.67798" lon="4.62407">
        <ele>60.971</ele>
        <time>2019-04-30T07:18:18Z</time>
      </trkpt>
      <trkpt lat="43.67821" lon="4.62383">
        <ele>65.89</ele>
        <time>2019-04-30T07:18:28Z</time>
      </trkpt>
      <trkpt lat="43.67843" lon="4.62358">
        <ele>70.751</ele>
        <time>2019-04-30T07:18:39Z</time>
      </trkpt>
      <trkpt lat="43.67866" lon="4.62334">
        <ele>71.678</ele>
        <time>2019-04-30T07:18:50Z</time>
      </trkpt>
      <trkpt lat="43.67891" lon="4.62311">
        <ele>71.111</ele>
        <time>2019-04-30T07:19:00Z</time>
      </trkpt>
      <trkpt lat="43.6792" lon="4.62284">
        <ele>69.002</ele>
        <time>2019-04-30T07:19:10Z</time>
      </trkpt>
      <trkpt lat="43.67965" lon="4.6224">
        <ele>66.668</ele>
        <time>2019-04-30T07:19:21Z</time>
      </trkpt>
      <trkpt lat="43.6802" lon="4.62193">
        <ele>61.545</ele>
        <time>2019-04-30T07:19:32Z</time>
      </trkpt>
      <trkpt lat="43.68041" lon="4.62108">
        <ele>62.178</ele>
        <time>2019-04-30T07:19:43Z</time>
      </trkpt>
      <trkpt lat="43.68038" lon="4.62038">
        <ele>65.496</ele>
        <time>2019-04-30T07:19:54Z</time>
      </trkpt>
      <trkpt lat="43.68019" lon="4.62029">
        <ele>65.867</ele>
        <time>2019-04-30T07:20:05Z</time>
      </trkpt>
      <trkpt lat="43.68019" lon="4.62029">
        <ele>65.995</ele>
        <time>2019-04-30T07:20:15Z</time>
      </trkpt>
      <trkpt lat="43.68005" lon="4.62022">
        <ele>66.944</ele>
        <time>2019-04-30T07:20:26Z</time>
      </trkpt>
      <trkpt lat="43.67971" lon="4.62004">
        <ele>70.223</ele>
        <time>2019-04-30T07:20:36Z</time>
      </trkpt>
      <trkpt lat="43.67956" lon="4.61919">
        <ele>62.749</ele>
        <time>2019-04-30T07:20:47Z</time>
      </trkpt>
      <trkpt lat="43.67958" lon="4.61841">
        <ele>57.664</ele>
        <time>2019-04-30T07:20:58Z</time>
      </trkpt>
      <trkpt lat="43.67944" lon="4.61778">
        <ele>53.336</ele>
        <time>2019-04-30T07:21:09Z</time>
      </trkpt>
      <trkpt lat="43.67895" lon="4.61754">
        <ele>55.566</ele>
        <time>2019-04-30T07:21:20Z</time>
      </trkpt>
      <trkpt lat="43.6785" lon="4.61738">
        <ele>57.008</ele>
        <time>2019-04-30T07:21:30Z</time>
      </trkpt>
      <trkpt lat="43.67809" lon="4.61693">
        <ele>57.641</ele>
        <time>2019-04-30T07:21:41Z</time>
      </trkpt>
      <trkpt lat="43.67764" lon="4.61649">
        <ele>56.756</ele>
        <time>2019-04-30T07:21:52Z</time>
      </trkpt>
      <trkpt lat="43.67727" lon="4.61608">
        <ele>58.969</ele>
        <time>2019-04-30T07:22:03Z</time>
      </trkpt>
      <trkpt lat="43.6769" lon="4.61556">
        <ele>56.101</ele>
        <time>2019-04-30T07:22:14Z</time>
      </trkpt>
      <trkpt lat="43.67666" lon="4.61514">
        <ele>56.604</ele>
        <time>2019-04-30T07:22:24Z</time>
      </trkpt>
      <trkpt lat="43.67643" lon="4.61458">
        <ele>56.929</ele>
        <time>2019-04-30T07:22:34Z</time>
      </trkpt>
      <trkpt lat="43.67617" lon="4.61405">
        <ele>57.358</ele>
        <time>2019-04-30T07:22:44Z</time>
      </trkpt>
      <trkpt lat="43.67593" lon="4.61344">
        <ele>58.845</ele>
        <time>2019-04-30T07:22:55Z</time>
      </trkpt>
      <trkpt lat="43.67559" lon="4.61278">
        <ele>59.411</ele>
        <time>2019-04-30T07:23:06Z</time>
      </trkpt>
      <trkpt lat="43.67531" lon="4.6122">
        <ele>60.815</ele>
        <time>2019-04-30T07:23:17Z</time>
      </trkpt>
      <trkpt lat="43.67509" lon="4.6117">
        <ele>62.947</ele>
        <time>2019-04-30T07:23:27Z</time>
      </trkpt>
      <trkpt lat="43.67483" lon="4.61109">
        <ele>59.092</ele>
        <time>2019-04-30T07:23:37Z</time>
      </trkpt>
      <trkpt lat="43.67453" lon="4.61037">
        <ele>58.666</ele>
        <time>2019-04-30T07:23:48Z</time>
      </trkpt>
      <trkpt lat="43.67436" lon="4.60973">
        <ele>57.039</ele>
        <time>2019-04-30T07:23:58Z</time>
      </trkpt>
      <trkpt lat="43.67426" lon="4.60908">
        <ele>59.739</ele>
        <time>2019-04-30T07:24:09Z</time>
      </trkpt>
      <trkpt lat="43.67409" lon="4.60835">
        <ele>60.528</ele>
        <time>2019-04-30T07:24:20Z</time>
      </trkpt>
      <trkpt lat="43.67397" lon="4.60776">
        <ele>61.116</ele>
        <time>2019-04-30T07:24:30Z</time>
      </trkpt>
      <trkpt lat="43.67375" lon="4.60711">
        <ele>57.643</ele>
        <time>2019-04-30T07:24:40Z</time>
      </trkpt>
      <trkpt lat="43.6737" lon="4.60647">
        <ele>56.79</ele>
        <time>2019-04-30T07:24:52Z</time>
      </trkpt>
      <trkpt lat="43.67367" lon="4.60588">
        <ele>57.091</ele>
        <time>2019-04-30T07:25:02Z</time>
      </trkpt>
      <trkpt lat="43.67312" lon="4.60594">
        <ele>56.733</ele>
        <time>2019-04-30T07:25:13Z</time>
      </trkpt>
      <trkpt lat="43.67259" lon="4.60562">
        <ele>58.008</ele>
        <time>2019-04-30T07:25:24Z</time>
      </trkpt>
      <trkpt lat="43.67206" lon="4.6053">
        <ele>56.437</ele>
        <time>2019-04-30T07:25:35Z</time>
      </trkpt>
      <trkpt lat="43.67158" lon="4.605">
        <ele>60.515</ele>
        <time>2019-04-30T07:25:45Z</time>
      </trkpt>
      <trkpt lat="43.67161" lon="4.60501">
        <ele>60.338</ele>
        <time>2019-04-30T07:25:56Z</time>
      </trkpt>
      <trkpt lat="43.67155" lon="4.605">
        <ele>60.129</ele>
        <time>2019-04-30T07:26:06Z</time>
      </trkpt>
      <trkpt lat="43.67123" lon="4.60477">
        <ele>59.747</ele>
        <time>2019-04-30T07:26:16Z</time>
      </trkpt>
      <trkpt lat="43.67076" lon="4.60432">
        <ele>57.718</ele>
        <time>2019-04-30T07:26:27Z</time>
      </trkpt>
      <trkpt lat="43.6704" lon="4.60377">
        <ele>59.555</ele>
        <time>2019-04-30T07:26:38Z</time>
      </trkpt>
      <trkpt lat="43.67009" lon="4.60304">
        <ele>56.708</ele>
        <time>2019-04-30T07:26:49Z</time>
      </trkpt>
      <trkpt lat="43.66985" lon="4.60231">
        <ele>56.777</ele>
        <time>2019-04-30T07:27:00Z</time>
      </trkpt>
      <trkpt lat="43.66967" lon="4.60168">
        <ele>59.888</ele>
        <time>2019-04-30T07:27:10Z</time>
      </trkpt>
      <trkpt lat="43.66948" lon="4.60102">
        <ele>59.109</ele>
        <time>2019-04-30T07:27:21Z</time>
      </trkpt>
      <trkpt lat="43.66929" lon="4.60031">
        <ele>57.398</ele>
        <time>2019-04-30T07:27:32Z</time>
      </trkpt>
      <trkpt lat="43.6691" lon="4.59959">
        <ele>56.75</ele>
        <time>2019-04-30T07:27:43Z</time>
      </trkpt>
      <trkpt lat="43.66889" lon="4.59887">
        <ele>56.998</ele>
        <time>2019-04-30T07:27:54Z</time>
      </trkpt>
      <trkpt lat="43.66874" lon="4.59821">
        <ele>58.295</ele>
        <time>2019-04-30T07:28:04Z</time>
      </trkpt>
      <trkpt lat="43.66855" lon="4.5975">
        <ele>57.356</ele>
        <time>2019-04-30T07:28:15Z</time>
      </trkpt>
      <trkpt lat="43.66835" lon="4.59683">
        <ele>54.94</ele>
        <time>2019-04-30T07:28:25Z</time>
      </trkpt>
      <trkpt lat="43.66818" lon="4.59612">
        <ele>54.584</ele>
        <time>2019-04-30T07:28:36Z</time>
      </trkpt>
      <trkpt lat="43.66801" lon="4.5955">
        <ele>55.953</ele>
        <time>2019-04-30T07:28:46Z</time>
      </trkpt>
      <trkpt lat="43.66776" lon="4.59476">
        <ele>56.285</ele>
        <time>2019-04-30T07:28:57Z</time>
      </trkpt>
      <trkpt lat="43.66752" lon="4.59408">
        <ele>55.372</ele>
        <time>2019-04-30T07:29:07Z</time>
      </trkpt>
      <trkpt lat="43.66727" lon="4.59336">
        <ele>54.874</ele>
        <time>2019-04-30T07:29:18Z</time>
      </trkpt>
      <trkpt lat="43.66704" lon="4.59263">
        <ele>55.751</ele>
        <time>2019-04-30T07:29:29Z</time>
      </trkpt>
      <trkpt lat="43.66683" lon="4.59198">
        <ele>56.29</ele>
        <time>2019-04-30T07:29:39Z</time>
      </trkpt>
      <trkpt lat="43.66658" lon="4.59129">
        <ele>57.207</ele>
        <time>2019-04-30T07:29:50Z</time>
      </trkpt>
      <trkpt lat="43.66632" lon="4.59062">
        <ele>54.927</ele>
        <time>2019-04-30T07:30:01Z</time>
      </trkpt>
      <trkpt lat="43.66603" lon="4.59003">
        <ele>55.092</ele>
        <time>2019-04-30T07:30:12Z</time>
      </trkpt>
      <trkpt lat="43.66576" lon="4.58941">
        <ele>56.287</ele>
        <time>2019-04-30T07:30:23Z</time>
      </trkpt>
      <trkpt lat="43.66537" lon="4.58887">
        <ele>57.809</ele>
        <time>2019-04-30T07:30:34Z</time>
      </trkpt>
      <trkpt lat="43.66502" lon="4.58842">
        <ele>60.505</ele>
        <time>2019-04-30T07:30:44Z</time>
      </trkpt>
      <trkpt lat="43.66459" lon="4.58796">
        <ele>59.765</ele>
        <time>2019-04-30T07:30:55Z</time>
      </trkpt>
      <trkpt lat="43.66417" lon="4.58756">
        <ele>57.392</ele>
        <time>2019-04-30T07:31:05Z</time>
      </trkpt>
      <trkpt lat="43.66378" lon="4.58716">
        <ele>57.268</ele>
        <time>2019-04-30T07:31:15Z</time>
      </trkpt>
      <trkpt lat="43.66334" lon="4.58671">
        <ele>57.586</ele>
        <time>2019-04-30T07:31:26Z</time>
      </trkpt>
      <trkpt lat="43.6629" lon="4.58624">
        <ele>58.198</ele>
        <time>2019-04-30T07:31:36Z</time>
      </trkpt>
      <trkpt lat="43.66247" lon="4.58582">
        <ele>60.259</ele>
        <time>2019-04-30T07:31:46Z</time>
      </trkpt>
      <trkpt lat="43.66207" lon="4.58548">
        <ele>61.698</ele>
        <time>2019-04-30T07:31:56Z</time>
      </trkpt>
      <trkpt lat="43.6616" lon="4.58506">
        <ele>62.873</ele>
        <time>2019-04-30T07:32:07Z</time>
      </trkpt>
      <trkpt lat="43.66109" lon="4.58467">
        <ele>60.354</ele>
        <time>2019-04-30T07:32:18Z</time>
      </trkpt>
      <trkpt lat="43.66056" lon="4.58423">
        <ele>59.239</ele>
        <time>2019-04-30T07:32:29Z</time>
      </trkpt>
      <trkpt lat="43.66004" lon="4.58373">
        <ele>57.331</ele>
        <time>2019-04-30T07:32:39Z</time>
      </trkpt>
      <trkpt lat="43.65954" lon="4.58332">
        <ele>56.462</ele>
        <time>2019-04-30T07:32:49Z</time>
      </trkpt>
      <trkpt lat="43.65898" lon="4.58341">
        <ele>56.53</ele>
        <time>2019-04-30T07:33:00Z</time>
      </trkpt>
      <trkpt lat="43.65839" lon="4.5833">
        <ele>56.434</ele>
        <time>2019-04-30T07:33:11Z</time>
      </trkpt>
      <trkpt lat="43.65786" lon="4.58322">
        <ele>57.033</ele>
        <time>2019-04-30T07:33:21Z</time>
      </trkpt>
      <trkpt lat="43.6573" lon="4.58302">
        <ele>58.268</ele>
        <time>2019-04-30T07:33:31Z</time>
      </trkpt>
      <trkpt lat="43.65673" lon="4.58251">
        <ele>58.993</ele>
        <time>2019-04-30T07:33:42Z</time>
      </trkpt>
      <trkpt lat="43.65616" lon="4.58203">
        <ele>59.113</ele>
        <time>2019-04-30T07:33:53Z</time>
      </trkpt>
      <trkpt lat="43.65552" lon="4.5817">
        <ele>58.984</ele>
        <time>2019-04-30T07:34:04Z</time>
      </trkpt>
      <trkpt lat="43.65498" lon="4.58165">
        <ele>57.55</ele>
        <time>2019-04-30T07:34:14Z</time>
      </trkpt>
      <trkpt lat="43.65439" lon="4.58158">
        <ele>57.055</ele>
        <time>2019-04-30T07:34:25Z</time>
      </trkpt>
      <trkpt lat="43.65379" lon="4.58164">
        <ele>57.323</ele>
        <time>2019-04-30T07:34:36Z</time>
      </trkpt>
      <trkpt lat="43.65324" lon="4.58171">
        <ele>58.933</ele>
        <time>2019-04-30T07:34:46Z</time>
      </trkpt>
      <trkpt lat="43.65261" lon="4.58186">
        <ele>60.291</ele>
        <time>2019-04-30T07:34:57Z</time>
      </trkpt>
      <trkpt lat="43.65203" lon="4.58213">
        <ele>59.923</ele>
        <time>2019-04-30T07:35:08Z</time>
      </trkpt>
      <trkpt lat="43.65148" lon="4.58236">
        <ele>60.238</ele>
        <time>2019-04-30T07:35:18Z</time>
      </trkpt>
      <trkpt lat="43.65083" lon="4.58249">
        <ele>60.002</ele>
        <time>2019-04-30T07:35:29Z</time>
      </trkpt>
      <trkpt lat="43.65035" lon="4.58256">
        <ele>59.097</ele>
        <time>2019-04-30T07:35:39Z</time>
      </trkpt>
      <trkpt lat="43.64976" lon="4.58271">
        <ele>58.226</ele>
        <time>2019-04-30T07:35:50Z</time>
      </trkpt>
      <trkpt lat="43.64914" lon="4.58294">
        <ele>57.686</ele>
        <time>2019-04-30T07:36:01Z</time>
      </trkpt>
      <trkpt lat="43.64855" lon="4.58323">
        <ele>57.241</ele>
        <time>2019-04-30T07:36:11Z</time>
      </trkpt>
      <trkpt lat="43.64792" lon="4.58349">
        <ele>61.474</ele>
        <time>2019-04-30T07:36:21Z</time>
      </trkpt>
      <trkpt lat="43.64734" lon="4.58366">
        <ele>60.741</ele>
        <time>2019-04-30T07:36:32Z</time>
      </trkpt>
      <trkpt lat="43.64731" lon="4.583">
        <ele>59.904</ele>
        <time>2019-04-30T07:36:42Z</time>
      </trkpt>
      <trkpt lat="43.64733" lon="4.58226">
        <ele>59.181</ele>
        <time>2019-04-30T07:36:53Z</time>
      </trkpt>
      <trkpt lat="43.64728" lon="4.58166">
        <ele>58.225</ele>
        <time>2019-04-30T07:37:03Z</time>
      </trkpt>
      <trkpt lat="43.64726" lon="4.58095">
        <ele>56.959</ele>
        <time>2019-04-30T07:37:14Z</time>
      </trkpt>
      <trkpt lat="43.64723" lon="4.58031">
        <ele>56.467</ele>
        <time>2019-04-30T07:37:24Z</time>
      </trkpt>
      <trkpt lat="43.6472" lon="4.57959">
        <ele>55.767</ele>
        <time>2019-04-30T07:37:35Z</time>
      </trkpt>
      <trkpt lat="43.64731" lon="4.57897">
        <ele>56.039</ele>
        <time>2019-04-30T07:37:46Z</time>
      </trkpt>
      <trkpt lat="43.64724" lon="4.57836">
        <ele>57.401</ele>
        <time>2019-04-30T07:37:56Z</time>
      </trkpt>
      <trkpt lat="43.64724" lon="4.57778">
        <ele>57.93</ele>
        <time>2019-04-30T07:38:07Z</time>
      </trkpt>
      <trkpt lat="43.64708" lon="4.57724">
        <ele>58.76</ele>
        <time>2019-04-30T07:38:18Z</time>
      </trkpt>
      <trkpt lat="43.64664" lon="4.57714">
        <ele>58.554</ele>
        <time>2019-04-30T07:38:28Z</time>
      </trkpt>
      <trkpt lat="43.64618" lon="4.57669">
        <ele>59.299</ele>
        <time>2019-04-30T07:38:39Z</time>
      </trkpt>
      <trkpt lat="43.64571" lon="4.57634">
        <ele>60.065</ele>
        <time>2019-04-30T07:38:50Z</time>
      </trkpt>
      <trkpt lat="43.64526" lon="4.57602">
        <ele>60.787</ele>
        <time>2019-04-30T07:39:00Z</time>
      </trkpt>
      <trkpt lat="43.64485" lon="4.57571">
        <ele>60.783</ele>
        <time>2019-04-30T07:39:10Z</time>
      </trkpt>
      <trkpt lat="43.64432" lon="4.57544">
        <ele>60.183</ele>
        <time>2019-04-30T07:39:21Z</time>
      </trkpt>
      <trkpt lat="43.64372" lon="4.57513">
        <ele>59.329</ele>
        <time>2019-04-30T07:39:32Z</time>
      </trkpt>
      <trkpt lat="43.64316" lon="4.57485">
        <ele>58.766</ele>
        <time>2019-04-30T07:39:42Z</time>
      </trkpt>
      <trkpt lat="43.64253" lon="4.57464">
        <ele>59.782</ele>
        <time>2019-04-30T07:39:53Z</time>
      </trkpt>
      <trkpt lat="43.64189" lon="4.5747">
        <ele>57.951</ele>
        <time>2019-04-30T07:40:04Z</time>
      </trkpt>
      <trkpt lat="43.64126" lon="4.57443">
        <ele>56.545</ele>
        <time>2019-04-30T07:40:15Z</time>
      </trkpt>
      <trkpt lat="43.64069" lon="4.57412">
        <ele>56.067</ele>
        <time>2019-04-30T07:40:26Z</time>
      </trkpt>
      <trkpt lat="43.64018" lon="4.57395">
        <ele>56.058</ele>
        <time>2019-04-30T07:40:36Z</time>
      </trkpt>
      <trkpt lat="43.63964" lon="4.57373">
        <ele>55.268</ele>
        <time>2019-04-30T07:40:47Z</time>
      </trkpt>
      <trkpt lat="43.63914" lon="4.57349">
        <ele>55.174</ele>
        <time>2019-04-30T07:40:58Z</time>
      </trkpt>
      <trkpt lat="43.63867" lon="4.57327">
        <ele>54.328</ele>
        <time>2019-04-30T07:41:08Z</time>
      </trkpt>
      <trkpt lat="43.63823" lon="4.57311">
        <ele>53.495</ele>
        <time>2019-04-30T07:41:18Z</time>
      </trkpt>
      <trkpt lat="43.63821" lon="4.5731">
        <ele>53.469</ele>
        <time>2019-04-30T07:41:29Z</time>
      </trkpt>
      <trkpt lat="43.63821" lon="4.5731">
        <ele>53.464</ele>
        <time>2019-04-30T07:41:39Z</time>
      </trkpt>
      <trkpt lat="43.63821" lon="4.5731">
        <ele>53.458</ele>
        <time>2019-04-30T07:41:50Z</time>
      </trkpt>
      <trkpt lat="43.63821" lon="4.5731">
        <ele>53.46</ele>
        <time>2019-04-30T07:42:01Z</time>
      </trkpt>
      <trkpt lat="43.63821" lon="4.5731">
        <ele>53.465</ele>
        <time>2019-04-30T07:42:11Z</time>
      </trkpt>
      <trkpt lat="43.63821" lon="4.5731">
        <ele>53.475</ele>
        <time>2019-04-30T07:42:22Z</time>
      </trkpt>
      <trkpt lat="43.63821" lon="4.5731">
        <ele>53.489</ele>
        <time>2019-04-30T07:42:33Z</time>
      </trkpt>
      <trkpt lat="43.63821" lon="4.5731">
        <ele>53.498</ele>
        <time>2019-04-30T07:42:44Z</time>
      </trkpt>
      <trkpt lat="43.63821" lon="4.5731">
        <ele>53.504</ele>
        <time>2019-04-30T07:42:55Z</time>
      </trkpt>
      <trkpt lat="43.63821" lon="4.5731">
        <ele>53.514</ele>
        <time>2019-04-30T07:43:05Z</time>
      </trkpt>
      <trkpt lat="43.63821" lon="4.5731">
        <ele>53.53</ele>
        <time>2019-04-30T07:43:16Z</time>
      </trkpt>
      <trkpt lat="43.63821" lon="4.5731">
        <ele>53.549</ele>
        <time>2019-04-30T07:43:27Z</time>
      </trkpt>
      <trkpt lat="43.63821" lon="4.5731">
        <ele>53.571</ele>
        <time>2019-04-30T07:43:38Z</time>
      </trkpt>
      <trkpt lat="43.63811" lon="4.57307">
        <ele>53.696</ele>
        <time>2019-04-30T07:43:48Z</time>
      </trkpt>
      <trkpt lat="43.63773" lon="4.57292">
        <ele>54.085</ele>
        <time>2019-04-30T07:43:59Z</time>
      </trkpt>
      <trkpt lat="43.63729" lon="4.57273">
        <ele>54.125</ele>
        <time>2019-04-30T07:44:09Z</time>
      </trkpt>
      <trkpt lat="43.63684" lon="4.57266">
        <ele>54.242</ele>
        <time>2019-04-30T07:44:20Z</time>
      </trkpt>
      <trkpt lat="43.63634" lon="4.57251">
        <ele>52.469</ele>
        <time>2019-04-30T07:44:30Z</time>
      </trkpt>
      <trkpt lat="43.63589" lon="4.57242">
        <ele>52.035</ele>
        <time>2019-04-30T07:44:40Z</time>
      </trkpt>
      <trkpt lat="43.63532" lon="4.5723">
        <ele>53.605</ele>
        <time>2019-04-30T07:44:51Z</time>
      </trkpt>
      <trkpt lat="43.63477" lon="4.57222">
        <ele>54.504</ele>
        <time>2019-04-30T07:45:02Z</time>
      </trkpt>
      <trkpt lat="43.63425" lon="4.57223">
        <ele>54.044</ele>
        <time>2019-04-30T07:45:13Z</time>
      </trkpt>
      <trkpt lat="43.63367" lon="4.57223">
        <ele>53.219</ele>
        <time>2019-04-30T07:45:24Z</time>
      </trkpt>
      <trkpt lat="43.63312" lon="4.57226">
        <ele>52.549</ele>
        <time>2019-04-30T07:45:34Z</time>
      </trkpt>
      <trkpt lat="43.63255" lon="4.57229">
        <ele>52.546</ele>
        <time>2019-04-30T07:45:44Z</time>
      </trkpt>
      <trkpt lat="43.63194" lon="4.57229">
        <ele>52.547</ele>
        <time>2019-04-30T07:45:55Z</time>
      </trkpt>
      <trkpt lat="43.63127" lon="4.57231">
        <ele>52.128</ele>
        <time>2019-04-30T07:46:06Z</time>
      </trkpt>
      <trkpt lat="43.63066" lon="4.57233">
        <ele>52.315</ele>
        <time>2019-04-30T07:46:16Z</time>
      </trkpt>
      <trkpt lat="43.62997" lon="4.57233">
        <ele>52.329</ele>
        <time>2019-04-30T07:46:27Z</time>
      </trkpt>
      <trkpt lat="43.62932" lon="4.57234">
        <ele>52.677</ele>
        <time>2019-04-30T07:46:37Z</time>
      </trkpt>
      <trkpt lat="43.62853" lon="4.57237">
        <ele>53.607</ele>
        <time>2019-04-30T07:46:48Z</time>
      </trkpt>
      <trkpt lat="43.6278" lon="4.57236">
        <ele>52.486</ele>
        <time>2019-04-30T07:46:59Z</time>
      </trkpt>
      <trkpt lat="43.62715" lon="4.5724">
        <ele>53.346</ele>
        <time>2019-04-30T07:47:09Z</time>
      </trkpt>
      <trkpt lat="43.62641" lon="4.57241">
        <ele>53.772</ele>
        <time>2019-04-30T07:47:20Z</time>
      </trkpt>
      <trkpt lat="43.62566" lon="4.57241">
        <ele>53.173</ele>
        <time>2019-04-30T07:47:31Z</time>
      </trkpt>
      <trkpt lat="43.62498" lon="4.57242">
        <ele>53.025</ele>
        <time>2019-04-30T07:47:41Z</time>
      </trkpt>
      <trkpt lat="43.62431" lon="4.57243">
        <ele>52.946</ele>
        <time>2019-04-30T07:47:51Z</time>
      </trkpt>
      <trkpt lat="43.62356" lon="4.57244">
        <ele>52.954</ele>
        <time>2019-04-30T07:48:02Z</time>
      </trkpt>
      <trkpt lat="43.62279" lon="4.57243">
        <ele>52.99</ele>
        <time>2019-04-30T07:48:13Z</time>
      </trkpt>
      <trkpt lat="43.62202" lon="4.57236">
        <ele>53.049</ele>
        <time>2019-04-30T07:48:24Z</time>
      </trkpt>
      <trkpt lat="43.62133" lon="4.57223">
        <ele>53.075</ele>
        <time>2019-04-30T07:48:34Z</time>
      </trkpt>
      <trkpt lat="43.62069" lon="4.57186">
        <ele>52.998</ele>
        <time>2019-04-30T07:48:44Z</time>
      </trkpt>
      <trkpt lat="43.62002" lon="4.57136">
        <ele>52.993</ele>
        <time>2019-04-30T07:48:55Z</time>
      </trkpt>
      <trkpt lat="43.61932" lon="4.57088">
        <ele>52.872</ele>
        <time>2019-04-30T07:49:06Z</time>
      </trkpt>
      <trkpt lat="43.61863" lon="4.57056">
        <ele>52.776</ele>
        <time>2019-04-30T07:49:17Z</time>
      </trkpt>
      <trkpt lat="43.61797" lon="4.57044">
        <ele>52.8</ele>
        <time>2019-04-30T07:49:27Z</time>
      </trkpt>
      <trkpt lat="43.6173" lon="4.57026">
        <ele>53.548</ele>
        <time>2019-04-30T07:49:38Z</time>
      </trkpt>
      <trkpt lat="43.61669" lon="4.57032">
        <ele>53.577</ele>
        <time>2019-04-30T07:49:49Z</time>
      </trkpt>
      <trkpt lat="43.61605" lon="4.57043">
        <ele>53.27</ele>
        <time>2019-04-30T07:50:00Z</time>
      </trkpt>
      <trkpt lat="43.61549" lon="4.5704">
        <ele>53.192</ele>
        <time>2019-04-30T07:50:11Z</time>
      </trkpt>
      <trkpt lat="43.61529" lon="4.56957">
        <ele>53.019</ele>
        <time>2019-04-30T07:50:21Z</time>
      </trkpt>
      <trkpt lat="43.61533" lon="4.56871">
        <ele>52.133</ele>
        <time>2019-04-30T07:50:32Z</time>
      </trkpt>
      <trkpt lat="43.6152" lon="4.56798">
        <ele>51.992</ele>
        <time>2019-04-30T07:50:42Z</time>
      </trkpt>
      <trkpt lat="43.61485" lon="4.56731">
        <ele>51.971</ele>
        <time>2019-04-30T07:50:53Z</time>
      </trkpt>
      <trkpt lat="43.61448" lon="4.56678">
        <ele>52.133</ele>
        <time>2019-04-30T07:51:03Z</time>
      </trkpt>
      <trkpt lat="43.61409" lon="4.56623">
        <ele>52.439</ele>
        <time>2019-04-30T07:51:13Z</time>
      </trkpt>
      <trkpt lat="43.61365" lon="4.5656">
        <ele>53.15</ele>
        <time>2019-04-30T07:51:24Z</time>
      </trkpt>
      <trkpt lat="43.61327" lon="4.56504">
        <ele>51.807</ele>
        <time>2019-04-30T07:51:34Z</time>
      </trkpt>
      <trkpt lat="43.61284" lon="4.56438">
        <ele>51.704</ele>
        <time>2019-04-30T07:51:45Z</time>
      </trkpt>
      <trkpt lat="43.61242" lon="4.56378">
        <ele>51.831</ele>
        <time>2019-04-30T07:51:55Z</time>
      </trkpt>
      <trkpt lat="43.61189" lon="4.56318">
        <ele>52.268</ele>
        <time>2019-04-30T07:52:06Z</time>
      </trkpt>
      <trkpt lat="43.61131" lon="4.56268">
        <ele>52.47</ele>
        <time>2019-04-30T07:52:17Z</time>
      </trkpt>
      <trkpt lat="43.6108" lon="4.56216">
        <ele>52.435</ele>
        <time>2019-04-30T07:52:27Z</time>
      </trkpt>
      <trkpt lat="43.61022" lon="4.56162">
        <ele>51.922</ele>
        <time>2019-04-30T07:52:38Z</time>
      </trkpt>
      <trkpt lat="43.6097" lon="4.56112">
        <ele>51.716</ele>
        <time>2019-04-30T07:52:48Z</time>
      </trkpt>
      <trkpt lat="43.6092" lon="4.56059">
        <ele>51.574</ele>
        <time>2019-04-30T07:52:59Z</time>
      </trkpt>
      <trkpt lat="43.60919" lon="4.56058">
        <ele>51.576</ele>
        <time>2019-04-30T07:53:10Z</time>
      </trkpt>
      <trkpt lat="43.60919" lon="4.56058">
        <ele>51.601</ele>
        <time>2019-04-30T07:53:20Z</time>
      </trkpt>
      <trkpt lat="43.60919" lon="4.56058">
        <ele>51.569</ele>
        <time>2019-04-30T07:53:31Z</time>
      </trkpt>
      <trkpt lat="43.60919" lon="4.56058">
        <ele>51.563</ele>
        <time>2019-04-30T07:53:41Z</time>
      </trkpt>
      <trkpt lat="43.60904" lon="4.56043">
        <ele>51.579</ele>
        <time>2019-04-30T07:53:52Z</time>
      </trkpt>
      <trkpt lat="43.60864" lon="4.56002">
        <ele>51.716</ele>
        <time>2019-04-30T07:54:03Z</time>
      </trkpt>
      <trkpt lat="43.60808" lon="4.55958">
        <ele>51.656</ele>
        <time>2019-04-30T07:54:14Z</time>
      </trkpt>
      <trkpt lat="43.60757" lon="4.55912">
        <ele>51.845</ele>
        <time>2019-04-30T07:54:24Z</time>
      </trkpt>
      <trkpt lat="43.60703" lon="4.5586">
        <ele>52.068</ele>
        <time>2019-04-30T07:54:35Z</time>
      </trkpt>
      <trkpt lat="43.60648" lon="4.55805">
        <ele>52.427</ele>
        <time>2019-04-30T07:54:46Z</time>
      </trkpt>
      <trkpt lat="43.606" lon="4.55748">
        <ele>52.693</ele>
        <time>2019-04-30T07:54:56Z</time>
      </trkpt>
      <trkpt lat="43.60546" lon="4.55687">
        <ele>52.747</ele>
        <time>2019-04-30T07:55:07Z</time>
      </trkpt>
      <trkpt lat="43.60495" lon="4.55629">
        <ele>52.633</ele>
        <time>2019-04-30T07:55:17Z</time>
      </trkpt>
      <trkpt lat="43.60446" lon="4.5557">
        <ele>52.516</ele>
        <time>2019-04-30T07:55:27Z</time>
      </trkpt>
      <trkpt lat="43.60392" lon="4.55506">
        <ele>52.431</ele>
        <time>2019-04-30T07:55:38Z</time>
      </trkpt>
      <trkpt lat="43.60344" lon="4.55449">
        <ele>52.395</ele>
        <time>2019-04-30T07:55:48Z</time>
      </trkpt>
      <trkpt lat="43.60292" lon="4.55389">
        <ele>52.408</ele>
        <time>2019-04-30T07:55:59Z</time>
      </trkpt>
      <trkpt lat="43.6024" lon="4.55327">
        <ele>52.358</ele>
        <time>2019-04-30T07:56:10Z</time>
      </trkpt>
      <trkpt lat="43.60187" lon="4.55265">
        <ele>52.316</ele>
        <time>2019-04-30T07:56:21Z</time>
      </trkpt>
      <trkpt lat="43.60137" lon="4.55208">
        <ele>52.217</ele>
        <time>2019-04-30T07:56:31Z</time>
      </trkpt>
      <trkpt lat="43.60085" lon="4.55145">
        <ele>52.163</ele>
        <time>2019-04-30T07:56:42Z</time>
      </trkpt>
      <trkpt lat="43.60039" lon="4.55092">
        <ele>52.016</ele>
        <time>2019-04-30T07:56:52Z</time>
      </trkpt>
      <trkpt lat="43.59988" lon="4.55031">
        <ele>51.884</ele>
        <time>2019-04-30T07:57:03Z</time>
      </trkpt>
      <trkpt lat="43.59938" lon="4.54973">
        <ele>51.84</ele>
        <time>2019-04-30T07:57:14Z</time>
      </trkpt>
      <trkpt lat="43.59892" lon="4.54919">
        <ele>51.887</ele>
        <time>2019-04-30T07:57:24Z</time>
      </trkpt>
      <trkpt lat="43.59841" lon="4.54861">
        <ele>51.948</ele>
        <time>2019-04-30T07:57:35Z</time>
      </trkpt>
      <trkpt lat="43.59792" lon="4.54801">
        <ele>52.064</ele>
        <time>2019-04-30T07:57:46Z</time>
      </trkpt>
      <trkpt lat="43.59768" lon="4.54771">
        <ele>52.053</ele>
        <time>2019-04-30T07:57:56Z</time>
      </trkpt>
      <trkpt lat="43.59768" lon="4.54771">
        <ele>52.043</ele>
        <time>2019-04-30T07:58:07Z</time>
      </trkpt>
      <trkpt lat="43.59768" lon="4.54771">
        <ele>52.031</ele>
        <time>2019-04-30T07:58:18Z</time>
      </trkpt>
      <trkpt lat="43.59768" lon="4.54771">
        <ele>51.989</ele>
        <time>2019-04-30T07:58:28Z</time>
      </trkpt>
      <trkpt lat="43.59768" lon="4.54771">
        <ele>51.949</ele>
        <time>2019-04-30T07:58:39Z</time>
      </trkpt>
      <trkpt lat="43.59768" lon="4.54771">
        <ele>51.917</ele>
        <time>2019-04-30T07:58:50Z</time>
      </trkpt>
      <trkpt lat="43.59759" lon="4.54765">
        <ele>50.815</ele>
        <time>2019-04-30T07:59:02Z</time>
      </trkpt>
      <trkpt lat="43.59747" lon="4.54745">
        <ele>51.545</ele>
        <time>2019-04-30T07:59:12Z</time>
      </trkpt>
      <trkpt lat="43.59717" lon="4.54706">
        <ele>54.751</ele>
        <time>2019-04-30T07:59:23Z</time>
      </trkpt>
      <trkpt lat="43.59672" lon="4.54651">
        <ele>55.474</ele>
        <time>2019-04-30T07:59:34Z</time>
      </trkpt>
      <trkpt lat="43.59625" lon="4.54611">
        <ele>55.319</ele>
        <time>2019-04-30T07:59:44Z</time>
      </trkpt>
      <trkpt lat="43.59569" lon="4.5457">
        <ele>54.488</ele>
        <time>2019-04-30T07:59:55Z</time>
      </trkpt>
      <trkpt lat="43.59515" lon="4.54531">
        <ele>54.212</ele>
        <time>2019-04-30T08:00:05Z</time>
      </trkpt>
      <trkpt lat="43.59461" lon="4.54492">
        <ele>53.271</ele>
        <time>2019-04-30T08:00:15Z</time>
      </trkpt>
      <trkpt lat="43.59402" lon="4.54452">
        <ele>52.687</ele>
        <time>2019-04-30T08:00:26Z</time>
      </trkpt>
      <trkpt lat="43.59362" lon="4.54424">
        <ele>52.321</ele>
        <time>2019-04-30T08:00:36Z</time>
      </trkpt>
      <trkpt lat="43.59332" lon="4.544">
        <ele>52.221</ele>
        <time>2019-04-30T08:00:47Z</time>
      </trkpt>
      <trkpt lat="43.593" lon="4.54377">
        <ele>52.072</ele>
        <time>2019-04-30T08:00:57Z</time>
      </trkpt>
      <trkpt lat="43.59256" lon="4.54344">
        <ele>52.054</ele>
        <time>2019-04-30T08:01:08Z</time>
      </trkpt>
      <trkpt lat="43.59205" lon="4.54308">
        <ele>52.349</ele>
        <time>2019-04-30T08:01:19Z</time>
      </trkpt>
      <trkpt lat="43.59157" lon="4.54268">
        <ele>52.046</ele>
        <time>2019-04-30T08:01:29Z</time>
      </trkpt>
      <trkpt lat="43.59116" lon="4.54214">
        <ele>51.828</ele>
        <time>2019-04-30T08:01:39Z</time>
      </trkpt>
      <trkpt lat="43.5907" lon="4.54157">
        <ele>51.673</ele>
        <time>2019-04-30T08:01:50Z</time>
      </trkpt>
      <trkpt lat="43.59025" lon="4.541">
        <ele>52.239</ele>
        <time>2019-04-30T08:02:01Z</time>
      </trkpt>
      <trkpt lat="43.58962" lon="4.54078">
        <ele>51.943</ele>
        <time>2019-04-30T08:02:12Z</time>
      </trkpt>
      <trkpt lat="43.58906" lon="4.54087">
        <ele>50.94</ele>
        <time>2019-04-30T08:02:22Z</time>
      </trkpt>
      <trkpt lat="43.58847" lon="4.54095">
        <ele>50.691</ele>
        <time>2019-04-30T08:02:32Z</time>
      </trkpt>
      <trkpt lat="43.58786" lon="4.54109">
        <ele>51.679</ele>
        <time>2019-04-30T08:02:42Z</time>
      </trkpt>
      <trkpt lat="43.5872" lon="4.54123">
        <ele>53.049</ele>
        <time>2019-04-30T08:02:53Z</time>
      </trkpt>
      <trkpt lat="43.58656" lon="4.54144">
        <ele>53.601</ele>
        <time>2019-04-30T08:03:04Z</time>
      </trkpt>
      <trkpt lat="43.58598" lon="4.54163">
        <ele>53.946</ele>
        <time>2019-04-30T08:03:14Z</time>
      </trkpt>
      <trkpt lat="43.5853" lon="4.54184">
        <ele>54.413</ele>
        <time>2019-04-30T08:03:25Z</time>
      </trkpt>
      <trkpt lat="43.58466" lon="4.54204">
        <ele>53.943</ele>
        <time>2019-04-30T08:03:35Z</time>
      </trkpt>
      <trkpt lat="43.58392" lon="4.5422">
        <ele>53.852</ele>
        <time>2019-04-30T08:03:46Z</time>
      </trkpt>
      <trkpt lat="43.58315" lon="4.54229">
        <ele>53.655</ele>
        <time>2019-04-30T08:03:57Z</time>
      </trkpt>
      <trkpt lat="43.58239" lon="4.54237">
        <ele>53.86</ele>
        <time>2019-04-30T08:04:08Z</time>
      </trkpt>
      <trkpt lat="43.58183" lon="4.5424">
        <ele>52.333</ele>
        <time>2019-04-30T08:04:18Z</time>
      </trkpt>
      <trkpt lat="43.58117" lon="4.54258">
        <ele>51.386</ele>
        <time>2019-04-30T08:04:29Z</time>
      </trkpt>
      <trkpt lat="43.58047" lon="4.54281">
        <ele>52.977</ele>
        <time>2019-04-30T08:04:40Z</time>
      </trkpt>
      <trkpt lat="43.5798" lon="4.54307">
        <ele>53.731</ele>
        <time>2019-04-30T08:04:51Z</time>
      </trkpt>
      <trkpt lat="43.57919" lon="4.54331">
        <ele>54.066</ele>
        <time>2019-04-30T08:05:02Z</time>
      </trkpt>
      <trkpt lat="43.57859" lon="4.54346">
        <ele>54.612</ele>
        <time>2019-04-30T08:05:13Z</time>
      </trkpt>
      <trkpt lat="43.57801" lon="4.54364">
        <ele>54.772</ele>
        <time>2019-04-30T08:05:23Z</time>
      </trkpt>
      <trkpt lat="43.57739" lon="4.54382">
        <ele>54.302</ele>
        <time>2019-04-30T08:05:33Z</time>
      </trkpt>
      <trkpt lat="43.57668" lon="4.54402">
        <ele>53.798</ele>
        <time>2019-04-30T08:05:44Z</time>
      </trkpt>
      <trkpt lat="43.57603" lon="4.5442">
        <ele>53.458</ele>
        <time>2019-04-30T08:05:54Z</time>
      </trkpt>
      <trkpt lat="43.5753" lon="4.54442">
        <ele>54.113</ele>
        <time>2019-04-30T08:06:05Z</time>
      </trkpt>
      <trkpt lat="43.5746" lon="4.5446">
        <ele>53.127</ele>
        <time>2019-04-30T08:06:15Z</time>
      </trkpt>
      <trkpt lat="43.57382" lon="4.54485">
        <ele>52.537</ele>
        <time>2019-04-30T08:06:26Z</time>
      </trkpt>
      <trkpt lat="43.57308" lon="4.54502">
        <ele>52.142</ele>
        <time>2019-04-30T08:06:37Z</time>
      </trkpt>
      <trkpt lat="43.57239" lon="4.54525">
        <ele>52.079</ele>
        <time>2019-04-30T08:06:48Z</time>
      </trkpt>
      <trkpt lat="43.57226" lon="4.54522">
        <ele>52.024</ele>
        <time>2019-04-30T08:06:58Z</time>
      </trkpt>
      <trkpt lat="43.57222" lon="4.54492">
        <ele>51.958</ele>
        <time>2019-04-30T08:07:09Z</time>
      </trkpt>
      <trkpt lat="43.57216" lon="4.54439">
        <ele>51.77</ele>
        <time>2019-04-30T08:07:19Z</time>
      </trkpt>
      <trkpt lat="43.57208" lon="4.54372">
        <ele>52.554</ele>
        <time>2019-04-30T08:07:30Z</time>
      </trkpt>
      <trkpt lat="43.57196" lon="4.54294">
        <ele>52.958</ele>
        <time>2019-04-30T08:07:41Z</time>
      </trkpt>
      <trkpt lat="43.57185" lon="4.54216">
        <ele>53.37</ele>
        <time>2019-04-30T08:07:52Z</time>
      </trkpt>
      <trkpt lat="43.57174" lon="4.54139">
        <ele>53.337</ele>
        <time>2019-04-30T08:08:03Z</time>
      </trkpt>
      <trkpt lat="43.57165" lon="4.54067">
        <ele>53.372</ele>
        <time>2019-04-30T08:08:13Z</time>
      </trkpt>
      <trkpt lat="43.57154" lon="4.53997">
        <ele>53.562</ele>
        <time>2019-04-30T08:08:23Z</time>
      </trkpt>
      <trkpt lat="43.57144" lon="4.53924">
        <ele>53.839</ele>
        <time>2019-04-30T08:08:34Z</time>
      </trkpt>
      <trkpt lat="43.57136" lon="4.53854">
        <ele>53.202</ele>
        <time>2019-04-30T08:08:44Z</time>
      </trkpt>
      <trkpt lat="43.57126" lon="4.53789">
        <ele>52.263</ele>
        <time>2019-04-30T08:08:54Z</time>
      </trkpt>
      <trkpt lat="43.57112" lon="4.53708">
        <ele>52.03</ele>
        <time>2019-04-30T08:09:06Z</time>
      </trkpt>
      <trkpt lat="43.57095" lon="4.53645">
        <ele>52.177</ele>
        <time>2019-04-30T08:09:16Z</time>
      </trkpt>
      <trkpt lat="43.5708" lon="4.53568">
        <ele>52.797</ele>
        <time>2019-04-30T08:09:27Z</time>
      </trkpt>
      <trkpt lat="43.57068" lon="4.53498">
        <ele>53.151</ele>
        <time>2019-04-30T08:09:37Z</time>
      </trkpt>
      <trkpt lat="43.5706" lon="4.53428">
        <ele>53.289</ele>
        <time>2019-04-30T08:09:48Z</time>
      </trkpt>
      <trkpt lat="43.57053" lon="4.53361">
        <ele>53.192</ele>
        <time>2019-04-30T08:09:58Z</time>
      </trkpt>
      <trkpt lat="43.57055" lon="4.53286">
        <ele>52.879</ele>
        <time>2019-04-30T08:10:09Z</time>
      </trkpt>
      <trkpt lat="43.57069" lon="4.53217">
        <ele>53.392</ele>
        <time>2019-04-30T08:10:20Z</time>
      </trkpt>
      <trkpt lat="43.5709" lon="4.53155">
        <ele>53.923</ele>
        <time>2019-04-30T08:10:31Z</time>
      </trkpt>
      <trkpt lat="43.57114" lon="4.53107">
        <ele>54.196</ele>
        <time>2019-04-30T08:10:41Z</time>
      </trkpt>
      <trkpt lat="43.57145" lon="4.53058">
        <ele>54.491</ele>
        <time>2019-04-30T08:10:52Z</time>
      </trkpt>
      <trkpt lat="43.57179" lon="4.53008">
        <ele>54.429</ele>
        <time>2019-04-30T08:11:03Z</time>
      </trkpt>
      <trkpt lat="43.57208" lon="4.52962">
        <ele>53.983</ele>
        <time>2019-04-30T08:11:14Z</time>
      </trkpt>
      <trkpt lat="43.57234" lon="4.52921">
        <ele>54.138</ele>
        <time>2019-04-30T08:11:24Z</time>
      </trkpt>
      <trkpt lat="43.57263" lon="4.5287">
        <ele>54.632</ele>
        <time>2019-04-30T08:11:35Z</time>
      </trkpt>
      <trkpt lat="43.57292" lon="4.52821">
        <ele>55.092</ele>
        <time>2019-04-30T08:11:46Z</time>
      </trkpt>
      <trkpt lat="43.57317" lon="4.52772">
        <ele>56.367</ele>
        <time>2019-04-30T08:11:57Z</time>
      </trkpt>
      <trkpt lat="43.57339" lon="4.52726">
        <ele>57.214</ele>
        <time>2019-04-30T08:12:07Z</time>
      </trkpt>
      <trkpt lat="43.5736" lon="4.52677">
        <ele>57.992</ele>
        <time>2019-04-30T08:12:18Z</time>
      </trkpt>
      <trkpt lat="43.57386" lon="4.52625">
        <ele>54.6</ele>
        <time>2019-04-30T08:12:28Z</time>
      </trkpt>
      <trkpt lat="43.57419" lon="4.52558">
        <ele>54.459</ele>
        <time>2019-04-30T08:12:39Z</time>
      </trkpt>
      <trkpt lat="43.57451" lon="4.52493">
        <ele>51.956</ele>
        <time>2019-04-30T08:12:50Z</time>
      </trkpt>
      <trkpt lat="43.57482" lon="4.52429">
        <ele>54.115</ele>
        <time>2019-04-30T08:13:01Z</time>
      </trkpt>
      <trkpt lat="43.5751" lon="4.52369">
        <ele>54.664</ele>
        <time>2019-04-30T08:13:11Z</time>
      </trkpt>
      <trkpt lat="43.57538" lon="4.52307">
        <ele>52.727</ele>
        <time>2019-04-30T08:13:21Z</time>
      </trkpt>
      <trkpt lat="43.57571" lon="4.52241">
        <ele>58.844</ele>
        <time>2019-04-30T08:13:32Z</time>
      </trkpt>
      <trkpt lat="43.57604" lon="4.52172">
        <ele>58.729</ele>
        <time>2019-04-30T08:13:43Z</time>
      </trkpt>
      <trkpt lat="43.57637" lon="4.52103">
        <ele>58.569</ele>
        <time>2019-04-30T08:13:54Z</time>
      </trkpt>
      <trkpt lat="43.57666" lon="4.52043">
        <ele>57.773</ele>
        <time>2019-04-30T08:14:04Z</time>
      </trkpt>
      <trkpt lat="43.57697" lon="4.51977">
        <ele>57.561</ele>
        <time>2019-04-30T08:14:15Z</time>
      </trkpt>
      <trkpt lat="43.57725" lon="4.51919">
        <ele>57.249</ele>
        <time>2019-04-30T08:14:25Z</time>
      </trkpt>
      <trkpt lat="43.57757" lon="4.51853">
        <ele>56.212</ele>
        <time>2019-04-30T08:14:36Z</time>
      </trkpt>
      <trkpt lat="43.57786" lon="4.51791">
        <ele>56.229</ele>
        <time>2019-04-30T08:14:47Z</time>
      </trkpt>
      <trkpt lat="43.57815" lon="4.51731">
        <ele>56.373</ele>
        <time>2019-04-30T08:14:58Z</time>
      </trkpt>
      <trkpt lat="43.57841" lon="4.51677">
        <ele>55.969</ele>
        <time>2019-04-30T08:15:08Z</time>
      </trkpt>
      <trkpt lat="43.5787" lon="4.51614">
        <ele>55.784</ele>
        <time>2019-04-30T08:15:19Z</time>
      </trkpt>
      <trkpt lat="43.57898" lon="4.51552">
        <ele>51.445</ele>
        <time>2019-04-30T08:15:30Z</time>
      </trkpt>
      <trkpt lat="43.57928" lon="4.51491">
        <ele>52.034</ele>
        <time>2019-04-30T08:15:41Z</time>
      </trkpt>
      <trkpt lat="43.57954" lon="4.51437">
        <ele>53.587</ele>
        <time>2019-04-30T08:15:51Z</time>
      </trkpt>
      <trkpt lat="43.57983" lon="4.51378">
        <ele>55.157</ele>
        <time>2019-04-30T08:16:02Z</time>
      </trkpt>
      <trkpt lat="43.58008" lon="4.51324">
        <ele>55.267</ele>
        <time>2019-04-30T08:16:12Z</time>
      </trkpt>
      <trkpt lat="43.5803" lon="4.51273">
        <ele>55.456</ele>
        <time>2019-04-30T08:16:22Z</time>
      </trkpt>
      <trkpt lat="43.58047" lon="4.5121">
        <ele>56.526</ele>
        <time>2019-04-30T08:16:33Z</time>
      </trkpt>
      <trkpt lat="43.58055" lon="4.51144">
        <ele>53.87</ele>
        <time>2019-04-30T08:16:44Z</time>
      </trkpt>
      <trkpt lat="43.58055" lon="4.51078">
        <ele>51.667</ele>
        <time>2019-04-30T08:16:54Z</time>
      </trkpt>
      <trkpt lat="43.58054" lon="4.51009">
        <ele>51.907</ele>
        <time>2019-04-30T08:17:04Z</time>
      </trkpt>
      <trkpt lat="43.58054" lon="4.50928">
        <ele>54.406</ele>
        <time>2019-04-30T08:17:15Z</time>
      </trkpt>
      <trkpt lat="43.58055" lon="4.50855">
        <ele>54.906</ele>
        <time>2019-04-30T08:17:25Z</time>
      </trkpt>
      <trkpt lat="43.58053" lon="4.50773">
        <ele>54.563</ele>
        <time>2019-04-30T08:17:36Z</time>
      </trkpt>
      <trkpt lat="43.58052" lon="4.50699">
        <ele>55.676</ele>
        <time>2019-04-30T08:17:46Z</time>
      </trkpt>
      <trkpt lat="43.58048" lon="4.50623">
        <ele>52.808</ele>
        <time>2019-04-30T08:17:57Z</time>
      </trkpt>
      <trkpt lat="43.58049" lon="4.50542">
        <ele>53.739</ele>
        <time>2019-04-30T08:18:07Z</time>
      </trkpt>
      <trkpt lat="43.58049" lon="4.50461">
        <ele>56.035</ele>
        <time>2019-04-30T08:18:18Z</time>
      </trkpt>
      <trkpt lat="43.5804" lon="4.50386">
        <ele>56.623</ele>
        <time>2019-04-30T08:18:29Z</time>
      </trkpt>
      <trkpt lat="43.57989" lon="4.50389">
        <ele>57.828</ele>
        <time>2019-04-30T08:18:40Z</time>
      </trkpt>
      <trkpt lat="43.57987" lon="4.50387">
        <ele>57.577</ele>
        <time>2019-04-30T08:18:51Z</time>
      </trkpt>
      <trkpt lat="43.57987" lon="4.50387">
        <ele>57.545</ele>
        <time>2019-04-30T08:19:01Z</time>
      </trkpt>
      <trkpt lat="43.57987" lon="4.50387">
        <ele>57.494</ele>
        <time>2019-04-30T08:19:12Z</time>
      </trkpt>
      <trkpt lat="43.57987" lon="4.50388">
        <ele>57.432</ele>
        <time>2019-04-30T08:19:23Z</time>
      </trkpt>
      <trkpt lat="43.57986" lon="4.50387">
        <ele>56.684</ele>
        <time>2019-04-30T08:19:35Z</time>
      </trkpt>
      <trkpt lat="43.57993" lon="4.50386">
        <ele>56.516</ele>
        <time>2019-04-30T08:19:46Z</time>
      </trkpt>
      <trkpt lat="43.5799" lon="4.50385">
        <ele>56.779</ele>
        <time>2019-04-30T08:19:57Z</time>
      </trkpt>
      <trkpt lat="43.57989" lon="4.50386">
        <ele>56.831</ele>
        <time>2019-04-30T08:20:07Z</time>
      </trkpt>
      <trkpt lat="43.57989" lon="4.50387">
        <ele>56.837</ele>
        <time>2019-04-30T08:20:17Z</time>
      </trkpt>
      <trkpt lat="43.57988" lon="4.50386">
        <ele>56.853</ele>
        <time>2019-04-30T08:20:28Z</time>
      </trkpt>
      <trkpt lat="43.57986" lon="4.5039">
        <ele>56.669</ele>
        <time>2019-04-30T08:20:39Z</time>
      </trkpt>
      <trkpt lat="43.57987" lon="4.5039">
        <ele>56.623</ele>
        <time>2019-04-30T08:20:50Z</time>
      </trkpt>
      <trkpt lat="43.57986" lon="4.5039">
        <ele>56.099</ele>
        <time>2019-04-30T08:21:00Z</time>
      </trkpt>
      <trkpt lat="43.57986" lon="4.5039">
        <ele>55.974</ele>
        <time>2019-04-30T08:21:11Z</time>
      </trkpt>
      <trkpt lat="43.57985" lon="4.50391">
        <ele>55.895</ele>
        <time>2019-04-30T08:21:21Z</time>
      </trkpt>
      <trkpt lat="43.57953" lon="4.50389">
        <ele>55.984</ele>
        <time>2019-04-30T08:21:32Z</time>
      </trkpt>
      <trkpt lat="43.57909" lon="4.50395">
        <ele>56.249</ele>
        <time>2019-04-30T08:21:42Z</time>
      </trkpt>
      <trkpt lat="43.57854" lon="4.504">
        <ele>53.399</ele>
        <time>2019-04-30T08:21:52Z</time>
      </trkpt>
      <trkpt lat="43.57793" lon="4.50409">
        <ele>53.169</ele>
        <time>2019-04-30T08:22:03Z</time>
      </trkpt>
      <trkpt lat="43.5773" lon="4.50418">
        <ele>55.527</ele>
        <time>2019-04-30T08:22:14Z</time>
      </trkpt>
      <trkpt lat="43.57661" lon="4.50424">
        <ele>54.277</ele>
        <time>2019-04-30T08:22:25Z</time>
      </trkpt>
      <trkpt lat="43.57597" lon="4.50442">
        <ele>53.125</ele>
        <time>2019-04-30T08:22:35Z</time>
      </trkpt>
      <trkpt lat="43.57537" lon="4.5044">
        <ele>53.06</ele>
        <time>2019-04-30T08:22:45Z</time>
      </trkpt>
      <trkpt lat="43.57472" lon="4.50445">
        <ele>52.078</ele>
        <time>2019-04-30T08:22:56Z</time>
      </trkpt>
      <trkpt lat="43.57417" lon="4.50428">
        <ele>52.91</ele>
        <time>2019-04-30T08:23:06Z</time>
      </trkpt>
      <trkpt lat="43.57361" lon="4.5041">
        <ele>52.153</ele>
        <time>2019-04-30T08:23:16Z</time>
      </trkpt>
      <trkpt lat="43.5731" lon="4.50391">
        <ele>52.976</ele>
        <time>2019-04-30T08:23:27Z</time>
      </trkpt>
      <trkpt lat="43.57302" lon="4.5038">
        <ele>53.013</ele>
        <time>2019-04-30T08:23:37Z</time>
      </trkpt>
      <trkpt lat="43.57288" lon="4.50365">
        <ele>53.274</ele>
        <time>2019-04-30T08:23:48Z</time>
      </trkpt>
      <trkpt lat="43.57263" lon="4.50329">
        <ele>53.453</ele>
        <time>2019-04-30T08:23:59Z</time>
      </trkpt>
      <trkpt lat="43.57225" lon="4.5029">
        <ele>52.803</ele>
        <time>2019-04-30T08:24:10Z</time>
      </trkpt>
      <trkpt lat="43.57197" lon="4.5025">
        <ele>50.842</ele>
        <time>2019-04-30T08:24:20Z</time>
      </trkpt>
      <trkpt lat="43.57163" lon="4.50213">
        <ele>49.338</ele>
        <time>2019-04-30T08:24:30Z</time>
      </trkpt>
      <trkpt lat="43.57109" lon="4.50151">
        <ele>47.984</ele>
        <time>2019-04-30T08:24:41Z</time>
      </trkpt>
      <trkpt lat="43.57064" lon="4.50075">
        <ele>47.472</ele>
        <time>2019-04-30T08:24:51Z</time>
      </trkpt>
      <trkpt lat="43.5703" lon="4.50014">
        <ele>46.132</ele>
        <time>2019-04-30T08:25:02Z</time>
      </trkpt>
      <trkpt lat="43.57001" lon="4.4995">
        <ele>49.357</ele>
        <time>2019-04-30T08:25:13Z</time>
      </trkpt>
      <trkpt lat="43.56972" lon="4.49896">
        <ele>50.836</ele>
        <time>2019-04-30T08:25:23Z</time>
      </trkpt>
      <trkpt lat="43.56935" lon="4.49841">
        <ele>55.62</ele>
        <time>2019-04-30T08:25:34Z</time>
      </trkpt>
      <trkpt lat="43.56896" lon="4.49793">
        <ele>51.957</ele>
        <time>2019-04-30T08:25:44Z</time>
      </trkpt>
      <trkpt lat="43.5686" lon="4.49754">
        <ele>52.203</ele>
        <time>2019-04-30T08:25:54Z</time>
      </trkpt>
      <trkpt lat="43.56822" lon="4.49727">
        <ele>53.526</ele>
        <time>2019-04-30T08:26:05Z</time>
      </trkpt>
      <trkpt lat="43.5677" lon="4.49703">
        <ele>55.366</ele>
        <time>2019-04-30T08:26:15Z</time>
      </trkpt>
      <trkpt lat="43.56711" lon="4.49688">
        <ele>55.943</ele>
        <time>2019-04-30T08:26:26Z</time>
      </trkpt>
      <trkpt lat="43.56659" lon="4.49689">
        <ele>56.913</ele>
        <time>2019-04-30T08:26:37Z</time>
      </trkpt>
      <trkpt lat="43.566" lon="4.49696">
        <ele>55.898</ele>
        <time>2019-04-30T08:26:47Z</time>
      </trkpt>
      <trkpt lat="43.5654" lon="4.49687">
        <ele>55.099</ele>
        <time>2019-04-30T08:26:58Z</time>
      </trkpt>
      <trkpt lat="43.56481" lon="4.49664">
        <ele>54.668</ele>
        <time>2019-04-30T08:27:09Z</time>
      </trkpt>
      <trkpt lat="43.56429" lon="4.49632">
        <ele>56.221</ele>
        <time>2019-04-30T08:27:19Z</time>
      </trkpt>
      <trkpt lat="43.56372" lon="4.49592">
        <ele>57.029</ele>
        <time>2019-04-30T08:27:30Z</time>
      </trkpt>
      <trkpt lat="43.56317" lon="4.49554">
        <ele>56.346</ele>
        <time>2019-04-30T08:27:40Z</time>
      </trkpt>
      <trkpt lat="43.56259" lon="4.49515">
        <ele>55.479</ele>
        <time>2019-04-30T08:27:50Z</time>
      </trkpt>
      <trkpt lat="43.56198" lon="4.49472">
        <ele>54.495</ele>
        <time>2019-04-30T08:28:01Z</time>
      </trkpt>
      <trkpt lat="43.56138" lon="4.49433">
        <ele>54.045</ele>
        <time>2019-04-30T08:28:12Z</time>
      </trkpt>
      <trkpt lat="43.56078" lon="4.4939">
        <ele>53.281</ele>
        <time>2019-04-30T08:28:23Z</time>
      </trkpt>
      <trkpt lat="43.56036" lon="4.49356">
        <ele>52.702</ele>
        <time>2019-04-30T08:28:33Z</time>
      </trkpt>
      <trkpt lat="43.55991" lon="4.4931">
        <ele>52.404</ele>
        <time>2019-04-30T08:28:44Z</time>
      </trkpt>
      <trkpt lat="43.55947" lon="4.49265">
        <ele>52.643</ele>
        <time>2019-04-30T08:28:55Z</time>
      </trkpt>
      <trkpt lat="43.55904" lon="4.49227">
        <ele>53.506</ele>
        <time>2019-04-30T08:29:05Z</time>
      </trkpt>
      <trkpt lat="43.5586" lon="4.49183">
        <ele>54.592</ele>
        <time>2019-04-30T08:29:16Z</time>
      </trkpt>
      <trkpt lat="43.55832" lon="4.49151">
        <ele>54.468</ele>
        <time>2019-04-30T08:29:26Z</time>
      </trkpt>
      <trkpt lat="43.55823" lon="4.49143">
        <ele>54.455</ele>
        <time>2019-04-30T08:29:37Z</time>
      </trkpt>
      <trkpt lat="43.55823" lon="4.49143">
        <ele>54.449</ele>
        <time>2019-04-30T08:29:47Z</time>
      </trkpt>
      <trkpt lat="43.55823" lon="4.49143">
        <ele>54.458</ele>
        <time>2019-04-30T08:29:57Z</time>
      </trkpt>
      <trkpt lat="43.55823" lon="4.49143">
        <ele>54.473</ele>
        <time>2019-04-30T08:30:08Z</time>
      </trkpt>
      <trkpt lat="43.55823" lon="4.49143">
        <ele>54.505</ele>
        <time>2019-04-30T08:30:19Z</time>
      </trkpt>
      <trkpt lat="43.55823" lon="4.49143">
        <ele>54.567</ele>
        <time>2019-04-30T08:30:29Z</time>
      </trkpt>
      <trkpt lat="43.55823" lon="4.49143">
        <ele>54.628</ele>
        <time>2019-04-30T08:30:40Z</time>
      </trkpt>
      <trkpt lat="43.5582" lon="4.49141">
        <ele>54.715</ele>
        <time>2019-04-30T08:30:51Z</time>
      </trkpt>
      <trkpt lat="43.55806" lon="4.49125">
        <ele>54.828</ele>
        <time>2019-04-30T08:31:02Z</time>
      </trkpt>
      <trkpt lat="43.55772" lon="4.49087">
        <ele>53.988</ele>
        <time>2019-04-30T08:31:13Z</time>
      </trkpt>
      <trkpt lat="43.55732" lon="4.49052">
        <ele>52.788</ele>
        <time>2019-04-30T08:31:24Z</time>
      </trkpt>
      <trkpt lat="43.55695" lon="4.49015">
        <ele>52.951</ele>
        <time>2019-04-30T08:31:34Z</time>
      </trkpt>
      <trkpt lat="43.55647" lon="4.48976">
        <ele>52.88</ele>
        <time>2019-04-30T08:31:45Z</time>
      </trkpt>
      <trkpt lat="43.55632" lon="4.48964">
        <ele>52.866</ele>
        <time>2019-04-30T08:31:56Z</time>
      </trkpt>
      <trkpt lat="43.55653" lon="4.48985">
        <ele>52.958</ele>
        <time>2019-04-30T08:32:06Z</time>
      </trkpt>
      <trkpt lat="43.55671" lon="4.48997">
        <ele>53.012</ele>
        <time>2019-04-30T08:32:16Z</time>
      </trkpt>
      <trkpt lat="43.55659" lon="4.48989">
        <ele>52.692</ele>
        <time>2019-04-30T08:32:27Z</time>
      </trkpt>
      <trkpt lat="43.55614" lon="4.48959">
        <ele>52.787</ele>
        <time>2019-04-30T08:32:38Z</time>
      </trkpt>
      <trkpt lat="43.55578" lon="4.48907">
        <ele>53.007</ele>
        <time>2019-04-30T08:32:49Z</time>
      </trkpt>
      <trkpt lat="43.55567" lon="4.48842">
        <ele>53.475</ele>
        <time>2019-04-30T08:33:00Z</time>
      </trkpt>
      <trkpt lat="43.55555" lon="4.48782">
        <ele>53.615</ele>
        <time>2019-04-30T08:33:10Z</time>
      </trkpt>
      <trkpt lat="43.55541" lon="4.48709">
        <ele>53.618</ele>
        <time>2019-04-30T08:33:21Z</time>
      </trkpt>
      <trkpt lat="43.55526" lon="4.48636">
        <ele>52.831</ele>
        <time>2019-04-30T08:33:32Z</time>
      </trkpt>
      <trkpt lat="43.55513" lon="4.48571">
        <ele>53.346</ele>
        <time>2019-04-30T08:33:42Z</time>
      </trkpt>
      <trkpt lat="43.55489" lon="4.48523">
        <ele>54.268</ele>
        <time>2019-04-30T08:33:52Z</time>
      </trkpt>
      <trkpt lat="43.55439" lon="4.48487">
        <ele>57.816</ele>
        <time>2019-04-30T08:34:03Z</time>
      </trkpt>
      <trkpt lat="43.55389" lon="4.48449">
        <ele>57.795</ele>
        <time>2019-04-30T08:34:13Z</time>
      </trkpt>
      <trkpt lat="43.55332" lon="4.48407">
        <ele>56.334</ele>
        <time>2019-04-30T08:34:24Z</time>
      </trkpt>
      <trkpt lat="43.55279" lon="4.4837">
        <ele>53.461</ele>
        <time>2019-04-30T08:34:34Z</time>
      </trkpt>
      <trkpt lat="43.55229" lon="4.48336">
        <ele>52.374</ele>
        <time>2019-04-30T08:34:44Z</time>
      </trkpt>
      <trkpt lat="43.55175" lon="4.48296">
        <ele>53.082</ele>
        <time>2019-04-30T08:34:55Z</time>
      </trkpt>
      <trkpt lat="43.55123" lon="4.48261">
        <ele>52.227</ele>
        <time>2019-04-30T08:35:06Z</time>
      </trkpt>
      <trkpt lat="43.55072" lon="4.4825">
        <ele>53.682</ele>
        <time>2019-04-30T08:35:16Z</time>
      </trkpt>
      <trkpt lat="43.5502" lon="4.48242">
        <ele>55.534</ele>
        <time>2019-04-30T08:35:26Z</time>
      </trkpt>
      <trkpt lat="43.54958" lon="4.48232">
        <ele>55.869</ele>
        <time>2019-04-30T08:35:37Z</time>
      </trkpt>
      <trkpt lat="43.54898" lon="4.48223">
        <ele>56.162</ele>
        <time>2019-04-30T08:35:47Z</time>
      </trkpt>
      <trkpt lat="43.54834" lon="4.48212">
        <ele>56.395</ele>
        <time>2019-04-30T08:35:57Z</time>
      </trkpt>
      <trkpt lat="43.54763" lon="4.48202">
        <ele>56.587</ele>
        <time>2019-04-30T08:36:08Z</time>
      </trkpt>
      <trkpt lat="43.54691" lon="4.48191">
        <ele>56.603</ele>
        <time>2019-04-30T08:36:19Z</time>
      </trkpt>
      <trkpt lat="43.54618" lon="4.48176">
        <ele>56.596</ele>
        <time>2019-04-30T08:36:30Z</time>
      </trkpt>
      <trkpt lat="43.5455" lon="4.48204">
        <ele>56.669</ele>
        <time>2019-04-30T08:36:41Z</time>
      </trkpt>
      <trkpt lat="43.54487" lon="4.48234">
        <ele>56.895</ele>
        <time>2019-04-30T08:36:52Z</time>
      </trkpt>
      <trkpt lat="43.54425" lon="4.48261">
        <ele>57.182</ele>
        <time>2019-04-30T08:37:03Z</time>
      </trkpt>
      <trkpt lat="43.54368" lon="4.48289">
        <ele>56.988</ele>
        <time>2019-04-30T08:37:14Z</time>
      </trkpt>
      <trkpt lat="43.54317" lon="4.48312">
        <ele>56.73</ele>
        <time>2019-04-30T08:37:24Z</time>
      </trkpt>
      <trkpt lat="43.54265" lon="4.48336">
        <ele>56.591</ele>
        <time>2019-04-30T08:37:34Z</time>
      </trkpt>
      <trkpt lat="43.54203" lon="4.48337">
        <ele>56.347</ele>
        <time>2019-04-30T08:37:45Z</time>
      </trkpt>
      <trkpt lat="43.54141" lon="4.48328">
        <ele>56.061</ele>
        <time>2019-04-30T08:37:56Z</time>
      </trkpt>
      <trkpt lat="43.54087" lon="4.48321">
        <ele>55.534</ele>
        <time>2019-04-30T08:38:07Z</time>
      </trkpt>
      <trkpt lat="43.54028" lon="4.48314">
        <ele>54.586</ele>
        <time>2019-04-30T08:38:18Z</time>
      </trkpt>
      <trkpt lat="43.5397" lon="4.48307">
        <ele>53.956</ele>
        <time>2019-04-30T08:38:28Z</time>
      </trkpt>
      <trkpt lat="43.53908" lon="4.48297">
        <ele>53.59</ele>
        <time>2019-04-30T08:38:39Z</time>
      </trkpt>
      <trkpt lat="43.53853" lon="4.4827">
        <ele>53.264</ele>
        <time>2019-04-30T08:38:49Z</time>
      </trkpt>
      <trkpt lat="43.5379" lon="4.4823">
        <ele>53.021</ele>
        <time>2019-04-30T08:39:00Z</time>
      </trkpt>
      <trkpt lat="43.53726" lon="4.48187">
        <ele>52.739</ele>
        <time>2019-04-30T08:39:11Z</time>
      </trkpt>
      <trkpt lat="43.5367" lon="4.48147">
        <ele>52.326</ele>
        <time>2019-04-30T08:39:21Z</time>
      </trkpt>
      <trkpt lat="43.53611" lon="4.48107">
        <ele>52.186</ele>
        <time>2019-04-30T08:39:32Z</time>
      </trkpt>
      <trkpt lat="43.53555" lon="4.48071">
        <ele>51.995</ele>
        <time>2019-04-30T08:39:42Z</time>
      </trkpt>
      <trkpt lat="43.53494" lon="4.48021">
        <ele>52.006</ele>
        <time>2019-04-30T08:39:53Z</time>
      </trkpt>
      <trkpt lat="43.5344" lon="4.47975">
        <ele>51.942</ele>
        <time>2019-04-30T08:40:03Z</time>
      </trkpt>
      <trkpt lat="43.53382" lon="4.47925">
        <ele>51.843</ele>
        <time>2019-04-30T08:40:14Z</time>
      </trkpt>
      <trkpt lat="43.53344" lon="4.47863">
        <ele>51.862</ele>
        <time>2019-04-30T08:40:25Z</time>
      </trkpt>
      <trkpt lat="43.53308" lon="4.47807">
        <ele>52.178</ele>
        <time>2019-04-30T08:40:35Z</time>
      </trkpt>
      <trkpt lat="43.53262" lon="4.47764">
        <ele>52.534</ele>
        <time>2019-04-30T08:40:45Z</time>
      </trkpt>
      <trkpt lat="43.53211" lon="4.47712">
        <ele>52.594</ele>
        <time>2019-04-30T08:40:56Z</time>
      </trkpt>
      <trkpt lat="43.53165" lon="4.47664">
        <ele>52.678</ele>
        <time>2019-04-30T08:41:06Z</time>
      </trkpt>
      <trkpt lat="43.53112" lon="4.4761">
        <ele>52.655</ele>
        <time>2019-04-30T08:41:17Z</time>
      </trkpt>
      <trkpt lat="43.53065" lon="4.47562">
        <ele>52.474</ele>
        <time>2019-04-30T08:41:27Z</time>
      </trkpt>
      <trkpt lat="43.53023" lon="4.47519">
        <ele>52.381</ele>
        <time>2019-04-30T08:41:37Z</time>
      </trkpt>
      <trkpt lat="43.52976" lon="4.47468">
        <ele>52.49</ele>
        <time>2019-04-30T08:41:48Z</time>
      </trkpt>
      <trkpt lat="43.52926" lon="4.47417">
        <ele>52.541</ele>
        <time>2019-04-30T08:41:59Z</time>
      </trkpt>
      <trkpt lat="43.52883" lon="4.4736">
        <ele>52.628</ele>
        <time>2019-04-30T08:42:10Z</time>
      </trkpt>
      <trkpt lat="43.52844" lon="4.4731">
        <ele>52.555</ele>
        <time>2019-04-30T08:42:20Z</time>
      </trkpt>
      <trkpt lat="43.52816" lon="4.47247">
        <ele>52.309</ele>
        <time>2019-04-30T08:42:31Z</time>
      </trkpt>
      <trkpt lat="43.5279" lon="4.47178">
        <ele>52.116</ele>
        <time>2019-04-30T08:42:42Z</time>
      </trkpt>
      <trkpt lat="43.52767" lon="4.47116">
        <ele>52.055</ele>
        <time>2019-04-30T08:42:52Z</time>
      </trkpt>
      <trkpt lat="43.52735" lon="4.47069">
        <ele>52.212</ele>
        <time>2019-04-30T08:43:03Z</time>
      </trkpt>
      <trkpt lat="43.52726" lon="4.47013">
        <ele>52.562</ele>
        <time>2019-04-30T08:43:13Z</time>
      </trkpt>
      <trkpt lat="43.52716" lon="4.46951">
        <ele>52.841</ele>
        <time>2019-04-30T08:43:24Z</time>
      </trkpt>
      <trkpt lat="43.52707" lon="4.46894">
        <ele>52.951</ele>
        <time>2019-04-30T08:43:34Z</time>
      </trkpt>
      <trkpt lat="43.52695" lon="4.46832">
        <ele>53.57</ele>
        <time>2019-04-30T08:43:45Z</time>
      </trkpt>
      <trkpt lat="43.52674" lon="4.46788">
        <ele>53.895</ele>
        <time>2019-04-30T08:43:55Z</time>
      </trkpt>
      <trkpt lat="43.52643" lon="4.46743">
        <ele>53.739</ele>
        <time>2019-04-30T08:44:06Z</time>
      </trkpt>
      <trkpt lat="43.52608" lon="4.46696">
        <ele>53.51</ele>
        <time>2019-04-30T08:44:16Z</time>
      </trkpt>
      <trkpt lat="43.52565" lon="4.46644">
        <ele>53.487</ele>
        <time>2019-04-30T08:44:27Z</time>
      </trkpt>
      <trkpt lat="43.52524" lon="4.4659">
        <ele>53.387</ele>
        <time>2019-04-30T08:44:38Z</time>
      </trkpt>
      <trkpt lat="43.52481" lon="4.46537">
        <ele>53.085</ele>
        <time>2019-04-30T08:44:49Z</time>
      </trkpt>
      <trkpt lat="43.52442" lon="4.46489">
        <ele>52.475</ele>
        <time>2019-04-30T08:44:59Z</time>
      </trkpt>
      <trkpt lat="43.52401" lon="4.46431">
        <ele>51.987</ele>
        <time>2019-04-30T08:45:10Z</time>
      </trkpt>
      <trkpt lat="43.52365" lon="4.46366">
        <ele>51.894</ele>
        <time>2019-04-30T08:45:21Z</time>
      </trkpt>
      <trkpt lat="43.52331" lon="4.46308">
        <ele>52.255</ele>
        <time>2019-04-30T08:45:31Z</time>
      </trkpt>
      <trkpt lat="43.52283" lon="4.46264">
        <ele>52.665</ele>
        <time>2019-04-30T08:45:42Z</time>
      </trkpt>
      <trkpt lat="43.52232" lon="4.46229">
        <ele>52.318</ele>
        <time>2019-04-30T08:45:53Z</time>
      </trkpt>
      <trkpt lat="43.52177" lon="4.46202">
        <ele>52.037</ele>
        <time>2019-04-30T08:46:04Z</time>
      </trkpt>
      <trkpt lat="43.52123" lon="4.46178">
        <ele>51.967</ele>
        <time>2019-04-30T08:46:14Z</time>
      </trkpt>
      <trkpt lat="43.52102" lon="4.46108">
        <ele>51.944</ele>
        <time>2019-04-30T08:46:25Z</time>
      </trkpt>
      <trkpt lat="43.52108" lon="4.46043">
        <ele>53.915</ele>
        <time>2019-04-30T08:46:36Z</time>
      </trkpt>
      <trkpt lat="43.52114" lon="4.45976">
        <ele>53.912</ele>
        <time>2019-04-30T08:46:47Z</time>
      </trkpt>
      <trkpt lat="43.52117" lon="4.45913">
        <ele>52.995</ele>
        <time>2019-04-30T08:46:57Z</time>
      </trkpt>
      <trkpt lat="43.52122" lon="4.45855">
        <ele>53.198</ele>
        <time>2019-04-30T08:47:08Z</time>
      </trkpt>
      <trkpt lat="43.52133" lon="4.45796">
        <ele>54.286</ele>
        <time>2019-04-30T08:47:19Z</time>
      </trkpt>
      <trkpt lat="43.5211" lon="4.45751">
        <ele>56.597</ele>
        <time>2019-04-30T08:47:30Z</time>
      </trkpt>
      <trkpt lat="43.52062" lon="4.45723">
        <ele>53.922</ele>
        <time>2019-04-30T08:47:41Z</time>
      </trkpt>
      <trkpt lat="43.52013" lon="4.45698">
        <ele>51.958</ele>
        <time>2019-04-30T08:47:51Z</time>
      </trkpt>
      <trkpt lat="43.51962" lon="4.45668">
        <ele>51.523</ele>
        <time>2019-04-30T08:48:02Z</time>
      </trkpt>
      <trkpt lat="43.51915" lon="4.4564">
        <ele>51.317</ele>
        <time>2019-04-30T08:48:12Z</time>
      </trkpt>
      <trkpt lat="43.51866" lon="4.45619">
        <ele>51.784</ele>
        <time>2019-04-30T08:48:22Z</time>
      </trkpt>
      <trkpt lat="43.51815" lon="4.45594">
        <ele>51.52</ele>
        <time>2019-04-30T08:48:33Z</time>
      </trkpt>
      <trkpt lat="43.51761" lon="4.45592">
        <ele>51.382</ele>
        <time>2019-04-30T08:48:44Z</time>
      </trkpt>
      <trkpt lat="43.51704" lon="4.45592">
        <ele>51.259</ele>
        <time>2019-04-30T08:48:55Z</time>
      </trkpt>
      <trkpt lat="43.51653" lon="4.45588">
        <ele>51.732</ele>
        <time>2019-04-30T08:49:06Z</time>
      </trkpt>
      <trkpt lat="43.51633" lon="4.45586">
        <ele>51.838</ele>
        <time>2019-04-30T08:49:16Z</time>
      </trkpt>
      <trkpt lat="43.51633" lon="4.45586">
        <ele>51.842</ele>
        <time>2019-04-30T08:49:27Z</time>
      </trkpt>
      <trkpt lat="43.51633" lon="4.45586">
        <ele>51.843</ele>
        <time>2019-04-30T08:49:38Z</time>
      </trkpt>
      <trkpt lat="43.51633" lon="4.45586">
        <ele>51.841</ele>
        <time>2019-04-30T08:49:49Z</time>
      </trkpt>
      <trkpt lat="43.51633" lon="4.45586">
        <ele>51.835</ele>
        <time>2019-04-30T08:49:59Z</time>
      </trkpt>
      <trkpt lat="43.51633" lon="4.45586">
        <ele>51.829</ele>
        <time>2019-04-30T08:50:10Z</time>
      </trkpt>
      <trkpt lat="43.51633" lon="4.45586">
        <ele>51.821</ele>
        <time>2019-04-30T08:50:20Z</time>
      </trkpt>
      <trkpt lat="43.51633" lon="4.45586">
        <ele>51.815</ele>
        <time>2019-04-30T08:50:31Z</time>
      </trkpt>
      <trkpt lat="43.51633" lon="4.45586">
        <ele>51.811</ele>
        <time>2019-04-30T08:50:41Z</time>
      </trkpt>
      <trkpt lat="43.51629" lon="4.45587">
        <ele>51.86</ele>
        <time>2019-04-30T08:50:51Z</time>
      </trkpt>
      <trkpt lat="43.51599" lon="4.45588">
        <ele>51.96</ele>
        <time>2019-04-30T08:51:02Z</time>
      </trkpt>
      <trkpt lat="43.51559" lon="4.45594">
        <ele>51.664</ele>
        <time>2019-04-30T08:51:12Z</time>
      </trkpt>
      <trkpt lat="43.51516" lon="4.45629">
        <ele>50.559</ele>
        <time>2019-04-30T08:51:23Z</time>
      </trkpt>
      <trkpt lat="43.51472" lon="4.45641">
        <ele>49.834</ele>
        <time>2019-04-30T08:51:33Z</time>
      </trkpt>
      <trkpt lat="43.51428" lon="4.45611">
        <ele>51.128</ele>
        <time>2019-04-30T08:51:44Z</time>
      </trkpt>
      <trkpt lat="43.51389" lon="4.45588">
        <ele>51.152</ele>
        <time>2019-04-30T08:51:55Z</time>
      </trkpt>
      <trkpt lat="43.51345" lon="4.45561">
        <ele>51.848</ele>
        <time>2019-04-30T08:52:06Z</time>
      </trkpt>
      <trkpt lat="43.51302" lon="4.45529">
        <ele>52.779</ele>
        <time>2019-04-30T08:52:17Z</time>
      </trkpt>
      <trkpt lat="43.51257" lon="4.455">
        <ele>52.515</ele>
        <time>2019-04-30T08:52:28Z</time>
      </trkpt>
      <trkpt lat="43.51211" lon="4.45475">
        <ele>52.685</ele>
        <time>2019-04-30T08:52:39Z</time>
      </trkpt>
      <trkpt lat="43.51162" lon="4.45456">
        <ele>52.718</ele>
        <time>2019-04-30T08:52:50Z</time>
      </trkpt>
      <trkpt lat="43.51111" lon="4.45437">
        <ele>51.199</ele>
        <time>2019-04-30T08:53:01Z</time>
      </trkpt>
      <trkpt lat="43.51063" lon="4.45398">
        <ele>51.361</ele>
        <time>2019-04-30T08:53:12Z</time>
      </trkpt>
      <trkpt lat="43.51023" lon="4.45357">
        <ele>51.954</ele>
        <time>2019-04-30T08:53:22Z</time>
      </trkpt>
      <trkpt lat="43.50987" lon="4.45301">
        <ele>52.743</ele>
        <time>2019-04-30T08:53:33Z</time>
      </trkpt>
      <trkpt lat="43.50953" lon="4.45239">
        <ele>53.622</ele>
        <time>2019-04-30T08:53:44Z</time>
      </trkpt>
      <trkpt lat="43.50925" lon="4.45183">
        <ele>51.301</ele>
        <time>2019-04-30T08:53:54Z</time>
      </trkpt>
      <trkpt lat="43.50895" lon="4.45129">
        <ele>50.634</ele>
        <time>2019-04-30T08:54:04Z</time>
      </trkpt>
      <trkpt lat="43.50863" lon="4.45071">
        <ele>52.354</ele>
        <time>2019-04-30T08:54:15Z</time>
      </trkpt>
      <trkpt lat="43.50833" lon="4.45015">
        <ele>51.922</ele>
        <time>2019-04-30T08:54:26Z</time>
      </trkpt>
      <trkpt lat="43.50788" lon="4.44995">
        <ele>50.895</ele>
        <time>2019-04-30T08:54:36Z</time>
      </trkpt>
      <trkpt lat="43.50745" lon="4.45007">
        <ele>51.715</ele>
        <time>2019-04-30T08:54:47Z</time>
      </trkpt>
      <trkpt lat="43.50714" lon="4.45048">
        <ele>51.776</ele>
        <time>2019-04-30T08:54:57Z</time>
      </trkpt>
      <trkpt lat="43.50676" lon="4.45049">
        <ele>50.513</ele>
        <time>2019-04-30T08:55:07Z</time>
      </trkpt>
      <trkpt lat="43.50649" lon="4.45039">
        <ele>50.015</ele>
        <time>2019-04-30T08:55:18Z</time>
      </trkpt>
      <trkpt lat="43.50649" lon="4.4504">
        <ele>50.033</ele>
        <time>2019-04-30T08:55:29Z</time>
      </trkpt>
      <trkpt lat="43.50649" lon="4.45041">
        <ele>50.06</ele>
        <time>2019-04-30T08:55:40Z</time>
      </trkpt>
      <trkpt lat="43.5065" lon="4.45044">
        <ele>50.595</ele>
        <time>2019-04-30T08:55:51Z</time>
      </trkpt>
      <trkpt lat="43.50651" lon="4.45044">
        <ele>50.702</ele>
        <time>2019-04-30T08:56:01Z</time>
      </trkpt>
      <trkpt lat="43.50651" lon="4.45043">
        <ele>50.585</ele>
        <time>2019-04-30T08:56:12Z</time>
      </trkpt>
      <trkpt lat="43.50649" lon="4.45042">
        <ele>50.628</ele>
        <time>2019-04-30T08:56:23Z</time>
      </trkpt>
      <trkpt lat="43.50648" lon="4.45039">
        <ele>50.606</ele>
        <time>2019-04-30T08:56:34Z</time>
      </trkpt>
      <trkpt lat="43.50648" lon="4.4504">
        <ele>50.703</ele>
        <time>2019-04-30T08:56:45Z</time>
      </trkpt>
      <trkpt lat="43.50649" lon="4.4504">
        <ele>50.866</ele>
        <time>2019-04-30T08:56:55Z</time>
      </trkpt>
      <trkpt lat="43.50648" lon="4.45037">
        <ele>50.974</ele>
        <time>2019-04-30T08:57:06Z</time>
      </trkpt>
      <trkpt lat="43.50648" lon="4.45038">
        <ele>50.994</ele>
        <time>2019-04-30T08:57:16Z</time>
      </trkpt>
      <trkpt lat="43.50648" lon="4.45038">
        <ele>50.999</ele>
        <time>2019-04-30T08:57:27Z</time>
      </trkpt>
      <trkpt lat="43.50648" lon="4.45038">
        <ele>50.946</ele>
        <time>2019-04-30T08:57:38Z</time>
      </trkpt>
      <trkpt lat="43.50649" lon="4.45041">
        <ele>50.884</ele>
        <time>2019-04-30T08:57:48Z</time>
      </trkpt>
      <trkpt lat="43.50649" lon="4.45041">
        <ele>50.868</ele>
        <time>2019-04-30T08:57:59Z</time>
      </trkpt>
      <trkpt lat="43.50649" lon="4.45041">
        <ele>50.838</ele>
        <time>2019-04-30T08:58:10Z</time>
      </trkpt>
      <trkpt lat="43.50649" lon="4.45041">
        <ele>50.818</ele>
        <time>2019-04-30T08:58:20Z</time>
      </trkpt>
      <trkpt lat="43.50649" lon="4.45041">
        <ele>50.814</ele>
        <time>2019-04-30T08:58:31Z</time>
      </trkpt>
      <trkpt lat="43.50648" lon="4.45041">
        <ele>50.964</ele>
        <time>2019-04-30T08:58:41Z</time>
      </trkpt>
      <trkpt lat="43.50643" lon="4.45038">
        <ele>51.081</ele>
        <time>2019-04-30T08:58:52Z</time>
      </trkpt>
      <trkpt lat="43.50624" lon="4.45026">
        <ele>51.102</ele>
        <time>2019-04-30T08:59:03Z</time>
      </trkpt>
      <trkpt lat="43.50602" lon="4.4502">
        <ele>51.093</ele>
        <time>2019-04-30T08:59:13Z</time>
      </trkpt>
      <trkpt lat="43.50565" lon="4.45004">
        <ele>50.625</ele>
        <time>2019-04-30T08:59:24Z</time>
      </trkpt>
      <trkpt lat="43.50532" lon="4.44991">
        <ele>50.703</ele>
        <time>2019-04-30T08:59:35Z</time>
      </trkpt>
      <trkpt lat="43.50501" lon="4.44978">
        <ele>50.748</ele>
        <time>2019-04-30T08:59:46Z</time>
      </trkpt>
      <trkpt lat="43.50466" lon="4.44967">
        <ele>50.799</ele>
        <time>2019-04-30T08:59:57Z</time>
      </trkpt>
      <trkpt lat="43.5043" lon="4.44953">
        <ele>51.308</ele>
        <time>2019-04-30T09:00:08Z</time>
      </trkpt>
      <trkpt lat="43.50386" lon="4.44935">
        <ele>51.142</ele>
        <time>2019-04-30T09:00:19Z</time>
      </trkpt>
      <trkpt lat="43.50344" lon="4.44923">
        <ele>51.252</ele>
        <time>2019-04-30T09:00:30Z</time>
      </trkpt>
      <trkpt lat="43.50304" lon="4.44907">
        <ele>52.221</ele>
        <time>2019-04-30T09:00:40Z</time>
      </trkpt>
      <trkpt lat="43.50254" lon="4.44897">
        <ele>53.158</ele>
        <time>2019-04-30T09:00:51Z</time>
      </trkpt>
      <trkpt lat="43.50207" lon="4.4491">
        <ele>53.615</ele>
        <time>2019-04-30T09:01:01Z</time>
      </trkpt>
      <trkpt lat="43.50157" lon="4.44921">
        <ele>52.534</ele>
        <time>2019-04-30T09:01:11Z</time>
      </trkpt>
      <trkpt lat="43.50108" lon="4.44934">
        <ele>51.826</ele>
        <time>2019-04-30T09:01:21Z</time>
      </trkpt>
      <trkpt lat="43.50071" lon="4.44945">
        <ele>51.563</ele>
        <time>2019-04-30T09:01:32Z</time>
      </trkpt>
      <trkpt lat="43.50071" lon="4.44945">
        <ele>51.545</ele>
        <time>2019-04-30T09:01:43Z</time>
      </trkpt>
      <trkpt lat="43.50069" lon="4.44945">
        <ele>51.464</ele>
        <time>2019-04-30T09:01:53Z</time>
      </trkpt>
      <trkpt lat="43.50066" lon="4.44943">
        <ele>51.51</ele>
        <time>2019-04-30T09:02:03Z</time>
      </trkpt>
      <trkpt lat="43.50024" lon="4.44953">
        <ele>52.514</ele>
        <time>2019-04-30T09:02:14Z</time>
      </trkpt>
      <trkpt lat="43.49975" lon="4.44966">
        <ele>52.108</ele>
        <time>2019-04-30T09:02:24Z</time>
      </trkpt>
      <trkpt lat="43.49919" lon="4.44978">
        <ele>53.065</ele>
        <time>2019-04-30T09:02:35Z</time>
      </trkpt>
      <trkpt lat="43.49863" lon="4.44993">
        <ele>52.404</ele>
        <time>2019-04-30T09:02:46Z</time>
      </trkpt>
      <trkpt lat="43.49809" lon="4.45005">
        <ele>52.228</ele>
        <time>2019-04-30T09:02:56Z</time>
      </trkpt>
      <trkpt lat="43.49767" lon="4.45013">
        <ele>51.598</ele>
        <time>2019-04-30T09:03:07Z</time>
      </trkpt>
      <trkpt lat="43.49731" lon="4.45022">
        <ele>51.555</ele>
        <time>2019-04-30T09:03:17Z</time>
      </trkpt>
      <trkpt lat="43.49722" lon="4.4505">
        <ele>51.553</ele>
        <time>2019-04-30T09:03:28Z</time>
      </trkpt>
      <trkpt lat="43.49726" lon="4.45065">
        <ele>51.681</ele>
        <time>2019-04-30T09:03:39Z</time>
      </trkpt>
      <trkpt lat="43.49726" lon="4.45065">
        <ele>51.679</ele>
        <time>2019-04-30T09:03:49Z</time>
      </trkpt>
      <trkpt lat="43.4972" lon="4.45086">
        <ele>51.451</ele>
        <time>2019-04-30T09:04:00Z</time>
      </trkpt>
      <trkpt lat="43.49716" lon="4.45116">
        <ele>51.189</ele>
        <time>2019-04-30T09:04:10Z</time>
      </trkpt>
      <trkpt lat="43.49707" lon="4.45154">
        <ele>50.905</ele>
        <time>2019-04-30T09:04:20Z</time>
      </trkpt>
      <trkpt lat="43.49699" lon="4.45189">
        <ele>50.562</ele>
        <time>2019-04-30T09:04:31Z</time>
      </trkpt>
      <trkpt lat="43.49693" lon="4.4521">
        <ele>50.258</ele>
        <time>2019-04-30T09:04:41Z</time>
      </trkpt>
      <trkpt lat="43.49686" lon="4.45231">
        <ele>50.082</ele>
        <time>2019-04-30T09:04:52Z</time>
      </trkpt>
      <trkpt lat="43.49678" lon="4.45264">
        <ele>49.97</ele>
        <time>2019-04-30T09:05:03Z</time>
      </trkpt>
      <trkpt lat="43.49674" lon="4.45266">
        <ele>49.721</ele>
        <time>2019-04-30T09:05:14Z</time>
      </trkpt>
      <trkpt lat="43.49683" lon="4.45243">
        <ele>49.411</ele>
        <time>2019-04-30T09:05:25Z</time>
      </trkpt>
      <trkpt lat="43.49692" lon="4.45215">
        <ele>49.757</ele>
        <time>2019-04-30T09:05:35Z</time>
      </trkpt>
      <trkpt lat="43.49701" lon="4.45177">
        <ele>50.489</ele>
        <time>2019-04-30T09:05:46Z</time>
      </trkpt>
      <trkpt lat="43.49712" lon="4.4514">
        <ele>50.895</ele>
        <time>2019-04-30T09:05:57Z</time>
      </trkpt>
      <trkpt lat="43.49719" lon="4.45103">
        <ele>50.976</ele>
        <time>2019-04-30T09:06:08Z</time>
      </trkpt>
      <trkpt lat="43.49725" lon="4.45069">
        <ele>50.729</ele>
        <time>2019-04-30T09:06:18Z</time>
      </trkpt>
      <trkpt lat="43.49721" lon="4.4503">
        <ele>50.116</ele>
        <time>2019-04-30T09:06:29Z</time>
      </trkpt>
      <trkpt lat="43.49692" lon="4.45032">
        <ele>50.424</ele>
        <time>2019-04-30T09:06:40Z</time>
      </trkpt>
      <trkpt lat="43.49648" lon="4.45043">
        <ele>49.46</ele>
        <time>2019-04-30T09:06:50Z</time>
      </trkpt>
      <trkpt lat="43.49596" lon="4.45055">
        <ele>48.416</ele>
        <time>2019-04-30T09:07:01Z</time>
      </trkpt>
      <trkpt lat="43.49546" lon="4.45067">
        <ele>48.861</ele>
        <time>2019-04-30T09:07:11Z</time>
      </trkpt>
      <trkpt lat="43.49491" lon="4.45082">
        <ele>48.088</ele>
        <time>2019-04-30T09:07:22Z</time>
      </trkpt>
      <trkpt lat="43.49437" lon="4.45105">
        <ele>48.49</ele>
        <time>2019-04-30T09:07:33Z</time>
      </trkpt>
      <trkpt lat="43.49383" lon="4.45134">
        <ele>47.689</ele>
        <time>2019-04-30T09:07:44Z</time>
      </trkpt>
      <trkpt lat="43.49343" lon="4.45106">
        <ele>47.412</ele>
        <time>2019-04-30T09:07:54Z</time>
      </trkpt>
      <trkpt lat="43.49306" lon="4.45066">
        <ele>48.174</ele>
        <time>2019-04-30T09:08:04Z</time>
      </trkpt>
      <trkpt lat="43.49268" lon="4.45031">
        <ele>48.774</ele>
        <time>2019-04-30T09:08:15Z</time>
      </trkpt>
      <trkpt lat="43.49234" lon="4.44983">
        <ele>49.656</ele>
        <time>2019-04-30T09:08:26Z</time>
      </trkpt>
      <trkpt lat="43.492" lon="4.44933">
        <ele>50.121</ele>
        <time>2019-04-30T09:08:37Z</time>
      </trkpt>
      <trkpt lat="43.49162" lon="4.44898">
        <ele>49.4</ele>
        <time>2019-04-30T09:08:47Z</time>
      </trkpt>
      <trkpt lat="43.49119" lon="4.44866">
        <ele>49.22</ele>
        <time>2019-04-30T09:08:58Z</time>
      </trkpt>
      <trkpt lat="43.49069" lon="4.44833">
        <ele>49.095</ele>
        <time>2019-04-30T09:09:09Z</time>
      </trkpt>
      <trkpt lat="43.49014" lon="4.44801">
        <ele>49.026</ele>
        <time>2019-04-30T09:09:20Z</time>
      </trkpt>
      <trkpt lat="43.48963" lon="4.44773">
        <ele>50.261</ele>
        <time>2019-04-30T09:09:30Z</time>
      </trkpt>
      <trkpt lat="43.48908" lon="4.4475">
        <ele>50.027</ele>
        <time>2019-04-30T09:09:41Z</time>
      </trkpt>
      <trkpt lat="43.4886" lon="4.44724">
        <ele>49.695</ele>
        <time>2019-04-30T09:09:51Z</time>
      </trkpt>
      <trkpt lat="43.48846" lon="4.44716">
        <ele>49.993</ele>
        <time>2019-04-30T09:10:02Z</time>
      </trkpt>
      <trkpt lat="43.48845" lon="4.44715">
        <ele>49.992</ele>
        <time>2019-04-30T09:10:12Z</time>
      </trkpt>
      <trkpt lat="43.48845" lon="4.44715">
        <ele>49.976</ele>
        <time>2019-04-30T09:10:23Z</time>
      </trkpt>
      <trkpt lat="43.48845" lon="4.44715">
        <ele>49.966</ele>
        <time>2019-04-30T09:10:34Z</time>
      </trkpt>
      <trkpt lat="43.48844" lon="4.44714">
        <ele>49.965</ele>
        <time>2019-04-30T09:10:45Z</time>
      </trkpt>
      <trkpt lat="43.48844" lon="4.44714">
        <ele>49.967</ele>
        <time>2019-04-30T09:10:56Z</time>
      </trkpt>
      <trkpt lat="43.48844" lon="4.44717">
        <ele>49.868</ele>
        <time>2019-04-30T09:11:07Z</time>
      </trkpt>
      <trkpt lat="43.48844" lon="4.44717">
        <ele>49.837</ele>
        <time>2019-04-30T09:11:17Z</time>
      </trkpt>
      <trkpt lat="43.48819" lon="4.44705">
        <ele>49.36</ele>
        <time>2019-04-30T09:11:28Z</time>
      </trkpt>
      <trkpt lat="43.48772" lon="4.44678">
        <ele>49.375</ele>
        <time>2019-04-30T09:11:39Z</time>
      </trkpt>
      <trkpt lat="43.4873" lon="4.44643">
        <ele>49.219</ele>
        <time>2019-04-30T09:11:49Z</time>
      </trkpt>
      <trkpt lat="43.4868" lon="4.44611">
        <ele>49.766</ele>
        <time>2019-04-30T09:12:00Z</time>
      </trkpt>
      <trkpt lat="43.48638" lon="4.44591">
        <ele>49.676</ele>
        <time>2019-04-30T09:12:10Z</time>
      </trkpt>
      <trkpt lat="43.48589" lon="4.44565">
        <ele>49.197</ele>
        <time>2019-04-30T09:12:21Z</time>
      </trkpt>
      <trkpt lat="43.48539" lon="4.44539">
        <ele>49.088</ele>
        <time>2019-04-30T09:12:32Z</time>
      </trkpt>
      <trkpt lat="43.48511" lon="4.44539">
        <ele>49.277</ele>
        <time>2019-04-30T09:12:43Z</time>
      </trkpt>
      <trkpt lat="43.48508" lon="4.4454">
        <ele>49.289</ele>
        <time>2019-04-30T09:12:53Z</time>
      </trkpt>
      <trkpt lat="43.48508" lon="4.44539">
        <ele>49.309</ele>
        <time>2019-04-30T09:13:04Z</time>
      </trkpt>
      <trkpt lat="43.48509" lon="4.44537">
        <ele>49.493</ele>
        <time>2019-04-30T09:13:14Z</time>
      </trkpt>
      <trkpt lat="43.48504" lon="4.44544">
        <ele>49.127</ele>
        <time>2019-04-30T09:13:24Z</time>
      </trkpt>
      <trkpt lat="43.48502" lon="4.44526">
        <ele>48.857</ele>
        <time>2019-04-30T09:13:35Z</time>
      </trkpt>
      <trkpt lat="43.48502" lon="4.44526">
        <ele>48.907</ele>
        <time>2019-04-30T09:13:45Z</time>
      </trkpt>
      <trkpt lat="43.48502" lon="4.44526">
        <ele>48.935</ele>
        <time>2019-04-30T09:13:56Z</time>
      </trkpt>
      <trkpt lat="43.48502" lon="4.44527">
        <ele>48.962</ele>
        <time>2019-04-30T09:14:07Z</time>
      </trkpt>
      <trkpt lat="43.48501" lon="4.44527">
        <ele>48.985</ele>
        <time>2019-04-30T09:14:18Z</time>
      </trkpt>
      <trkpt lat="43.48499" lon="4.44523">
        <ele>49.822</ele>
        <time>2019-04-30T09:14:29Z</time>
      </trkpt>
      <trkpt lat="43.48498" lon="4.44526">
        <ele>50.269</ele>
        <time>2019-04-30T09:14:40Z</time>
      </trkpt>
      <trkpt lat="43.48498" lon="4.44526">
        <ele>50.208</ele>
        <time>2019-04-30T09:14:51Z</time>
      </trkpt>
      <trkpt lat="43.48492" lon="4.44532">
        <ele>50.364</ele>
        <time>2019-04-30T09:15:01Z</time>
      </trkpt>
      <trkpt lat="43.48452" lon="4.44542">
        <ele>48.538</ele>
        <time>2019-04-30T09:15:12Z</time>
      </trkpt>
      <trkpt lat="43.48403" lon="4.44541">
        <ele>49.068</ele>
        <time>2019-04-30T09:15:22Z</time>
      </trkpt>
      <trkpt lat="43.48357" lon="4.44524">
        <ele>51.226</ele>
        <time>2019-04-30T09:15:32Z</time>
      </trkpt>
      <trkpt lat="43.4831" lon="4.44506">
        <ele>52.465</ele>
        <time>2019-04-30T09:15:42Z</time>
      </trkpt>
      <trkpt lat="43.48258" lon="4.44461">
        <ele>50.542</ele>
        <time>2019-04-30T09:15:53Z</time>
      </trkpt>
      <trkpt lat="43.48205" lon="4.44413">
        <ele>49.402</ele>
        <time>2019-04-30T09:16:04Z</time>
      </trkpt>
      <trkpt lat="43.48154" lon="4.44369">
        <ele>49.8</ele>
        <time>2019-04-30T09:16:14Z</time>
      </trkpt>
      <trkpt lat="43.48097" lon="4.44319">
        <ele>50.326</ele>
        <time>2019-04-30T09:16:25Z</time>
      </trkpt>
      <trkpt lat="43.48046" lon="4.44273">
        <ele>50.228</ele>
        <time>2019-04-30T09:16:35Z</time>
      </trkpt>
      <trkpt lat="43.47996" lon="4.44224">
        <ele>49.619</ele>
        <time>2019-04-30T09:16:45Z</time>
      </trkpt>
      <trkpt lat="43.47942" lon="4.4417">
        <ele>49.949</ele>
        <time>2019-04-30T09:16:56Z</time>
      </trkpt>
      <trkpt lat="43.47898" lon="4.44132">
        <ele>50.844</ele>
        <time>2019-04-30T09:17:07Z</time>
      </trkpt>
      <trkpt lat="43.4789" lon="4.44135">
        <ele>51.829</ele>
        <time>2019-04-30T09:17:18Z</time>
      </trkpt>
      <trkpt lat="43.47893" lon="4.44137">
        <ele>51.839</ele>
        <time>2019-04-30T09:17:28Z</time>
      </trkpt>
      <trkpt lat="43.47891" lon="4.44129">
        <ele>51.435</ele>
        <time>2019-04-30T09:17:39Z</time>
      </trkpt>
      <trkpt lat="43.47868" lon="4.44095">
        <ele>50.875</ele>
        <time>2019-04-30T09:17:50Z</time>
      </trkpt>
      <trkpt lat="43.47833" lon="4.4406">
        <ele>50.829</ele>
        <time>2019-04-30T09:18:00Z</time>
      </trkpt>
      <trkpt lat="43.47788" lon="4.44017">
        <ele>51.579</ele>
        <time>2019-04-30T09:18:11Z</time>
      </trkpt>
      <trkpt lat="43.47748" lon="4.43973">
        <ele>51.507</ele>
        <time>2019-04-30T09:18:21Z</time>
      </trkpt>
      <trkpt lat="43.47714" lon="4.43943">
        <ele>52.232</ele>
        <time>2019-04-30T09:18:31Z</time>
      </trkpt>
      <trkpt lat="43.47706" lon="4.43934">
        <ele>51.987</ele>
        <time>2019-04-30T09:18:42Z</time>
      </trkpt>
      <trkpt lat="43.47671" lon="4.439">
        <ele>50.181</ele>
        <time>2019-04-30T09:18:52Z</time>
      </trkpt>
      <trkpt lat="43.47624" lon="4.43851">
        <ele>49.883</ele>
        <time>2019-04-30T09:19:03Z</time>
      </trkpt>
      <trkpt lat="43.4758" lon="4.43809">
        <ele>49.998</ele>
        <time>2019-04-30T09:19:13Z</time>
      </trkpt>
      <trkpt lat="43.47531" lon="4.43762">
        <ele>49.499</ele>
        <time>2019-04-30T09:19:24Z</time>
      </trkpt>
      <trkpt lat="43.47487" lon="4.43714">
        <ele>50.382</ele>
        <time>2019-04-30T09:19:34Z</time>
      </trkpt>
      <trkpt lat="43.4743" lon="4.43684">
        <ele>50.95</ele>
        <time>2019-04-30T09:19:44Z</time>
      </trkpt>
      <trkpt lat="43.47369" lon="4.43664">
        <ele>52.208</ele>
        <time>2019-04-30T09:19:54Z</time>
      </trkpt>
      <trkpt lat="43.47297" lon="4.43646">
        <ele>52.174</ele>
        <time>2019-04-30T09:20:05Z</time>
      </trkpt>
      <trkpt lat="43.47222" lon="4.43627">
        <ele>51.258</ele>
        <time>2019-04-30T09:20:16Z</time>
      </trkpt>
      <trkpt lat="43.47145" lon="4.43607">
        <ele>50.403</ele>
        <time>2019-04-30T09:20:27Z</time>
      </trkpt>
      <trkpt lat="43.47065" lon="4.43586">
        <ele>49.759</ele>
        <time>2019-04-30T09:20:38Z</time>
      </trkpt>
      <trkpt lat="43.47014" lon="4.4357">
        <ele>49.581</ele>
        <time>2019-04-30T09:20:48Z</time>
      </trkpt>
      <trkpt lat="43.47014" lon="4.4357">
        <ele>49.581</ele>
        <time>2019-04-30T09:20:59Z</time>
      </trkpt>
      <trkpt lat="43.47014" lon="4.4357">
        <ele>49.572</ele>
        <time>2019-04-30T09:21:10Z</time>
      </trkpt>
      <trkpt lat="43.47014" lon="4.4357">
        <ele>49.557</ele>
        <time>2019-04-30T09:21:21Z</time>
      </trkpt>
      <trkpt lat="43.47014" lon="4.4357">
        <ele>49.538</ele>
        <time>2019-04-30T09:21:31Z</time>
      </trkpt>
      <trkpt lat="43.47014" lon="4.4357">
        <ele>49.513</ele>
        <time>2019-04-30T09:21:42Z</time>
      </trkpt>
      <trkpt lat="43.47014" lon="4.4357">
        <ele>49.486</ele>
        <time>2019-04-30T09:21:53Z</time>
      </trkpt>
      <trkpt lat="43.47014" lon="4.4357">
        <ele>49.46</ele>
        <time>2019-04-30T09:22:03Z</time>
      </trkpt>
      <trkpt lat="43.47014" lon="4.4357">
        <ele>49.433</ele>
        <time>2019-04-30T09:22:14Z</time>
      </trkpt>
      <trkpt lat="43.47012" lon="4.43571">
        <ele>49.354</ele>
        <time>2019-04-30T09:22:24Z</time>
      </trkpt>
      <trkpt lat="43.4699" lon="4.43563">
        <ele>49.18</ele>
        <time>2019-04-30T09:22:34Z</time>
      </trkpt>
      <trkpt lat="43.46948" lon="4.43541">
        <ele>48.543</ele>
        <time>2019-04-30T09:22:44Z</time>
      </trkpt>
      <trkpt lat="43.46894" lon="4.43515">
        <ele>48.438</ele>
        <time>2019-04-30T09:22:55Z</time>
      </trkpt>
      <trkpt lat="43.46842" lon="4.4349">
        <ele>48.415</ele>
        <time>2019-04-30T09:23:05Z</time>
      </trkpt>
      <trkpt lat="43.46777" lon="4.43474">
        <ele>48.541</ele>
        <time>2019-04-30T09:23:16Z</time>
      </trkpt>
      <trkpt lat="43.46706" lon="4.4347">
        <ele>48.645</ele>
        <time>2019-04-30T09:23:27Z</time>
      </trkpt>
      <trkpt lat="43.46632" lon="4.43465">
        <ele>48.535</ele>
        <time>2019-04-30T09:23:38Z</time>
      </trkpt>
      <trkpt lat="43.46565" lon="4.4346">
        <ele>48.294</ele>
        <time>2019-04-30T09:23:48Z</time>
      </trkpt>
      <trkpt lat="43.46495" lon="4.43455">
        <ele>48.027</ele>
        <time>2019-04-30T09:23:59Z</time>
      </trkpt>
      <trkpt lat="43.4643" lon="4.43452">
        <ele>47.753</ele>
        <time>2019-04-30T09:24:09Z</time>
      </trkpt>
      <trkpt lat="43.46359" lon="4.43444">
        <ele>47.545</ele>
        <time>2019-04-30T09:24:20Z</time>
      </trkpt>
      <trkpt lat="43.46327" lon="4.43449">
        <ele>47.485</ele>
        <time>2019-04-30T09:24:31Z</time>
      </trkpt>
      <trkpt lat="43.4633" lon="4.43449">
        <ele>47.472</ele>
        <time>2019-04-30T09:24:42Z</time>
      </trkpt>
      <trkpt lat="43.46327" lon="4.43448">
        <ele>47.489</ele>
        <time>2019-04-30T09:24:53Z</time>
      </trkpt>
      <trkpt lat="43.46327" lon="4.43448">
        <ele>47.681</ele>
        <time>2019-04-30T09:25:04Z</time>
      </trkpt>
      <trkpt lat="43.46327" lon="4.43448">
        <ele>47.746</ele>
        <time>2019-04-30T09:25:14Z</time>
      </trkpt>
      <trkpt lat="43.46319" lon="4.43443">
        <ele>47.81</ele>
        <time>2019-04-30T09:25:24Z</time>
      </trkpt>
      <trkpt lat="43.46293" lon="4.43427">
        <ele>47.859</ele>
        <time>2019-04-30T09:25:34Z</time>
      </trkpt>
      <trkpt lat="43.46237" lon="4.43421">
        <ele>48.357</ele>
        <time>2019-04-30T09:25:45Z</time>
      </trkpt>
      <trkpt lat="43.4617" lon="4.4341">
        <ele>48.874</ele>
        <time>2019-04-30T09:25:56Z</time>
      </trkpt>
      <trkpt lat="43.46106" lon="4.43398">
        <ele>49.466</ele>
        <time>2019-04-30T09:26:06Z</time>
      </trkpt>
      <trkpt lat="43.46035" lon="4.43388">
        <ele>50.209</ele>
        <time>2019-04-30T09:26:17Z</time>
      </trkpt>
      <trkpt lat="43.45964" lon="4.4336">
        <ele>49.898</ele>
        <time>2019-04-30T09:26:28Z</time>
      </trkpt>
      <trkpt lat="43.45902" lon="4.43314">
        <ele>49.899</ele>
        <time>2019-04-30T09:26:39Z</time>
      </trkpt>
      <trkpt lat="43.45839" lon="4.43276">
        <ele>49.761</ele>
        <time>2019-04-30T09:26:50Z</time>
      </trkpt>
      <trkpt lat="43.45763" lon="4.43252">
        <ele>49.732</ele>
        <time>2019-04-30T09:27:02Z</time>
      </trkpt>
      <trkpt lat="43.45699" lon="4.43233">
        <ele>50.522</ele>
        <time>2019-04-30T09:27:12Z</time>
      </trkpt>
      <trkpt lat="43.45643" lon="4.43189">
        <ele>50.369</ele>
        <time>2019-04-30T09:27:23Z</time>
      </trkpt>
      <trkpt lat="43.45591" lon="4.43141">
        <ele>51.374</ele>
        <time>2019-04-30T09:27:33Z</time>
      </trkpt>
      <trkpt lat="43.45542" lon="4.43096">
        <ele>51.296</ele>
        <time>2019-04-30T09:27:43Z</time>
      </trkpt>
      <trkpt lat="43.45482" lon="4.4307">
        <ele>51.544</ele>
        <time>2019-04-30T09:27:54Z</time>
      </trkpt>
      <trkpt lat="43.45421" lon="4.43053">
        <ele>52.003</ele>
        <time>2019-04-30T09:28:05Z</time>
      </trkpt>
      <trkpt lat="43.45372" lon="4.43016">
        <ele>52.952</ele>
        <time>2019-04-30T09:28:16Z</time>
      </trkpt>
      <trkpt lat="43.4534" lon="4.42971">
        <ele>53.923</ele>
        <time>2019-04-30T09:28:26Z</time>
      </trkpt>
      <trkpt lat="43.45295" lon="4.42936">
        <ele>54.534</ele>
        <time>2019-04-30T09:28:37Z</time>
      </trkpt>
      <trkpt lat="43.45242" lon="4.42912">
        <ele>53.986</ele>
        <time>2019-04-30T09:28:48Z</time>
      </trkpt>
      <trkpt lat="43.45215" lon="4.42883">
        <ele>53.786</ele>
        <time>2019-04-30T09:28:59Z</time>
      </trkpt>
      <trkpt lat="43.45223" lon="4.42846">
        <ele>53.677</ele>
        <time>2019-04-30T09:29:10Z</time>
      </trkpt>
      <trkpt lat="43.45211" lon="4.42836">
        <ele>53.518</ele>
        <time>2019-04-30T09:29:20Z</time>
      </trkpt>
      <trkpt lat="43.45203" lon="4.42827">
        <ele>53.308</ele>
        <time>2019-04-30T09:29:30Z</time>
      </trkpt>
      <trkpt lat="43.45197" lon="4.42826">
        <ele>53.442</ele>
        <time>2019-04-30T09:29:40Z</time>
      </trkpt>
      <trkpt lat="43.45187" lon="4.42813">
        <ele>53.991</ele>
        <time>2019-04-30T09:29:51Z</time>
      </trkpt>
      <trkpt lat="43.45173" lon="4.42814">
        <ele>54.026</ele>
        <time>2019-04-30T09:30:02Z</time>
      </trkpt>
      <trkpt lat="43.45149" lon="4.42805">
        <ele>53.872</ele>
        <time>2019-04-30T09:30:13Z</time>
      </trkpt>
      <trkpt lat="43.4515" lon="4.42777">
        <ele>53.753</ele>
        <time>2019-04-30T09:30:24Z</time>
      </trkpt>
      <trkpt lat="43.45138" lon="4.42762">
        <ele>54.358</ele>
        <time>2019-04-30T09:30:35Z</time>
      </trkpt>
      <trkpt lat="43.45138" lon="4.42762">
        <ele>55.3</ele>
        <time>2019-04-30T09:30:45Z</time>
      </trkpt>
      <trkpt lat="43.45135" lon="4.42757">
        <ele>56.087</ele>
        <time>2019-04-30T09:30:56Z</time>
      </trkpt>
      <trkpt lat="43.45127" lon="4.42764">
        <ele>56.725</ele>
        <time>2019-04-30T09:31:06Z</time>
      </trkpt>
      <trkpt lat="43.45121" lon="4.42775">
        <ele>57.442</ele>
        <time>2019-04-30T09:31:17Z</time>
      </trkpt>
      <trkpt lat="43.45117" lon="4.42787">
        <ele>58.13</ele>
        <time>2019-04-30T09:31:27Z</time>
      </trkpt>
      <trkpt lat="43.45111" lon="4.42796">
        <ele>58.446</ele>
        <time>2019-04-30T09:31:38Z</time>
      </trkpt>
      <trkpt lat="43.4511" lon="4.42803">
        <ele>58.329</ele>
        <time>2019-04-30T09:31:49Z</time>
      </trkpt>
      <trkpt lat="43.45108" lon="4.42816">
        <ele>58.118</ele>
        <time>2019-04-30T09:31:59Z</time>
      </trkpt>
      <trkpt lat="43.45108" lon="4.42822">
        <ele>57.897</ele>
        <time>2019-04-30T09:32:09Z</time>
      </trkpt>
      <trkpt lat="43.45112" lon="4.42825">
        <ele>58.047</ele>
        <time>2019-04-30T09:32:20Z</time>
      </trkpt>
      <trkpt lat="43.45115" lon="4.42826">
        <ele>58.534</ele>
        <time>2019-04-30T09:32:30Z</time>
      </trkpt>
      <trkpt lat="43.45115" lon="4.42826">
        <ele>58.95</ele>
        <time>2019-04-30T09:32:41Z</time>
      </trkpt>
      <trkpt lat="43.45118" lon="4.42832">
        <ele>59.059</ele>
        <time>2019-04-30T09:32:52Z</time>
      </trkpt>
      <trkpt lat="43.4512" lon="4.42838">
        <ele>59.135</ele>
        <time>2019-04-30T09:33:02Z</time>
      </trkpt>
      <trkpt lat="43.4512" lon="4.42839">
        <ele>59.246</ele>
        <time>2019-04-30T09:33:13Z</time>
      </trkpt>
      <trkpt lat="43.45121" lon="4.42839">
        <ele>59.4</ele>
        <time>2019-04-30T09:33:23Z</time>
      </trkpt>
      <trkpt lat="43.45121" lon="4.42839">
        <ele>59.591</ele>
        <time>2019-04-30T09:33:33Z</time>
      </trkpt>
      <trkpt lat="43.45121" lon="4.42839">
        <ele>59.787</ele>
        <time>2019-04-30T09:33:44Z</time>
      </trkpt>
      <trkpt lat="43.45122" lon="4.42839">
        <ele>59.954</ele>
        <time>2019-04-30T09:33:55Z</time>
      </trkpt>
      <trkpt lat="43.45122" lon="4.42839">
        <ele>60.109</ele>
        <time>2019-04-30T09:34:05Z</time>
      </trkpt>
      <trkpt lat="43.45123" lon="4.42838">
        <ele>60.703</ele>
        <time>2019-04-30T09:34:16Z</time>
      </trkpt>
      <trkpt lat="43.45124" lon="4.42836">
        <ele>60.817</ele>
        <time>2019-04-30T09:34:27Z</time>
      </trkpt>
      <trkpt lat="43.45124" lon="4.42836">
        <ele>60.869</ele>
        <time>2019-04-30T09:34:37Z</time>
      </trkpt>
      <trkpt lat="43.45124" lon="4.42836">
        <ele>60.992</ele>
        <time>2019-04-30T09:34:48Z</time>
      </trkpt>
      <trkpt lat="43.45125" lon="4.42836">
        <ele>61.06</ele>
        <time>2019-04-30T09:34:58Z</time>
      </trkpt>
      <trkpt lat="43.45125" lon="4.42836">
        <ele>61.168</ele>
        <time>2019-04-30T09:35:09Z</time>
      </trkpt>
      <trkpt lat="43.45125" lon="4.42836">
        <ele>61.265</ele>
        <time>2019-04-30T09:35:19Z</time>
      </trkpt>
      <trkpt lat="43.45125" lon="4.42837">
        <ele>61.32</ele>
        <time>2019-04-30T09:35:29Z</time>
      </trkpt>
      <trkpt lat="43.45125" lon="4.42837">
        <ele>61.324</ele>
        <time>2019-04-30T09:35:40Z</time>
      </trkpt>
      <trkpt lat="43.45124" lon="4.42836">
        <ele>61.306</ele>
        <time>2019-04-30T09:35:51Z</time>
      </trkpt>
      <trkpt lat="43.45124" lon="4.42836">
        <ele>61.263</ele>
        <time>2019-04-30T09:36:01Z</time>
      </trkpt>
      <trkpt lat="43.45124" lon="4.42836">
        <ele>61.225</ele>
        <time>2019-04-30T09:36:12Z</time>
      </trkpt>
      <trkpt lat="43.45124" lon="4.42836">
        <ele>61.191</ele>
        <time>2019-04-30T09:36:23Z</time>
      </trkpt>
      <trkpt lat="43.45124" lon="4.42835">
        <ele>60.986</ele>
        <time>2019-04-30T09:36:34Z</time>
      </trkpt>
      <trkpt lat="43.45125" lon="4.42835">
        <ele>60.922</ele>
        <time>2019-04-30T09:36:44Z</time>
      </trkpt>
      <trkpt lat="43.45125" lon="4.42835">
        <ele>60.828</ele>
        <time>2019-04-30T09:36:55Z</time>
      </trkpt>
      <trkpt lat="43.45124" lon="4.42834">
        <ele>60.685</ele>
        <time>2019-04-30T09:37:05Z</time>
      </trkpt>
      <trkpt lat="43.45124" lon="4.42833">
        <ele>60.447</ele>
        <time>2019-04-30T09:37:15Z</time>
      </trkpt>
      <trkpt lat="43.45124" lon="4.42833">
        <ele>60.324</ele>
        <time>2019-04-30T09:37:26Z</time>
      </trkpt>
      <trkpt lat="43.45125" lon="4.42832">
        <ele>60.214</ele>
        <time>2019-04-30T09:37:37Z</time>
      </trkpt>
      <trkpt lat="43.45125" lon="4.42832">
        <ele>60.406</ele>
        <time>2019-04-30T09:37:47Z</time>
      </trkpt>
      <trkpt lat="43.45125" lon="4.42832">
        <ele>60.57</ele>
        <time>2019-04-30T09:37:58Z</time>
      </trkpt>
      <trkpt lat="43.45126" lon="4.42832">
        <ele>60.714</ele>
        <time>2019-04-30T09:38:08Z</time>
      </trkpt>
      <trkpt lat="43.45128" lon="4.42833">
        <ele>60.812</ele>
        <time>2019-04-30T09:38:19Z</time>
      </trkpt>
      <trkpt lat="43.4514" lon="4.4284">
        <ele>61.56</ele>
        <time>2019-04-30T09:38:29Z</time>
      </trkpt>
      <trkpt lat="43.45153" lon="4.42846">
        <ele>62.541</ele>
        <time>2019-04-30T09:38:39Z</time>
      </trkpt>
      <trkpt lat="43.45152" lon="4.42863">
        <ele>63.334</ele>
        <time>2019-04-30T09:38:50Z</time>
      </trkpt>
      <trkpt lat="43.45151" lon="4.42878">
        <ele>63.472</ele>
        <time>2019-04-30T09:39:00Z</time>
      </trkpt>
      <trkpt lat="43.45147" lon="4.42899">
        <ele>63.677</ele>
        <time>2019-04-30T09:39:11Z</time>
      </trkpt>
      <trkpt lat="43.45147" lon="4.429">
        <ele>63.557</ele>
        <time>2019-04-30T09:39:21Z</time>
      </trkpt>
      <trkpt lat="43.45147" lon="4.429">
        <ele>63.386</ele>
        <time>2019-04-30T09:39:32Z</time>
      </trkpt>
      <trkpt lat="43.45147" lon="4.429">
        <ele>63.212</ele>
        <time>2019-04-30T09:39:43Z</time>
      </trkpt>
      <trkpt lat="43.45147" lon="4.429">
        <ele>63.093</ele>
        <time>2019-04-30T09:39:54Z</time>
      </trkpt>
      <trkpt lat="43.45154" lon="4.42898">
        <ele>62.406</ele>
        <time>2019-04-30T09:40:04Z</time>
      </trkpt>
      <trkpt lat="43.45159" lon="4.4289">
        <ele>61.834</ele>
        <time>2019-04-30T09:40:14Z</time>
      </trkpt>
      <trkpt lat="43.45163" lon="4.42881">
        <ele>61.21</ele>
        <time>2019-04-30T09:40:25Z</time>
      </trkpt>
      <trkpt lat="43.45163" lon="4.42881">
        <ele>61.174</ele>
        <time>2019-04-30T09:40:35Z</time>
      </trkpt>
      <trkpt lat="43.45164" lon="4.42881">
        <ele>61.182</ele>
        <time>2019-04-30T09:40:46Z</time>
      </trkpt>
      <trkpt lat="43.45165" lon="4.42881">
        <ele>61.3</ele>
        <time>2019-04-30T09:40:56Z</time>
      </trkpt>
      <trkpt lat="43.45165" lon="4.42881">
        <ele>61.376</ele>
        <time>2019-04-30T09:41:07Z</time>
      </trkpt>
      <trkpt lat="43.45166" lon="4.42881">
        <ele>61.469</ele>
        <time>2019-04-30T09:41:17Z</time>
      </trkpt>
      <trkpt lat="43.45166" lon="4.4288">
        <ele>61.604</ele>
        <time>2019-04-30T09:41:28Z</time>
      </trkpt>
      <trkpt lat="43.45167" lon="4.42881">
        <ele>61.744</ele>
        <time>2019-04-30T09:41:38Z</time>
      </trkpt>
      <trkpt lat="43.45167" lon="4.42881">
        <ele>61.857</ele>
        <time>2019-04-30T09:41:48Z</time>
      </trkpt>
      <trkpt lat="43.45167" lon="4.42881">
        <ele>61.969</ele>
        <time>2019-04-30T09:41:58Z</time>
      </trkpt>
      <trkpt lat="43.45168" lon="4.42881">
        <ele>62.086</ele>
        <time>2019-04-30T09:42:08Z</time>
      </trkpt>
      <trkpt lat="43.45168" lon="4.42881">
        <ele>62.18</ele>
        <time>2019-04-30T09:42:19Z</time>
      </trkpt>
      <trkpt lat="43.45168" lon="4.42881">
        <ele>62.298</ele>
        <time>2019-04-30T09:42:29Z</time>
      </trkpt>
      <trkpt lat="43.45168" lon="4.4288">
        <ele>62.33</ele>
        <time>2019-04-30T09:42:40Z</time>
      </trkpt>
      <trkpt lat="43.45169" lon="4.4288">
        <ele>62.34</ele>
        <time>2019-04-30T09:42:51Z</time>
      </trkpt>
      <trkpt lat="43.45169" lon="4.42879">
        <ele>62.384</ele>
        <time>2019-04-30T09:43:02Z</time>
      </trkpt>
      <trkpt lat="43.45169" lon="4.42881">
        <ele>62.561</ele>
        <time>2019-04-30T09:43:13Z</time>
      </trkpt>
      <trkpt lat="43.45167" lon="4.42893">
        <ele>61.861</ele>
        <time>2019-04-30T09:43:23Z</time>
      </trkpt>
      <trkpt lat="43.45171" lon="4.42902">
        <ele>60.388</ele>
        <time>2019-04-30T09:43:34Z</time>
      </trkpt>
      <trkpt lat="43.45154" lon="4.42901">
        <ele>58.539</ele>
        <time>2019-04-30T09:43:44Z</time>
      </trkpt>
      <trkpt lat="43.45147" lon="4.42897">
        <ele>57.701</ele>
        <time>2019-04-30T09:43:55Z</time>
      </trkpt>
      <trkpt lat="43.4514" lon="4.42898">
        <ele>57.479</ele>
        <time>2019-04-30T09:44:06Z</time>
      </trkpt>
      <trkpt lat="43.45139" lon="4.42896">
        <ele>57.333</ele>
        <time>2019-04-30T09:44:17Z</time>
      </trkpt>
      <trkpt lat="43.45142" lon="4.42894">
        <ele>56.71</ele>
        <time>2019-04-30T09:44:28Z</time>
      </trkpt>
      <trkpt lat="43.45145" lon="4.42895">
        <ele>56.439</ele>
        <time>2019-04-30T09:44:38Z</time>
      </trkpt>
      <trkpt lat="43.45142" lon="4.42893">
        <ele>55.727</ele>
        <time>2019-04-30T09:44:48Z</time>
      </trkpt>
      <trkpt lat="43.4514" lon="4.42896">
        <ele>55.225</ele>
        <time>2019-04-30T09:44:59Z</time>
      </trkpt>
      <trkpt lat="43.4514" lon="4.42896">
        <ele>55.098</ele>
        <time>2019-04-30T09:45:10Z</time>
      </trkpt>
      <trkpt lat="43.4514" lon="4.42896">
        <ele>55.003</ele>
        <time>2019-04-30T09:45:21Z</time>
      </trkpt>
      <trkpt lat="43.45141" lon="4.42896">
        <ele>55.023</ele>
        <time>2019-04-30T09:45:32Z</time>
      </trkpt>
      <trkpt lat="43.4514" lon="4.42897">
        <ele>55.075</ele>
        <time>2019-04-30T09:45:43Z</time>
      </trkpt>
      <trkpt lat="43.4514" lon="4.42897">
        <ele>55.12</ele>
        <time>2019-04-30T09:45:54Z</time>
      </trkpt>
      <trkpt lat="43.4514" lon="4.42897">
        <ele>55.166</ele>
        <time>2019-04-30T09:46:05Z</time>
      </trkpt>
      <trkpt lat="43.45139" lon="4.42898">
        <ele>55.241</ele>
        <time>2019-04-30T09:46:16Z</time>
      </trkpt>
      <trkpt lat="43.45138" lon="4.42899">
        <ele>55.335</ele>
        <time>2019-04-30T09:46:27Z</time>
      </trkpt>
      <trkpt lat="43.45138" lon="4.429">
        <ele>55.502</ele>
        <time>2019-04-30T09:46:38Z</time>
      </trkpt>
      <trkpt lat="43.45138" lon="4.42901">
        <ele>55.758</ele>
        <time>2019-04-30T09:46:49Z</time>
      </trkpt>
      <trkpt lat="43.45138" lon="4.42901">
        <ele>55.999</ele>
        <time>2019-04-30T09:47:00Z</time>
      </trkpt>
      <trkpt lat="43.45138" lon="4.42901">
        <ele>56.185</ele>
        <time>2019-04-30T09:47:11Z</time>
      </trkpt>
      <trkpt lat="43.45138" lon="4.42901">
        <ele>56.261</ele>
        <time>2019-04-30T09:47:22Z</time>
      </trkpt>
      <trkpt lat="43.45138" lon="4.42901">
        <ele>56.319</ele>
        <time>2019-04-30T09:47:33Z</time>
      </trkpt>
      <trkpt lat="43.45138" lon="4.42901">
        <ele>56.427</ele>
        <time>2019-04-30T09:47:44Z</time>
      </trkpt>
      <trkpt lat="43.45138" lon="4.42901">
        <ele>56.538</ele>
        <time>2019-04-30T09:47:55Z</time>
      </trkpt>
      <trkpt lat="43.45137" lon="4.42901">
        <ele>56.624</ele>
        <time>2019-04-30T09:48:05Z</time>
      </trkpt>
      <trkpt lat="43.45138" lon="4.429">
        <ele>56.707</ele>
        <time>2019-04-30T09:48:16Z</time>
      </trkpt>
      <trkpt lat="43.45138" lon="4.429">
        <ele>56.835</ele>
        <time>2019-04-30T09:48:27Z</time>
      </trkpt>
      <trkpt lat="43.45139" lon="4.42899">
        <ele>56.932</ele>
        <time>2019-04-30T09:48:37Z</time>
      </trkpt>
      <trkpt lat="43.45139" lon="4.429">
        <ele>57.022</ele>
        <time>2019-04-30T09:48:47Z</time>
      </trkpt>
      <trkpt lat="43.45139" lon="4.429">
        <ele>57.063</ele>
        <time>2019-04-30T09:48:58Z</time>
      </trkpt>
      <trkpt lat="43.45138" lon="4.42902">
        <ele>57.112</ele>
        <time>2019-04-30T09:49:09Z</time>
      </trkpt>
      <trkpt lat="43.45138" lon="4.42903">
        <ele>57.152</ele>
        <time>2019-04-30T09:49:19Z</time>
      </trkpt>
      <trkpt lat="43.45138" lon="4.42903">
        <ele>57.262</ele>
        <time>2019-04-30T09:49:30Z</time>
      </trkpt>
      <trkpt lat="43.45138" lon="4.42903">
        <ele>57.37</ele>
        <time>2019-04-30T09:49:41Z</time>
      </trkpt>
      <trkpt lat="43.45138" lon="4.42903">
        <ele>57.415</ele>
        <time>2019-04-30T09:49:51Z</time>
      </trkpt>
      <trkpt lat="43.45138" lon="4.42903">
        <ele>57.445</ele>
        <time>2019-04-30T09:50:02Z</time>
      </trkpt>
      <trkpt lat="43.45138" lon="4.42903">
        <ele>57.447</ele>
        <time>2019-04-30T09:50:13Z</time>
      </trkpt>
      <trkpt lat="43.45138" lon="4.42902">
        <ele>57.472</ele>
        <time>2019-04-30T09:50:24Z</time>
      </trkpt>
      <trkpt lat="43.45138" lon="4.42902">
        <ele>57.444</ele>
        <time>2019-04-30T09:50:35Z</time>
      </trkpt>
      <trkpt lat="43.45139" lon="4.42903">
        <ele>57.424</ele>
        <time>2019-04-30T09:50:46Z</time>
      </trkpt>
      <trkpt lat="43.45139" lon="4.42903">
        <ele>57.415</ele>
        <time>2019-04-30T09:50:56Z</time>
      </trkpt>
      <trkpt lat="43.45139" lon="4.42902">
        <ele>57.391</ele>
        <time>2019-04-30T09:51:06Z</time>
      </trkpt>
      <trkpt lat="43.4514" lon="4.42901">
        <ele>57.356</ele>
        <time>2019-04-30T09:51:16Z</time>
      </trkpt>
      <trkpt lat="43.4514" lon="4.42901">
        <ele>57.323</ele>
        <time>2019-04-30T09:51:26Z</time>
      </trkpt>
      <trkpt lat="43.4514" lon="4.42901">
        <ele>57.281</ele>
        <time>2019-04-30T09:51:37Z</time>
      </trkpt>
      <trkpt lat="43.4514" lon="4.42901">
        <ele>57.264</ele>
        <time>2019-04-30T09:51:47Z</time>
      </trkpt>
      <trkpt lat="43.4514" lon="4.42901">
        <ele>57.242</ele>
        <time>2019-04-30T09:51:58Z</time>
      </trkpt>
      <trkpt lat="43.45141" lon="4.42902">
        <ele>57.207</ele>
        <time>2019-04-30T09:52:09Z</time>
      </trkpt>
      <trkpt lat="43.45141" lon="4.42902">
        <ele>57.19</ele>
        <time>2019-04-30T09:52:19Z</time>
      </trkpt>
      <trkpt lat="43.45141" lon="4.429">
        <ele>57.156</ele>
        <time>2019-04-30T09:52:30Z</time>
      </trkpt>
      <trkpt lat="43.4514" lon="4.42899">
        <ele>57.083</ele>
        <time>2019-04-30T09:52:40Z</time>
      </trkpt>
      <trkpt lat="43.45139" lon="4.429">
        <ele>57.173</ele>
        <time>2019-04-30T09:52:51Z</time>
      </trkpt>
      <trkpt lat="43.45138" lon="4.429">
        <ele>57.24</ele>
        <time>2019-04-30T09:53:02Z</time>
      </trkpt>
      <trkpt lat="43.45138" lon="4.42901">
        <ele>57.22</ele>
        <time>2019-04-30T09:53:13Z</time>
      </trkpt>
      <trkpt lat="43.45143" lon="4.429">
        <ele>56.688</ele>
        <time>2019-04-30T09:53:24Z</time>
      </trkpt>
      <trkpt lat="43.45145" lon="4.42895">
        <ele>56.383</ele>
        <time>2019-04-30T09:53:34Z</time>
      </trkpt>
      <trkpt lat="43.45148" lon="4.42893">
        <ele>55.128</ele>
        <time>2019-04-30T09:53:45Z</time>
      </trkpt>
      <trkpt lat="43.4515" lon="4.42892">
        <ele>53.755</ele>
        <time>2019-04-30T09:53:56Z</time>
      </trkpt>
      <trkpt lat="43.4515" lon="4.42892">
        <ele>53.305</ele>
        <time>2019-04-30T09:54:07Z</time>
      </trkpt>
      <trkpt lat="43.45149" lon="4.42892">
        <ele>52.407</ele>
        <time>2019-04-30T09:54:18Z</time>
      </trkpt>
      <trkpt lat="43.45148" lon="4.42893">
        <ele>52.195</ele>
        <time>2019-04-30T09:54:29Z</time>
      </trkpt>
      <trkpt lat="43.45145" lon="4.42889">
        <ele>51.733</ele>
        <time>2019-04-30T09:54:39Z</time>
      </trkpt>
      <trkpt lat="43.45145" lon="4.42884">
        <ele>50.876</ele>
        <time>2019-04-30T09:54:50Z</time>
      </trkpt>
      <trkpt lat="43.45145" lon="4.42888">
        <ele>50.02</ele>
        <time>2019-04-30T09:55:01Z</time>
      </trkpt>
      <trkpt lat="43.45145" lon="4.42889">
        <ele>50.065</ele>
        <time>2019-04-30T09:55:12Z</time>
      </trkpt>
      <trkpt lat="43.45145" lon="4.4289">
        <ele>50.149</ele>
        <time>2019-04-30T09:55:23Z</time>
      </trkpt>
      <trkpt lat="43.45142" lon="4.42894">
        <ele>50.684</ele>
        <time>2019-04-30T09:55:34Z</time>
      </trkpt>
      <trkpt lat="43.4514" lon="4.42895">
        <ele>50.86</ele>
        <time>2019-04-30T09:55:45Z</time>
      </trkpt>
      <trkpt lat="43.45139" lon="4.42894">
        <ele>50.958</ele>
        <time>2019-04-30T09:55:55Z</time>
      </trkpt>
      <trkpt lat="43.45139" lon="4.429">
        <ele>51.06</ele>
        <time>2019-04-30T09:56:06Z</time>
      </trkpt>
      <trkpt lat="43.45145" lon="4.42899">
        <ele>51.185</ele>
        <time>2019-04-30T09:56:16Z</time>
      </trkpt>
      <trkpt lat="43.45146" lon="4.42884">
        <ele>51.86</ele>
        <time>2019-04-30T09:56:27Z</time>
      </trkpt>
      <trkpt lat="43.45147" lon="4.42868">
        <ele>51.936</ele>
        <time>2019-04-30T09:56:38Z</time>
      </trkpt>
      <trkpt lat="43.45151" lon="4.42859">
        <ele>51.883</ele>
        <time>2019-04-30T09:56:48Z</time>
      </trkpt>
      <trkpt lat="43.45152" lon="4.42852">
        <ele>52.849</ele>
        <time>2019-04-30T09:56:59Z</time>
      </trkpt>
      <trkpt lat="43.45152" lon="4.42852">
        <ele>53.644</ele>
        <time>2019-04-30T09:57:09Z</time>
      </trkpt>
      <trkpt lat="43.45154" lon="4.42854">
        <ele>54.247</ele>
        <time>2019-04-30T09:57:20Z</time>
      </trkpt>
      <trkpt lat="43.45154" lon="4.42854">
        <ele>54.354</ele>
        <time>2019-04-30T09:57:31Z</time>
      </trkpt>
      <trkpt lat="43.45152" lon="4.42858">
        <ele>54.579</ele>
        <time>2019-04-30T09:57:42Z</time>
      </trkpt>
      <trkpt lat="43.45149" lon="4.4286">
        <ele>54.521</ele>
        <time>2019-04-30T09:57:53Z</time>
      </trkpt>
      <trkpt lat="43.45148" lon="4.42862">
        <ele>54.886</ele>
        <time>2019-04-30T09:58:04Z</time>
      </trkpt>
      <trkpt lat="43.45144" lon="4.42863">
        <ele>55.435</ele>
        <time>2019-04-30T09:58:14Z</time>
      </trkpt>
      <trkpt lat="43.45141" lon="4.42864">
        <ele>54.769</ele>
        <time>2019-04-30T09:58:25Z</time>
      </trkpt>
      <trkpt lat="43.45141" lon="4.42862">
        <ele>53.883</ele>
        <time>2019-04-30T09:58:35Z</time>
      </trkpt>
      <trkpt lat="43.45142" lon="4.42858">
        <ele>53.166</ele>
        <time>2019-04-30T09:58:45Z</time>
      </trkpt>
      <trkpt lat="43.45146" lon="4.42857">
        <ele>51.614</ele>
        <time>2019-04-30T09:58:56Z</time>
      </trkpt>
      <trkpt lat="43.4514" lon="4.42859">
        <ele>50.785</ele>
        <time>2019-04-30T09:59:07Z</time>
      </trkpt>
      <trkpt lat="43.45142" lon="4.4286">
        <ele>49.536</ele>
        <time>2019-04-30T09:59:17Z</time>
      </trkpt>
      <trkpt lat="43.45146" lon="4.42859">
        <ele>47.729</ele>
        <time>2019-04-30T09:59:28Z</time>
      </trkpt>
      <trkpt lat="43.45151" lon="4.42845">
        <ele>46.874</ele>
        <time>2019-04-30T09:59:38Z</time>
      </trkpt>
      <trkpt lat="43.4515" lon="4.42842">
        <ele>47.531</ele>
        <time>2019-04-30T09:59:48Z</time>
      </trkpt>
      <trkpt lat="43.4515" lon="4.42842">
        <ele>47.648</ele>
        <time>2019-04-30T09:59:59Z</time>
      </trkpt>
      <trkpt lat="43.45148" lon="4.42842">
        <ele>48.158</ele>
        <time>2019-04-30T10:00:10Z</time>
      </trkpt>
      <trkpt lat="43.45148" lon="4.4284">
        <ele>48.689</ele>
        <time>2019-04-30T10:00:21Z</time>
      </trkpt>
      <trkpt lat="43.45146" lon="4.42839">
        <ele>48.839</ele>
        <time>2019-04-30T10:00:31Z</time>
      </trkpt>
      <trkpt lat="43.45144" lon="4.42842">
        <ele>49.554</ele>
        <time>2019-04-30T10:00:42Z</time>
      </trkpt>
      <trkpt lat="43.45145" lon="4.42844">
        <ele>49.812</ele>
        <time>2019-04-30T10:00:52Z</time>
      </trkpt>
      <trkpt lat="43.45141" lon="4.4284">
        <ele>49.658</ele>
        <time>2019-04-30T10:01:02Z</time>
      </trkpt>
      <trkpt lat="43.4513" lon="4.42848">
        <ele>47.27</ele>
        <time>2019-04-30T10:01:13Z</time>
      </trkpt>
      <trkpt lat="43.45125" lon="4.42852">
        <ele>37.659</ele>
        <time>2019-04-30T10:01:24Z</time>
      </trkpt>
      <trkpt lat="43.4512" lon="4.42854">
        <ele>35.589</ele>
        <time>2019-04-30T10:01:34Z</time>
      </trkpt>
      <trkpt lat="43.45114" lon="4.42847">
        <ele>33.772</ele>
        <time>2019-04-30T10:01:45Z</time>
      </trkpt>
      <trkpt lat="43.45113" lon="4.4285">
        <ele>32.495</ele>
        <time>2019-04-30T10:01:55Z</time>
      </trkpt>
      <trkpt lat="43.45115" lon="4.42849">
        <ele>24.677</ele>
        <time>2019-04-30T10:02:06Z</time>
      </trkpt>
      <trkpt lat="43.45116" lon="4.42852">
        <ele>23.548</ele>
        <time>2019-04-30T10:02:16Z</time>
      </trkpt>
      <trkpt lat="43.4513" lon="4.42857">
        <ele>24.195</ele>
        <time>2019-04-30T10:02:27Z</time>
      </trkpt>
      <trkpt lat="43.45144" lon="4.42858">
        <ele>9.292</ele>
        <time>2019-04-30T10:03:37Z</time>
      </trkpt>
      <trkpt lat="43.4515" lon="4.42845">
        <ele>15.346</ele>
        <time>2019-04-30T10:03:47Z</time>
      </trkpt>
      <trkpt lat="43.4515" lon="4.42844">
        <ele>16.205</ele>
        <time>2019-04-30T10:03:58Z</time>
      </trkpt>
      <trkpt lat="43.45151" lon="4.42843">
        <ele>18.388</ele>
        <time>2019-04-30T10:04:09Z</time>
      </trkpt>
      <trkpt lat="43.45151" lon="4.42842">
        <ele>19.234</ele>
        <time>2019-04-30T10:04:20Z</time>
      </trkpt>
      <trkpt lat="43.45151" lon="4.42842">
        <ele>20.061</ele>
        <time>2019-04-30T10:04:30Z</time>
      </trkpt>
      <trkpt lat="43.45151" lon="4.42842">
        <ele>20.98</ele>
        <time>2019-04-30T10:04:41Z</time>
      </trkpt>
      <trkpt lat="43.45152" lon="4.42841">
        <ele>21.857</ele>
        <time>2019-04-30T10:04:52Z</time>
      </trkpt>
      <trkpt lat="43.45151" lon="4.42842">
        <ele>23.865</ele>
        <time>2019-04-30T10:05:03Z</time>
      </trkpt>
      <trkpt lat="43.45155" lon="4.42843">
        <ele>27.381</ele>
        <time>2019-04-30T10:05:14Z</time>
      </trkpt>
      <trkpt lat="43.45156" lon="4.42837">
        <ele>31.167</ele>
        <time>2019-04-30T10:05:24Z</time>
      </trkpt>
      <trkpt lat="43.45164" lon="4.42819">
        <ele>35.66</ele>
        <time>2019-04-30T10:05:34Z</time>
      </trkpt>
      <trkpt lat="43.45169" lon="4.42819">
        <ele>37.052</ele>
        <time>2019-04-30T10:05:45Z</time>
      </trkpt>
      <trkpt lat="43.45169" lon="4.42819">
        <ele>37.466</ele>
        <time>2019-04-30T10:05:56Z</time>
      </trkpt>
      <trkpt lat="43.45169" lon="4.42819">
        <ele>37.886</ele>
        <time>2019-04-30T10:06:07Z</time>
      </trkpt>
      <trkpt lat="43.4517" lon="4.42818">
        <ele>38.235</ele>
        <time>2019-04-30T10:06:17Z</time>
      </trkpt>
      <trkpt lat="43.45171" lon="4.42816">
        <ele>38.541</ele>
        <time>2019-04-30T10:06:28Z</time>
      </trkpt>
      <trkpt lat="43.45172" lon="4.42816">
        <ele>38.807</ele>
        <time>2019-04-30T10:06:39Z</time>
      </trkpt>
      <trkpt lat="43.45172" lon="4.42817">
        <ele>39.048</ele>
        <time>2019-04-30T10:06:50Z</time>
      </trkpt>
      <trkpt lat="43.45172" lon="4.42818">
        <ele>39.183</ele>
        <time>2019-04-30T10:07:01Z</time>
      </trkpt>
      <trkpt lat="43.45171" lon="4.42818">
        <ele>39.519</ele>
        <time>2019-04-30T10:07:12Z</time>
      </trkpt>
      <trkpt lat="43.45171" lon="4.42818">
        <ele>39.725</ele>
        <time>2019-04-30T10:07:22Z</time>
      </trkpt>
      <trkpt lat="43.45171" lon="4.42817">
        <ele>39.964</ele>
        <time>2019-04-30T10:07:33Z</time>
      </trkpt>
      <trkpt lat="43.45166" lon="4.42816">
        <ele>40.897</ele>
        <time>2019-04-30T10:07:44Z</time>
      </trkpt>
      <trkpt lat="43.45164" lon="4.42817">
        <ele>41.316</ele>
        <time>2019-04-30T10:07:54Z</time>
      </trkpt>
      <trkpt lat="43.45158" lon="4.42839">
        <ele>42.517</ele>
        <time>2019-04-30T10:08:05Z</time>
      </trkpt>
      <trkpt lat="43.45165" lon="4.42844">
        <ele>44.551</ele>
        <time>2019-04-30T10:08:15Z</time>
      </trkpt>
      <trkpt lat="43.45186" lon="4.42859">
        <ele>46.752</ele>
        <time>2019-04-30T10:08:26Z</time>
      </trkpt>
      <trkpt lat="43.4519" lon="4.42893">
        <ele>47.891</ele>
        <time>2019-04-30T10:08:37Z</time>
      </trkpt>
      <trkpt lat="43.45166" lon="4.42904">
        <ele>48.674</ele>
        <time>2019-04-30T10:08:48Z</time>
      </trkpt>
      <trkpt lat="43.45136" lon="4.42907">
        <ele>49.111</ele>
        <time>2019-04-30T10:08:59Z</time>
      </trkpt>
      <trkpt lat="43.45104" lon="4.42914">
        <ele>49.229</ele>
        <time>2019-04-30T10:09:09Z</time>
      </trkpt>
      <trkpt lat="43.45068" lon="4.42911">
        <ele>49.528</ele>
        <time>2019-04-30T10:09:20Z</time>
      </trkpt>
      <trkpt lat="43.45046" lon="4.42928">
        <ele>49.719</ele>
        <time>2019-04-30T10:09:30Z</time>
      </trkpt>
      <trkpt lat="43.45032" lon="4.42958">
        <ele>49.942</ele>
        <time>2019-04-30T10:09:41Z</time>
      </trkpt>
      <trkpt lat="43.45012" lon="4.4296">
        <ele>49.882</ele>
        <time>2019-04-30T10:09:51Z</time>
      </trkpt>
      <trkpt lat="43.45023" lon="4.4297">
        <ele>50.751</ele>
        <time>2019-04-30T10:10:02Z</time>
      </trkpt>
      <trkpt lat="43.45009" lon="4.42966">
        <ele>51.201</ele>
        <time>2019-04-30T10:10:12Z</time>
      </trkpt>
      <trkpt lat="43.45" lon="4.42962">
        <ele>51.728</ele>
        <time>2019-04-30T10:10:22Z</time>
      </trkpt>
      <trkpt lat="43.45" lon="4.42963">
        <ele>51.803</ele>
        <time>2019-04-30T10:10:33Z</time>
      </trkpt>
      <trkpt lat="43.45" lon="4.42963">
        <ele>51.917</ele>
        <time>2019-04-30T10:10:44Z</time>
      </trkpt>
      <trkpt lat="43.45" lon="4.42964">
        <ele>52.434</ele>
        <time>2019-04-30T10:10:55Z</time>
      </trkpt>
      <trkpt lat="43.45" lon="4.42964">
        <ele>52.426</ele>
        <time>2019-04-30T10:11:05Z</time>
      </trkpt>
      <trkpt lat="43.44999" lon="4.42963">
        <ele>52.885</ele>
        <time>2019-04-30T10:11:15Z</time>
      </trkpt>
      <trkpt lat="43.45023" lon="4.42956">
        <ele>52.734</ele>
        <time>2019-04-30T10:11:26Z</time>
      </trkpt>
      <trkpt lat="43.45035" lon="4.42973">
        <ele>52.541</ele>
        <time>2019-04-30T10:11:36Z</time>
      </trkpt>
      <trkpt lat="43.45034" lon="4.43019">
        <ele>52.738</ele>
        <time>2019-04-30T10:11:46Z</time>
      </trkpt>
      <trkpt lat="43.45047" lon="4.43071">
        <ele>53.037</ele>
        <time>2019-04-30T10:11:57Z</time>
      </trkpt>
      <trkpt lat="43.45084" lon="4.43098">
        <ele>53.388</ele>
        <time>2019-04-30T10:12:08Z</time>
      </trkpt>
      <trkpt lat="43.45113" lon="4.43137">
        <ele>55.089</ele>
        <time>2019-04-30T10:12:19Z</time>
      </trkpt>
      <trkpt lat="43.45143" lon="4.43181">
        <ele>54.744</ele>
        <time>2019-04-30T10:12:29Z</time>
      </trkpt>
      <trkpt lat="43.45163" lon="4.43232">
        <ele>53.053</ele>
        <time>2019-04-30T10:12:39Z</time>
      </trkpt>
      <trkpt lat="43.45183" lon="4.4328">
        <ele>53.039</ele>
        <time>2019-04-30T10:12:49Z</time>
      </trkpt>
      <trkpt lat="43.45207" lon="4.43331">
        <ele>53.589</ele>
        <time>2019-04-30T10:13:00Z</time>
      </trkpt>
      <trkpt lat="43.45229" lon="4.4338">
        <ele>54.114</ele>
        <time>2019-04-30T10:13:11Z</time>
      </trkpt>
      <trkpt lat="43.45235" lon="4.43425">
        <ele>54.577</ele>
        <time>2019-04-30T10:13:21Z</time>
      </trkpt>
      <trkpt lat="43.45251" lon="4.4347">
        <ele>53.869</ele>
        <time>2019-04-30T10:13:32Z</time>
      </trkpt>
      <trkpt lat="43.45266" lon="4.43512">
        <ele>53.634</ele>
        <time>2019-04-30T10:13:43Z</time>
      </trkpt>
      <trkpt lat="43.45283" lon="4.4354">
        <ele>53.657</ele>
        <time>2019-04-30T10:13:53Z</time>
      </trkpt>
      <trkpt lat="43.453" lon="4.43581">
        <ele>54.246</ele>
        <time>2019-04-30T10:14:03Z</time>
      </trkpt>
      <trkpt lat="43.45323" lon="4.43634">
        <ele>52.851</ele>
        <time>2019-04-30T10:14:14Z</time>
      </trkpt>
      <trkpt lat="43.45346" lon="4.4368">
        <ele>52.573</ele>
        <time>2019-04-30T10:14:25Z</time>
      </trkpt>
      <trkpt lat="43.45365" lon="4.43723">
        <ele>52.415</ele>
        <time>2019-04-30T10:14:36Z</time>
      </trkpt>
      <trkpt lat="43.45382" lon="4.43771">
        <ele>52.755</ele>
        <time>2019-04-30T10:14:47Z</time>
      </trkpt>
      <trkpt lat="43.45395" lon="4.43818">
        <ele>53.394</ele>
        <time>2019-04-30T10:14:57Z</time>
      </trkpt>
      <trkpt lat="43.4542" lon="4.43865">
        <ele>54.083</ele>
        <time>2019-04-30T10:15:08Z</time>
      </trkpt>
      <trkpt lat="43.4544" lon="4.43909">
        <ele>54.477</ele>
        <time>2019-04-30T10:15:19Z</time>
      </trkpt>
      <trkpt lat="43.45461" lon="4.43952">
        <ele>55.032</ele>
        <time>2019-04-30T10:15:29Z</time>
      </trkpt>
      <trkpt lat="43.45481" lon="4.43983">
        <ele>54.969</ele>
        <time>2019-04-30T10:15:40Z</time>
      </trkpt>
      <trkpt lat="43.4549" lon="4.44002">
        <ele>54.905</ele>
        <time>2019-04-30T10:15:51Z</time>
      </trkpt>
      <trkpt lat="43.45495" lon="4.44012">
        <ele>54.531</ele>
        <time>2019-04-30T10:16:02Z</time>
      </trkpt>
      <trkpt lat="43.45498" lon="4.44029">
        <ele>54.16</ele>
        <time>2019-04-30T10:16:13Z</time>
      </trkpt>
      <trkpt lat="43.45504" lon="4.44044">
        <ele>54.011</ele>
        <time>2019-04-30T10:16:23Z</time>
      </trkpt>
      <trkpt lat="43.45511" lon="4.44058">
        <ele>53.825</ele>
        <time>2019-04-30T10:16:34Z</time>
      </trkpt>
      <trkpt lat="43.45517" lon="4.44072">
        <ele>53.7</ele>
        <time>2019-04-30T10:16:44Z</time>
      </trkpt>
      <trkpt lat="43.45526" lon="4.44088">
        <ele>53.403</ele>
        <time>2019-04-30T10:16:55Z</time>
      </trkpt>
      <trkpt lat="43.45535" lon="4.44104">
        <ele>53.153</ele>
        <time>2019-04-30T10:17:06Z</time>
      </trkpt>
      <trkpt lat="43.45541" lon="4.4412">
        <ele>53.284</ele>
        <time>2019-04-30T10:17:17Z</time>
      </trkpt>
      <trkpt lat="43.4555" lon="4.44137">
        <ele>53.584</ele>
        <time>2019-04-30T10:17:27Z</time>
      </trkpt>
      <trkpt lat="43.45556" lon="4.44152">
        <ele>53.644</ele>
        <time>2019-04-30T10:17:37Z</time>
      </trkpt>
      <trkpt lat="43.45561" lon="4.44166">
        <ele>53.725</ele>
        <time>2019-04-30T10:17:47Z</time>
      </trkpt>
      <trkpt lat="43.45565" lon="4.44182">
        <ele>53.543</ele>
        <time>2019-04-30T10:17:58Z</time>
      </trkpt>
      <trkpt lat="43.45574" lon="4.44198">
        <ele>53.092</ele>
        <time>2019-04-30T10:18:09Z</time>
      </trkpt>
      <trkpt lat="43.45582" lon="4.44211">
        <ele>53.275</ele>
        <time>2019-04-30T10:18:19Z</time>
      </trkpt>
      <trkpt lat="43.45588" lon="4.44232">
        <ele>53.474</ele>
        <time>2019-04-30T10:18:30Z</time>
      </trkpt>
      <trkpt lat="43.45592" lon="4.44246">
        <ele>53.552</ele>
        <time>2019-04-30T10:18:40Z</time>
      </trkpt>
      <trkpt lat="43.456" lon="4.44269">
        <ele>53.265</ele>
        <time>2019-04-30T10:18:51Z</time>
      </trkpt>
      <trkpt lat="43.45612" lon="4.44303">
        <ele>52.739</ele>
        <time>2019-04-30T10:19:02Z</time>
      </trkpt>
      <trkpt lat="43.4562" lon="4.44334">
        <ele>52.4</ele>
        <time>2019-04-30T10:19:12Z</time>
      </trkpt>
      <trkpt lat="43.45634" lon="4.44377">
        <ele>52.185</ele>
        <time>2019-04-30T10:19:23Z</time>
      </trkpt>
      <trkpt lat="43.45645" lon="4.44417">
        <ele>52.485</ele>
        <time>2019-04-30T10:19:34Z</time>
      </trkpt>
      <trkpt lat="43.45649" lon="4.44458">
        <ele>52.504</ele>
        <time>2019-04-30T10:19:44Z</time>
      </trkpt>
      <trkpt lat="43.45658" lon="4.44498">
        <ele>52.692</ele>
        <time>2019-04-30T10:19:55Z</time>
      </trkpt>
      <trkpt lat="43.45667" lon="4.44541">
        <ele>52.682</ele>
        <time>2019-04-30T10:20:06Z</time>
      </trkpt>
      <trkpt lat="43.45673" lon="4.44584">
        <ele>52.293</ele>
        <time>2019-04-30T10:20:17Z</time>
      </trkpt>
      <trkpt lat="43.45683" lon="4.44625">
        <ele>51.849</ele>
        <time>2019-04-30T10:20:27Z</time>
      </trkpt>
      <trkpt lat="43.45692" lon="4.44666">
        <ele>51.678</ele>
        <time>2019-04-30T10:20:38Z</time>
      </trkpt>
      <trkpt lat="43.45703" lon="4.44705">
        <ele>51.318</ele>
        <time>2019-04-30T10:20:49Z</time>
      </trkpt>
      <trkpt lat="43.45712" lon="4.4474">
        <ele>51.159</ele>
        <time>2019-04-30T10:20:59Z</time>
      </trkpt>
      <trkpt lat="43.45719" lon="4.44762">
        <ele>51.047</ele>
        <time>2019-04-30T10:21:10Z</time>
      </trkpt>
      <trkpt lat="43.45719" lon="4.44762">
        <ele>51.048</ele>
        <time>2019-04-30T10:21:20Z</time>
      </trkpt>
      <trkpt lat="43.45719" lon="4.44762">
        <ele>51.035</ele>
        <time>2019-04-30T10:21:31Z</time>
      </trkpt>
      <trkpt lat="43.4572" lon="4.44762">
        <ele>51.024</ele>
        <time>2019-04-30T10:21:42Z</time>
      </trkpt>
      <trkpt lat="43.45724" lon="4.4477">
        <ele>50.859</ele>
        <time>2019-04-30T10:21:52Z</time>
      </trkpt>
      <trkpt lat="43.45731" lon="4.44807">
        <ele>50.14</ele>
        <time>2019-04-30T10:22:03Z</time>
      </trkpt>
      <trkpt lat="43.45736" lon="4.44844">
        <ele>49.379</ele>
        <time>2019-04-30T10:22:14Z</time>
      </trkpt>
      <trkpt lat="43.4575" lon="4.44885">
        <ele>48.885</ele>
        <time>2019-04-30T10:22:24Z</time>
      </trkpt>
      <trkpt lat="43.45758" lon="4.44926">
        <ele>48.647</ele>
        <time>2019-04-30T10:22:35Z</time>
      </trkpt>
      <trkpt lat="43.45769" lon="4.44968">
        <ele>48.377</ele>
        <time>2019-04-30T10:22:46Z</time>
      </trkpt>
      <trkpt lat="43.45778" lon="4.45012">
        <ele>48.156</ele>
        <time>2019-04-30T10:22:57Z</time>
      </trkpt>
      <trkpt lat="43.45786" lon="4.45054">
        <ele>48.044</ele>
        <time>2019-04-30T10:23:08Z</time>
      </trkpt>
      <trkpt lat="43.45794" lon="4.45098">
        <ele>47.916</ele>
        <time>2019-04-30T10:23:19Z</time>
      </trkpt>
      <trkpt lat="43.45804" lon="4.45145">
        <ele>47.731</ele>
        <time>2019-04-30T10:23:30Z</time>
      </trkpt>
      <trkpt lat="43.45813" lon="4.45184">
        <ele>47.631</ele>
        <time>2019-04-30T10:23:40Z</time>
      </trkpt>
      <trkpt lat="43.45825" lon="4.45228">
        <ele>47.458</ele>
        <time>2019-04-30T10:23:51Z</time>
      </trkpt>
      <trkpt lat="43.45836" lon="4.45271">
        <ele>47.417</ele>
        <time>2019-04-30T10:24:01Z</time>
      </trkpt>
      <trkpt lat="43.45846" lon="4.45318">
        <ele>47.333</ele>
        <time>2019-04-30T10:24:12Z</time>
      </trkpt>
      <trkpt lat="43.45859" lon="4.45367">
        <ele>47.892</ele>
        <time>2019-04-30T10:24:23Z</time>
      </trkpt>
      <trkpt lat="43.45868" lon="4.45416">
        <ele>48.571</ele>
        <time>2019-04-30T10:24:34Z</time>
      </trkpt>
      <trkpt lat="43.4588" lon="4.45466">
        <ele>49.156</ele>
        <time>2019-04-30T10:24:45Z</time>
      </trkpt>
      <trkpt lat="43.45892" lon="4.45509">
        <ele>49.223</ele>
        <time>2019-04-30T10:24:55Z</time>
      </trkpt>
      <trkpt lat="43.459" lon="4.45559">
        <ele>49.324</ele>
        <time>2019-04-30T10:25:06Z</time>
      </trkpt>
      <trkpt lat="43.45913" lon="4.45613">
        <ele>50.37</ele>
        <time>2019-04-30T10:25:17Z</time>
      </trkpt>
      <trkpt lat="43.45925" lon="4.45668">
        <ele>51.33</ele>
        <time>2019-04-30T10:25:28Z</time>
      </trkpt>
      <trkpt lat="43.45938" lon="4.45723">
        <ele>51.094</ele>
        <time>2019-04-30T10:25:39Z</time>
      </trkpt>
      <trkpt lat="43.45949" lon="4.45769">
        <ele>50.854</ele>
        <time>2019-04-30T10:25:50Z</time>
      </trkpt>
      <trkpt lat="43.45953" lon="4.45778">
        <ele>51.043</ele>
        <time>2019-04-30T10:26:00Z</time>
      </trkpt>
      <trkpt lat="43.45957" lon="4.45792">
        <ele>51.212</ele>
        <time>2019-04-30T10:26:11Z</time>
      </trkpt>
      <trkpt lat="43.45971" lon="4.45833">
        <ele>51.517</ele>
        <time>2019-04-30T10:26:21Z</time>
      </trkpt>
      <trkpt lat="43.45989" lon="4.45882">
        <ele>52.148</ele>
        <time>2019-04-30T10:26:32Z</time>
      </trkpt>
      <trkpt lat="43.46013" lon="4.4593">
        <ele>52.173</ele>
        <time>2019-04-30T10:26:43Z</time>
      </trkpt>
      <trkpt lat="43.46039" lon="4.45973">
        <ele>52.008</ele>
        <time>2019-04-30T10:26:54Z</time>
      </trkpt>
      <trkpt lat="43.46063" lon="4.46023">
        <ele>51.48</ele>
        <time>2019-04-30T10:27:05Z</time>
      </trkpt>
      <trkpt lat="43.46088" lon="4.46067">
        <ele>53.1</ele>
        <time>2019-04-30T10:27:15Z</time>
      </trkpt>
      <trkpt lat="43.46114" lon="4.46113">
        <ele>53.464</ele>
        <time>2019-04-30T10:27:26Z</time>
      </trkpt>
      <trkpt lat="43.46141" lon="4.46154">
        <ele>53.149</ele>
        <time>2019-04-30T10:27:37Z</time>
      </trkpt>
      <trkpt lat="43.46167" lon="4.46196">
        <ele>52.997</ele>
        <time>2019-04-30T10:27:48Z</time>
      </trkpt>
      <trkpt lat="43.46187" lon="4.46236">
        <ele>52.847</ele>
        <time>2019-04-30T10:27:58Z</time>
      </trkpt>
      <trkpt lat="43.46209" lon="4.46274">
        <ele>52.74</ele>
        <time>2019-04-30T10:28:08Z</time>
      </trkpt>
      <trkpt lat="43.46231" lon="4.46315">
        <ele>52.609</ele>
        <time>2019-04-30T10:28:19Z</time>
      </trkpt>
      <trkpt lat="43.46252" lon="4.46356">
        <ele>52.597</ele>
        <time>2019-04-30T10:28:29Z</time>
      </trkpt>
      <trkpt lat="43.46276" lon="4.46397">
        <ele>52.542</ele>
        <time>2019-04-30T10:28:40Z</time>
      </trkpt>
      <trkpt lat="43.46298" lon="4.46437">
        <ele>52.553</ele>
        <time>2019-04-30T10:28:51Z</time>
      </trkpt>
      <trkpt lat="43.46319" lon="4.46471">
        <ele>52.689</ele>
        <time>2019-04-30T10:29:02Z</time>
      </trkpt>
      <trkpt lat="43.46342" lon="4.4651">
        <ele>52.79</ele>
        <time>2019-04-30T10:29:13Z</time>
      </trkpt>
      <trkpt lat="43.46363" lon="4.46551">
        <ele>52.859</ele>
        <time>2019-04-30T10:29:23Z</time>
      </trkpt>
      <trkpt lat="43.46388" lon="4.46594">
        <ele>52.638</ele>
        <time>2019-04-30T10:29:34Z</time>
      </trkpt>
      <trkpt lat="43.46409" lon="4.46634">
        <ele>52.628</ele>
        <time>2019-04-30T10:29:45Z</time>
      </trkpt>
      <trkpt lat="43.46427" lon="4.46676">
        <ele>52.53</ele>
        <time>2019-04-30T10:29:56Z</time>
      </trkpt>
      <trkpt lat="43.46444" lon="4.46722">
        <ele>52.497</ele>
        <time>2019-04-30T10:30:07Z</time>
      </trkpt>
      <trkpt lat="43.46458" lon="4.46775">
        <ele>52.475</ele>
        <time>2019-04-30T10:30:18Z</time>
      </trkpt>
      <trkpt lat="43.46468" lon="4.46829">
        <ele>52.432</ele>
        <time>2019-04-30T10:30:29Z</time>
      </trkpt>
      <trkpt lat="43.46476" lon="4.46877">
        <ele>52.63</ele>
        <time>2019-04-30T10:30:39Z</time>
      </trkpt>
      <trkpt lat="43.46479" lon="4.46932">
        <ele>52.631</ele>
        <time>2019-04-30T10:30:50Z</time>
      </trkpt>
      <trkpt lat="43.4648" lon="4.46962">
        <ele>52.843</ele>
        <time>2019-04-30T10:31:00Z</time>
      </trkpt>
      <trkpt lat="43.4648" lon="4.46962">
        <ele>52.836</ele>
        <time>2019-04-30T10:31:11Z</time>
      </trkpt>
      <trkpt lat="43.4648" lon="4.46962">
        <ele>52.834</ele>
        <time>2019-04-30T10:31:22Z</time>
      </trkpt>
      <trkpt lat="43.46479" lon="4.46962">
        <ele>52.838</ele>
        <time>2019-04-30T10:31:33Z</time>
      </trkpt>
      <trkpt lat="43.46479" lon="4.46962">
        <ele>52.845</ele>
        <time>2019-04-30T10:31:44Z</time>
      </trkpt>
      <trkpt lat="43.46479" lon="4.46962">
        <ele>52.853</ele>
        <time>2019-04-30T10:31:54Z</time>
      </trkpt>
      <trkpt lat="43.46479" lon="4.46962">
        <ele>52.862</ele>
        <time>2019-04-30T10:32:05Z</time>
      </trkpt>
      <trkpt lat="43.46479" lon="4.46972">
        <ele>52.794</ele>
        <time>2019-04-30T10:32:15Z</time>
      </trkpt>
      <trkpt lat="43.46477" lon="4.47022">
        <ele>52.454</ele>
        <time>2019-04-30T10:32:26Z</time>
      </trkpt>
      <trkpt lat="43.46472" lon="4.47073">
        <ele>50.785</ele>
        <time>2019-04-30T10:32:36Z</time>
      </trkpt>
      <trkpt lat="43.46466" lon="4.47126">
        <ele>50.574</ele>
        <time>2019-04-30T10:32:46Z</time>
      </trkpt>
      <trkpt lat="43.46451" lon="4.47186">
        <ele>50.935</ele>
        <time>2019-04-30T10:32:57Z</time>
      </trkpt>
      <trkpt lat="43.46439" lon="4.47235">
        <ele>50.868</ele>
        <time>2019-04-30T10:33:07Z</time>
      </trkpt>
      <trkpt lat="43.46425" lon="4.4729">
        <ele>52.239</ele>
        <time>2019-04-30T10:33:18Z</time>
      </trkpt>
      <trkpt lat="43.46411" lon="4.47342">
        <ele>51.703</ele>
        <time>2019-04-30T10:33:28Z</time>
      </trkpt>
      <trkpt lat="43.46396" lon="4.47401">
        <ele>51.745</ele>
        <time>2019-04-30T10:33:39Z</time>
      </trkpt>
      <trkpt lat="43.46382" lon="4.47458">
        <ele>51.578</ele>
        <time>2019-04-30T10:33:49Z</time>
      </trkpt>
      <trkpt lat="43.46365" lon="4.47523">
        <ele>53.265</ele>
        <time>2019-04-30T10:34:00Z</time>
      </trkpt>
      <trkpt lat="43.4635" lon="4.47587">
        <ele>53.455</ele>
        <time>2019-04-30T10:34:11Z</time>
      </trkpt>
      <trkpt lat="43.46336" lon="4.47641">
        <ele>53.294</ele>
        <time>2019-04-30T10:34:21Z</time>
      </trkpt>
      <trkpt lat="43.46321" lon="4.47703">
        <ele>52.529</ele>
        <time>2019-04-30T10:34:32Z</time>
      </trkpt>
      <trkpt lat="43.46304" lon="4.47764">
        <ele>51.877</ele>
        <time>2019-04-30T10:34:43Z</time>
      </trkpt>
      <trkpt lat="43.46288" lon="4.47827">
        <ele>52.298</ele>
        <time>2019-04-30T10:34:53Z</time>
      </trkpt>
      <trkpt lat="43.46271" lon="4.47893">
        <ele>51.973</ele>
        <time>2019-04-30T10:35:04Z</time>
      </trkpt>
      <trkpt lat="43.46257" lon="4.47952">
        <ele>51.262</ele>
        <time>2019-04-30T10:35:15Z</time>
      </trkpt>
      <trkpt lat="43.46244" lon="4.48003">
        <ele>51.183</ele>
        <time>2019-04-30T10:35:25Z</time>
      </trkpt>
      <trkpt lat="43.46232" lon="4.48054">
        <ele>49.764</ele>
        <time>2019-04-30T10:35:35Z</time>
      </trkpt>
      <trkpt lat="43.46216" lon="4.48111">
        <ele>49.804</ele>
        <time>2019-04-30T10:35:46Z</time>
      </trkpt>
      <trkpt lat="43.46201" lon="4.48169">
        <ele>50.784</ele>
        <time>2019-04-30T10:35:57Z</time>
      </trkpt>
      <trkpt lat="43.46186" lon="4.48229">
        <ele>51.248</ele>
        <time>2019-04-30T10:36:08Z</time>
      </trkpt>
      <trkpt lat="43.4617" lon="4.48292">
        <ele>51.04</ele>
        <time>2019-04-30T10:36:19Z</time>
      </trkpt>
      <trkpt lat="43.46153" lon="4.48355">
        <ele>49.754</ele>
        <time>2019-04-30T10:36:30Z</time>
      </trkpt>
      <trkpt lat="43.46138" lon="4.48417">
        <ele>48.987</ele>
        <time>2019-04-30T10:36:41Z</time>
      </trkpt>
      <trkpt lat="43.46125" lon="4.48469">
        <ele>48.466</ele>
        <time>2019-04-30T10:36:51Z</time>
      </trkpt>
      <trkpt lat="43.46111" lon="4.48528">
        <ele>51.847</ele>
        <time>2019-04-30T10:37:02Z</time>
      </trkpt>
      <trkpt lat="43.46095" lon="4.48582">
        <ele>50.216</ele>
        <time>2019-04-30T10:37:12Z</time>
      </trkpt>
      <trkpt lat="43.46081" lon="4.48641">
        <ele>48.555</ele>
        <time>2019-04-30T10:37:22Z</time>
      </trkpt>
      <trkpt lat="43.46065" lon="4.48705">
        <ele>48.521</ele>
        <time>2019-04-30T10:37:33Z</time>
      </trkpt>
      <trkpt lat="43.46051" lon="4.4876">
        <ele>48.293</ele>
        <time>2019-04-30T10:37:43Z</time>
      </trkpt>
      <trkpt lat="43.46038" lon="4.48811">
        <ele>48.1</ele>
        <time>2019-04-30T10:37:53Z</time>
      </trkpt>
      <trkpt lat="43.46024" lon="4.4887">
        <ele>47.587</ele>
        <time>2019-04-30T10:38:04Z</time>
      </trkpt>
      <trkpt lat="43.4601" lon="4.48924">
        <ele>47.362</ele>
        <time>2019-04-30T10:38:14Z</time>
      </trkpt>
      <trkpt lat="43.45995" lon="4.48985">
        <ele>47.294</ele>
        <time>2019-04-30T10:38:25Z</time>
      </trkpt>
      <trkpt lat="43.45979" lon="4.49046">
        <ele>47.27</ele>
        <time>2019-04-30T10:38:36Z</time>
      </trkpt>
      <trkpt lat="43.45965" lon="4.49107">
        <ele>47.4</ele>
        <time>2019-04-30T10:38:47Z</time>
      </trkpt>
      <trkpt lat="43.4596" lon="4.49164">
        <ele>47.918</ele>
        <time>2019-04-30T10:38:58Z</time>
      </trkpt>
      <trkpt lat="43.45955" lon="4.49213">
        <ele>49.33</ele>
        <time>2019-04-30T10:39:08Z</time>
      </trkpt>
      <trkpt lat="43.45954" lon="4.49268">
        <ele>51.302</ele>
        <time>2019-04-30T10:39:19Z</time>
      </trkpt>
      <trkpt lat="43.45954" lon="4.49314">
        <ele>51.408</ele>
        <time>2019-04-30T10:39:29Z</time>
      </trkpt>
      <trkpt lat="43.45956" lon="4.49369">
        <ele>51.245</ele>
        <time>2019-04-30T10:39:40Z</time>
      </trkpt>
      <trkpt lat="43.45958" lon="4.49426">
        <ele>52.238</ele>
        <time>2019-04-30T10:39:51Z</time>
      </trkpt>
      <trkpt lat="43.45968" lon="4.49471">
        <ele>52.228</ele>
        <time>2019-04-30T10:40:02Z</time>
      </trkpt>
      <trkpt lat="43.45965" lon="4.4952">
        <ele>52.063</ele>
        <time>2019-04-30T10:40:13Z</time>
      </trkpt>
      <trkpt lat="43.45962" lon="4.49536">
        <ele>52.05</ele>
        <time>2019-04-30T10:40:23Z</time>
      </trkpt>
      <trkpt lat="43.45958" lon="4.49553">
        <ele>51.906</ele>
        <time>2019-04-30T10:40:33Z</time>
      </trkpt>
      <trkpt lat="43.45959" lon="4.49569">
        <ele>51.651</ele>
        <time>2019-04-30T10:40:44Z</time>
      </trkpt>
      <trkpt lat="43.45963" lon="4.49589">
        <ele>51.443</ele>
        <time>2019-04-30T10:40:54Z</time>
      </trkpt>
      <trkpt lat="43.45971" lon="4.49601">
        <ele>51.298</ele>
        <time>2019-04-30T10:41:05Z</time>
      </trkpt>
      <trkpt lat="43.45977" lon="4.4961">
        <ele>51.126</ele>
        <time>2019-04-30T10:41:16Z</time>
      </trkpt>
      <trkpt lat="43.4599" lon="4.49625">
        <ele>50.661</ele>
        <time>2019-04-30T10:41:27Z</time>
      </trkpt>
      <trkpt lat="43.46016" lon="4.49652">
        <ele>50.777</ele>
        <time>2019-04-30T10:41:38Z</time>
      </trkpt>
      <trkpt lat="43.46043" lon="4.49679">
        <ele>50.508</ele>
        <time>2019-04-30T10:41:49Z</time>
      </trkpt>
      <trkpt lat="43.46068" lon="4.49699">
        <ele>50.09</ele>
        <time>2019-04-30T10:42:00Z</time>
      </trkpt>
      <trkpt lat="43.46095" lon="4.49728">
        <ele>49.93</ele>
        <time>2019-04-30T10:42:11Z</time>
      </trkpt>
      <trkpt lat="43.4612" lon="4.49764">
        <ele>50.012</ele>
        <time>2019-04-30T10:42:22Z</time>
      </trkpt>
      <trkpt lat="43.46139" lon="4.49804">
        <ele>50.063</ele>
        <time>2019-04-30T10:42:33Z</time>
      </trkpt>
      <trkpt lat="43.46152" lon="4.49852">
        <ele>50.284</ele>
        <time>2019-04-30T10:42:44Z</time>
      </trkpt>
      <trkpt lat="43.46157" lon="4.49908">
        <ele>51.063</ele>
        <time>2019-04-30T10:42:55Z</time>
      </trkpt>
      <trkpt lat="43.46155" lon="4.4996">
        <ele>51.191</ele>
        <time>2019-04-30T10:43:06Z</time>
      </trkpt>
      <trkpt lat="43.46144" lon="4.50017">
        <ele>51.205</ele>
        <time>2019-04-30T10:43:17Z</time>
      </trkpt>
      <trkpt lat="43.46131" lon="4.50071">
        <ele>51.842</ele>
        <time>2019-04-30T10:43:27Z</time>
      </trkpt>
      <trkpt lat="43.46117" lon="4.50133">
        <ele>52.117</ele>
        <time>2019-04-30T10:43:38Z</time>
      </trkpt>
      <trkpt lat="43.46106" lon="4.50188">
        <ele>50.715</ele>
        <time>2019-04-30T10:43:48Z</time>
      </trkpt>
      <trkpt lat="43.461" lon="4.5025">
        <ele>49.024</ele>
        <time>2019-04-30T10:43:59Z</time>
      </trkpt>
      <trkpt lat="43.46099" lon="4.50309">
        <ele>49.045</ele>
        <time>2019-04-30T10:44:09Z</time>
      </trkpt>
      <trkpt lat="43.46102" lon="4.5037">
        <ele>50.507</ele>
        <time>2019-04-30T10:44:20Z</time>
      </trkpt>
      <trkpt lat="43.4611" lon="4.50425">
        <ele>51.196</ele>
        <time>2019-04-30T10:44:30Z</time>
      </trkpt>
      <trkpt lat="43.46117" lon="4.50485">
        <ele>52.199</ele>
        <time>2019-04-30T10:44:41Z</time>
      </trkpt>
      <trkpt lat="43.46124" lon="4.50544">
        <ele>52.603</ele>
        <time>2019-04-30T10:44:52Z</time>
      </trkpt>
      <trkpt lat="43.46129" lon="4.50594">
        <ele>52.658</ele>
        <time>2019-04-30T10:45:02Z</time>
      </trkpt>
      <trkpt lat="43.46132" lon="4.50621">
        <ele>52.634</ele>
        <time>2019-04-30T10:45:13Z</time>
      </trkpt>
      <trkpt lat="43.46133" lon="4.50638">
        <ele>51.817</ele>
        <time>2019-04-30T10:45:23Z</time>
      </trkpt>
      <trkpt lat="43.46135" lon="4.50653">
        <ele>51.69</ele>
        <time>2019-04-30T10:45:34Z</time>
      </trkpt>
      <trkpt lat="43.46139" lon="4.50671">
        <ele>51.76</ele>
        <time>2019-04-30T10:45:45Z</time>
      </trkpt>
      <trkpt lat="43.46139" lon="4.50682">
        <ele>51.801</ele>
        <time>2019-04-30T10:45:56Z</time>
      </trkpt>
      <trkpt lat="43.46145" lon="4.50721">
        <ele>51.791</ele>
        <time>2019-04-30T10:46:06Z</time>
      </trkpt>
      <trkpt lat="43.46151" lon="4.50764">
        <ele>51.761</ele>
        <time>2019-04-30T10:46:17Z</time>
      </trkpt>
      <trkpt lat="43.46156" lon="4.50798">
        <ele>51.765</ele>
        <time>2019-04-30T10:46:28Z</time>
      </trkpt>
      <trkpt lat="43.46158" lon="4.50841">
        <ele>51.854</ele>
        <time>2019-04-30T10:46:39Z</time>
      </trkpt>
      <trkpt lat="43.46164" lon="4.50886">
        <ele>51.983</ele>
        <time>2019-04-30T10:46:50Z</time>
      </trkpt>
      <trkpt lat="43.4617" lon="4.50931">
        <ele>52.168</ele>
        <time>2019-04-30T10:47:01Z</time>
      </trkpt>
      <trkpt lat="43.46177" lon="4.50982">
        <ele>52.334</ele>
        <time>2019-04-30T10:47:12Z</time>
      </trkpt>
      <trkpt lat="43.46183" lon="4.51035">
        <ele>52.303</ele>
        <time>2019-04-30T10:47:23Z</time>
      </trkpt>
      <trkpt lat="43.46189" lon="4.5109">
        <ele>51.901</ele>
        <time>2019-04-30T10:47:34Z</time>
      </trkpt>
      <trkpt lat="43.46195" lon="4.5114">
        <ele>51.748</ele>
        <time>2019-04-30T10:47:44Z</time>
      </trkpt>
      <trkpt lat="43.46202" lon="4.51195">
        <ele>51.475</ele>
        <time>2019-04-30T10:47:55Z</time>
      </trkpt>
      <trkpt lat="43.46212" lon="4.51245">
        <ele>51.31</ele>
        <time>2019-04-30T10:48:05Z</time>
      </trkpt>
      <trkpt lat="43.46225" lon="4.51303">
        <ele>51.635</ele>
        <time>2019-04-30T10:48:16Z</time>
      </trkpt>
      <trkpt lat="43.4624" lon="4.5135">
        <ele>51.8</ele>
        <time>2019-04-30T10:48:26Z</time>
      </trkpt>
      <trkpt lat="43.4626" lon="4.51398">
        <ele>51.299</ele>
        <time>2019-04-30T10:48:37Z</time>
      </trkpt>
      <trkpt lat="43.46279" lon="4.51444">
        <ele>51.167</ele>
        <time>2019-04-30T10:48:48Z</time>
      </trkpt>
      <trkpt lat="43.46296" lon="4.51491">
        <ele>50.972</ele>
        <time>2019-04-30T10:48:58Z</time>
      </trkpt>
      <trkpt lat="43.46314" lon="4.51535">
        <ele>51.15</ele>
        <time>2019-04-30T10:49:08Z</time>
      </trkpt>
      <trkpt lat="43.46332" lon="4.51585">
        <ele>51.183</ele>
        <time>2019-04-30T10:49:19Z</time>
      </trkpt>
      <trkpt lat="43.4635" lon="4.51636">
        <ele>51.03</ele>
        <time>2019-04-30T10:49:29Z</time>
      </trkpt>
      <trkpt lat="43.46368" lon="4.51684">
        <ele>49.469</ele>
        <time>2019-04-30T10:49:39Z</time>
      </trkpt>
      <trkpt lat="43.46389" lon="4.51736">
        <ele>49.168</ele>
        <time>2019-04-30T10:49:50Z</time>
      </trkpt>
      <trkpt lat="43.46408" lon="4.51789">
        <ele>51.003</ele>
        <time>2019-04-30T10:50:01Z</time>
      </trkpt>
      <trkpt lat="43.46427" lon="4.51839">
        <ele>51.561</ele>
        <time>2019-04-30T10:50:12Z</time>
      </trkpt>
      <trkpt lat="43.46446" lon="4.5189">
        <ele>50.893</ele>
        <time>2019-04-30T10:50:23Z</time>
      </trkpt>
      <trkpt lat="43.46461" lon="4.51938">
        <ele>50.283</ele>
        <time>2019-04-30T10:50:34Z</time>
      </trkpt>
      <trkpt lat="43.46473" lon="4.51992">
        <ele>48.276</ele>
        <time>2019-04-30T10:50:45Z</time>
      </trkpt>
      <trkpt lat="43.4648" lon="4.52046">
        <ele>46.924</ele>
        <time>2019-04-30T10:50:55Z</time>
      </trkpt>
      <trkpt lat="43.46488" lon="4.52106">
        <ele>50.309</ele>
        <time>2019-04-30T10:51:06Z</time>
      </trkpt>
      <trkpt lat="43.46489" lon="4.52166">
        <ele>50.52</ele>
        <time>2019-04-30T10:51:17Z</time>
      </trkpt>
      <trkpt lat="43.46486" lon="4.52221">
        <ele>50.866</ele>
        <time>2019-04-30T10:51:28Z</time>
      </trkpt>
      <trkpt lat="43.46481" lon="4.52274">
        <ele>47.959</ele>
        <time>2019-04-30T10:51:38Z</time>
      </trkpt>
      <trkpt lat="43.46477" lon="4.52335">
        <ele>46.675</ele>
        <time>2019-04-30T10:51:49Z</time>
      </trkpt>
      <trkpt lat="43.46476" lon="4.52349">
        <ele>46.578</ele>
        <time>2019-04-30T10:51:59Z</time>
      </trkpt>
      <trkpt lat="43.46476" lon="4.52349">
        <ele>46.573</ele>
        <time>2019-04-30T10:52:10Z</time>
      </trkpt>
      <trkpt lat="43.46476" lon="4.52349">
        <ele>46.577</ele>
        <time>2019-04-30T10:52:20Z</time>
      </trkpt>
      <trkpt lat="43.46476" lon="4.52349">
        <ele>46.638</ele>
        <time>2019-04-30T10:52:31Z</time>
      </trkpt>
      <trkpt lat="43.46477" lon="4.52349">
        <ele>46.76</ele>
        <time>2019-04-30T10:52:42Z</time>
      </trkpt>
      <trkpt lat="43.46477" lon="4.52349">
        <ele>46.825</ele>
        <time>2019-04-30T10:52:52Z</time>
      </trkpt>
      <trkpt lat="43.46477" lon="4.52348">
        <ele>46.792</ele>
        <time>2019-04-30T10:53:03Z</time>
      </trkpt>
      <trkpt lat="43.46477" lon="4.52369">
        <ele>47.189</ele>
        <time>2019-04-30T10:53:13Z</time>
      </trkpt>
      <trkpt lat="43.46475" lon="4.52418">
        <ele>47.832</ele>
        <time>2019-04-30T10:53:23Z</time>
      </trkpt>
      <trkpt lat="43.46472" lon="4.52476">
        <ele>49.758</ele>
        <time>2019-04-30T10:53:34Z</time>
      </trkpt>
      <trkpt lat="43.46469" lon="4.5252">
        <ele>49.389</ele>
        <time>2019-04-30T10:53:45Z</time>
      </trkpt>
      <trkpt lat="43.46469" lon="4.52519">
        <ele>49.398</ele>
        <time>2019-04-30T10:53:57Z</time>
      </trkpt>
      <trkpt lat="43.46467" lon="4.52521">
        <ele>49.984</ele>
        <time>2019-04-30T10:54:07Z</time>
      </trkpt>
      <trkpt lat="43.46467" lon="4.52521">
        <ele>49.647</ele>
        <time>2019-04-30T10:54:18Z</time>
      </trkpt>
      <trkpt lat="43.46468" lon="4.52519">
        <ele>49.659</ele>
        <time>2019-04-30T10:54:28Z</time>
      </trkpt>
      <trkpt lat="43.46468" lon="4.52519">
        <ele>49.67</ele>
        <time>2019-04-30T10:54:38Z</time>
      </trkpt>
      <trkpt lat="43.46468" lon="4.52519">
        <ele>49.637</ele>
        <time>2019-04-30T10:54:48Z</time>
      </trkpt>
      <trkpt lat="43.46468" lon="4.5252">
        <ele>49.619</ele>
        <time>2019-04-30T10:54:59Z</time>
      </trkpt>
      <trkpt lat="43.46467" lon="4.52524">
        <ele>49.311</ele>
        <time>2019-04-30T10:55:09Z</time>
      </trkpt>
      <trkpt lat="43.46465" lon="4.52568">
        <ele>48.785</ele>
        <time>2019-04-30T10:55:19Z</time>
      </trkpt>
      <trkpt lat="43.46461" lon="4.52623">
        <ele>48.587</ele>
        <time>2019-04-30T10:55:30Z</time>
      </trkpt>
      <trkpt lat="43.46457" lon="4.5268">
        <ele>47.218</ele>
        <time>2019-04-30T10:55:41Z</time>
      </trkpt>
      <trkpt lat="43.46454" lon="4.5274">
        <ele>46.113</ele>
        <time>2019-04-30T10:55:52Z</time>
      </trkpt>
      <trkpt lat="43.4645" lon="4.52794">
        <ele>45.536</ele>
        <time>2019-04-30T10:56:02Z</time>
      </trkpt>
      <trkpt lat="43.46447" lon="4.52852">
        <ele>45.891</ele>
        <time>2019-04-30T10:56:13Z</time>
      </trkpt>
      <trkpt lat="43.46443" lon="4.52908">
        <ele>45.899</ele>
        <time>2019-04-30T10:56:24Z</time>
      </trkpt>
      <trkpt lat="43.4644" lon="4.52962">
        <ele>45.962</ele>
        <time>2019-04-30T10:56:35Z</time>
      </trkpt>
      <trkpt lat="43.46438" lon="4.53012">
        <ele>45.87</ele>
        <time>2019-04-30T10:56:45Z</time>
      </trkpt>
      <trkpt lat="43.46435" lon="4.5307">
        <ele>45.337</ele>
        <time>2019-04-30T10:56:56Z</time>
      </trkpt>
      <trkpt lat="43.46431" lon="4.53126">
        <ele>44.748</ele>
        <time>2019-04-30T10:57:07Z</time>
      </trkpt>
      <trkpt lat="43.46426" lon="4.53182">
        <ele>45.414</ele>
        <time>2019-04-30T10:57:17Z</time>
      </trkpt>
      <trkpt lat="43.46416" lon="4.53244">
        <ele>46.691</ele>
        <time>2019-04-30T10:57:28Z</time>
      </trkpt>
      <trkpt lat="43.46403" lon="4.53301">
        <ele>47.021</ele>
        <time>2019-04-30T10:57:38Z</time>
      </trkpt>
      <trkpt lat="43.46385" lon="4.53362">
        <ele>45.963</ele>
        <time>2019-04-30T10:57:49Z</time>
      </trkpt>
      <trkpt lat="43.46367" lon="4.5342">
        <ele>45.929</ele>
        <time>2019-04-30T10:57:59Z</time>
      </trkpt>
      <trkpt lat="43.46348" lon="4.53485">
        <ele>45.811</ele>
        <time>2019-04-30T10:58:09Z</time>
      </trkpt>
      <trkpt lat="43.46327" lon="4.53558">
        <ele>45.914</ele>
        <time>2019-04-30T10:58:20Z</time>
      </trkpt>
      <trkpt lat="43.46307" lon="4.53629">
        <ele>46.337</ele>
        <time>2019-04-30T10:58:31Z</time>
      </trkpt>
      <trkpt lat="43.46287" lon="4.53694">
        <ele>47.47</ele>
        <time>2019-04-30T10:58:41Z</time>
      </trkpt>
      <trkpt lat="43.46267" lon="4.53768">
        <ele>48.008</ele>
        <time>2019-04-30T10:58:52Z</time>
      </trkpt>
      <trkpt lat="43.46244" lon="4.53836">
        <ele>48.019</ele>
        <time>2019-04-30T10:59:03Z</time>
      </trkpt>
      <trkpt lat="43.46213" lon="4.53899">
        <ele>47.325</ele>
        <time>2019-04-30T10:59:14Z</time>
      </trkpt>
      <trkpt lat="43.46178" lon="4.53961">
        <ele>47.252</ele>
        <time>2019-04-30T10:59:25Z</time>
      </trkpt>
      <trkpt lat="43.46145" lon="4.54021">
        <ele>47.19</ele>
        <time>2019-04-30T10:59:35Z</time>
      </trkpt>
      <trkpt lat="43.46112" lon="4.54079">
        <ele>46.742</ele>
        <time>2019-04-30T10:59:45Z</time>
      </trkpt>
      <trkpt lat="43.46078" lon="4.54139">
        <ele>47.493</ele>
        <time>2019-04-30T10:59:56Z</time>
      </trkpt>
      <trkpt lat="43.46045" lon="4.54199">
        <ele>50.293</ele>
        <time>2019-04-30T11:00:07Z</time>
      </trkpt>
      <trkpt lat="43.4601" lon="4.5426">
        <ele>50.316</ele>
        <time>2019-04-30T11:00:18Z</time>
      </trkpt>
      <trkpt lat="43.45978" lon="4.54318">
        <ele>50.27</ele>
        <time>2019-04-30T11:00:29Z</time>
      </trkpt>
      <trkpt lat="43.45949" lon="4.54369">
        <ele>50.275</ele>
        <time>2019-04-30T11:00:39Z</time>
      </trkpt>
      <trkpt lat="43.45917" lon="4.54424">
        <ele>50.632</ele>
        <time>2019-04-30T11:00:50Z</time>
      </trkpt>
      <trkpt lat="43.45888" lon="4.54477">
        <ele>50.718</ele>
        <time>2019-04-30T11:01:00Z</time>
      </trkpt>
      <trkpt lat="43.45858" lon="4.5454">
        <ele>48.932</ele>
        <time>2019-04-30T11:01:11Z</time>
      </trkpt>
      <trkpt lat="43.45834" lon="4.54606">
        <ele>48.573</ele>
        <time>2019-04-30T11:01:22Z</time>
      </trkpt>
      <trkpt lat="43.45818" lon="4.54667">
        <ele>48.239</ele>
        <time>2019-04-30T11:01:33Z</time>
      </trkpt>
      <trkpt lat="43.4581" lon="4.54713">
        <ele>48.16</ele>
        <time>2019-04-30T11:01:43Z</time>
      </trkpt>
      <trkpt lat="43.45801" lon="4.54774">
        <ele>48.779</ele>
        <time>2019-04-30T11:01:54Z</time>
      </trkpt>
      <trkpt lat="43.45797" lon="4.54835">
        <ele>48.771</ele>
        <time>2019-04-30T11:02:05Z</time>
      </trkpt>
      <trkpt lat="43.45798" lon="4.5489">
        <ele>48.394</ele>
        <time>2019-04-30T11:02:15Z</time>
      </trkpt>
      <trkpt lat="43.45797" lon="4.5495">
        <ele>48.335</ele>
        <time>2019-04-30T11:02:26Z</time>
      </trkpt>
      <trkpt lat="43.45798" lon="4.55008">
        <ele>48.373</ele>
        <time>2019-04-30T11:02:37Z</time>
      </trkpt>
      <trkpt lat="43.45798" lon="4.55061">
        <ele>47.875</ele>
        <time>2019-04-30T11:02:47Z</time>
      </trkpt>
      <trkpt lat="43.45799" lon="4.55123">
        <ele>47.318</ele>
        <time>2019-04-30T11:02:58Z</time>
      </trkpt>
      <trkpt lat="43.45798" lon="4.55178">
        <ele>47.305</ele>
        <time>2019-04-30T11:03:08Z</time>
      </trkpt>
      <trkpt lat="43.45794" lon="4.55238">
        <ele>47.191</ele>
        <time>2019-04-30T11:03:19Z</time>
      </trkpt>
      <trkpt lat="43.45788" lon="4.55292">
        <ele>47.75</ele>
        <time>2019-04-30T11:03:29Z</time>
      </trkpt>
      <trkpt lat="43.45774" lon="4.55353">
        <ele>48.369</ele>
        <time>2019-04-30T11:03:40Z</time>
      </trkpt>
      <trkpt lat="43.45759" lon="4.55407">
        <ele>47.855</ele>
        <time>2019-04-30T11:03:50Z</time>
      </trkpt>
      <trkpt lat="43.45743" lon="4.55468">
        <ele>47.705</ele>
        <time>2019-04-30T11:04:01Z</time>
      </trkpt>
      <trkpt lat="43.45727" lon="4.55528">
        <ele>48.888</ele>
        <time>2019-04-30T11:04:12Z</time>
      </trkpt>
      <trkpt lat="43.45711" lon="4.55584">
        <ele>50.21</ele>
        <time>2019-04-30T11:04:23Z</time>
      </trkpt>
      <trkpt lat="43.45695" lon="4.55642">
        <ele>50.358</ele>
        <time>2019-04-30T11:04:34Z</time>
      </trkpt>
      <trkpt lat="43.45678" lon="4.55696">
        <ele>51.824</ele>
        <time>2019-04-30T11:04:44Z</time>
      </trkpt>
      <trkpt lat="43.45661" lon="4.55755">
        <ele>51.817</ele>
        <time>2019-04-30T11:04:55Z</time>
      </trkpt>
      <trkpt lat="43.45645" lon="4.55814">
        <ele>51.215</ele>
        <time>2019-04-30T11:05:06Z</time>
      </trkpt>
      <trkpt lat="43.45632" lon="4.55866">
        <ele>50.45</ele>
        <time>2019-04-30T11:05:16Z</time>
      </trkpt>
      <trkpt lat="43.45617" lon="4.55925">
        <ele>49.797</ele>
        <time>2019-04-30T11:05:27Z</time>
      </trkpt>
      <trkpt lat="43.456" lon="4.55974">
        <ele>50.199</ele>
        <time>2019-04-30T11:05:37Z</time>
      </trkpt>
      <trkpt lat="43.45584" lon="4.5603">
        <ele>50.506</ele>
        <time>2019-04-30T11:05:48Z</time>
      </trkpt>
      <trkpt lat="43.45569" lon="4.56084">
        <ele>49.99</ele>
        <time>2019-04-30T11:05:58Z</time>
      </trkpt>
      <trkpt lat="43.45552" lon="4.56143">
        <ele>49.963</ele>
        <time>2019-04-30T11:06:09Z</time>
      </trkpt>
      <trkpt lat="43.45536" lon="4.56204">
        <ele>49.625</ele>
        <time>2019-04-30T11:06:20Z</time>
      </trkpt>
      <trkpt lat="43.4552" lon="4.56261">
        <ele>49.67</ele>
        <time>2019-04-30T11:06:31Z</time>
      </trkpt>
      <trkpt lat="43.45505" lon="4.56318">
        <ele>49.22</ele>
        <time>2019-04-30T11:06:42Z</time>
      </trkpt>
      <trkpt lat="43.45494" lon="4.56376">
        <ele>48.808</ele>
        <time>2019-04-30T11:06:53Z</time>
      </trkpt>
      <trkpt lat="43.45487" lon="4.56432">
        <ele>47.729</ele>
        <time>2019-04-30T11:07:04Z</time>
      </trkpt>
      <trkpt lat="43.45484" lon="4.56489">
        <ele>43.877</ele>
        <time>2019-04-30T11:07:15Z</time>
      </trkpt>
      <trkpt lat="43.45481" lon="4.5655">
        <ele>43.277</ele>
        <time>2019-04-30T11:07:26Z</time>
      </trkpt>
      <trkpt lat="43.45479" lon="4.56608">
        <ele>43.492</ele>
        <time>2019-04-30T11:07:37Z</time>
      </trkpt>
      <trkpt lat="43.45476" lon="4.56669">
        <ele>42.148</ele>
        <time>2019-04-30T11:07:48Z</time>
      </trkpt>
      <trkpt lat="43.45474" lon="4.56728">
        <ele>45.552</ele>
        <time>2019-04-30T11:07:58Z</time>
      </trkpt>
      <trkpt lat="43.45472" lon="4.56791">
        <ele>48</ele>
        <time>2019-04-30T11:08:09Z</time>
      </trkpt>
      <trkpt lat="43.45469" lon="4.56854">
        <ele>47.599</ele>
        <time>2019-04-30T11:08:20Z</time>
      </trkpt>
      <trkpt lat="43.45466" lon="4.56906">
        <ele>43.082</ele>
        <time>2019-04-30T11:08:30Z</time>
      </trkpt>
      <trkpt lat="43.45464" lon="4.56964">
        <ele>41.86</ele>
        <time>2019-04-30T11:08:41Z</time>
      </trkpt>
      <trkpt lat="43.45463" lon="4.57006">
        <ele>42.318</ele>
        <time>2019-04-30T11:08:51Z</time>
      </trkpt>
      <trkpt lat="43.45463" lon="4.57011">
        <ele>42.391</ele>
        <time>2019-04-30T11:09:02Z</time>
      </trkpt>
      <trkpt lat="43.45463" lon="4.57011">
        <ele>42.418</ele>
        <time>2019-04-30T11:09:13Z</time>
      </trkpt>
      <trkpt lat="43.4546" lon="4.57019">
        <ele>42.855</ele>
        <time>2019-04-30T11:09:23Z</time>
      </trkpt>
      <trkpt lat="43.4546" lon="4.57019">
        <ele>42.897</ele>
        <time>2019-04-30T11:09:33Z</time>
      </trkpt>
      <trkpt lat="43.4546" lon="4.57019">
        <ele>42.996</ele>
        <time>2019-04-30T11:09:43Z</time>
      </trkpt>
      <trkpt lat="43.4546" lon="4.57019">
        <ele>43.087</ele>
        <time>2019-04-30T11:09:53Z</time>
      </trkpt>
      <trkpt lat="43.45461" lon="4.57019">
        <ele>43.175</ele>
        <time>2019-04-30T11:10:04Z</time>
      </trkpt>
      <trkpt lat="43.45461" lon="4.57019">
        <ele>43.257</ele>
        <time>2019-04-30T11:10:15Z</time>
      </trkpt>
      <trkpt lat="43.45461" lon="4.57019">
        <ele>43.343</ele>
        <time>2019-04-30T11:10:26Z</time>
      </trkpt>
      <trkpt lat="43.45461" lon="4.57019">
        <ele>43.441</ele>
        <time>2019-04-30T11:10:36Z</time>
      </trkpt>
      <trkpt lat="43.45461" lon="4.57019">
        <ele>43.561</ele>
        <time>2019-04-30T11:10:47Z</time>
      </trkpt>
      <trkpt lat="43.45461" lon="4.57019">
        <ele>43.671</ele>
        <time>2019-04-30T11:10:57Z</time>
      </trkpt>
      <trkpt lat="43.45461" lon="4.57019">
        <ele>43.786</ele>
        <time>2019-04-30T11:11:08Z</time>
      </trkpt>
      <trkpt lat="43.45461" lon="4.57019">
        <ele>43.89</ele>
        <time>2019-04-30T11:11:19Z</time>
      </trkpt>
      <trkpt lat="43.45461" lon="4.57019">
        <ele>43.992</ele>
        <time>2019-04-30T11:11:29Z</time>
      </trkpt>
      <trkpt lat="43.45461" lon="4.57019">
        <ele>44.102</ele>
        <time>2019-04-30T11:11:40Z</time>
      </trkpt>
      <trkpt lat="43.45461" lon="4.57019">
        <ele>44.202</ele>
        <time>2019-04-30T11:11:51Z</time>
      </trkpt>
      <trkpt lat="43.45461" lon="4.57019">
        <ele>44.287</ele>
        <time>2019-04-30T11:12:01Z</time>
      </trkpt>
      <trkpt lat="43.45461" lon="4.57019">
        <ele>44.382</ele>
        <time>2019-04-30T11:12:12Z</time>
      </trkpt>
      <trkpt lat="43.45461" lon="4.57019">
        <ele>44.463</ele>
        <time>2019-04-30T11:12:22Z</time>
      </trkpt>
      <trkpt lat="43.45461" lon="4.57019">
        <ele>44.557</ele>
        <time>2019-04-30T11:12:33Z</time>
      </trkpt>
      <trkpt lat="43.45461" lon="4.57019">
        <ele>44.625</ele>
        <time>2019-04-30T11:12:43Z</time>
      </trkpt>
      <trkpt lat="43.45461" lon="4.57019">
        <ele>44.7</ele>
        <time>2019-04-30T11:12:54Z</time>
      </trkpt>
      <trkpt lat="43.45461" lon="4.57019">
        <ele>44.755</ele>
        <time>2019-04-30T11:13:05Z</time>
      </trkpt>
      <trkpt lat="43.45461" lon="4.57019">
        <ele>44.786</ele>
        <time>2019-04-30T11:13:15Z</time>
      </trkpt>
      <trkpt lat="43.45461" lon="4.57019">
        <ele>44.806</ele>
        <time>2019-04-30T11:13:26Z</time>
      </trkpt>
      <trkpt lat="43.45461" lon="4.57019">
        <ele>44.826</ele>
        <time>2019-04-30T11:13:36Z</time>
      </trkpt>
      <trkpt lat="43.45461" lon="4.57019">
        <ele>44.854</ele>
        <time>2019-04-30T11:13:46Z</time>
      </trkpt>
      <trkpt lat="43.45462" lon="4.57023">
        <ele>45.014</ele>
        <time>2019-04-30T11:13:57Z</time>
      </trkpt>
      <trkpt lat="43.45461" lon="4.57021">
        <ele>45.016</ele>
        <time>2019-04-30T11:14:08Z</time>
      </trkpt>
      <trkpt lat="43.45461" lon="4.57025">
        <ele>45.834</ele>
        <time>2019-04-30T11:14:18Z</time>
      </trkpt>
      <trkpt lat="43.45461" lon="4.57039">
        <ele>46.203</ele>
        <time>2019-04-30T11:14:29Z</time>
      </trkpt>
      <trkpt lat="43.45461" lon="4.57077">
        <ele>46.867</ele>
        <time>2019-04-30T11:14:40Z</time>
      </trkpt>
      <trkpt lat="43.45459" lon="4.57126">
        <ele>47.417</ele>
        <time>2019-04-30T11:14:51Z</time>
      </trkpt>
      <trkpt lat="43.45456" lon="4.57178">
        <ele>47.787</ele>
        <time>2019-04-30T11:15:02Z</time>
      </trkpt>
      <trkpt lat="43.45453" lon="4.57232">
        <ele>46.387</ele>
        <time>2019-04-30T11:15:13Z</time>
      </trkpt>
      <trkpt lat="43.45451" lon="4.5729">
        <ele>46.632</ele>
        <time>2019-04-30T11:15:24Z</time>
      </trkpt>
      <trkpt lat="43.45449" lon="4.57341">
        <ele>48.516</ele>
        <time>2019-04-30T11:15:34Z</time>
      </trkpt>
      <trkpt lat="43.45447" lon="4.57392">
        <ele>48.502</ele>
        <time>2019-04-30T11:15:44Z</time>
      </trkpt>
      <trkpt lat="43.45444" lon="4.57448">
        <ele>47.982</ele>
        <time>2019-04-30T11:15:55Z</time>
      </trkpt>
      <trkpt lat="43.45442" lon="4.57498">
        <ele>47.386</ele>
        <time>2019-04-30T11:16:05Z</time>
      </trkpt>
      <trkpt lat="43.4544" lon="4.57552">
        <ele>47.271</ele>
        <time>2019-04-30T11:16:16Z</time>
      </trkpt>
      <trkpt lat="43.45438" lon="4.57604">
        <ele>47.394</ele>
        <time>2019-04-30T11:16:26Z</time>
      </trkpt>
      <trkpt lat="43.45436" lon="4.57655">
        <ele>47.376</ele>
        <time>2019-04-30T11:16:36Z</time>
      </trkpt>
      <trkpt lat="43.45432" lon="4.5771">
        <ele>46.185</ele>
        <time>2019-04-30T11:16:47Z</time>
      </trkpt>
      <trkpt lat="43.4543" lon="4.57767">
        <ele>42.803</ele>
        <time>2019-04-30T11:16:58Z</time>
      </trkpt>
      <trkpt lat="43.45428" lon="4.57825">
        <ele>41.113</ele>
        <time>2019-04-30T11:17:09Z</time>
      </trkpt>
      <trkpt lat="43.45426" lon="4.57877">
        <ele>41.294</ele>
        <time>2019-04-30T11:17:19Z</time>
      </trkpt>
      <trkpt lat="43.45424" lon="4.57933">
        <ele>42.875</ele>
        <time>2019-04-30T11:17:30Z</time>
      </trkpt>
      <trkpt lat="43.45422" lon="4.57989">
        <ele>44.291</ele>
        <time>2019-04-30T11:17:41Z</time>
      </trkpt>
      <trkpt lat="43.45421" lon="4.5804">
        <ele>46.684</ele>
        <time>2019-04-30T11:17:51Z</time>
      </trkpt>
      <trkpt lat="43.45418" lon="4.58092">
        <ele>46.514</ele>
        <time>2019-04-30T11:18:01Z</time>
      </trkpt>
      <trkpt lat="43.45415" lon="4.58151">
        <ele>47.685</ele>
        <time>2019-04-30T11:18:12Z</time>
      </trkpt>
      <trkpt lat="43.45412" lon="4.58207">
        <ele>46.608</ele>
        <time>2019-04-30T11:18:22Z</time>
      </trkpt>
      <trkpt lat="43.45411" lon="4.5827">
        <ele>46.883</ele>
        <time>2019-04-30T11:18:33Z</time>
      </trkpt>
      <trkpt lat="43.45409" lon="4.58332">
        <ele>47.111</ele>
        <time>2019-04-30T11:18:44Z</time>
      </trkpt>
      <trkpt lat="43.45409" lon="4.58371">
        <ele>47.177</ele>
        <time>2019-04-30T11:18:54Z</time>
      </trkpt>
      <trkpt lat="43.45404" lon="4.584">
        <ele>47.489</ele>
        <time>2019-04-30T11:19:05Z</time>
      </trkpt>
      <trkpt lat="43.45404" lon="4.584">
        <ele>47.537</ele>
        <time>2019-04-30T11:19:16Z</time>
      </trkpt>
      <trkpt lat="43.45404" lon="4.584">
        <ele>47.575</ele>
        <time>2019-04-30T11:19:27Z</time>
      </trkpt>
      <trkpt lat="43.45404" lon="4.58401">
        <ele>47.586</ele>
        <time>2019-04-30T11:19:38Z</time>
      </trkpt>
      <trkpt lat="43.45404" lon="4.58401">
        <ele>47.578</ele>
        <time>2019-04-30T11:19:48Z</time>
      </trkpt>
      <trkpt lat="43.45401" lon="4.58404">
        <ele>47.472</ele>
        <time>2019-04-30T11:19:59Z</time>
      </trkpt>
      <trkpt lat="43.45381" lon="4.58406">
        <ele>47.195</ele>
        <time>2019-04-30T11:20:10Z</time>
      </trkpt>
      <trkpt lat="43.45359" lon="4.58409">
        <ele>47.084</ele>
        <time>2019-04-30T11:20:20Z</time>
      </trkpt>
      <trkpt lat="43.45338" lon="4.5841">
        <ele>46.938</ele>
        <time>2019-04-30T11:20:30Z</time>
      </trkpt>
      <trkpt lat="43.45328" lon="4.58411">
        <ele>46.901</ele>
        <time>2019-04-30T11:20:41Z</time>
      </trkpt>
      <trkpt lat="43.45328" lon="4.58411">
        <ele>46.869</ele>
        <time>2019-04-30T11:20:52Z</time>
      </trkpt>
      <trkpt lat="43.4533" lon="4.58411">
        <ele>46.84</ele>
        <time>2019-04-30T11:21:03Z</time>
      </trkpt>
      <trkpt lat="43.45331" lon="4.58412">
        <ele>46.873</ele>
        <time>2019-04-30T11:21:13Z</time>
      </trkpt>
      <trkpt lat="43.4533" lon="4.58411">
        <ele>46.741</ele>
        <time>2019-04-30T11:21:23Z</time>
      </trkpt>
      <trkpt lat="43.45329" lon="4.58411">
        <ele>46.682</ele>
        <time>2019-04-30T11:21:33Z</time>
      </trkpt>
      <trkpt lat="43.45331" lon="4.58418">
        <ele>46.531</ele>
        <time>2019-04-30T11:21:44Z</time>
      </trkpt>
      <trkpt lat="43.45331" lon="4.58418">
        <ele>46.383</ele>
        <time>2019-04-30T11:21:54Z</time>
      </trkpt>
      <trkpt lat="43.4533" lon="4.58419">
        <ele>46.205</ele>
        <time>2019-04-30T11:22:05Z</time>
      </trkpt>
      <trkpt lat="43.4533" lon="4.58419">
        <ele>46.192</ele>
        <time>2019-04-30T11:22:16Z</time>
      </trkpt>
      <trkpt lat="43.4533" lon="4.58419">
        <ele>46.235</ele>
        <time>2019-04-30T11:22:26Z</time>
      </trkpt>
      <trkpt lat="43.4533" lon="4.58419">
        <ele>46.257</ele>
        <time>2019-04-30T11:22:36Z</time>
      </trkpt>
      <trkpt lat="43.4533" lon="4.58419">
        <ele>46.249</ele>
        <time>2019-04-30T11:22:47Z</time>
      </trkpt>
      <trkpt lat="43.4533" lon="4.58419">
        <ele>46.248</ele>
        <time>2019-04-30T11:22:57Z</time>
      </trkpt>
      <trkpt lat="43.4533" lon="4.58419">
        <ele>46.222</ele>
        <time>2019-04-30T11:23:08Z</time>
      </trkpt>
      <trkpt lat="43.4533" lon="4.58419">
        <ele>46.212</ele>
        <time>2019-04-30T11:23:19Z</time>
      </trkpt>
      <trkpt lat="43.4533" lon="4.58419">
        <ele>46.183</ele>
        <time>2019-04-30T11:23:30Z</time>
      </trkpt>
      <trkpt lat="43.4533" lon="4.58419">
        <ele>46.159</ele>
        <time>2019-04-30T11:23:41Z</time>
      </trkpt>
      <trkpt lat="43.4533" lon="4.58419">
        <ele>46.144</ele>
        <time>2019-04-30T11:23:51Z</time>
      </trkpt>
      <trkpt lat="43.4533" lon="4.58419">
        <ele>46.128</ele>
        <time>2019-04-30T11:24:02Z</time>
      </trkpt>
      <trkpt lat="43.4533" lon="4.58419">
        <ele>46.114</ele>
        <time>2019-04-30T11:24:13Z</time>
      </trkpt>
      <trkpt lat="43.4533" lon="4.58419">
        <ele>46.097</ele>
        <time>2019-04-30T11:24:23Z</time>
      </trkpt>
      <trkpt lat="43.4533" lon="4.58419">
        <ele>46.076</ele>
        <time>2019-04-30T11:24:34Z</time>
      </trkpt>
      <trkpt lat="43.4533" lon="4.58419">
        <ele>46.053</ele>
        <time>2019-04-30T11:24:45Z</time>
      </trkpt>
      <trkpt lat="43.4533" lon="4.58419">
        <ele>46.02</ele>
        <time>2019-04-30T11:24:55Z</time>
      </trkpt>
      <trkpt lat="43.4533" lon="4.58419">
        <ele>45.991</ele>
        <time>2019-04-30T11:25:06Z</time>
      </trkpt>
      <trkpt lat="43.4533" lon="4.58419">
        <ele>45.977</ele>
        <time>2019-04-30T11:25:17Z</time>
      </trkpt>
      <trkpt lat="43.4533" lon="4.58419">
        <ele>45.972</ele>
        <time>2019-04-30T11:25:28Z</time>
      </trkpt>
      <trkpt lat="43.4533" lon="4.58419">
        <ele>45.965</ele>
        <time>2019-04-30T11:25:39Z</time>
      </trkpt>
      <trkpt lat="43.4533" lon="4.58419">
        <ele>45.958</ele>
        <time>2019-04-30T11:25:50Z</time>
      </trkpt>
      <trkpt lat="43.4533" lon="4.58419">
        <ele>45.95</ele>
        <time>2019-04-30T11:26:00Z</time>
      </trkpt>
      <trkpt lat="43.4533" lon="4.58419">
        <ele>45.944</ele>
        <time>2019-04-30T11:26:10Z</time>
      </trkpt>
      <trkpt lat="43.4533" lon="4.58419">
        <ele>45.934</ele>
        <time>2019-04-30T11:26:21Z</time>
      </trkpt>
      <trkpt lat="43.4533" lon="4.58419">
        <ele>45.923</ele>
        <time>2019-04-30T11:26:31Z</time>
      </trkpt>
      <trkpt lat="43.4533" lon="4.58419">
        <ele>45.914</ele>
        <time>2019-04-30T11:26:41Z</time>
      </trkpt>
      <trkpt lat="43.4533" lon="4.58419">
        <ele>45.906</ele>
        <time>2019-04-30T11:26:52Z</time>
      </trkpt>
      <trkpt lat="43.4533" lon="4.58419">
        <ele>45.887</ele>
        <time>2019-04-30T11:27:03Z</time>
      </trkpt>
      <trkpt lat="43.4533" lon="4.58419">
        <ele>45.872</ele>
        <time>2019-04-30T11:27:14Z</time>
      </trkpt>
      <trkpt lat="43.4533" lon="4.58419">
        <ele>45.86</ele>
        <time>2019-04-30T11:27:24Z</time>
      </trkpt>
      <trkpt lat="43.4533" lon="4.58419">
        <ele>45.847</ele>
        <time>2019-04-30T11:27:35Z</time>
      </trkpt>
      <trkpt lat="43.4533" lon="4.58419">
        <ele>45.83</ele>
        <time>2019-04-30T11:27:45Z</time>
      </trkpt>
      <trkpt lat="43.4533" lon="4.58419">
        <ele>45.82</ele>
        <time>2019-04-30T11:27:56Z</time>
      </trkpt>
      <trkpt lat="43.4533" lon="4.58418">
        <ele>45.79</ele>
        <time>2019-04-30T11:28:07Z</time>
      </trkpt>
      <trkpt lat="43.4533" lon="4.58418">
        <ele>45.77</ele>
        <time>2019-04-30T11:28:18Z</time>
      </trkpt>
      <trkpt lat="43.4533" lon="4.58418">
        <ele>45.767</ele>
        <time>2019-04-30T11:28:29Z</time>
      </trkpt>
      <trkpt lat="43.4533" lon="4.58418">
        <ele>45.723</ele>
        <time>2019-04-30T11:28:39Z</time>
      </trkpt>
      <trkpt lat="43.4533" lon="4.58418">
        <ele>45.696</ele>
        <time>2019-04-30T11:28:49Z</time>
      </trkpt>
      <trkpt lat="43.4533" lon="4.58418">
        <ele>45.685</ele>
        <time>2019-04-30T11:29:00Z</time>
      </trkpt>
      <trkpt lat="43.4533" lon="4.58419">
        <ele>45.682</ele>
        <time>2019-04-30T11:29:11Z</time>
      </trkpt>
      <trkpt lat="43.4533" lon="4.58418">
        <ele>45.675</ele>
        <time>2019-04-30T11:29:22Z</time>
      </trkpt>
      <trkpt lat="43.4533" lon="4.58418">
        <ele>45.65</ele>
        <time>2019-04-30T11:29:33Z</time>
      </trkpt>
      <trkpt lat="43.4533" lon="4.58418">
        <ele>45.629</ele>
        <time>2019-04-30T11:29:44Z</time>
      </trkpt>
      <trkpt lat="43.4533" lon="4.58418">
        <ele>45.63</ele>
        <time>2019-04-30T11:29:55Z</time>
      </trkpt>
      <trkpt lat="43.4533" lon="4.58418">
        <ele>45.629</ele>
        <time>2019-04-30T11:30:05Z</time>
      </trkpt>
      <trkpt lat="43.4533" lon="4.58419">
        <ele>45.641</ele>
        <time>2019-04-30T11:30:16Z</time>
      </trkpt>
      <trkpt lat="43.4533" lon="4.58419">
        <ele>45.66</ele>
        <time>2019-04-30T11:30:27Z</time>
      </trkpt>
      <trkpt lat="43.4533" lon="4.58419">
        <ele>45.675</ele>
        <time>2019-04-30T11:30:38Z</time>
      </trkpt>
      <trkpt lat="43.4533" lon="4.58419">
        <ele>45.689</ele>
        <time>2019-04-30T11:30:49Z</time>
      </trkpt>
      <trkpt lat="43.4533" lon="4.58419">
        <ele>45.707</ele>
        <time>2019-04-30T11:31:00Z</time>
      </trkpt>
      <trkpt lat="43.4533" lon="4.58419">
        <ele>45.723</ele>
        <time>2019-04-30T11:31:11Z</time>
      </trkpt>
      <trkpt lat="43.4533" lon="4.58419">
        <ele>45.728</ele>
        <time>2019-04-30T11:31:22Z</time>
      </trkpt>
      <trkpt lat="43.4533" lon="4.58419">
        <ele>45.721</ele>
        <time>2019-04-30T11:31:32Z</time>
      </trkpt>
      <trkpt lat="43.4533" lon="4.58419">
        <ele>45.705</ele>
        <time>2019-04-30T11:31:43Z</time>
      </trkpt>
      <trkpt lat="43.4533" lon="4.58419">
        <ele>45.689</ele>
        <time>2019-04-30T11:31:53Z</time>
      </trkpt>
      <trkpt lat="43.4533" lon="4.58419">
        <ele>45.675</ele>
        <time>2019-04-30T11:32:04Z</time>
      </trkpt>
      <trkpt lat="43.4533" lon="4.58419">
        <ele>45.663</ele>
        <time>2019-04-30T11:32:14Z</time>
      </trkpt>
      <trkpt lat="43.4533" lon="4.58419">
        <ele>45.654</ele>
        <time>2019-04-30T11:32:25Z</time>
      </trkpt>
      <trkpt lat="43.4533" lon="4.58418">
        <ele>45.645</ele>
        <time>2019-04-30T11:32:35Z</time>
      </trkpt>
      <trkpt lat="43.4533" lon="4.58418">
        <ele>45.636</ele>
        <time>2019-04-30T11:32:46Z</time>
      </trkpt>
      <trkpt lat="43.4533" lon="4.58418">
        <ele>45.629</ele>
        <time>2019-04-30T11:32:57Z</time>
      </trkpt>
      <trkpt lat="43.4533" lon="4.58418">
        <ele>45.617</ele>
        <time>2019-04-30T11:33:08Z</time>
      </trkpt>
      <trkpt lat="43.4533" lon="4.58418">
        <ele>45.605</ele>
        <time>2019-04-30T11:33:19Z</time>
      </trkpt>
      <trkpt lat="43.4533" lon="4.58418">
        <ele>45.581</ele>
        <time>2019-04-30T11:33:30Z</time>
      </trkpt>
      <trkpt lat="43.4533" lon="4.58418">
        <ele>45.558</ele>
        <time>2019-04-30T11:33:41Z</time>
      </trkpt>
      <trkpt lat="43.4533" lon="4.58418">
        <ele>45.544</ele>
        <time>2019-04-30T11:33:51Z</time>
      </trkpt>
      <trkpt lat="43.4533" lon="4.58418">
        <ele>45.53</ele>
        <time>2019-04-30T11:34:02Z</time>
      </trkpt>
      <trkpt lat="43.4533" lon="4.58418">
        <ele>45.514</ele>
        <time>2019-04-30T11:34:13Z</time>
      </trkpt>
      <trkpt lat="43.4533" lon="4.58418">
        <ele>45.496</ele>
        <time>2019-04-30T11:34:23Z</time>
      </trkpt>
      <trkpt lat="43.4533" lon="4.58418">
        <ele>45.477</ele>
        <time>2019-04-30T11:34:33Z</time>
      </trkpt>
      <trkpt lat="43.4533" lon="4.58418">
        <ele>45.451</ele>
        <time>2019-04-30T11:34:44Z</time>
      </trkpt>
      <trkpt lat="43.4533" lon="4.58418">
        <ele>45.422</ele>
        <time>2019-04-30T11:34:54Z</time>
      </trkpt>
      <trkpt lat="43.4533" lon="4.58418">
        <ele>45.378</ele>
        <time>2019-04-30T11:35:05Z</time>
      </trkpt>
      <trkpt lat="43.4533" lon="4.58418">
        <ele>45.333</ele>
        <time>2019-04-30T11:35:15Z</time>
      </trkpt>
      <trkpt lat="43.4533" lon="4.58418">
        <ele>45.293</ele>
        <time>2019-04-30T11:35:26Z</time>
      </trkpt>
      <trkpt lat="43.4533" lon="4.58418">
        <ele>45.259</ele>
        <time>2019-04-30T11:35:37Z</time>
      </trkpt>
      <trkpt lat="43.4533" lon="4.58418">
        <ele>45.229</ele>
        <time>2019-04-30T11:35:48Z</time>
      </trkpt>
      <trkpt lat="43.4533" lon="4.58418">
        <ele>45.201</ele>
        <time>2019-04-30T11:35:59Z</time>
      </trkpt>
      <trkpt lat="43.4533" lon="4.58418">
        <ele>45.164</ele>
        <time>2019-04-30T11:36:09Z</time>
      </trkpt>
      <trkpt lat="43.4533" lon="4.58418">
        <ele>45.125</ele>
        <time>2019-04-30T11:36:20Z</time>
      </trkpt>
      <trkpt lat="43.4533" lon="4.58419">
        <ele>45.097</ele>
        <time>2019-04-30T11:36:31Z</time>
      </trkpt>
      <trkpt lat="43.4533" lon="4.58419">
        <ele>45.068</ele>
        <time>2019-04-30T11:36:41Z</time>
      </trkpt>
      <trkpt lat="43.4533" lon="4.58419">
        <ele>45.034</ele>
        <time>2019-04-30T11:36:52Z</time>
      </trkpt>
      <trkpt lat="43.4533" lon="4.58419">
        <ele>44.996</ele>
        <time>2019-04-30T11:37:02Z</time>
      </trkpt>
      <trkpt lat="43.4533" lon="4.58419">
        <ele>44.955</ele>
        <time>2019-04-30T11:37:12Z</time>
      </trkpt>
      <trkpt lat="43.4533" lon="4.58419">
        <ele>44.921</ele>
        <time>2019-04-30T11:37:23Z</time>
      </trkpt>
      <trkpt lat="43.4533" lon="4.58419">
        <ele>44.894</ele>
        <time>2019-04-30T11:37:34Z</time>
      </trkpt>
      <trkpt lat="43.4533" lon="4.58419">
        <ele>44.876</ele>
        <time>2019-04-30T11:37:45Z</time>
      </trkpt>
      <trkpt lat="43.4533" lon="4.58419">
        <ele>44.856</ele>
        <time>2019-04-30T11:37:56Z</time>
      </trkpt>
      <trkpt lat="43.4533" lon="4.58419">
        <ele>44.81</ele>
        <time>2019-04-30T11:38:07Z</time>
      </trkpt>
      <trkpt lat="43.4533" lon="4.58418">
        <ele>44.739</ele>
        <time>2019-04-30T11:38:18Z</time>
      </trkpt>
      <trkpt lat="43.4533" lon="4.58418">
        <ele>44.677</ele>
        <time>2019-04-30T11:38:29Z</time>
      </trkpt>
      <trkpt lat="43.4533" lon="4.58419">
        <ele>44.668</ele>
        <time>2019-04-30T11:38:40Z</time>
      </trkpt>
      <trkpt lat="43.4533" lon="4.58419">
        <ele>44.666</ele>
        <time>2019-04-30T11:38:51Z</time>
      </trkpt>
      <trkpt lat="43.4533" lon="4.58419">
        <ele>44.662</ele>
        <time>2019-04-30T11:39:01Z</time>
      </trkpt>
      <trkpt lat="43.4533" lon="4.58419">
        <ele>44.631</ele>
        <time>2019-04-30T11:39:12Z</time>
      </trkpt>
      <trkpt lat="43.4533" lon="4.58419">
        <ele>44.62</ele>
        <time>2019-04-30T11:39:22Z</time>
      </trkpt>
      <trkpt lat="43.4533" lon="4.58419">
        <ele>44.625</ele>
        <time>2019-04-30T11:39:33Z</time>
      </trkpt>
      <trkpt lat="43.4533" lon="4.58419">
        <ele>44.629</ele>
        <time>2019-04-30T11:39:44Z</time>
      </trkpt>
      <trkpt lat="43.4533" lon="4.58419">
        <ele>44.629</ele>
        <time>2019-04-30T11:39:55Z</time>
      </trkpt>
      <trkpt lat="43.45329" lon="4.58419">
        <ele>44.626</ele>
        <time>2019-04-30T11:40:06Z</time>
      </trkpt>
      <trkpt lat="43.45329" lon="4.58419">
        <ele>44.613</ele>
        <time>2019-04-30T11:40:16Z</time>
      </trkpt>
      <trkpt lat="43.45331" lon="4.58417">
        <ele>44.445</ele>
        <time>2019-04-30T11:40:27Z</time>
      </trkpt>
      <trkpt lat="43.4533" lon="4.58417">
        <ele>43.576</ele>
        <time>2019-04-30T11:40:37Z</time>
      </trkpt>
      <trkpt lat="43.4533" lon="4.58418">
        <ele>43.488</ele>
        <time>2019-04-30T11:40:48Z</time>
      </trkpt>
      <trkpt lat="43.4533" lon="4.58419">
        <ele>43.567</ele>
        <time>2019-04-30T11:40:58Z</time>
      </trkpt>
      <trkpt lat="43.4533" lon="4.58419">
        <ele>43.584</ele>
        <time>2019-04-30T11:41:09Z</time>
      </trkpt>
      <trkpt lat="43.4533" lon="4.58419">
        <ele>43.607</ele>
        <time>2019-04-30T11:41:20Z</time>
      </trkpt>
      <trkpt lat="43.4533" lon="4.5842">
        <ele>43.696</ele>
        <time>2019-04-30T11:41:30Z</time>
      </trkpt>
      <trkpt lat="43.4533" lon="4.5842">
        <ele>43.757</ele>
        <time>2019-04-30T11:41:41Z</time>
      </trkpt>
      <trkpt lat="43.4533" lon="4.5842">
        <ele>43.827</ele>
        <time>2019-04-30T11:41:52Z</time>
      </trkpt>
      <trkpt lat="43.4533" lon="4.5842">
        <ele>43.98</ele>
        <time>2019-04-30T11:42:02Z</time>
      </trkpt>
      <trkpt lat="43.45331" lon="4.58419">
        <ele>44.044</ele>
        <time>2019-04-30T11:42:12Z</time>
      </trkpt>
      <trkpt lat="43.45331" lon="4.58419">
        <ele>44.098</ele>
        <time>2019-04-30T11:42:23Z</time>
      </trkpt>
      <trkpt lat="43.45331" lon="4.58419">
        <ele>44.127</ele>
        <time>2019-04-30T11:42:33Z</time>
      </trkpt>
      <trkpt lat="43.45331" lon="4.58419">
        <ele>44.146</ele>
        <time>2019-04-30T11:42:44Z</time>
      </trkpt>
      <trkpt lat="43.45331" lon="4.58419">
        <ele>44.164</ele>
        <time>2019-04-30T11:42:55Z</time>
      </trkpt>
      <trkpt lat="43.45331" lon="4.58419">
        <ele>44.186</ele>
        <time>2019-04-30T11:43:06Z</time>
      </trkpt>
      <trkpt lat="43.45331" lon="4.58418">
        <ele>44.195</ele>
        <time>2019-04-30T11:43:17Z</time>
      </trkpt>
      <trkpt lat="43.4533" lon="4.58418">
        <ele>44.205</ele>
        <time>2019-04-30T11:43:28Z</time>
      </trkpt>
      <trkpt lat="43.45332" lon="4.58417">
        <ele>44.595</ele>
        <time>2019-04-30T11:43:39Z</time>
      </trkpt>
      <trkpt lat="43.45331" lon="4.58419">
        <ele>44.592</ele>
        <time>2019-04-30T11:43:50Z</time>
      </trkpt>
      <trkpt lat="43.45331" lon="4.58419">
        <ele>44.611</ele>
        <time>2019-04-30T11:44:01Z</time>
      </trkpt>
      <trkpt lat="43.45331" lon="4.58419">
        <ele>44.641</ele>
        <time>2019-04-30T11:44:11Z</time>
      </trkpt>
      <trkpt lat="43.4533" lon="4.58419">
        <ele>44.664</ele>
        <time>2019-04-30T11:44:22Z</time>
      </trkpt>
      <trkpt lat="43.4533" lon="4.58419">
        <ele>44.68</ele>
        <time>2019-04-30T11:44:33Z</time>
      </trkpt>
      <trkpt lat="43.4533" lon="4.58418">
        <ele>44.674</ele>
        <time>2019-04-30T11:44:44Z</time>
      </trkpt>
      <trkpt lat="43.4533" lon="4.58418">
        <ele>44.664</ele>
        <time>2019-04-30T11:44:55Z</time>
      </trkpt>
      <trkpt lat="43.4533" lon="4.58418">
        <ele>44.655</ele>
        <time>2019-04-30T11:45:06Z</time>
      </trkpt>
      <trkpt lat="43.4533" lon="4.58418">
        <ele>44.651</ele>
        <time>2019-04-30T11:45:17Z</time>
      </trkpt>
      <trkpt lat="43.4533" lon="4.58418">
        <ele>44.623</ele>
        <time>2019-04-30T11:45:27Z</time>
      </trkpt>
      <trkpt lat="43.4533" lon="4.58418">
        <ele>44.632</ele>
        <time>2019-04-30T11:45:37Z</time>
      </trkpt>
      <trkpt lat="43.4533" lon="4.58418">
        <ele>44.645</ele>
        <time>2019-04-30T11:45:48Z</time>
      </trkpt>
      <trkpt lat="43.4533" lon="4.58418">
        <ele>44.643</ele>
        <time>2019-04-30T11:45:58Z</time>
      </trkpt>
      <trkpt lat="43.4533" lon="4.58418">
        <ele>44.645</ele>
        <time>2019-04-30T11:46:09Z</time>
      </trkpt>
      <trkpt lat="43.4533" lon="4.58418">
        <ele>44.648</ele>
        <time>2019-04-30T11:46:20Z</time>
      </trkpt>
      <trkpt lat="43.4533" lon="4.58418">
        <ele>44.645</ele>
        <time>2019-04-30T11:46:30Z</time>
      </trkpt>
      <trkpt lat="43.4533" lon="4.58418">
        <ele>44.642</ele>
        <time>2019-04-30T11:46:41Z</time>
      </trkpt>
      <trkpt lat="43.4533" lon="4.58418">
        <ele>44.641</ele>
        <time>2019-04-30T11:46:51Z</time>
      </trkpt>
      <trkpt lat="43.4533" lon="4.58418">
        <ele>44.645</ele>
        <time>2019-04-30T11:47:02Z</time>
      </trkpt>
      <trkpt lat="43.4533" lon="4.58418">
        <ele>44.652</ele>
        <time>2019-04-30T11:47:12Z</time>
      </trkpt>
      <trkpt lat="43.4533" lon="4.58418">
        <ele>44.665</ele>
        <time>2019-04-30T11:47:22Z</time>
      </trkpt>
      <trkpt lat="43.4533" lon="4.58418">
        <ele>44.673</ele>
        <time>2019-04-30T11:47:32Z</time>
      </trkpt>
      <trkpt lat="43.4533" lon="4.58418">
        <ele>44.676</ele>
        <time>2019-04-30T11:47:43Z</time>
      </trkpt>
      <trkpt lat="43.4533" lon="4.58418">
        <ele>44.69</ele>
        <time>2019-04-30T11:47:54Z</time>
      </trkpt>
      <trkpt lat="43.4533" lon="4.58418">
        <ele>44.708</ele>
        <time>2019-04-30T11:48:04Z</time>
      </trkpt>
      <trkpt lat="43.4533" lon="4.58419">
        <ele>44.727</ele>
        <time>2019-04-30T11:48:14Z</time>
      </trkpt>
      <trkpt lat="43.4533" lon="4.58419">
        <ele>44.743</ele>
        <time>2019-04-30T11:48:25Z</time>
      </trkpt>
      <trkpt lat="43.4533" lon="4.58418">
        <ele>44.747</ele>
        <time>2019-04-30T11:48:35Z</time>
      </trkpt>
      <trkpt lat="43.4533" lon="4.58418">
        <ele>44.747</ele>
        <time>2019-04-30T11:48:46Z</time>
      </trkpt>
      <trkpt lat="43.4533" lon="4.58418">
        <ele>44.744</ele>
        <time>2019-04-30T11:48:57Z</time>
      </trkpt>
      <trkpt lat="43.4533" lon="4.58418">
        <ele>44.738</ele>
        <time>2019-04-30T11:49:07Z</time>
      </trkpt>
      <trkpt lat="43.4533" lon="4.58418">
        <ele>44.734</ele>
        <time>2019-04-30T11:49:18Z</time>
      </trkpt>
      <trkpt lat="43.4533" lon="4.58418">
        <ele>44.725</ele>
        <time>2019-04-30T11:49:29Z</time>
      </trkpt>
      <trkpt lat="43.4533" lon="4.58418">
        <ele>44.717</ele>
        <time>2019-04-30T11:49:40Z</time>
      </trkpt>
      <trkpt lat="43.4533" lon="4.58418">
        <ele>44.694</ele>
        <time>2019-04-30T11:49:51Z</time>
      </trkpt>
      <trkpt lat="43.45329" lon="4.58418">
        <ele>44.603</ele>
        <time>2019-04-30T11:50:01Z</time>
      </trkpt>
      <trkpt lat="43.45329" lon="4.58418">
        <ele>44.517</ele>
        <time>2019-04-30T11:50:12Z</time>
      </trkpt>
      <trkpt lat="43.45329" lon="4.58418">
        <ele>44.477</ele>
        <time>2019-04-30T11:50:23Z</time>
      </trkpt>
      <trkpt lat="43.45329" lon="4.58418">
        <ele>44.467</ele>
        <time>2019-04-30T11:50:34Z</time>
      </trkpt>
      <trkpt lat="43.4533" lon="4.58418">
        <ele>44.46</ele>
        <time>2019-04-30T11:50:45Z</time>
      </trkpt>
      <trkpt lat="43.4533" lon="4.58418">
        <ele>44.472</ele>
        <time>2019-04-30T11:50:55Z</time>
      </trkpt>
      <trkpt lat="43.4533" lon="4.58418">
        <ele>44.475</ele>
        <time>2019-04-30T11:51:05Z</time>
      </trkpt>
      <trkpt lat="43.4533" lon="4.58418">
        <ele>44.47</ele>
        <time>2019-04-30T11:51:15Z</time>
      </trkpt>
      <trkpt lat="43.4533" lon="4.58418">
        <ele>44.469</ele>
        <time>2019-04-30T11:51:26Z</time>
      </trkpt>
      <trkpt lat="43.4533" lon="4.58418">
        <ele>44.478</ele>
        <time>2019-04-30T11:51:37Z</time>
      </trkpt>
      <trkpt lat="43.4533" lon="4.58418">
        <ele>44.493</ele>
        <time>2019-04-30T11:51:48Z</time>
      </trkpt>
      <trkpt lat="43.4533" lon="4.58418">
        <ele>44.492</ele>
        <time>2019-04-30T11:51:59Z</time>
      </trkpt>
      <trkpt lat="43.4533" lon="4.58418">
        <ele>44.473</ele>
        <time>2019-04-30T11:52:09Z</time>
      </trkpt>
      <trkpt lat="43.4533" lon="4.58418">
        <ele>44.447</ele>
        <time>2019-04-30T11:52:20Z</time>
      </trkpt>
      <trkpt lat="43.45329" lon="4.58418">
        <ele>44.451</ele>
        <time>2019-04-30T11:52:30Z</time>
      </trkpt>
      <trkpt lat="43.45329" lon="4.58418">
        <ele>44.445</ele>
        <time>2019-04-30T11:52:40Z</time>
      </trkpt>
      <trkpt lat="43.4533" lon="4.58418">
        <ele>44.442</ele>
        <time>2019-04-30T11:52:51Z</time>
      </trkpt>
      <trkpt lat="43.4533" lon="4.58418">
        <ele>44.457</ele>
        <time>2019-04-30T11:53:01Z</time>
      </trkpt>
      <trkpt lat="43.4533" lon="4.58418">
        <ele>44.469</ele>
        <time>2019-04-30T11:53:12Z</time>
      </trkpt>
      <trkpt lat="43.4533" lon="4.58418">
        <ele>44.486</ele>
        <time>2019-04-30T11:53:23Z</time>
      </trkpt>
      <trkpt lat="43.4533" lon="4.58418">
        <ele>44.512</ele>
        <time>2019-04-30T11:53:34Z</time>
      </trkpt>
      <trkpt lat="43.45326" lon="4.58418">
        <ele>45.183</ele>
        <time>2019-04-30T11:53:45Z</time>
      </trkpt>
      <trkpt lat="43.45329" lon="4.58419">
        <ele>44.916</ele>
        <time>2019-04-30T11:53:56Z</time>
      </trkpt>
      <trkpt lat="43.45329" lon="4.58414">
        <ele>43.973</ele>
        <time>2019-04-30T11:54:07Z</time>
      </trkpt>
      <trkpt lat="43.45329" lon="4.58412">
        <ele>44.03</ele>
        <time>2019-04-30T11:54:17Z</time>
      </trkpt>
      <trkpt lat="43.4533" lon="4.58416">
        <ele>44.242</ele>
        <time>2019-04-30T11:54:27Z</time>
      </trkpt>
      <trkpt lat="43.45326" lon="4.58412">
        <ele>44.895</ele>
        <time>2019-04-30T11:54:38Z</time>
      </trkpt>
      <trkpt lat="43.45327" lon="4.58413">
        <ele>44.966</ele>
        <time>2019-04-30T11:54:48Z</time>
      </trkpt>
      <trkpt lat="43.45328" lon="4.58412">
        <ele>45.013</ele>
        <time>2019-04-30T11:54:59Z</time>
      </trkpt>
      <trkpt lat="43.45328" lon="4.58412">
        <ele>45.051</ele>
        <time>2019-04-30T11:55:09Z</time>
      </trkpt>
      <trkpt lat="43.45328" lon="4.58412">
        <ele>45.093</ele>
        <time>2019-04-30T11:55:20Z</time>
      </trkpt>
      <trkpt lat="43.45328" lon="4.58412">
        <ele>45.136</ele>
        <time>2019-04-30T11:55:30Z</time>
      </trkpt>
      <trkpt lat="43.45328" lon="4.58412">
        <ele>45.196</ele>
        <time>2019-04-30T11:55:40Z</time>
      </trkpt>
      <trkpt lat="43.45328" lon="4.58412">
        <ele>45.263</ele>
        <time>2019-04-30T11:55:50Z</time>
      </trkpt>
      <trkpt lat="43.45333" lon="4.58411">
        <ele>45.715</ele>
        <time>2019-04-30T11:56:00Z</time>
      </trkpt>
      <trkpt lat="43.45339" lon="4.58412">
        <ele>46.096</ele>
        <time>2019-04-30T11:56:11Z</time>
      </trkpt>
      <trkpt lat="43.45362" lon="4.58407">
        <ele>46.56</ele>
        <time>2019-04-30T11:56:22Z</time>
      </trkpt>
      <trkpt lat="43.45392" lon="4.58406">
        <ele>46.789</ele>
        <time>2019-04-30T11:56:33Z</time>
      </trkpt>
      <trkpt lat="43.45404" lon="4.5844">
        <ele>47.197</ele>
        <time>2019-04-30T11:56:44Z</time>
      </trkpt>
      <trkpt lat="43.45402" lon="4.58472">
        <ele>47.386</ele>
        <time>2019-04-30T11:56:55Z</time>
      </trkpt>
      <trkpt lat="43.45397" lon="4.58512">
        <ele>46.678</ele>
        <time>2019-04-30T11:57:05Z</time>
      </trkpt>
      <trkpt lat="43.4539" lon="4.5855">
        <ele>46.053</ele>
        <time>2019-04-30T11:57:15Z</time>
      </trkpt>
      <trkpt lat="43.45379" lon="4.58592">
        <ele>46.188</ele>
        <time>2019-04-30T11:57:26Z</time>
      </trkpt>
      <trkpt lat="43.45363" lon="4.58634">
        <ele>46.548</ele>
        <time>2019-04-30T11:57:37Z</time>
      </trkpt>
      <trkpt lat="43.45343" lon="4.58676">
        <ele>46.338</ele>
        <time>2019-04-30T11:57:48Z</time>
      </trkpt>
      <trkpt lat="43.45324" lon="4.58716">
        <ele>46.494</ele>
        <time>2019-04-30T11:57:58Z</time>
      </trkpt>
      <trkpt lat="43.45309" lon="4.58751">
        <ele>46.635</ele>
        <time>2019-04-30T11:58:08Z</time>
      </trkpt>
      <trkpt lat="43.45296" lon="4.58774">
        <ele>46.233</ele>
        <time>2019-04-30T11:58:18Z</time>
      </trkpt>
      <trkpt lat="43.45296" lon="4.58773">
        <ele>46.234</ele>
        <time>2019-04-30T11:58:29Z</time>
      </trkpt>
      <trkpt lat="43.45295" lon="4.58773">
        <ele>46.154</ele>
        <time>2019-04-30T11:58:39Z</time>
      </trkpt>
      <trkpt lat="43.45295" lon="4.58773">
        <ele>46.127</ele>
        <time>2019-04-30T11:58:50Z</time>
      </trkpt>
      <trkpt lat="43.45294" lon="4.58775">
        <ele>45.954</ele>
        <time>2019-04-30T11:59:00Z</time>
      </trkpt>
      <trkpt lat="43.45282" lon="4.5881">
        <ele>45.925</ele>
        <time>2019-04-30T11:59:11Z</time>
      </trkpt>
      <trkpt lat="43.45263" lon="4.5885">
        <ele>45.58</ele>
        <time>2019-04-30T11:59:22Z</time>
      </trkpt>
      <trkpt lat="43.45246" lon="4.58889">
        <ele>45.116</ele>
        <time>2019-04-30T11:59:33Z</time>
      </trkpt>
      <trkpt lat="43.45226" lon="4.58934">
        <ele>44.679</ele>
        <time>2019-04-30T11:59:44Z</time>
      </trkpt>
      <trkpt lat="43.45207" lon="4.58977">
        <ele>44.753</ele>
        <time>2019-04-30T11:59:55Z</time>
      </trkpt>
      <trkpt lat="43.45191" lon="4.59014">
        <ele>45.053</ele>
        <time>2019-04-30T12:00:05Z</time>
      </trkpt>
      <trkpt lat="43.45173" lon="4.59052">
        <ele>45.322</ele>
        <time>2019-04-30T12:00:15Z</time>
      </trkpt>
      <trkpt lat="43.45153" lon="4.59096">
        <ele>46.489</ele>
        <time>2019-04-30T12:00:26Z</time>
      </trkpt>
      <trkpt lat="43.45136" lon="4.59134">
        <ele>46.362</ele>
        <time>2019-04-30T12:00:37Z</time>
      </trkpt>
      <trkpt lat="43.45117" lon="4.59175">
        <ele>46.429</ele>
        <time>2019-04-30T12:00:47Z</time>
      </trkpt>
      <trkpt lat="43.45097" lon="4.59221">
        <ele>46.658</ele>
        <time>2019-04-30T12:00:58Z</time>
      </trkpt>
      <trkpt lat="43.45077" lon="4.59266">
        <ele>46.845</ele>
        <time>2019-04-30T12:01:09Z</time>
      </trkpt>
      <trkpt lat="43.45058" lon="4.59308">
        <ele>47.027</ele>
        <time>2019-04-30T12:01:19Z</time>
      </trkpt>
      <trkpt lat="43.45037" lon="4.59353">
        <ele>46.996</ele>
        <time>2019-04-30T12:01:30Z</time>
      </trkpt>
      <trkpt lat="43.45017" lon="4.59397">
        <ele>46.528</ele>
        <time>2019-04-30T12:01:41Z</time>
      </trkpt>
      <trkpt lat="43.44997" lon="4.59443">
        <ele>47.243</ele>
        <time>2019-04-30T12:01:51Z</time>
      </trkpt>
      <trkpt lat="43.44977" lon="4.59489">
        <ele>46.948</ele>
        <time>2019-04-30T12:02:01Z</time>
      </trkpt>
      <trkpt lat="43.44954" lon="4.5954">
        <ele>47.364</ele>
        <time>2019-04-30T12:02:12Z</time>
      </trkpt>
      <trkpt lat="43.44931" lon="4.59591">
        <ele>47.55</ele>
        <time>2019-04-30T12:02:23Z</time>
      </trkpt>
      <trkpt lat="43.44907" lon="4.59645">
        <ele>47.598</ele>
        <time>2019-04-30T12:02:34Z</time>
      </trkpt>
      <trkpt lat="43.44885" lon="4.59693">
        <ele>48.026</ele>
        <time>2019-04-30T12:02:44Z</time>
      </trkpt>
      <trkpt lat="43.44862" lon="4.59746">
        <ele>48.12</ele>
        <time>2019-04-30T12:02:55Z</time>
      </trkpt>
      <trkpt lat="43.44842" lon="4.59792">
        <ele>48.338</ele>
        <time>2019-04-30T12:03:06Z</time>
      </trkpt>
      <trkpt lat="43.44819" lon="4.59841">
        <ele>48.676</ele>
        <time>2019-04-30T12:03:17Z</time>
      </trkpt>
      <trkpt lat="43.44797" lon="4.59889">
        <ele>48.822</ele>
        <time>2019-04-30T12:03:28Z</time>
      </trkpt>
      <trkpt lat="43.44778" lon="4.59935">
        <ele>48.55</ele>
        <time>2019-04-30T12:03:39Z</time>
      </trkpt>
      <trkpt lat="43.44756" lon="4.59982">
        <ele>47.174</ele>
        <time>2019-04-30T12:03:50Z</time>
      </trkpt>
      <trkpt lat="43.44736" lon="4.60027">
        <ele>45.682</ele>
        <time>2019-04-30T12:04:00Z</time>
      </trkpt>
      <trkpt lat="43.44714" lon="4.60076">
        <ele>44.937</ele>
        <time>2019-04-30T12:04:11Z</time>
      </trkpt>
      <trkpt lat="43.4469" lon="4.60128">
        <ele>45.012</ele>
        <time>2019-04-30T12:04:22Z</time>
      </trkpt>
      <trkpt lat="43.44667" lon="4.60182">
        <ele>45.334</ele>
        <time>2019-04-30T12:04:33Z</time>
      </trkpt>
      <trkpt lat="43.44642" lon="4.6023">
        <ele>45.202</ele>
        <time>2019-04-30T12:04:44Z</time>
      </trkpt>
      <trkpt lat="43.44621" lon="4.6028">
        <ele>45.383</ele>
        <time>2019-04-30T12:04:55Z</time>
      </trkpt>
      <trkpt lat="43.44612" lon="4.60305">
        <ele>45.916</ele>
        <time>2019-04-30T12:05:06Z</time>
      </trkpt>
      <trkpt lat="43.44611" lon="4.60308">
        <ele>46.033</ele>
        <time>2019-04-30T12:05:17Z</time>
      </trkpt>
      <trkpt lat="43.44612" lon="4.60305">
        <ele>46.056</ele>
        <time>2019-04-30T12:05:28Z</time>
      </trkpt>
      <trkpt lat="43.44612" lon="4.60305">
        <ele>46.059</ele>
        <time>2019-04-30T12:05:38Z</time>
      </trkpt>
      <trkpt lat="43.44612" lon="4.60306">
        <ele>46.043</ele>
        <time>2019-04-30T12:05:49Z</time>
      </trkpt>
      <trkpt lat="43.44613" lon="4.60303">
        <ele>46</ele>
        <time>2019-04-30T12:05:59Z</time>
      </trkpt>
      <trkpt lat="43.4461" lon="4.60309">
        <ele>45.957</ele>
        <time>2019-04-30T12:06:10Z</time>
      </trkpt>
      <trkpt lat="43.44593" lon="4.60346">
        <ele>45.84</ele>
        <time>2019-04-30T12:06:21Z</time>
      </trkpt>
      <trkpt lat="43.4457" lon="4.6039">
        <ele>45.795</ele>
        <time>2019-04-30T12:06:32Z</time>
      </trkpt>
      <trkpt lat="43.44549" lon="4.60438">
        <ele>47.401</ele>
        <time>2019-04-30T12:06:42Z</time>
      </trkpt>
      <trkpt lat="43.44528" lon="4.60485">
        <ele>45.818</ele>
        <time>2019-04-30T12:06:52Z</time>
      </trkpt>
      <trkpt lat="43.44506" lon="4.60531">
        <ele>44.34</ele>
        <time>2019-04-30T12:07:02Z</time>
      </trkpt>
      <trkpt lat="43.44483" lon="4.60583">
        <ele>44.595</ele>
        <time>2019-04-30T12:07:13Z</time>
      </trkpt>
      <trkpt lat="43.44462" lon="4.60631">
        <ele>44.559</ele>
        <time>2019-04-30T12:07:24Z</time>
      </trkpt>
      <trkpt lat="43.44442" lon="4.6068">
        <ele>42.2</ele>
        <time>2019-04-30T12:07:35Z</time>
      </trkpt>
      <trkpt lat="43.4442" lon="4.60728">
        <ele>42.559</ele>
        <time>2019-04-30T12:07:45Z</time>
      </trkpt>
      <trkpt lat="43.44397" lon="4.60779">
        <ele>43.988</ele>
        <time>2019-04-30T12:07:56Z</time>
      </trkpt>
      <trkpt lat="43.44374" lon="4.6083">
        <ele>44.414</ele>
        <time>2019-04-30T12:08:07Z</time>
      </trkpt>
      <trkpt lat="43.44353" lon="4.60877">
        <ele>44.213</ele>
        <time>2019-04-30T12:08:17Z</time>
      </trkpt>
      <trkpt lat="43.44332" lon="4.60924">
        <ele>44.219</ele>
        <time>2019-04-30T12:08:27Z</time>
      </trkpt>
      <trkpt lat="43.44308" lon="4.60977">
        <ele>46.65</ele>
        <time>2019-04-30T12:08:38Z</time>
      </trkpt>
      <trkpt lat="43.44283" lon="4.61025">
        <ele>46.146</ele>
        <time>2019-04-30T12:08:49Z</time>
      </trkpt>
      <trkpt lat="43.44258" lon="4.61066">
        <ele>45.608</ele>
        <time>2019-04-30T12:08:59Z</time>
      </trkpt>
      <trkpt lat="43.44233" lon="4.61103">
        <ele>45.1</ele>
        <time>2019-04-30T12:09:09Z</time>
      </trkpt>
      <trkpt lat="43.44204" lon="4.61136">
        <ele>45.352</ele>
        <time>2019-04-30T12:09:19Z</time>
      </trkpt>
      <trkpt lat="43.4417" lon="4.61168">
        <ele>45.742</ele>
        <time>2019-04-30T12:09:29Z</time>
      </trkpt>
      <trkpt lat="43.44131" lon="4.612">
        <ele>46.618</ele>
        <time>2019-04-30T12:09:40Z</time>
      </trkpt>
      <trkpt lat="43.44094" lon="4.6123">
        <ele>45.935</ele>
        <time>2019-04-30T12:09:50Z</time>
      </trkpt>
      <trkpt lat="43.44055" lon="4.6126">
        <ele>45.708</ele>
        <time>2019-04-30T12:10:01Z</time>
      </trkpt>
      <trkpt lat="43.44019" lon="4.61289">
        <ele>45.001</ele>
        <time>2019-04-30T12:10:11Z</time>
      </trkpt>
      <trkpt lat="43.43983" lon="4.6132">
        <ele>44.827</ele>
        <time>2019-04-30T12:10:22Z</time>
      </trkpt>
      <trkpt lat="43.43971" lon="4.61358">
        <ele>45.041</ele>
        <time>2019-04-30T12:10:32Z</time>
      </trkpt>
      <trkpt lat="43.43975" lon="4.61398">
        <ele>44.845</ele>
        <time>2019-04-30T12:10:43Z</time>
      </trkpt>
      <trkpt lat="43.43976" lon="4.61434">
        <ele>44.722</ele>
        <time>2019-04-30T12:10:54Z</time>
      </trkpt>
      <trkpt lat="43.43975" lon="4.61473">
        <ele>44.769</ele>
        <time>2019-04-30T12:11:05Z</time>
      </trkpt>
      <trkpt lat="43.43965" lon="4.61484">
        <ele>44.612</ele>
        <time>2019-04-30T12:11:15Z</time>
      </trkpt>
      <trkpt lat="43.43938" lon="4.61478">
        <ele>44.971</ele>
        <time>2019-04-30T12:11:26Z</time>
      </trkpt>
      <trkpt lat="43.43905" lon="4.61473">
        <ele>46.024</ele>
        <time>2019-04-30T12:11:37Z</time>
      </trkpt>
      <trkpt lat="43.43873" lon="4.6147">
        <ele>46.177</ele>
        <time>2019-04-30T12:11:47Z</time>
      </trkpt>
      <trkpt lat="43.4384" lon="4.61466">
        <ele>46.517</ele>
        <time>2019-04-30T12:11:57Z</time>
      </trkpt>
      <trkpt lat="43.43819" lon="4.61455">
        <ele>46.926</ele>
        <time>2019-04-30T12:12:07Z</time>
      </trkpt>
      <trkpt lat="43.43814" lon="4.61457">
        <ele>47.018</ele>
        <time>2019-04-30T12:12:18Z</time>
      </trkpt>
      <trkpt lat="43.43814" lon="4.61457">
        <ele>46.837</ele>
        <time>2019-04-30T12:12:29Z</time>
      </trkpt>
      <trkpt lat="43.43814" lon="4.61456">
        <ele>45.309</ele>
        <time>2019-04-30T12:12:39Z</time>
      </trkpt>
      <trkpt lat="43.43814" lon="4.61456">
        <ele>45.223</ele>
        <time>2019-04-30T12:12:50Z</time>
      </trkpt>
      <trkpt lat="43.43814" lon="4.61456">
        <ele>45.159</ele>
        <time>2019-04-30T12:13:00Z</time>
      </trkpt>
      <trkpt lat="43.43814" lon="4.61456">
        <ele>45.091</ele>
        <time>2019-04-30T12:13:11Z</time>
      </trkpt>
      <trkpt lat="43.43815" lon="4.61456">
        <ele>45.049</ele>
        <time>2019-04-30T12:13:21Z</time>
      </trkpt>
      <trkpt lat="43.43815" lon="4.61456">
        <ele>45.044</ele>
        <time>2019-04-30T12:13:32Z</time>
      </trkpt>
      <trkpt lat="43.43815" lon="4.61457">
        <ele>44.829</ele>
        <time>2019-04-30T12:13:42Z</time>
      </trkpt>
      <trkpt lat="43.43815" lon="4.61458">
        <ele>44.859</ele>
        <time>2019-04-30T12:13:52Z</time>
      </trkpt>
      <trkpt lat="43.43813" lon="4.61457">
        <ele>45.169</ele>
        <time>2019-04-30T12:14:03Z</time>
      </trkpt>
      <trkpt lat="43.4382" lon="4.61464">
        <ele>45.684</ele>
        <time>2019-04-30T12:14:14Z</time>
      </trkpt>
      <trkpt lat="43.4382" lon="4.61464">
        <ele>45.712</ele>
        <time>2019-04-30T12:14:24Z</time>
      </trkpt>
      <trkpt lat="43.4382" lon="4.61464">
        <ele>45.852</ele>
        <time>2019-04-30T12:14:34Z</time>
      </trkpt>
      <trkpt lat="43.43817" lon="4.61464">
        <ele>47.274</ele>
        <time>2019-04-30T12:14:45Z</time>
      </trkpt>
      <trkpt lat="43.43818" lon="4.61466">
        <ele>47.361</ele>
        <time>2019-04-30T12:14:55Z</time>
      </trkpt>
      <trkpt lat="43.43818" lon="4.61466">
        <ele>47.324</ele>
        <time>2019-04-30T12:15:06Z</time>
      </trkpt>
      <trkpt lat="43.43817" lon="4.61466">
        <ele>47.258</ele>
        <time>2019-04-30T12:15:17Z</time>
      </trkpt>
      <trkpt lat="43.43817" lon="4.61466">
        <ele>47.214</ele>
        <time>2019-04-30T12:15:27Z</time>
      </trkpt>
      <trkpt lat="43.43817" lon="4.61464">
        <ele>46.993</ele>
        <time>2019-04-30T12:15:37Z</time>
      </trkpt>
      <trkpt lat="43.43814" lon="4.6146">
        <ele>46.71</ele>
        <time>2019-04-30T12:15:48Z</time>
      </trkpt>
      <trkpt lat="43.43814" lon="4.61459">
        <ele>46.631</ele>
        <time>2019-04-30T12:15:59Z</time>
      </trkpt>
      <trkpt lat="43.43815" lon="4.6146">
        <ele>46.456</ele>
        <time>2019-04-30T12:16:10Z</time>
      </trkpt>
      <trkpt lat="43.43819" lon="4.61463">
        <ele>45.971</ele>
        <time>2019-04-30T12:16:21Z</time>
      </trkpt>
      <trkpt lat="43.43819" lon="4.61465">
        <ele>45.955</ele>
        <time>2019-04-30T12:16:31Z</time>
      </trkpt>
      <trkpt lat="43.43821" lon="4.61459">
        <ele>45.625</ele>
        <time>2019-04-30T12:16:42Z</time>
      </trkpt>
      <trkpt lat="43.43818" lon="4.6146">
        <ele>45.436</ele>
        <time>2019-04-30T12:16:52Z</time>
      </trkpt>
      <trkpt lat="43.43796" lon="4.61472">
        <ele>45.247</ele>
        <time>2019-04-30T12:17:02Z</time>
      </trkpt>
      <trkpt lat="43.43764" lon="4.61497">
        <ele>45.512</ele>
        <time>2019-04-30T12:17:13Z</time>
      </trkpt>
      <trkpt lat="43.43731" lon="4.61525">
        <ele>46.29</ele>
        <time>2019-04-30T12:17:23Z</time>
      </trkpt>
      <trkpt lat="43.43695" lon="4.61554">
        <ele>47.469</ele>
        <time>2019-04-30T12:17:34Z</time>
      </trkpt>
      <trkpt lat="43.43664" lon="4.61574">
        <ele>47.57</ele>
        <time>2019-04-30T12:17:45Z</time>
      </trkpt>
      <trkpt lat="43.43625" lon="4.61584">
        <ele>46.88</ele>
        <time>2019-04-30T12:17:56Z</time>
      </trkpt>
      <trkpt lat="43.4359" lon="4.61586">
        <ele>46.248</ele>
        <time>2019-04-30T12:18:07Z</time>
      </trkpt>
      <trkpt lat="43.43565" lon="4.61588">
        <ele>45.982</ele>
        <time>2019-04-30T12:18:18Z</time>
      </trkpt>
      <trkpt lat="43.43565" lon="4.61588">
        <ele>45.928</ele>
        <time>2019-04-30T12:18:28Z</time>
      </trkpt>
      <trkpt lat="43.43557" lon="4.6159">
        <ele>45.733</ele>
        <time>2019-04-30T12:18:39Z</time>
      </trkpt>
      <trkpt lat="43.43524" lon="4.61591">
        <ele>45.359</ele>
        <time>2019-04-30T12:18:49Z</time>
      </trkpt>
      <trkpt lat="43.4348" lon="4.61595">
        <ele>43.817</ele>
        <time>2019-04-30T12:19:00Z</time>
      </trkpt>
      <trkpt lat="43.43438" lon="4.61593">
        <ele>42.924</ele>
        <time>2019-04-30T12:19:11Z</time>
      </trkpt>
      <trkpt lat="43.434" lon="4.61591">
        <ele>43.349</ele>
        <time>2019-04-30T12:19:21Z</time>
      </trkpt>
      <trkpt lat="43.43358" lon="4.61589">
        <ele>43.331</ele>
        <time>2019-04-30T12:19:32Z</time>
      </trkpt>
      <trkpt lat="43.4332" lon="4.61587">
        <ele>42.807</ele>
        <time>2019-04-30T12:19:42Z</time>
      </trkpt>
      <trkpt lat="43.43285" lon="4.61585">
        <ele>42.862</ele>
        <time>2019-04-30T12:19:53Z</time>
      </trkpt>
      <trkpt lat="43.43245" lon="4.61583">
        <ele>43.189</ele>
        <time>2019-04-30T12:20:04Z</time>
      </trkpt>
      <trkpt lat="43.43206" lon="4.61581">
        <ele>44.856</ele>
        <time>2019-04-30T12:20:14Z</time>
      </trkpt>
      <trkpt lat="43.43171" lon="4.6158">
        <ele>44.758</ele>
        <time>2019-04-30T12:20:25Z</time>
      </trkpt>
      <trkpt lat="43.43171" lon="4.6158">
        <ele>44.753</ele>
        <time>2019-04-30T12:20:35Z</time>
      </trkpt>
      <trkpt lat="43.43171" lon="4.6158">
        <ele>44.721</ele>
        <time>2019-04-30T12:20:46Z</time>
      </trkpt>
      <trkpt lat="43.43171" lon="4.6158">
        <ele>44.688</ele>
        <time>2019-04-30T12:20:56Z</time>
      </trkpt>
      <trkpt lat="43.43171" lon="4.6158">
        <ele>44.675</ele>
        <time>2019-04-30T12:21:07Z</time>
      </trkpt>
      <trkpt lat="43.43165" lon="4.61579">
        <ele>44.62</ele>
        <time>2019-04-30T12:21:18Z</time>
      </trkpt>
      <trkpt lat="43.43133" lon="4.61577">
        <ele>44.433</ele>
        <time>2019-04-30T12:21:29Z</time>
      </trkpt>
      <trkpt lat="43.43093" lon="4.61577">
        <ele>43.426</ele>
        <time>2019-04-30T12:21:39Z</time>
      </trkpt>
      <trkpt lat="43.43057" lon="4.61605">
        <ele>42.988</ele>
        <time>2019-04-30T12:21:50Z</time>
      </trkpt>
      <trkpt lat="43.43036" lon="4.61645">
        <ele>42.965</ele>
        <time>2019-04-30T12:22:00Z</time>
      </trkpt>
      <trkpt lat="43.43012" lon="4.61692">
        <ele>44.222</ele>
        <time>2019-04-30T12:22:11Z</time>
      </trkpt>
      <trkpt lat="43.4299" lon="4.61737">
        <ele>44.721</ele>
        <time>2019-04-30T12:22:21Z</time>
      </trkpt>
      <trkpt lat="43.4297" lon="4.61784">
        <ele>44.513</ele>
        <time>2019-04-30T12:22:32Z</time>
      </trkpt>
      <trkpt lat="43.42951" lon="4.61823">
        <ele>44.336</ele>
        <time>2019-04-30T12:22:42Z</time>
      </trkpt>
      <trkpt lat="43.42931" lon="4.61868">
        <ele>44.146</ele>
        <time>2019-04-30T12:22:53Z</time>
      </trkpt>
      <trkpt lat="43.42916" lon="4.61898">
        <ele>43.883</ele>
        <time>2019-04-30T12:23:04Z</time>
      </trkpt>
      <trkpt lat="43.42916" lon="4.61898">
        <ele>43.892</ele>
        <time>2019-04-30T12:23:15Z</time>
      </trkpt>
      <trkpt lat="43.42917" lon="4.61898">
        <ele>43.912</ele>
        <time>2019-04-30T12:23:26Z</time>
      </trkpt>
      <trkpt lat="43.42917" lon="4.61898">
        <ele>43.914</ele>
        <time>2019-04-30T12:23:36Z</time>
      </trkpt>
      <trkpt lat="43.42904" lon="4.61915">
        <ele>43.778</ele>
        <time>2019-04-30T12:23:46Z</time>
      </trkpt>
      <trkpt lat="43.42866" lon="4.61943">
        <ele>43.282</ele>
        <time>2019-04-30T12:23:57Z</time>
      </trkpt>
      <trkpt lat="43.42828" lon="4.61964">
        <ele>44.608</ele>
        <time>2019-04-30T12:24:07Z</time>
      </trkpt>
      <trkpt lat="43.42783" lon="4.61968">
        <ele>43.848</ele>
        <time>2019-04-30T12:24:18Z</time>
      </trkpt>
      <trkpt lat="43.42744" lon="4.61944">
        <ele>43.06</ele>
        <time>2019-04-30T12:24:29Z</time>
      </trkpt>
      <trkpt lat="43.42707" lon="4.61913">
        <ele>45.13</ele>
        <time>2019-04-30T12:24:40Z</time>
      </trkpt>
      <trkpt lat="43.42674" lon="4.61886">
        <ele>46.763</ele>
        <time>2019-04-30T12:24:50Z</time>
      </trkpt>
      <trkpt lat="43.42637" lon="4.6186">
        <ele>47.537</ele>
        <time>2019-04-30T12:25:00Z</time>
      </trkpt>
      <trkpt lat="43.42591" lon="4.61858">
        <ele>48.313</ele>
        <time>2019-04-30T12:25:11Z</time>
      </trkpt>
      <trkpt lat="43.42547" lon="4.61862">
        <ele>48.498</ele>
        <time>2019-04-30T12:25:22Z</time>
      </trkpt>
      <trkpt lat="43.42499" lon="4.6187">
        <ele>47.832</ele>
        <time>2019-04-30T12:25:33Z</time>
      </trkpt>
      <trkpt lat="43.42451" lon="4.61875">
        <ele>48.041</ele>
        <time>2019-04-30T12:25:44Z</time>
      </trkpt>
      <trkpt lat="43.42405" lon="4.61875">
        <ele>48.051</ele>
        <time>2019-04-30T12:25:55Z</time>
      </trkpt>
      <trkpt lat="43.42366" lon="4.61875">
        <ele>48.786</ele>
        <time>2019-04-30T12:26:05Z</time>
      </trkpt>
      <trkpt lat="43.42326" lon="4.61876">
        <ele>49.429</ele>
        <time>2019-04-30T12:26:15Z</time>
      </trkpt>
      <trkpt lat="43.42278" lon="4.61877">
        <ele>49.088</ele>
        <time>2019-04-30T12:26:26Z</time>
      </trkpt>
      <trkpt lat="43.42234" lon="4.61876">
        <ele>47.254</ele>
        <time>2019-04-30T12:26:37Z</time>
      </trkpt>
      <trkpt lat="43.4219" lon="4.61873">
        <ele>46.758</ele>
        <time>2019-04-30T12:26:48Z</time>
      </trkpt>
      <trkpt lat="43.42143" lon="4.61868">
        <ele>47.022</ele>
        <time>2019-04-30T12:26:59Z</time>
      </trkpt>
      <trkpt lat="43.42096" lon="4.61868">
        <ele>46.622</ele>
        <time>2019-04-30T12:27:10Z</time>
      </trkpt>
      <trkpt lat="43.42059" lon="4.61879">
        <ele>47.791</ele>
        <time>2019-04-30T12:27:20Z</time>
      </trkpt>
      <trkpt lat="43.42019" lon="4.61894">
        <ele>48.474</ele>
        <time>2019-04-30T12:27:30Z</time>
      </trkpt>
      <trkpt lat="43.41977" lon="4.61916">
        <ele>49.337</ele>
        <time>2019-04-30T12:27:41Z</time>
      </trkpt>
      <trkpt lat="43.41952" lon="4.6193">
        <ele>49.235</ele>
        <time>2019-04-30T12:27:52Z</time>
      </trkpt>
      <trkpt lat="43.41951" lon="4.6193">
        <ele>49.186</ele>
        <time>2019-04-30T12:28:03Z</time>
      </trkpt>
      <trkpt lat="43.41951" lon="4.61931">
        <ele>49.132</ele>
        <time>2019-04-30T12:28:13Z</time>
      </trkpt>
      <trkpt lat="43.41951" lon="4.61931">
        <ele>49.068</ele>
        <time>2019-04-30T12:28:24Z</time>
      </trkpt>
      <trkpt lat="43.41951" lon="4.61931">
        <ele>48.984</ele>
        <time>2019-04-30T12:28:34Z</time>
      </trkpt>
      <trkpt lat="43.41951" lon="4.61931">
        <ele>48.853</ele>
        <time>2019-04-30T12:28:45Z</time>
      </trkpt>
      <trkpt lat="43.41946" lon="4.61936">
        <ele>48.404</ele>
        <time>2019-04-30T12:28:55Z</time>
      </trkpt>
      <trkpt lat="43.4192" lon="4.61961">
        <ele>48.061</ele>
        <time>2019-04-30T12:29:06Z</time>
      </trkpt>
      <trkpt lat="43.41892" lon="4.62">
        <ele>47.006</ele>
        <time>2019-04-30T12:29:17Z</time>
      </trkpt>
      <trkpt lat="43.41871" lon="4.62044">
        <ele>46.931</ele>
        <time>2019-04-30T12:29:27Z</time>
      </trkpt>
      <trkpt lat="43.41852" lon="4.62094">
        <ele>47.505</ele>
        <time>2019-04-30T12:29:38Z</time>
      </trkpt>
      <trkpt lat="43.41841" lon="4.62135">
        <ele>47.918</ele>
        <time>2019-04-30T12:29:48Z</time>
      </trkpt>
      <trkpt lat="43.41836" lon="4.62146">
        <ele>48.164</ele>
        <time>2019-04-30T12:29:59Z</time>
      </trkpt>
      <trkpt lat="43.41826" lon="4.62171">
        <ele>48.16</ele>
        <time>2019-04-30T12:30:09Z</time>
      </trkpt>
      <trkpt lat="43.41806" lon="4.62158">
        <ele>48.136</ele>
        <time>2019-04-30T12:30:20Z</time>
      </trkpt>
      <trkpt lat="43.41781" lon="4.62127">
        <ele>48.306</ele>
        <time>2019-04-30T12:30:31Z</time>
      </trkpt>
      <trkpt lat="43.41762" lon="4.62107">
        <ele>48.376</ele>
        <time>2019-04-30T12:30:41Z</time>
      </trkpt>
      <trkpt lat="43.41758" lon="4.62103">
        <ele>48.368</ele>
        <time>2019-04-30T12:30:52Z</time>
      </trkpt>
      <trkpt lat="43.41758" lon="4.62103">
        <ele>48.354</ele>
        <time>2019-04-30T12:31:02Z</time>
      </trkpt>
      <trkpt lat="43.41758" lon="4.62103">
        <ele>48.327</ele>
        <time>2019-04-30T12:31:13Z</time>
      </trkpt>
      <trkpt lat="43.41758" lon="4.62103">
        <ele>48.287</ele>
        <time>2019-04-30T12:31:24Z</time>
      </trkpt>
      <trkpt lat="43.41758" lon="4.62102">
        <ele>48.24</ele>
        <time>2019-04-30T12:31:35Z</time>
      </trkpt>
      <trkpt lat="43.41758" lon="4.62102">
        <ele>48.231</ele>
        <time>2019-04-30T12:31:45Z</time>
      </trkpt>
      <trkpt lat="43.41759" lon="4.62102">
        <ele>48.24</ele>
        <time>2019-04-30T12:31:56Z</time>
      </trkpt>
      <trkpt lat="43.41739" lon="4.62084">
        <ele>48.118</ele>
        <time>2019-04-30T12:32:07Z</time>
      </trkpt>
      <trkpt lat="43.41709" lon="4.62048">
        <ele>47.39</ele>
        <time>2019-04-30T12:32:18Z</time>
      </trkpt>
      <trkpt lat="43.41676" lon="4.62007">
        <ele>47.823</ele>
        <time>2019-04-30T12:32:29Z</time>
      </trkpt>
      <trkpt lat="43.41644" lon="4.61972">
        <ele>48.055</ele>
        <time>2019-04-30T12:32:39Z</time>
      </trkpt>
      <trkpt lat="43.41609" lon="4.61933">
        <ele>48.434</ele>
        <time>2019-04-30T12:32:50Z</time>
      </trkpt>
      <trkpt lat="43.4158" lon="4.61898">
        <ele>47.489</ele>
        <time>2019-04-30T12:33:00Z</time>
      </trkpt>
      <trkpt lat="43.41547" lon="4.61863">
        <ele>45.504</ele>
        <time>2019-04-30T12:33:11Z</time>
      </trkpt>
      <trkpt lat="43.41517" lon="4.61824">
        <ele>45.638</ele>
        <time>2019-04-30T12:33:21Z</time>
      </trkpt>
      <trkpt lat="43.4149" lon="4.61771">
        <ele>46.024</ele>
        <time>2019-04-30T12:33:32Z</time>
      </trkpt>
      <trkpt lat="43.41473" lon="4.61729">
        <ele>46.017</ele>
        <time>2019-04-30T12:33:42Z</time>
      </trkpt>
      <trkpt lat="43.41474" lon="4.61686">
        <ele>46.011</ele>
        <time>2019-04-30T12:33:52Z</time>
      </trkpt>
      <trkpt lat="43.41484" lon="4.61644">
        <ele>45.806</ele>
        <time>2019-04-30T12:34:03Z</time>
      </trkpt>
      <trkpt lat="43.41471" lon="4.61596">
        <ele>45.665</ele>
        <time>2019-04-30T12:34:14Z</time>
      </trkpt>
      <trkpt lat="43.41458" lon="4.61555">
        <ele>45.641</ele>
        <time>2019-04-30T12:34:24Z</time>
      </trkpt>
      <trkpt lat="43.41469" lon="4.61504">
        <ele>45.437</ele>
        <time>2019-04-30T12:34:35Z</time>
      </trkpt>
      <trkpt lat="43.41477" lon="4.6146">
        <ele>45.226</ele>
        <time>2019-04-30T12:34:45Z</time>
      </trkpt>
      <trkpt lat="43.41489" lon="4.61415">
        <ele>45.07</ele>
        <time>2019-04-30T12:34:56Z</time>
      </trkpt>
      <trkpt lat="43.41489" lon="4.61373">
        <ele>45.046</ele>
        <time>2019-04-30T12:35:07Z</time>
      </trkpt>
      <trkpt lat="43.41469" lon="4.61328">
        <ele>45.575</ele>
        <time>2019-04-30T12:35:18Z</time>
      </trkpt>
      <trkpt lat="43.41447" lon="4.61287">
        <ele>45.359</ele>
        <time>2019-04-30T12:35:29Z</time>
      </trkpt>
      <trkpt lat="43.41422" lon="4.61245">
        <ele>47.129</ele>
        <time>2019-04-30T12:35:39Z</time>
      </trkpt>
      <trkpt lat="43.41395" lon="4.61205">
        <ele>47.982</ele>
        <time>2019-04-30T12:35:50Z</time>
      </trkpt>
      <trkpt lat="43.41369" lon="4.61165">
        <ele>49.171</ele>
        <time>2019-04-30T12:36:00Z</time>
      </trkpt>
      <trkpt lat="43.41343" lon="4.6113">
        <ele>49.287</ele>
        <time>2019-04-30T12:36:10Z</time>
      </trkpt>
      <trkpt lat="43.41316" lon="4.61092">
        <ele>48.205</ele>
        <time>2019-04-30T12:36:21Z</time>
      </trkpt>
      <trkpt lat="43.41286" lon="4.61049">
        <ele>48.359</ele>
        <time>2019-04-30T12:36:32Z</time>
      </trkpt>
      <trkpt lat="43.41259" lon="4.61014">
        <ele>49.399</ele>
        <time>2019-04-30T12:36:42Z</time>
      </trkpt>
      <trkpt lat="43.41228" lon="4.60979">
        <ele>49.893</ele>
        <time>2019-04-30T12:36:53Z</time>
      </trkpt>
      <trkpt lat="43.41191" lon="4.60952">
        <ele>50.309</ele>
        <time>2019-04-30T12:37:04Z</time>
      </trkpt>
      <trkpt lat="43.41164" lon="4.60932">
        <ele>49.818</ele>
        <time>2019-04-30T12:37:14Z</time>
      </trkpt>
      <trkpt lat="43.41152" lon="4.60929">
        <ele>49.54</ele>
        <time>2019-04-30T12:37:25Z</time>
      </trkpt>
      <trkpt lat="43.41155" lon="4.60928">
        <ele>49.238</ele>
        <time>2019-04-30T12:37:36Z</time>
      </trkpt>
      <trkpt lat="43.41153" lon="4.6093">
        <ele>48.942</ele>
        <time>2019-04-30T12:37:46Z</time>
      </trkpt>
      <trkpt lat="43.41152" lon="4.6093">
        <ele>48.837</ele>
        <time>2019-04-30T12:37:56Z</time>
      </trkpt>
      <trkpt lat="43.4115" lon="4.60927">
        <ele>48.89</ele>
        <time>2019-04-30T12:38:07Z</time>
      </trkpt>
      <trkpt lat="43.41143" lon="4.60911">
        <ele>49.34</ele>
        <time>2019-04-30T12:38:18Z</time>
      </trkpt>
      <trkpt lat="43.41121" lon="4.60876">
        <ele>49.773</ele>
        <time>2019-04-30T12:38:28Z</time>
      </trkpt>
      <trkpt lat="43.41107" lon="4.60822">
        <ele>49.05</ele>
        <time>2019-04-30T12:38:39Z</time>
      </trkpt>
      <trkpt lat="43.41084" lon="4.60784">
        <ele>49.211</ele>
        <time>2019-04-30T12:38:49Z</time>
      </trkpt>
      <trkpt lat="43.41058" lon="4.60735">
        <ele>49.457</ele>
        <time>2019-04-30T12:39:00Z</time>
      </trkpt>
      <trkpt lat="43.41032" lon="4.60691">
        <ele>50.305</ele>
        <time>2019-04-30T12:39:10Z</time>
      </trkpt>
      <trkpt lat="43.41001" lon="4.60653">
        <ele>48.303</ele>
        <time>2019-04-30T12:39:21Z</time>
      </trkpt>
      <trkpt lat="43.40982" lon="4.60619">
        <ele>48.187</ele>
        <time>2019-04-30T12:39:32Z</time>
      </trkpt>
      <trkpt lat="43.40956" lon="4.60583">
        <ele>48.29</ele>
        <time>2019-04-30T12:39:43Z</time>
      </trkpt>
      <trkpt lat="43.40918" lon="4.60568">
        <ele>49.727</ele>
        <time>2019-04-30T12:39:53Z</time>
      </trkpt>
      <trkpt lat="43.40901" lon="4.60532">
        <ele>49.551</ele>
        <time>2019-04-30T12:40:03Z</time>
      </trkpt>
      <trkpt lat="43.40915" lon="4.60489">
        <ele>49.628</ele>
        <time>2019-04-30T12:40:14Z</time>
      </trkpt>
      <trkpt lat="43.40939" lon="4.60451">
        <ele>49.411</ele>
        <time>2019-04-30T12:40:25Z</time>
      </trkpt>
      <trkpt lat="43.40942" lon="4.60407">
        <ele>49.293</ele>
        <time>2019-04-30T12:40:36Z</time>
      </trkpt>
      <trkpt lat="43.40924" lon="4.60373">
        <ele>49.155</ele>
        <time>2019-04-30T12:40:47Z</time>
      </trkpt>
      <trkpt lat="43.40896" lon="4.60324">
        <ele>49.402</ele>
        <time>2019-04-30T12:40:58Z</time>
      </trkpt>
      <trkpt lat="43.40874" lon="4.6027">
        <ele>50.145</ele>
        <time>2019-04-30T12:41:09Z</time>
      </trkpt>
      <trkpt lat="43.40853" lon="4.6021">
        <ele>50.691</ele>
        <time>2019-04-30T12:41:20Z</time>
      </trkpt>
      <trkpt lat="43.40834" lon="4.60146">
        <ele>49.972</ele>
        <time>2019-04-30T12:41:31Z</time>
      </trkpt>
      <trkpt lat="43.40822" lon="4.60088">
        <ele>49.899</ele>
        <time>2019-04-30T12:41:41Z</time>
      </trkpt>
      <trkpt lat="43.40809" lon="4.60027">
        <ele>49.561</ele>
        <time>2019-04-30T12:41:52Z</time>
      </trkpt>
      <trkpt lat="43.4079" lon="4.59969">
        <ele>50.023</ele>
        <time>2019-04-30T12:42:03Z</time>
      </trkpt>
      <trkpt lat="43.40779" lon="4.59913">
        <ele>50.39</ele>
        <time>2019-04-30T12:42:13Z</time>
      </trkpt>
      <trkpt lat="43.40762" lon="4.59858">
        <ele>49.998</ele>
        <time>2019-04-30T12:42:23Z</time>
      </trkpt>
      <trkpt lat="43.40752" lon="4.59798">
        <ele>49.062</ele>
        <time>2019-04-30T12:42:34Z</time>
      </trkpt>
      <trkpt lat="43.40742" lon="4.59741">
        <ele>48.754</ele>
        <time>2019-04-30T12:42:45Z</time>
      </trkpt>
      <trkpt lat="43.40734" lon="4.5969">
        <ele>48.807</ele>
        <time>2019-04-30T12:42:55Z</time>
      </trkpt>
      <trkpt lat="43.40726" lon="4.59644">
        <ele>49.017</ele>
        <time>2019-04-30T12:43:05Z</time>
      </trkpt>
      <trkpt lat="43.40735" lon="4.59601">
        <ele>49.156</ele>
        <time>2019-04-30T12:43:16Z</time>
      </trkpt>
      <trkpt lat="43.40741" lon="4.59567">
        <ele>49.353</ele>
        <time>2019-04-30T12:43:27Z</time>
      </trkpt>
      <trkpt lat="43.40744" lon="4.59556">
        <ele>49.498</ele>
        <time>2019-04-30T12:43:37Z</time>
      </trkpt>
      <trkpt lat="43.40743" lon="4.59543">
        <ele>49.52</ele>
        <time>2019-04-30T12:43:48Z</time>
      </trkpt>
      <trkpt lat="43.40735" lon="4.59535">
        <ele>49.979</ele>
        <time>2019-04-30T12:43:59Z</time>
      </trkpt>
      <trkpt lat="43.40735" lon="4.59535">
        <ele>49.992</ele>
        <time>2019-04-30T12:44:10Z</time>
      </trkpt>
      <trkpt lat="43.40735" lon="4.59535">
        <ele>49.97</ele>
        <time>2019-04-30T12:44:21Z</time>
      </trkpt>
      <trkpt lat="43.40735" lon="4.59535">
        <ele>49.947</ele>
        <time>2019-04-30T12:44:32Z</time>
      </trkpt>
      <trkpt lat="43.40736" lon="4.59535">
        <ele>49.924</ele>
        <time>2019-04-30T12:44:42Z</time>
      </trkpt>
      <trkpt lat="43.40736" lon="4.59534">
        <ele>49.887</ele>
        <time>2019-04-30T12:44:53Z</time>
      </trkpt>
      <trkpt lat="43.40737" lon="4.59534">
        <ele>49.86</ele>
        <time>2019-04-30T12:45:04Z</time>
      </trkpt>
      <trkpt lat="43.40737" lon="4.59533">
        <ele>49.82</ele>
        <time>2019-04-30T12:45:15Z</time>
      </trkpt>
      <trkpt lat="43.40737" lon="4.59533">
        <ele>49.783</ele>
        <time>2019-04-30T12:45:26Z</time>
      </trkpt>
      <trkpt lat="43.40737" lon="4.59533">
        <ele>49.773</ele>
        <time>2019-04-30T12:45:36Z</time>
      </trkpt>
      <trkpt lat="43.40737" lon="4.59534">
        <ele>49.792</ele>
        <time>2019-04-30T12:45:46Z</time>
      </trkpt>
      <trkpt lat="43.40737" lon="4.59534">
        <ele>49.831</ele>
        <time>2019-04-30T12:45:57Z</time>
      </trkpt>
      <trkpt lat="43.40737" lon="4.59534">
        <ele>49.878</ele>
        <time>2019-04-30T12:46:07Z</time>
      </trkpt>
      <trkpt lat="43.40737" lon="4.59535">
        <ele>49.904</ele>
        <time>2019-04-30T12:46:18Z</time>
      </trkpt>
      <trkpt lat="43.40737" lon="4.59535">
        <ele>49.931</ele>
        <time>2019-04-30T12:46:29Z</time>
      </trkpt>
      <trkpt lat="43.40737" lon="4.59535">
        <ele>49.956</ele>
        <time>2019-04-30T12:46:40Z</time>
      </trkpt>
      <trkpt lat="43.40736" lon="4.59535">
        <ele>49.973</ele>
        <time>2019-04-30T12:46:51Z</time>
      </trkpt>
      <trkpt lat="43.40736" lon="4.59535">
        <ele>49.973</ele>
        <time>2019-04-30T12:47:02Z</time>
      </trkpt>
      <trkpt lat="43.40736" lon="4.59535">
        <ele>49.963</ele>
        <time>2019-04-30T12:47:12Z</time>
      </trkpt>
      <trkpt lat="43.40734" lon="4.59538">
        <ele>49.858</ele>
        <time>2019-04-30T12:47:22Z</time>
      </trkpt>
      <trkpt lat="43.4073" lon="4.59548">
        <ele>49.648</ele>
        <time>2019-04-30T12:47:32Z</time>
      </trkpt>
      <trkpt lat="43.40723" lon="4.59558">
        <ele>49.51</ele>
        <time>2019-04-30T12:47:43Z</time>
      </trkpt>
      <trkpt lat="43.40722" lon="4.59563">
        <ele>49.42</ele>
        <time>2019-04-30T12:47:53Z</time>
      </trkpt>
      <trkpt lat="43.40722" lon="4.59562">
        <ele>49.43</ele>
        <time>2019-04-30T12:48:04Z</time>
      </trkpt>
      <trkpt lat="43.40722" lon="4.59562">
        <ele>49.434</ele>
        <time>2019-04-30T12:48:15Z</time>
      </trkpt>
      <trkpt lat="43.40726" lon="4.59554">
        <ele>49.636</ele>
        <time>2019-04-30T12:48:26Z</time>
      </trkpt>
      <trkpt lat="43.40736" lon="4.5955">
        <ele>49.235</ele>
        <time>2019-04-30T12:48:36Z</time>
      </trkpt>
      <trkpt lat="43.40746" lon="4.59534">
        <ele>48.176</ele>
        <time>2019-04-30T12:48:47Z</time>
      </trkpt>
      <trkpt lat="43.40752" lon="4.59524">
        <ele>47.805</ele>
        <time>2019-04-30T12:48:58Z</time>
      </trkpt>
      <trkpt lat="43.4076" lon="4.59519">
        <ele>48.098</ele>
        <time>2019-04-30T12:49:08Z</time>
      </trkpt>
      <trkpt lat="43.40765" lon="4.59504">
        <ele>48.667</ele>
        <time>2019-04-30T12:49:19Z</time>
      </trkpt>
      <trkpt lat="43.40764" lon="4.59487">
        <ele>49.039</ele>
        <time>2019-04-30T12:49:30Z</time>
      </trkpt>
      <trkpt lat="43.4076" lon="4.59474">
        <ele>48.893</ele>
        <time>2019-04-30T12:49:41Z</time>
      </trkpt>
      <trkpt lat="43.40759" lon="4.59471">
        <ele>48.94</ele>
        <time>2019-04-30T12:49:51Z</time>
      </trkpt>
      <trkpt lat="43.4075" lon="4.59458">
        <ele>48.861</ele>
        <time>2019-04-30T12:50:02Z</time>
      </trkpt>
      <trkpt lat="43.40748" lon="4.59455">
        <ele>48.804</ele>
        <time>2019-04-30T12:50:12Z</time>
      </trkpt>
      <trkpt lat="43.40754" lon="4.59441">
        <ele>48.989</ele>
        <time>2019-04-30T12:50:23Z</time>
      </trkpt>
      <trkpt lat="43.40754" lon="4.59426">
        <ele>49.104</ele>
        <time>2019-04-30T12:50:33Z</time>
      </trkpt>
      <trkpt lat="43.40749" lon="4.59407">
        <ele>48.778</ele>
        <time>2019-04-30T12:50:44Z</time>
      </trkpt>
      <trkpt lat="43.40747" lon="4.5939">
        <ele>48.173</ele>
        <time>2019-04-30T12:50:55Z</time>
      </trkpt>
      <trkpt lat="43.40745" lon="4.59372">
        <ele>47.661</ele>
        <time>2019-04-30T12:51:06Z</time>
      </trkpt>
      <trkpt lat="43.4074" lon="4.59357">
        <ele>47.42</ele>
        <time>2019-04-30T12:51:16Z</time>
      </trkpt>
      <trkpt lat="43.40739" lon="4.5934">
        <ele>47.346</ele>
        <time>2019-04-30T12:51:27Z</time>
      </trkpt>
      <trkpt lat="43.40736" lon="4.59325">
        <ele>47.141</ele>
        <time>2019-04-30T12:51:37Z</time>
      </trkpt>
      <trkpt lat="43.40743" lon="4.59316">
        <ele>47.34</ele>
        <time>2019-04-30T12:51:48Z</time>
      </trkpt>
      <trkpt lat="43.40749" lon="4.59309">
        <ele>47.223</ele>
        <time>2019-04-30T12:51:59Z</time>
      </trkpt>
      <trkpt lat="43.40749" lon="4.59309">
        <ele>47.223</ele>
        <time>2019-04-30T12:52:10Z</time>
      </trkpt>
      <trkpt lat="43.40749" lon="4.5931">
        <ele>47.246</ele>
        <time>2019-04-30T12:52:21Z</time>
      </trkpt>
      <trkpt lat="43.40748" lon="4.59309">
        <ele>47.264</ele>
        <time>2019-04-30T12:52:32Z</time>
      </trkpt>
      <trkpt lat="43.40748" lon="4.59309">
        <ele>47.257</ele>
        <time>2019-04-30T12:52:42Z</time>
      </trkpt>
      <trkpt lat="43.40747" lon="4.59309">
        <ele>47.245</ele>
        <time>2019-04-30T12:52:53Z</time>
      </trkpt>
      <trkpt lat="43.40748" lon="4.59309">
        <ele>47.1</ele>
        <time>2019-04-30T12:53:04Z</time>
      </trkpt>
      <trkpt lat="43.40749" lon="4.59309">
        <ele>46.764</ele>
        <time>2019-04-30T12:53:14Z</time>
      </trkpt>
      <trkpt lat="43.4075" lon="4.59299">
        <ele>46.573</ele>
        <time>2019-04-30T12:53:24Z</time>
      </trkpt>
      <trkpt lat="43.40756" lon="4.59284">
        <ele>46.722</ele>
        <time>2019-04-30T12:53:35Z</time>
      </trkpt>
      <trkpt lat="43.40759" lon="4.59277">
        <ele>46.978</ele>
        <time>2019-04-30T12:53:46Z</time>
      </trkpt>
      <trkpt lat="43.4076" lon="4.59279">
        <ele>47.093</ele>
        <time>2019-04-30T12:53:56Z</time>
      </trkpt>
      <trkpt lat="43.4076" lon="4.59275">
        <ele>47.041</ele>
        <time>2019-04-30T12:54:07Z</time>
      </trkpt>
      <trkpt lat="43.40763" lon="4.59262">
        <ele>47.246</ele>
        <time>2019-04-30T12:54:18Z</time>
      </trkpt>
      <trkpt lat="43.40764" lon="4.59262">
        <ele>47.308</ele>
        <time>2019-04-30T12:54:29Z</time>
      </trkpt>
      <trkpt lat="43.40764" lon="4.59261">
        <ele>47.32</ele>
        <time>2019-04-30T12:54:40Z</time>
      </trkpt>
      <trkpt lat="43.40766" lon="4.59259">
        <ele>47.536</ele>
        <time>2019-04-30T12:54:50Z</time>
      </trkpt>
      <trkpt lat="43.40766" lon="4.59259">
        <ele>47.605</ele>
        <time>2019-04-30T12:55:01Z</time>
      </trkpt>
      <trkpt lat="43.40767" lon="4.59243">
        <ele>47.369</ele>
        <time>2019-04-30T12:55:12Z</time>
      </trkpt>
      <trkpt lat="43.40772" lon="4.59229">
        <ele>47.575</ele>
        <time>2019-04-30T12:55:22Z</time>
      </trkpt>
      <trkpt lat="43.4078" lon="4.59217">
        <ele>47.589</ele>
        <time>2019-04-30T12:55:33Z</time>
      </trkpt>
      <trkpt lat="43.40785" lon="4.59208">
        <ele>47.994</ele>
        <time>2019-04-30T12:55:44Z</time>
      </trkpt>
      <trkpt lat="43.40788" lon="4.59198">
        <ele>48.471</ele>
        <time>2019-04-30T12:55:54Z</time>
      </trkpt>
      <trkpt lat="43.40793" lon="4.59186">
        <ele>48.582</ele>
        <time>2019-04-30T12:56:04Z</time>
      </trkpt>
      <trkpt lat="43.40798" lon="4.59178">
        <ele>48.546</ele>
        <time>2019-04-30T12:56:14Z</time>
      </trkpt>
      <trkpt lat="43.40802" lon="4.59168">
        <ele>48.756</ele>
        <time>2019-04-30T12:56:25Z</time>
      </trkpt>
      <trkpt lat="43.40808" lon="4.59153">
        <ele>48.371</ele>
        <time>2019-04-30T12:56:35Z</time>
      </trkpt>
      <trkpt lat="43.40813" lon="4.59141">
        <ele>47.898</ele>
        <time>2019-04-30T12:56:46Z</time>
      </trkpt>
      <trkpt lat="43.40815" lon="4.59138">
        <ele>47.728</ele>
        <time>2019-04-30T12:56:56Z</time>
      </trkpt>
      <trkpt lat="43.40815" lon="4.59138">
        <ele>47.709</ele>
        <time>2019-04-30T12:57:07Z</time>
      </trkpt>
      <trkpt lat="43.40815" lon="4.59138">
        <ele>47.697</ele>
        <time>2019-04-30T12:57:17Z</time>
      </trkpt>
      <trkpt lat="43.40815" lon="4.59138">
        <ele>47.698</ele>
        <time>2019-04-30T12:57:28Z</time>
      </trkpt>
      <trkpt lat="43.40815" lon="4.59138">
        <ele>47.687</ele>
        <time>2019-04-30T12:57:38Z</time>
      </trkpt>
      <trkpt lat="43.40815" lon="4.59137">
        <ele>47.652</ele>
        <time>2019-04-30T12:57:49Z</time>
      </trkpt>
      <trkpt lat="43.40818" lon="4.59137">
        <ele>47.695</ele>
        <time>2019-04-30T12:57:59Z</time>
      </trkpt>
      <trkpt lat="43.40817" lon="4.59138">
        <ele>47.54</ele>
        <time>2019-04-30T12:58:10Z</time>
      </trkpt>
      <trkpt lat="43.40811" lon="4.59148">
        <ele>47.101</ele>
        <time>2019-04-30T12:58:20Z</time>
      </trkpt>
      <trkpt lat="43.40806" lon="4.59156">
        <ele>47.287</ele>
        <time>2019-04-30T12:58:30Z</time>
      </trkpt>
      <trkpt lat="43.40801" lon="4.59166">
        <ele>47.118</ele>
        <time>2019-04-30T12:58:41Z</time>
      </trkpt>
      <trkpt lat="43.40794" lon="4.59177">
        <ele>47.168</ele>
        <time>2019-04-30T12:58:52Z</time>
      </trkpt>
      <trkpt lat="43.40785" lon="4.59188">
        <ele>47.153</ele>
        <time>2019-04-30T12:59:02Z</time>
      </trkpt>
      <trkpt lat="43.40777" lon="4.592">
        <ele>46.897</ele>
        <time>2019-04-30T12:59:13Z</time>
      </trkpt>
      <trkpt lat="43.40773" lon="4.59214">
        <ele>46.748</ele>
        <time>2019-04-30T12:59:24Z</time>
      </trkpt>
      <trkpt lat="43.40766" lon="4.59228">
        <ele>46.325</ele>
        <time>2019-04-30T12:59:35Z</time>
      </trkpt>
      <trkpt lat="43.4076" lon="4.59241">
        <ele>45.89</ele>
        <time>2019-04-30T12:59:45Z</time>
      </trkpt>
      <trkpt lat="43.40754" lon="4.59255">
        <ele>45.484</ele>
        <time>2019-04-30T12:59:56Z</time>
      </trkpt>
      <trkpt lat="43.40749" lon="4.59269">
        <ele>45.126</ele>
        <time>2019-04-30T13:00:07Z</time>
      </trkpt>
      <trkpt lat="43.40745" lon="4.59285">
        <ele>44.626</ele>
        <time>2019-04-30T13:00:18Z</time>
      </trkpt>
      <trkpt lat="43.4074" lon="4.59295">
        <ele>44.643</ele>
        <time>2019-04-30T13:00:29Z</time>
      </trkpt>
      <trkpt lat="43.40734" lon="4.59308">
        <ele>44.981</ele>
        <time>2019-04-30T13:00:40Z</time>
      </trkpt>
      <trkpt lat="43.4073" lon="4.59325">
        <ele>45.323</ele>
        <time>2019-04-30T13:00:51Z</time>
      </trkpt>
      <trkpt lat="43.40725" lon="4.59339">
        <ele>45.408</ele>
        <time>2019-04-30T13:01:01Z</time>
      </trkpt>
      <trkpt lat="43.40726" lon="4.59355">
        <ele>45.648</ele>
        <time>2019-04-30T13:01:12Z</time>
      </trkpt>
      <trkpt lat="43.40723" lon="4.59369">
        <ele>45.861</ele>
        <time>2019-04-30T13:01:22Z</time>
      </trkpt>
      <trkpt lat="43.40713" lon="4.5938">
        <ele>46.11</ele>
        <time>2019-04-30T13:01:33Z</time>
      </trkpt>
      <trkpt lat="43.40704" lon="4.59389">
        <ele>46.269</ele>
        <time>2019-04-30T13:01:43Z</time>
      </trkpt>
      <trkpt lat="43.40696" lon="4.594">
        <ele>46.342</ele>
        <time>2019-04-30T13:01:53Z</time>
      </trkpt>
      <trkpt lat="43.40687" lon="4.59412">
        <ele>46.313</ele>
        <time>2019-04-30T13:02:04Z</time>
      </trkpt>
      <trkpt lat="43.40688" lon="4.59425">
        <ele>46.394</ele>
        <time>2019-04-30T13:02:14Z</time>
      </trkpt>
      <trkpt lat="43.407" lon="4.59428">
        <ele>46.363</ele>
        <time>2019-04-30T13:02:25Z</time>
      </trkpt>
      <trkpt lat="43.40713" lon="4.59434">
        <ele>46.209</ele>
        <time>2019-04-30T13:02:36Z</time>
      </trkpt>
      <trkpt lat="43.40725" lon="4.59436">
        <ele>46.099</ele>
        <time>2019-04-30T13:02:46Z</time>
      </trkpt>
      <trkpt lat="43.40737" lon="4.59441">
        <ele>46.03</ele>
        <time>2019-04-30T13:02:57Z</time>
      </trkpt>
      <trkpt lat="43.40747" lon="4.59452">
        <ele>46.15</ele>
        <time>2019-04-30T13:03:08Z</time>
      </trkpt>
      <trkpt lat="43.40755" lon="4.59464">
        <ele>46.358</ele>
        <time>2019-04-30T13:03:18Z</time>
      </trkpt>
      <trkpt lat="43.40761" lon="4.59479">
        <ele>46.643</ele>
        <time>2019-04-30T13:03:29Z</time>
      </trkpt>
      <trkpt lat="43.40766" lon="4.59495">
        <ele>46.95</ele>
        <time>2019-04-30T13:03:39Z</time>
      </trkpt>
      <trkpt lat="43.40766" lon="4.59509">
        <ele>47.293</ele>
        <time>2019-04-30T13:03:49Z</time>
      </trkpt>
      <trkpt lat="43.40759" lon="4.5952">
        <ele>47.668</ele>
        <time>2019-04-30T13:04:00Z</time>
      </trkpt>
      <trkpt lat="43.40753" lon="4.59528">
        <ele>47.755</ele>
        <time>2019-04-30T13:04:11Z</time>
      </trkpt>
      <trkpt lat="43.40751" lon="4.59525">
        <ele>47.866</ele>
        <time>2019-04-30T13:04:22Z</time>
      </trkpt>
      <trkpt lat="43.40751" lon="4.59525">
        <ele>47.913</ele>
        <time>2019-04-30T13:04:33Z</time>
      </trkpt>
      <trkpt lat="43.40751" lon="4.59525">
        <ele>47.942</ele>
        <time>2019-04-30T13:04:43Z</time>
      </trkpt>
      <trkpt lat="43.40751" lon="4.59525">
        <ele>47.966</ele>
        <time>2019-04-30T13:04:54Z</time>
      </trkpt>
      <trkpt lat="43.40751" lon="4.59525">
        <ele>47.977</ele>
        <time>2019-04-30T13:05:05Z</time>
      </trkpt>
      <trkpt lat="43.40744" lon="4.59535">
        <ele>48.014</ele>
        <time>2019-04-30T13:05:16Z</time>
      </trkpt>
      <trkpt lat="43.40735" lon="4.59546">
        <ele>47.939</ele>
        <time>2019-04-30T13:05:27Z</time>
      </trkpt>
      <trkpt lat="43.40725" lon="4.59557">
        <ele>47.843</ele>
        <time>2019-04-30T13:05:38Z</time>
      </trkpt>
      <trkpt lat="43.40724" lon="4.59561">
        <ele>47.85</ele>
        <time>2019-04-30T13:05:49Z</time>
      </trkpt>
      <trkpt lat="43.40724" lon="4.59562">
        <ele>47.791</ele>
        <time>2019-04-30T13:06:00Z</time>
      </trkpt>
      <trkpt lat="43.40724" lon="4.59562">
        <ele>47.744</ele>
        <time>2019-04-30T13:06:10Z</time>
      </trkpt>
      <trkpt lat="43.40725" lon="4.59562">
        <ele>47.662</ele>
        <time>2019-04-30T13:06:21Z</time>
      </trkpt>
      <trkpt lat="43.40724" lon="4.59562">
        <ele>47.668</ele>
        <time>2019-04-30T13:06:31Z</time>
      </trkpt>
      <trkpt lat="43.40721" lon="4.59563">
        <ele>47.867</ele>
        <time>2019-04-30T13:06:42Z</time>
      </trkpt>
      <trkpt lat="43.40724" lon="4.59576">
        <ele>48.516</ele>
        <time>2019-04-30T13:06:53Z</time>
      </trkpt>
      <trkpt lat="43.40726" lon="4.59604">
        <ele>49.129</ele>
        <time>2019-04-30T13:07:04Z</time>
      </trkpt>
      <trkpt lat="43.40717" lon="4.59636">
        <ele>48.849</ele>
        <time>2019-04-30T13:07:15Z</time>
      </trkpt>
      <trkpt lat="43.407" lon="4.59665">
        <ele>48.779</ele>
        <time>2019-04-30T13:07:25Z</time>
      </trkpt>
      <trkpt lat="43.40683" lon="4.59681">
        <ele>48.561</ele>
        <time>2019-04-30T13:07:36Z</time>
      </trkpt>
      <trkpt lat="43.40667" lon="4.59685">
        <ele>48.09</ele>
        <time>2019-04-30T13:07:46Z</time>
      </trkpt>
      <trkpt lat="43.40646" lon="4.59685">
        <ele>47.585</ele>
        <time>2019-04-30T13:07:57Z</time>
      </trkpt>
      <trkpt lat="43.40621" lon="4.59683">
        <ele>47.462</ele>
        <time>2019-04-30T13:08:07Z</time>
      </trkpt>
      <trkpt lat="43.40583" lon="4.59683">
        <ele>46.928</ele>
        <time>2019-04-30T13:08:18Z</time>
      </trkpt>
      <trkpt lat="43.40553" lon="4.59694">
        <ele>46.767</ele>
        <time>2019-04-30T13:08:28Z</time>
      </trkpt>
      <trkpt lat="43.40518" lon="4.59721">
        <ele>46.437</ele>
        <time>2019-04-30T13:08:39Z</time>
      </trkpt>
      <trkpt lat="43.4049" lon="4.59736">
        <ele>46.237</ele>
        <time>2019-04-30T13:08:49Z</time>
      </trkpt>
      <trkpt lat="43.40462" lon="4.59762">
        <ele>46.249</ele>
        <time>2019-04-30T13:09:00Z</time>
      </trkpt>
      <trkpt lat="43.40445" lon="4.59806">
        <ele>46.265</ele>
        <time>2019-04-30T13:09:11Z</time>
      </trkpt>
      <trkpt lat="43.4042" lon="4.59848">
        <ele>46.031</ele>
        <time>2019-04-30T13:09:22Z</time>
      </trkpt>
      <trkpt lat="43.40389" lon="4.59882">
        <ele>45.493</ele>
        <time>2019-04-30T13:09:32Z</time>
      </trkpt>
      <trkpt lat="43.40363" lon="4.59909">
        <ele>45.548</ele>
        <time>2019-04-30T13:09:42Z</time>
      </trkpt>
      <trkpt lat="43.40333" lon="4.59933">
        <ele>45.895</ele>
        <time>2019-04-30T13:09:53Z</time>
      </trkpt>
      <trkpt lat="43.40329" lon="4.59935">
        <ele>45.971</ele>
        <time>2019-04-30T13:10:04Z</time>
      </trkpt>
      <trkpt lat="43.40329" lon="4.59935">
        <ele>45.971</ele>
        <time>2019-04-30T13:10:15Z</time>
      </trkpt>
      <trkpt lat="43.40329" lon="4.59935">
        <ele>45.978</ele>
        <time>2019-04-30T13:10:25Z</time>
      </trkpt>
      <trkpt lat="43.40329" lon="4.59935">
        <ele>46.04</ele>
        <time>2019-04-30T13:10:35Z</time>
      </trkpt>
      <trkpt lat="43.40329" lon="4.59935">
        <ele>46.044</ele>
        <time>2019-04-30T13:10:46Z</time>
      </trkpt>
      <trkpt lat="43.40329" lon="4.59933">
        <ele>46.117</ele>
        <time>2019-04-30T13:10:57Z</time>
      </trkpt>
      <trkpt lat="43.40329" lon="4.59933">
        <ele>46.172</ele>
        <time>2019-04-30T13:11:07Z</time>
      </trkpt>
      <trkpt lat="43.40329" lon="4.59936">
        <ele>46.348</ele>
        <time>2019-04-30T13:11:18Z</time>
      </trkpt>
      <trkpt lat="43.40328" lon="4.59937">
        <ele>46.428</ele>
        <time>2019-04-30T13:11:29Z</time>
      </trkpt>
      <trkpt lat="43.40332" lon="4.59938">
        <ele>46.64</ele>
        <time>2019-04-30T13:11:39Z</time>
      </trkpt>
      <trkpt lat="43.40331" lon="4.59938">
        <ele>46.745</ele>
        <time>2019-04-30T13:11:50Z</time>
      </trkpt>
      <trkpt lat="43.40331" lon="4.59936">
        <ele>45.897</ele>
        <time>2019-04-30T13:12:00Z</time>
      </trkpt>
      <trkpt lat="43.4033" lon="4.59936">
        <ele>45.906</ele>
        <time>2019-04-30T13:12:11Z</time>
      </trkpt>
      <trkpt lat="43.4033" lon="4.59936">
        <ele>46.083</ele>
        <time>2019-04-30T13:12:22Z</time>
      </trkpt>
      <trkpt lat="43.4033" lon="4.59936">
        <ele>46.524</ele>
        <time>2019-04-30T13:12:32Z</time>
      </trkpt>
      <trkpt lat="43.40329" lon="4.59933">
        <ele>46.853</ele>
        <time>2019-04-30T13:12:42Z</time>
      </trkpt>
      <trkpt lat="43.40329" lon="4.59934">
        <ele>46.851</ele>
        <time>2019-04-30T13:12:53Z</time>
      </trkpt>
      <trkpt lat="43.40329" lon="4.59934">
        <ele>46.839</ele>
        <time>2019-04-30T13:13:03Z</time>
      </trkpt>
      <trkpt lat="43.4033" lon="4.59934">
        <ele>46.795</ele>
        <time>2019-04-30T13:13:14Z</time>
      </trkpt>
      <trkpt lat="43.4033" lon="4.59934">
        <ele>46.736</ele>
        <time>2019-04-30T13:13:25Z</time>
      </trkpt>
      <trkpt lat="43.4033" lon="4.59936">
        <ele>46.686</ele>
        <time>2019-04-30T13:13:35Z</time>
      </trkpt>
      <trkpt lat="43.40329" lon="4.59934">
        <ele>45.953</ele>
        <time>2019-04-30T13:13:46Z</time>
      </trkpt>
      <trkpt lat="43.40329" lon="4.59934">
        <ele>45.917</ele>
        <time>2019-04-30T13:13:57Z</time>
      </trkpt>
      <trkpt lat="43.40329" lon="4.59936">
        <ele>46.124</ele>
        <time>2019-04-30T13:14:08Z</time>
      </trkpt>
      <trkpt lat="43.40308" lon="4.59936">
        <ele>45.615</ele>
        <time>2019-04-30T13:14:19Z</time>
      </trkpt>
      <trkpt lat="43.40277" lon="4.59939">
        <ele>45.497</ele>
        <time>2019-04-30T13:14:30Z</time>
      </trkpt>
      <trkpt lat="43.40244" lon="4.59955">
        <ele>45.461</ele>
        <time>2019-04-30T13:14:41Z</time>
      </trkpt>
      <trkpt lat="43.40216" lon="4.59951">
        <ele>45.409</ele>
        <time>2019-04-30T13:14:52Z</time>
      </trkpt>
      <trkpt lat="43.40179" lon="4.59933">
        <ele>43.773</ele>
        <time>2019-04-30T13:15:02Z</time>
      </trkpt>
      <trkpt lat="43.40139" lon="4.59915">
        <ele>43.4</ele>
        <time>2019-04-30T13:15:13Z</time>
      </trkpt>
      <trkpt lat="43.40101" lon="4.59898">
        <ele>43.577</ele>
        <time>2019-04-30T13:15:24Z</time>
      </trkpt>
      <trkpt lat="43.40065" lon="4.59871">
        <ele>44.258</ele>
        <time>2019-04-30T13:15:35Z</time>
      </trkpt>
      <trkpt lat="43.40033" lon="4.59847">
        <ele>45.467</ele>
        <time>2019-04-30T13:15:45Z</time>
      </trkpt>
      <trkpt lat="43.39999" lon="4.59822">
        <ele>45.386</ele>
        <time>2019-04-30T13:15:56Z</time>
      </trkpt>
      <trkpt lat="43.39965" lon="4.59795">
        <ele>46.227</ele>
        <time>2019-04-30T13:16:07Z</time>
      </trkpt>
      <trkpt lat="43.39928" lon="4.59778">
        <ele>46.527</ele>
        <time>2019-04-30T13:16:18Z</time>
      </trkpt>
      <trkpt lat="43.39892" lon="4.59761">
        <ele>46.768</ele>
        <time>2019-04-30T13:16:29Z</time>
      </trkpt>
      <trkpt lat="43.39861" lon="4.59739">
        <ele>47.076</ele>
        <time>2019-04-30T13:16:39Z</time>
      </trkpt>
      <trkpt lat="43.39827" lon="4.59719">
        <ele>46.854</ele>
        <time>2019-04-30T13:16:50Z</time>
      </trkpt>
      <trkpt lat="43.39801" lon="4.59697">
        <ele>46.874</ele>
        <time>2019-04-30T13:17:00Z</time>
      </trkpt>
      <trkpt lat="43.39771" lon="4.59675">
        <ele>47.174</ele>
        <time>2019-04-30T13:17:11Z</time>
      </trkpt>
      <trkpt lat="43.39739" lon="4.59662">
        <ele>47.234</ele>
        <time>2019-04-30T13:17:21Z</time>
      </trkpt>
      <trkpt lat="43.39707" lon="4.59654">
        <ele>47.09</ele>
        <time>2019-04-30T13:17:31Z</time>
      </trkpt>
      <trkpt lat="43.39684" lon="4.59641">
        <ele>46.954</ele>
        <time>2019-04-30T13:17:41Z</time>
      </trkpt>
      <trkpt lat="43.39674" lon="4.59633">
        <ele>46.921</ele>
        <time>2019-04-30T13:17:52Z</time>
      </trkpt>
      <trkpt lat="43.39674" lon="4.59633">
        <ele>46.927</ele>
        <time>2019-04-30T13:18:03Z</time>
      </trkpt>
      <trkpt lat="43.39673" lon="4.59633">
        <ele>46.917</ele>
        <time>2019-04-30T13:18:13Z</time>
      </trkpt>
      <trkpt lat="43.39673" lon="4.59633">
        <ele>46.987</ele>
        <time>2019-04-30T13:18:24Z</time>
      </trkpt>
      <trkpt lat="43.39673" lon="4.59631">
        <ele>47.083</ele>
        <time>2019-04-30T13:18:34Z</time>
      </trkpt>
      <trkpt lat="43.39673" lon="4.59631">
        <ele>47.018</ele>
        <time>2019-04-30T13:18:44Z</time>
      </trkpt>
      <trkpt lat="43.39673" lon="4.59632">
        <ele>46.802</ele>
        <time>2019-04-30T13:18:55Z</time>
      </trkpt>
      <trkpt lat="43.39673" lon="4.59632">
        <ele>46.784</ele>
        <time>2019-04-30T13:19:06Z</time>
      </trkpt>
      <trkpt lat="43.39672" lon="4.59632">
        <ele>46.598</ele>
        <time>2019-04-30T13:19:16Z</time>
      </trkpt>
      <trkpt lat="43.39654" lon="4.59616">
        <ele>46.427</ele>
        <time>2019-04-30T13:19:27Z</time>
      </trkpt>
      <trkpt lat="43.39648" lon="4.59589">
        <ele>46.463</ele>
        <time>2019-04-30T13:19:37Z</time>
      </trkpt>
      <trkpt lat="43.39651" lon="4.59565">
        <ele>46.519</ele>
        <time>2019-04-30T13:19:47Z</time>
      </trkpt>
      <trkpt lat="43.39642" lon="4.59554">
        <ele>46.49</ele>
        <time>2019-04-30T13:19:58Z</time>
      </trkpt>
      <trkpt lat="43.39643" lon="4.59554">
        <ele>46.479</ele>
        <time>2019-04-30T13:20:08Z</time>
      </trkpt>
      <trkpt lat="43.39643" lon="4.59554">
        <ele>46.505</ele>
        <time>2019-04-30T13:20:19Z</time>
      </trkpt>
      <trkpt lat="43.39643" lon="4.59553">
        <ele>46.559</ele>
        <time>2019-04-30T13:20:29Z</time>
      </trkpt>
      <trkpt lat="43.39644" lon="4.59554">
        <ele>46.615</ele>
        <time>2019-04-30T13:20:39Z</time>
      </trkpt>
      <trkpt lat="43.39644" lon="4.59554">
        <ele>46.691</ele>
        <time>2019-04-30T13:20:49Z</time>
      </trkpt>
      <trkpt lat="43.39642" lon="4.59556">
        <ele>46.813</ele>
        <time>2019-04-30T13:21:00Z</time>
      </trkpt>
      <trkpt lat="43.39641" lon="4.59557">
        <ele>47.448</ele>
        <time>2019-04-30T13:21:10Z</time>
      </trkpt>
      <trkpt lat="43.39638" lon="4.59556">
        <ele>48.144</ele>
        <time>2019-04-30T13:21:20Z</time>
      </trkpt>
      <trkpt lat="43.39617" lon="4.59542">
        <ele>47.952</ele>
        <time>2019-04-30T13:21:31Z</time>
      </trkpt>
      <trkpt lat="43.39591" lon="4.59522">
        <ele>47.542</ele>
        <time>2019-04-30T13:21:42Z</time>
      </trkpt>
      <trkpt lat="43.39567" lon="4.59492">
        <ele>48.035</ele>
        <time>2019-04-30T13:21:53Z</time>
      </trkpt>
      <trkpt lat="43.39546" lon="4.59477">
        <ele>47.99</ele>
        <time>2019-04-30T13:22:04Z</time>
      </trkpt>
      <trkpt lat="43.39529" lon="4.59446">
        <ele>47.688</ele>
        <time>2019-04-30T13:22:14Z</time>
      </trkpt>
      <trkpt lat="43.39522" lon="4.59431">
        <ele>47.607</ele>
        <time>2019-04-30T13:22:25Z</time>
      </trkpt>
      <trkpt lat="43.39523" lon="4.59432">
        <ele>47.585</ele>
        <time>2019-04-30T13:22:36Z</time>
      </trkpt>
      <trkpt lat="43.39504" lon="4.59425">
        <ele>47.467</ele>
        <time>2019-04-30T13:22:47Z</time>
      </trkpt>
      <trkpt lat="43.39485" lon="4.59425">
        <ele>47.538</ele>
        <time>2019-04-30T13:22:58Z</time>
      </trkpt>
      <trkpt lat="43.39468" lon="4.59438">
        <ele>47.643</ele>
        <time>2019-04-30T13:23:08Z</time>
      </trkpt>
      <trkpt lat="43.39467" lon="4.59459">
        <ele>46.831</ele>
        <time>2019-04-30T13:23:18Z</time>
      </trkpt>
      <trkpt lat="43.3948" lon="4.59478">
        <ele>46.538</ele>
        <time>2019-04-30T13:23:29Z</time>
      </trkpt>
      <trkpt lat="43.39496" lon="4.59504">
        <ele>46.691</ele>
        <time>2019-04-30T13:23:39Z</time>
      </trkpt>
      <trkpt lat="43.39508" lon="4.59541">
        <ele>46.914</ele>
        <time>2019-04-30T13:23:50Z</time>
      </trkpt>
      <trkpt lat="43.39518" lon="4.59578">
        <ele>47.106</ele>
        <time>2019-04-30T13:24:01Z</time>
      </trkpt>
      <trkpt lat="43.39538" lon="4.59602">
        <ele>47.158</ele>
        <time>2019-04-30T13:24:11Z</time>
      </trkpt>
      <trkpt lat="43.39553" lon="4.59625">
        <ele>47.331</ele>
        <time>2019-04-30T13:24:21Z</time>
      </trkpt>
      <trkpt lat="43.39555" lon="4.59628">
        <ele>47.353</ele>
        <time>2019-04-30T13:24:32Z</time>
      </trkpt>
      <trkpt lat="43.39555" lon="4.59629">
        <ele>47.362</ele>
        <time>2019-04-30T13:24:42Z</time>
      </trkpt>
      <trkpt lat="43.39555" lon="4.59629">
        <ele>47.37</ele>
        <time>2019-04-30T13:24:53Z</time>
      </trkpt>
      <trkpt lat="43.39555" lon="4.59629">
        <ele>47.377</ele>
        <time>2019-04-30T13:25:04Z</time>
      </trkpt>
      <trkpt lat="43.39555" lon="4.59629">
        <ele>47.379</ele>
        <time>2019-04-30T13:25:14Z</time>
      </trkpt>
      <trkpt lat="43.39555" lon="4.59629">
        <ele>47.381</ele>
        <time>2019-04-30T13:25:25Z</time>
      </trkpt>
      <trkpt lat="43.39555" lon="4.59629">
        <ele>47.386</ele>
        <time>2019-04-30T13:25:35Z</time>
      </trkpt>
      <trkpt lat="43.39555" lon="4.59629">
        <ele>47.395</ele>
        <time>2019-04-30T13:25:46Z</time>
      </trkpt>
      <trkpt lat="43.39555" lon="4.59629">
        <ele>47.403</ele>
        <time>2019-04-30T13:25:56Z</time>
      </trkpt>
      <trkpt lat="43.39565" lon="4.5965">
        <ele>47.379</ele>
        <time>2019-04-30T13:26:07Z</time>
      </trkpt>
      <trkpt lat="43.39587" lon="4.59676">
        <ele>47.37</ele>
        <time>2019-04-30T13:26:17Z</time>
      </trkpt>
      <trkpt lat="43.39618" lon="4.59668">
        <ele>47.545</ele>
        <time>2019-04-30T13:26:28Z</time>
      </trkpt>
      <trkpt lat="43.39644" lon="4.59661">
        <ele>47.552</ele>
        <time>2019-04-30T13:26:38Z</time>
      </trkpt>
      <trkpt lat="43.39669" lon="4.59644">
        <ele>47.552</ele>
        <time>2019-04-30T13:26:49Z</time>
      </trkpt>
      <trkpt lat="43.39695" lon="4.59648">
        <ele>47.435</ele>
        <time>2019-04-30T13:27:00Z</time>
      </trkpt>
      <trkpt lat="43.3972" lon="4.59659">
        <ele>47.563</ele>
        <time>2019-04-30T13:27:10Z</time>
      </trkpt>
      <trkpt lat="43.3975" lon="4.59665">
        <ele>47.76</ele>
        <time>2019-04-30T13:27:21Z</time>
      </trkpt>
      <trkpt lat="43.3978" lon="4.59678">
        <ele>47.668</ele>
        <time>2019-04-30T13:27:32Z</time>
      </trkpt>
      <trkpt lat="43.39802" lon="4.597">
        <ele>47.674</ele>
        <time>2019-04-30T13:27:42Z</time>
      </trkpt>
      <trkpt lat="43.39826" lon="4.59722">
        <ele>47.98</ele>
        <time>2019-04-30T13:27:53Z</time>
      </trkpt>
      <trkpt lat="43.39849" lon="4.59736">
        <ele>48.298</ele>
        <time>2019-04-30T13:28:04Z</time>
      </trkpt>
      <trkpt lat="43.39871" lon="4.59754">
        <ele>48.639</ele>
        <time>2019-04-30T13:28:14Z</time>
      </trkpt>
      <trkpt lat="43.39894" lon="4.59769">
        <ele>48.862</ele>
        <time>2019-04-30T13:28:25Z</time>
      </trkpt>
      <trkpt lat="43.39926" lon="4.59778">
        <ele>49.642</ele>
        <time>2019-04-30T13:28:36Z</time>
      </trkpt>
      <trkpt lat="43.39957" lon="4.59792">
        <ele>49.777</ele>
        <time>2019-04-30T13:28:47Z</time>
      </trkpt>
      <trkpt lat="43.39988" lon="4.59811">
        <ele>49.422</ele>
        <time>2019-04-30T13:28:57Z</time>
      </trkpt>
      <trkpt lat="43.40016" lon="4.59833">
        <ele>49.111</ele>
        <time>2019-04-30T13:29:08Z</time>
      </trkpt>
      <trkpt lat="43.40042" lon="4.59852">
        <ele>49.003</ele>
        <time>2019-04-30T13:29:18Z</time>
      </trkpt>
      <trkpt lat="43.40064" lon="4.59872">
        <ele>49.138</ele>
        <time>2019-04-30T13:29:28Z</time>
      </trkpt>
      <trkpt lat="43.40094" lon="4.59893">
        <ele>49.225</ele>
        <time>2019-04-30T13:29:39Z</time>
      </trkpt>
      <trkpt lat="43.40123" lon="4.59907">
        <ele>49.214</ele>
        <time>2019-04-30T13:29:50Z</time>
      </trkpt>
      <trkpt lat="43.40152" lon="4.5992">
        <ele>49.03</ele>
        <time>2019-04-30T13:30:01Z</time>
      </trkpt>
      <trkpt lat="43.40177" lon="4.59929">
        <ele>48.93</ele>
        <time>2019-04-30T13:30:11Z</time>
      </trkpt>
      <trkpt lat="43.40208" lon="4.59935">
        <ele>48.742</ele>
        <time>2019-04-30T13:30:22Z</time>
      </trkpt>
      <trkpt lat="43.40237" lon="4.59937">
        <ele>48.909</ele>
        <time>2019-04-30T13:30:32Z</time>
      </trkpt>
      <trkpt lat="43.40271" lon="4.59935">
        <ele>49.276</ele>
        <time>2019-04-30T13:30:43Z</time>
      </trkpt>
      <trkpt lat="43.40305" lon="4.5993">
        <ele>49.235</ele>
        <time>2019-04-30T13:30:54Z</time>
      </trkpt>
      <trkpt lat="43.40337" lon="4.59919">
        <ele>48.951</ele>
        <time>2019-04-30T13:31:05Z</time>
      </trkpt>
      <trkpt lat="43.40368" lon="4.59902">
        <ele>48.756</ele>
        <time>2019-04-30T13:31:15Z</time>
      </trkpt>
      <trkpt lat="43.40399" lon="4.5988">
        <ele>48.525</ele>
        <time>2019-04-30T13:31:25Z</time>
      </trkpt>
      <trkpt lat="43.40432" lon="4.5986">
        <ele>48.244</ele>
        <time>2019-04-30T13:31:36Z</time>
      </trkpt>
      <trkpt lat="43.40463" lon="4.59844">
        <ele>48.229</ele>
        <time>2019-04-30T13:31:46Z</time>
      </trkpt>
      <trkpt lat="43.4049" lon="4.59813">
        <ele>48.386</ele>
        <time>2019-04-30T13:31:57Z</time>
      </trkpt>
      <trkpt lat="43.40515" lon="4.59778">
        <ele>48.654</ele>
        <time>2019-04-30T13:32:07Z</time>
      </trkpt>
      <trkpt lat="43.40541" lon="4.59738">
        <ele>48.58</ele>
        <time>2019-04-30T13:32:18Z</time>
      </trkpt>
      <trkpt lat="43.40571" lon="4.59706">
        <ele>48.67</ele>
        <time>2019-04-30T13:32:29Z</time>
      </trkpt>
      <trkpt lat="43.40598" lon="4.59682">
        <ele>48.645</ele>
        <time>2019-04-30T13:32:39Z</time>
      </trkpt>
      <trkpt lat="43.40622" lon="4.59685">
        <ele>48.898</ele>
        <time>2019-04-30T13:32:49Z</time>
      </trkpt>
      <trkpt lat="43.40651" lon="4.59685">
        <ele>49.124</ele>
        <time>2019-04-30T13:33:00Z</time>
      </trkpt>
      <trkpt lat="43.40679" lon="4.59693">
        <ele>48.689</ele>
        <time>2019-04-30T13:33:11Z</time>
      </trkpt>
      <trkpt lat="43.40696" lon="4.59715">
        <ele>48.574</ele>
        <time>2019-04-30T13:33:21Z</time>
      </trkpt>
      <trkpt lat="43.40719" lon="4.59741">
        <ele>48.764</ele>
        <time>2019-04-30T13:33:32Z</time>
      </trkpt>
      <trkpt lat="43.40737" lon="4.59774">
        <ele>48.917</ele>
        <time>2019-04-30T13:33:43Z</time>
      </trkpt>
      <trkpt lat="43.40751" lon="4.5981">
        <ele>49.003</ele>
        <time>2019-04-30T13:33:53Z</time>
      </trkpt>
      <trkpt lat="43.40765" lon="4.5985">
        <ele>48.946</ele>
        <time>2019-04-30T13:34:04Z</time>
      </trkpt>
      <trkpt lat="43.40775" lon="4.59889">
        <ele>48.929</ele>
        <time>2019-04-30T13:34:15Z</time>
      </trkpt>
      <trkpt lat="43.40782" lon="4.59927">
        <ele>49.085</ele>
        <time>2019-04-30T13:34:25Z</time>
      </trkpt>
      <trkpt lat="43.40794" lon="4.59968">
        <ele>49.799</ele>
        <time>2019-04-30T13:34:36Z</time>
      </trkpt>
      <trkpt lat="43.40805" lon="4.60008">
        <ele>49.894</ele>
        <time>2019-04-30T13:34:46Z</time>
      </trkpt>
      <trkpt lat="43.40815" lon="4.60044">
        <ele>49.871</ele>
        <time>2019-04-30T13:34:56Z</time>
      </trkpt>
      <trkpt lat="43.40825" lon="4.60086">
        <ele>50.262</ele>
        <time>2019-04-30T13:35:07Z</time>
      </trkpt>
      <trkpt lat="43.40835" lon="4.60132">
        <ele>50.394</ele>
        <time>2019-04-30T13:35:18Z</time>
      </trkpt>
      <trkpt lat="43.40844" lon="4.60176">
        <ele>50.446</ele>
        <time>2019-04-30T13:35:28Z</time>
      </trkpt>
      <trkpt lat="43.40859" lon="4.6022">
        <ele>50.586</ele>
        <time>2019-04-30T13:35:39Z</time>
      </trkpt>
      <trkpt lat="43.40872" lon="4.60261">
        <ele>50.358</ele>
        <time>2019-04-30T13:35:49Z</time>
      </trkpt>
      <trkpt lat="43.40889" lon="4.60301">
        <ele>49.969</ele>
        <time>2019-04-30T13:36:00Z</time>
      </trkpt>
      <trkpt lat="43.40903" lon="4.60336">
        <ele>49.663</ele>
        <time>2019-04-30T13:36:10Z</time>
      </trkpt>
      <trkpt lat="43.40925" lon="4.60375">
        <ele>49.268</ele>
        <time>2019-04-30T13:36:21Z</time>
      </trkpt>
      <trkpt lat="43.4094" lon="4.60403">
        <ele>49.007</ele>
        <time>2019-04-30T13:36:32Z</time>
      </trkpt>
      <trkpt lat="43.40937" lon="4.6045">
        <ele>47.144</ele>
        <time>2019-04-30T13:36:42Z</time>
      </trkpt>
      <trkpt lat="43.40912" lon="4.60493">
        <ele>47.274</ele>
        <time>2019-04-30T13:36:53Z</time>
      </trkpt>
      <trkpt lat="43.40906" lon="4.60543">
        <ele>46.903</ele>
        <time>2019-04-30T13:37:03Z</time>
      </trkpt>
      <trkpt lat="43.40927" lon="4.6058">
        <ele>47.229</ele>
        <time>2019-04-30T13:37:14Z</time>
      </trkpt>
      <trkpt lat="43.40951" lon="4.6059">
        <ele>48.129</ele>
        <time>2019-04-30T13:37:25Z</time>
      </trkpt>
      <trkpt lat="43.40976" lon="4.60614">
        <ele>48.828</ele>
        <time>2019-04-30T13:37:36Z</time>
      </trkpt>
      <trkpt lat="43.40998" lon="4.60648">
        <ele>49.361</ele>
        <time>2019-04-30T13:37:47Z</time>
      </trkpt>
      <trkpt lat="43.41022" lon="4.60682">
        <ele>49.449</ele>
        <time>2019-04-30T13:37:58Z</time>
      </trkpt>
      <trkpt lat="43.41045" lon="4.60716">
        <ele>49.202</ele>
        <time>2019-04-30T13:38:09Z</time>
      </trkpt>
      <trkpt lat="43.41066" lon="4.60754">
        <ele>48.934</ele>
        <time>2019-04-30T13:38:20Z</time>
      </trkpt>
      <trkpt lat="43.41068" lon="4.60758">
        <ele>48.809</ele>
        <time>2019-04-30T13:38:31Z</time>
      </trkpt>
      <trkpt lat="43.41068" lon="4.60758">
        <ele>48.769</ele>
        <time>2019-04-30T13:38:41Z</time>
      </trkpt>
      <trkpt lat="43.41068" lon="4.60758">
        <ele>48.736</ele>
        <time>2019-04-30T13:38:51Z</time>
      </trkpt>
      <trkpt lat="43.41077" lon="4.60768">
        <ele>48.763</ele>
        <time>2019-04-30T13:39:02Z</time>
      </trkpt>
      <trkpt lat="43.41098" lon="4.60805">
        <ele>48.976</ele>
        <time>2019-04-30T13:39:13Z</time>
      </trkpt>
      <trkpt lat="43.41113" lon="4.60841">
        <ele>49.235</ele>
        <time>2019-04-30T13:39:24Z</time>
      </trkpt>
      <trkpt lat="43.41127" lon="4.60883">
        <ele>49.286</ele>
        <time>2019-04-30T13:39:35Z</time>
      </trkpt>
      <trkpt lat="43.41145" lon="4.60917">
        <ele>49.405</ele>
        <time>2019-04-30T13:39:45Z</time>
      </trkpt>
      <trkpt lat="43.41175" lon="4.60936">
        <ele>49.838</ele>
        <time>2019-04-30T13:39:56Z</time>
      </trkpt>
      <trkpt lat="43.41204" lon="4.60961">
        <ele>50.165</ele>
        <time>2019-04-30T13:40:07Z</time>
      </trkpt>
      <trkpt lat="43.41229" lon="4.60986">
        <ele>50.11</ele>
        <time>2019-04-30T13:40:17Z</time>
      </trkpt>
      <trkpt lat="43.41256" lon="4.61014">
        <ele>50.063</ele>
        <time>2019-04-30T13:40:28Z</time>
      </trkpt>
      <trkpt lat="43.41281" lon="4.61044">
        <ele>50.261</ele>
        <time>2019-04-30T13:40:39Z</time>
      </trkpt>
      <trkpt lat="43.41299" lon="4.61076">
        <ele>50.482</ele>
        <time>2019-04-30T13:40:50Z</time>
      </trkpt>
      <trkpt lat="43.41321" lon="4.61106">
        <ele>51.017</ele>
        <time>2019-04-30T13:41:00Z</time>
      </trkpt>
      <trkpt lat="43.41347" lon="4.61134">
        <ele>51.555</ele>
        <time>2019-04-30T13:41:11Z</time>
      </trkpt>
      <trkpt lat="43.41366" lon="4.61166">
        <ele>51.461</ele>
        <time>2019-04-30T13:41:21Z</time>
      </trkpt>
      <trkpt lat="43.41391" lon="4.61196">
        <ele>50.893</ele>
        <time>2019-04-30T13:41:31Z</time>
      </trkpt>
      <trkpt lat="43.41413" lon="4.61234">
        <ele>50.425</ele>
        <time>2019-04-30T13:41:42Z</time>
      </trkpt>
      <trkpt lat="43.41434" lon="4.61265">
        <ele>50.186</ele>
        <time>2019-04-30T13:41:52Z</time>
      </trkpt>
      <trkpt lat="43.41453" lon="4.61305">
        <ele>50.012</ele>
        <time>2019-04-30T13:42:03Z</time>
      </trkpt>
      <trkpt lat="43.41472" lon="4.61341">
        <ele>49.996</ele>
        <time>2019-04-30T13:42:13Z</time>
      </trkpt>
      <trkpt lat="43.41491" lon="4.6139">
        <ele>49.782</ele>
        <time>2019-04-30T13:42:24Z</time>
      </trkpt>
      <trkpt lat="43.41486" lon="4.61423">
        <ele>49.342</ele>
        <time>2019-04-30T13:42:34Z</time>
      </trkpt>
      <trkpt lat="43.41479" lon="4.61456">
        <ele>48.657</ele>
        <time>2019-04-30T13:42:44Z</time>
      </trkpt>
      <trkpt lat="43.41467" lon="4.61503">
        <ele>48.063</ele>
        <time>2019-04-30T13:42:55Z</time>
      </trkpt>
      <trkpt lat="43.41451" lon="4.61553">
        <ele>46.926</ele>
        <time>2019-04-30T13:43:06Z</time>
      </trkpt>
      <trkpt lat="43.41464" lon="4.61591">
        <ele>46.941</ele>
        <time>2019-04-30T13:43:16Z</time>
      </trkpt>
      <trkpt lat="43.41485" lon="4.61619">
        <ele>47.54</ele>
        <time>2019-04-30T13:43:26Z</time>
      </trkpt>
      <trkpt lat="43.41477" lon="4.6167">
        <ele>47.8</ele>
        <time>2019-04-30T13:43:37Z</time>
      </trkpt>
      <trkpt lat="43.41474" lon="4.61718">
        <ele>48.037</ele>
        <time>2019-04-30T13:43:48Z</time>
      </trkpt>
      <trkpt lat="43.41482" lon="4.61769">
        <ele>48.118</ele>
        <time>2019-04-30T13:43:59Z</time>
      </trkpt>
      <trkpt lat="43.41504" lon="4.61809">
        <ele>48.27</ele>
        <time>2019-04-30T13:44:10Z</time>
      </trkpt>
      <trkpt lat="43.41524" lon="4.61842">
        <ele>48.354</ele>
        <time>2019-04-30T13:44:20Z</time>
      </trkpt>
      <trkpt lat="43.41553" lon="4.61874">
        <ele>49.249</ele>
        <time>2019-04-30T13:44:31Z</time>
      </trkpt>
      <trkpt lat="43.41578" lon="4.61904">
        <ele>50.471</ele>
        <time>2019-04-30T13:44:42Z</time>
      </trkpt>
      <trkpt lat="43.41604" lon="4.6193">
        <ele>51.631</ele>
        <time>2019-04-30T13:44:53Z</time>
      </trkpt>
      <trkpt lat="43.41633" lon="4.6196">
        <ele>51.488</ele>
        <time>2019-04-30T13:45:04Z</time>
      </trkpt>
      <trkpt lat="43.4166" lon="4.61991">
        <ele>51.094</ele>
        <time>2019-04-30T13:45:14Z</time>
      </trkpt>
      <trkpt lat="43.41689" lon="4.62023">
        <ele>50.642</ele>
        <time>2019-04-30T13:45:25Z</time>
      </trkpt>
      <trkpt lat="43.41719" lon="4.62059">
        <ele>50.37</ele>
        <time>2019-04-30T13:45:36Z</time>
      </trkpt>
      <trkpt lat="43.41747" lon="4.62091">
        <ele>50.259</ele>
        <time>2019-04-30T13:45:46Z</time>
      </trkpt>
      <trkpt lat="43.41773" lon="4.62123">
        <ele>50.02</ele>
        <time>2019-04-30T13:45:57Z</time>
      </trkpt>
      <trkpt lat="43.41799" lon="4.62153">
        <ele>50.22</ele>
        <time>2019-04-30T13:46:08Z</time>
      </trkpt>
      <trkpt lat="43.41819" lon="4.62186">
        <ele>50.266</ele>
        <time>2019-04-30T13:46:19Z</time>
      </trkpt>
      <trkpt lat="43.41806" lon="4.6223">
        <ele>49.958</ele>
        <time>2019-04-30T13:46:30Z</time>
      </trkpt>
      <trkpt lat="43.41786" lon="4.62279">
        <ele>49.063</ele>
        <time>2019-04-30T13:46:41Z</time>
      </trkpt>
      <trkpt lat="43.41766" lon="4.62329">
        <ele>48.415</ele>
        <time>2019-04-30T13:46:51Z</time>
      </trkpt>
      <trkpt lat="43.41742" lon="4.62382">
        <ele>47.858</ele>
        <time>2019-04-30T13:47:02Z</time>
      </trkpt>
      <trkpt lat="43.41717" lon="4.6244">
        <ele>47.782</ele>
        <time>2019-04-30T13:47:13Z</time>
      </trkpt>
      <trkpt lat="43.41691" lon="4.62501">
        <ele>47.489</ele>
        <time>2019-04-30T13:47:24Z</time>
      </trkpt>
      <trkpt lat="43.41666" lon="4.62559">
        <ele>47.86</ele>
        <time>2019-04-30T13:47:35Z</time>
      </trkpt>
      <trkpt lat="43.41643" lon="4.62612">
        <ele>48.036</ele>
        <time>2019-04-30T13:47:45Z</time>
      </trkpt>
      <trkpt lat="43.41616" lon="4.62675">
        <ele>47.776</ele>
        <time>2019-04-30T13:47:56Z</time>
      </trkpt>
      <trkpt lat="43.41589" lon="4.62737">
        <ele>47.854</ele>
        <time>2019-04-30T13:48:07Z</time>
      </trkpt>
      <trkpt lat="43.41567" lon="4.62792">
        <ele>47.861</ele>
        <time>2019-04-30T13:48:17Z</time>
      </trkpt>
      <trkpt lat="43.41551" lon="4.62848">
        <ele>46.957</ele>
        <time>2019-04-30T13:48:28Z</time>
      </trkpt>
      <trkpt lat="43.41535" lon="4.62906">
        <ele>46.847</ele>
        <time>2019-04-30T13:48:39Z</time>
      </trkpt>
      <trkpt lat="43.41515" lon="4.62965">
        <ele>47.077</ele>
        <time>2019-04-30T13:48:50Z</time>
      </trkpt>
      <trkpt lat="43.41498" lon="4.63023">
        <ele>47.252</ele>
        <time>2019-04-30T13:49:00Z</time>
      </trkpt>
      <trkpt lat="43.41482" lon="4.6308">
        <ele>47.094</ele>
        <time>2019-04-30T13:49:10Z</time>
      </trkpt>
      <trkpt lat="43.41465" lon="4.63143">
        <ele>46.828</ele>
        <time>2019-04-30T13:49:21Z</time>
      </trkpt>
      <trkpt lat="43.41448" lon="4.63205">
        <ele>46.819</ele>
        <time>2019-04-30T13:49:31Z</time>
      </trkpt>
      <trkpt lat="43.4143" lon="4.63272">
        <ele>47.186</ele>
        <time>2019-04-30T13:49:42Z</time>
      </trkpt>
      <trkpt lat="43.41414" lon="4.63336">
        <ele>47.763</ele>
        <time>2019-04-30T13:49:53Z</time>
      </trkpt>
      <trkpt lat="43.41398" lon="4.63397">
        <ele>49.835</ele>
        <time>2019-04-30T13:50:04Z</time>
      </trkpt>
      <trkpt lat="43.41388" lon="4.6346">
        <ele>51.481</ele>
        <time>2019-04-30T13:50:15Z</time>
      </trkpt>
      <trkpt lat="43.41382" lon="4.63516">
        <ele>54.631</ele>
        <time>2019-04-30T13:50:26Z</time>
      </trkpt>
      <trkpt lat="43.41374" lon="4.63574">
        <ele>51.581</ele>
        <time>2019-04-30T13:50:37Z</time>
      </trkpt>
      <trkpt lat="43.41365" lon="4.63636">
        <ele>49.655</ele>
        <time>2019-04-30T13:50:48Z</time>
      </trkpt>
      <trkpt lat="43.41357" lon="4.63699">
        <ele>48.454</ele>
        <time>2019-04-30T13:50:59Z</time>
      </trkpt>
      <trkpt lat="43.4135" lon="4.63759">
        <ele>49.461</ele>
        <time>2019-04-30T13:51:09Z</time>
      </trkpt>
      <trkpt lat="43.41341" lon="4.63829">
        <ele>49.895</ele>
        <time>2019-04-30T13:51:20Z</time>
      </trkpt>
      <trkpt lat="43.41333" lon="4.63894">
        <ele>49.325</ele>
        <time>2019-04-30T13:51:30Z</time>
      </trkpt>
      <trkpt lat="43.41322" lon="4.63962">
        <ele>47.092</ele>
        <time>2019-04-30T13:51:40Z</time>
      </trkpt>
      <trkpt lat="43.41305" lon="4.64036">
        <ele>47.35</ele>
        <time>2019-04-30T13:51:51Z</time>
      </trkpt>
      <trkpt lat="43.41289" lon="4.64109">
        <ele>47.064</ele>
        <time>2019-04-30T13:52:01Z</time>
      </trkpt>
      <trkpt lat="43.41273" lon="4.64187">
        <ele>46.519</ele>
        <time>2019-04-30T13:52:12Z</time>
      </trkpt>
      <trkpt lat="43.41256" lon="4.64259">
        <ele>46.5</ele>
        <time>2019-04-30T13:52:23Z</time>
      </trkpt>
      <trkpt lat="43.4124" lon="4.64333">
        <ele>47.319</ele>
        <time>2019-04-30T13:52:34Z</time>
      </trkpt>
      <trkpt lat="43.41225" lon="4.644">
        <ele>47.126</ele>
        <time>2019-04-30T13:52:44Z</time>
      </trkpt>
      <trkpt lat="43.41208" lon="4.64475">
        <ele>47.219</ele>
        <time>2019-04-30T13:52:55Z</time>
      </trkpt>
      <trkpt lat="43.41192" lon="4.64549">
        <ele>47.3</ele>
        <time>2019-04-30T13:53:06Z</time>
      </trkpt>
      <trkpt lat="43.41181" lon="4.64615">
        <ele>47.718</ele>
        <time>2019-04-30T13:53:16Z</time>
      </trkpt>
      <trkpt lat="43.41163" lon="4.64681">
        <ele>48.505</ele>
        <time>2019-04-30T13:53:27Z</time>
      </trkpt>
      <trkpt lat="43.41141" lon="4.64751">
        <ele>48.701</ele>
        <time>2019-04-30T13:53:38Z</time>
      </trkpt>
      <trkpt lat="43.41122" lon="4.64815">
        <ele>48.71</ele>
        <time>2019-04-30T13:53:48Z</time>
      </trkpt>
      <trkpt lat="43.41102" lon="4.64885">
        <ele>49.185</ele>
        <time>2019-04-30T13:53:59Z</time>
      </trkpt>
      <trkpt lat="43.41082" lon="4.6495">
        <ele>49.829</ele>
        <time>2019-04-30T13:54:10Z</time>
      </trkpt>
      <trkpt lat="43.41066" lon="4.65002">
        <ele>51.949</ele>
        <time>2019-04-30T13:54:20Z</time>
      </trkpt>
      <trkpt lat="43.4105" lon="4.65058">
        <ele>52.41</ele>
        <time>2019-04-30T13:54:31Z</time>
      </trkpt>
      <trkpt lat="43.41032" lon="4.65118">
        <ele>51.945</ele>
        <time>2019-04-30T13:54:42Z</time>
      </trkpt>
      <trkpt lat="43.41015" lon="4.65178">
        <ele>51.837</ele>
        <time>2019-04-30T13:54:53Z</time>
      </trkpt>
      <trkpt lat="43.40999" lon="4.65236">
        <ele>51.804</ele>
        <time>2019-04-30T13:55:03Z</time>
      </trkpt>
      <trkpt lat="43.40985" lon="4.65292">
        <ele>52.118</ele>
        <time>2019-04-30T13:55:13Z</time>
      </trkpt>
      <trkpt lat="43.40968" lon="4.65354">
        <ele>53.22</ele>
        <time>2019-04-30T13:55:24Z</time>
      </trkpt>
      <trkpt lat="43.40951" lon="4.65414">
        <ele>51.963</ele>
        <time>2019-04-30T13:55:35Z</time>
      </trkpt>
      <trkpt lat="43.40933" lon="4.65476">
        <ele>52.683</ele>
        <time>2019-04-30T13:55:46Z</time>
      </trkpt>
      <trkpt lat="43.40916" lon="4.65534">
        <ele>53.699</ele>
        <time>2019-04-30T13:55:56Z</time>
      </trkpt>
      <trkpt lat="43.40899" lon="4.65596">
        <ele>53.031</ele>
        <time>2019-04-30T13:56:07Z</time>
      </trkpt>
      <trkpt lat="43.40883" lon="4.65658">
        <ele>51.484</ele>
        <time>2019-04-30T13:56:18Z</time>
      </trkpt>
      <trkpt lat="43.40868" lon="4.65718">
        <ele>50.835</ele>
        <time>2019-04-30T13:56:29Z</time>
      </trkpt>
      <trkpt lat="43.40851" lon="4.65777">
        <ele>50.346</ele>
        <time>2019-04-30T13:56:40Z</time>
      </trkpt>
      <trkpt lat="43.40838" lon="4.65827">
        <ele>49.798</ele>
        <time>2019-04-30T13:56:51Z</time>
      </trkpt>
      <trkpt lat="43.4082" lon="4.65887">
        <ele>49.043</ele>
        <time>2019-04-30T13:57:02Z</time>
      </trkpt>
      <trkpt lat="43.40795" lon="4.65947">
        <ele>50.421</ele>
        <time>2019-04-30T13:57:13Z</time>
      </trkpt>
      <trkpt lat="43.40767" lon="4.66006">
        <ele>50.11</ele>
        <time>2019-04-30T13:57:24Z</time>
      </trkpt>
      <trkpt lat="43.40737" lon="4.66067">
        <ele>49.668</ele>
        <time>2019-04-30T13:57:35Z</time>
      </trkpt>
      <trkpt lat="43.40711" lon="4.66125">
        <ele>48.217</ele>
        <time>2019-04-30T13:57:45Z</time>
      </trkpt>
      <trkpt lat="43.40684" lon="4.66186">
        <ele>47.176</ele>
        <time>2019-04-30T13:57:56Z</time>
      </trkpt>
      <trkpt lat="43.4066" lon="4.66234">
        <ele>47.217</ele>
        <time>2019-04-30T13:58:07Z</time>
      </trkpt>
      <trkpt lat="43.40637" lon="4.66288">
        <ele>45.96</ele>
        <time>2019-04-30T13:58:17Z</time>
      </trkpt>
      <trkpt lat="43.40609" lon="4.66343">
        <ele>42.179</ele>
        <time>2019-04-30T13:58:27Z</time>
      </trkpt>
      <trkpt lat="43.40583" lon="4.66408">
        <ele>40.519</ele>
        <time>2019-04-30T13:58:38Z</time>
      </trkpt>
      <trkpt lat="43.40553" lon="4.66466">
        <ele>39.185</ele>
        <time>2019-04-30T13:58:48Z</time>
      </trkpt>
      <trkpt lat="43.40523" lon="4.66535">
        <ele>39.411</ele>
        <time>2019-04-30T13:58:59Z</time>
      </trkpt>
      <trkpt lat="43.40492" lon="4.66603">
        <ele>43.224</ele>
        <time>2019-04-30T13:59:10Z</time>
      </trkpt>
      <trkpt lat="43.4046" lon="4.66674">
        <ele>46.248</ele>
        <time>2019-04-30T13:59:21Z</time>
      </trkpt>
      <trkpt lat="43.40427" lon="4.66745">
        <ele>46.453</ele>
        <time>2019-04-30T13:59:32Z</time>
      </trkpt>
      <trkpt lat="43.40399" lon="4.66809">
        <ele>46.356</ele>
        <time>2019-04-30T13:59:42Z</time>
      </trkpt>
      <trkpt lat="43.40365" lon="4.66871">
        <ele>45.57</ele>
        <time>2019-04-30T13:59:52Z</time>
      </trkpt>
      <trkpt lat="43.40314" lon="4.6692">
        <ele>41.906</ele>
        <time>2019-04-30T14:00:03Z</time>
      </trkpt>
      <trkpt lat="43.40298" lon="4.66951">
        <ele>41.944</ele>
        <time>2019-04-30T14:00:14Z</time>
      </trkpt>
      <trkpt lat="43.40298" lon="4.6695">
        <ele>42.051</ele>
        <time>2019-04-30T14:00:24Z</time>
      </trkpt>
      <trkpt lat="43.40298" lon="4.6695">
        <ele>42.233</ele>
        <time>2019-04-30T14:00:35Z</time>
      </trkpt>
      <trkpt lat="43.40305" lon="4.66964">
        <ele>44.108</ele>
        <time>2019-04-30T14:00:46Z</time>
      </trkpt>
      <trkpt lat="43.40315" lon="4.66978">
        <ele>45.336</ele>
        <time>2019-04-30T14:00:57Z</time>
      </trkpt>
      <trkpt lat="43.40316" lon="4.66979">
        <ele>45.566</ele>
        <time>2019-04-30T14:01:08Z</time>
      </trkpt>
      <trkpt lat="43.40316" lon="4.66979">
        <ele>45.615</ele>
        <time>2019-04-30T14:01:18Z</time>
      </trkpt>
      <trkpt lat="43.40316" lon="4.66979">
        <ele>45.65</ele>
        <time>2019-04-30T14:01:28Z</time>
      </trkpt>
      <trkpt lat="43.40316" lon="4.66979">
        <ele>45.68</ele>
        <time>2019-04-30T14:01:38Z</time>
      </trkpt>
      <trkpt lat="43.40316" lon="4.66979">
        <ele>45.701</ele>
        <time>2019-04-30T14:01:49Z</time>
      </trkpt>
      <trkpt lat="43.40316" lon="4.66979">
        <ele>45.712</ele>
        <time>2019-04-30T14:02:00Z</time>
      </trkpt>
      <trkpt lat="43.40317" lon="4.6698">
        <ele>45.8</ele>
        <time>2019-04-30T14:02:11Z</time>
      </trkpt>
      <trkpt lat="43.40316" lon="4.66982">
        <ele>46.049</ele>
        <time>2019-04-30T14:02:21Z</time>
      </trkpt>
      <trkpt lat="43.40318" lon="4.6698">
        <ele>46.367</ele>
        <time>2019-04-30T14:02:32Z</time>
      </trkpt>
      <trkpt lat="43.40317" lon="4.66979">
        <ele>46.544</ele>
        <time>2019-04-30T14:02:43Z</time>
      </trkpt>
      <trkpt lat="43.40317" lon="4.66979">
        <ele>46.605</ele>
        <time>2019-04-30T14:02:54Z</time>
      </trkpt>
      <trkpt lat="43.40317" lon="4.66979">
        <ele>46.652</ele>
        <time>2019-04-30T14:03:05Z</time>
      </trkpt>
      <trkpt lat="43.40314" lon="4.66976">
        <ele>46.512</ele>
        <time>2019-04-30T14:03:15Z</time>
      </trkpt>
      <trkpt lat="43.40314" lon="4.66977">
        <ele>46.118</ele>
        <time>2019-04-30T14:03:26Z</time>
      </trkpt>
      <trkpt lat="43.40314" lon="4.66978">
        <ele>46.042</ele>
        <time>2019-04-30T14:03:37Z</time>
      </trkpt>
      <trkpt lat="43.40315" lon="4.66978">
        <ele>46.007</ele>
        <time>2019-04-30T14:03:48Z</time>
      </trkpt>
      <trkpt lat="43.40315" lon="4.66978">
        <ele>45.984</ele>
        <time>2019-04-30T14:03:58Z</time>
      </trkpt>
      <trkpt lat="43.40315" lon="4.66979">
        <ele>46.027</ele>
        <time>2019-04-30T14:04:09Z</time>
      </trkpt>
      <trkpt lat="43.40315" lon="4.66979">
        <ele>46.2</ele>
        <time>2019-04-30T14:04:20Z</time>
      </trkpt>
      <trkpt lat="43.40314" lon="4.66979">
        <ele>46.742</ele>
        <time>2019-04-30T14:04:30Z</time>
      </trkpt>
      <trkpt lat="43.40318" lon="4.66979">
        <ele>47.308</ele>
        <time>2019-04-30T14:04:41Z</time>
      </trkpt>
      <trkpt lat="43.40318" lon="4.66979">
        <ele>47.4</ele>
        <time>2019-04-30T14:04:51Z</time>
      </trkpt>
      <trkpt lat="43.40318" lon="4.66979">
        <ele>47.469</ele>
        <time>2019-04-30T14:05:01Z</time>
      </trkpt>
      <trkpt lat="43.40317" lon="4.66979">
        <ele>47.519</ele>
        <time>2019-04-30T14:05:12Z</time>
      </trkpt>
      <trkpt lat="43.40316" lon="4.6698">
        <ele>47.679</ele>
        <time>2019-04-30T14:05:23Z</time>
      </trkpt>
      <trkpt lat="43.40315" lon="4.6698">
        <ele>47.693</ele>
        <time>2019-04-30T14:05:33Z</time>
      </trkpt>
      <trkpt lat="43.40316" lon="4.66981">
        <ele>47.391</ele>
        <time>2019-04-30T14:05:43Z</time>
      </trkpt>
      <trkpt lat="43.40316" lon="4.66981">
        <ele>47.179</ele>
        <time>2019-04-30T14:05:54Z</time>
      </trkpt>
      <trkpt lat="43.40316" lon="4.66981">
        <ele>46.962</ele>
        <time>2019-04-30T14:06:05Z</time>
      </trkpt>
      <trkpt lat="43.40317" lon="4.66981">
        <ele>46.691</ele>
        <time>2019-04-30T14:06:15Z</time>
      </trkpt>
      <trkpt lat="43.40317" lon="4.66981">
        <ele>46.669</ele>
        <time>2019-04-30T14:06:26Z</time>
      </trkpt>
      <trkpt lat="43.40317" lon="4.6698">
        <ele>46.68</ele>
        <time>2019-04-30T14:06:36Z</time>
      </trkpt>
      <trkpt lat="43.40316" lon="4.6698">
        <ele>46.694</ele>
        <time>2019-04-30T14:06:46Z</time>
      </trkpt>
      <trkpt lat="43.40316" lon="4.6698">
        <ele>46.706</ele>
        <time>2019-04-30T14:06:57Z</time>
      </trkpt>
      <trkpt lat="43.40316" lon="4.6698">
        <ele>46.7</ele>
        <time>2019-04-30T14:07:08Z</time>
      </trkpt>
      <trkpt lat="43.40316" lon="4.6698">
        <ele>46.34</ele>
        <time>2019-04-30T14:07:19Z</time>
      </trkpt>
      <trkpt lat="43.40318" lon="4.6698">
        <ele>46.22</ele>
        <time>2019-04-30T14:07:29Z</time>
      </trkpt>
      <trkpt lat="43.40318" lon="4.66978">
        <ele>46.143</ele>
        <time>2019-04-30T14:07:39Z</time>
      </trkpt>
      <trkpt lat="43.40319" lon="4.6699">
        <ele>46.329</ele>
        <time>2019-04-30T14:07:50Z</time>
      </trkpt>
      <trkpt lat="43.40328" lon="4.67016">
        <ele>47.234</ele>
        <time>2019-04-30T14:08:00Z</time>
      </trkpt>
      <trkpt lat="43.40351" lon="4.67056">
        <ele>46.712</ele>
        <time>2019-04-30T14:08:12Z</time>
      </trkpt>
      <trkpt lat="43.40367" lon="4.67093">
        <ele>46.288</ele>
        <time>2019-04-30T14:08:22Z</time>
      </trkpt>
      <trkpt lat="43.40391" lon="4.67136">
        <ele>47.199</ele>
        <time>2019-04-30T14:08:33Z</time>
      </trkpt>
      <trkpt lat="43.40414" lon="4.67173">
        <ele>46.758</ele>
        <time>2019-04-30T14:08:44Z</time>
      </trkpt>
      <trkpt lat="43.40434" lon="4.67213">
        <ele>46.125</ele>
        <time>2019-04-30T14:08:54Z</time>
      </trkpt>
      <trkpt lat="43.40455" lon="4.67251">
        <ele>45.556</ele>
        <time>2019-04-30T14:09:05Z</time>
      </trkpt>
      <trkpt lat="43.40474" lon="4.67292">
        <ele>45.045</ele>
        <time>2019-04-30T14:09:15Z</time>
      </trkpt>
      <trkpt lat="43.40495" lon="4.67336">
        <ele>43.597</ele>
        <time>2019-04-30T14:09:25Z</time>
      </trkpt>
      <trkpt lat="43.4052" lon="4.67384">
        <ele>42.86</ele>
        <time>2019-04-30T14:09:36Z</time>
      </trkpt>
      <trkpt lat="43.40544" lon="4.67432">
        <ele>41.764</ele>
        <time>2019-04-30T14:09:47Z</time>
      </trkpt>
      <trkpt lat="43.40568" lon="4.67478">
        <ele>41.531</ele>
        <time>2019-04-30T14:09:58Z</time>
      </trkpt>
      <trkpt lat="43.40591" lon="4.67519">
        <ele>41.648</ele>
        <time>2019-04-30T14:10:08Z</time>
      </trkpt>
      <trkpt lat="43.40612" lon="4.67562">
        <ele>41.62</ele>
        <time>2019-04-30T14:10:19Z</time>
      </trkpt>
      <trkpt lat="43.40635" lon="4.67597">
        <ele>41.356</ele>
        <time>2019-04-30T14:10:29Z</time>
      </trkpt>
      <trkpt lat="43.40659" lon="4.67631">
        <ele>41.118</ele>
        <time>2019-04-30T14:10:40Z</time>
      </trkpt>
      <trkpt lat="43.40686" lon="4.67664">
        <ele>41.466</ele>
        <time>2019-04-30T14:10:51Z</time>
      </trkpt>
      <trkpt lat="43.4071" lon="4.67691">
        <ele>43.052</ele>
        <time>2019-04-30T14:11:01Z</time>
      </trkpt>
      <trkpt lat="43.40747" lon="4.67695">
        <ele>43.827</ele>
        <time>2019-04-30T14:11:12Z</time>
      </trkpt>
      <trkpt lat="43.40758" lon="4.67693">
        <ele>44.136</ele>
        <time>2019-04-30T14:11:23Z</time>
      </trkpt>
      <trkpt lat="43.40758" lon="4.67692">
        <ele>44.261</ele>
        <time>2019-04-30T14:11:34Z</time>
      </trkpt>
      <trkpt lat="43.40757" lon="4.67691">
        <ele>44.246</ele>
        <time>2019-04-30T14:11:45Z</time>
      </trkpt>
      <trkpt lat="43.40784" lon="4.67692">
        <ele>44.324</ele>
        <time>2019-04-30T14:11:55Z</time>
      </trkpt>
      <trkpt lat="43.40824" lon="4.67692">
        <ele>44.391</ele>
        <time>2019-04-30T14:12:06Z</time>
      </trkpt>
      <trkpt lat="43.40865" lon="4.67691">
        <ele>44.867</ele>
        <time>2019-04-30T14:12:17Z</time>
      </trkpt>
      <trkpt lat="43.40907" lon="4.67689">
        <ele>44.401</ele>
        <time>2019-04-30T14:12:28Z</time>
      </trkpt>
      <trkpt lat="43.4095" lon="4.67694">
        <ele>43.698</ele>
        <time>2019-04-30T14:12:39Z</time>
      </trkpt>
      <trkpt lat="43.40987" lon="4.67693">
        <ele>40.113</ele>
        <time>2019-04-30T14:12:49Z</time>
      </trkpt>
      <trkpt lat="43.41032" lon="4.67693">
        <ele>39.133</ele>
        <time>2019-04-30T14:13:00Z</time>
      </trkpt>
      <trkpt lat="43.41074" lon="4.67689">
        <ele>38.76</ele>
        <time>2019-04-30T14:13:11Z</time>
      </trkpt>
      <trkpt lat="43.41109" lon="4.67692">
        <ele>38.615</ele>
        <time>2019-04-30T14:13:21Z</time>
      </trkpt>
      <trkpt lat="43.4113" lon="4.67699">
        <ele>38.465</ele>
        <time>2019-04-30T14:13:31Z</time>
      </trkpt>
      <trkpt lat="43.41137" lon="4.67697">
        <ele>38.33</ele>
        <time>2019-04-30T14:13:42Z</time>
      </trkpt>
      <trkpt lat="43.41131" lon="4.67694">
        <ele>36.881</ele>
        <time>2019-04-30T14:13:52Z</time>
      </trkpt>
      <trkpt lat="43.41131" lon="4.67694">
        <ele>36.256</ele>
        <time>2019-04-30T14:14:03Z</time>
      </trkpt>
      <trkpt lat="43.41128" lon="4.67697">
        <ele>32.99</ele>
        <time>2019-04-30T14:14:14Z</time>
      </trkpt>
      <trkpt lat="43.41128" lon="4.67697">
        <ele>32.975</ele>
        <time>2019-04-30T14:14:25Z</time>
      </trkpt>
      <trkpt lat="43.41133" lon="4.67697">
        <ele>33.523</ele>
        <time>2019-04-30T14:14:36Z</time>
      </trkpt>
      <trkpt lat="43.41136" lon="4.67694">
        <ele>34.133</ele>
        <time>2019-04-30T14:14:47Z</time>
      </trkpt>
      <trkpt lat="43.41138" lon="4.67695">
        <ele>34.327</ele>
        <time>2019-04-30T14:14:58Z</time>
      </trkpt>
      <trkpt lat="43.41133" lon="4.67698">
        <ele>35.022</ele>
        <time>2019-04-30T14:15:08Z</time>
      </trkpt>
      <trkpt lat="43.41133" lon="4.67698">
        <ele>35.248</ele>
        <time>2019-04-30T14:15:19Z</time>
      </trkpt>
      <trkpt lat="43.41133" lon="4.67697">
        <ele>35.513</ele>
        <time>2019-04-30T14:15:30Z</time>
      </trkpt>
      <trkpt lat="43.41133" lon="4.67697">
        <ele>35.806</ele>
        <time>2019-04-30T14:15:40Z</time>
      </trkpt>
      <trkpt lat="43.41134" lon="4.67697">
        <ele>36.148</ele>
        <time>2019-04-30T14:15:51Z</time>
      </trkpt>
      <trkpt lat="43.41133" lon="4.67697">
        <ele>36.356</ele>
        <time>2019-04-30T14:16:02Z</time>
      </trkpt>
      <trkpt lat="43.41133" lon="4.67697">
        <ele>36.563</ele>
        <time>2019-04-30T14:16:12Z</time>
      </trkpt>
      <trkpt lat="43.41133" lon="4.67697">
        <ele>37.016</ele>
        <time>2019-04-30T14:16:23Z</time>
      </trkpt>
      <trkpt lat="43.41133" lon="4.67698">
        <ele>37.212</ele>
        <time>2019-04-30T14:16:33Z</time>
      </trkpt>
      <trkpt lat="43.41133" lon="4.67698">
        <ele>37.423</ele>
        <time>2019-04-30T14:16:43Z</time>
      </trkpt>
      <trkpt lat="43.41133" lon="4.67698">
        <ele>37.812</ele>
        <time>2019-04-30T14:16:54Z</time>
      </trkpt>
      <trkpt lat="43.41133" lon="4.67698">
        <ele>38.196</ele>
        <time>2019-04-30T14:17:05Z</time>
      </trkpt>
      <trkpt lat="43.41133" lon="4.67698">
        <ele>38.383</ele>
        <time>2019-04-30T14:17:15Z</time>
      </trkpt>
      <trkpt lat="43.41133" lon="4.67697">
        <ele>38.808</ele>
        <time>2019-04-30T14:17:26Z</time>
      </trkpt>
      <trkpt lat="43.41137" lon="4.67696">
        <ele>40.235</ele>
        <time>2019-04-30T14:17:37Z</time>
      </trkpt>
      <trkpt lat="43.41138" lon="4.67694">
        <ele>41.149</ele>
        <time>2019-04-30T14:17:49Z</time>
      </trkpt>
      <trkpt lat="43.41141" lon="4.67698">
        <ele>41.983</ele>
        <time>2019-04-30T14:18:00Z</time>
      </trkpt>
      <trkpt lat="43.41139" lon="4.67697">
        <ele>42.115</ele>
        <time>2019-04-30T14:18:11Z</time>
      </trkpt>
      <trkpt lat="43.41138" lon="4.67695">
        <ele>43.178</ele>
        <time>2019-04-30T14:18:22Z</time>
      </trkpt>
      <trkpt lat="43.4114" lon="4.67701">
        <ele>42.877</ele>
        <time>2019-04-30T14:18:32Z</time>
      </trkpt>
      <trkpt lat="43.4114" lon="4.677">
        <ele>42.895</ele>
        <time>2019-04-30T14:18:42Z</time>
      </trkpt>
      <trkpt lat="43.4114" lon="4.677">
        <ele>42.914</ele>
        <time>2019-04-30T14:18:53Z</time>
      </trkpt>
      <trkpt lat="43.41139" lon="4.67699">
        <ele>42.948</ele>
        <time>2019-04-30T14:19:03Z</time>
      </trkpt>
      <trkpt lat="43.41139" lon="4.67699">
        <ele>42.953</ele>
        <time>2019-04-30T14:19:13Z</time>
      </trkpt>
      <trkpt lat="43.41139" lon="4.67699">
        <ele>42.924</ele>
        <time>2019-04-30T14:19:24Z</time>
      </trkpt>
      <trkpt lat="43.41139" lon="4.67699">
        <ele>42.874</ele>
        <time>2019-04-30T14:19:35Z</time>
      </trkpt>
      <trkpt lat="43.41139" lon="4.67698">
        <ele>42.817</ele>
        <time>2019-04-30T14:19:45Z</time>
      </trkpt>
      <trkpt lat="43.41139" lon="4.67698">
        <ele>42.747</ele>
        <time>2019-04-30T14:19:56Z</time>
      </trkpt>
      <trkpt lat="43.41139" lon="4.67698">
        <ele>42.676</ele>
        <time>2019-04-30T14:20:07Z</time>
      </trkpt>
      <trkpt lat="43.41139" lon="4.67698">
        <ele>42.609</ele>
        <time>2019-04-30T14:20:18Z</time>
      </trkpt>
      <trkpt lat="43.41139" lon="4.67697">
        <ele>42.545</ele>
        <time>2019-04-30T14:20:29Z</time>
      </trkpt>
      <trkpt lat="43.41138" lon="4.67697">
        <ele>42.422</ele>
        <time>2019-04-30T14:20:39Z</time>
      </trkpt>
      <trkpt lat="43.41138" lon="4.67697">
        <ele>42.379</ele>
        <time>2019-04-30T14:20:49Z</time>
      </trkpt>
      <trkpt lat="43.4114" lon="4.67694">
        <ele>42.599</ele>
        <time>2019-04-30T14:21:00Z</time>
      </trkpt>
      <trkpt lat="43.41131" lon="4.67697">
        <ele>41.569</ele>
        <time>2019-04-30T14:21:11Z</time>
      </trkpt>
      <trkpt lat="43.4113" lon="4.67696">
        <ele>41.611</ele>
        <time>2019-04-30T14:21:21Z</time>
      </trkpt>
      <trkpt lat="43.41131" lon="4.67697">
        <ele>41.855</ele>
        <time>2019-04-30T14:21:32Z</time>
      </trkpt>
      <trkpt lat="43.41131" lon="4.67698">
        <ele>42.185</ele>
        <time>2019-04-30T14:21:43Z</time>
      </trkpt>
      <trkpt lat="43.41131" lon="4.67699">
        <ele>42.775</ele>
        <time>2019-04-30T14:21:53Z</time>
      </trkpt>
      <trkpt lat="43.4113" lon="4.677">
        <ele>43.156</ele>
        <time>2019-04-30T14:22:04Z</time>
      </trkpt>
      <trkpt lat="43.4113" lon="4.67701">
        <ele>43.514</ele>
        <time>2019-04-30T14:22:15Z</time>
      </trkpt>
      <trkpt lat="43.41129" lon="4.67701">
        <ele>43.873</ele>
        <time>2019-04-30T14:22:26Z</time>
      </trkpt>
      <trkpt lat="43.41131" lon="4.67699">
        <ele>44.832</ele>
        <time>2019-04-30T14:22:36Z</time>
      </trkpt>
      <trkpt lat="43.41135" lon="4.67697">
        <ele>45.215</ele>
        <time>2019-04-30T14:22:47Z</time>
      </trkpt>
      <trkpt lat="43.41134" lon="4.67697">
        <ele>45.075</ele>
        <time>2019-04-30T14:22:57Z</time>
      </trkpt>
      <trkpt lat="43.41134" lon="4.67697">
        <ele>45.097</ele>
        <time>2019-04-30T14:23:08Z</time>
      </trkpt>
      <trkpt lat="43.41134" lon="4.67696">
        <ele>45.083</ele>
        <time>2019-04-30T14:23:19Z</time>
      </trkpt>
      <trkpt lat="43.41134" lon="4.67696">
        <ele>45.131</ele>
        <time>2019-04-30T14:23:30Z</time>
      </trkpt>
      <trkpt lat="43.41136" lon="4.67696">
        <ele>45.228</ele>
        <time>2019-04-30T14:23:41Z</time>
      </trkpt>
      <trkpt lat="43.41138" lon="4.67696">
        <ele>45.128</ele>
        <time>2019-04-30T14:23:52Z</time>
      </trkpt>
      <trkpt lat="43.41138" lon="4.67693">
        <ele>45.498</ele>
        <time>2019-04-30T14:24:03Z</time>
      </trkpt>
      <trkpt lat="43.41139" lon="4.67696">
        <ele>44.938</ele>
        <time>2019-04-30T14:24:13Z</time>
      </trkpt>
      <trkpt lat="43.4114" lon="4.67697">
        <ele>44.995</ele>
        <time>2019-04-30T14:24:23Z</time>
      </trkpt>
      <trkpt lat="43.41144" lon="4.67697">
        <ele>44.721</ele>
        <time>2019-04-30T14:24:34Z</time>
      </trkpt>
      <trkpt lat="43.41171" lon="4.67721">
        <ele>44.251</ele>
        <time>2019-04-30T14:24:45Z</time>
      </trkpt>
      <trkpt lat="43.41177" lon="4.67743">
        <ele>44.196</ele>
        <time>2019-04-30T14:24:55Z</time>
      </trkpt>
      <trkpt lat="43.41183" lon="4.67753">
        <ele>44.063</ele>
        <time>2019-04-30T14:25:06Z</time>
      </trkpt>
      <trkpt lat="43.41173" lon="4.67724">
        <ele>44.157</ele>
        <time>2019-04-30T14:25:17Z</time>
      </trkpt>
      <trkpt lat="43.41152" lon="4.67708">
        <ele>43.947</ele>
        <time>2019-04-30T14:25:28Z</time>
      </trkpt>
      <trkpt lat="43.41128" lon="4.67702">
        <ele>43.307</ele>
        <time>2019-04-30T14:25:38Z</time>
      </trkpt>
      <trkpt lat="43.41101" lon="4.67692">
        <ele>43.029</ele>
        <time>2019-04-30T14:25:48Z</time>
      </trkpt>
      <trkpt lat="43.41066" lon="4.67689">
        <ele>41.783</ele>
        <time>2019-04-30T14:25:59Z</time>
      </trkpt>
      <trkpt lat="43.41025" lon="4.67687">
        <ele>40.355</ele>
        <time>2019-04-30T14:26:09Z</time>
      </trkpt>
      <trkpt lat="43.40984" lon="4.67687">
        <ele>41.047</ele>
        <time>2019-04-30T14:26:20Z</time>
      </trkpt>
      <trkpt lat="43.40949" lon="4.67689">
        <ele>41.393</ele>
        <time>2019-04-30T14:26:30Z</time>
      </trkpt>
      <trkpt lat="43.40907" lon="4.67692">
        <ele>43.943</ele>
        <time>2019-04-30T14:26:41Z</time>
      </trkpt>
      <trkpt lat="43.40868" lon="4.67691">
        <ele>43.099</ele>
        <time>2019-04-30T14:26:51Z</time>
      </trkpt>
      <trkpt lat="43.40824" lon="4.67692">
        <ele>39.582</ele>
        <time>2019-04-30T14:27:02Z</time>
      </trkpt>
      <trkpt lat="43.40783" lon="4.6769">
        <ele>43.025</ele>
        <time>2019-04-30T14:27:12Z</time>
      </trkpt>
      <trkpt lat="43.4074" lon="4.67694">
        <ele>45.433</ele>
        <time>2019-04-30T14:27:23Z</time>
      </trkpt>
      <trkpt lat="43.40701" lon="4.67681">
        <ele>46.07</ele>
        <time>2019-04-30T14:27:34Z</time>
      </trkpt>
      <trkpt lat="43.40668" lon="4.67639">
        <ele>46.406</ele>
        <time>2019-04-30T14:27:45Z</time>
      </trkpt>
      <trkpt lat="43.40636" lon="4.67595">
        <ele>47.377</ele>
        <time>2019-04-30T14:27:56Z</time>
      </trkpt>
      <trkpt lat="43.40609" lon="4.67555">
        <ele>43.714</ele>
        <time>2019-04-30T14:28:06Z</time>
      </trkpt>
      <trkpt lat="43.40582" lon="4.67502">
        <ele>43.846</ele>
        <time>2019-04-30T14:28:17Z</time>
      </trkpt>
      <trkpt lat="43.40554" lon="4.6745">
        <ele>44.111</ele>
        <time>2019-04-30T14:28:28Z</time>
      </trkpt>
      <trkpt lat="43.40529" lon="4.67395">
        <ele>44.492</ele>
        <time>2019-04-30T14:28:39Z</time>
      </trkpt>
      <trkpt lat="43.40502" lon="4.67342">
        <ele>46.139</ele>
        <time>2019-04-30T14:28:50Z</time>
      </trkpt>
      <trkpt lat="43.40481" lon="4.67297">
        <ele>45.408</ele>
        <time>2019-04-30T14:29:00Z</time>
      </trkpt>
      <trkpt lat="43.40454" lon="4.67249">
        <ele>44.2</ele>
        <time>2019-04-30T14:29:11Z</time>
      </trkpt>
      <trkpt lat="43.40429" lon="4.67202">
        <ele>42.865</ele>
        <time>2019-04-30T14:29:21Z</time>
      </trkpt>
      <trkpt lat="43.40401" lon="4.6715">
        <ele>44.271</ele>
        <time>2019-04-30T14:29:32Z</time>
      </trkpt>
      <trkpt lat="43.40376" lon="4.67104">
        <ele>45.137</ele>
        <time>2019-04-30T14:29:42Z</time>
      </trkpt>
      <trkpt lat="43.4035" lon="4.67051">
        <ele>44.31</ele>
        <time>2019-04-30T14:29:53Z</time>
      </trkpt>
      <trkpt lat="43.40323" lon="4.66999">
        <ele>44.627</ele>
        <time>2019-04-30T14:30:04Z</time>
      </trkpt>
      <trkpt lat="43.40303" lon="4.66953">
        <ele>45.092</ele>
        <time>2019-04-30T14:30:15Z</time>
      </trkpt>
      <trkpt lat="43.40319" lon="4.66916">
        <ele>46.185</ele>
        <time>2019-04-30T14:30:25Z</time>
      </trkpt>
      <trkpt lat="43.40354" lon="4.66887">
        <ele>46.267</ele>
        <time>2019-04-30T14:30:36Z</time>
      </trkpt>
      <trkpt lat="43.40381" lon="4.66846">
        <ele>45.483</ele>
        <time>2019-04-30T14:30:47Z</time>
      </trkpt>
      <trkpt lat="43.40403" lon="4.66802">
        <ele>44.326</ele>
        <time>2019-04-30T14:30:57Z</time>
      </trkpt>
      <trkpt lat="43.40426" lon="4.6675">
        <ele>45.591</ele>
        <time>2019-04-30T14:31:08Z</time>
      </trkpt>
      <trkpt lat="43.40447" lon="4.66702">
        <ele>46.299</ele>
        <time>2019-04-30T14:31:18Z</time>
      </trkpt>
      <trkpt lat="43.4047" lon="4.66652">
        <ele>47.154</ele>
        <time>2019-04-30T14:31:29Z</time>
      </trkpt>
      <trkpt lat="43.40491" lon="4.66603">
        <ele>47.622</ele>
        <time>2019-04-30T14:31:40Z</time>
      </trkpt>
      <trkpt lat="43.40514" lon="4.66555">
        <ele>47.643</ele>
        <time>2019-04-30T14:31:51Z</time>
      </trkpt>
      <trkpt lat="43.40535" lon="4.66509">
        <ele>48.891</ele>
        <time>2019-04-30T14:32:01Z</time>
      </trkpt>
      <trkpt lat="43.40552" lon="4.66465">
        <ele>47.257</ele>
        <time>2019-04-30T14:32:11Z</time>
      </trkpt>
      <trkpt lat="43.40572" lon="4.66426">
        <ele>47.033</ele>
        <time>2019-04-30T14:32:21Z</time>
      </trkpt>
      <trkpt lat="43.40592" lon="4.66385">
        <ele>46.818</ele>
        <time>2019-04-30T14:32:31Z</time>
      </trkpt>
      <trkpt lat="43.40612" lon="4.66338">
        <ele>46.123</ele>
        <time>2019-04-30T14:32:42Z</time>
      </trkpt>
      <trkpt lat="43.4063" lon="4.66294">
        <ele>45.594</ele>
        <time>2019-04-30T14:32:52Z</time>
      </trkpt>
      <trkpt lat="43.4065" lon="4.66252">
        <ele>45.523</ele>
        <time>2019-04-30T14:33:03Z</time>
      </trkpt>
      <trkpt lat="43.40667" lon="4.66218">
        <ele>45.562</ele>
        <time>2019-04-30T14:33:14Z</time>
      </trkpt>
      <trkpt lat="43.40685" lon="4.66175">
        <ele>45.085</ele>
        <time>2019-04-30T14:33:24Z</time>
      </trkpt>
      <trkpt lat="43.40707" lon="4.6613">
        <ele>44.974</ele>
        <time>2019-04-30T14:33:35Z</time>
      </trkpt>
      <trkpt lat="43.40727" lon="4.66084">
        <ele>45.155</ele>
        <time>2019-04-30T14:33:46Z</time>
      </trkpt>
      <trkpt lat="43.40748" lon="4.66041">
        <ele>44.536</ele>
        <time>2019-04-30T14:33:57Z</time>
      </trkpt>
      <trkpt lat="43.40768" lon="4.66">
        <ele>41.903</ele>
        <time>2019-04-30T14:34:07Z</time>
      </trkpt>
      <trkpt lat="43.4079" lon="4.65956">
        <ele>40.999</ele>
        <time>2019-04-30T14:34:17Z</time>
      </trkpt>
      <trkpt lat="43.40809" lon="4.65913">
        <ele>41.231</ele>
        <time>2019-04-30T14:34:28Z</time>
      </trkpt>
      <trkpt lat="43.40827" lon="4.65865">
        <ele>41.834</ele>
        <time>2019-04-30T14:34:39Z</time>
      </trkpt>
      <trkpt lat="43.40843" lon="4.65826">
        <ele>42.442</ele>
        <time>2019-04-30T14:34:50Z</time>
      </trkpt>
      <trkpt lat="43.40847" lon="4.65785">
        <ele>43.143</ele>
        <time>2019-04-30T14:35:00Z</time>
      </trkpt>
      <trkpt lat="43.40822" lon="4.65778">
        <ele>43.316</ele>
        <time>2019-04-30T14:35:11Z</time>
      </trkpt>
      <trkpt lat="43.40797" lon="4.6578">
        <ele>43.914</ele>
        <time>2019-04-30T14:35:21Z</time>
      </trkpt>
      <trkpt lat="43.40763" lon="4.65776">
        <ele>43.987</ele>
        <time>2019-04-30T14:35:32Z</time>
      </trkpt>
      <trkpt lat="43.40726" lon="4.65774">
        <ele>42.93</ele>
        <time>2019-04-30T14:35:42Z</time>
      </trkpt>
      <trkpt lat="43.40682" lon="4.65772">
        <ele>45.746</ele>
        <time>2019-04-30T14:35:53Z</time>
      </trkpt>
      <trkpt lat="43.40638" lon="4.6577">
        <ele>47.058</ele>
        <time>2019-04-30T14:36:04Z</time>
      </trkpt>
      <trkpt lat="43.40593" lon="4.65766">
        <ele>46.45</ele>
        <time>2019-04-30T14:36:15Z</time>
      </trkpt>
      <trkpt lat="43.40552" lon="4.65763">
        <ele>44.657</ele>
        <time>2019-04-30T14:36:25Z</time>
      </trkpt>
      <trkpt lat="43.40512" lon="4.65764">
        <ele>45.596</ele>
        <time>2019-04-30T14:36:35Z</time>
      </trkpt>
      <trkpt lat="43.40472" lon="4.65732">
        <ele>47.527</ele>
        <time>2019-04-30T14:36:46Z</time>
      </trkpt>
      <trkpt lat="43.40438" lon="4.65693">
        <ele>46.461</ele>
        <time>2019-04-30T14:36:57Z</time>
      </trkpt>
      <trkpt lat="43.40411" lon="4.65656">
        <ele>46.431</ele>
        <time>2019-04-30T14:37:07Z</time>
      </trkpt>
      <trkpt lat="43.40373" lon="4.65635">
        <ele>45.914</ele>
        <time>2019-04-30T14:37:18Z</time>
      </trkpt>
      <trkpt lat="43.40342" lon="4.65614">
        <ele>45.841</ele>
        <time>2019-04-30T14:37:29Z</time>
      </trkpt>
      <trkpt lat="43.40318" lon="4.65601">
        <ele>45.532</ele>
        <time>2019-04-30T14:37:39Z</time>
      </trkpt>
      <trkpt lat="43.40315" lon="4.65573">
        <ele>44.558</ele>
        <time>2019-04-30T14:37:50Z</time>
      </trkpt>
      <trkpt lat="43.40319" lon="4.65545">
        <ele>44.196</ele>
        <time>2019-04-30T14:38:01Z</time>
      </trkpt>
      <trkpt lat="43.40321" lon="4.65547">
        <ele>44.621</ele>
        <time>2019-04-30T14:38:12Z</time>
      </trkpt>
      <trkpt lat="43.40318" lon="4.6555">
        <ele>44.572</ele>
        <time>2019-04-30T14:38:23Z</time>
      </trkpt>
      <trkpt lat="43.40315" lon="4.65567">
        <ele>44.614</ele>
        <time>2019-04-30T14:38:34Z</time>
      </trkpt>
      <trkpt lat="43.40306" lon="4.65569">
        <ele>44.651</ele>
        <time>2019-04-30T14:38:44Z</time>
      </trkpt>
      <trkpt lat="43.40297" lon="4.65559">
        <ele>44.778</ele>
        <time>2019-04-30T14:38:55Z</time>
      </trkpt>
      <trkpt lat="43.40296" lon="4.65547">
        <ele>45.136</ele>
        <time>2019-04-30T14:39:06Z</time>
      </trkpt>
      <trkpt lat="43.40297" lon="4.65543">
        <ele>45.426</ele>
        <time>2019-04-30T14:39:17Z</time>
      </trkpt>
      <trkpt lat="43.40298" lon="4.65543">
        <ele>45.403</ele>
        <time>2019-04-30T14:39:27Z</time>
      </trkpt>
      <trkpt lat="43.40298" lon="4.65543">
        <ele>45.342</ele>
        <time>2019-04-30T14:39:38Z</time>
      </trkpt>
      <trkpt lat="43.40298" lon="4.65544">
        <ele>45.315</ele>
        <time>2019-04-30T14:39:48Z</time>
      </trkpt>
      <trkpt lat="43.40298" lon="4.65543">
        <ele>45.421</ele>
        <time>2019-04-30T14:39:59Z</time>
      </trkpt>
      <trkpt lat="43.40293" lon="4.65551">
        <ele>45.753</ele>
        <time>2019-04-30T14:40:10Z</time>
      </trkpt>
      <trkpt lat="43.4029" lon="4.65551">
        <ele>46.456</ele>
        <time>2019-04-30T14:40:20Z</time>
      </trkpt>
      <trkpt lat="43.40298" lon="4.65566">
        <ele>46.765</ele>
        <time>2019-04-30T14:40:31Z</time>
      </trkpt>
      <trkpt lat="43.40306" lon="4.65578">
        <ele>46.69</ele>
        <time>2019-04-30T14:40:42Z</time>
      </trkpt>
      <trkpt lat="43.40304" lon="4.65578">
        <ele>46.621</ele>
        <time>2019-04-30T14:40:53Z</time>
      </trkpt>
      <trkpt lat="43.40306" lon="4.65591">
        <ele>46.452</ele>
        <time>2019-04-30T14:41:04Z</time>
      </trkpt>
      <trkpt lat="43.40303" lon="4.65625">
        <ele>46.731</ele>
        <time>2019-04-30T14:41:15Z</time>
      </trkpt>
      <trkpt lat="43.40301" lon="4.65653">
        <ele>46.725</ele>
        <time>2019-04-30T14:41:26Z</time>
      </trkpt>
      <trkpt lat="43.40301" lon="4.65653">
        <ele>46.735</ele>
        <time>2019-04-30T14:41:37Z</time>
      </trkpt>
      <trkpt lat="43.40301" lon="4.65653">
        <ele>46.699</ele>
        <time>2019-04-30T14:41:47Z</time>
      </trkpt>
      <trkpt lat="43.403" lon="4.65671">
        <ele>45.835</ele>
        <time>2019-04-30T14:41:58Z</time>
      </trkpt>
      <trkpt lat="43.40296" lon="4.65711">
        <ele>46.192</ele>
        <time>2019-04-30T14:42:08Z</time>
      </trkpt>
      <trkpt lat="43.40291" lon="4.65756">
        <ele>46.749</ele>
        <time>2019-04-30T14:42:19Z</time>
      </trkpt>
      <trkpt lat="43.40287" lon="4.65799">
        <ele>47.254</ele>
        <time>2019-04-30T14:42:29Z</time>
      </trkpt>
      <trkpt lat="43.40284" lon="4.65847">
        <ele>47.363</ele>
        <time>2019-04-30T14:42:40Z</time>
      </trkpt>
      <trkpt lat="43.4028" lon="4.65894">
        <ele>46.803</ele>
        <time>2019-04-30T14:42:50Z</time>
      </trkpt>
      <trkpt lat="43.40275" lon="4.65941">
        <ele>46.724</ele>
        <time>2019-04-30T14:43:00Z</time>
      </trkpt>
      <trkpt lat="43.40271" lon="4.65992">
        <ele>46.667</ele>
        <time>2019-04-30T14:43:11Z</time>
      </trkpt>
      <trkpt lat="43.40262" lon="4.66026">
        <ele>46.521</ele>
        <time>2019-04-30T14:43:22Z</time>
      </trkpt>
      <trkpt lat="43.40237" lon="4.6602">
        <ele>46.088</ele>
        <time>2019-04-30T14:43:32Z</time>
      </trkpt>
      <trkpt lat="43.4021" lon="4.66016">
        <ele>45.573</ele>
        <time>2019-04-30T14:43:43Z</time>
      </trkpt>
      <trkpt lat="43.40185" lon="4.66007">
        <ele>45.324</ele>
        <time>2019-04-30T14:43:54Z</time>
      </trkpt>
      <trkpt lat="43.4015" lon="4.66">
        <ele>45.41</ele>
        <time>2019-04-30T14:44:05Z</time>
      </trkpt>
      <trkpt lat="43.40115" lon="4.65989">
        <ele>45.563</ele>
        <time>2019-04-30T14:44:15Z</time>
      </trkpt>
      <trkpt lat="43.40084" lon="4.65985">
        <ele>46.105</ele>
        <time>2019-04-30T14:44:26Z</time>
      </trkpt>
      <trkpt lat="43.40052" lon="4.65979">
        <ele>46.157</ele>
        <time>2019-04-30T14:44:36Z</time>
      </trkpt>
      <trkpt lat="43.40021" lon="4.65974">
        <ele>46.036</ele>
        <time>2019-04-30T14:44:46Z</time>
      </trkpt>
      <trkpt lat="43.39986" lon="4.65956">
        <ele>46.142</ele>
        <time>2019-04-30T14:44:57Z</time>
      </trkpt>
      <trkpt lat="43.39953" lon="4.65924">
        <ele>46.39</ele>
        <time>2019-04-30T14:45:08Z</time>
      </trkpt>
      <trkpt lat="43.39924" lon="4.65896">
        <ele>46.89</ele>
        <time>2019-04-30T14:45:19Z</time>
      </trkpt>
      <trkpt lat="43.39894" lon="4.65865">
        <ele>46.809</ele>
        <time>2019-04-30T14:45:29Z</time>
      </trkpt>
      <trkpt lat="43.39862" lon="4.65833">
        <ele>46.652</ele>
        <time>2019-04-30T14:45:40Z</time>
      </trkpt>
      <trkpt lat="43.39834" lon="4.65803">
        <ele>46.421</ele>
        <time>2019-04-30T14:45:51Z</time>
      </trkpt>
      <trkpt lat="43.39804" lon="4.65775">
        <ele>45.583</ele>
        <time>2019-04-30T14:46:01Z</time>
      </trkpt>
      <trkpt lat="43.39778" lon="4.65749">
        <ele>45.656</ele>
        <time>2019-04-30T14:46:11Z</time>
      </trkpt>
      <trkpt lat="43.39754" lon="4.65725">
        <ele>46.001</ele>
        <time>2019-04-30T14:46:21Z</time>
      </trkpt>
      <trkpt lat="43.39725" lon="4.65692">
        <ele>44.928</ele>
        <time>2019-04-30T14:46:32Z</time>
      </trkpt>
      <trkpt lat="43.39699" lon="4.65665">
        <ele>44.744</ele>
        <time>2019-04-30T14:46:42Z</time>
      </trkpt>
      <trkpt lat="43.39669" lon="4.65635">
        <ele>44.683</ele>
        <time>2019-04-30T14:46:52Z</time>
      </trkpt>
      <trkpt lat="43.3964" lon="4.65604">
        <ele>44.499</ele>
        <time>2019-04-30T14:47:02Z</time>
      </trkpt>
      <trkpt lat="43.39612" lon="4.65574">
        <ele>44.701</ele>
        <time>2019-04-30T14:47:12Z</time>
      </trkpt>
      <trkpt lat="43.39607" lon="4.65567">
        <ele>44.772</ele>
        <time>2019-04-30T14:47:23Z</time>
      </trkpt>
      <trkpt lat="43.39607" lon="4.65567">
        <ele>44.814</ele>
        <time>2019-04-30T14:47:33Z</time>
      </trkpt>
      <trkpt lat="43.39607" lon="4.65567">
        <ele>44.844</ele>
        <time>2019-04-30T14:47:43Z</time>
      </trkpt>
      <trkpt lat="43.39607" lon="4.65567">
        <ele>44.884</ele>
        <time>2019-04-30T14:47:54Z</time>
      </trkpt>
      <trkpt lat="43.39607" lon="4.65568">
        <ele>44.927</ele>
        <time>2019-04-30T14:48:05Z</time>
      </trkpt>
      <trkpt lat="43.39607" lon="4.65568">
        <ele>44.966</ele>
        <time>2019-04-30T14:48:16Z</time>
      </trkpt>
      <trkpt lat="43.39607" lon="4.65568">
        <ele>44.999</ele>
        <time>2019-04-30T14:48:27Z</time>
      </trkpt>
      <trkpt lat="43.39607" lon="4.65568">
        <ele>45.022</ele>
        <time>2019-04-30T14:48:37Z</time>
      </trkpt>
      <trkpt lat="43.39607" lon="4.65568">
        <ele>45.043</ele>
        <time>2019-04-30T14:48:47Z</time>
      </trkpt>
      <trkpt lat="43.39603" lon="4.65564">
        <ele>45.24</ele>
        <time>2019-04-30T14:48:58Z</time>
      </trkpt>
      <trkpt lat="43.3958" lon="4.65539">
        <ele>45.834</ele>
        <time>2019-04-30T14:49:08Z</time>
      </trkpt>
      <trkpt lat="43.39552" lon="4.65505">
        <ele>46.14</ele>
        <time>2019-04-30T14:49:19Z</time>
      </trkpt>
      <trkpt lat="43.39523" lon="4.65474">
        <ele>46.688</ele>
        <time>2019-04-30T14:49:30Z</time>
      </trkpt>
      <trkpt lat="43.39492" lon="4.65442">
        <ele>46.48</ele>
        <time>2019-04-30T14:49:41Z</time>
      </trkpt>
      <trkpt lat="43.39464" lon="4.65406">
        <ele>44.643</ele>
        <time>2019-04-30T14:49:51Z</time>
      </trkpt>
      <trkpt lat="43.39429" lon="4.65372">
        <ele>45.631</ele>
        <time>2019-04-30T14:50:02Z</time>
      </trkpt>
      <trkpt lat="43.39398" lon="4.65337">
        <ele>46.477</ele>
        <time>2019-04-30T14:50:13Z</time>
      </trkpt>
      <trkpt lat="43.39374" lon="4.65308">
        <ele>46.654</ele>
        <time>2019-04-30T14:50:23Z</time>
      </trkpt>
      <trkpt lat="43.39342" lon="4.65272">
        <ele>47.274</ele>
        <time>2019-04-30T14:50:34Z</time>
      </trkpt>
      <trkpt lat="43.39317" lon="4.65233">
        <ele>44.285</ele>
        <time>2019-04-30T14:50:45Z</time>
      </trkpt>
      <trkpt lat="43.39307" lon="4.65182">
        <ele>41.087</ele>
        <time>2019-04-30T14:50:55Z</time>
      </trkpt>
      <trkpt lat="43.39288" lon="4.65135">
        <ele>41.812</ele>
        <time>2019-04-30T14:51:06Z</time>
      </trkpt>
      <trkpt lat="43.39262" lon="4.65097">
        <ele>42.755</ele>
        <time>2019-04-30T14:51:16Z</time>
      </trkpt>
      <trkpt lat="43.39239" lon="4.65055">
        <ele>42.918</ele>
        <time>2019-04-30T14:51:26Z</time>
      </trkpt>
      <trkpt lat="43.39215" lon="4.65009">
        <ele>44.452</ele>
        <time>2019-04-30T14:51:37Z</time>
      </trkpt>
      <trkpt lat="43.39192" lon="4.64962">
        <ele>44.475</ele>
        <time>2019-04-30T14:51:48Z</time>
      </trkpt>
      <trkpt lat="43.39161" lon="4.64939">
        <ele>44.476</ele>
        <time>2019-04-30T14:51:58Z</time>
      </trkpt>
      <trkpt lat="43.39136" lon="4.64942">
        <ele>44.698</ele>
        <time>2019-04-30T14:52:09Z</time>
      </trkpt>
      <trkpt lat="43.39136" lon="4.64941">
        <ele>45.059</ele>
        <time>2019-04-30T14:52:20Z</time>
      </trkpt>
      <trkpt lat="43.39137" lon="4.64942">
        <ele>45.5</ele>
        <time>2019-04-30T14:52:31Z</time>
      </trkpt>
      <trkpt lat="43.39137" lon="4.64942">
        <ele>45.544</ele>
        <time>2019-04-30T14:52:42Z</time>
      </trkpt>
      <trkpt lat="43.39137" lon="4.64942">
        <ele>45.56</ele>
        <time>2019-04-30T14:52:53Z</time>
      </trkpt>
      <trkpt lat="43.39137" lon="4.64942">
        <ele>45.563</ele>
        <time>2019-04-30T14:53:04Z</time>
      </trkpt>
      <trkpt lat="43.3912" lon="4.64942">
        <ele>45.729</ele>
        <time>2019-04-30T14:53:15Z</time>
      </trkpt>
      <trkpt lat="43.3908" lon="4.64944">
        <ele>45.114</ele>
        <time>2019-04-30T14:53:26Z</time>
      </trkpt>
      <trkpt lat="43.39043" lon="4.64944">
        <ele>44.582</ele>
        <time>2019-04-30T14:53:36Z</time>
      </trkpt>
      <trkpt lat="43.39" lon="4.6495">
        <ele>45.154</ele>
        <time>2019-04-30T14:53:47Z</time>
      </trkpt>
      <trkpt lat="43.38956" lon="4.64952">
        <ele>46.281</ele>
        <time>2019-04-30T14:53:58Z</time>
      </trkpt>
      <trkpt lat="43.38916" lon="4.64954">
        <ele>46.19</ele>
        <time>2019-04-30T14:54:08Z</time>
      </trkpt>
      <trkpt lat="43.38874" lon="4.64961">
        <ele>45.202</ele>
        <time>2019-04-30T14:54:19Z</time>
      </trkpt>
      <trkpt lat="43.38846" lon="4.64962">
        <ele>46.057</ele>
        <time>2019-04-30T14:54:29Z</time>
      </trkpt>
      <trkpt lat="43.38845" lon="4.64961">
        <ele>46.385</ele>
        <time>2019-04-30T14:54:40Z</time>
      </trkpt>
      <trkpt lat="43.38845" lon="4.64961">
        <ele>46.362</ele>
        <time>2019-04-30T14:54:50Z</time>
      </trkpt>
      <trkpt lat="43.38846" lon="4.64961">
        <ele>46.351</ele>
        <time>2019-04-30T14:55:01Z</time>
      </trkpt>
      <trkpt lat="43.38846" lon="4.64961">
        <ele>46.333</ele>
        <time>2019-04-30T14:55:12Z</time>
      </trkpt>
      <trkpt lat="43.38825" lon="4.64964">
        <ele>46.164</ele>
        <time>2019-04-30T14:55:23Z</time>
      </trkpt>
      <trkpt lat="43.38791" lon="4.64968">
        <ele>45.847</ele>
        <time>2019-04-30T14:55:33Z</time>
      </trkpt>
      <trkpt lat="43.38751" lon="4.64973">
        <ele>45.975</ele>
        <time>2019-04-30T14:55:44Z</time>
      </trkpt>
      <trkpt lat="43.38708" lon="4.64977">
        <ele>44.671</ele>
        <time>2019-04-30T14:55:55Z</time>
      </trkpt>
      <trkpt lat="43.38673" lon="4.64992">
        <ele>42.472</ele>
        <time>2019-04-30T14:56:05Z</time>
      </trkpt>
      <trkpt lat="43.38633" lon="4.65002">
        <ele>44.864</ele>
        <time>2019-04-30T14:56:15Z</time>
      </trkpt>
      <trkpt lat="43.3859" lon="4.64999">
        <ele>44.348</ele>
        <time>2019-04-30T14:56:26Z</time>
      </trkpt>
      <trkpt lat="43.38543" lon="4.64995">
        <ele>44.126</ele>
        <time>2019-04-30T14:56:37Z</time>
      </trkpt>
      <trkpt lat="43.385" lon="4.64993">
        <ele>43.441</ele>
        <time>2019-04-30T14:56:47Z</time>
      </trkpt>
      <trkpt lat="43.38449" lon="4.64981">
        <ele>41.055</ele>
        <time>2019-04-30T14:56:58Z</time>
      </trkpt>
      <trkpt lat="43.38401" lon="4.64996">
        <ele>41.772</ele>
        <time>2019-04-30T14:57:09Z</time>
      </trkpt>
      <trkpt lat="43.38355" lon="4.65014">
        <ele>44.339</ele>
        <time>2019-04-30T14:57:19Z</time>
      </trkpt>
      <trkpt lat="43.38308" lon="4.6503">
        <ele>42.178</ele>
        <time>2019-04-30T14:57:29Z</time>
      </trkpt>
      <trkpt lat="43.38258" lon="4.65047">
        <ele>42.265</ele>
        <time>2019-04-30T14:57:40Z</time>
      </trkpt>
      <trkpt lat="43.38209" lon="4.65077">
        <ele>42.591</ele>
        <time>2019-04-30T14:57:51Z</time>
      </trkpt>
      <trkpt lat="43.38167" lon="4.65117">
        <ele>43.161</ele>
        <time>2019-04-30T14:58:02Z</time>
      </trkpt>
      <trkpt lat="43.38123" lon="4.65148">
        <ele>45.666</ele>
        <time>2019-04-30T14:58:13Z</time>
      </trkpt>
      <trkpt lat="43.38077" lon="4.65168">
        <ele>45.945</ele>
        <time>2019-04-30T14:58:24Z</time>
      </trkpt>
      <trkpt lat="43.38034" lon="4.65196">
        <ele>43.947</ele>
        <time>2019-04-30T14:58:34Z</time>
      </trkpt>
      <trkpt lat="43.37998" lon="4.65232">
        <ele>42.861</ele>
        <time>2019-04-30T14:58:44Z</time>
      </trkpt>
      <trkpt lat="43.37963" lon="4.65262">
        <ele>41.755</ele>
        <time>2019-04-30T14:58:55Z</time>
      </trkpt>
      <trkpt lat="43.37922" lon="4.65298">
        <ele>44.075</ele>
        <time>2019-04-30T14:59:06Z</time>
      </trkpt>
      <trkpt lat="43.37882" lon="4.65326">
        <ele>44.362</ele>
        <time>2019-04-30T14:59:16Z</time>
      </trkpt>
      <trkpt lat="43.3784" lon="4.65363">
        <ele>45.475</ele>
        <time>2019-04-30T14:59:27Z</time>
      </trkpt>
      <trkpt lat="43.37797" lon="4.65389">
        <ele>45.669</ele>
        <time>2019-04-30T14:59:38Z</time>
      </trkpt>
      <trkpt lat="43.3775" lon="4.65411">
        <ele>46.877</ele>
        <time>2019-04-30T14:59:49Z</time>
      </trkpt>
      <trkpt lat="43.37707" lon="4.65436">
        <ele>45.974</ele>
        <time>2019-04-30T14:59:59Z</time>
      </trkpt>
      <trkpt lat="43.37669" lon="4.65477">
        <ele>46.538</ele>
        <time>2019-04-30T15:00:09Z</time>
      </trkpt>
      <trkpt lat="43.37629" lon="4.65506">
        <ele>45.693</ele>
        <time>2019-04-30T15:00:19Z</time>
      </trkpt>
      <trkpt lat="43.37582" lon="4.65525">
        <ele>45.805</ele>
        <time>2019-04-30T15:00:30Z</time>
      </trkpt>
      <trkpt lat="43.37567" lon="4.65567">
        <ele>45.979</ele>
        <time>2019-04-30T15:00:41Z</time>
      </trkpt>
      <trkpt lat="43.37567" lon="4.65597">
        <ele>45.879</ele>
        <time>2019-04-30T15:00:52Z</time>
      </trkpt>
      <trkpt lat="43.37568" lon="4.65597">
        <ele>45.868</ele>
        <time>2019-04-30T15:01:03Z</time>
      </trkpt>
      <trkpt lat="43.37568" lon="4.65597">
        <ele>45.835</ele>
        <time>2019-04-30T15:01:14Z</time>
      </trkpt>
      <trkpt lat="43.37568" lon="4.65597">
        <ele>45.806</ele>
        <time>2019-04-30T15:01:25Z</time>
      </trkpt>
      <trkpt lat="43.37568" lon="4.65597">
        <ele>45.811</ele>
        <time>2019-04-30T15:01:35Z</time>
      </trkpt>
      <trkpt lat="43.3757" lon="4.65597">
        <ele>45.78</ele>
        <time>2019-04-30T15:01:46Z</time>
      </trkpt>
      <trkpt lat="43.37569" lon="4.65596">
        <ele>45.731</ele>
        <time>2019-04-30T15:01:56Z</time>
      </trkpt>
      <trkpt lat="43.37567" lon="4.65598">
        <ele>45.802</ele>
        <time>2019-04-30T15:02:07Z</time>
      </trkpt>
      <trkpt lat="43.37567" lon="4.65598">
        <ele>45.874</ele>
        <time>2019-04-30T15:02:18Z</time>
      </trkpt>
      <trkpt lat="43.37567" lon="4.65597">
        <ele>45.941</ele>
        <time>2019-04-30T15:02:29Z</time>
      </trkpt>
      <trkpt lat="43.37568" lon="4.65595">
        <ele>46.126</ele>
        <time>2019-04-30T15:02:39Z</time>
      </trkpt>
      <trkpt lat="43.3757" lon="4.65601">
        <ele>46.161</ele>
        <time>2019-04-30T15:02:50Z</time>
      </trkpt>
      <trkpt lat="43.37573" lon="4.65605">
        <ele>46.364</ele>
        <time>2019-04-30T15:03:00Z</time>
      </trkpt>
      <trkpt lat="43.37573" lon="4.65605">
        <ele>46.383</ele>
        <time>2019-04-30T15:03:11Z</time>
      </trkpt>
      <trkpt lat="43.37573" lon="4.65606">
        <ele>46.397</ele>
        <time>2019-04-30T15:03:21Z</time>
      </trkpt>
      <trkpt lat="43.37573" lon="4.65606">
        <ele>46.452</ele>
        <time>2019-04-30T15:03:31Z</time>
      </trkpt>
      <trkpt lat="43.37573" lon="4.65606">
        <ele>46.545</ele>
        <time>2019-04-30T15:03:42Z</time>
      </trkpt>
      <trkpt lat="43.37573" lon="4.65606">
        <ele>46.632</ele>
        <time>2019-04-30T15:03:53Z</time>
      </trkpt>
      <trkpt lat="43.37573" lon="4.65607">
        <ele>46.72</ele>
        <time>2019-04-30T15:04:03Z</time>
      </trkpt>
      <trkpt lat="43.37573" lon="4.65607">
        <ele>46.796</ele>
        <time>2019-04-30T15:04:13Z</time>
      </trkpt>
      <trkpt lat="43.37572" lon="4.65605">
        <ele>46.965</ele>
        <time>2019-04-30T15:04:24Z</time>
      </trkpt>
      <trkpt lat="43.37569" lon="4.65598">
        <ele>46.94</ele>
        <time>2019-04-30T15:04:34Z</time>
      </trkpt>
      <trkpt lat="43.37568" lon="4.65596">
        <ele>46.943</ele>
        <time>2019-04-30T15:04:44Z</time>
      </trkpt>
      <trkpt lat="43.37568" lon="4.65596">
        <ele>46.966</ele>
        <time>2019-04-30T15:04:55Z</time>
      </trkpt>
      <trkpt lat="43.37568" lon="4.65598">
        <ele>47.052</ele>
        <time>2019-04-30T15:05:05Z</time>
      </trkpt>
      <trkpt lat="43.37566" lon="4.65596">
        <ele>47.317</ele>
        <time>2019-04-30T15:05:16Z</time>
      </trkpt>
      <trkpt lat="43.37568" lon="4.65594">
        <ele>47.038</ele>
        <time>2019-04-30T15:05:27Z</time>
      </trkpt>
      <trkpt lat="43.37567" lon="4.65558">
        <ele>47.465</ele>
        <time>2019-04-30T15:05:38Z</time>
      </trkpt>
      <trkpt lat="43.37576" lon="4.65525">
        <ele>47.324</ele>
        <time>2019-04-30T15:05:48Z</time>
      </trkpt>
      <trkpt lat="43.37607" lon="4.65516">
        <ele>47.21</ele>
        <time>2019-04-30T15:05:59Z</time>
      </trkpt>
      <trkpt lat="43.37639" lon="4.65501">
        <ele>47.211</ele>
        <time>2019-04-30T15:06:10Z</time>
      </trkpt>
      <trkpt lat="43.37665" lon="4.65481">
        <ele>47.313</ele>
        <time>2019-04-30T15:06:20Z</time>
      </trkpt>
      <trkpt lat="43.37689" lon="4.65456">
        <ele>47.491</ele>
        <time>2019-04-30T15:06:30Z</time>
      </trkpt>
      <trkpt lat="43.37717" lon="4.65429">
        <ele>47.731</ele>
        <time>2019-04-30T15:06:41Z</time>
      </trkpt>
      <trkpt lat="43.37751" lon="4.65411">
        <ele>48.364</ele>
        <time>2019-04-30T15:06:52Z</time>
      </trkpt>
      <trkpt lat="43.37784" lon="4.65396">
        <ele>48.604</ele>
        <time>2019-04-30T15:07:03Z</time>
      </trkpt>
      <trkpt lat="43.37813" lon="4.65378">
        <ele>48.865</ele>
        <time>2019-04-30T15:07:13Z</time>
      </trkpt>
      <trkpt lat="43.37847" lon="4.65357">
        <ele>49.044</ele>
        <time>2019-04-30T15:07:24Z</time>
      </trkpt>
      <trkpt lat="43.37876" lon="4.65334">
        <ele>49.063</ele>
        <time>2019-04-30T15:07:34Z</time>
      </trkpt>
      <trkpt lat="43.37903" lon="4.65314">
        <ele>49.031</ele>
        <time>2019-04-30T15:07:44Z</time>
      </trkpt>
      <trkpt lat="43.37931" lon="4.65294">
        <ele>49.067</ele>
        <time>2019-04-30T15:07:55Z</time>
      </trkpt>
      <trkpt lat="43.37956" lon="4.65274">
        <ele>49.135</ele>
        <time>2019-04-30T15:08:05Z</time>
      </trkpt>
      <trkpt lat="43.37981" lon="4.65251">
        <ele>49.187</ele>
        <time>2019-04-30T15:08:16Z</time>
      </trkpt>
      <trkpt lat="43.38005" lon="4.65229">
        <ele>49.199</ele>
        <time>2019-04-30T15:08:26Z</time>
      </trkpt>
      <trkpt lat="43.3803" lon="4.65205">
        <ele>49.157</ele>
        <time>2019-04-30T15:08:37Z</time>
      </trkpt>
      <trkpt lat="43.38056" lon="4.65183">
        <ele>49.08</ele>
        <time>2019-04-30T15:08:48Z</time>
      </trkpt>
      <trkpt lat="43.38084" lon="4.65168">
        <ele>48.96</ele>
        <time>2019-04-30T15:08:59Z</time>
      </trkpt>
      <trkpt lat="43.38114" lon="4.65155">
        <ele>48.965</ele>
        <time>2019-04-30T15:09:10Z</time>
      </trkpt>
      <trkpt lat="43.38142" lon="4.65141">
        <ele>49.04</ele>
        <time>2019-04-30T15:09:20Z</time>
      </trkpt>
      <trkpt lat="43.38169" lon="4.65119">
        <ele>49.314</ele>
        <time>2019-04-30T15:09:31Z</time>
      </trkpt>
      <trkpt lat="43.38196" lon="4.65095">
        <ele>49.443</ele>
        <time>2019-04-30T15:09:42Z</time>
      </trkpt>
      <trkpt lat="43.38222" lon="4.6507">
        <ele>49.415</ele>
        <time>2019-04-30T15:09:53Z</time>
      </trkpt>
      <trkpt lat="43.38252" lon="4.65051">
        <ele>49.314</ele>
        <time>2019-04-30T15:10:04Z</time>
      </trkpt>
      <trkpt lat="43.3828" lon="4.65042">
        <ele>49.254</ele>
        <time>2019-04-30T15:10:14Z</time>
      </trkpt>
      <trkpt lat="43.3831" lon="4.65031">
        <ele>49.172</ele>
        <time>2019-04-30T15:10:25Z</time>
      </trkpt>
      <trkpt lat="43.3834" lon="4.6502">
        <ele>49.384</ele>
        <time>2019-04-30T15:10:36Z</time>
      </trkpt>
      <trkpt lat="43.38372" lon="4.65008">
        <ele>49.389</ele>
        <time>2019-04-30T15:10:47Z</time>
      </trkpt>
      <trkpt lat="43.38404" lon="4.64997">
        <ele>49.297</ele>
        <time>2019-04-30T15:10:58Z</time>
      </trkpt>
      <trkpt lat="43.38437" lon="4.64985">
        <ele>49.125</ele>
        <time>2019-04-30T15:11:09Z</time>
      </trkpt>
      <trkpt lat="43.38469" lon="4.64984">
        <ele>48.909</ele>
        <time>2019-04-30T15:11:20Z</time>
      </trkpt>
      <trkpt lat="43.38502" lon="4.6499">
        <ele>48.868</ele>
        <time>2019-04-30T15:11:31Z</time>
      </trkpt>
      <trkpt lat="43.38535" lon="4.64995">
        <ele>48.568</ele>
        <time>2019-04-30T15:11:42Z</time>
      </trkpt>
      <trkpt lat="43.38564" lon="4.64995">
        <ele>48.419</ele>
        <time>2019-04-30T15:11:53Z</time>
      </trkpt>
      <trkpt lat="43.38592" lon="4.64997">
        <ele>48.273</ele>
        <time>2019-04-30T15:12:03Z</time>
      </trkpt>
      <trkpt lat="43.38624" lon="4.64999">
        <ele>48.035</ele>
        <time>2019-04-30T15:12:14Z</time>
      </trkpt>
      <trkpt lat="43.38657" lon="4.64998">
        <ele>47.954</ele>
        <time>2019-04-30T15:12:25Z</time>
      </trkpt>
      <trkpt lat="43.38685" lon="4.64981">
        <ele>47.811</ele>
        <time>2019-04-30T15:12:36Z</time>
      </trkpt>
      <trkpt lat="43.38715" lon="4.64975">
        <ele>47.936</ele>
        <time>2019-04-30T15:12:47Z</time>
      </trkpt>
      <trkpt lat="43.38745" lon="4.64973">
        <ele>47.846</ele>
        <time>2019-04-30T15:12:58Z</time>
      </trkpt>
      <trkpt lat="43.38776" lon="4.64968">
        <ele>47.801</ele>
        <time>2019-04-30T15:13:09Z</time>
      </trkpt>
      <trkpt lat="43.38808" lon="4.64961">
        <ele>47.723</ele>
        <time>2019-04-30T15:13:20Z</time>
      </trkpt>
      <trkpt lat="43.38838" lon="4.64959">
        <ele>47.812</ele>
        <time>2019-04-30T15:13:30Z</time>
      </trkpt>
      <trkpt lat="43.38869" lon="4.64958">
        <ele>47.818</ele>
        <time>2019-04-30T15:13:41Z</time>
      </trkpt>
      <trkpt lat="43.38895" lon="4.64955">
        <ele>47.837</ele>
        <time>2019-04-30T15:13:51Z</time>
      </trkpt>
      <trkpt lat="43.38921" lon="4.64955">
        <ele>47.818</ele>
        <time>2019-04-30T15:14:02Z</time>
      </trkpt>
      <trkpt lat="43.38946" lon="4.64952">
        <ele>47.799</ele>
        <time>2019-04-30T15:14:13Z</time>
      </trkpt>
      <trkpt lat="43.38972" lon="4.6495">
        <ele>47.701</ele>
        <time>2019-04-30T15:14:24Z</time>
      </trkpt>
      <trkpt lat="43.38998" lon="4.6495">
        <ele>47.485</ele>
        <time>2019-04-30T15:14:35Z</time>
      </trkpt>
      <trkpt lat="43.3902" lon="4.64948">
        <ele>47.19</ele>
        <time>2019-04-30T15:14:45Z</time>
      </trkpt>
      <trkpt lat="43.39043" lon="4.64945">
        <ele>46.861</ele>
        <time>2019-04-30T15:14:55Z</time>
      </trkpt>
      <trkpt lat="43.39069" lon="4.64944">
        <ele>46.716</ele>
        <time>2019-04-30T15:15:06Z</time>
      </trkpt>
      <trkpt lat="43.39087" lon="4.64955">
        <ele>46.495</ele>
        <time>2019-04-30T15:15:16Z</time>
      </trkpt>
      <trkpt lat="43.39089" lon="4.64989">
        <ele>46.554</ele>
        <time>2019-04-30T15:15:27Z</time>
      </trkpt>
      <trkpt lat="43.39089" lon="4.65025">
        <ele>46.468</ele>
        <time>2019-04-30T15:15:38Z</time>
      </trkpt>
      <trkpt lat="43.39092" lon="4.65059">
        <ele>46.396</ele>
        <time>2019-04-30T15:15:49Z</time>
      </trkpt>
      <trkpt lat="43.39092" lon="4.6506">
        <ele>46.395</ele>
        <time>2019-04-30T15:16:00Z</time>
      </trkpt>
      <trkpt lat="43.39092" lon="4.6506">
        <ele>46.404</ele>
        <time>2019-04-30T15:16:11Z</time>
      </trkpt>
      <trkpt lat="43.39092" lon="4.6506">
        <ele>46.407</ele>
        <time>2019-04-30T15:16:22Z</time>
      </trkpt>
      <trkpt lat="43.39092" lon="4.6506">
        <ele>46.401</ele>
        <time>2019-04-30T15:16:32Z</time>
      </trkpt>
      <trkpt lat="43.39092" lon="4.6506">
        <ele>46.35</ele>
        <time>2019-04-30T15:16:43Z</time>
      </trkpt>
      <trkpt lat="43.39092" lon="4.6506">
        <ele>46.307</ele>
        <time>2019-04-30T15:16:53Z</time>
      </trkpt>
      <trkpt lat="43.39092" lon="4.6506">
        <ele>46.264</ele>
        <time>2019-04-30T15:17:04Z</time>
      </trkpt>
      <trkpt lat="43.39092" lon="4.6506">
        <ele>46.224</ele>
        <time>2019-04-30T15:17:15Z</time>
      </trkpt>
      <trkpt lat="43.39092" lon="4.6506">
        <ele>46.185</ele>
        <time>2019-04-30T15:17:26Z</time>
      </trkpt>
      <trkpt lat="43.39092" lon="4.6506">
        <ele>46.15</ele>
        <time>2019-04-30T15:17:36Z</time>
      </trkpt>
      <trkpt lat="43.39092" lon="4.6506">
        <ele>46.112</ele>
        <time>2019-04-30T15:17:47Z</time>
      </trkpt>
      <trkpt lat="43.39092" lon="4.6506">
        <ele>46.076</ele>
        <time>2019-04-30T15:17:57Z</time>
      </trkpt>
      <trkpt lat="43.39092" lon="4.6506">
        <ele>46.04</ele>
        <time>2019-04-30T15:18:07Z</time>
      </trkpt>
      <trkpt lat="43.39092" lon="4.6506">
        <ele>46.005</ele>
        <time>2019-04-30T15:18:17Z</time>
      </trkpt>
      <trkpt lat="43.39092" lon="4.6506">
        <ele>45.967</ele>
        <time>2019-04-30T15:18:28Z</time>
      </trkpt>
      <trkpt lat="43.39092" lon="4.6506">
        <ele>45.934</ele>
        <time>2019-04-30T15:18:38Z</time>
      </trkpt>
      <trkpt lat="43.39093" lon="4.6506">
        <ele>45.895</ele>
        <time>2019-04-30T15:18:49Z</time>
      </trkpt>
      <trkpt lat="43.39093" lon="4.6506">
        <ele>45.855</ele>
        <time>2019-04-30T15:19:00Z</time>
      </trkpt>
      <trkpt lat="43.39093" lon="4.6506">
        <ele>45.815</ele>
        <time>2019-04-30T15:19:11Z</time>
      </trkpt>
      <trkpt lat="43.39093" lon="4.6506">
        <ele>45.775</ele>
        <time>2019-04-30T15:19:21Z</time>
      </trkpt>
      <trkpt lat="43.39093" lon="4.6506">
        <ele>45.731</ele>
        <time>2019-04-30T15:19:32Z</time>
      </trkpt>
      <trkpt lat="43.39093" lon="4.6506">
        <ele>45.688</ele>
        <time>2019-04-30T15:19:43Z</time>
      </trkpt>
      <trkpt lat="43.39093" lon="4.6506">
        <ele>45.649</ele>
        <time>2019-04-30T15:19:53Z</time>
      </trkpt>
      <trkpt lat="43.39093" lon="4.6506">
        <ele>45.606</ele>
        <time>2019-04-30T15:20:04Z</time>
      </trkpt>
      <trkpt lat="43.39093" lon="4.6506">
        <ele>45.567</ele>
        <time>2019-04-30T15:20:14Z</time>
      </trkpt>
      <trkpt lat="43.39093" lon="4.6506">
        <ele>45.525</ele>
        <time>2019-04-30T15:20:25Z</time>
      </trkpt>
      <trkpt lat="43.39093" lon="4.6506">
        <ele>45.488</ele>
        <time>2019-04-30T15:20:35Z</time>
      </trkpt>
      <trkpt lat="43.39092" lon="4.65055">
        <ele>45.29</ele>
        <time>2019-04-30T15:20:45Z</time>
      </trkpt>
      <trkpt lat="43.39092" lon="4.65049">
        <ele>44.95</ele>
        <time>2019-04-30T15:20:56Z</time>
      </trkpt>
      <trkpt lat="43.39089" lon="4.6502">
        <ele>44.447</ele>
        <time>2019-04-30T15:21:06Z</time>
      </trkpt>
      <trkpt lat="43.39087" lon="4.64987">
        <ele>43.975</ele>
        <time>2019-04-30T15:21:17Z</time>
      </trkpt>
      <trkpt lat="43.39087" lon="4.64956">
        <ele>43.566</ele>
        <time>2019-04-30T15:21:28Z</time>
      </trkpt>
      <trkpt lat="43.39104" lon="4.64941">
        <ele>43.369</ele>
        <time>2019-04-30T15:21:39Z</time>
      </trkpt>
      <trkpt lat="43.3913" lon="4.6494">
        <ele>43.938</ele>
        <time>2019-04-30T15:21:50Z</time>
      </trkpt>
      <trkpt lat="43.39157" lon="4.64939">
        <ele>44.436</ele>
        <time>2019-04-30T15:22:00Z</time>
      </trkpt>
      <trkpt lat="43.39185" lon="4.64949">
        <ele>44.925</ele>
        <time>2019-04-30T15:22:11Z</time>
      </trkpt>
      <trkpt lat="43.39201" lon="4.64982">
        <ele>45.393</ele>
        <time>2019-04-30T15:22:22Z</time>
      </trkpt>
      <trkpt lat="43.39216" lon="4.65012">
        <ele>45.973</ele>
        <time>2019-04-30T15:22:33Z</time>
      </trkpt>
      <trkpt lat="43.39216" lon="4.65012">
        <ele>46.044</ele>
        <time>2019-04-30T15:22:44Z</time>
      </trkpt>
      <trkpt lat="43.39216" lon="4.65012">
        <ele>46.043</ele>
        <time>2019-04-30T15:22:54Z</time>
      </trkpt>
      <trkpt lat="43.39216" lon="4.65012">
        <ele>46.024</ele>
        <time>2019-04-30T15:23:05Z</time>
      </trkpt>
      <trkpt lat="43.39216" lon="4.65012">
        <ele>45.999</ele>
        <time>2019-04-30T15:23:16Z</time>
      </trkpt>
      <trkpt lat="43.39216" lon="4.65012">
        <ele>45.975</ele>
        <time>2019-04-30T15:23:27Z</time>
      </trkpt>
      <trkpt lat="43.39217" lon="4.65012">
        <ele>45.951</ele>
        <time>2019-04-30T15:23:37Z</time>
      </trkpt>
      <trkpt lat="43.39217" lon="4.65012">
        <ele>45.928</ele>
        <time>2019-04-30T15:23:48Z</time>
      </trkpt>
      <trkpt lat="43.39217" lon="4.65012">
        <ele>45.908</ele>
        <time>2019-04-30T15:23:59Z</time>
      </trkpt>
      <trkpt lat="43.39217" lon="4.65012">
        <ele>45.848</ele>
        <time>2019-04-30T15:24:09Z</time>
      </trkpt>
      <trkpt lat="43.3923" lon="4.65037">
        <ele>45.747</ele>
        <time>2019-04-30T15:24:20Z</time>
      </trkpt>
      <trkpt lat="43.39243" lon="4.65063">
        <ele>45.83</ele>
        <time>2019-04-30T15:24:30Z</time>
      </trkpt>
      <trkpt lat="43.3926" lon="4.65096">
        <ele>45.96</ele>
        <time>2019-04-30T15:24:41Z</time>
      </trkpt>
      <trkpt lat="43.39279" lon="4.65122">
        <ele>46.122</ele>
        <time>2019-04-30T15:24:51Z</time>
      </trkpt>
      <trkpt lat="43.39297" lon="4.65155">
        <ele>46.319</ele>
        <time>2019-04-30T15:25:02Z</time>
      </trkpt>
      <trkpt lat="43.3931" lon="4.65193">
        <ele>46.432</ele>
        <time>2019-04-30T15:25:13Z</time>
      </trkpt>
      <trkpt lat="43.39319" lon="4.65229">
        <ele>46.352</ele>
        <time>2019-04-30T15:25:23Z</time>
      </trkpt>
      <trkpt lat="43.39331" lon="4.65258">
        <ele>46.31</ele>
        <time>2019-04-30T15:25:34Z</time>
      </trkpt>
      <trkpt lat="43.39331" lon="4.65257">
        <ele>46.272</ele>
        <time>2019-04-30T15:25:45Z</time>
      </trkpt>
      <trkpt lat="43.39326" lon="4.65252">
        <ele>45.895</ele>
        <time>2019-04-30T15:25:56Z</time>
      </trkpt>
      <trkpt lat="43.39314" lon="4.65209">
        <ele>45.244</ele>
        <time>2019-04-30T15:26:07Z</time>
      </trkpt>
      <trkpt lat="43.39299" lon="4.65156">
        <ele>42.681</ele>
        <time>2019-04-30T15:26:18Z</time>
      </trkpt>
      <trkpt lat="43.39273" lon="4.65115">
        <ele>42.981</ele>
        <time>2019-04-30T15:26:28Z</time>
      </trkpt>
      <trkpt lat="43.39246" lon="4.65067">
        <ele>43.971</ele>
        <time>2019-04-30T15:26:39Z</time>
      </trkpt>
      <trkpt lat="43.39222" lon="4.6502">
        <ele>43.999</ele>
        <time>2019-04-30T15:26:49Z</time>
      </trkpt>
      <trkpt lat="43.39199" lon="4.64973">
        <ele>44.393</ele>
        <time>2019-04-30T15:26:59Z</time>
      </trkpt>
      <trkpt lat="43.39165" lon="4.6494">
        <ele>44.428</ele>
        <time>2019-04-30T15:27:10Z</time>
      </trkpt>
      <trkpt lat="43.39116" lon="4.64942">
        <ele>42.466</ele>
        <time>2019-04-30T15:27:21Z</time>
      </trkpt>
      <trkpt lat="43.39061" lon="4.64946">
        <ele>41.66</ele>
        <time>2019-04-30T15:27:32Z</time>
      </trkpt>
      <trkpt lat="43.39007" lon="4.64949">
        <ele>41.77</ele>
        <time>2019-04-30T15:27:43Z</time>
      </trkpt>
      <trkpt lat="43.38953" lon="4.64952">
        <ele>42.088</ele>
        <time>2019-04-30T15:27:54Z</time>
      </trkpt>
      <trkpt lat="43.389" lon="4.64957">
        <ele>41.666</ele>
        <time>2019-04-30T15:28:05Z</time>
      </trkpt>
      <trkpt lat="43.38852" lon="4.64961">
        <ele>41.373</ele>
        <time>2019-04-30T15:28:15Z</time>
      </trkpt>
      <trkpt lat="43.38804" lon="4.64964">
        <ele>41.266</ele>
        <time>2019-04-30T15:28:26Z</time>
      </trkpt>
      <trkpt lat="43.38757" lon="4.64971">
        <ele>40.231</ele>
        <time>2019-04-30T15:28:36Z</time>
      </trkpt>
      <trkpt lat="43.38702" lon="4.64977">
        <ele>40.101</ele>
        <time>2019-04-30T15:28:47Z</time>
      </trkpt>
      <trkpt lat="43.38657" lon="4.65002">
        <ele>40.822</ele>
        <time>2019-04-30T15:28:57Z</time>
      </trkpt>
      <trkpt lat="43.38601" lon="4.65">
        <ele>42.559</ele>
        <time>2019-04-30T15:29:08Z</time>
      </trkpt>
      <trkpt lat="43.38544" lon="4.64996">
        <ele>42.236</ele>
        <time>2019-04-30T15:29:19Z</time>
      </trkpt>
      <trkpt lat="43.38491" lon="4.6499">
        <ele>42.098</ele>
        <time>2019-04-30T15:29:29Z</time>
      </trkpt>
      <trkpt lat="43.3843" lon="4.6499">
        <ele>42.142</ele>
        <time>2019-04-30T15:29:40Z</time>
      </trkpt>
      <trkpt lat="43.38374" lon="4.6501">
        <ele>42.997</ele>
        <time>2019-04-30T15:29:50Z</time>
      </trkpt>
      <trkpt lat="43.3831" lon="4.65031">
        <ele>43.439</ele>
        <time>2019-04-30T15:30:01Z</time>
      </trkpt>
      <trkpt lat="43.38246" lon="4.65054">
        <ele>44.384</ele>
        <time>2019-04-30T15:30:12Z</time>
      </trkpt>
      <trkpt lat="43.38187" lon="4.65102">
        <ele>44.737</ele>
        <time>2019-04-30T15:30:23Z</time>
      </trkpt>
      <trkpt lat="43.38131" lon="4.65146">
        <ele>44.182</ele>
        <time>2019-04-30T15:30:34Z</time>
      </trkpt>
      <trkpt lat="43.38074" lon="4.65172">
        <ele>43.115</ele>
        <time>2019-04-30T15:30:45Z</time>
      </trkpt>
      <trkpt lat="43.38026" lon="4.65206">
        <ele>42.384</ele>
        <time>2019-04-30T15:30:55Z</time>
      </trkpt>
      <trkpt lat="43.37983" lon="4.65248">
        <ele>43.235</ele>
        <time>2019-04-30T15:31:05Z</time>
      </trkpt>
      <trkpt lat="43.37938" lon="4.65288">
        <ele>42.928</ele>
        <time>2019-04-30T15:31:15Z</time>
      </trkpt>
      <trkpt lat="43.37886" lon="4.65325">
        <ele>42.827</ele>
        <time>2019-04-30T15:31:26Z</time>
      </trkpt>
      <trkpt lat="43.37836" lon="4.65363">
        <ele>41.919</ele>
        <time>2019-04-30T15:31:37Z</time>
      </trkpt>
      <trkpt lat="43.37789" lon="4.65391">
        <ele>41.057</ele>
        <time>2019-04-30T15:31:47Z</time>
      </trkpt>
      <trkpt lat="43.37743" lon="4.65413">
        <ele>40.484</ele>
        <time>2019-04-30T15:31:57Z</time>
      </trkpt>
      <trkpt lat="43.37693" lon="4.65451">
        <ele>39.756</ele>
        <time>2019-04-30T15:32:08Z</time>
      </trkpt>
      <trkpt lat="43.37652" lon="4.65492">
        <ele>40.464</ele>
        <time>2019-04-30T15:32:18Z</time>
      </trkpt>
      <trkpt lat="43.37599" lon="4.65518">
        <ele>40.654</ele>
        <time>2019-04-30T15:32:29Z</time>
      </trkpt>
      <trkpt lat="43.3756" lon="4.65498">
        <ele>41.208</ele>
        <time>2019-04-30T15:32:39Z</time>
      </trkpt>
      <trkpt lat="43.37512" lon="4.65474">
        <ele>42.109</ele>
        <time>2019-04-30T15:32:50Z</time>
      </trkpt>
      <trkpt lat="43.37459" lon="4.65464">
        <ele>43.232</ele>
        <time>2019-04-30T15:33:01Z</time>
      </trkpt>
      <trkpt lat="43.37403" lon="4.65455">
        <ele>41.755</ele>
        <time>2019-04-30T15:33:12Z</time>
      </trkpt>
      <trkpt lat="43.3735" lon="4.65445">
        <ele>41.493</ele>
        <time>2019-04-30T15:33:22Z</time>
      </trkpt>
      <trkpt lat="43.37295" lon="4.65435">
        <ele>42.222</ele>
        <time>2019-04-30T15:33:32Z</time>
      </trkpt>
      <trkpt lat="43.37241" lon="4.65425">
        <ele>42.368</ele>
        <time>2019-04-30T15:33:42Z</time>
      </trkpt>
      <trkpt lat="43.37189" lon="4.65416">
        <ele>42.186</ele>
        <time>2019-04-30T15:33:52Z</time>
      </trkpt>
      <trkpt lat="43.37135" lon="4.65403">
        <ele>41.937</ele>
        <time>2019-04-30T15:34:03Z</time>
      </trkpt>
      <trkpt lat="43.37105" lon="4.65398">
        <ele>41.781</ele>
        <time>2019-04-30T15:34:13Z</time>
      </trkpt>
      <trkpt lat="43.37066" lon="4.65392">
        <ele>41.502</ele>
        <time>2019-04-30T15:34:23Z</time>
      </trkpt>
      <trkpt lat="43.37029" lon="4.65381">
        <ele>41.497</ele>
        <time>2019-04-30T15:34:34Z</time>
      </trkpt>
      <trkpt lat="43.37008" lon="4.65371">
        <ele>41.792</ele>
        <time>2019-04-30T15:34:45Z</time>
      </trkpt>
      <trkpt lat="43.37005" lon="4.6538">
        <ele>41.985</ele>
        <time>2019-04-30T15:34:56Z</time>
      </trkpt>
      <trkpt lat="43.37001" lon="4.65386">
        <ele>42.389</ele>
        <time>2019-04-30T15:35:06Z</time>
      </trkpt>
      <trkpt lat="43.36995" lon="4.65396">
        <ele>42.776</ele>
        <time>2019-04-30T15:35:17Z</time>
      </trkpt>
      <trkpt lat="43.36995" lon="4.65396">
        <ele>42.894</ele>
        <time>2019-04-30T15:35:27Z</time>
      </trkpt>
      <trkpt lat="43.37002" lon="4.65383">
        <ele>43.328</ele>
        <time>2019-04-30T15:35:37Z</time>
      </trkpt>
      <trkpt lat="43.37011" lon="4.6537">
        <ele>43.651</ele>
        <time>2019-04-30T15:35:48Z</time>
      </trkpt>
      <trkpt lat="43.37023" lon="4.65378">
        <ele>44.16</ele>
        <time>2019-04-30T15:35:59Z</time>
      </trkpt>
      <trkpt lat="43.37028" lon="4.65392">
        <ele>44.6</ele>
        <time>2019-04-30T15:36:10Z</time>
      </trkpt>
      <trkpt lat="43.3702" lon="4.65408">
        <ele>45.047</ele>
        <time>2019-04-30T15:36:21Z</time>
      </trkpt>
      <trkpt lat="43.37011" lon="4.65422">
        <ele>45.261</ele>
        <time>2019-04-30T15:36:31Z</time>
      </trkpt>
      <trkpt lat="43.37001" lon="4.65431">
        <ele>45.254</ele>
        <time>2019-04-30T15:36:41Z</time>
      </trkpt>
      <trkpt lat="43.36988" lon="4.65421">
        <ele>45.803</ele>
        <time>2019-04-30T15:36:52Z</time>
      </trkpt>
      <trkpt lat="43.36977" lon="4.65413">
        <ele>46.091</ele>
        <time>2019-04-30T15:37:03Z</time>
      </trkpt>
      <trkpt lat="43.36967" lon="4.65415">
        <ele>45.96</ele>
        <time>2019-04-30T15:37:14Z</time>
      </trkpt>
      <trkpt lat="43.36964" lon="4.6542">
        <ele>45.835</ele>
        <time>2019-04-30T15:37:24Z</time>
      </trkpt>
      <trkpt lat="43.36965" lon="4.65422">
        <ele>45.901</ele>
        <time>2019-04-30T15:37:34Z</time>
      </trkpt>
      <trkpt lat="43.36968" lon="4.6542">
        <ele>45.97</ele>
        <time>2019-04-30T15:37:44Z</time>
      </trkpt>
      <trkpt lat="43.36968" lon="4.65419">
        <ele>45.992</ele>
        <time>2019-04-30T15:37:55Z</time>
      </trkpt>
      <trkpt lat="43.36967" lon="4.65418">
        <ele>46.066</ele>
        <time>2019-04-30T15:38:05Z</time>
      </trkpt>
      <trkpt lat="43.36967" lon="4.65418">
        <ele>46.083</ele>
        <time>2019-04-30T15:38:15Z</time>
      </trkpt>
      <trkpt lat="43.36966" lon="4.65418">
        <ele>46.126</ele>
        <time>2019-04-30T15:38:26Z</time>
      </trkpt>
      <trkpt lat="43.36966" lon="4.65418">
        <ele>46.185</ele>
        <time>2019-04-30T15:38:37Z</time>
      </trkpt>
      <trkpt lat="43.36966" lon="4.65418">
        <ele>46.218</ele>
        <time>2019-04-30T15:38:48Z</time>
      </trkpt>
      <trkpt lat="43.36966" lon="4.65418">
        <ele>46.19</ele>
        <time>2019-04-30T15:38:59Z</time>
      </trkpt>
      <trkpt lat="43.36967" lon="4.65418">
        <ele>46.162</ele>
        <time>2019-04-30T15:39:09Z</time>
      </trkpt>
      <trkpt lat="43.36967" lon="4.65418">
        <ele>46.135</ele>
        <time>2019-04-30T15:39:20Z</time>
      </trkpt>
      <trkpt lat="43.36967" lon="4.65419">
        <ele>46.122</ele>
        <time>2019-04-30T15:39:30Z</time>
      </trkpt>
      <trkpt lat="43.36967" lon="4.65419">
        <ele>46.121</ele>
        <time>2019-04-30T15:39:41Z</time>
      </trkpt>
      <trkpt lat="43.36967" lon="4.65419">
        <ele>46.117</ele>
        <time>2019-04-30T15:39:52Z</time>
      </trkpt>
      <trkpt lat="43.36967" lon="4.65419">
        <ele>46.112</ele>
        <time>2019-04-30T15:40:03Z</time>
      </trkpt>
      <trkpt lat="43.36967" lon="4.65419">
        <ele>46.101</ele>
        <time>2019-04-30T15:40:13Z</time>
      </trkpt>
      <trkpt lat="43.36967" lon="4.65419">
        <ele>46.094</ele>
        <time>2019-04-30T15:40:24Z</time>
      </trkpt>
      <trkpt lat="43.36967" lon="4.65419">
        <ele>46.094</ele>
        <time>2019-04-30T15:40:35Z</time>
      </trkpt>
      <trkpt lat="43.36967" lon="4.65419">
        <ele>46.093</ele>
        <time>2019-04-30T15:40:46Z</time>
      </trkpt>
      <trkpt lat="43.36967" lon="4.65419">
        <ele>46.093</ele>
        <time>2019-04-30T15:40:56Z</time>
      </trkpt>
      <trkpt lat="43.36967" lon="4.65419">
        <ele>46.091</ele>
        <time>2019-04-30T15:41:06Z</time>
      </trkpt>
      <trkpt lat="43.36968" lon="4.65419">
        <ele>46.083</ele>
        <time>2019-04-30T15:41:17Z</time>
      </trkpt>
      <trkpt lat="43.36967" lon="4.65419">
        <ele>46.122</ele>
        <time>2019-04-30T15:41:27Z</time>
      </trkpt>
      <trkpt lat="43.36967" lon="4.65419">
        <ele>46.157</ele>
        <time>2019-04-30T15:41:38Z</time>
      </trkpt>
      <trkpt lat="43.36968" lon="4.65419">
        <ele>46.118</ele>
        <time>2019-04-30T15:41:48Z</time>
      </trkpt>
      <trkpt lat="43.36968" lon="4.65419">
        <ele>46.047</ele>
        <time>2019-04-30T15:41:59Z</time>
      </trkpt>
      <trkpt lat="43.36968" lon="4.65419">
        <ele>45.952</ele>
        <time>2019-04-30T15:42:09Z</time>
      </trkpt>
      <trkpt lat="43.36969" lon="4.6542">
        <ele>45.828</ele>
        <time>2019-04-30T15:42:20Z</time>
      </trkpt>
      <trkpt lat="43.36969" lon="4.6542">
        <ele>45.695</ele>
        <time>2019-04-30T15:42:31Z</time>
      </trkpt>
      <trkpt lat="43.3697" lon="4.65421">
        <ele>45.553</ele>
        <time>2019-04-30T15:42:42Z</time>
      </trkpt>
      <trkpt lat="43.3697" lon="4.65421">
        <ele>45.418</ele>
        <time>2019-04-30T15:42:53Z</time>
      </trkpt>
      <trkpt lat="43.3697" lon="4.65422">
        <ele>45.288</ele>
        <time>2019-04-30T15:43:04Z</time>
      </trkpt>
      <trkpt lat="43.3697" lon="4.65422">
        <ele>45.257</ele>
        <time>2019-04-30T15:43:15Z</time>
      </trkpt>
      <trkpt lat="43.36969" lon="4.65421">
        <ele>45.254</ele>
        <time>2019-04-30T15:43:25Z</time>
      </trkpt>
      <trkpt lat="43.36969" lon="4.65421">
        <ele>45.278</ele>
        <time>2019-04-30T15:43:36Z</time>
      </trkpt>
      <trkpt lat="43.36968" lon="4.6542">
        <ele>45.346</ele>
        <time>2019-04-30T15:43:47Z</time>
      </trkpt>
      <trkpt lat="43.36968" lon="4.6542">
        <ele>45.431</ele>
        <time>2019-04-30T15:43:58Z</time>
      </trkpt>
      <trkpt lat="43.36967" lon="4.65419">
        <ele>45.487</ele>
        <time>2019-04-30T15:44:09Z</time>
      </trkpt>
      <trkpt lat="43.36967" lon="4.65419">
        <ele>45.516</ele>
        <time>2019-04-30T15:44:19Z</time>
      </trkpt>
      <trkpt lat="43.36967" lon="4.65419">
        <ele>45.552</ele>
        <time>2019-04-30T15:44:30Z</time>
      </trkpt>
      <trkpt lat="43.36967" lon="4.65419">
        <ele>45.606</ele>
        <time>2019-04-30T15:44:41Z</time>
      </trkpt>
      <trkpt lat="43.36967" lon="4.65419">
        <ele>45.658</ele>
        <time>2019-04-30T15:44:51Z</time>
      </trkpt>
      <trkpt lat="43.36967" lon="4.65419">
        <ele>45.709</ele>
        <time>2019-04-30T15:45:02Z</time>
      </trkpt>
      <trkpt lat="43.36967" lon="4.65418">
        <ele>45.764</ele>
        <time>2019-04-30T15:45:12Z</time>
      </trkpt>
      <trkpt lat="43.36967" lon="4.65418">
        <ele>45.815</ele>
        <time>2019-04-30T15:45:23Z</time>
      </trkpt>
      <trkpt lat="43.36967" lon="4.65418">
        <ele>45.853</ele>
        <time>2019-04-30T15:45:33Z</time>
      </trkpt>
      <trkpt lat="43.36967" lon="4.65419">
        <ele>45.886</ele>
        <time>2019-04-30T15:45:44Z</time>
      </trkpt>
      <trkpt lat="43.36967" lon="4.65419">
        <ele>45.92</ele>
        <time>2019-04-30T15:45:54Z</time>
      </trkpt>
      <trkpt lat="43.36967" lon="4.65419">
        <ele>45.962</ele>
        <time>2019-04-30T15:46:05Z</time>
      </trkpt>
      <trkpt lat="43.36967" lon="4.65419">
        <ele>46.001</ele>
        <time>2019-04-30T15:46:16Z</time>
      </trkpt>
      <trkpt lat="43.36967" lon="4.65419">
        <ele>46.038</ele>
        <time>2019-04-30T15:46:27Z</time>
      </trkpt>
      <trkpt lat="43.36967" lon="4.65419">
        <ele>46.068</ele>
        <time>2019-04-30T15:46:38Z</time>
      </trkpt>
      <trkpt lat="43.36967" lon="4.65419">
        <ele>46.092</ele>
        <time>2019-04-30T15:46:48Z</time>
      </trkpt>
      <trkpt lat="43.36967" lon="4.65419">
        <ele>46.101</ele>
        <time>2019-04-30T15:46:58Z</time>
      </trkpt>
      <trkpt lat="43.36967" lon="4.65419">
        <ele>46.075</ele>
        <time>2019-04-30T15:47:09Z</time>
      </trkpt>
      <trkpt lat="43.36967" lon="4.65419">
        <ele>46.044</ele>
        <time>2019-04-30T15:47:19Z</time>
      </trkpt>
      <trkpt lat="43.36967" lon="4.65419">
        <ele>46.009</ele>
        <time>2019-04-30T15:47:30Z</time>
      </trkpt>
      <trkpt lat="43.36967" lon="4.65419">
        <ele>45.977</ele>
        <time>2019-04-30T15:47:41Z</time>
      </trkpt>
      <trkpt lat="43.36967" lon="4.65419">
        <ele>45.959</ele>
        <time>2019-04-30T15:47:52Z</time>
      </trkpt>
      <trkpt lat="43.36966" lon="4.65422">
        <ele>46.38</ele>
        <time>2019-04-30T15:48:03Z</time>
      </trkpt>
      <trkpt lat="43.36972" lon="4.65419">
        <ele>46.897</ele>
        <time>2019-04-30T15:48:14Z</time>
      </trkpt>
      <trkpt lat="43.36972" lon="4.65419">
        <ele>46.928</ele>
        <time>2019-04-30T15:48:24Z</time>
      </trkpt>
      <trkpt lat="43.36972" lon="4.65419">
        <ele>46.985</ele>
        <time>2019-04-30T15:48:35Z</time>
      </trkpt>
      <trkpt lat="43.36972" lon="4.65419">
        <ele>47.04</ele>
        <time>2019-04-30T15:48:45Z</time>
      </trkpt>
      <trkpt lat="43.36972" lon="4.65419">
        <ele>47.07</ele>
        <time>2019-04-30T15:48:56Z</time>
      </trkpt>
      <trkpt lat="43.36972" lon="4.65419">
        <ele>47.075</ele>
        <time>2019-04-30T15:49:06Z</time>
      </trkpt>
      <trkpt lat="43.36972" lon="4.65418">
        <ele>47.031</ele>
        <time>2019-04-30T15:49:17Z</time>
      </trkpt>
    </trkseg>
  </trk>
  <trk>
    <name><![CDATA[20190502221855-rGymn]]></name>
    <trkseg>
      <trkpt lat="43.36977" lon="4.65429">
        <ele>42.026</ele>
        <time>2019-05-01T05:59:20Z</time>
      </trkpt>
      <trkpt lat="43.36976" lon="4.65435">
        <ele>41.989</ele>
        <time>2019-05-01T05:59:31Z</time>
      </trkpt>
      <trkpt lat="43.36976" lon="4.65435">
        <ele>41.919</ele>
        <time>2019-05-01T05:59:42Z</time>
      </trkpt>
      <trkpt lat="43.36976" lon="4.65435">
        <ele>41.552</ele>
        <time>2019-05-01T05:59:52Z</time>
      </trkpt>
      <trkpt lat="43.36976" lon="4.65435">
        <ele>41.26</ele>
        <time>2019-05-01T06:00:02Z</time>
      </trkpt>
      <trkpt lat="43.36976" lon="4.65435">
        <ele>41.095</ele>
        <time>2019-05-01T06:00:13Z</time>
      </trkpt>
      <trkpt lat="43.36976" lon="4.65435">
        <ele>41.009</ele>
        <time>2019-05-01T06:00:24Z</time>
      </trkpt>
      <trkpt lat="43.36978" lon="4.65429">
        <ele>41.125</ele>
        <time>2019-05-01T06:00:35Z</time>
      </trkpt>
      <trkpt lat="43.36979" lon="4.65427">
        <ele>41.457</ele>
        <time>2019-05-01T06:00:45Z</time>
      </trkpt>
      <trkpt lat="43.36979" lon="4.65427">
        <ele>42.122</ele>
        <time>2019-05-01T06:00:55Z</time>
      </trkpt>
      <trkpt lat="43.36979" lon="4.65427">
        <ele>42.299</ele>
        <time>2019-05-01T06:01:06Z</time>
      </trkpt>
      <trkpt lat="43.36974" lon="4.65429">
        <ele>43.362</ele>
        <time>2019-05-01T06:01:17Z</time>
      </trkpt>
      <trkpt lat="43.36978" lon="4.65422">
        <ele>44.908</ele>
        <time>2019-05-01T06:01:27Z</time>
      </trkpt>
      <trkpt lat="43.36989" lon="4.65423">
        <ele>45.666</ele>
        <time>2019-05-01T06:01:38Z</time>
      </trkpt>
      <trkpt lat="43.36996" lon="4.65429">
        <ele>45.77</ele>
        <time>2019-05-01T06:01:48Z</time>
      </trkpt>
      <trkpt lat="43.37018" lon="4.65416">
        <ele>45.435</ele>
        <time>2019-05-01T06:01:59Z</time>
      </trkpt>
      <trkpt lat="43.37033" lon="4.65393">
        <ele>44.903</ele>
        <time>2019-05-01T06:02:09Z</time>
      </trkpt>
      <trkpt lat="43.37063" lon="4.65392">
        <ele>44.644</ele>
        <time>2019-05-01T06:02:20Z</time>
      </trkpt>
      <trkpt lat="43.37094" lon="4.65399">
        <ele>44.453</ele>
        <time>2019-05-01T06:02:31Z</time>
      </trkpt>
      <trkpt lat="43.3712" lon="4.65403">
        <ele>44.24</ele>
        <time>2019-05-01T06:02:42Z</time>
      </trkpt>
      <trkpt lat="43.37143" lon="4.65405">
        <ele>44.68</ele>
        <time>2019-05-01T06:02:52Z</time>
      </trkpt>
      <trkpt lat="43.37169" lon="4.65411">
        <ele>45.279</ele>
        <time>2019-05-01T06:03:02Z</time>
      </trkpt>
      <trkpt lat="43.37199" lon="4.65415">
        <ele>45.373</ele>
        <time>2019-05-01T06:03:13Z</time>
      </trkpt>
      <trkpt lat="43.37228" lon="4.65421">
        <ele>45.311</ele>
        <time>2019-05-01T06:03:24Z</time>
      </trkpt>
      <trkpt lat="43.37253" lon="4.65428">
        <ele>44.886</ele>
        <time>2019-05-01T06:03:34Z</time>
      </trkpt>
      <trkpt lat="43.37281" lon="4.65429">
        <ele>45.051</ele>
        <time>2019-05-01T06:03:45Z</time>
      </trkpt>
      <trkpt lat="43.37312" lon="4.65435">
        <ele>45.024</ele>
        <time>2019-05-01T06:03:56Z</time>
      </trkpt>
      <trkpt lat="43.37339" lon="4.65441">
        <ele>45.163</ele>
        <time>2019-05-01T06:04:06Z</time>
      </trkpt>
      <trkpt lat="43.37369" lon="4.65448">
        <ele>44.715</ele>
        <time>2019-05-01T06:04:17Z</time>
      </trkpt>
      <trkpt lat="43.37399" lon="4.65453">
        <ele>44.724</ele>
        <time>2019-05-01T06:04:28Z</time>
      </trkpt>
      <trkpt lat="43.37431" lon="4.6546">
        <ele>44.412</ele>
        <time>2019-05-01T06:04:39Z</time>
      </trkpt>
      <trkpt lat="43.37463" lon="4.65466">
        <ele>44.003</ele>
        <time>2019-05-01T06:04:50Z</time>
      </trkpt>
      <trkpt lat="43.37494" lon="4.65473">
        <ele>43.194</ele>
        <time>2019-05-01T06:05:01Z</time>
      </trkpt>
      <trkpt lat="43.37526" lon="4.65477">
        <ele>42.685</ele>
        <time>2019-05-01T06:05:12Z</time>
      </trkpt>
      <trkpt lat="43.37552" lon="4.65489">
        <ele>42.407</ele>
        <time>2019-05-01T06:05:22Z</time>
      </trkpt>
      <trkpt lat="43.37567" lon="4.65528">
        <ele>41.223</ele>
        <time>2019-05-01T06:05:33Z</time>
      </trkpt>
      <trkpt lat="43.3757" lon="4.65569">
        <ele>40.709</ele>
        <time>2019-05-01T06:05:43Z</time>
      </trkpt>
      <trkpt lat="43.3757" lon="4.65618">
        <ele>40.941</ele>
        <time>2019-05-01T06:05:54Z</time>
      </trkpt>
      <trkpt lat="43.37569" lon="4.65673">
        <ele>42.599</ele>
        <time>2019-05-01T06:06:05Z</time>
      </trkpt>
      <trkpt lat="43.37569" lon="4.65734">
        <ele>43.087</ele>
        <time>2019-05-01T06:06:16Z</time>
      </trkpt>
      <trkpt lat="43.3757" lon="4.6579">
        <ele>41.899</ele>
        <time>2019-05-01T06:06:27Z</time>
      </trkpt>
      <trkpt lat="43.37569" lon="4.65841">
        <ele>42.611</ele>
        <time>2019-05-01T06:06:38Z</time>
      </trkpt>
      <trkpt lat="43.37569" lon="4.65885">
        <ele>43.569</ele>
        <time>2019-05-01T06:06:49Z</time>
      </trkpt>
      <trkpt lat="43.37568" lon="4.65888">
        <ele>43.605</ele>
        <time>2019-05-01T06:06:59Z</time>
      </trkpt>
      <trkpt lat="43.37568" lon="4.65889">
        <ele>43.938</ele>
        <time>2019-05-01T06:07:10Z</time>
      </trkpt>
      <trkpt lat="43.37568" lon="4.65889">
        <ele>43.951</ele>
        <time>2019-05-01T06:07:20Z</time>
      </trkpt>
      <trkpt lat="43.37568" lon="4.65889">
        <ele>43.938</ele>
        <time>2019-05-01T06:07:30Z</time>
      </trkpt>
      <trkpt lat="43.37568" lon="4.65889">
        <ele>43.911</ele>
        <time>2019-05-01T06:07:40Z</time>
      </trkpt>
      <trkpt lat="43.37568" lon="4.65889">
        <ele>43.888</ele>
        <time>2019-05-01T06:07:51Z</time>
      </trkpt>
      <trkpt lat="43.37568" lon="4.65889">
        <ele>43.882</ele>
        <time>2019-05-01T06:08:01Z</time>
      </trkpt>
      <trkpt lat="43.37568" lon="4.6589">
        <ele>43.794</ele>
        <time>2019-05-01T06:08:12Z</time>
      </trkpt>
      <trkpt lat="43.37568" lon="4.6589">
        <ele>43.717</ele>
        <time>2019-05-01T06:08:22Z</time>
      </trkpt>
      <trkpt lat="43.3757" lon="4.65906">
        <ele>43.923</ele>
        <time>2019-05-01T06:08:33Z</time>
      </trkpt>
      <trkpt lat="43.37571" lon="4.65949">
        <ele>45.446</ele>
        <time>2019-05-01T06:08:43Z</time>
      </trkpt>
      <trkpt lat="43.37573" lon="4.65999">
        <ele>45.815</ele>
        <time>2019-05-01T06:08:54Z</time>
      </trkpt>
      <trkpt lat="43.37574" lon="4.66011">
        <ele>45.776</ele>
        <time>2019-05-01T06:09:05Z</time>
      </trkpt>
      <trkpt lat="43.37573" lon="4.66031">
        <ele>44.863</ele>
        <time>2019-05-01T06:09:16Z</time>
      </trkpt>
      <trkpt lat="43.37574" lon="4.6608">
        <ele>44.017</ele>
        <time>2019-05-01T06:09:26Z</time>
      </trkpt>
      <trkpt lat="43.37573" lon="4.66123">
        <ele>43.348</ele>
        <time>2019-05-01T06:09:36Z</time>
      </trkpt>
      <trkpt lat="43.37573" lon="4.66175">
        <ele>42.534</ele>
        <time>2019-05-01T06:09:47Z</time>
      </trkpt>
      <trkpt lat="43.37574" lon="4.66229">
        <ele>42.548</ele>
        <time>2019-05-01T06:09:58Z</time>
      </trkpt>
      <trkpt lat="43.37575" lon="4.66287">
        <ele>44.351</ele>
        <time>2019-05-01T06:10:09Z</time>
      </trkpt>
      <trkpt lat="43.37574" lon="4.66342">
        <ele>45.255</ele>
        <time>2019-05-01T06:10:19Z</time>
      </trkpt>
      <trkpt lat="43.37576" lon="4.66403">
        <ele>45.329</ele>
        <time>2019-05-01T06:10:30Z</time>
      </trkpt>
      <trkpt lat="43.37576" lon="4.66456">
        <ele>43.285</ele>
        <time>2019-05-01T06:10:40Z</time>
      </trkpt>
      <trkpt lat="43.37574" lon="4.66519">
        <ele>41.549</ele>
        <time>2019-05-01T06:10:51Z</time>
      </trkpt>
      <trkpt lat="43.37571" lon="4.66576">
        <ele>43.766</ele>
        <time>2019-05-01T06:11:02Z</time>
      </trkpt>
      <trkpt lat="43.37571" lon="4.66633">
        <ele>44.186</ele>
        <time>2019-05-01T06:11:12Z</time>
      </trkpt>
      <trkpt lat="43.37573" lon="4.6669">
        <ele>44.44</ele>
        <time>2019-05-01T06:11:22Z</time>
      </trkpt>
      <trkpt lat="43.37573" lon="4.6675">
        <ele>45.348</ele>
        <time>2019-05-01T06:11:32Z</time>
      </trkpt>
      <trkpt lat="43.37573" lon="4.66815">
        <ele>45.824</ele>
        <time>2019-05-01T06:11:43Z</time>
      </trkpt>
      <trkpt lat="43.37574" lon="4.66872">
        <ele>45.835</ele>
        <time>2019-05-01T06:11:53Z</time>
      </trkpt>
      <trkpt lat="43.37575" lon="4.66928">
        <ele>46.678</ele>
        <time>2019-05-01T06:12:03Z</time>
      </trkpt>
      <trkpt lat="43.37575" lon="4.66985">
        <ele>46.031</ele>
        <time>2019-05-01T06:12:14Z</time>
      </trkpt>
      <trkpt lat="43.37574" lon="4.67038">
        <ele>45.901</ele>
        <time>2019-05-01T06:12:25Z</time>
      </trkpt>
      <trkpt lat="43.37574" lon="4.67093">
        <ele>44.446</ele>
        <time>2019-05-01T06:12:36Z</time>
      </trkpt>
      <trkpt lat="43.37576" lon="4.6714">
        <ele>44.331</ele>
        <time>2019-05-01T06:12:46Z</time>
      </trkpt>
      <trkpt lat="43.37577" lon="4.67196">
        <ele>44.624</ele>
        <time>2019-05-01T06:12:57Z</time>
      </trkpt>
      <trkpt lat="43.37577" lon="4.67253">
        <ele>45.193</ele>
        <time>2019-05-01T06:13:08Z</time>
      </trkpt>
      <trkpt lat="43.37577" lon="4.67308">
        <ele>46.247</ele>
        <time>2019-05-01T06:13:19Z</time>
      </trkpt>
      <trkpt lat="43.37577" lon="4.67356">
        <ele>46.656</ele>
        <time>2019-05-01T06:13:29Z</time>
      </trkpt>
      <trkpt lat="43.37578" lon="4.67401">
        <ele>46.588</ele>
        <time>2019-05-01T06:13:40Z</time>
      </trkpt>
      <trkpt lat="43.37582" lon="4.67423">
        <ele>46.281</ele>
        <time>2019-05-01T06:13:51Z</time>
      </trkpt>
      <trkpt lat="43.37581" lon="4.67423">
        <ele>45.857</ele>
        <time>2019-05-01T06:14:02Z</time>
      </trkpt>
      <trkpt lat="43.37582" lon="4.67421">
        <ele>45.337</ele>
        <time>2019-05-01T06:14:12Z</time>
      </trkpt>
      <trkpt lat="43.37581" lon="4.67423">
        <ele>45.105</ele>
        <time>2019-05-01T06:14:22Z</time>
      </trkpt>
      <trkpt lat="43.37582" lon="4.67422">
        <ele>44.87</ele>
        <time>2019-05-01T06:14:42Z</time>
      </trkpt>
      <trkpt lat="43.37582" lon="4.67421">
        <ele>44.792</ele>
        <time>2019-05-01T06:14:52Z</time>
      </trkpt>
      <trkpt lat="43.37582" lon="4.67421">
        <ele>44.728</ele>
        <time>2019-05-01T06:15:03Z</time>
      </trkpt>
      <trkpt lat="43.37581" lon="4.67421">
        <ele>44.717</ele>
        <time>2019-05-01T06:15:13Z</time>
      </trkpt>
      <trkpt lat="43.37582" lon="4.67421">
        <ele>44.676</ele>
        <time>2019-05-01T06:15:24Z</time>
      </trkpt>
      <trkpt lat="43.37582" lon="4.67421">
        <ele>44.671</ele>
        <time>2019-05-01T06:15:35Z</time>
      </trkpt>
      <trkpt lat="43.37582" lon="4.67421">
        <ele>44.701</ele>
        <time>2019-05-01T06:15:46Z</time>
      </trkpt>
      <trkpt lat="43.37581" lon="4.67422">
        <ele>44.725</ele>
        <time>2019-05-01T06:15:57Z</time>
      </trkpt>
      <trkpt lat="43.37583" lon="4.67421">
        <ele>44.589</ele>
        <time>2019-05-01T06:16:08Z</time>
      </trkpt>
      <trkpt lat="43.37582" lon="4.67416">
        <ele>44.221</ele>
        <time>2019-05-01T06:16:18Z</time>
      </trkpt>
      <trkpt lat="43.37579" lon="4.67374">
        <ele>43.79</ele>
        <time>2019-05-01T06:16:29Z</time>
      </trkpt>
      <trkpt lat="43.37581" lon="4.67323">
        <ele>42.733</ele>
        <time>2019-05-01T06:16:40Z</time>
      </trkpt>
      <trkpt lat="43.37578" lon="4.67269">
        <ele>40.999</ele>
        <time>2019-05-01T06:16:51Z</time>
      </trkpt>
      <trkpt lat="43.37578" lon="4.67215">
        <ele>41.175</ele>
        <time>2019-05-01T06:17:02Z</time>
      </trkpt>
      <trkpt lat="43.37577" lon="4.67163">
        <ele>44.293</ele>
        <time>2019-05-01T06:17:12Z</time>
      </trkpt>
      <trkpt lat="43.37577" lon="4.67111">
        <ele>44.811</ele>
        <time>2019-05-01T06:17:23Z</time>
      </trkpt>
      <trkpt lat="43.37576" lon="4.67061">
        <ele>45.197</ele>
        <time>2019-05-01T06:17:34Z</time>
      </trkpt>
      <trkpt lat="43.37576" lon="4.67007">
        <ele>45.302</ele>
        <time>2019-05-01T06:17:45Z</time>
      </trkpt>
      <trkpt lat="43.37577" lon="4.66961">
        <ele>45.177</ele>
        <time>2019-05-01T06:17:55Z</time>
      </trkpt>
      <trkpt lat="43.37576" lon="4.66912">
        <ele>45.057</ele>
        <time>2019-05-01T06:18:05Z</time>
      </trkpt>
      <trkpt lat="43.37575" lon="4.66858">
        <ele>44.882</ele>
        <time>2019-05-01T06:18:16Z</time>
      </trkpt>
      <trkpt lat="43.37594" lon="4.66845">
        <ele>44.855</ele>
        <time>2019-05-01T06:18:27Z</time>
      </trkpt>
      <trkpt lat="43.37621" lon="4.66875">
        <ele>44.901</ele>
        <time>2019-05-01T06:18:38Z</time>
      </trkpt>
      <trkpt lat="43.37648" lon="4.66901">
        <ele>44.836</ele>
        <time>2019-05-01T06:18:49Z</time>
      </trkpt>
      <trkpt lat="43.37673" lon="4.66926">
        <ele>44.835</ele>
        <time>2019-05-01T06:19:00Z</time>
      </trkpt>
      <trkpt lat="43.37698" lon="4.66947">
        <ele>45.507</ele>
        <time>2019-05-01T06:19:11Z</time>
      </trkpt>
      <trkpt lat="43.37726" lon="4.6696">
        <ele>46.427</ele>
        <time>2019-05-01T06:19:21Z</time>
      </trkpt>
      <trkpt lat="43.37752" lon="4.6698">
        <ele>47.133</ele>
        <time>2019-05-01T06:19:32Z</time>
      </trkpt>
      <trkpt lat="43.37777" lon="4.66997">
        <ele>47.47</ele>
        <time>2019-05-01T06:19:42Z</time>
      </trkpt>
      <trkpt lat="43.37803" lon="4.67015">
        <ele>48.027</ele>
        <time>2019-05-01T06:19:53Z</time>
      </trkpt>
      <trkpt lat="43.37828" lon="4.67032">
        <ele>48.197</ele>
        <time>2019-05-01T06:20:03Z</time>
      </trkpt>
      <trkpt lat="43.37855" lon="4.67052">
        <ele>47.995</ele>
        <time>2019-05-01T06:20:14Z</time>
      </trkpt>
      <trkpt lat="43.37883" lon="4.67068">
        <ele>48.018</ele>
        <time>2019-05-01T06:20:25Z</time>
      </trkpt>
      <trkpt lat="43.37908" lon="4.67084">
        <ele>48.222</ele>
        <time>2019-05-01T06:20:35Z</time>
      </trkpt>
      <trkpt lat="43.37936" lon="4.67099">
        <ele>48.474</ele>
        <time>2019-05-01T06:20:46Z</time>
      </trkpt>
      <trkpt lat="43.37964" lon="4.67115">
        <ele>48.24</ele>
        <time>2019-05-01T06:20:57Z</time>
      </trkpt>
      <trkpt lat="43.37992" lon="4.6713">
        <ele>48.328</ele>
        <time>2019-05-01T06:21:08Z</time>
      </trkpt>
      <trkpt lat="43.38022" lon="4.67146">
        <ele>48.127</ele>
        <time>2019-05-01T06:21:19Z</time>
      </trkpt>
      <trkpt lat="43.3805" lon="4.6716">
        <ele>48.095</ele>
        <time>2019-05-01T06:21:30Z</time>
      </trkpt>
      <trkpt lat="43.38076" lon="4.67177">
        <ele>48.24</ele>
        <time>2019-05-01T06:21:41Z</time>
      </trkpt>
      <trkpt lat="43.38102" lon="4.67189">
        <ele>48.584</ele>
        <time>2019-05-01T06:21:51Z</time>
      </trkpt>
      <trkpt lat="43.38129" lon="4.67204">
        <ele>48.643</ele>
        <time>2019-05-01T06:22:02Z</time>
      </trkpt>
      <trkpt lat="43.38155" lon="4.67218">
        <ele>49.111</ele>
        <time>2019-05-01T06:22:13Z</time>
      </trkpt>
      <trkpt lat="43.38181" lon="4.67229">
        <ele>49.572</ele>
        <time>2019-05-01T06:22:23Z</time>
      </trkpt>
      <trkpt lat="43.38206" lon="4.67238">
        <ele>50.285</ele>
        <time>2019-05-01T06:22:33Z</time>
      </trkpt>
      <trkpt lat="43.38235" lon="4.67251">
        <ele>50.909</ele>
        <time>2019-05-01T06:22:44Z</time>
      </trkpt>
      <trkpt lat="43.38265" lon="4.67263">
        <ele>51.217</ele>
        <time>2019-05-01T06:22:55Z</time>
      </trkpt>
      <trkpt lat="43.38295" lon="4.67275">
        <ele>51.421</ele>
        <time>2019-05-01T06:23:06Z</time>
      </trkpt>
      <trkpt lat="43.3832" lon="4.67285">
        <ele>51.521</ele>
        <time>2019-05-01T06:23:16Z</time>
      </trkpt>
      <trkpt lat="43.38348" lon="4.67296">
        <ele>51.675</ele>
        <time>2019-05-01T06:23:27Z</time>
      </trkpt>
      <trkpt lat="43.38375" lon="4.67308">
        <ele>52.052</ele>
        <time>2019-05-01T06:23:38Z</time>
      </trkpt>
      <trkpt lat="43.38402" lon="4.6732">
        <ele>52.521</ele>
        <time>2019-05-01T06:23:49Z</time>
      </trkpt>
      <trkpt lat="43.38427" lon="4.6733">
        <ele>53.043</ele>
        <time>2019-05-01T06:23:59Z</time>
      </trkpt>
      <trkpt lat="43.38454" lon="4.67342">
        <ele>53.514</ele>
        <time>2019-05-01T06:24:10Z</time>
      </trkpt>
      <trkpt lat="43.38481" lon="4.67352">
        <ele>53.723</ele>
        <time>2019-05-01T06:24:21Z</time>
      </trkpt>
      <trkpt lat="43.38508" lon="4.67359">
        <ele>53.27</ele>
        <time>2019-05-01T06:24:32Z</time>
      </trkpt>
      <trkpt lat="43.38521" lon="4.67332">
        <ele>52.056</ele>
        <time>2019-05-01T06:24:43Z</time>
      </trkpt>
      <trkpt lat="43.3852" lon="4.67333">
        <ele>51.96</ele>
        <time>2019-05-01T06:24:54Z</time>
      </trkpt>
      <trkpt lat="43.3852" lon="4.67303">
        <ele>51.67</ele>
        <time>2019-05-01T06:25:04Z</time>
      </trkpt>
      <trkpt lat="43.38518" lon="4.67262">
        <ele>51.445</ele>
        <time>2019-05-01T06:25:14Z</time>
      </trkpt>
      <trkpt lat="43.38515" lon="4.67213">
        <ele>51.348</ele>
        <time>2019-05-01T06:25:25Z</time>
      </trkpt>
      <trkpt lat="43.38519" lon="4.67165">
        <ele>51.395</ele>
        <time>2019-05-01T06:25:36Z</time>
      </trkpt>
      <trkpt lat="43.38546" lon="4.67164">
        <ele>51.321</ele>
        <time>2019-05-01T06:25:46Z</time>
      </trkpt>
      <trkpt lat="43.38582" lon="4.67172">
        <ele>51.003</ele>
        <time>2019-05-01T06:25:57Z</time>
      </trkpt>
      <trkpt lat="43.38616" lon="4.67177">
        <ele>50.828</ele>
        <time>2019-05-01T06:26:08Z</time>
      </trkpt>
      <trkpt lat="43.38647" lon="4.67181">
        <ele>50.662</ele>
        <time>2019-05-01T06:26:18Z</time>
      </trkpt>
      <trkpt lat="43.38678" lon="4.67179">
        <ele>50.56</ele>
        <time>2019-05-01T06:26:29Z</time>
      </trkpt>
      <trkpt lat="43.38707" lon="4.67172">
        <ele>50.723</ele>
        <time>2019-05-01T06:26:40Z</time>
      </trkpt>
      <trkpt lat="43.38735" lon="4.67165">
        <ele>51.082</ele>
        <time>2019-05-01T06:26:50Z</time>
      </trkpt>
      <trkpt lat="43.38768" lon="4.67155">
        <ele>51.365</ele>
        <time>2019-05-01T06:27:01Z</time>
      </trkpt>
      <trkpt lat="43.38796" lon="4.67145">
        <ele>51.654</ele>
        <time>2019-05-01T06:27:11Z</time>
      </trkpt>
      <trkpt lat="43.38829" lon="4.67137">
        <ele>51.824</ele>
        <time>2019-05-01T06:27:22Z</time>
      </trkpt>
      <trkpt lat="43.38857" lon="4.67129">
        <ele>51.941</ele>
        <time>2019-05-01T06:27:32Z</time>
      </trkpt>
      <trkpt lat="43.38885" lon="4.67119">
        <ele>52.202</ele>
        <time>2019-05-01T06:27:43Z</time>
      </trkpt>
      <trkpt lat="43.38915" lon="4.6711">
        <ele>52.161</ele>
        <time>2019-05-01T06:27:54Z</time>
      </trkpt>
      <trkpt lat="43.38947" lon="4.67101">
        <ele>52.02</ele>
        <time>2019-05-01T06:28:05Z</time>
      </trkpt>
      <trkpt lat="43.3898" lon="4.67091">
        <ele>51.852</ele>
        <time>2019-05-01T06:28:16Z</time>
      </trkpt>
      <trkpt lat="43.39009" lon="4.67083">
        <ele>51.614</ele>
        <time>2019-05-01T06:28:26Z</time>
      </trkpt>
      <trkpt lat="43.39036" lon="4.67075">
        <ele>51.508</ele>
        <time>2019-05-01T06:28:36Z</time>
      </trkpt>
      <trkpt lat="43.39068" lon="4.67067">
        <ele>51.544</ele>
        <time>2019-05-01T06:28:47Z</time>
      </trkpt>
      <trkpt lat="43.39099" lon="4.67058">
        <ele>51.553</ele>
        <time>2019-05-01T06:28:58Z</time>
      </trkpt>
      <trkpt lat="43.39127" lon="4.6705">
        <ele>51.563</ele>
        <time>2019-05-01T06:29:08Z</time>
      </trkpt>
      <trkpt lat="43.3916" lon="4.67041">
        <ele>51.587</ele>
        <time>2019-05-01T06:29:19Z</time>
      </trkpt>
      <trkpt lat="43.39191" lon="4.67032">
        <ele>51.589</ele>
        <time>2019-05-01T06:29:30Z</time>
      </trkpt>
      <trkpt lat="43.39218" lon="4.67024">
        <ele>51.487</ele>
        <time>2019-05-01T06:29:40Z</time>
      </trkpt>
      <trkpt lat="43.39247" lon="4.67005">
        <ele>51.331</ele>
        <time>2019-05-01T06:29:51Z</time>
      </trkpt>
      <trkpt lat="43.3927" lon="4.66979">
        <ele>51.242</ele>
        <time>2019-05-01T06:30:01Z</time>
      </trkpt>
      <trkpt lat="43.39292" lon="4.6695">
        <ele>51.06</ele>
        <time>2019-05-01T06:30:11Z</time>
      </trkpt>
      <trkpt lat="43.39318" lon="4.66951">
        <ele>50.545</ele>
        <time>2019-05-01T06:30:22Z</time>
      </trkpt>
      <trkpt lat="43.39346" lon="4.66961">
        <ele>50.425</ele>
        <time>2019-05-01T06:30:33Z</time>
      </trkpt>
      <trkpt lat="43.39378" lon="4.66964">
        <ele>50.343</ele>
        <time>2019-05-01T06:30:44Z</time>
      </trkpt>
      <trkpt lat="43.39407" lon="4.66965">
        <ele>50.272</ele>
        <time>2019-05-01T06:30:55Z</time>
      </trkpt>
      <trkpt lat="43.39437" lon="4.66972">
        <ele>50.3</ele>
        <time>2019-05-01T06:31:05Z</time>
      </trkpt>
      <trkpt lat="43.39473" lon="4.66983">
        <ele>50.264</ele>
        <time>2019-05-01T06:31:16Z</time>
      </trkpt>
      <trkpt lat="43.39503" lon="4.66993">
        <ele>50.207</ele>
        <time>2019-05-01T06:31:27Z</time>
      </trkpt>
      <trkpt lat="43.39531" lon="4.67003">
        <ele>50.377</ele>
        <time>2019-05-01T06:31:37Z</time>
      </trkpt>
      <trkpt lat="43.39561" lon="4.67013">
        <ele>50.24</ele>
        <time>2019-05-01T06:31:48Z</time>
      </trkpt>
      <trkpt lat="43.39591" lon="4.67026">
        <ele>50.101</ele>
        <time>2019-05-01T06:31:59Z</time>
      </trkpt>
      <trkpt lat="43.39619" lon="4.67041">
        <ele>49.91</ele>
        <time>2019-05-01T06:32:10Z</time>
      </trkpt>
      <trkpt lat="43.39651" lon="4.67056">
        <ele>49.458</ele>
        <time>2019-05-01T06:32:21Z</time>
      </trkpt>
      <trkpt lat="43.39677" lon="4.67074">
        <ele>49.616</ele>
        <time>2019-05-01T06:32:31Z</time>
      </trkpt>
      <trkpt lat="43.39706" lon="4.67096">
        <ele>50.178</ele>
        <time>2019-05-01T06:32:42Z</time>
      </trkpt>
      <trkpt lat="43.39737" lon="4.67115">
        <ele>50.549</ele>
        <time>2019-05-01T06:32:53Z</time>
      </trkpt>
      <trkpt lat="43.39765" lon="4.67131">
        <ele>50.579</ele>
        <time>2019-05-01T06:33:04Z</time>
      </trkpt>
      <trkpt lat="43.39793" lon="4.67151">
        <ele>50.529</ele>
        <time>2019-05-01T06:33:14Z</time>
      </trkpt>
      <trkpt lat="43.3982" lon="4.67178">
        <ele>50.516</ele>
        <time>2019-05-01T06:33:25Z</time>
      </trkpt>
      <trkpt lat="43.39848" lon="4.67204">
        <ele>50.484</ele>
        <time>2019-05-01T06:33:36Z</time>
      </trkpt>
      <trkpt lat="43.39875" lon="4.6723">
        <ele>50.557</ele>
        <time>2019-05-01T06:33:47Z</time>
      </trkpt>
      <trkpt lat="43.399" lon="4.67257">
        <ele>50.659</ele>
        <time>2019-05-01T06:33:58Z</time>
      </trkpt>
      <trkpt lat="43.39925" lon="4.67282">
        <ele>50.498</ele>
        <time>2019-05-01T06:34:08Z</time>
      </trkpt>
      <trkpt lat="43.3995" lon="4.67309">
        <ele>50.542</ele>
        <time>2019-05-01T06:34:19Z</time>
      </trkpt>
      <trkpt lat="43.39981" lon="4.67304">
        <ele>50.593</ele>
        <time>2019-05-01T06:34:30Z</time>
      </trkpt>
      <trkpt lat="43.39987" lon="4.67298">
        <ele>50.487</ele>
        <time>2019-05-01T06:34:41Z</time>
      </trkpt>
      <trkpt lat="43.39986" lon="4.67298">
        <ele>50.485</ele>
        <time>2019-05-01T06:34:51Z</time>
      </trkpt>
      <trkpt lat="43.39986" lon="4.67298">
        <ele>50.484</ele>
        <time>2019-05-01T06:35:02Z</time>
      </trkpt>
      <trkpt lat="43.39986" lon="4.67298">
        <ele>50.47</ele>
        <time>2019-05-01T06:35:12Z</time>
      </trkpt>
      <trkpt lat="43.39987" lon="4.67298">
        <ele>50.467</ele>
        <time>2019-05-01T06:35:22Z</time>
      </trkpt>
      <trkpt lat="43.39987" lon="4.67298">
        <ele>50.456</ele>
        <time>2019-05-01T06:35:33Z</time>
      </trkpt>
      <trkpt lat="43.39988" lon="4.67298">
        <ele>50.441</ele>
        <time>2019-05-01T06:35:43Z</time>
      </trkpt>
      <trkpt lat="43.39989" lon="4.67298">
        <ele>50.427</ele>
        <time>2019-05-01T06:35:53Z</time>
      </trkpt>
      <trkpt lat="43.39989" lon="4.67298">
        <ele>50.409</ele>
        <time>2019-05-01T06:36:04Z</time>
      </trkpt>
      <trkpt lat="43.3999" lon="4.67298">
        <ele>50.388</ele>
        <time>2019-05-01T06:36:15Z</time>
      </trkpt>
      <trkpt lat="43.39995" lon="4.67291">
        <ele>50.359</ele>
        <time>2019-05-01T06:36:25Z</time>
      </trkpt>
      <trkpt lat="43.40016" lon="4.67263">
        <ele>50.812</ele>
        <time>2019-05-01T06:36:35Z</time>
      </trkpt>
      <trkpt lat="43.40044" lon="4.67234">
        <ele>51.319</ele>
        <time>2019-05-01T06:36:45Z</time>
      </trkpt>
      <trkpt lat="43.4007" lon="4.67201">
        <ele>51.788</ele>
        <time>2019-05-01T06:36:55Z</time>
      </trkpt>
      <trkpt lat="43.401" lon="4.67164">
        <ele>52.908</ele>
        <time>2019-05-01T06:37:06Z</time>
      </trkpt>
      <trkpt lat="43.40128" lon="4.6713">
        <ele>52.977</ele>
        <time>2019-05-01T06:37:17Z</time>
      </trkpt>
      <trkpt lat="43.40159" lon="4.67094">
        <ele>52.995</ele>
        <time>2019-05-01T06:37:28Z</time>
      </trkpt>
      <trkpt lat="43.40183" lon="4.67066">
        <ele>52.993</ele>
        <time>2019-05-01T06:37:38Z</time>
      </trkpt>
      <trkpt lat="43.4018" lon="4.67059">
        <ele>52.838</ele>
        <time>2019-05-01T06:37:48Z</time>
      </trkpt>
      <trkpt lat="43.4018" lon="4.67017">
        <ele>52.59</ele>
        <time>2019-05-01T06:37:59Z</time>
      </trkpt>
      <trkpt lat="43.40204" lon="4.66979">
        <ele>52.384</ele>
        <time>2019-05-01T06:38:10Z</time>
      </trkpt>
      <trkpt lat="43.40195" lon="4.66935">
        <ele>52.158</ele>
        <time>2019-05-01T06:38:21Z</time>
      </trkpt>
      <trkpt lat="43.40205" lon="4.6696">
        <ele>51.838</ele>
        <time>2019-05-01T06:38:31Z</time>
      </trkpt>
      <trkpt lat="43.40191" lon="4.67004">
        <ele>52.556</ele>
        <time>2019-05-01T06:38:42Z</time>
      </trkpt>
      <trkpt lat="43.40178" lon="4.67055">
        <ele>51.446</ele>
        <time>2019-05-01T06:38:53Z</time>
      </trkpt>
      <trkpt lat="43.40201" lon="4.67043">
        <ele>51.547</ele>
        <time>2019-05-01T06:39:04Z</time>
      </trkpt>
      <trkpt lat="43.40232" lon="4.67011">
        <ele>51.616</ele>
        <time>2019-05-01T06:39:15Z</time>
      </trkpt>
      <trkpt lat="43.40242" lon="4.67003">
        <ele>51.712</ele>
        <time>2019-05-01T06:39:26Z</time>
      </trkpt>
      <trkpt lat="43.40224" lon="4.67017">
        <ele>51.152</ele>
        <time>2019-05-01T06:39:37Z</time>
      </trkpt>
      <trkpt lat="43.40202" lon="4.67046">
        <ele>50.708</ele>
        <time>2019-05-01T06:39:48Z</time>
      </trkpt>
      <trkpt lat="43.40186" lon="4.67064">
        <ele>50.579</ele>
        <time>2019-05-01T06:39:59Z</time>
      </trkpt>
      <trkpt lat="43.40176" lon="4.67047">
        <ele>50.239</ele>
        <time>2019-05-01T06:40:10Z</time>
      </trkpt>
      <trkpt lat="43.40189" lon="4.67006">
        <ele>50.285</ele>
        <time>2019-05-01T06:40:20Z</time>
      </trkpt>
      <trkpt lat="43.40205" lon="4.6697">
        <ele>50.267</ele>
        <time>2019-05-01T06:40:30Z</time>
      </trkpt>
      <trkpt lat="43.4019" lon="4.66918">
        <ele>51.062</ele>
        <time>2019-05-01T06:40:41Z</time>
      </trkpt>
      <trkpt lat="43.40175" lon="4.66871">
        <ele>51.551</ele>
        <time>2019-05-01T06:40:51Z</time>
      </trkpt>
      <trkpt lat="43.40194" lon="4.66829">
        <ele>51.653</ele>
        <time>2019-05-01T06:41:02Z</time>
      </trkpt>
      <trkpt lat="43.40206" lon="4.66783">
        <ele>51.888</ele>
        <time>2019-05-01T06:41:12Z</time>
      </trkpt>
      <trkpt lat="43.40227" lon="4.66808">
        <ele>51.761</ele>
        <time>2019-05-01T06:41:22Z</time>
      </trkpt>
      <trkpt lat="43.40238" lon="4.66828">
        <ele>51.296</ele>
        <time>2019-05-01T06:41:33Z</time>
      </trkpt>
      <trkpt lat="43.40259" lon="4.6687">
        <ele>50.542</ele>
        <time>2019-05-01T06:41:43Z</time>
      </trkpt>
      <trkpt lat="43.40282" lon="4.66914">
        <ele>50.69</ele>
        <time>2019-05-01T06:41:54Z</time>
      </trkpt>
      <trkpt lat="43.403" lon="4.66945">
        <ele>51.006</ele>
        <time>2019-05-01T06:42:04Z</time>
      </trkpt>
      <trkpt lat="43.4032" lon="4.66987">
        <ele>50.856</ele>
        <time>2019-05-01T06:42:15Z</time>
      </trkpt>
      <trkpt lat="43.40339" lon="4.67033">
        <ele>50.456</ele>
        <time>2019-05-01T06:42:26Z</time>
      </trkpt>
      <trkpt lat="43.40363" lon="4.67074">
        <ele>50.323</ele>
        <time>2019-05-01T06:42:37Z</time>
      </trkpt>
      <trkpt lat="43.40386" lon="4.67117">
        <ele>50.11</ele>
        <time>2019-05-01T06:42:48Z</time>
      </trkpt>
      <trkpt lat="43.40406" lon="4.67157">
        <ele>49.944</ele>
        <time>2019-05-01T06:42:58Z</time>
      </trkpt>
      <trkpt lat="43.40429" lon="4.67199">
        <ele>50.161</ele>
        <time>2019-05-01T06:43:09Z</time>
      </trkpt>
      <trkpt lat="43.4045" lon="4.67242">
        <ele>50.478</ele>
        <time>2019-05-01T06:43:20Z</time>
      </trkpt>
      <trkpt lat="43.4047" lon="4.67281">
        <ele>50.596</ele>
        <time>2019-05-01T06:43:30Z</time>
      </trkpt>
      <trkpt lat="43.40495" lon="4.67327">
        <ele>50.657</ele>
        <time>2019-05-01T06:43:41Z</time>
      </trkpt>
      <trkpt lat="43.40515" lon="4.67369">
        <ele>50.607</ele>
        <time>2019-05-01T06:43:51Z</time>
      </trkpt>
      <trkpt lat="43.40535" lon="4.67411">
        <ele>50.645</ele>
        <time>2019-05-01T06:44:01Z</time>
      </trkpt>
      <trkpt lat="43.40556" lon="4.67451">
        <ele>50.616</ele>
        <time>2019-05-01T06:44:11Z</time>
      </trkpt>
      <trkpt lat="43.40581" lon="4.67495">
        <ele>50.56</ele>
        <time>2019-05-01T06:44:22Z</time>
      </trkpt>
      <trkpt lat="43.40604" lon="4.67543">
        <ele>51.049</ele>
        <time>2019-05-01T06:44:33Z</time>
      </trkpt>
      <trkpt lat="43.40634" lon="4.67589">
        <ele>50.434</ele>
        <time>2019-05-01T06:44:44Z</time>
      </trkpt>
      <trkpt lat="43.40666" lon="4.67629">
        <ele>47.231</ele>
        <time>2019-05-01T06:44:55Z</time>
      </trkpt>
      <trkpt lat="43.40697" lon="4.6767">
        <ele>47.762</ele>
        <time>2019-05-01T06:45:06Z</time>
      </trkpt>
      <trkpt lat="43.40726" lon="4.67696">
        <ele>49.293</ele>
        <time>2019-05-01T06:45:16Z</time>
      </trkpt>
      <trkpt lat="43.40769" lon="4.67693">
        <ele>51.053</ele>
        <time>2019-05-01T06:45:27Z</time>
      </trkpt>
      <trkpt lat="43.40807" lon="4.67693">
        <ele>51.234</ele>
        <time>2019-05-01T06:45:37Z</time>
      </trkpt>
      <trkpt lat="43.4085" lon="4.6769">
        <ele>50.483</ele>
        <time>2019-05-01T06:45:48Z</time>
      </trkpt>
      <trkpt lat="43.40891" lon="4.67691">
        <ele>50.991</ele>
        <time>2019-05-01T06:45:59Z</time>
      </trkpt>
      <trkpt lat="43.40933" lon="4.67693">
        <ele>50.736</ele>
        <time>2019-05-01T06:46:10Z</time>
      </trkpt>
      <trkpt lat="43.40973" lon="4.67686">
        <ele>50.792</ele>
        <time>2019-05-01T06:46:21Z</time>
      </trkpt>
      <trkpt lat="43.41014" lon="4.67688">
        <ele>51.25</ele>
        <time>2019-05-01T06:46:32Z</time>
      </trkpt>
      <trkpt lat="43.41053" lon="4.67687">
        <ele>51.157</ele>
        <time>2019-05-01T06:46:43Z</time>
      </trkpt>
      <trkpt lat="43.41085" lon="4.67688">
        <ele>50.823</ele>
        <time>2019-05-01T06:46:53Z</time>
      </trkpt>
      <trkpt lat="43.41219" lon="4.6789">
        <ele>25.214</ele>
        <time>2019-05-01T06:48:32Z</time>
      </trkpt>
      <trkpt lat="43.41222" lon="4.67946">
        <ele>49.219</ele>
        <time>2019-05-01T06:48:43Z</time>
      </trkpt>
      <trkpt lat="43.41233" lon="4.67991">
        <ele>51.482</ele>
        <time>2019-05-01T06:48:54Z</time>
      </trkpt>
      <trkpt lat="43.41241" lon="4.68038">
        <ele>49.54</ele>
        <time>2019-05-01T06:49:05Z</time>
      </trkpt>
      <trkpt lat="43.41252" lon="4.68088">
        <ele>50.855</ele>
        <time>2019-05-01T06:49:16Z</time>
      </trkpt>
      <trkpt lat="43.41262" lon="4.68134">
        <ele>50.991</ele>
        <time>2019-05-01T06:49:26Z</time>
      </trkpt>
      <trkpt lat="43.41273" lon="4.68187">
        <ele>51.363</ele>
        <time>2019-05-01T06:49:37Z</time>
      </trkpt>
      <trkpt lat="43.41285" lon="4.68238">
        <ele>51.06</ele>
        <time>2019-05-01T06:49:48Z</time>
      </trkpt>
      <trkpt lat="43.41296" lon="4.6829">
        <ele>52.06</ele>
        <time>2019-05-01T06:49:58Z</time>
      </trkpt>
      <trkpt lat="43.41309" lon="4.68349">
        <ele>52.004</ele>
        <time>2019-05-01T06:50:09Z</time>
      </trkpt>
      <trkpt lat="43.41319" lon="4.684">
        <ele>50.731</ele>
        <time>2019-05-01T06:50:19Z</time>
      </trkpt>
      <trkpt lat="43.41331" lon="4.68455">
        <ele>49.992</ele>
        <time>2019-05-01T06:50:30Z</time>
      </trkpt>
      <trkpt lat="43.41343" lon="4.68512">
        <ele>50.339</ele>
        <time>2019-05-01T06:50:41Z</time>
      </trkpt>
      <trkpt lat="43.41355" lon="4.68567">
        <ele>49.267</ele>
        <time>2019-05-01T06:50:52Z</time>
      </trkpt>
      <trkpt lat="43.41367" lon="4.68624">
        <ele>49.853</ele>
        <time>2019-05-01T06:51:03Z</time>
      </trkpt>
      <trkpt lat="43.41377" lon="4.68677">
        <ele>51.408</ele>
        <time>2019-05-01T06:51:14Z</time>
      </trkpt>
      <trkpt lat="43.41379" lon="4.68728">
        <ele>51.243</ele>
        <time>2019-05-01T06:51:25Z</time>
      </trkpt>
      <trkpt lat="43.41379" lon="4.68779">
        <ele>50.923</ele>
        <time>2019-05-01T06:51:35Z</time>
      </trkpt>
      <trkpt lat="43.41379" lon="4.68829">
        <ele>50.779</ele>
        <time>2019-05-01T06:51:45Z</time>
      </trkpt>
      <trkpt lat="43.41378" lon="4.68879">
        <ele>50.339</ele>
        <time>2019-05-01T06:51:55Z</time>
      </trkpt>
      <trkpt lat="43.41377" lon="4.68935">
        <ele>50.16</ele>
        <time>2019-05-01T06:52:06Z</time>
      </trkpt>
      <trkpt lat="43.41378" lon="4.68994">
        <ele>50.283</ele>
        <time>2019-05-01T06:52:17Z</time>
      </trkpt>
      <trkpt lat="43.41374" lon="4.69048">
        <ele>50.421</ele>
        <time>2019-05-01T06:52:28Z</time>
      </trkpt>
      <trkpt lat="43.41363" lon="4.69095">
        <ele>50.208</ele>
        <time>2019-05-01T06:52:38Z</time>
      </trkpt>
      <trkpt lat="43.41343" lon="4.69139">
        <ele>50.128</ele>
        <time>2019-05-01T06:52:48Z</time>
      </trkpt>
      <trkpt lat="43.41322" lon="4.69177">
        <ele>50.688</ele>
        <time>2019-05-01T06:52:59Z</time>
      </trkpt>
      <trkpt lat="43.41305" lon="4.69207">
        <ele>51.082</ele>
        <time>2019-05-01T06:53:10Z</time>
      </trkpt>
      <trkpt lat="43.41284" lon="4.69246">
        <ele>52.039</ele>
        <time>2019-05-01T06:53:21Z</time>
      </trkpt>
      <trkpt lat="43.4127" lon="4.69282">
        <ele>51.662</ele>
        <time>2019-05-01T06:53:32Z</time>
      </trkpt>
      <trkpt lat="43.41277" lon="4.69311">
        <ele>48.971</ele>
        <time>2019-05-01T06:53:42Z</time>
      </trkpt>
      <trkpt lat="43.41302" lon="4.69314">
        <ele>49.255</ele>
        <time>2019-05-01T06:53:53Z</time>
      </trkpt>
      <trkpt lat="43.41301" lon="4.69314">
        <ele>49.266</ele>
        <time>2019-05-01T06:54:03Z</time>
      </trkpt>
      <trkpt lat="43.41302" lon="4.69313">
        <ele>49.331</ele>
        <time>2019-05-01T06:54:13Z</time>
      </trkpt>
      <trkpt lat="43.41302" lon="4.69314">
        <ele>49.297</ele>
        <time>2019-05-01T06:54:23Z</time>
      </trkpt>
      <trkpt lat="43.41302" lon="4.69313">
        <ele>49.385</ele>
        <time>2019-05-01T06:54:33Z</time>
      </trkpt>
      <trkpt lat="43.41302" lon="4.69313">
        <ele>49.573</ele>
        <time>2019-05-01T06:54:45Z</time>
      </trkpt>
      <trkpt lat="43.41294" lon="4.69309">
        <ele>49.905</ele>
        <time>2019-05-01T06:54:55Z</time>
      </trkpt>
      <trkpt lat="43.41263" lon="4.69307">
        <ele>50.457</ele>
        <time>2019-05-01T06:55:05Z</time>
      </trkpt>
      <trkpt lat="43.41242" lon="4.6933">
        <ele>51.117</ele>
        <time>2019-05-01T06:55:16Z</time>
      </trkpt>
      <trkpt lat="43.41221" lon="4.69366">
        <ele>51.48</ele>
        <time>2019-05-01T06:55:27Z</time>
      </trkpt>
      <trkpt lat="43.41195" lon="4.69412">
        <ele>51.742</ele>
        <time>2019-05-01T06:55:37Z</time>
      </trkpt>
      <trkpt lat="43.41193" lon="4.69416">
        <ele>51.758</ele>
        <time>2019-05-01T06:55:48Z</time>
      </trkpt>
      <trkpt lat="43.41193" lon="4.69412">
        <ele>51.39</ele>
        <time>2019-05-01T06:55:59Z</time>
      </trkpt>
      <trkpt lat="43.41193" lon="4.69412">
        <ele>51.131</ele>
        <time>2019-05-01T06:56:09Z</time>
      </trkpt>
      <trkpt lat="43.41193" lon="4.69413">
        <ele>51.036</ele>
        <time>2019-05-01T06:56:20Z</time>
      </trkpt>
      <trkpt lat="43.41185" lon="4.69433">
        <ele>50.924</ele>
        <time>2019-05-01T06:56:30Z</time>
      </trkpt>
      <trkpt lat="43.41158" lon="4.69482">
        <ele>50.667</ele>
        <time>2019-05-01T06:56:41Z</time>
      </trkpt>
      <trkpt lat="43.41135" lon="4.69529">
        <ele>52.811</ele>
        <time>2019-05-01T06:56:51Z</time>
      </trkpt>
      <trkpt lat="43.41109" lon="4.69573">
        <ele>51.472</ele>
        <time>2019-05-01T06:57:01Z</time>
      </trkpt>
      <trkpt lat="43.41083" lon="4.69624">
        <ele>49.07</ele>
        <time>2019-05-01T06:57:12Z</time>
      </trkpt>
      <trkpt lat="43.41065" lon="4.69657">
        <ele>48.937</ele>
        <time>2019-05-01T06:57:22Z</time>
      </trkpt>
      <trkpt lat="43.41048" lon="4.69693">
        <ele>49.104</ele>
        <time>2019-05-01T06:57:32Z</time>
      </trkpt>
      <trkpt lat="43.41023" lon="4.6974">
        <ele>50.043</ele>
        <time>2019-05-01T06:57:42Z</time>
      </trkpt>
      <trkpt lat="43.40994" lon="4.69794">
        <ele>50.946</ele>
        <time>2019-05-01T06:57:53Z</time>
      </trkpt>
      <trkpt lat="43.40966" lon="4.69844">
        <ele>50.456</ele>
        <time>2019-05-01T06:58:04Z</time>
      </trkpt>
      <trkpt lat="43.40941" lon="4.69891">
        <ele>51.424</ele>
        <time>2019-05-01T06:58:14Z</time>
      </trkpt>
      <trkpt lat="43.40913" lon="4.6994">
        <ele>51.076</ele>
        <time>2019-05-01T06:58:25Z</time>
      </trkpt>
      <trkpt lat="43.40901" lon="4.69964">
        <ele>50.958</ele>
        <time>2019-05-01T06:58:35Z</time>
      </trkpt>
      <trkpt lat="43.4088" lon="4.70002">
        <ele>50.038</ele>
        <time>2019-05-01T06:58:46Z</time>
      </trkpt>
      <trkpt lat="43.40865" lon="4.70055">
        <ele>48.618</ele>
        <time>2019-05-01T06:58:56Z</time>
      </trkpt>
      <trkpt lat="43.40878" lon="4.701">
        <ele>49.027</ele>
        <time>2019-05-01T06:59:06Z</time>
      </trkpt>
      <trkpt lat="43.40855" lon="4.70144">
        <ele>48.482</ele>
        <time>2019-05-01T06:59:17Z</time>
      </trkpt>
      <trkpt lat="43.4083" lon="4.70202">
        <ele>49.756</ele>
        <time>2019-05-01T06:59:28Z</time>
      </trkpt>
      <trkpt lat="43.40806" lon="4.70265">
        <ele>46.617</ele>
        <time>2019-05-01T06:59:39Z</time>
      </trkpt>
      <trkpt lat="43.40784" lon="4.70324">
        <ele>47.917</ele>
        <time>2019-05-01T06:59:49Z</time>
      </trkpt>
      <trkpt lat="43.40755" lon="4.70389">
        <ele>50.213</ele>
        <time>2019-05-01T07:00:00Z</time>
      </trkpt>
      <trkpt lat="43.40729" lon="4.70453">
        <ele>51.44</ele>
        <time>2019-05-01T07:00:11Z</time>
      </trkpt>
      <trkpt lat="43.40703" lon="4.70521">
        <ele>51.548</ele>
        <time>2019-05-01T07:00:22Z</time>
      </trkpt>
      <trkpt lat="43.40678" lon="4.70585">
        <ele>51.298</ele>
        <time>2019-05-01T07:00:32Z</time>
      </trkpt>
      <trkpt lat="43.40654" lon="4.70648">
        <ele>51.718</ele>
        <time>2019-05-01T07:00:42Z</time>
      </trkpt>
      <trkpt lat="43.4063" lon="4.70717">
        <ele>51.097</ele>
        <time>2019-05-01T07:00:53Z</time>
      </trkpt>
      <trkpt lat="43.40602" lon="4.70789">
        <ele>51.216</ele>
        <time>2019-05-01T07:01:04Z</time>
      </trkpt>
      <trkpt lat="43.40575" lon="4.70859">
        <ele>51.199</ele>
        <time>2019-05-01T07:01:15Z</time>
      </trkpt>
      <trkpt lat="43.40548" lon="4.70929">
        <ele>50.638</ele>
        <time>2019-05-01T07:01:26Z</time>
      </trkpt>
      <trkpt lat="43.40524" lon="4.70995">
        <ele>51.115</ele>
        <time>2019-05-01T07:01:36Z</time>
      </trkpt>
      <trkpt lat="43.40497" lon="4.71066">
        <ele>50.855</ele>
        <time>2019-05-01T07:01:47Z</time>
      </trkpt>
      <trkpt lat="43.4047" lon="4.71137">
        <ele>50.669</ele>
        <time>2019-05-01T07:01:58Z</time>
      </trkpt>
      <trkpt lat="43.40444" lon="4.71208">
        <ele>51.22</ele>
        <time>2019-05-01T07:02:09Z</time>
      </trkpt>
      <trkpt lat="43.40419" lon="4.71274">
        <ele>51.926</ele>
        <time>2019-05-01T07:02:19Z</time>
      </trkpt>
      <trkpt lat="43.40436" lon="4.71344">
        <ele>51.997</ele>
        <time>2019-05-01T07:02:30Z</time>
      </trkpt>
      <trkpt lat="43.40458" lon="4.71409">
        <ele>51.627</ele>
        <time>2019-05-01T07:02:41Z</time>
      </trkpt>
      <trkpt lat="43.40481" lon="4.71479">
        <ele>51.468</ele>
        <time>2019-05-01T07:02:52Z</time>
      </trkpt>
      <trkpt lat="43.40504" lon="4.71546">
        <ele>50.524</ele>
        <time>2019-05-01T07:03:03Z</time>
      </trkpt>
      <trkpt lat="43.40527" lon="4.71615">
        <ele>51.193</ele>
        <time>2019-05-01T07:03:14Z</time>
      </trkpt>
      <trkpt lat="43.40548" lon="4.71675">
        <ele>50.559</ele>
        <time>2019-05-01T07:03:24Z</time>
      </trkpt>
      <trkpt lat="43.4057" lon="4.7174">
        <ele>49.955</ele>
        <time>2019-05-01T07:03:35Z</time>
      </trkpt>
      <trkpt lat="43.40575" lon="4.7181">
        <ele>49.852</ele>
        <time>2019-05-01T07:03:45Z</time>
      </trkpt>
      <trkpt lat="43.40564" lon="4.71887">
        <ele>49.516</ele>
        <time>2019-05-01T07:03:56Z</time>
      </trkpt>
      <trkpt lat="43.40553" lon="4.71962">
        <ele>49.357</ele>
        <time>2019-05-01T07:04:07Z</time>
      </trkpt>
      <trkpt lat="43.40542" lon="4.72037">
        <ele>49.944</ele>
        <time>2019-05-01T07:04:18Z</time>
      </trkpt>
      <trkpt lat="43.40534" lon="4.721">
        <ele>49.534</ele>
        <time>2019-05-01T07:04:28Z</time>
      </trkpt>
      <trkpt lat="43.40525" lon="4.72169">
        <ele>48.319</ele>
        <time>2019-05-01T07:04:39Z</time>
      </trkpt>
      <trkpt lat="43.40515" lon="4.72239">
        <ele>47.34</ele>
        <time>2019-05-01T07:04:50Z</time>
      </trkpt>
      <trkpt lat="43.40505" lon="4.72302">
        <ele>46.625</ele>
        <time>2019-05-01T07:05:00Z</time>
      </trkpt>
      <trkpt lat="43.405" lon="4.72371">
        <ele>46.589</ele>
        <time>2019-05-01T07:05:11Z</time>
      </trkpt>
      <trkpt lat="43.405" lon="4.72435">
        <ele>45.732</ele>
        <time>2019-05-01T07:05:21Z</time>
      </trkpt>
      <trkpt lat="43.40521" lon="4.72484">
        <ele>49.092</ele>
        <time>2019-05-01T07:05:31Z</time>
      </trkpt>
      <trkpt lat="43.40562" lon="4.72508">
        <ele>54.518</ele>
        <time>2019-05-01T07:05:42Z</time>
      </trkpt>
      <trkpt lat="43.40598" lon="4.72526">
        <ele>54.812</ele>
        <time>2019-05-01T07:05:52Z</time>
      </trkpt>
      <trkpt lat="43.40636" lon="4.72543">
        <ele>55.126</ele>
        <time>2019-05-01T07:06:02Z</time>
      </trkpt>
      <trkpt lat="43.40673" lon="4.72563">
        <ele>55.379</ele>
        <time>2019-05-01T07:06:12Z</time>
      </trkpt>
      <trkpt lat="43.40714" lon="4.72583">
        <ele>55.384</ele>
        <time>2019-05-01T07:06:23Z</time>
      </trkpt>
      <trkpt lat="43.40752" lon="4.72602">
        <ele>56.04</ele>
        <time>2019-05-01T07:06:33Z</time>
      </trkpt>
      <trkpt lat="43.40793" lon="4.72622">
        <ele>56.879</ele>
        <time>2019-05-01T07:06:43Z</time>
      </trkpt>
      <trkpt lat="43.40833" lon="4.72643">
        <ele>56.197</ele>
        <time>2019-05-01T07:06:53Z</time>
      </trkpt>
      <trkpt lat="43.40873" lon="4.72666">
        <ele>58.231</ele>
        <time>2019-05-01T07:07:03Z</time>
      </trkpt>
      <trkpt lat="43.40914" lon="4.72686">
        <ele>59.375</ele>
        <time>2019-05-01T07:07:14Z</time>
      </trkpt>
      <trkpt lat="43.40951" lon="4.72708">
        <ele>60.226</ele>
        <time>2019-05-01T07:07:24Z</time>
      </trkpt>
      <trkpt lat="43.40992" lon="4.72724">
        <ele>62.129</ele>
        <time>2019-05-01T07:07:35Z</time>
      </trkpt>
      <trkpt lat="43.40987" lon="4.72711">
        <ele>61.471</ele>
        <time>2019-05-01T07:07:45Z</time>
      </trkpt>
      <trkpt lat="43.40996" lon="4.72716">
        <ele>61.117</ele>
        <time>2019-05-01T07:07:56Z</time>
      </trkpt>
      <trkpt lat="43.40997" lon="4.72716">
        <ele>61.071</ele>
        <time>2019-05-01T07:08:06Z</time>
      </trkpt>
      <trkpt lat="43.40997" lon="4.72716">
        <ele>61.05</ele>
        <time>2019-05-01T07:08:17Z</time>
      </trkpt>
      <trkpt lat="43.40997" lon="4.72716">
        <ele>61.056</ele>
        <time>2019-05-01T07:08:28Z</time>
      </trkpt>
      <trkpt lat="43.40997" lon="4.72716">
        <ele>61.035</ele>
        <time>2019-05-01T07:08:39Z</time>
      </trkpt>
      <trkpt lat="43.40997" lon="4.72715">
        <ele>61.036</ele>
        <time>2019-05-01T07:08:49Z</time>
      </trkpt>
      <trkpt lat="43.40997" lon="4.72716">
        <ele>61.079</ele>
        <time>2019-05-01T07:08:59Z</time>
      </trkpt>
      <trkpt lat="43.40997" lon="4.72716">
        <ele>61.084</ele>
        <time>2019-05-01T07:09:10Z</time>
      </trkpt>
      <trkpt lat="43.40998" lon="4.72719">
        <ele>61.067</ele>
        <time>2019-05-01T07:09:20Z</time>
      </trkpt>
      <trkpt lat="43.41" lon="4.72717">
        <ele>60.662</ele>
        <time>2019-05-01T07:09:32Z</time>
      </trkpt>
      <trkpt lat="43.41" lon="4.72717">
        <ele>60.491</ele>
        <time>2019-05-01T07:09:43Z</time>
      </trkpt>
      <trkpt lat="43.41001" lon="4.72718">
        <ele>60.384</ele>
        <time>2019-05-01T07:09:54Z</time>
      </trkpt>
      <trkpt lat="43.41001" lon="4.72719">
        <ele>60.222</ele>
        <time>2019-05-01T07:10:05Z</time>
      </trkpt>
      <trkpt lat="43.41002" lon="4.7272">
        <ele>60.081</ele>
        <time>2019-05-01T07:10:15Z</time>
      </trkpt>
      <trkpt lat="43.41002" lon="4.72721">
        <ele>59.906</ele>
        <time>2019-05-01T07:10:26Z</time>
      </trkpt>
      <trkpt lat="43.41003" lon="4.72721">
        <ele>59.727</ele>
        <time>2019-05-01T07:10:37Z</time>
      </trkpt>
      <trkpt lat="43.41004" lon="4.72723">
        <ele>59.398</ele>
        <time>2019-05-01T07:10:48Z</time>
      </trkpt>
      <trkpt lat="43.41003" lon="4.72722">
        <ele>59.376</ele>
        <time>2019-05-01T07:10:58Z</time>
      </trkpt>
      <trkpt lat="43.41004" lon="4.72718">
        <ele>58.985</ele>
        <time>2019-05-01T07:11:09Z</time>
      </trkpt>
      <trkpt lat="43.41004" lon="4.72717">
        <ele>58.703</ele>
        <time>2019-05-01T07:11:20Z</time>
      </trkpt>
      <trkpt lat="43.41002" lon="4.72714">
        <ele>57.865</ele>
        <time>2019-05-01T07:11:30Z</time>
      </trkpt>
      <trkpt lat="43.41003" lon="4.72713">
        <ele>57.756</ele>
        <time>2019-05-01T07:11:41Z</time>
      </trkpt>
      <trkpt lat="43.41002" lon="4.72724">
        <ele>61.772</ele>
        <time>2019-05-01T07:12:39Z</time>
      </trkpt>
      <trkpt lat="43.40998" lon="4.7272">
        <ele>60.912</ele>
        <time>2019-05-01T07:12:50Z</time>
      </trkpt>
      <trkpt lat="43.41" lon="4.72722">
        <ele>61.264</ele>
        <time>2019-05-01T07:13:00Z</time>
      </trkpt>
      <trkpt lat="43.41001" lon="4.72719">
        <ele>56.971</ele>
        <time>2019-05-01T07:13:11Z</time>
      </trkpt>
      <trkpt lat="43.41001" lon="4.72719">
        <ele>56.741</ele>
        <time>2019-05-01T07:13:22Z</time>
      </trkpt>
      <trkpt lat="43.41001" lon="4.72719">
        <ele>56.711</ele>
        <time>2019-05-01T07:13:32Z</time>
      </trkpt>
      <trkpt lat="43.41001" lon="4.72719">
        <ele>56.678</ele>
        <time>2019-05-01T07:13:42Z</time>
      </trkpt>
      <trkpt lat="43.41001" lon="4.72719">
        <ele>56.627</ele>
        <time>2019-05-01T07:13:52Z</time>
      </trkpt>
      <trkpt lat="43.41001" lon="4.72719">
        <ele>56.574</ele>
        <time>2019-05-01T07:14:03Z</time>
      </trkpt>
      <trkpt lat="43.41001" lon="4.72719">
        <ele>56.492</ele>
        <time>2019-05-01T07:14:14Z</time>
      </trkpt>
      <trkpt lat="43.41001" lon="4.72719">
        <ele>56.384</ele>
        <time>2019-05-01T07:14:24Z</time>
      </trkpt>
      <trkpt lat="43.41001" lon="4.72719">
        <ele>56.079</ele>
        <time>2019-05-01T07:14:35Z</time>
      </trkpt>
      <trkpt lat="43.41001" lon="4.72719">
        <ele>55.931</ele>
        <time>2019-05-01T07:14:45Z</time>
      </trkpt>
      <trkpt lat="43.41001" lon="4.72719">
        <ele>55.801</ele>
        <time>2019-05-01T07:14:55Z</time>
      </trkpt>
      <trkpt lat="43.41001" lon="4.72719">
        <ele>55.695</ele>
        <time>2019-05-01T07:15:05Z</time>
      </trkpt>
      <trkpt lat="43.41001" lon="4.72719">
        <ele>55.601</ele>
        <time>2019-05-01T07:15:16Z</time>
      </trkpt>
      <trkpt lat="43.41001" lon="4.72719">
        <ele>55.508</ele>
        <time>2019-05-01T07:15:27Z</time>
      </trkpt>
      <trkpt lat="43.41001" lon="4.72719">
        <ele>55.422</ele>
        <time>2019-05-01T07:15:37Z</time>
      </trkpt>
      <trkpt lat="43.41001" lon="4.72719">
        <ele>55.325</ele>
        <time>2019-05-01T07:15:48Z</time>
      </trkpt>
      <trkpt lat="43.41001" lon="4.72719">
        <ele>55.227</ele>
        <time>2019-05-01T07:15:59Z</time>
      </trkpt>
      <trkpt lat="43.41001" lon="4.72719">
        <ele>55.118</ele>
        <time>2019-05-01T07:16:10Z</time>
      </trkpt>
      <trkpt lat="43.41001" lon="4.72719">
        <ele>55.006</ele>
        <time>2019-05-01T07:16:20Z</time>
      </trkpt>
      <trkpt lat="43.41001" lon="4.72719">
        <ele>54.884</ele>
        <time>2019-05-01T07:16:31Z</time>
      </trkpt>
      <trkpt lat="43.41001" lon="4.72719">
        <ele>54.766</ele>
        <time>2019-05-01T07:16:41Z</time>
      </trkpt>
      <trkpt lat="43.41005" lon="4.72718">
        <ele>54.62</ele>
        <time>2019-05-01T07:16:51Z</time>
      </trkpt>
      <trkpt lat="43.41005" lon="4.72718">
        <ele>54.44</ele>
        <time>2019-05-01T07:17:02Z</time>
      </trkpt>
      <trkpt lat="43.41005" lon="4.72718">
        <ele>54.257</ele>
        <time>2019-05-01T07:17:13Z</time>
      </trkpt>
      <trkpt lat="43.41005" lon="4.72718">
        <ele>54.074</ele>
        <time>2019-05-01T07:17:23Z</time>
      </trkpt>
      <trkpt lat="43.41005" lon="4.72718">
        <ele>53.856</ele>
        <time>2019-05-01T07:17:34Z</time>
      </trkpt>
      <trkpt lat="43.41006" lon="4.72717">
        <ele>53.619</ele>
        <time>2019-05-01T07:17:45Z</time>
      </trkpt>
      <trkpt lat="43.41006" lon="4.72715">
        <ele>53.513</ele>
        <time>2019-05-01T07:17:56Z</time>
      </trkpt>
      <trkpt lat="43.41005" lon="4.72715">
        <ele>53.502</ele>
        <time>2019-05-01T07:18:06Z</time>
      </trkpt>
      <trkpt lat="43.41005" lon="4.72715">
        <ele>53.399</ele>
        <time>2019-05-01T07:18:16Z</time>
      </trkpt>
      <trkpt lat="43.41005" lon="4.72716">
        <ele>53.342</ele>
        <time>2019-05-01T07:18:26Z</time>
      </trkpt>
      <trkpt lat="43.41003" lon="4.72717">
        <ele>53.362</ele>
        <time>2019-05-01T07:18:36Z</time>
      </trkpt>
      <trkpt lat="43.41003" lon="4.72719">
        <ele>53.43</ele>
        <time>2019-05-01T07:18:47Z</time>
      </trkpt>
      <trkpt lat="43.41002" lon="4.7272">
        <ele>53.51</ele>
        <time>2019-05-01T07:18:58Z</time>
      </trkpt>
      <trkpt lat="43.41002" lon="4.7272">
        <ele>53.515</ele>
        <time>2019-05-01T07:19:08Z</time>
      </trkpt>
      <trkpt lat="43.41002" lon="4.7272">
        <ele>53.499</ele>
        <time>2019-05-01T07:19:19Z</time>
      </trkpt>
      <trkpt lat="43.41002" lon="4.7272">
        <ele>53.511</ele>
        <time>2019-05-01T07:19:30Z</time>
      </trkpt>
      <trkpt lat="43.41003" lon="4.7272">
        <ele>53.512</ele>
        <time>2019-05-01T07:19:41Z</time>
      </trkpt>
      <trkpt lat="43.41004" lon="4.7272">
        <ele>53.505</ele>
        <time>2019-05-01T07:19:51Z</time>
      </trkpt>
      <trkpt lat="43.41005" lon="4.7272">
        <ele>53.455</ele>
        <time>2019-05-01T07:20:02Z</time>
      </trkpt>
      <trkpt lat="43.41006" lon="4.7272">
        <ele>53.4</ele>
        <time>2019-05-01T07:20:13Z</time>
      </trkpt>
      <trkpt lat="43.41005" lon="4.7272">
        <ele>53.426</ele>
        <time>2019-05-01T07:20:24Z</time>
      </trkpt>
      <trkpt lat="43.41004" lon="4.7272">
        <ele>53.476</ele>
        <time>2019-05-01T07:20:35Z</time>
      </trkpt>
      <trkpt lat="43.41004" lon="4.72719">
        <ele>53.521</ele>
        <time>2019-05-01T07:20:45Z</time>
      </trkpt>
      <trkpt lat="43.41004" lon="4.72721">
        <ele>53.747</ele>
        <time>2019-05-01T07:20:56Z</time>
      </trkpt>
      <trkpt lat="43.41003" lon="4.72721">
        <ele>53.819</ele>
        <time>2019-05-01T07:21:06Z</time>
      </trkpt>
      <trkpt lat="43.41003" lon="4.7272">
        <ele>54.684</ele>
        <time>2019-05-01T07:21:17Z</time>
      </trkpt>
      <trkpt lat="43.41003" lon="4.72719">
        <ele>55.671</ele>
        <time>2019-05-01T07:21:27Z</time>
      </trkpt>
      <trkpt lat="43.41008" lon="4.72713">
        <ele>57.674</ele>
        <time>2019-05-01T07:21:39Z</time>
      </trkpt>
      <trkpt lat="43.41003" lon="4.7272">
        <ele>59.057</ele>
        <time>2019-05-01T07:21:50Z</time>
      </trkpt>
      <trkpt lat="43.41003" lon="4.72722">
        <ele>59.449</ele>
        <time>2019-05-01T07:22:02Z</time>
      </trkpt>
      <trkpt lat="43.41007" lon="4.72722">
        <ele>59.874</ele>
        <time>2019-05-01T07:22:12Z</time>
      </trkpt>
      <trkpt lat="43.40999" lon="4.72712">
        <ele>72.478</ele>
        <time>2019-05-01T07:26:27Z</time>
      </trkpt>
      <trkpt lat="43.40995" lon="4.72706">
        <ele>70.097</ele>
        <time>2019-05-01T07:26:37Z</time>
      </trkpt>
      <trkpt lat="43.40997" lon="4.72709">
        <ele>68.73</ele>
        <time>2019-05-01T07:26:48Z</time>
      </trkpt>
      <trkpt lat="43.41002" lon="4.72712">
        <ele>71.561</ele>
        <time>2019-05-01T07:27:53Z</time>
      </trkpt>
      <trkpt lat="43.41002" lon="4.7273">
        <ele>69.939</ele>
        <time>2019-05-01T07:28:03Z</time>
      </trkpt>
      <trkpt lat="43.40999" lon="4.72726">
        <ele>68.495</ele>
        <time>2019-05-01T07:28:14Z</time>
      </trkpt>
      <trkpt lat="43.40998" lon="4.72726">
        <ele>68.307</ele>
        <time>2019-05-01T07:28:24Z</time>
      </trkpt>
      <trkpt lat="43.40998" lon="4.72724">
        <ele>67.927</ele>
        <time>2019-05-01T07:28:35Z</time>
      </trkpt>
      <trkpt lat="43.40998" lon="4.72722">
        <ele>66.694</ele>
        <time>2019-05-01T07:28:46Z</time>
      </trkpt>
      <trkpt lat="43.40999" lon="4.72722">
        <ele>66.19</ele>
        <time>2019-05-01T07:28:57Z</time>
      </trkpt>
      <trkpt lat="43.40999" lon="4.72721">
        <ele>65.717</ele>
        <time>2019-05-01T07:29:08Z</time>
      </trkpt>
      <trkpt lat="43.40999" lon="4.7272">
        <ele>65.285</ele>
        <time>2019-05-01T07:29:19Z</time>
      </trkpt>
      <trkpt lat="43.41" lon="4.7272">
        <ele>64.894</ele>
        <time>2019-05-01T07:29:29Z</time>
      </trkpt>
      <trkpt lat="43.41" lon="4.72719">
        <ele>64.462</ele>
        <time>2019-05-01T07:29:39Z</time>
      </trkpt>
      <trkpt lat="43.41" lon="4.72719">
        <ele>64.047</ele>
        <time>2019-05-01T07:29:50Z</time>
      </trkpt>
      <trkpt lat="43.41" lon="4.72719">
        <ele>63.409</ele>
        <time>2019-05-01T07:30:00Z</time>
      </trkpt>
      <trkpt lat="43.41" lon="4.72719">
        <ele>63.05</ele>
        <time>2019-05-01T07:30:11Z</time>
      </trkpt>
      <trkpt lat="43.40999" lon="4.7272">
        <ele>62.121</ele>
        <time>2019-05-01T07:30:22Z</time>
      </trkpt>
      <trkpt lat="43.40997" lon="4.72717">
        <ele>61.009</ele>
        <time>2019-05-01T07:30:33Z</time>
      </trkpt>
      <trkpt lat="43.41" lon="4.72716">
        <ele>59.999</ele>
        <time>2019-05-01T07:30:44Z</time>
      </trkpt>
      <trkpt lat="43.41006" lon="4.72719">
        <ele>58.414</ele>
        <time>2019-05-01T07:30:55Z</time>
      </trkpt>
      <trkpt lat="43.41029" lon="4.72737">
        <ele>56.952</ele>
        <time>2019-05-01T07:31:05Z</time>
      </trkpt>
      <trkpt lat="43.4107" lon="4.72761">
        <ele>56.006</ele>
        <time>2019-05-01T07:31:16Z</time>
      </trkpt>
      <trkpt lat="43.41109" lon="4.72781">
        <ele>52.142</ele>
        <time>2019-05-01T07:31:27Z</time>
      </trkpt>
      <trkpt lat="43.41151" lon="4.72799">
        <ele>47.149</ele>
        <time>2019-05-01T07:31:38Z</time>
      </trkpt>
      <trkpt lat="43.41192" lon="4.72822">
        <ele>51.145</ele>
        <time>2019-05-01T07:31:49Z</time>
      </trkpt>
      <trkpt lat="43.41232" lon="4.72829">
        <ele>52.695</ele>
        <time>2019-05-01T07:31:59Z</time>
      </trkpt>
      <trkpt lat="43.41274" lon="4.72808">
        <ele>53.118</ele>
        <time>2019-05-01T07:32:10Z</time>
      </trkpt>
      <trkpt lat="43.41313" lon="4.72831">
        <ele>50.598</ele>
        <time>2019-05-01T07:32:21Z</time>
      </trkpt>
      <trkpt lat="43.41343" lon="4.72865">
        <ele>49.374</ele>
        <time>2019-05-01T07:32:31Z</time>
      </trkpt>
      <trkpt lat="43.41359" lon="4.72913">
        <ele>50.675</ele>
        <time>2019-05-01T07:32:41Z</time>
      </trkpt>
      <trkpt lat="43.41373" lon="4.72974">
        <ele>52.906</ele>
        <time>2019-05-01T07:32:52Z</time>
      </trkpt>
      <trkpt lat="43.4139" lon="4.73033">
        <ele>56.403</ele>
        <time>2019-05-01T07:33:03Z</time>
      </trkpt>
      <trkpt lat="43.41418" lon="4.73102">
        <ele>57.612</ele>
        <time>2019-05-01T07:33:14Z</time>
      </trkpt>
      <trkpt lat="43.41445" lon="4.73156">
        <ele>54.582</ele>
        <time>2019-05-01T07:33:25Z</time>
      </trkpt>
      <trkpt lat="43.41474" lon="4.73219">
        <ele>54.26</ele>
        <time>2019-05-01T07:33:36Z</time>
      </trkpt>
      <trkpt lat="43.41503" lon="4.73279">
        <ele>55.359</ele>
        <time>2019-05-01T07:33:47Z</time>
      </trkpt>
      <trkpt lat="43.41529" lon="4.73336">
        <ele>53.469</ele>
        <time>2019-05-01T07:33:57Z</time>
      </trkpt>
      <trkpt lat="43.41558" lon="4.73394">
        <ele>53.658</ele>
        <time>2019-05-01T07:34:08Z</time>
      </trkpt>
      <trkpt lat="43.41584" lon="4.73446">
        <ele>51.997</ele>
        <time>2019-05-01T07:34:18Z</time>
      </trkpt>
      <trkpt lat="43.41612" lon="4.73507">
        <ele>48.654</ele>
        <time>2019-05-01T07:34:29Z</time>
      </trkpt>
      <trkpt lat="43.4164" lon="4.73564">
        <ele>47.623</ele>
        <time>2019-05-01T07:34:39Z</time>
      </trkpt>
      <trkpt lat="43.41668" lon="4.73617">
        <ele>47.22</ele>
        <time>2019-05-01T07:34:49Z</time>
      </trkpt>
      <trkpt lat="43.41676" lon="4.73655">
        <ele>47.652</ele>
        <time>2019-05-01T07:35:00Z</time>
      </trkpt>
      <trkpt lat="43.41649" lon="4.73677">
        <ele>49.334</ele>
        <time>2019-05-01T07:35:11Z</time>
      </trkpt>
      <trkpt lat="43.41614" lon="4.73713">
        <ele>52.136</ele>
        <time>2019-05-01T07:35:21Z</time>
      </trkpt>
      <trkpt lat="43.41582" lon="4.73741">
        <ele>53.475</ele>
        <time>2019-05-01T07:35:31Z</time>
      </trkpt>
      <trkpt lat="43.41557" lon="4.73761">
        <ele>53.518</ele>
        <time>2019-05-01T07:35:42Z</time>
      </trkpt>
      <trkpt lat="43.41556" lon="4.73761">
        <ele>53.169</ele>
        <time>2019-05-01T07:35:52Z</time>
      </trkpt>
      <trkpt lat="43.41557" lon="4.73766">
        <ele>52.887</ele>
        <time>2019-05-01T07:36:02Z</time>
      </trkpt>
      <trkpt lat="43.41578" lon="4.73732">
        <ele>52.008</ele>
        <time>2019-05-01T07:36:12Z</time>
      </trkpt>
      <trkpt lat="43.41591" lon="4.73761">
        <ele>50.649</ele>
        <time>2019-05-01T07:36:23Z</time>
      </trkpt>
      <trkpt lat="43.41617" lon="4.73826">
        <ele>49.794</ele>
        <time>2019-05-01T07:36:34Z</time>
      </trkpt>
      <trkpt lat="43.41644" lon="4.7388">
        <ele>50.32</ele>
        <time>2019-05-01T07:36:44Z</time>
      </trkpt>
      <trkpt lat="43.41668" lon="4.73936">
        <ele>52.371</ele>
        <time>2019-05-01T07:36:54Z</time>
      </trkpt>
      <trkpt lat="43.41695" lon="4.73992">
        <ele>54.502</ele>
        <time>2019-05-01T07:37:04Z</time>
      </trkpt>
      <trkpt lat="43.41726" lon="4.74053">
        <ele>54.225</ele>
        <time>2019-05-01T07:37:15Z</time>
      </trkpt>
      <trkpt lat="43.41753" lon="4.74107">
        <ele>53.546</ele>
        <time>2019-05-01T07:37:25Z</time>
      </trkpt>
      <trkpt lat="43.41779" lon="4.74166">
        <ele>53.08</ele>
        <time>2019-05-01T07:37:35Z</time>
      </trkpt>
      <trkpt lat="43.41804" lon="4.74227">
        <ele>52.053</ele>
        <time>2019-05-01T07:37:46Z</time>
      </trkpt>
      <trkpt lat="43.4181" lon="4.74277">
        <ele>52.52</ele>
        <time>2019-05-01T07:37:56Z</time>
      </trkpt>
      <trkpt lat="43.41803" lon="4.7432">
        <ele>52.659</ele>
        <time>2019-05-01T07:38:06Z</time>
      </trkpt>
      <trkpt lat="43.41803" lon="4.74345">
        <ele>53.593</ele>
        <time>2019-05-01T07:38:16Z</time>
      </trkpt>
      <trkpt lat="43.41805" lon="4.7435">
        <ele>53.681</ele>
        <time>2019-05-01T07:38:27Z</time>
      </trkpt>
      <trkpt lat="43.41806" lon="4.7435">
        <ele>53.741</ele>
        <time>2019-05-01T07:38:38Z</time>
      </trkpt>
      <trkpt lat="43.41806" lon="4.7435">
        <ele>53.749</ele>
        <time>2019-05-01T07:38:48Z</time>
      </trkpt>
      <trkpt lat="43.41806" lon="4.74347">
        <ele>54.33</ele>
        <time>2019-05-01T07:38:59Z</time>
      </trkpt>
      <trkpt lat="43.41805" lon="4.74346">
        <ele>54.384</ele>
        <time>2019-05-01T07:39:10Z</time>
      </trkpt>
      <trkpt lat="43.41806" lon="4.74355">
        <ele>53.93</ele>
        <time>2019-05-01T07:39:20Z</time>
      </trkpt>
      <trkpt lat="43.41807" lon="4.74371">
        <ele>53.635</ele>
        <time>2019-05-01T07:39:31Z</time>
      </trkpt>
      <trkpt lat="43.41809" lon="4.74384">
        <ele>52.659</ele>
        <time>2019-05-01T07:39:42Z</time>
      </trkpt>
      <trkpt lat="43.41808" lon="4.74394">
        <ele>51.612</ele>
        <time>2019-05-01T07:39:53Z</time>
      </trkpt>
      <trkpt lat="43.41809" lon="4.74393">
        <ele>51.546</ele>
        <time>2019-05-01T07:40:03Z</time>
      </trkpt>
      <trkpt lat="43.41806" lon="4.7438">
        <ele>50.855</ele>
        <time>2019-05-01T07:40:14Z</time>
      </trkpt>
      <trkpt lat="43.41805" lon="4.74369">
        <ele>50.86</ele>
        <time>2019-05-01T07:40:25Z</time>
      </trkpt>
      <trkpt lat="43.41808" lon="4.74354">
        <ele>51.221</ele>
        <time>2019-05-01T07:40:35Z</time>
      </trkpt>
      <trkpt lat="43.41814" lon="4.74341">
        <ele>51.214</ele>
        <time>2019-05-01T07:40:46Z</time>
      </trkpt>
      <trkpt lat="43.41815" lon="4.74326">
        <ele>51.05</ele>
        <time>2019-05-01T07:40:57Z</time>
      </trkpt>
      <trkpt lat="43.41823" lon="4.74311">
        <ele>50.521</ele>
        <time>2019-05-01T07:41:07Z</time>
      </trkpt>
      <trkpt lat="43.41825" lon="4.74307">
        <ele>50.205</ele>
        <time>2019-05-01T07:41:18Z</time>
      </trkpt>
      <trkpt lat="43.41825" lon="4.74307">
        <ele>50.364</ele>
        <time>2019-05-01T07:41:28Z</time>
      </trkpt>
      <trkpt lat="43.41826" lon="4.74307">
        <ele>50.493</ele>
        <time>2019-05-01T07:41:39Z</time>
      </trkpt>
      <trkpt lat="43.41818" lon="4.74319">
        <ele>51.451</ele>
        <time>2019-05-01T07:41:50Z</time>
      </trkpt>
      <trkpt lat="43.41813" lon="4.74334">
        <ele>52.356</ele>
        <time>2019-05-01T07:42:00Z</time>
      </trkpt>
      <trkpt lat="43.41808" lon="4.74347">
        <ele>52.5</ele>
        <time>2019-05-01T07:42:11Z</time>
      </trkpt>
      <trkpt lat="43.41804" lon="4.74352">
        <ele>52.345</ele>
        <time>2019-05-01T07:42:21Z</time>
      </trkpt>
      <trkpt lat="43.41809" lon="4.74361">
        <ele>52.56</ele>
        <time>2019-05-01T07:42:32Z</time>
      </trkpt>
      <trkpt lat="43.41812" lon="4.7436">
        <ele>52.518</ele>
        <time>2019-05-01T07:42:42Z</time>
      </trkpt>
      <trkpt lat="43.41806" lon="4.7435">
        <ele>51.804</ele>
        <time>2019-05-01T07:42:53Z</time>
      </trkpt>
      <trkpt lat="43.41805" lon="4.74348">
        <ele>51.991</ele>
        <time>2019-05-01T07:43:04Z</time>
      </trkpt>
      <trkpt lat="43.41806" lon="4.74349">
        <ele>52.028</ele>
        <time>2019-05-01T07:43:14Z</time>
      </trkpt>
      <trkpt lat="43.41807" lon="4.74351">
        <ele>52.221</ele>
        <time>2019-05-01T07:43:25Z</time>
      </trkpt>
      <trkpt lat="43.41807" lon="4.74351">
        <ele>52.226</ele>
        <time>2019-05-01T07:43:36Z</time>
      </trkpt>
      <trkpt lat="43.41806" lon="4.74351">
        <ele>52.207</ele>
        <time>2019-05-01T07:43:47Z</time>
      </trkpt>
      <trkpt lat="43.41806" lon="4.74351">
        <ele>52.222</ele>
        <time>2019-05-01T07:43:57Z</time>
      </trkpt>
      <trkpt lat="43.41804" lon="4.74349">
        <ele>52.382</ele>
        <time>2019-05-01T07:44:08Z</time>
      </trkpt>
      <trkpt lat="43.41804" lon="4.74349">
        <ele>52.395</ele>
        <time>2019-05-01T07:44:18Z</time>
      </trkpt>
      <trkpt lat="43.41804" lon="4.7435">
        <ele>52.356</ele>
        <time>2019-05-01T07:44:28Z</time>
      </trkpt>
      <trkpt lat="43.41804" lon="4.7435">
        <ele>52.316</ele>
        <time>2019-05-01T07:44:38Z</time>
      </trkpt>
      <trkpt lat="43.41804" lon="4.7435">
        <ele>52.263</ele>
        <time>2019-05-01T07:44:49Z</time>
      </trkpt>
      <trkpt lat="43.41804" lon="4.7435">
        <ele>52.192</ele>
        <time>2019-05-01T07:45:00Z</time>
      </trkpt>
      <trkpt lat="43.41804" lon="4.74349">
        <ele>52.137</ele>
        <time>2019-05-01T07:45:11Z</time>
      </trkpt>
      <trkpt lat="43.41804" lon="4.7435">
        <ele>52.092</ele>
        <time>2019-05-01T07:45:21Z</time>
      </trkpt>
      <trkpt lat="43.41804" lon="4.7435">
        <ele>52.058</ele>
        <time>2019-05-01T07:45:31Z</time>
      </trkpt>
      <trkpt lat="43.41804" lon="4.7435">
        <ele>52.025</ele>
        <time>2019-05-01T07:45:42Z</time>
      </trkpt>
      <trkpt lat="43.41804" lon="4.7435">
        <ele>52.006</ele>
        <time>2019-05-01T07:45:53Z</time>
      </trkpt>
      <trkpt lat="43.41804" lon="4.7435">
        <ele>51.988</ele>
        <time>2019-05-01T07:46:04Z</time>
      </trkpt>
      <trkpt lat="43.41805" lon="4.7435">
        <ele>51.968</ele>
        <time>2019-05-01T07:46:14Z</time>
      </trkpt>
      <trkpt lat="43.41805" lon="4.7435">
        <ele>51.947</ele>
        <time>2019-05-01T07:46:25Z</time>
      </trkpt>
      <trkpt lat="43.41805" lon="4.7435">
        <ele>51.932</ele>
        <time>2019-05-01T07:46:35Z</time>
      </trkpt>
      <trkpt lat="43.41805" lon="4.7435">
        <ele>51.92</ele>
        <time>2019-05-01T07:46:46Z</time>
      </trkpt>
      <trkpt lat="43.41805" lon="4.7435">
        <ele>51.91</ele>
        <time>2019-05-01T07:46:56Z</time>
      </trkpt>
      <trkpt lat="43.41804" lon="4.74349">
        <ele>51.938</ele>
        <time>2019-05-01T07:47:07Z</time>
      </trkpt>
      <trkpt lat="43.41804" lon="4.7435">
        <ele>51.962</ele>
        <time>2019-05-01T07:47:17Z</time>
      </trkpt>
      <trkpt lat="43.41804" lon="4.7435">
        <ele>51.969</ele>
        <time>2019-05-01T07:47:27Z</time>
      </trkpt>
      <trkpt lat="43.41804" lon="4.7435">
        <ele>51.982</ele>
        <time>2019-05-01T07:47:37Z</time>
      </trkpt>
      <trkpt lat="43.41804" lon="4.7435">
        <ele>51.977</ele>
        <time>2019-05-01T07:47:48Z</time>
      </trkpt>
      <trkpt lat="43.41804" lon="4.7435">
        <ele>51.965</ele>
        <time>2019-05-01T07:47:58Z</time>
      </trkpt>
      <trkpt lat="43.41804" lon="4.74367">
        <ele>51.696</ele>
        <time>2019-05-01T07:48:09Z</time>
      </trkpt>
      <trkpt lat="43.41799" lon="4.74415">
        <ele>51.559</ele>
        <time>2019-05-01T07:48:20Z</time>
      </trkpt>
      <trkpt lat="43.41796" lon="4.74441">
        <ele>51.397</ele>
        <time>2019-05-01T07:48:30Z</time>
      </trkpt>
      <trkpt lat="43.41793" lon="4.74449">
        <ele>50.644</ele>
        <time>2019-05-01T07:48:41Z</time>
      </trkpt>
      <trkpt lat="43.41793" lon="4.74449">
        <ele>50.586</ele>
        <time>2019-05-01T07:48:52Z</time>
      </trkpt>
      <trkpt lat="43.41792" lon="4.7445">
        <ele>50.548</ele>
        <time>2019-05-01T07:49:03Z</time>
      </trkpt>
      <trkpt lat="43.41791" lon="4.7445">
        <ele>50.435</ele>
        <time>2019-05-01T07:49:14Z</time>
      </trkpt>
      <trkpt lat="43.4179" lon="4.74451">
        <ele>50.248</ele>
        <time>2019-05-01T07:49:25Z</time>
      </trkpt>
      <trkpt lat="43.4179" lon="4.74451">
        <ele>50.046</ele>
        <time>2019-05-01T07:49:36Z</time>
      </trkpt>
      <trkpt lat="43.41789" lon="4.74451">
        <ele>49.875</ele>
        <time>2019-05-01T07:49:47Z</time>
      </trkpt>
      <trkpt lat="43.41789" lon="4.74451">
        <ele>49.634</ele>
        <time>2019-05-01T07:49:58Z</time>
      </trkpt>
      <trkpt lat="43.41788" lon="4.74451">
        <ele>49.354</ele>
        <time>2019-05-01T07:50:08Z</time>
      </trkpt>
      <trkpt lat="43.41789" lon="4.74451">
        <ele>49.115</ele>
        <time>2019-05-01T07:50:19Z</time>
      </trkpt>
      <trkpt lat="43.41788" lon="4.74452">
        <ele>48.77</ele>
        <time>2019-05-01T07:50:30Z</time>
      </trkpt>
      <trkpt lat="43.41788" lon="4.74452">
        <ele>48.375</ele>
        <time>2019-05-01T07:50:41Z</time>
      </trkpt>
      <trkpt lat="43.41788" lon="4.74452">
        <ele>48.026</ele>
        <time>2019-05-01T07:50:52Z</time>
      </trkpt>
      <trkpt lat="43.41789" lon="4.74452">
        <ele>47.781</ele>
        <time>2019-05-01T07:51:02Z</time>
      </trkpt>
      <trkpt lat="43.41789" lon="4.74452">
        <ele>47.514</ele>
        <time>2019-05-01T07:51:13Z</time>
      </trkpt>
      <trkpt lat="43.4179" lon="4.74452">
        <ele>47.227</ele>
        <time>2019-05-01T07:51:24Z</time>
      </trkpt>
      <trkpt lat="43.41791" lon="4.74451">
        <ele>47.05</ele>
        <time>2019-05-01T07:51:35Z</time>
      </trkpt>
      <trkpt lat="43.41802" lon="4.74458">
        <ele>46.944</ele>
        <time>2019-05-01T07:51:46Z</time>
      </trkpt>
      <trkpt lat="43.41809" lon="4.74477">
        <ele>47.16</ele>
        <time>2019-05-01T07:51:57Z</time>
      </trkpt>
      <trkpt lat="43.41812" lon="4.74507">
        <ele>47.171</ele>
        <time>2019-05-01T07:52:07Z</time>
      </trkpt>
      <trkpt lat="43.41812" lon="4.74542">
        <ele>47.025</ele>
        <time>2019-05-01T07:52:17Z</time>
      </trkpt>
      <trkpt lat="43.41817" lon="4.74591">
        <ele>47.678</ele>
        <time>2019-05-01T07:52:28Z</time>
      </trkpt>
      <trkpt lat="43.41831" lon="4.74643">
        <ele>51</ele>
        <time>2019-05-01T07:52:39Z</time>
      </trkpt>
      <trkpt lat="43.41852" lon="4.74685">
        <ele>57.344</ele>
        <time>2019-05-01T07:52:50Z</time>
      </trkpt>
      <trkpt lat="43.41875" lon="4.74713">
        <ele>56.648</ele>
        <time>2019-05-01T07:53:00Z</time>
      </trkpt>
      <trkpt lat="43.41899" lon="4.74733">
        <ele>56.146</ele>
        <time>2019-05-01T07:53:11Z</time>
      </trkpt>
      <trkpt lat="43.41915" lon="4.74745">
        <ele>55.675</ele>
        <time>2019-05-01T07:53:22Z</time>
      </trkpt>
      <trkpt lat="43.41931" lon="4.74754">
        <ele>54.959</ele>
        <time>2019-05-01T07:53:33Z</time>
      </trkpt>
      <trkpt lat="43.41938" lon="4.74761">
        <ele>53.423</ele>
        <time>2019-05-01T07:53:44Z</time>
      </trkpt>
      <trkpt lat="43.41939" lon="4.74774">
        <ele>52.421</ele>
        <time>2019-05-01T07:53:55Z</time>
      </trkpt>
      <trkpt lat="43.41941" lon="4.74778">
        <ele>52</ele>
        <time>2019-05-01T07:54:06Z</time>
      </trkpt>
      <trkpt lat="43.41942" lon="4.74779">
        <ele>51.989</ele>
        <time>2019-05-01T07:54:16Z</time>
      </trkpt>
      <trkpt lat="43.41942" lon="4.74779">
        <ele>51.991</ele>
        <time>2019-05-01T07:54:27Z</time>
      </trkpt>
      <trkpt lat="43.41943" lon="4.74779">
        <ele>51.956</ele>
        <time>2019-05-01T07:54:37Z</time>
      </trkpt>
      <trkpt lat="43.41943" lon="4.74779">
        <ele>51.951</ele>
        <time>2019-05-01T07:54:48Z</time>
      </trkpt>
      <trkpt lat="43.41944" lon="4.74779">
        <ele>51.954</ele>
        <time>2019-05-01T07:54:59Z</time>
      </trkpt>
      <trkpt lat="43.41944" lon="4.74779">
        <ele>51.898</ele>
        <time>2019-05-01T07:55:09Z</time>
      </trkpt>
      <trkpt lat="43.41945" lon="4.7478">
        <ele>51.914</ele>
        <time>2019-05-01T07:55:19Z</time>
      </trkpt>
      <trkpt lat="43.41946" lon="4.7478">
        <ele>52.01</ele>
        <time>2019-05-01T07:55:29Z</time>
      </trkpt>
      <trkpt lat="43.41948" lon="4.74779">
        <ele>52.275</ele>
        <time>2019-05-01T07:55:40Z</time>
      </trkpt>
      <trkpt lat="43.41958" lon="4.74782">
        <ele>54.034</ele>
        <time>2019-05-01T07:55:50Z</time>
      </trkpt>
      <trkpt lat="43.41991" lon="4.74811">
        <ele>53.201</ele>
        <time>2019-05-01T07:56:01Z</time>
      </trkpt>
      <trkpt lat="43.42021" lon="4.74834">
        <ele>51.998</ele>
        <time>2019-05-01T07:56:11Z</time>
      </trkpt>
      <trkpt lat="43.4206" lon="4.74864">
        <ele>51.675</ele>
        <time>2019-05-01T07:56:22Z</time>
      </trkpt>
      <trkpt lat="43.42087" lon="4.74911">
        <ele>50.983</ele>
        <time>2019-05-01T07:56:33Z</time>
      </trkpt>
      <trkpt lat="43.421" lon="4.74975">
        <ele>54.071</ele>
        <time>2019-05-01T07:56:44Z</time>
      </trkpt>
      <trkpt lat="43.42106" lon="4.75049">
        <ele>55.427</ele>
        <time>2019-05-01T07:56:55Z</time>
      </trkpt>
      <trkpt lat="43.42111" lon="4.75128">
        <ele>53.913</ele>
        <time>2019-05-01T07:57:06Z</time>
      </trkpt>
      <trkpt lat="43.42119" lon="4.75202">
        <ele>50.961</ele>
        <time>2019-05-01T07:57:17Z</time>
      </trkpt>
      <trkpt lat="43.4213" lon="4.75273">
        <ele>51.43</ele>
        <time>2019-05-01T07:57:28Z</time>
      </trkpt>
      <trkpt lat="43.42143" lon="4.75339">
        <ele>51.619</ele>
        <time>2019-05-01T07:57:39Z</time>
      </trkpt>
      <trkpt lat="43.42157" lon="4.75404">
        <ele>52.577</ele>
        <time>2019-05-01T07:57:50Z</time>
      </trkpt>
      <trkpt lat="43.42176" lon="4.75468">
        <ele>52.125</ele>
        <time>2019-05-01T07:58:01Z</time>
      </trkpt>
      <trkpt lat="43.42195" lon="4.75526">
        <ele>51.408</ele>
        <time>2019-05-01T07:58:11Z</time>
      </trkpt>
      <trkpt lat="43.4222" lon="4.75587">
        <ele>52.708</ele>
        <time>2019-05-01T07:58:22Z</time>
      </trkpt>
      <trkpt lat="43.42243" lon="4.7565">
        <ele>55.436</ele>
        <time>2019-05-01T07:58:33Z</time>
      </trkpt>
      <trkpt lat="43.42273" lon="4.75717">
        <ele>54.128</ele>
        <time>2019-05-01T07:58:46Z</time>
      </trkpt>
      <trkpt lat="43.42302" lon="4.75775">
        <ele>51.941</ele>
        <time>2019-05-01T07:58:56Z</time>
      </trkpt>
      <trkpt lat="43.42331" lon="4.75833">
        <ele>51.759</ele>
        <time>2019-05-01T07:59:07Z</time>
      </trkpt>
      <trkpt lat="43.42362" lon="4.75896">
        <ele>53.179</ele>
        <time>2019-05-01T07:59:18Z</time>
      </trkpt>
      <trkpt lat="43.42392" lon="4.75957">
        <ele>53.837</ele>
        <time>2019-05-01T07:59:29Z</time>
      </trkpt>
      <trkpt lat="43.4242" lon="4.76012">
        <ele>52.657</ele>
        <time>2019-05-01T07:59:39Z</time>
      </trkpt>
      <trkpt lat="43.42449" lon="4.76068">
        <ele>51.547</ele>
        <time>2019-05-01T07:59:49Z</time>
      </trkpt>
      <trkpt lat="43.42479" lon="4.76132">
        <ele>52.592</ele>
        <time>2019-05-01T08:00:00Z</time>
      </trkpt>
      <trkpt lat="43.42506" lon="4.76194">
        <ele>52.932</ele>
        <time>2019-05-01T08:00:11Z</time>
      </trkpt>
      <trkpt lat="43.42534" lon="4.76251">
        <ele>52.982</ele>
        <time>2019-05-01T08:00:22Z</time>
      </trkpt>
      <trkpt lat="43.42563" lon="4.76312">
        <ele>52.53</ele>
        <time>2019-05-01T08:00:33Z</time>
      </trkpt>
      <trkpt lat="43.42593" lon="4.76368">
        <ele>53.157</ele>
        <time>2019-05-01T08:00:44Z</time>
      </trkpt>
      <trkpt lat="43.42622" lon="4.76427">
        <ele>53.812</ele>
        <time>2019-05-01T08:00:55Z</time>
      </trkpt>
      <trkpt lat="43.42649" lon="4.76479">
        <ele>52.814</ele>
        <time>2019-05-01T08:01:05Z</time>
      </trkpt>
      <trkpt lat="43.42672" lon="4.76529">
        <ele>52.881</ele>
        <time>2019-05-01T08:01:16Z</time>
      </trkpt>
      <trkpt lat="43.42704" lon="4.76564">
        <ele>54.311</ele>
        <time>2019-05-01T08:01:27Z</time>
      </trkpt>
      <trkpt lat="43.42728" lon="4.76567">
        <ele>54.41</ele>
        <time>2019-05-01T08:01:37Z</time>
      </trkpt>
      <trkpt lat="43.42737" lon="4.76564">
        <ele>53.764</ele>
        <time>2019-05-01T08:01:48Z</time>
      </trkpt>
      <trkpt lat="43.42736" lon="4.76563">
        <ele>53.814</ele>
        <time>2019-05-01T08:01:59Z</time>
      </trkpt>
      <trkpt lat="43.42739" lon="4.76566">
        <ele>54.306</ele>
        <time>2019-05-01T08:02:10Z</time>
      </trkpt>
      <trkpt lat="43.4275" lon="4.76555">
        <ele>54.706</ele>
        <time>2019-05-01T08:02:20Z</time>
      </trkpt>
      <trkpt lat="43.42768" lon="4.7652">
        <ele>54.696</ele>
        <time>2019-05-01T08:02:30Z</time>
      </trkpt>
      <trkpt lat="43.42765" lon="4.76475">
        <ele>55.046</ele>
        <time>2019-05-01T08:02:41Z</time>
      </trkpt>
      <trkpt lat="43.42742" lon="4.7644">
        <ele>55.752</ele>
        <time>2019-05-01T08:02:52Z</time>
      </trkpt>
      <trkpt lat="43.42751" lon="4.76404">
        <ele>56.337</ele>
        <time>2019-05-01T08:03:02Z</time>
      </trkpt>
      <trkpt lat="43.42774" lon="4.76366">
        <ele>56.75</ele>
        <time>2019-05-01T08:03:13Z</time>
      </trkpt>
      <trkpt lat="43.42799" lon="4.76339">
        <ele>56.786</ele>
        <time>2019-05-01T08:03:23Z</time>
      </trkpt>
      <trkpt lat="43.42808" lon="4.76333">
        <ele>56.89</ele>
        <time>2019-05-01T08:03:34Z</time>
      </trkpt>
      <trkpt lat="43.42808" lon="4.76335">
        <ele>57.25</ele>
        <time>2019-05-01T08:03:44Z</time>
      </trkpt>
      <trkpt lat="43.42808" lon="4.76335">
        <ele>57.345</ele>
        <time>2019-05-01T08:03:54Z</time>
      </trkpt>
      <trkpt lat="43.42809" lon="4.76334">
        <ele>57.445</ele>
        <time>2019-05-01T08:04:05Z</time>
      </trkpt>
      <trkpt lat="43.42809" lon="4.76334">
        <ele>57.529</ele>
        <time>2019-05-01T08:04:16Z</time>
      </trkpt>
      <trkpt lat="43.42808" lon="4.76334">
        <ele>57.57</ele>
        <time>2019-05-01T08:04:26Z</time>
      </trkpt>
      <trkpt lat="43.42808" lon="4.76335">
        <ele>57.642</ele>
        <time>2019-05-01T08:04:37Z</time>
      </trkpt>
      <trkpt lat="43.42808" lon="4.76335">
        <ele>57.691</ele>
        <time>2019-05-01T08:04:48Z</time>
      </trkpt>
      <trkpt lat="43.42807" lon="4.76333">
        <ele>58.154</ele>
        <time>2019-05-01T08:04:59Z</time>
      </trkpt>
      <trkpt lat="43.42806" lon="4.76332">
        <ele>58.574</ele>
        <time>2019-05-01T08:05:10Z</time>
      </trkpt>
      <trkpt lat="43.42814" lon="4.76323">
        <ele>58.794</ele>
        <time>2019-05-01T08:05:20Z</time>
      </trkpt>
      <trkpt lat="43.42856" lon="4.76287">
        <ele>58.242</ele>
        <time>2019-05-01T08:05:30Z</time>
      </trkpt>
      <trkpt lat="43.42907" lon="4.76241">
        <ele>54.906</ele>
        <time>2019-05-01T08:05:40Z</time>
      </trkpt>
      <trkpt lat="43.42966" lon="4.76206">
        <ele>51.672</ele>
        <time>2019-05-01T08:05:51Z</time>
      </trkpt>
      <trkpt lat="43.42999" lon="4.76259">
        <ele>49.331</ele>
        <time>2019-05-01T08:06:02Z</time>
      </trkpt>
      <trkpt lat="43.43034" lon="4.76313">
        <ele>50.126</ele>
        <time>2019-05-01T08:06:13Z</time>
      </trkpt>
      <trkpt lat="43.43069" lon="4.76368">
        <ele>51.133</ele>
        <time>2019-05-01T08:06:24Z</time>
      </trkpt>
      <trkpt lat="43.43105" lon="4.76423">
        <ele>51.419</ele>
        <time>2019-05-01T08:06:35Z</time>
      </trkpt>
      <trkpt lat="43.43139" lon="4.76481">
        <ele>52.134</ele>
        <time>2019-05-01T08:06:46Z</time>
      </trkpt>
      <trkpt lat="43.43169" lon="4.76533">
        <ele>53.031</ele>
        <time>2019-05-01T08:06:56Z</time>
      </trkpt>
      <trkpt lat="43.43204" lon="4.76591">
        <ele>53.421</ele>
        <time>2019-05-01T08:07:07Z</time>
      </trkpt>
      <trkpt lat="43.43237" lon="4.76648">
        <ele>53.16</ele>
        <time>2019-05-01T08:07:18Z</time>
      </trkpt>
      <trkpt lat="43.43254" lon="4.76677">
        <ele>53.005</ele>
        <time>2019-05-01T08:07:29Z</time>
      </trkpt>
      <trkpt lat="43.43254" lon="4.76677">
        <ele>52.921</ele>
        <time>2019-05-01T08:07:40Z</time>
      </trkpt>
      <trkpt lat="43.43254" lon="4.76677">
        <ele>52.84</ele>
        <time>2019-05-01T08:07:50Z</time>
      </trkpt>
      <trkpt lat="43.43254" lon="4.76677">
        <ele>52.51</ele>
        <time>2019-05-01T08:08:01Z</time>
      </trkpt>
      <trkpt lat="43.43254" lon="4.76677">
        <ele>51.719</ele>
        <time>2019-05-01T08:08:11Z</time>
      </trkpt>
      <trkpt lat="43.43254" lon="4.76677">
        <ele>51.652</ele>
        <time>2019-05-01T08:08:22Z</time>
      </trkpt>
      <trkpt lat="43.43254" lon="4.76677">
        <ele>51.596</ele>
        <time>2019-05-01T08:08:33Z</time>
      </trkpt>
      <trkpt lat="43.43254" lon="4.76677">
        <ele>51.557</ele>
        <time>2019-05-01T08:08:43Z</time>
      </trkpt>
      <trkpt lat="43.43254" lon="4.76677">
        <ele>51.521</ele>
        <time>2019-05-01T08:08:53Z</time>
      </trkpt>
      <trkpt lat="43.43254" lon="4.76677">
        <ele>51.433</ele>
        <time>2019-05-01T08:09:04Z</time>
      </trkpt>
      <trkpt lat="43.43254" lon="4.76677">
        <ele>51.384</ele>
        <time>2019-05-01T08:09:15Z</time>
      </trkpt>
      <trkpt lat="43.43254" lon="4.76677">
        <ele>51.25</ele>
        <time>2019-05-01T08:09:25Z</time>
      </trkpt>
      <trkpt lat="43.43254" lon="4.76678">
        <ele>50.919</ele>
        <time>2019-05-01T08:09:36Z</time>
      </trkpt>
      <trkpt lat="43.43254" lon="4.76678">
        <ele>50.872</ele>
        <time>2019-05-01T08:09:46Z</time>
      </trkpt>
      <trkpt lat="43.43272" lon="4.7671">
        <ele>50.287</ele>
        <time>2019-05-01T08:09:57Z</time>
      </trkpt>
      <trkpt lat="43.433" lon="4.76757">
        <ele>50.009</ele>
        <time>2019-05-01T08:10:07Z</time>
      </trkpt>
      <trkpt lat="43.43331" lon="4.7681">
        <ele>49.41</ele>
        <time>2019-05-01T08:10:18Z</time>
      </trkpt>
      <trkpt lat="43.43362" lon="4.76866">
        <ele>48.842</ele>
        <time>2019-05-01T08:10:29Z</time>
      </trkpt>
      <trkpt lat="43.4339" lon="4.76917">
        <ele>48.215</ele>
        <time>2019-05-01T08:10:39Z</time>
      </trkpt>
      <trkpt lat="43.43424" lon="4.76979">
        <ele>47.73</ele>
        <time>2019-05-01T08:10:50Z</time>
      </trkpt>
      <trkpt lat="43.43455" lon="4.77035">
        <ele>50.056</ele>
        <time>2019-05-01T08:11:00Z</time>
      </trkpt>
      <trkpt lat="43.43486" lon="4.77096">
        <ele>47.223</ele>
        <time>2019-05-01T08:11:11Z</time>
      </trkpt>
      <trkpt lat="43.43517" lon="4.77154">
        <ele>48.001</ele>
        <time>2019-05-01T08:11:21Z</time>
      </trkpt>
      <trkpt lat="43.43544" lon="4.77207">
        <ele>49.506</ele>
        <time>2019-05-01T08:11:31Z</time>
      </trkpt>
      <trkpt lat="43.43573" lon="4.77261">
        <ele>50.026</ele>
        <time>2019-05-01T08:11:41Z</time>
      </trkpt>
      <trkpt lat="43.43605" lon="4.7732">
        <ele>49.903</ele>
        <time>2019-05-01T08:11:52Z</time>
      </trkpt>
      <trkpt lat="43.43634" lon="4.77376">
        <ele>48.786</ele>
        <time>2019-05-01T08:12:02Z</time>
      </trkpt>
      <trkpt lat="43.43662" lon="4.77427">
        <ele>50.433</ele>
        <time>2019-05-01T08:12:12Z</time>
      </trkpt>
      <trkpt lat="43.43696" lon="4.77478">
        <ele>51.117</ele>
        <time>2019-05-01T08:12:23Z</time>
      </trkpt>
      <trkpt lat="43.43727" lon="4.77528">
        <ele>51.405</ele>
        <time>2019-05-01T08:12:33Z</time>
      </trkpt>
      <trkpt lat="43.4376" lon="4.77581">
        <ele>51.212</ele>
        <time>2019-05-01T08:12:44Z</time>
      </trkpt>
      <trkpt lat="43.43765" lon="4.77625">
        <ele>49.767</ele>
        <time>2019-05-01T08:12:55Z</time>
      </trkpt>
      <trkpt lat="43.4373" lon="4.77567">
        <ele>50.652</ele>
        <time>2019-05-01T08:13:05Z</time>
      </trkpt>
      <trkpt lat="43.43678" lon="4.77545">
        <ele>49.941</ele>
        <time>2019-05-01T08:13:16Z</time>
      </trkpt>
      <trkpt lat="43.4367" lon="4.77599">
        <ele>49.39</ele>
        <time>2019-05-01T08:13:26Z</time>
      </trkpt>
      <trkpt lat="43.43714" lon="4.77605">
        <ele>49.204</ele>
        <time>2019-05-01T08:13:37Z</time>
      </trkpt>
      <trkpt lat="43.43755" lon="4.77658">
        <ele>50.165</ele>
        <time>2019-05-01T08:13:48Z</time>
      </trkpt>
      <trkpt lat="43.43805" lon="4.77662">
        <ele>50.618</ele>
        <time>2019-05-01T08:13:59Z</time>
      </trkpt>
      <trkpt lat="43.43855" lon="4.77649">
        <ele>50.161</ele>
        <time>2019-05-01T08:14:10Z</time>
      </trkpt>
      <trkpt lat="43.43899" lon="4.77633">
        <ele>49.239</ele>
        <time>2019-05-01T08:14:20Z</time>
      </trkpt>
      <trkpt lat="43.43948" lon="4.77623">
        <ele>50.874</ele>
        <time>2019-05-01T08:14:31Z</time>
      </trkpt>
      <trkpt lat="43.43998" lon="4.7761">
        <ele>46.812</ele>
        <time>2019-05-01T08:14:42Z</time>
      </trkpt>
      <trkpt lat="43.44049" lon="4.77595">
        <ele>46.134</ele>
        <time>2019-05-01T08:14:53Z</time>
      </trkpt>
      <trkpt lat="43.44103" lon="4.77579">
        <ele>48.098</ele>
        <time>2019-05-01T08:15:04Z</time>
      </trkpt>
      <trkpt lat="43.44151" lon="4.77564">
        <ele>51.133</ele>
        <time>2019-05-01T08:15:14Z</time>
      </trkpt>
      <trkpt lat="43.44197" lon="4.77549">
        <ele>50.652</ele>
        <time>2019-05-01T08:15:24Z</time>
      </trkpt>
      <trkpt lat="43.44242" lon="4.77537">
        <ele>50.046</ele>
        <time>2019-05-01T08:15:34Z</time>
      </trkpt>
      <trkpt lat="43.44284" lon="4.77511">
        <ele>46.432</ele>
        <time>2019-05-01T08:15:45Z</time>
      </trkpt>
      <trkpt lat="43.44332" lon="4.77508">
        <ele>45.27</ele>
        <time>2019-05-01T08:15:56Z</time>
      </trkpt>
      <trkpt lat="43.44377" lon="4.77493">
        <ele>46.297</ele>
        <time>2019-05-01T08:16:06Z</time>
      </trkpt>
      <trkpt lat="43.44424" lon="4.77482">
        <ele>44.661</ele>
        <time>2019-05-01T08:16:17Z</time>
      </trkpt>
      <trkpt lat="43.44478" lon="4.77465">
        <ele>43.607</ele>
        <time>2019-05-01T08:16:28Z</time>
      </trkpt>
      <trkpt lat="43.44532" lon="4.7745">
        <ele>41.809</ele>
        <time>2019-05-01T08:16:39Z</time>
      </trkpt>
      <trkpt lat="43.44587" lon="4.77433">
        <ele>43.016</ele>
        <time>2019-05-01T08:16:50Z</time>
      </trkpt>
      <trkpt lat="43.44599" lon="4.77425">
        <ele>43.423</ele>
        <time>2019-05-01T08:17:01Z</time>
      </trkpt>
      <trkpt lat="43.446" lon="4.77425">
        <ele>43.448</ele>
        <time>2019-05-01T08:17:11Z</time>
      </trkpt>
      <trkpt lat="43.446" lon="4.77425">
        <ele>43.538</ele>
        <time>2019-05-01T08:17:22Z</time>
      </trkpt>
      <trkpt lat="43.44601" lon="4.77424">
        <ele>43.654</ele>
        <time>2019-05-01T08:17:33Z</time>
      </trkpt>
      <trkpt lat="43.44601" lon="4.77424">
        <ele>43.797</ele>
        <time>2019-05-01T08:17:44Z</time>
      </trkpt>
      <trkpt lat="43.44602" lon="4.77424">
        <ele>43.934</ele>
        <time>2019-05-01T08:17:54Z</time>
      </trkpt>
      <trkpt lat="43.44602" lon="4.77424">
        <ele>44.138</ele>
        <time>2019-05-01T08:18:05Z</time>
      </trkpt>
      <trkpt lat="43.44603" lon="4.77424">
        <ele>44.382</ele>
        <time>2019-05-01T08:18:16Z</time>
      </trkpt>
      <trkpt lat="43.44603" lon="4.77424">
        <ele>44.533</ele>
        <time>2019-05-01T08:18:26Z</time>
      </trkpt>
      <trkpt lat="43.44603" lon="4.77424">
        <ele>44.631</ele>
        <time>2019-05-01T08:18:37Z</time>
      </trkpt>
      <trkpt lat="43.44603" lon="4.77423">
        <ele>44.605</ele>
        <time>2019-05-01T08:18:48Z</time>
      </trkpt>
      <trkpt lat="43.44603" lon="4.77423">
        <ele>44.579</ele>
        <time>2019-05-01T08:18:59Z</time>
      </trkpt>
      <trkpt lat="43.44603" lon="4.77423">
        <ele>44.604</ele>
        <time>2019-05-01T08:19:10Z</time>
      </trkpt>
      <trkpt lat="43.44603" lon="4.77423">
        <ele>44.635</ele>
        <time>2019-05-01T08:19:21Z</time>
      </trkpt>
      <trkpt lat="43.44602" lon="4.77423">
        <ele>44.66</ele>
        <time>2019-05-01T08:19:32Z</time>
      </trkpt>
      <trkpt lat="43.44602" lon="4.77423">
        <ele>44.679</ele>
        <time>2019-05-01T08:19:43Z</time>
      </trkpt>
      <trkpt lat="43.44602" lon="4.77423">
        <ele>44.674</ele>
        <time>2019-05-01T08:19:54Z</time>
      </trkpt>
      <trkpt lat="43.44602" lon="4.77423">
        <ele>44.684</ele>
        <time>2019-05-01T08:20:05Z</time>
      </trkpt>
      <trkpt lat="43.44602" lon="4.77423">
        <ele>44.682</ele>
        <time>2019-05-01T08:20:15Z</time>
      </trkpt>
      <trkpt lat="43.44602" lon="4.77423">
        <ele>44.694</ele>
        <time>2019-05-01T08:20:26Z</time>
      </trkpt>
      <trkpt lat="43.44602" lon="4.77423">
        <ele>44.707</ele>
        <time>2019-05-01T08:20:37Z</time>
      </trkpt>
      <trkpt lat="43.44602" lon="4.77423">
        <ele>44.712</ele>
        <time>2019-05-01T08:20:48Z</time>
      </trkpt>
      <trkpt lat="43.44602" lon="4.77423">
        <ele>44.708</ele>
        <time>2019-05-01T08:20:59Z</time>
      </trkpt>
      <trkpt lat="43.44602" lon="4.77423">
        <ele>44.703</ele>
        <time>2019-05-01T08:21:09Z</time>
      </trkpt>
      <trkpt lat="43.44602" lon="4.77424">
        <ele>44.698</ele>
        <time>2019-05-01T08:21:20Z</time>
      </trkpt>
      <trkpt lat="43.44602" lon="4.77424">
        <ele>44.69</ele>
        <time>2019-05-01T08:21:31Z</time>
      </trkpt>
      <trkpt lat="43.44602" lon="4.77423">
        <ele>44.674</ele>
        <time>2019-05-01T08:21:41Z</time>
      </trkpt>
      <trkpt lat="43.44602" lon="4.77423">
        <ele>44.666</ele>
        <time>2019-05-01T08:21:52Z</time>
      </trkpt>
      <trkpt lat="43.44602" lon="4.77423">
        <ele>44.666</ele>
        <time>2019-05-01T08:22:02Z</time>
      </trkpt>
      <trkpt lat="43.44602" lon="4.77424">
        <ele>44.686</ele>
        <time>2019-05-01T08:22:13Z</time>
      </trkpt>
      <trkpt lat="43.44602" lon="4.77424">
        <ele>44.722</ele>
        <time>2019-05-01T08:22:24Z</time>
      </trkpt>
      <trkpt lat="43.44603" lon="4.77425">
        <ele>44.766</ele>
        <time>2019-05-01T08:22:35Z</time>
      </trkpt>
      <trkpt lat="43.44603" lon="4.77425">
        <ele>44.797</ele>
        <time>2019-05-01T08:22:45Z</time>
      </trkpt>
      <trkpt lat="43.44603" lon="4.77425">
        <ele>44.807</ele>
        <time>2019-05-01T08:22:55Z</time>
      </trkpt>
      <trkpt lat="43.44603" lon="4.77424">
        <ele>44.818</ele>
        <time>2019-05-01T08:23:06Z</time>
      </trkpt>
      <trkpt lat="43.44603" lon="4.77424">
        <ele>44.835</ele>
        <time>2019-05-01T08:23:17Z</time>
      </trkpt>
      <trkpt lat="43.44603" lon="4.77424">
        <ele>44.833</ele>
        <time>2019-05-01T08:23:27Z</time>
      </trkpt>
      <trkpt lat="43.44602" lon="4.77424">
        <ele>44.839</ele>
        <time>2019-05-01T08:23:37Z</time>
      </trkpt>
      <trkpt lat="43.44624" lon="4.77418">
        <ele>45.159</ele>
        <time>2019-05-01T08:23:51Z</time>
      </trkpt>
      <trkpt lat="43.44671" lon="4.77404">
        <ele>51.261</ele>
        <time>2019-05-01T08:24:02Z</time>
      </trkpt>
      <trkpt lat="43.44722" lon="4.7739">
        <ele>53.483</ele>
        <time>2019-05-01T08:24:13Z</time>
      </trkpt>
      <trkpt lat="43.4477" lon="4.77375">
        <ele>50.312</ele>
        <time>2019-05-01T08:24:23Z</time>
      </trkpt>
      <trkpt lat="43.44822" lon="4.77358">
        <ele>49.191</ele>
        <time>2019-05-01T08:24:34Z</time>
      </trkpt>
      <trkpt lat="43.44873" lon="4.77343">
        <ele>47.659</ele>
        <time>2019-05-01T08:24:45Z</time>
      </trkpt>
      <trkpt lat="43.44919" lon="4.77329">
        <ele>45.364</ele>
        <time>2019-05-01T08:24:55Z</time>
      </trkpt>
      <trkpt lat="43.44974" lon="4.77313">
        <ele>46.645</ele>
        <time>2019-05-01T08:25:06Z</time>
      </trkpt>
      <trkpt lat="43.45023" lon="4.77296">
        <ele>48.089</ele>
        <time>2019-05-01T08:25:17Z</time>
      </trkpt>
      <trkpt lat="43.45076" lon="4.77281">
        <ele>48.237</ele>
        <time>2019-05-01T08:25:28Z</time>
      </trkpt>
      <trkpt lat="43.45128" lon="4.77266">
        <ele>49.995</ele>
        <time>2019-05-01T08:25:39Z</time>
      </trkpt>
      <trkpt lat="43.45171" lon="4.77245">
        <ele>50.492</ele>
        <time>2019-05-01T08:25:49Z</time>
      </trkpt>
      <trkpt lat="43.45222" lon="4.77229">
        <ele>48.889</ele>
        <time>2019-05-01T08:26:00Z</time>
      </trkpt>
      <trkpt lat="43.4527" lon="4.77215">
        <ele>47.619</ele>
        <time>2019-05-01T08:26:11Z</time>
      </trkpt>
      <trkpt lat="43.45317" lon="4.77199">
        <ele>48.469</ele>
        <time>2019-05-01T08:26:22Z</time>
      </trkpt>
      <trkpt lat="43.45367" lon="4.77184">
        <ele>48.962</ele>
        <time>2019-05-01T08:26:33Z</time>
      </trkpt>
      <trkpt lat="43.45412" lon="4.77171">
        <ele>48.4</ele>
        <time>2019-05-01T08:26:43Z</time>
      </trkpt>
      <trkpt lat="43.45462" lon="4.77156">
        <ele>49.982</ele>
        <time>2019-05-01T08:26:54Z</time>
      </trkpt>
      <trkpt lat="43.45514" lon="4.7714">
        <ele>50.021</ele>
        <time>2019-05-01T08:27:05Z</time>
      </trkpt>
      <trkpt lat="43.45559" lon="4.77128">
        <ele>50.027</ele>
        <time>2019-05-01T08:27:15Z</time>
      </trkpt>
      <trkpt lat="43.4561" lon="4.77114">
        <ele>49.405</ele>
        <time>2019-05-01T08:27:26Z</time>
      </trkpt>
      <trkpt lat="43.45658" lon="4.771">
        <ele>48.72</ele>
        <time>2019-05-01T08:27:37Z</time>
      </trkpt>
      <trkpt lat="43.45707" lon="4.77085">
        <ele>49.012</ele>
        <time>2019-05-01T08:27:48Z</time>
      </trkpt>
      <trkpt lat="43.45751" lon="4.77071">
        <ele>48.605</ele>
        <time>2019-05-01T08:27:58Z</time>
      </trkpt>
      <trkpt lat="43.458" lon="4.77056">
        <ele>48.222</ele>
        <time>2019-05-01T08:28:09Z</time>
      </trkpt>
      <trkpt lat="43.45848" lon="4.77041">
        <ele>48.23</ele>
        <time>2019-05-01T08:28:20Z</time>
      </trkpt>
      <trkpt lat="43.45897" lon="4.77027">
        <ele>48.339</ele>
        <time>2019-05-01T08:28:31Z</time>
      </trkpt>
      <trkpt lat="43.45944" lon="4.77014">
        <ele>48.17</ele>
        <time>2019-05-01T08:28:41Z</time>
      </trkpt>
      <trkpt lat="43.45994" lon="4.77">
        <ele>48.793</ele>
        <time>2019-05-01T08:28:52Z</time>
      </trkpt>
      <trkpt lat="43.46041" lon="4.7699">
        <ele>48.974</ele>
        <time>2019-05-01T08:29:02Z</time>
      </trkpt>
      <trkpt lat="43.4609" lon="4.76979">
        <ele>48.714</ele>
        <time>2019-05-01T08:29:13Z</time>
      </trkpt>
      <trkpt lat="43.46134" lon="4.76971">
        <ele>49.003</ele>
        <time>2019-05-01T08:29:23Z</time>
      </trkpt>
      <trkpt lat="43.46181" lon="4.76963">
        <ele>49.144</ele>
        <time>2019-05-01T08:29:34Z</time>
      </trkpt>
      <trkpt lat="43.46225" lon="4.76958">
        <ele>48.97</ele>
        <time>2019-05-01T08:29:44Z</time>
      </trkpt>
      <trkpt lat="43.46269" lon="4.76953">
        <ele>48.91</ele>
        <time>2019-05-01T08:29:54Z</time>
      </trkpt>
      <trkpt lat="43.46312" lon="4.76949">
        <ele>49.315</ele>
        <time>2019-05-01T08:30:04Z</time>
      </trkpt>
      <trkpt lat="43.46356" lon="4.76945">
        <ele>48.456</ele>
        <time>2019-05-01T08:30:15Z</time>
      </trkpt>
      <trkpt lat="43.46397" lon="4.76943">
        <ele>47.813</ele>
        <time>2019-05-01T08:30:25Z</time>
      </trkpt>
      <trkpt lat="43.4644" lon="4.7694">
        <ele>47.641</ele>
        <time>2019-05-01T08:30:35Z</time>
      </trkpt>
      <trkpt lat="43.46486" lon="4.76937">
        <ele>47.125</ele>
        <time>2019-05-01T08:30:46Z</time>
      </trkpt>
      <trkpt lat="43.46529" lon="4.76935">
        <ele>46.901</ele>
        <time>2019-05-01T08:30:56Z</time>
      </trkpt>
      <trkpt lat="43.46569" lon="4.76935">
        <ele>47.712</ele>
        <time>2019-05-01T08:31:06Z</time>
      </trkpt>
      <trkpt lat="43.4661" lon="4.76936">
        <ele>47.936</ele>
        <time>2019-05-01T08:31:16Z</time>
      </trkpt>
      <trkpt lat="43.46656" lon="4.76932">
        <ele>48.672</ele>
        <time>2019-05-01T08:31:27Z</time>
      </trkpt>
      <trkpt lat="43.46701" lon="4.76929">
        <ele>48.932</ele>
        <time>2019-05-01T08:31:37Z</time>
      </trkpt>
      <trkpt lat="43.46747" lon="4.76926">
        <ele>48.506</ele>
        <time>2019-05-01T08:31:47Z</time>
      </trkpt>
      <trkpt lat="43.46798" lon="4.76922">
        <ele>47.962</ele>
        <time>2019-05-01T08:31:58Z</time>
      </trkpt>
      <trkpt lat="43.46849" lon="4.76918">
        <ele>48.246</ele>
        <time>2019-05-01T08:32:09Z</time>
      </trkpt>
      <trkpt lat="43.46896" lon="4.76915">
        <ele>48.806</ele>
        <time>2019-05-01T08:32:19Z</time>
      </trkpt>
      <trkpt lat="43.46948" lon="4.76911">
        <ele>48.023</ele>
        <time>2019-05-01T08:32:30Z</time>
      </trkpt>
      <trkpt lat="43.47" lon="4.76907">
        <ele>45.408</ele>
        <time>2019-05-01T08:32:41Z</time>
      </trkpt>
      <trkpt lat="43.47051" lon="4.76904">
        <ele>46.232</ele>
        <time>2019-05-01T08:32:52Z</time>
      </trkpt>
      <trkpt lat="43.47096" lon="4.769">
        <ele>46.509</ele>
        <time>2019-05-01T08:33:02Z</time>
      </trkpt>
      <trkpt lat="43.47144" lon="4.76898">
        <ele>45.132</ele>
        <time>2019-05-01T08:33:12Z</time>
      </trkpt>
      <trkpt lat="43.47192" lon="4.76897">
        <ele>50.644</ele>
        <time>2019-05-01T08:33:22Z</time>
      </trkpt>
      <trkpt lat="43.47253" lon="4.76891">
        <ele>45.013</ele>
        <time>2019-05-01T08:33:33Z</time>
      </trkpt>
      <trkpt lat="43.47312" lon="4.76882">
        <ele>43.293</ele>
        <time>2019-05-01T08:33:44Z</time>
      </trkpt>
      <trkpt lat="43.47361" lon="4.76878">
        <ele>46.034</ele>
        <time>2019-05-01T08:33:54Z</time>
      </trkpt>
      <trkpt lat="43.47419" lon="4.76868">
        <ele>45.667</ele>
        <time>2019-05-01T08:34:05Z</time>
      </trkpt>
      <trkpt lat="43.47472" lon="4.76857">
        <ele>46.373</ele>
        <time>2019-05-01T08:34:16Z</time>
      </trkpt>
      <trkpt lat="43.47523" lon="4.76847">
        <ele>46.728</ele>
        <time>2019-05-01T08:34:26Z</time>
      </trkpt>
      <trkpt lat="43.47578" lon="4.76836">
        <ele>46.208</ele>
        <time>2019-05-01T08:34:37Z</time>
      </trkpt>
      <trkpt lat="43.47633" lon="4.76822">
        <ele>46.161</ele>
        <time>2019-05-01T08:34:48Z</time>
      </trkpt>
      <trkpt lat="43.47678" lon="4.7681">
        <ele>44.247</ele>
        <time>2019-05-01T08:34:58Z</time>
      </trkpt>
      <trkpt lat="43.4773" lon="4.76794">
        <ele>43.347</ele>
        <time>2019-05-01T08:35:09Z</time>
      </trkpt>
      <trkpt lat="43.47785" lon="4.76776">
        <ele>46.047</ele>
        <time>2019-05-01T08:35:20Z</time>
      </trkpt>
      <trkpt lat="43.47841" lon="4.76759">
        <ele>45.584</ele>
        <time>2019-05-01T08:35:31Z</time>
      </trkpt>
      <trkpt lat="43.4789" lon="4.76746">
        <ele>44.86</ele>
        <time>2019-05-01T08:35:41Z</time>
      </trkpt>
      <trkpt lat="43.47945" lon="4.76728">
        <ele>44.206</ele>
        <time>2019-05-01T08:35:52Z</time>
      </trkpt>
      <trkpt lat="43.48001" lon="4.76712">
        <ele>43.306</ele>
        <time>2019-05-01T08:36:03Z</time>
      </trkpt>
      <trkpt lat="43.48057" lon="4.76696">
        <ele>42.651</ele>
        <time>2019-05-01T08:36:14Z</time>
      </trkpt>
      <trkpt lat="43.48115" lon="4.7668">
        <ele>45.747</ele>
        <time>2019-05-01T08:36:25Z</time>
      </trkpt>
      <trkpt lat="43.48174" lon="4.76662">
        <ele>47.603</ele>
        <time>2019-05-01T08:36:36Z</time>
      </trkpt>
      <trkpt lat="43.48227" lon="4.76645">
        <ele>46.963</ele>
        <time>2019-05-01T08:36:46Z</time>
      </trkpt>
      <trkpt lat="43.48284" lon="4.76628">
        <ele>48.096</ele>
        <time>2019-05-01T08:36:57Z</time>
      </trkpt>
      <trkpt lat="43.48337" lon="4.76611">
        <ele>50.164</ele>
        <time>2019-05-01T08:37:08Z</time>
      </trkpt>
      <trkpt lat="43.48386" lon="4.76596">
        <ele>46.426</ele>
        <time>2019-05-01T08:37:19Z</time>
      </trkpt>
      <trkpt lat="43.4844" lon="4.7658">
        <ele>45.23</ele>
        <time>2019-05-01T08:37:30Z</time>
      </trkpt>
      <trkpt lat="43.48491" lon="4.76566">
        <ele>47.307</ele>
        <time>2019-05-01T08:37:41Z</time>
      </trkpt>
      <trkpt lat="43.48544" lon="4.7655">
        <ele>47.4</ele>
        <time>2019-05-01T08:37:52Z</time>
      </trkpt>
      <trkpt lat="43.48596" lon="4.76534">
        <ele>47.864</ele>
        <time>2019-05-01T08:38:03Z</time>
      </trkpt>
      <trkpt lat="43.48646" lon="4.7652">
        <ele>48.863</ele>
        <time>2019-05-01T08:38:13Z</time>
      </trkpt>
      <trkpt lat="43.48695" lon="4.76505">
        <ele>48.321</ele>
        <time>2019-05-01T08:38:23Z</time>
      </trkpt>
      <trkpt lat="43.4875" lon="4.76487">
        <ele>46.523</ele>
        <time>2019-05-01T08:38:34Z</time>
      </trkpt>
      <trkpt lat="43.48797" lon="4.76473">
        <ele>46.222</ele>
        <time>2019-05-01T08:38:44Z</time>
      </trkpt>
      <trkpt lat="43.48845" lon="4.76458">
        <ele>46.892</ele>
        <time>2019-05-01T08:38:54Z</time>
      </trkpt>
      <trkpt lat="43.48891" lon="4.76445">
        <ele>48.455</ele>
        <time>2019-05-01T08:39:04Z</time>
      </trkpt>
      <trkpt lat="43.48944" lon="4.76429">
        <ele>47.367</ele>
        <time>2019-05-01T08:39:15Z</time>
      </trkpt>
      <trkpt lat="43.48992" lon="4.76416">
        <ele>46.549</ele>
        <time>2019-05-01T08:39:25Z</time>
      </trkpt>
      <trkpt lat="43.49043" lon="4.76402">
        <ele>46.086</ele>
        <time>2019-05-01T08:39:36Z</time>
      </trkpt>
      <trkpt lat="43.49089" lon="4.76387">
        <ele>46.965</ele>
        <time>2019-05-01T08:39:46Z</time>
      </trkpt>
      <trkpt lat="43.49135" lon="4.76373">
        <ele>46.847</ele>
        <time>2019-05-01T08:39:56Z</time>
      </trkpt>
      <trkpt lat="43.49184" lon="4.76359">
        <ele>47.704</ele>
        <time>2019-05-01T08:40:07Z</time>
      </trkpt>
      <trkpt lat="43.4923" lon="4.76344">
        <ele>48.454</ele>
        <time>2019-05-01T08:40:17Z</time>
      </trkpt>
      <trkpt lat="43.49281" lon="4.76328">
        <ele>48.262</ele>
        <time>2019-05-01T08:40:28Z</time>
      </trkpt>
      <trkpt lat="43.49328" lon="4.76314">
        <ele>47.599</ele>
        <time>2019-05-01T08:40:38Z</time>
      </trkpt>
      <trkpt lat="43.49381" lon="4.76298">
        <ele>48.098</ele>
        <time>2019-05-01T08:40:49Z</time>
      </trkpt>
      <trkpt lat="43.49433" lon="4.76283">
        <ele>46.994</ele>
        <time>2019-05-01T08:41:00Z</time>
      </trkpt>
      <trkpt lat="43.49482" lon="4.76267">
        <ele>46.994</ele>
        <time>2019-05-01T08:41:11Z</time>
      </trkpt>
      <trkpt lat="43.49524" lon="4.76255">
        <ele>47.723</ele>
        <time>2019-05-01T08:41:21Z</time>
      </trkpt>
      <trkpt lat="43.49569" lon="4.76243">
        <ele>48.19</ele>
        <time>2019-05-01T08:41:31Z</time>
      </trkpt>
      <trkpt lat="43.49619" lon="4.76227">
        <ele>47.939</ele>
        <time>2019-05-01T08:41:42Z</time>
      </trkpt>
      <trkpt lat="43.49668" lon="4.76212">
        <ele>47.925</ele>
        <time>2019-05-01T08:41:53Z</time>
      </trkpt>
      <trkpt lat="43.4971" lon="4.76198">
        <ele>47.882</ele>
        <time>2019-05-01T08:42:03Z</time>
      </trkpt>
      <trkpt lat="43.49735" lon="4.76193">
        <ele>47.669</ele>
        <time>2019-05-01T08:42:13Z</time>
      </trkpt>
      <trkpt lat="43.49735" lon="4.76193">
        <ele>47.658</ele>
        <time>2019-05-01T08:42:24Z</time>
      </trkpt>
      <trkpt lat="43.49735" lon="4.76193">
        <ele>47.689</ele>
        <time>2019-05-01T08:42:35Z</time>
      </trkpt>
      <trkpt lat="43.49736" lon="4.76192">
        <ele>47.753</ele>
        <time>2019-05-01T08:42:46Z</time>
      </trkpt>
      <trkpt lat="43.49736" lon="4.76192">
        <ele>47.803</ele>
        <time>2019-05-01T08:42:57Z</time>
      </trkpt>
      <trkpt lat="43.49736" lon="4.76193">
        <ele>47.819</ele>
        <time>2019-05-01T08:43:07Z</time>
      </trkpt>
      <trkpt lat="43.49735" lon="4.76193">
        <ele>47.865</ele>
        <time>2019-05-01T08:43:18Z</time>
      </trkpt>
      <trkpt lat="43.49759" lon="4.76184">
        <ele>48.58</ele>
        <time>2019-05-01T08:43:30Z</time>
      </trkpt>
      <trkpt lat="43.49809" lon="4.7617">
        <ele>49.939</ele>
        <time>2019-05-01T08:43:41Z</time>
      </trkpt>
      <trkpt lat="43.49857" lon="4.76155">
        <ele>49.977</ele>
        <time>2019-05-01T08:43:52Z</time>
      </trkpt>
      <trkpt lat="43.49904" lon="4.7614">
        <ele>48.92</ele>
        <time>2019-05-01T08:44:02Z</time>
      </trkpt>
      <trkpt lat="43.49953" lon="4.76127">
        <ele>50.255</ele>
        <time>2019-05-01T08:44:12Z</time>
      </trkpt>
      <trkpt lat="43.50006" lon="4.76111">
        <ele>49.83</ele>
        <time>2019-05-01T08:44:23Z</time>
      </trkpt>
      <trkpt lat="43.50059" lon="4.76094">
        <ele>47.129</ele>
        <time>2019-05-01T08:44:34Z</time>
      </trkpt>
      <trkpt lat="43.50105" lon="4.76079">
        <ele>46.765</ele>
        <time>2019-05-01T08:44:44Z</time>
      </trkpt>
      <trkpt lat="43.50158" lon="4.76062">
        <ele>45.255</ele>
        <time>2019-05-01T08:44:55Z</time>
      </trkpt>
      <trkpt lat="43.50206" lon="4.76049">
        <ele>44.34</ele>
        <time>2019-05-01T08:45:05Z</time>
      </trkpt>
      <trkpt lat="43.50258" lon="4.76033">
        <ele>44.414</ele>
        <time>2019-05-01T08:45:16Z</time>
      </trkpt>
      <trkpt lat="43.50307" lon="4.76017">
        <ele>42.123</ele>
        <time>2019-05-01T08:45:26Z</time>
      </trkpt>
      <trkpt lat="43.5036" lon="4.76002">
        <ele>42.134</ele>
        <time>2019-05-01T08:45:37Z</time>
      </trkpt>
      <trkpt lat="43.50407" lon="4.75987">
        <ele>41.194</ele>
        <time>2019-05-01T08:45:47Z</time>
      </trkpt>
      <trkpt lat="43.50459" lon="4.75975">
        <ele>41.834</ele>
        <time>2019-05-01T08:45:58Z</time>
      </trkpt>
      <trkpt lat="43.50507" lon="4.75961">
        <ele>41.521</ele>
        <time>2019-05-01T08:46:08Z</time>
      </trkpt>
      <trkpt lat="43.50558" lon="4.75945">
        <ele>41.689</ele>
        <time>2019-05-01T08:46:19Z</time>
      </trkpt>
      <trkpt lat="43.50609" lon="4.7593">
        <ele>41.257</ele>
        <time>2019-05-01T08:46:30Z</time>
      </trkpt>
      <trkpt lat="43.50656" lon="4.75916">
        <ele>41.805</ele>
        <time>2019-05-01T08:46:40Z</time>
      </trkpt>
      <trkpt lat="43.50708" lon="4.75899">
        <ele>41.885</ele>
        <time>2019-05-01T08:46:51Z</time>
      </trkpt>
      <trkpt lat="43.50759" lon="4.75884">
        <ele>41.694</ele>
        <time>2019-05-01T08:47:02Z</time>
      </trkpt>
      <trkpt lat="43.5081" lon="4.75868">
        <ele>41.896</ele>
        <time>2019-05-01T08:47:13Z</time>
      </trkpt>
      <trkpt lat="43.50859" lon="4.75854">
        <ele>42.077</ele>
        <time>2019-05-01T08:47:24Z</time>
      </trkpt>
      <trkpt lat="43.50904" lon="4.7584">
        <ele>42.711</ele>
        <time>2019-05-01T08:47:34Z</time>
      </trkpt>
      <trkpt lat="43.50954" lon="4.75826">
        <ele>43.172</ele>
        <time>2019-05-01T08:47:45Z</time>
      </trkpt>
      <trkpt lat="43.50998" lon="4.75811">
        <ele>41.754</ele>
        <time>2019-05-01T08:47:55Z</time>
      </trkpt>
      <trkpt lat="43.51049" lon="4.75796">
        <ele>42.004</ele>
        <time>2019-05-01T08:48:06Z</time>
      </trkpt>
      <trkpt lat="43.51093" lon="4.75784">
        <ele>42.701</ele>
        <time>2019-05-01T08:48:16Z</time>
      </trkpt>
      <trkpt lat="43.51141" lon="4.75769">
        <ele>42.197</ele>
        <time>2019-05-01T08:48:27Z</time>
      </trkpt>
      <trkpt lat="43.51192" lon="4.75755">
        <ele>46.253</ele>
        <time>2019-05-01T08:48:38Z</time>
      </trkpt>
      <trkpt lat="43.51236" lon="4.75742">
        <ele>46.263</ele>
        <time>2019-05-01T08:48:48Z</time>
      </trkpt>
      <trkpt lat="43.51287" lon="4.75726">
        <ele>45.56</ele>
        <time>2019-05-01T08:48:59Z</time>
      </trkpt>
      <trkpt lat="43.51338" lon="4.7571">
        <ele>43.268</ele>
        <time>2019-05-01T08:49:10Z</time>
      </trkpt>
      <trkpt lat="43.51384" lon="4.75697">
        <ele>44.56</ele>
        <time>2019-05-01T08:49:20Z</time>
      </trkpt>
      <trkpt lat="43.51428" lon="4.75684">
        <ele>44.668</ele>
        <time>2019-05-01T08:49:30Z</time>
      </trkpt>
      <trkpt lat="43.51479" lon="4.75669">
        <ele>47.409</ele>
        <time>2019-05-01T08:49:41Z</time>
      </trkpt>
      <trkpt lat="43.5153" lon="4.75654">
        <ele>47.932</ele>
        <time>2019-05-01T08:49:52Z</time>
      </trkpt>
      <trkpt lat="43.51581" lon="4.75638">
        <ele>48.145</ele>
        <time>2019-05-01T08:50:03Z</time>
      </trkpt>
      <trkpt lat="43.51635" lon="4.7562">
        <ele>46.367</ele>
        <time>2019-05-01T08:50:14Z</time>
      </trkpt>
      <trkpt lat="43.51684" lon="4.75606">
        <ele>46.061</ele>
        <time>2019-05-01T08:50:24Z</time>
      </trkpt>
      <trkpt lat="43.51738" lon="4.7559">
        <ele>45.621</ele>
        <time>2019-05-01T08:50:35Z</time>
      </trkpt>
      <trkpt lat="43.51785" lon="4.75575">
        <ele>44.423</ele>
        <time>2019-05-01T08:50:45Z</time>
      </trkpt>
      <trkpt lat="43.51838" lon="4.75559">
        <ele>43.514</ele>
        <time>2019-05-01T08:50:56Z</time>
      </trkpt>
      <trkpt lat="43.51887" lon="4.75544">
        <ele>43.408</ele>
        <time>2019-05-01T08:51:06Z</time>
      </trkpt>
      <trkpt lat="43.51939" lon="4.75528">
        <ele>43.515</ele>
        <time>2019-05-01T08:51:17Z</time>
      </trkpt>
      <trkpt lat="43.51983" lon="4.75515">
        <ele>42.981</ele>
        <time>2019-05-01T08:51:27Z</time>
      </trkpt>
      <trkpt lat="43.52024" lon="4.755">
        <ele>44.105</ele>
        <time>2019-05-01T08:51:37Z</time>
      </trkpt>
      <trkpt lat="43.52075" lon="4.75486">
        <ele>48.681</ele>
        <time>2019-05-01T08:51:48Z</time>
      </trkpt>
      <trkpt lat="43.52122" lon="4.75474">
        <ele>51.099</ele>
        <time>2019-05-01T08:51:58Z</time>
      </trkpt>
      <trkpt lat="43.52151" lon="4.75464">
        <ele>51.719</ele>
        <time>2019-05-01T08:52:09Z</time>
      </trkpt>
      <trkpt lat="43.52151" lon="4.75462">
        <ele>51.75</ele>
        <time>2019-05-01T08:52:20Z</time>
      </trkpt>
      <trkpt lat="43.52153" lon="4.75457">
        <ele>52.282</ele>
        <time>2019-05-01T08:52:30Z</time>
      </trkpt>
      <trkpt lat="43.52151" lon="4.75458">
        <ele>52.831</ele>
        <time>2019-05-01T08:52:40Z</time>
      </trkpt>
      <trkpt lat="43.52151" lon="4.75458">
        <ele>52.898</ele>
        <time>2019-05-01T08:52:52Z</time>
      </trkpt>
      <trkpt lat="43.52151" lon="4.75458">
        <ele>52.908</ele>
        <time>2019-05-01T08:53:03Z</time>
      </trkpt>
      <trkpt lat="43.52151" lon="4.75459">
        <ele>52.774</ele>
        <time>2019-05-01T08:53:13Z</time>
      </trkpt>
      <trkpt lat="43.52153" lon="4.75459">
        <ele>52.702</ele>
        <time>2019-05-01T08:53:24Z</time>
      </trkpt>
      <trkpt lat="43.52179" lon="4.75455">
        <ele>52.08</ele>
        <time>2019-05-01T08:53:35Z</time>
      </trkpt>
      <trkpt lat="43.52224" lon="4.75443">
        <ele>51.287</ele>
        <time>2019-05-01T08:53:46Z</time>
      </trkpt>
      <trkpt lat="43.52278" lon="4.75427">
        <ele>51.276</ele>
        <time>2019-05-01T08:53:57Z</time>
      </trkpt>
      <trkpt lat="43.5233" lon="4.75409">
        <ele>49.674</ele>
        <time>2019-05-01T08:54:08Z</time>
      </trkpt>
      <trkpt lat="43.52373" lon="4.75397">
        <ele>50.335</ele>
        <time>2019-05-01T08:54:18Z</time>
      </trkpt>
      <trkpt lat="43.52416" lon="4.75382">
        <ele>52.289</ele>
        <time>2019-05-01T08:54:28Z</time>
      </trkpt>
      <trkpt lat="43.52461" lon="4.75364">
        <ele>51.654</ele>
        <time>2019-05-01T08:54:38Z</time>
      </trkpt>
      <trkpt lat="43.52509" lon="4.75341">
        <ele>50.504</ele>
        <time>2019-05-01T08:54:49Z</time>
      </trkpt>
      <trkpt lat="43.52559" lon="4.75314">
        <ele>48.79</ele>
        <time>2019-05-01T08:55:00Z</time>
      </trkpt>
      <trkpt lat="43.52601" lon="4.7529">
        <ele>51.807</ele>
        <time>2019-05-01T08:55:10Z</time>
      </trkpt>
      <trkpt lat="43.52653" lon="4.75259">
        <ele>49.648</ele>
        <time>2019-05-01T08:55:21Z</time>
      </trkpt>
      <trkpt lat="43.52695" lon="4.75234">
        <ele>48.456</ele>
        <time>2019-05-01T08:55:31Z</time>
      </trkpt>
      <trkpt lat="43.52735" lon="4.75208">
        <ele>50.176</ele>
        <time>2019-05-01T08:55:41Z</time>
      </trkpt>
      <trkpt lat="43.52779" lon="4.75176">
        <ele>51.088</ele>
        <time>2019-05-01T08:55:52Z</time>
      </trkpt>
      <trkpt lat="43.52824" lon="4.75141">
        <ele>50.331</ele>
        <time>2019-05-01T08:56:03Z</time>
      </trkpt>
      <trkpt lat="43.52871" lon="4.75106">
        <ele>49.183</ele>
        <time>2019-05-01T08:56:14Z</time>
      </trkpt>
      <trkpt lat="43.52916" lon="4.7507">
        <ele>48.479</ele>
        <time>2019-05-01T08:56:25Z</time>
      </trkpt>
      <trkpt lat="43.52957" lon="4.75041">
        <ele>48.767</ele>
        <time>2019-05-01T08:56:35Z</time>
      </trkpt>
      <trkpt lat="43.53005" lon="4.75003">
        <ele>49.063</ele>
        <time>2019-05-01T08:56:46Z</time>
      </trkpt>
      <trkpt lat="43.5305" lon="4.74969">
        <ele>49.243</ele>
        <time>2019-05-01T08:56:56Z</time>
      </trkpt>
      <trkpt lat="43.53095" lon="4.74933">
        <ele>48.727</ele>
        <time>2019-05-01T08:57:06Z</time>
      </trkpt>
      <trkpt lat="43.53138" lon="4.74897">
        <ele>46.361</ele>
        <time>2019-05-01T08:57:17Z</time>
      </trkpt>
      <trkpt lat="43.53177" lon="4.74866">
        <ele>48.95</ele>
        <time>2019-05-01T08:57:27Z</time>
      </trkpt>
      <trkpt lat="43.53221" lon="4.74833">
        <ele>45.861</ele>
        <time>2019-05-01T08:57:37Z</time>
      </trkpt>
      <trkpt lat="43.53265" lon="4.74799">
        <ele>44.945</ele>
        <time>2019-05-01T08:57:47Z</time>
      </trkpt>
      <trkpt lat="43.53311" lon="4.74764">
        <ele>47.673</ele>
        <time>2019-05-01T08:57:58Z</time>
      </trkpt>
      <trkpt lat="43.53363" lon="4.74724">
        <ele>48.627</ele>
        <time>2019-05-01T08:58:09Z</time>
      </trkpt>
      <trkpt lat="43.53407" lon="4.7469">
        <ele>48.231</ele>
        <time>2019-05-01T08:58:19Z</time>
      </trkpt>
      <trkpt lat="43.5345" lon="4.74656">
        <ele>46.293</ele>
        <time>2019-05-01T08:58:29Z</time>
      </trkpt>
      <trkpt lat="43.53494" lon="4.74622">
        <ele>47.221</ele>
        <time>2019-05-01T08:58:40Z</time>
      </trkpt>
      <trkpt lat="43.53533" lon="4.74592">
        <ele>48.136</ele>
        <time>2019-05-01T08:58:50Z</time>
      </trkpt>
      <trkpt lat="43.53578" lon="4.74558">
        <ele>48.704</ele>
        <time>2019-05-01T08:59:01Z</time>
      </trkpt>
      <trkpt lat="43.53621" lon="4.74523">
        <ele>46.703</ele>
        <time>2019-05-01T08:59:11Z</time>
      </trkpt>
      <trkpt lat="43.53664" lon="4.74489">
        <ele>46.197</ele>
        <time>2019-05-01T08:59:21Z</time>
      </trkpt>
      <trkpt lat="43.53709" lon="4.74453">
        <ele>45.618</ele>
        <time>2019-05-01T08:59:32Z</time>
      </trkpt>
      <trkpt lat="43.53749" lon="4.74421">
        <ele>46.144</ele>
        <time>2019-05-01T08:59:42Z</time>
      </trkpt>
      <trkpt lat="43.53798" lon="4.74385">
        <ele>46.803</ele>
        <time>2019-05-01T08:59:53Z</time>
      </trkpt>
      <trkpt lat="43.53849" lon="4.74347">
        <ele>48.789</ele>
        <time>2019-05-01T09:00:04Z</time>
      </trkpt>
      <trkpt lat="43.53895" lon="4.74308">
        <ele>46.768</ele>
        <time>2019-05-01T09:00:14Z</time>
      </trkpt>
      <trkpt lat="43.53945" lon="4.7427">
        <ele>48.181</ele>
        <time>2019-05-01T09:00:25Z</time>
      </trkpt>
      <trkpt lat="43.53994" lon="4.74234">
        <ele>50.544</ele>
        <time>2019-05-01T09:00:36Z</time>
      </trkpt>
      <trkpt lat="43.54039" lon="4.74198">
        <ele>49.915</ele>
        <time>2019-05-01T09:00:46Z</time>
      </trkpt>
      <trkpt lat="43.5409" lon="4.74158">
        <ele>47.604</ele>
        <time>2019-05-01T09:00:57Z</time>
      </trkpt>
      <trkpt lat="43.54132" lon="4.74122">
        <ele>46.059</ele>
        <time>2019-05-01T09:01:07Z</time>
      </trkpt>
      <trkpt lat="43.54178" lon="4.74085">
        <ele>48.367</ele>
        <time>2019-05-01T09:01:18Z</time>
      </trkpt>
      <trkpt lat="43.54226" lon="4.74044">
        <ele>47.542</ele>
        <time>2019-05-01T09:01:29Z</time>
      </trkpt>
      <trkpt lat="43.5427" lon="4.74004">
        <ele>46.164</ele>
        <time>2019-05-01T09:01:39Z</time>
      </trkpt>
      <trkpt lat="43.54311" lon="4.73968">
        <ele>47.552</ele>
        <time>2019-05-01T09:01:49Z</time>
      </trkpt>
      <trkpt lat="43.54364" lon="4.7392">
        <ele>45.781</ele>
        <time>2019-05-01T09:02:00Z</time>
      </trkpt>
      <trkpt lat="43.54405" lon="4.73881">
        <ele>46.313</ele>
        <time>2019-05-01T09:02:10Z</time>
      </trkpt>
      <trkpt lat="43.5445" lon="4.73838">
        <ele>46.675</ele>
        <time>2019-05-01T09:02:20Z</time>
      </trkpt>
      <trkpt lat="43.54499" lon="4.73793">
        <ele>47.167</ele>
        <time>2019-05-01T09:02:31Z</time>
      </trkpt>
      <trkpt lat="43.54542" lon="4.73755">
        <ele>48.046</ele>
        <time>2019-05-01T09:02:41Z</time>
      </trkpt>
      <trkpt lat="43.54588" lon="4.73713">
        <ele>48.441</ele>
        <time>2019-05-01T09:02:52Z</time>
      </trkpt>
      <trkpt lat="43.54632" lon="4.73668">
        <ele>46.338</ele>
        <time>2019-05-01T09:03:02Z</time>
      </trkpt>
      <trkpt lat="43.54683" lon="4.73621">
        <ele>43.845</ele>
        <time>2019-05-01T09:03:13Z</time>
      </trkpt>
      <trkpt lat="43.54733" lon="4.73574">
        <ele>46.006</ele>
        <time>2019-05-01T09:03:24Z</time>
      </trkpt>
      <trkpt lat="43.54778" lon="4.7353">
        <ele>44.722</ele>
        <time>2019-05-01T09:03:34Z</time>
      </trkpt>
      <trkpt lat="43.54827" lon="4.73485">
        <ele>42.172</ele>
        <time>2019-05-01T09:03:45Z</time>
      </trkpt>
      <trkpt lat="43.5487" lon="4.73446">
        <ele>42.305</ele>
        <time>2019-05-01T09:03:55Z</time>
      </trkpt>
      <trkpt lat="43.54914" lon="4.73407">
        <ele>44.446</ele>
        <time>2019-05-01T09:04:05Z</time>
      </trkpt>
      <trkpt lat="43.54961" lon="4.73363">
        <ele>48.001</ele>
        <time>2019-05-01T09:04:16Z</time>
      </trkpt>
      <trkpt lat="43.55008" lon="4.73321">
        <ele>49.558</ele>
        <time>2019-05-01T09:04:27Z</time>
      </trkpt>
      <trkpt lat="43.55052" lon="4.73279">
        <ele>47.923</ele>
        <time>2019-05-01T09:04:37Z</time>
      </trkpt>
      <trkpt lat="43.55102" lon="4.73236">
        <ele>46.926</ele>
        <time>2019-05-01T09:04:48Z</time>
      </trkpt>
      <trkpt lat="43.55144" lon="4.73195">
        <ele>47.596</ele>
        <time>2019-05-01T09:04:58Z</time>
      </trkpt>
      <trkpt lat="43.5519" lon="4.73151">
        <ele>48.449</ele>
        <time>2019-05-01T09:05:09Z</time>
      </trkpt>
      <trkpt lat="43.55239" lon="4.73107">
        <ele>48.532</ele>
        <time>2019-05-01T09:05:20Z</time>
      </trkpt>
      <trkpt lat="43.55283" lon="4.73064">
        <ele>49.492</ele>
        <time>2019-05-01T09:05:30Z</time>
      </trkpt>
      <trkpt lat="43.55335" lon="4.73016">
        <ele>49.913</ele>
        <time>2019-05-01T09:05:41Z</time>
      </trkpt>
      <trkpt lat="43.55382" lon="4.72972">
        <ele>49.319</ele>
        <time>2019-05-01T09:05:51Z</time>
      </trkpt>
      <trkpt lat="43.5543" lon="4.72928">
        <ele>50.006</ele>
        <time>2019-05-01T09:06:01Z</time>
      </trkpt>
      <trkpt lat="43.5548" lon="4.7288">
        <ele>50.708</ele>
        <time>2019-05-01T09:06:12Z</time>
      </trkpt>
      <trkpt lat="43.55531" lon="4.72832">
        <ele>50.419</ele>
        <time>2019-05-01T09:06:23Z</time>
      </trkpt>
      <trkpt lat="43.55582" lon="4.72784">
        <ele>50.554</ele>
        <time>2019-05-01T09:06:34Z</time>
      </trkpt>
      <trkpt lat="43.55628" lon="4.72742">
        <ele>50.36</ele>
        <time>2019-05-01T09:06:44Z</time>
      </trkpt>
      <trkpt lat="43.55677" lon="4.72696">
        <ele>50.072</ele>
        <time>2019-05-01T09:06:55Z</time>
      </trkpt>
      <trkpt lat="43.55721" lon="4.72655">
        <ele>50.588</ele>
        <time>2019-05-01T09:07:05Z</time>
      </trkpt>
      <trkpt lat="43.55766" lon="4.72615">
        <ele>49.18</ele>
        <time>2019-05-01T09:07:16Z</time>
      </trkpt>
      <trkpt lat="43.55805" lon="4.7258">
        <ele>49.484</ele>
        <time>2019-05-01T09:07:27Z</time>
      </trkpt>
      <trkpt lat="43.55838" lon="4.72549">
        <ele>51.08</ele>
        <time>2019-05-01T09:07:37Z</time>
      </trkpt>
      <trkpt lat="43.5587" lon="4.72518">
        <ele>52.033</ele>
        <time>2019-05-01T09:07:47Z</time>
      </trkpt>
      <trkpt lat="43.55917" lon="4.72472">
        <ele>50.739</ele>
        <time>2019-05-01T09:07:58Z</time>
      </trkpt>
      <trkpt lat="43.55959" lon="4.72434">
        <ele>50.238</ele>
        <time>2019-05-01T09:08:08Z</time>
      </trkpt>
      <trkpt lat="43.56" lon="4.72395">
        <ele>49.901</ele>
        <time>2019-05-01T09:08:18Z</time>
      </trkpt>
      <trkpt lat="43.56048" lon="4.72352">
        <ele>49.397</ele>
        <time>2019-05-01T09:08:29Z</time>
      </trkpt>
      <trkpt lat="43.561" lon="4.72304">
        <ele>45.527</ele>
        <time>2019-05-01T09:08:40Z</time>
      </trkpt>
      <trkpt lat="43.56144" lon="4.72263">
        <ele>44.957</ele>
        <time>2019-05-01T09:08:50Z</time>
      </trkpt>
      <trkpt lat="43.5619" lon="4.7222">
        <ele>47.38</ele>
        <time>2019-05-01T09:09:01Z</time>
      </trkpt>
      <trkpt lat="43.56233" lon="4.7218">
        <ele>47.978</ele>
        <time>2019-05-01T09:09:12Z</time>
      </trkpt>
      <trkpt lat="43.56271" lon="4.72144">
        <ele>48.653</ele>
        <time>2019-05-01T09:09:22Z</time>
      </trkpt>
      <trkpt lat="43.56315" lon="4.72104">
        <ele>47.81</ele>
        <time>2019-05-01T09:09:33Z</time>
      </trkpt>
      <trkpt lat="43.56352" lon="4.72065">
        <ele>47.99</ele>
        <time>2019-05-01T09:09:44Z</time>
      </trkpt>
      <trkpt lat="43.56391" lon="4.72035">
        <ele>49.169</ele>
        <time>2019-05-01T09:09:55Z</time>
      </trkpt>
      <trkpt lat="43.56433" lon="4.71996">
        <ele>50.121</ele>
        <time>2019-05-01T09:10:06Z</time>
      </trkpt>
      <trkpt lat="43.56473" lon="4.71959">
        <ele>49.77</ele>
        <time>2019-05-01T09:10:16Z</time>
      </trkpt>
      <trkpt lat="43.5652" lon="4.71915">
        <ele>48.592</ele>
        <time>2019-05-01T09:10:27Z</time>
      </trkpt>
      <trkpt lat="43.56567" lon="4.71871">
        <ele>49.269</ele>
        <time>2019-05-01T09:10:38Z</time>
      </trkpt>
      <trkpt lat="43.56615" lon="4.71827">
        <ele>48.936</ele>
        <time>2019-05-01T09:10:49Z</time>
      </trkpt>
      <trkpt lat="43.56662" lon="4.71782">
        <ele>50.343</ele>
        <time>2019-05-01T09:11:00Z</time>
      </trkpt>
      <trkpt lat="43.56706" lon="4.71741">
        <ele>50.707</ele>
        <time>2019-05-01T09:11:10Z</time>
      </trkpt>
      <trkpt lat="43.56759" lon="4.7169">
        <ele>49.134</ele>
        <time>2019-05-01T09:11:21Z</time>
      </trkpt>
      <trkpt lat="43.56804" lon="4.71649">
        <ele>49.263</ele>
        <time>2019-05-01T09:11:31Z</time>
      </trkpt>
      <trkpt lat="43.56851" lon="4.71607">
        <ele>49.781</ele>
        <time>2019-05-01T09:11:42Z</time>
      </trkpt>
      <trkpt lat="43.5689" lon="4.7157">
        <ele>49.154</ele>
        <time>2019-05-01T09:11:52Z</time>
      </trkpt>
      <trkpt lat="43.56935" lon="4.71529">
        <ele>50.253</ele>
        <time>2019-05-01T09:12:03Z</time>
      </trkpt>
      <trkpt lat="43.56976" lon="4.7149">
        <ele>50.462</ele>
        <time>2019-05-01T09:12:13Z</time>
      </trkpt>
      <trkpt lat="43.57017" lon="4.71453">
        <ele>51.468</ele>
        <time>2019-05-01T09:12:23Z</time>
      </trkpt>
      <trkpt lat="43.57063" lon="4.71409">
        <ele>51.64</ele>
        <time>2019-05-01T09:12:34Z</time>
      </trkpt>
      <trkpt lat="43.57104" lon="4.71371">
        <ele>51.063</ele>
        <time>2019-05-01T09:12:44Z</time>
      </trkpt>
      <trkpt lat="43.57148" lon="4.7133">
        <ele>50.894</ele>
        <time>2019-05-01T09:12:55Z</time>
      </trkpt>
      <trkpt lat="43.5719" lon="4.71292">
        <ele>51.386</ele>
        <time>2019-05-01T09:13:05Z</time>
      </trkpt>
      <trkpt lat="43.5723" lon="4.71254">
        <ele>49.914</ele>
        <time>2019-05-01T09:13:15Z</time>
      </trkpt>
      <trkpt lat="43.57274" lon="4.71212">
        <ele>49.552</ele>
        <time>2019-05-01T09:13:26Z</time>
      </trkpt>
      <trkpt lat="43.57314" lon="4.71175">
        <ele>49.255</ele>
        <time>2019-05-01T09:13:36Z</time>
      </trkpt>
      <trkpt lat="43.57358" lon="4.71134">
        <ele>48.991</ele>
        <time>2019-05-01T09:13:47Z</time>
      </trkpt>
      <trkpt lat="43.57396" lon="4.711">
        <ele>48.897</ele>
        <time>2019-05-01T09:13:57Z</time>
      </trkpt>
      <trkpt lat="43.57437" lon="4.71061">
        <ele>49.502</ele>
        <time>2019-05-01T09:14:07Z</time>
      </trkpt>
      <trkpt lat="43.57485" lon="4.71017">
        <ele>49.145</ele>
        <time>2019-05-01T09:14:18Z</time>
      </trkpt>
      <trkpt lat="43.5753" lon="4.70975">
        <ele>48.108</ele>
        <time>2019-05-01T09:14:28Z</time>
      </trkpt>
      <trkpt lat="43.57574" lon="4.70934">
        <ele>48.165</ele>
        <time>2019-05-01T09:14:38Z</time>
      </trkpt>
      <trkpt lat="43.57622" lon="4.7089">
        <ele>48.332</ele>
        <time>2019-05-01T09:14:49Z</time>
      </trkpt>
      <trkpt lat="43.57663" lon="4.70851">
        <ele>46.898</ele>
        <time>2019-05-01T09:14:59Z</time>
      </trkpt>
      <trkpt lat="43.57707" lon="4.70811">
        <ele>47.263</ele>
        <time>2019-05-01T09:15:10Z</time>
      </trkpt>
      <trkpt lat="43.57749" lon="4.70772">
        <ele>49.048</ele>
        <time>2019-05-01T09:15:20Z</time>
      </trkpt>
      <trkpt lat="43.57792" lon="4.70731">
        <ele>49.454</ele>
        <time>2019-05-01T09:15:30Z</time>
      </trkpt>
      <trkpt lat="43.57838" lon="4.70687">
        <ele>49.517</ele>
        <time>2019-05-01T09:15:41Z</time>
      </trkpt>
      <trkpt lat="43.57884" lon="4.70645">
        <ele>49.545</ele>
        <time>2019-05-01T09:15:52Z</time>
      </trkpt>
      <trkpt lat="43.57926" lon="4.70608">
        <ele>49.816</ele>
        <time>2019-05-01T09:16:02Z</time>
      </trkpt>
      <trkpt lat="43.57972" lon="4.70565">
        <ele>49.452</ele>
        <time>2019-05-01T09:16:13Z</time>
      </trkpt>
      <trkpt lat="43.58017" lon="4.70523">
        <ele>49.403</ele>
        <time>2019-05-01T09:16:24Z</time>
      </trkpt>
      <trkpt lat="43.58059" lon="4.70485">
        <ele>50.607</ele>
        <time>2019-05-01T09:16:34Z</time>
      </trkpt>
      <trkpt lat="43.58101" lon="4.70443">
        <ele>52.115</ele>
        <time>2019-05-01T09:16:45Z</time>
      </trkpt>
      <trkpt lat="43.58138" lon="4.70398">
        <ele>51.899</ele>
        <time>2019-05-01T09:16:55Z</time>
      </trkpt>
      <trkpt lat="43.58175" lon="4.70353">
        <ele>50.859</ele>
        <time>2019-05-01T09:17:05Z</time>
      </trkpt>
      <trkpt lat="43.58212" lon="4.70294">
        <ele>49.733</ele>
        <time>2019-05-01T09:17:16Z</time>
      </trkpt>
      <trkpt lat="43.58244" lon="4.70235">
        <ele>49.121</ele>
        <time>2019-05-01T09:17:26Z</time>
      </trkpt>
      <trkpt lat="43.58275" lon="4.70162">
        <ele>48.527</ele>
        <time>2019-05-01T09:17:37Z</time>
      </trkpt>
      <trkpt lat="43.583" lon="4.70091">
        <ele>47.964</ele>
        <time>2019-05-01T09:17:47Z</time>
      </trkpt>
      <trkpt lat="43.58321" lon="4.70012">
        <ele>48.231</ele>
        <time>2019-05-01T09:17:58Z</time>
      </trkpt>
      <trkpt lat="43.58334" lon="4.69939">
        <ele>48.364</ele>
        <time>2019-05-01T09:18:08Z</time>
      </trkpt>
      <trkpt lat="43.58341" lon="4.69857">
        <ele>48.119</ele>
        <time>2019-05-01T09:18:19Z</time>
      </trkpt>
      <trkpt lat="43.58345" lon="4.69774">
        <ele>49.208</ele>
        <time>2019-05-01T09:18:30Z</time>
      </trkpt>
      <trkpt lat="43.58341" lon="4.69693">
        <ele>49.404</ele>
        <time>2019-05-01T09:18:41Z</time>
      </trkpt>
      <trkpt lat="43.58332" lon="4.69613">
        <ele>46.73</ele>
        <time>2019-05-01T09:18:52Z</time>
      </trkpt>
      <trkpt lat="43.58321" lon="4.69549">
        <ele>46.106</ele>
        <time>2019-05-01T09:19:02Z</time>
      </trkpt>
      <trkpt lat="43.5831" lon="4.69486">
        <ele>47.226</ele>
        <time>2019-05-01T09:19:12Z</time>
      </trkpt>
      <trkpt lat="43.58302" lon="4.69433">
        <ele>47.478</ele>
        <time>2019-05-01T09:19:22Z</time>
      </trkpt>
      <trkpt lat="43.58294" lon="4.69389">
        <ele>48.113</ele>
        <time>2019-05-01T09:19:33Z</time>
      </trkpt>
      <trkpt lat="43.58287" lon="4.69323">
        <ele>51.632</ele>
        <time>2019-05-01T09:19:43Z</time>
      </trkpt>
      <trkpt lat="43.58277" lon="4.69245">
        <ele>50.236</ele>
        <time>2019-05-01T09:19:54Z</time>
      </trkpt>
      <trkpt lat="43.58268" lon="4.69178">
        <ele>49.627</ele>
        <time>2019-05-01T09:20:04Z</time>
      </trkpt>
      <trkpt lat="43.58258" lon="4.69105">
        <ele>49.239</ele>
        <time>2019-05-01T09:20:15Z</time>
      </trkpt>
      <trkpt lat="43.58247" lon="4.69032">
        <ele>47.429</ele>
        <time>2019-05-01T09:20:26Z</time>
      </trkpt>
      <trkpt lat="43.58238" lon="4.68958">
        <ele>48.022</ele>
        <time>2019-05-01T09:20:37Z</time>
      </trkpt>
      <trkpt lat="43.5823" lon="4.68893">
        <ele>47.667</ele>
        <time>2019-05-01T09:20:47Z</time>
      </trkpt>
      <trkpt lat="43.58225" lon="4.6883">
        <ele>47.846</ele>
        <time>2019-05-01T09:20:57Z</time>
      </trkpt>
      <trkpt lat="43.58228" lon="4.68762">
        <ele>46.562</ele>
        <time>2019-05-01T09:21:07Z</time>
      </trkpt>
      <trkpt lat="43.58236" lon="4.68692">
        <ele>45.368</ele>
        <time>2019-05-01T09:21:18Z</time>
      </trkpt>
      <trkpt lat="43.5825" lon="4.68627">
        <ele>43.653</ele>
        <time>2019-05-01T09:21:28Z</time>
      </trkpt>
      <trkpt lat="43.58272" lon="4.68561">
        <ele>45.504</ele>
        <time>2019-05-01T09:21:39Z</time>
      </trkpt>
      <trkpt lat="43.58304" lon="4.68505">
        <ele>47.587</ele>
        <time>2019-05-01T09:21:49Z</time>
      </trkpt>
      <trkpt lat="43.5834" lon="4.68455">
        <ele>49.961</ele>
        <time>2019-05-01T09:21:59Z</time>
      </trkpt>
      <trkpt lat="43.5838" lon="4.68403">
        <ele>48.521</ele>
        <time>2019-05-01T09:22:10Z</time>
      </trkpt>
      <trkpt lat="43.58419" lon="4.68355">
        <ele>48.034</ele>
        <time>2019-05-01T09:22:21Z</time>
      </trkpt>
      <trkpt lat="43.58461" lon="4.68302">
        <ele>48.84</ele>
        <time>2019-05-01T09:22:32Z</time>
      </trkpt>
      <trkpt lat="43.58495" lon="4.68262">
        <ele>51.446</ele>
        <time>2019-05-01T09:22:42Z</time>
      </trkpt>
      <trkpt lat="43.5853" lon="4.68211">
        <ele>49.983</ele>
        <time>2019-05-01T09:22:52Z</time>
      </trkpt>
      <trkpt lat="43.58573" lon="4.68159">
        <ele>48.017</ele>
        <time>2019-05-01T09:23:03Z</time>
      </trkpt>
      <trkpt lat="43.58613" lon="4.68109">
        <ele>46.641</ele>
        <time>2019-05-01T09:23:13Z</time>
      </trkpt>
      <trkpt lat="43.58654" lon="4.68059">
        <ele>47.423</ele>
        <time>2019-05-01T09:23:24Z</time>
      </trkpt>
      <trkpt lat="43.58667" lon="4.68043">
        <ele>47.714</ele>
        <time>2019-05-01T09:23:34Z</time>
      </trkpt>
      <trkpt lat="43.5866" lon="4.6805">
        <ele>48.043</ele>
        <time>2019-05-01T09:23:45Z</time>
      </trkpt>
      <trkpt lat="43.58662" lon="4.68046">
        <ele>48.209</ele>
        <time>2019-05-01T09:23:56Z</time>
      </trkpt>
      <trkpt lat="43.58662" lon="4.68047">
        <ele>48.244</ele>
        <time>2019-05-01T09:24:07Z</time>
      </trkpt>
      <trkpt lat="43.58663" lon="4.68048">
        <ele>48.328</ele>
        <time>2019-05-01T09:24:18Z</time>
      </trkpt>
      <trkpt lat="43.58663" lon="4.68049">
        <ele>48.414</ele>
        <time>2019-05-01T09:24:28Z</time>
      </trkpt>
      <trkpt lat="43.58663" lon="4.68049">
        <ele>48.512</ele>
        <time>2019-05-01T09:24:38Z</time>
      </trkpt>
      <trkpt lat="43.58662" lon="4.68048">
        <ele>48.727</ele>
        <time>2019-05-01T09:24:48Z</time>
      </trkpt>
      <trkpt lat="43.58662" lon="4.68047">
        <ele>48.848</ele>
        <time>2019-05-01T09:24:59Z</time>
      </trkpt>
      <trkpt lat="43.58662" lon="4.68047">
        <ele>48.889</ele>
        <time>2019-05-01T09:25:10Z</time>
      </trkpt>
      <trkpt lat="43.58662" lon="4.68047">
        <ele>48.914</ele>
        <time>2019-05-01T09:25:20Z</time>
      </trkpt>
      <trkpt lat="43.58662" lon="4.68046">
        <ele>48.956</ele>
        <time>2019-05-01T09:25:30Z</time>
      </trkpt>
      <trkpt lat="43.58663" lon="4.68046">
        <ele>49.01</ele>
        <time>2019-05-01T09:25:41Z</time>
      </trkpt>
      <trkpt lat="43.58663" lon="4.68045">
        <ele>49.068</ele>
        <time>2019-05-01T09:25:52Z</time>
      </trkpt>
      <trkpt lat="43.58664" lon="4.68045">
        <ele>49.117</ele>
        <time>2019-05-01T09:26:03Z</time>
      </trkpt>
      <trkpt lat="43.58664" lon="4.68045">
        <ele>49.164</ele>
        <time>2019-05-01T09:26:14Z</time>
      </trkpt>
      <trkpt lat="43.58665" lon="4.68045">
        <ele>49.224</ele>
        <time>2019-05-01T09:26:25Z</time>
      </trkpt>
      <trkpt lat="43.58665" lon="4.68044">
        <ele>49.289</ele>
        <time>2019-05-01T09:26:35Z</time>
      </trkpt>
      <trkpt lat="43.58665" lon="4.68044">
        <ele>49.359</ele>
        <time>2019-05-01T09:26:46Z</time>
      </trkpt>
      <trkpt lat="43.58664" lon="4.68044">
        <ele>49.417</ele>
        <time>2019-05-01T09:26:57Z</time>
      </trkpt>
      <trkpt lat="43.58664" lon="4.68044">
        <ele>49.476</ele>
        <time>2019-05-01T09:27:07Z</time>
      </trkpt>
      <trkpt lat="43.58664" lon="4.68043">
        <ele>49.544</ele>
        <time>2019-05-01T09:27:18Z</time>
      </trkpt>
      <trkpt lat="43.58665" lon="4.68043">
        <ele>49.621</ele>
        <time>2019-05-01T09:27:29Z</time>
      </trkpt>
      <trkpt lat="43.58665" lon="4.68043">
        <ele>49.656</ele>
        <time>2019-05-01T09:27:39Z</time>
      </trkpt>
      <trkpt lat="43.58665" lon="4.68043">
        <ele>49.663</ele>
        <time>2019-05-01T09:27:50Z</time>
      </trkpt>
      <trkpt lat="43.58665" lon="4.68042">
        <ele>49.674</ele>
        <time>2019-05-01T09:28:01Z</time>
      </trkpt>
      <trkpt lat="43.58666" lon="4.68042">
        <ele>49.687</ele>
        <time>2019-05-01T09:28:12Z</time>
      </trkpt>
      <trkpt lat="43.58666" lon="4.68042">
        <ele>49.703</ele>
        <time>2019-05-01T09:28:23Z</time>
      </trkpt>
      <trkpt lat="43.58666" lon="4.68042">
        <ele>49.718</ele>
        <time>2019-05-01T09:28:34Z</time>
      </trkpt>
      <trkpt lat="43.58666" lon="4.68042">
        <ele>49.726</ele>
        <time>2019-05-01T09:28:45Z</time>
      </trkpt>
      <trkpt lat="43.58666" lon="4.68042">
        <ele>49.73</ele>
        <time>2019-05-01T09:28:56Z</time>
      </trkpt>
      <trkpt lat="43.58666" lon="4.68041">
        <ele>49.738</ele>
        <time>2019-05-01T09:29:07Z</time>
      </trkpt>
      <trkpt lat="43.58666" lon="4.68041">
        <ele>49.745</ele>
        <time>2019-05-01T09:29:18Z</time>
      </trkpt>
      <trkpt lat="43.58666" lon="4.68041">
        <ele>49.749</ele>
        <time>2019-05-01T09:29:29Z</time>
      </trkpt>
      <trkpt lat="43.58666" lon="4.68041">
        <ele>49.764</ele>
        <time>2019-05-01T09:29:40Z</time>
      </trkpt>
      <trkpt lat="43.58667" lon="4.6804">
        <ele>49.776</ele>
        <time>2019-05-01T09:29:50Z</time>
      </trkpt>
      <trkpt lat="43.58667" lon="4.68041">
        <ele>49.779</ele>
        <time>2019-05-01T09:30:01Z</time>
      </trkpt>
      <trkpt lat="43.58666" lon="4.68041">
        <ele>49.778</ele>
        <time>2019-05-01T09:30:12Z</time>
      </trkpt>
      <trkpt lat="43.58666" lon="4.68041">
        <ele>49.774</ele>
        <time>2019-05-01T09:30:23Z</time>
      </trkpt>
      <trkpt lat="43.58666" lon="4.68041">
        <ele>49.78</ele>
        <time>2019-05-01T09:30:33Z</time>
      </trkpt>
      <trkpt lat="43.58666" lon="4.68044">
        <ele>49.932</ele>
        <time>2019-05-01T09:30:44Z</time>
      </trkpt>
      <trkpt lat="43.58663" lon="4.68046">
        <ele>50.349</ele>
        <time>2019-05-01T09:30:54Z</time>
      </trkpt>
      <trkpt lat="43.58663" lon="4.68047">
        <ele>50.378</ele>
        <time>2019-05-01T09:31:05Z</time>
      </trkpt>
      <trkpt lat="43.58664" lon="4.68047">
        <ele>50.341</ele>
        <time>2019-05-01T09:31:15Z</time>
      </trkpt>
      <trkpt lat="43.58663" lon="4.68047">
        <ele>50.348</ele>
        <time>2019-05-01T09:31:25Z</time>
      </trkpt>
      <trkpt lat="43.58663" lon="4.68047">
        <ele>50.356</ele>
        <time>2019-05-01T09:31:36Z</time>
      </trkpt>
      <trkpt lat="43.58663" lon="4.68048">
        <ele>50.319</ele>
        <time>2019-05-01T09:31:47Z</time>
      </trkpt>
      <trkpt lat="43.58662" lon="4.68048">
        <ele>50.094</ele>
        <time>2019-05-01T09:31:57Z</time>
      </trkpt>
      <trkpt lat="43.58665" lon="4.68047">
        <ele>50.236</ele>
        <time>2019-05-01T09:32:08Z</time>
      </trkpt>
      <trkpt lat="43.58665" lon="4.68043">
        <ele>50.104</ele>
        <time>2019-05-01T09:32:18Z</time>
      </trkpt>
      <trkpt lat="43.58665" lon="4.68043">
        <ele>50.125</ele>
        <time>2019-05-01T09:32:28Z</time>
      </trkpt>
      <trkpt lat="43.58672" lon="4.68036">
        <ele>49.569</ele>
        <time>2019-05-01T09:32:39Z</time>
      </trkpt>
      <trkpt lat="43.5867" lon="4.68036">
        <ele>49.578</ele>
        <time>2019-05-01T09:32:49Z</time>
      </trkpt>
      <trkpt lat="43.58671" lon="4.68036">
        <ele>49.684</ele>
        <time>2019-05-01T09:33:00Z</time>
      </trkpt>
      <trkpt lat="43.58686" lon="4.68014">
        <ele>50.6</ele>
        <time>2019-05-01T09:33:11Z</time>
      </trkpt>
      <trkpt lat="43.58718" lon="4.67977">
        <ele>49.566</ele>
        <time>2019-05-01T09:33:21Z</time>
      </trkpt>
      <trkpt lat="43.58752" lon="4.67932">
        <ele>49.347</ele>
        <time>2019-05-01T09:33:32Z</time>
      </trkpt>
      <trkpt lat="43.58791" lon="4.67884">
        <ele>49.741</ele>
        <time>2019-05-01T09:33:43Z</time>
      </trkpt>
      <trkpt lat="43.58826" lon="4.6784">
        <ele>49.506</ele>
        <time>2019-05-01T09:33:53Z</time>
      </trkpt>
      <trkpt lat="43.58863" lon="4.67792">
        <ele>49.226</ele>
        <time>2019-05-01T09:34:04Z</time>
      </trkpt>
      <trkpt lat="43.58895" lon="4.67747">
        <ele>48.009</ele>
        <time>2019-05-01T09:34:14Z</time>
      </trkpt>
      <trkpt lat="43.58929" lon="4.67709">
        <ele>49.232</ele>
        <time>2019-05-01T09:34:24Z</time>
      </trkpt>
      <trkpt lat="43.5896" lon="4.67665">
        <ele>48.971</ele>
        <time>2019-05-01T09:34:34Z</time>
      </trkpt>
      <trkpt lat="43.59001" lon="4.67616">
        <ele>48.921</ele>
        <time>2019-05-01T09:34:45Z</time>
      </trkpt>
      <trkpt lat="43.59034" lon="4.67571">
        <ele>49.13</ele>
        <time>2019-05-01T09:34:55Z</time>
      </trkpt>
      <trkpt lat="43.59064" lon="4.6752">
        <ele>49.239</ele>
        <time>2019-05-01T09:35:06Z</time>
      </trkpt>
      <trkpt lat="43.5909" lon="4.67464">
        <ele>49.108</ele>
        <time>2019-05-01T09:35:16Z</time>
      </trkpt>
      <trkpt lat="43.59112" lon="4.6741">
        <ele>46.535</ele>
        <time>2019-05-01T09:35:26Z</time>
      </trkpt>
      <trkpt lat="43.59138" lon="4.67344">
        <ele>46.997</ele>
        <time>2019-05-01T09:35:37Z</time>
      </trkpt>
      <trkpt lat="43.59162" lon="4.67285">
        <ele>46.797</ele>
        <time>2019-05-01T09:35:47Z</time>
      </trkpt>
      <trkpt lat="43.59185" lon="4.67223">
        <ele>47.499</ele>
        <time>2019-05-01T09:35:57Z</time>
      </trkpt>
      <trkpt lat="43.59209" lon="4.67162">
        <ele>47.019</ele>
        <time>2019-05-01T09:36:07Z</time>
      </trkpt>
      <trkpt lat="43.59232" lon="4.67103">
        <ele>45.733</ele>
        <time>2019-05-01T09:36:18Z</time>
      </trkpt>
      <trkpt lat="43.59253" lon="4.67054">
        <ele>47.953</ele>
        <time>2019-05-01T09:36:28Z</time>
      </trkpt>
      <trkpt lat="43.5928" lon="4.66987">
        <ele>47.517</ele>
        <time>2019-05-01T09:36:39Z</time>
      </trkpt>
      <trkpt lat="43.59306" lon="4.66922">
        <ele>46.973</ele>
        <time>2019-05-01T09:36:50Z</time>
      </trkpt>
      <trkpt lat="43.59333" lon="4.66852">
        <ele>48.773</ele>
        <time>2019-05-01T09:37:01Z</time>
      </trkpt>
      <trkpt lat="43.59357" lon="4.66793">
        <ele>50.686</ele>
        <time>2019-05-01T09:37:11Z</time>
      </trkpt>
      <trkpt lat="43.5938" lon="4.66736">
        <ele>47.156</ele>
        <time>2019-05-01T09:37:21Z</time>
      </trkpt>
      <trkpt lat="43.59408" lon="4.66677">
        <ele>47.03</ele>
        <time>2019-05-01T09:37:32Z</time>
      </trkpt>
      <trkpt lat="43.59438" lon="4.66627">
        <ele>47.75</ele>
        <time>2019-05-01T09:37:42Z</time>
      </trkpt>
      <trkpt lat="43.59471" lon="4.66577">
        <ele>48.277</ele>
        <time>2019-05-01T09:37:53Z</time>
      </trkpt>
      <trkpt lat="43.59505" lon="4.66531">
        <ele>49.453</ele>
        <time>2019-05-01T09:38:04Z</time>
      </trkpt>
      <trkpt lat="43.59539" lon="4.66489">
        <ele>50.106</ele>
        <time>2019-05-01T09:38:14Z</time>
      </trkpt>
      <trkpt lat="43.59579" lon="4.66444">
        <ele>50.919</ele>
        <time>2019-05-01T09:38:25Z</time>
      </trkpt>
      <trkpt lat="43.59623" lon="4.66404">
        <ele>52.892</ele>
        <time>2019-05-01T09:38:36Z</time>
      </trkpt>
      <trkpt lat="43.59663" lon="4.66375">
        <ele>52.773</ele>
        <time>2019-05-01T09:38:46Z</time>
      </trkpt>
      <trkpt lat="43.59708" lon="4.66345">
        <ele>51.921</ele>
        <time>2019-05-01T09:38:57Z</time>
      </trkpt>
      <trkpt lat="43.59751" lon="4.6632">
        <ele>52.234</ele>
        <time>2019-05-01T09:39:07Z</time>
      </trkpt>
      <trkpt lat="43.59794" lon="4.66295">
        <ele>52.644</ele>
        <time>2019-05-01T09:39:17Z</time>
      </trkpt>
      <trkpt lat="43.59837" lon="4.6627">
        <ele>51.978</ele>
        <time>2019-05-01T09:39:27Z</time>
      </trkpt>
      <trkpt lat="43.59884" lon="4.66246">
        <ele>52.766</ele>
        <time>2019-05-01T09:39:38Z</time>
      </trkpt>
      <trkpt lat="43.59933" lon="4.66215">
        <ele>52.17</ele>
        <time>2019-05-01T09:39:49Z</time>
      </trkpt>
      <trkpt lat="43.59977" lon="4.66192">
        <ele>54.191</ele>
        <time>2019-05-01T09:39:59Z</time>
      </trkpt>
      <trkpt lat="43.60022" lon="4.66171">
        <ele>51.426</ele>
        <time>2019-05-01T09:40:09Z</time>
      </trkpt>
      <trkpt lat="43.60068" lon="4.66154">
        <ele>51.44</ele>
        <time>2019-05-01T09:40:19Z</time>
      </trkpt>
      <trkpt lat="43.60116" lon="4.6614">
        <ele>53.745</ele>
        <time>2019-05-01T09:40:30Z</time>
      </trkpt>
      <trkpt lat="43.60164" lon="4.66132">
        <ele>54.628</ele>
        <time>2019-05-01T09:40:41Z</time>
      </trkpt>
      <trkpt lat="43.60211" lon="4.66125">
        <ele>53.688</ele>
        <time>2019-05-01T09:40:51Z</time>
      </trkpt>
      <trkpt lat="43.60261" lon="4.66121">
        <ele>52.318</ele>
        <time>2019-05-01T09:41:01Z</time>
      </trkpt>
      <trkpt lat="43.60315" lon="4.66124">
        <ele>51.57</ele>
        <time>2019-05-01T09:41:12Z</time>
      </trkpt>
      <trkpt lat="43.6037" lon="4.66129">
        <ele>49.351</ele>
        <time>2019-05-01T09:41:23Z</time>
      </trkpt>
      <trkpt lat="43.60422" lon="4.66141">
        <ele>49.452</ele>
        <time>2019-05-01T09:41:34Z</time>
      </trkpt>
      <trkpt lat="43.60477" lon="4.66153">
        <ele>50.01</ele>
        <time>2019-05-01T09:41:45Z</time>
      </trkpt>
      <trkpt lat="43.60529" lon="4.66165">
        <ele>51.083</ele>
        <time>2019-05-01T09:41:55Z</time>
      </trkpt>
      <trkpt lat="43.60579" lon="4.66178">
        <ele>51.694</ele>
        <time>2019-05-01T09:42:05Z</time>
      </trkpt>
      <trkpt lat="43.60629" lon="4.6619">
        <ele>50.532</ele>
        <time>2019-05-01T09:42:15Z</time>
      </trkpt>
      <trkpt lat="43.60681" lon="4.662">
        <ele>48.888</ele>
        <time>2019-05-01T09:42:26Z</time>
      </trkpt>
      <trkpt lat="43.60735" lon="4.66207">
        <ele>50.031</ele>
        <time>2019-05-01T09:42:37Z</time>
      </trkpt>
      <trkpt lat="43.60785" lon="4.66213">
        <ele>48.978</ele>
        <time>2019-05-01T09:42:47Z</time>
      </trkpt>
      <trkpt lat="43.60836" lon="4.66219">
        <ele>48.119</ele>
        <time>2019-05-01T09:42:58Z</time>
      </trkpt>
      <trkpt lat="43.60881" lon="4.66224">
        <ele>49.318</ele>
        <time>2019-05-01T09:43:08Z</time>
      </trkpt>
      <trkpt lat="43.60932" lon="4.66235">
        <ele>50.528</ele>
        <time>2019-05-01T09:43:19Z</time>
      </trkpt>
      <trkpt lat="43.60979" lon="4.66242">
        <ele>50.982</ele>
        <time>2019-05-01T09:43:29Z</time>
      </trkpt>
      <trkpt lat="43.61032" lon="4.66246">
        <ele>49.168</ele>
        <time>2019-05-01T09:43:40Z</time>
      </trkpt>
      <trkpt lat="43.61085" lon="4.66255">
        <ele>49.252</ele>
        <time>2019-05-01T09:43:51Z</time>
      </trkpt>
      <trkpt lat="43.61133" lon="4.66266">
        <ele>50.701</ele>
        <time>2019-05-01T09:44:02Z</time>
      </trkpt>
      <trkpt lat="43.61181" lon="4.66273">
        <ele>49.228</ele>
        <time>2019-05-01T09:44:12Z</time>
      </trkpt>
      <trkpt lat="43.61236" lon="4.6628">
        <ele>50.836</ele>
        <time>2019-05-01T09:44:23Z</time>
      </trkpt>
      <trkpt lat="43.61289" lon="4.66288">
        <ele>50.708</ele>
        <time>2019-05-01T09:44:34Z</time>
      </trkpt>
      <trkpt lat="43.61337" lon="4.66296">
        <ele>49.963</ele>
        <time>2019-05-01T09:44:44Z</time>
      </trkpt>
      <trkpt lat="43.61391" lon="4.66303">
        <ele>50.276</ele>
        <time>2019-05-01T09:44:55Z</time>
      </trkpt>
      <trkpt lat="43.61439" lon="4.66311">
        <ele>50.555</ele>
        <time>2019-05-01T09:45:05Z</time>
      </trkpt>
      <trkpt lat="43.61492" lon="4.6632">
        <ele>49.9</ele>
        <time>2019-05-01T09:45:16Z</time>
      </trkpt>
      <trkpt lat="43.61545" lon="4.66328">
        <ele>49.702</ele>
        <time>2019-05-01T09:45:27Z</time>
      </trkpt>
      <trkpt lat="43.61597" lon="4.66335">
        <ele>49.08</ele>
        <time>2019-05-01T09:45:38Z</time>
      </trkpt>
      <trkpt lat="43.61645" lon="4.66343">
        <ele>48.408</ele>
        <time>2019-05-01T09:45:48Z</time>
      </trkpt>
      <trkpt lat="43.61694" lon="4.66345">
        <ele>48.771</ele>
        <time>2019-05-01T09:45:59Z</time>
      </trkpt>
      <trkpt lat="43.61725" lon="4.66355">
        <ele>49.122</ele>
        <time>2019-05-01T09:46:09Z</time>
      </trkpt>
      <trkpt lat="43.61773" lon="4.66364">
        <ele>49.261</ele>
        <time>2019-05-01T09:46:20Z</time>
      </trkpt>
      <trkpt lat="43.61824" lon="4.66372">
        <ele>49.534</ele>
        <time>2019-05-01T09:46:31Z</time>
      </trkpt>
      <trkpt lat="43.61877" lon="4.66379">
        <ele>49.237</ele>
        <time>2019-05-01T09:46:42Z</time>
      </trkpt>
      <trkpt lat="43.61929" lon="4.66389">
        <ele>48.858</ele>
        <time>2019-05-01T09:46:53Z</time>
      </trkpt>
      <trkpt lat="43.61976" lon="4.66397">
        <ele>48.091</ele>
        <time>2019-05-01T09:47:03Z</time>
      </trkpt>
      <trkpt lat="43.62024" lon="4.66403">
        <ele>47.767</ele>
        <time>2019-05-01T09:47:13Z</time>
      </trkpt>
      <trkpt lat="43.62076" lon="4.66411">
        <ele>47.881</ele>
        <time>2019-05-01T09:47:24Z</time>
      </trkpt>
      <trkpt lat="43.62129" lon="4.66418">
        <ele>48.497</ele>
        <time>2019-05-01T09:47:35Z</time>
      </trkpt>
      <trkpt lat="43.62177" lon="4.66426">
        <ele>48.123</ele>
        <time>2019-05-01T09:47:45Z</time>
      </trkpt>
      <trkpt lat="43.62225" lon="4.66434">
        <ele>48.31</ele>
        <time>2019-05-01T09:47:55Z</time>
      </trkpt>
      <trkpt lat="43.62277" lon="4.66442">
        <ele>48.885</ele>
        <time>2019-05-01T09:48:06Z</time>
      </trkpt>
      <trkpt lat="43.62324" lon="4.66447">
        <ele>49.625</ele>
        <time>2019-05-01T09:48:16Z</time>
      </trkpt>
      <trkpt lat="43.6237" lon="4.66454">
        <ele>50.698</ele>
        <time>2019-05-01T09:48:26Z</time>
      </trkpt>
      <trkpt lat="43.62422" lon="4.66462">
        <ele>50.515</ele>
        <time>2019-05-01T09:48:37Z</time>
      </trkpt>
      <trkpt lat="43.62468" lon="4.66469">
        <ele>49.986</ele>
        <time>2019-05-01T09:48:47Z</time>
      </trkpt>
      <trkpt lat="43.62515" lon="4.66476">
        <ele>50.12</ele>
        <time>2019-05-01T09:48:57Z</time>
      </trkpt>
      <trkpt lat="43.62559" lon="4.66485">
        <ele>50.495</ele>
        <time>2019-05-01T09:49:07Z</time>
      </trkpt>
      <trkpt lat="43.6261" lon="4.66492">
        <ele>50.831</ele>
        <time>2019-05-01T09:49:18Z</time>
      </trkpt>
      <trkpt lat="43.62657" lon="4.66499">
        <ele>50.149</ele>
        <time>2019-05-01T09:49:28Z</time>
      </trkpt>
      <trkpt lat="43.62708" lon="4.66508">
        <ele>49.6</ele>
        <time>2019-05-01T09:49:39Z</time>
      </trkpt>
      <trkpt lat="43.62759" lon="4.66515">
        <ele>49.687</ele>
        <time>2019-05-01T09:49:50Z</time>
      </trkpt>
      <trkpt lat="43.62807" lon="4.66523">
        <ele>50.106</ele>
        <time>2019-05-01T09:50:00Z</time>
      </trkpt>
      <trkpt lat="43.62853" lon="4.66531">
        <ele>50.29</ele>
        <time>2019-05-01T09:50:10Z</time>
      </trkpt>
      <trkpt lat="43.629" lon="4.66537">
        <ele>50.252</ele>
        <time>2019-05-01T09:50:20Z</time>
      </trkpt>
      <trkpt lat="43.62952" lon="4.66539">
        <ele>50.261</ele>
        <time>2019-05-01T09:50:31Z</time>
      </trkpt>
      <trkpt lat="43.62999" lon="4.66535">
        <ele>51.328</ele>
        <time>2019-05-01T09:50:41Z</time>
      </trkpt>
      <trkpt lat="43.63048" lon="4.66525">
        <ele>53.505</ele>
        <time>2019-05-01T09:50:52Z</time>
      </trkpt>
      <trkpt lat="43.63094" lon="4.66509">
        <ele>54.463</ele>
        <time>2019-05-01T09:51:02Z</time>
      </trkpt>
      <trkpt lat="43.63141" lon="4.66487">
        <ele>52.928</ele>
        <time>2019-05-01T09:51:13Z</time>
      </trkpt>
      <trkpt lat="43.63184" lon="4.66459">
        <ele>50.815</ele>
        <time>2019-05-01T09:51:24Z</time>
      </trkpt>
      <trkpt lat="43.63197" lon="4.6645">
        <ele>50.697</ele>
        <time>2019-05-01T09:51:35Z</time>
      </trkpt>
      <trkpt lat="43.63199" lon="4.66449">
        <ele>50.738</ele>
        <time>2019-05-01T09:51:46Z</time>
      </trkpt>
      <trkpt lat="43.63199" lon="4.66449">
        <ele>50.788</ele>
        <time>2019-05-01T09:51:56Z</time>
      </trkpt>
      <trkpt lat="43.63197" lon="4.66448">
        <ele>50.803</ele>
        <time>2019-05-01T09:52:06Z</time>
      </trkpt>
      <trkpt lat="43.63197" lon="4.66448">
        <ele>50.778</ele>
        <time>2019-05-01T09:52:17Z</time>
      </trkpt>
      <trkpt lat="43.63201" lon="4.66446">
        <ele>50.751</ele>
        <time>2019-05-01T09:52:27Z</time>
      </trkpt>
      <trkpt lat="43.63201" lon="4.66446">
        <ele>50.712</ele>
        <time>2019-05-01T09:52:38Z</time>
      </trkpt>
      <trkpt lat="43.63199" lon="4.66447">
        <ele>50.672</ele>
        <time>2019-05-01T09:52:49Z</time>
      </trkpt>
      <trkpt lat="43.63199" lon="4.6645">
        <ele>50.443</ele>
        <time>2019-05-01T09:53:00Z</time>
      </trkpt>
      <trkpt lat="43.63199" lon="4.6645">
        <ele>50.452</ele>
        <time>2019-05-01T09:53:11Z</time>
      </trkpt>
      <trkpt lat="43.63216" lon="4.66441">
        <ele>50.922</ele>
        <time>2019-05-01T09:53:21Z</time>
      </trkpt>
      <trkpt lat="43.63252" lon="4.66406">
        <ele>52.417</ele>
        <time>2019-05-01T09:53:31Z</time>
      </trkpt>
      <trkpt lat="43.63288" lon="4.66365">
        <ele>50.311</ele>
        <time>2019-05-01T09:53:41Z</time>
      </trkpt>
      <trkpt lat="43.63321" lon="4.66323">
        <ele>48.347</ele>
        <time>2019-05-01T09:53:51Z</time>
      </trkpt>
      <trkpt lat="43.63353" lon="4.66274">
        <ele>48.1</ele>
        <time>2019-05-01T09:54:02Z</time>
      </trkpt>
      <trkpt lat="43.63384" lon="4.66223">
        <ele>47.555</ele>
        <time>2019-05-01T09:54:13Z</time>
      </trkpt>
      <trkpt lat="43.63415" lon="4.66171">
        <ele>47.812</ele>
        <time>2019-05-01T09:54:24Z</time>
      </trkpt>
      <trkpt lat="43.63428" lon="4.66147">
        <ele>48.056</ele>
        <time>2019-05-01T09:54:34Z</time>
      </trkpt>
      <trkpt lat="43.63427" lon="4.66147">
        <ele>48.343</ele>
        <time>2019-05-01T09:54:45Z</time>
      </trkpt>
      <trkpt lat="43.63427" lon="4.66148">
        <ele>48.993</ele>
        <time>2019-05-01T09:54:56Z</time>
      </trkpt>
      <trkpt lat="43.63427" lon="4.66145">
        <ele>51.029</ele>
        <time>2019-05-01T09:55:06Z</time>
      </trkpt>
      <trkpt lat="43.63429" lon="4.66145">
        <ele>51.697</ele>
        <time>2019-05-01T09:55:17Z</time>
      </trkpt>
      <trkpt lat="43.6345" lon="4.66106">
        <ele>51.107</ele>
        <time>2019-05-01T09:55:27Z</time>
      </trkpt>
      <trkpt lat="43.6348" lon="4.66054">
        <ele>50.483</ele>
        <time>2019-05-01T09:55:38Z</time>
      </trkpt>
      <trkpt lat="43.63508" lon="4.66007">
        <ele>52.115</ele>
        <time>2019-05-01T09:55:49Z</time>
      </trkpt>
      <trkpt lat="43.63537" lon="4.6596">
        <ele>51.056</ele>
        <time>2019-05-01T09:56:00Z</time>
      </trkpt>
      <trkpt lat="43.6357" lon="4.65905">
        <ele>52.326</ele>
        <time>2019-05-01T09:56:11Z</time>
      </trkpt>
      <trkpt lat="43.63602" lon="4.65853">
        <ele>53.026</ele>
        <time>2019-05-01T09:56:21Z</time>
      </trkpt>
      <trkpt lat="43.63633" lon="4.65799">
        <ele>52.333</ele>
        <time>2019-05-01T09:56:31Z</time>
      </trkpt>
      <trkpt lat="43.63665" lon="4.65745">
        <ele>51.703</ele>
        <time>2019-05-01T09:56:42Z</time>
      </trkpt>
      <trkpt lat="43.63693" lon="4.65696">
        <ele>52.183</ele>
        <time>2019-05-01T09:56:52Z</time>
      </trkpt>
      <trkpt lat="43.63723" lon="4.65647">
        <ele>51.713</ele>
        <time>2019-05-01T09:57:02Z</time>
      </trkpt>
      <trkpt lat="43.63753" lon="4.65596">
        <ele>50.531</ele>
        <time>2019-05-01T09:57:12Z</time>
      </trkpt>
      <trkpt lat="43.63785" lon="4.65542">
        <ele>50.504</ele>
        <time>2019-05-01T09:57:23Z</time>
      </trkpt>
      <trkpt lat="43.63815" lon="4.65489">
        <ele>50.225</ele>
        <time>2019-05-01T09:57:34Z</time>
      </trkpt>
      <trkpt lat="43.63843" lon="4.65441">
        <ele>49.264</ele>
        <time>2019-05-01T09:57:44Z</time>
      </trkpt>
      <trkpt lat="43.63876" lon="4.65385">
        <ele>49.159</ele>
        <time>2019-05-01T09:57:55Z</time>
      </trkpt>
      <trkpt lat="43.63908" lon="4.65333">
        <ele>48.252</ele>
        <time>2019-05-01T09:58:05Z</time>
      </trkpt>
      <trkpt lat="43.63938" lon="4.65278">
        <ele>47.798</ele>
        <time>2019-05-01T09:58:15Z</time>
      </trkpt>
      <trkpt lat="43.63966" lon="4.65222">
        <ele>49.331</ele>
        <time>2019-05-01T09:58:25Z</time>
      </trkpt>
      <trkpt lat="43.63994" lon="4.65161">
        <ele>49.953</ele>
        <time>2019-05-01T09:58:36Z</time>
      </trkpt>
      <trkpt lat="43.6402" lon="4.65099">
        <ele>48.014</ele>
        <time>2019-05-01T09:58:47Z</time>
      </trkpt>
      <trkpt lat="43.64045" lon="4.65033">
        <ele>48.012</ele>
        <time>2019-05-01T09:58:58Z</time>
      </trkpt>
      <trkpt lat="43.64068" lon="4.64964">
        <ele>48.367</ele>
        <time>2019-05-01T09:59:09Z</time>
      </trkpt>
      <trkpt lat="43.64087" lon="4.64901">
        <ele>48.313</ele>
        <time>2019-05-01T09:59:19Z</time>
      </trkpt>
      <trkpt lat="43.64107" lon="4.6483">
        <ele>47.858</ele>
        <time>2019-05-01T09:59:30Z</time>
      </trkpt>
      <trkpt lat="43.64122" lon="4.64756">
        <ele>50.181</ele>
        <time>2019-05-01T09:59:41Z</time>
      </trkpt>
      <trkpt lat="43.64136" lon="4.64682">
        <ele>50.193</ele>
        <time>2019-05-01T09:59:52Z</time>
      </trkpt>
      <trkpt lat="43.64146" lon="4.64616">
        <ele>51.22</ele>
        <time>2019-05-01T10:00:02Z</time>
      </trkpt>
      <trkpt lat="43.64154" lon="4.64548">
        <ele>52.222</ele>
        <time>2019-05-01T10:00:12Z</time>
      </trkpt>
      <trkpt lat="43.6416" lon="4.64475">
        <ele>52.996</ele>
        <time>2019-05-01T10:00:23Z</time>
      </trkpt>
      <trkpt lat="43.64166" lon="4.64397">
        <ele>53.147</ele>
        <time>2019-05-01T10:00:34Z</time>
      </trkpt>
      <trkpt lat="43.64174" lon="4.64315">
        <ele>53.816</ele>
        <time>2019-05-01T10:00:45Z</time>
      </trkpt>
      <trkpt lat="43.64179" lon="4.64245">
        <ele>53.152</ele>
        <time>2019-05-01T10:00:55Z</time>
      </trkpt>
      <trkpt lat="43.64182" lon="4.64176">
        <ele>50.682</ele>
        <time>2019-05-01T10:01:05Z</time>
      </trkpt>
      <trkpt lat="43.64193" lon="4.64099">
        <ele>53.296</ele>
        <time>2019-05-01T10:01:16Z</time>
      </trkpt>
      <trkpt lat="43.64199" lon="4.64031">
        <ele>54.834</ele>
        <time>2019-05-01T10:01:26Z</time>
      </trkpt>
      <trkpt lat="43.64204" lon="4.63955">
        <ele>54.228</ele>
        <time>2019-05-01T10:01:37Z</time>
      </trkpt>
      <trkpt lat="43.64211" lon="4.63879">
        <ele>54.507</ele>
        <time>2019-05-01T10:01:48Z</time>
      </trkpt>
      <trkpt lat="43.64216" lon="4.638">
        <ele>53.943</ele>
        <time>2019-05-01T10:01:59Z</time>
      </trkpt>
      <trkpt lat="43.64224" lon="4.63722">
        <ele>55.09</ele>
        <time>2019-05-01T10:02:10Z</time>
      </trkpt>
      <trkpt lat="43.6423" lon="4.63642">
        <ele>55.8</ele>
        <time>2019-05-01T10:02:21Z</time>
      </trkpt>
      <trkpt lat="43.64236" lon="4.63564">
        <ele>55.494</ele>
        <time>2019-05-01T10:02:32Z</time>
      </trkpt>
      <trkpt lat="43.64243" lon="4.63493">
        <ele>55.443</ele>
        <time>2019-05-01T10:02:42Z</time>
      </trkpt>
      <trkpt lat="43.64248" lon="4.63422">
        <ele>55.681</ele>
        <time>2019-05-01T10:02:52Z</time>
      </trkpt>
      <trkpt lat="43.64254" lon="4.63347">
        <ele>55.551</ele>
        <time>2019-05-01T10:03:03Z</time>
      </trkpt>
      <trkpt lat="43.64259" lon="4.63277">
        <ele>54.988</ele>
        <time>2019-05-01T10:03:13Z</time>
      </trkpt>
      <trkpt lat="43.64265" lon="4.63205">
        <ele>55.258</ele>
        <time>2019-05-01T10:03:24Z</time>
      </trkpt>
      <trkpt lat="43.64271" lon="4.6313">
        <ele>55.244</ele>
        <time>2019-05-01T10:03:35Z</time>
      </trkpt>
      <trkpt lat="43.64276" lon="4.63062">
        <ele>54.656</ele>
        <time>2019-05-01T10:03:45Z</time>
      </trkpt>
      <trkpt lat="43.64282" lon="4.62989">
        <ele>55.315</ele>
        <time>2019-05-01T10:03:56Z</time>
      </trkpt>
      <trkpt lat="43.64282" lon="4.62949">
        <ele>55.215</ele>
        <time>2019-05-01T10:04:06Z</time>
      </trkpt>
      <trkpt lat="43.64294" lon="4.62892">
        <ele>53.949</ele>
        <time>2019-05-01T10:04:17Z</time>
      </trkpt>
      <trkpt lat="43.64311" lon="4.62827">
        <ele>54.516</ele>
        <time>2019-05-01T10:04:28Z</time>
      </trkpt>
      <trkpt lat="43.64337" lon="4.62761">
        <ele>53.362</ele>
        <time>2019-05-01T10:04:39Z</time>
      </trkpt>
      <trkpt lat="43.64371" lon="4.62699">
        <ele>53.186</ele>
        <time>2019-05-01T10:04:50Z</time>
      </trkpt>
      <trkpt lat="43.64412" lon="4.62651">
        <ele>53.947</ele>
        <time>2019-05-01T10:05:00Z</time>
      </trkpt>
      <trkpt lat="43.6446" lon="4.62613">
        <ele>54.754</ele>
        <time>2019-05-01T10:05:11Z</time>
      </trkpt>
      <trkpt lat="43.6451" lon="4.62585">
        <ele>54.86</ele>
        <time>2019-05-01T10:05:22Z</time>
      </trkpt>
      <trkpt lat="43.64563" lon="4.62559">
        <ele>54.037</ele>
        <time>2019-05-01T10:05:33Z</time>
      </trkpt>
      <trkpt lat="43.64617" lon="4.62533">
        <ele>53.246</ele>
        <time>2019-05-01T10:05:44Z</time>
      </trkpt>
      <trkpt lat="43.6467" lon="4.62506">
        <ele>52.082</ele>
        <time>2019-05-01T10:05:55Z</time>
      </trkpt>
      <trkpt lat="43.64719" lon="4.6248">
        <ele>52.053</ele>
        <time>2019-05-01T10:06:05Z</time>
      </trkpt>
      <trkpt lat="43.6477" lon="4.62454">
        <ele>50.901</ele>
        <time>2019-05-01T10:06:15Z</time>
      </trkpt>
      <trkpt lat="43.64825" lon="4.62427">
        <ele>50.447</ele>
        <time>2019-05-01T10:06:26Z</time>
      </trkpt>
      <trkpt lat="43.64875" lon="4.62403">
        <ele>51.856</ele>
        <time>2019-05-01T10:06:36Z</time>
      </trkpt>
      <trkpt lat="43.64929" lon="4.62375">
        <ele>51.814</ele>
        <time>2019-05-01T10:06:47Z</time>
      </trkpt>
      <trkpt lat="43.64978" lon="4.6235">
        <ele>51.33</ele>
        <time>2019-05-01T10:06:57Z</time>
      </trkpt>
      <trkpt lat="43.65035" lon="4.62321">
        <ele>49.345</ele>
        <time>2019-05-01T10:07:08Z</time>
      </trkpt>
      <trkpt lat="43.65085" lon="4.62297">
        <ele>49.674</ele>
        <time>2019-05-01T10:07:18Z</time>
      </trkpt>
      <trkpt lat="43.65138" lon="4.62271">
        <ele>50.731</ele>
        <time>2019-05-01T10:07:29Z</time>
      </trkpt>
      <trkpt lat="43.65185" lon="4.62249">
        <ele>50.274</ele>
        <time>2019-05-01T10:07:39Z</time>
      </trkpt>
      <trkpt lat="43.65235" lon="4.62227">
        <ele>50.433</ele>
        <time>2019-05-01T10:07:50Z</time>
      </trkpt>
      <trkpt lat="43.65282" lon="4.62204">
        <ele>50.824</ele>
        <time>2019-05-01T10:08:01Z</time>
      </trkpt>
      <trkpt lat="43.65332" lon="4.62183">
        <ele>51.825</ele>
        <time>2019-05-01T10:08:12Z</time>
      </trkpt>
      <trkpt lat="43.65377" lon="4.62161">
        <ele>51.962</ele>
        <time>2019-05-01T10:08:22Z</time>
      </trkpt>
      <trkpt lat="43.65424" lon="4.62138">
        <ele>51.081</ele>
        <time>2019-05-01T10:08:32Z</time>
      </trkpt>
      <trkpt lat="43.65473" lon="4.62114">
        <ele>50.56</ele>
        <time>2019-05-01T10:08:43Z</time>
      </trkpt>
      <trkpt lat="43.65522" lon="4.6209">
        <ele>50.462</ele>
        <time>2019-05-01T10:08:54Z</time>
      </trkpt>
      <trkpt lat="43.65569" lon="4.62082">
        <ele>50.256</ele>
        <time>2019-05-01T10:09:05Z</time>
      </trkpt>
      <trkpt lat="43.65572" lon="4.62081">
        <ele>50.278</ele>
        <time>2019-05-01T10:09:15Z</time>
      </trkpt>
      <trkpt lat="43.65573" lon="4.62079">
        <ele>50.317</ele>
        <time>2019-05-01T10:09:26Z</time>
      </trkpt>
      <trkpt lat="43.65573" lon="4.6208">
        <ele>50.296</ele>
        <time>2019-05-01T10:09:36Z</time>
      </trkpt>
      <trkpt lat="43.65583" lon="4.62078">
        <ele>50.788</ele>
        <time>2019-05-01T10:09:46Z</time>
      </trkpt>
      <trkpt lat="43.65628" lon="4.62068">
        <ele>53.252</ele>
        <time>2019-05-01T10:09:57Z</time>
      </trkpt>
      <trkpt lat="43.65676" lon="4.62087">
        <ele>53.583</ele>
        <time>2019-05-01T10:10:08Z</time>
      </trkpt>
      <trkpt lat="43.6568" lon="4.62088">
        <ele>53.554</ele>
        <time>2019-05-01T10:10:19Z</time>
      </trkpt>
      <trkpt lat="43.6568" lon="4.62088">
        <ele>53.552</ele>
        <time>2019-05-01T10:10:30Z</time>
      </trkpt>
      <trkpt lat="43.6568" lon="4.62089">
        <ele>53.54</ele>
        <time>2019-05-01T10:10:41Z</time>
      </trkpt>
      <trkpt lat="43.65688" lon="4.62088">
        <ele>53.518</ele>
        <time>2019-05-01T10:10:52Z</time>
      </trkpt>
      <trkpt lat="43.6573" lon="4.62084">
        <ele>54.485</ele>
        <time>2019-05-01T10:11:02Z</time>
      </trkpt>
      <trkpt lat="43.65778" lon="4.62085">
        <ele>54.768</ele>
        <time>2019-05-01T10:11:12Z</time>
      </trkpt>
      <trkpt lat="43.65828" lon="4.6208">
        <ele>54.163</ele>
        <time>2019-05-01T10:11:23Z</time>
      </trkpt>
      <trkpt lat="43.65876" lon="4.62086">
        <ele>53.071</ele>
        <time>2019-05-01T10:11:34Z</time>
      </trkpt>
      <trkpt lat="43.65916" lon="4.62127">
        <ele>53.774</ele>
        <time>2019-05-01T10:11:44Z</time>
      </trkpt>
      <trkpt lat="43.6594" lon="4.62191">
        <ele>53.694</ele>
        <time>2019-05-01T10:11:55Z</time>
      </trkpt>
      <trkpt lat="43.65977" lon="4.62245">
        <ele>53.422</ele>
        <time>2019-05-01T10:12:06Z</time>
      </trkpt>
      <trkpt lat="43.66021" lon="4.6229">
        <ele>53.599</ele>
        <time>2019-05-01T10:12:16Z</time>
      </trkpt>
      <trkpt lat="43.66066" lon="4.62334">
        <ele>56.683</ele>
        <time>2019-05-01T10:12:27Z</time>
      </trkpt>
      <trkpt lat="43.66115" lon="4.62381">
        <ele>55.567</ele>
        <time>2019-05-01T10:12:38Z</time>
      </trkpt>
      <trkpt lat="43.66165" lon="4.62425">
        <ele>51.436</ele>
        <time>2019-05-01T10:12:49Z</time>
      </trkpt>
      <trkpt lat="43.662" lon="4.62466">
        <ele>53.358</ele>
        <time>2019-05-01T10:12:59Z</time>
      </trkpt>
      <trkpt lat="43.66239" lon="4.62504">
        <ele>53.574</ele>
        <time>2019-05-01T10:13:09Z</time>
      </trkpt>
      <trkpt lat="43.66279" lon="4.62545">
        <ele>53.547</ele>
        <time>2019-05-01T10:13:20Z</time>
      </trkpt>
      <trkpt lat="43.6632" lon="4.62585">
        <ele>53.961</ele>
        <time>2019-05-01T10:13:31Z</time>
      </trkpt>
      <trkpt lat="43.66361" lon="4.62626">
        <ele>54.635</ele>
        <time>2019-05-01T10:13:42Z</time>
      </trkpt>
      <trkpt lat="43.664" lon="4.62664">
        <ele>56.462</ele>
        <time>2019-05-01T10:13:53Z</time>
      </trkpt>
      <trkpt lat="43.66437" lon="4.62703">
        <ele>56.755</ele>
        <time>2019-05-01T10:14:03Z</time>
      </trkpt>
      <trkpt lat="43.6648" lon="4.62737">
        <ele>54.62</ele>
        <time>2019-05-01T10:14:14Z</time>
      </trkpt>
      <trkpt lat="43.66524" lon="4.62755">
        <ele>52.834</ele>
        <time>2019-05-01T10:14:25Z</time>
      </trkpt>
      <trkpt lat="43.66568" lon="4.6276">
        <ele>53.681</ele>
        <time>2019-05-01T10:14:35Z</time>
      </trkpt>
      <trkpt lat="43.66619" lon="4.62752">
        <ele>50.859</ele>
        <time>2019-05-01T10:14:45Z</time>
      </trkpt>
      <trkpt lat="43.66669" lon="4.62744">
        <ele>53.124</ele>
        <time>2019-05-01T10:14:56Z</time>
      </trkpt>
      <trkpt lat="43.66709" lon="4.6272">
        <ele>54.286</ele>
        <time>2019-05-01T10:15:06Z</time>
      </trkpt>
      <trkpt lat="43.66748" lon="4.62672">
        <ele>52.829</ele>
        <time>2019-05-01T10:15:17Z</time>
      </trkpt>
      <trkpt lat="43.66791" lon="4.62623">
        <ele>50.86</ele>
        <time>2019-05-01T10:15:28Z</time>
      </trkpt>
      <trkpt lat="43.66827" lon="4.6261">
        <ele>50.93</ele>
        <time>2019-05-01T10:15:39Z</time>
      </trkpt>
      <trkpt lat="43.66866" lon="4.6256">
        <ele>50.563</ele>
        <time>2019-05-01T10:15:50Z</time>
      </trkpt>
      <trkpt lat="43.66897" lon="4.6252">
        <ele>50.342</ele>
        <time>2019-05-01T10:16:01Z</time>
      </trkpt>
      <trkpt lat="43.6693" lon="4.6248">
        <ele>51.853</ele>
        <time>2019-05-01T10:16:11Z</time>
      </trkpt>
      <trkpt lat="43.66965" lon="4.62442">
        <ele>53.743</ele>
        <time>2019-05-01T10:16:21Z</time>
      </trkpt>
      <trkpt lat="43.67005" lon="4.62395">
        <ele>54.671</ele>
        <time>2019-05-01T10:16:32Z</time>
      </trkpt>
      <trkpt lat="43.67038" lon="4.62353">
        <ele>53.084</ele>
        <time>2019-05-01T10:16:42Z</time>
      </trkpt>
      <trkpt lat="43.67074" lon="4.62304">
        <ele>52.926</ele>
        <time>2019-05-01T10:16:53Z</time>
      </trkpt>
      <trkpt lat="43.67104" lon="4.62259">
        <ele>53.497</ele>
        <time>2019-05-01T10:17:04Z</time>
      </trkpt>
      <trkpt lat="43.67072" lon="4.62226">
        <ele>52.693</ele>
        <time>2019-05-01T10:17:14Z</time>
      </trkpt>
      <trkpt lat="43.6707" lon="4.6218">
        <ele>52.576</ele>
        <time>2019-05-01T10:17:24Z</time>
      </trkpt>
      <trkpt lat="43.67093" lon="4.62196">
        <ele>53.163</ele>
        <time>2019-05-01T10:17:35Z</time>
      </trkpt>
      <trkpt lat="43.67117" lon="4.62225">
        <ele>54.014</ele>
        <time>2019-05-01T10:17:46Z</time>
      </trkpt>
      <trkpt lat="43.67139" lon="4.62257">
        <ele>54.735</ele>
        <time>2019-05-01T10:17:56Z</time>
      </trkpt>
      <trkpt lat="43.67165" lon="4.62301">
        <ele>58.076</ele>
        <time>2019-05-01T10:18:07Z</time>
      </trkpt>
      <trkpt lat="43.67196" lon="4.62333">
        <ele>60.343</ele>
        <time>2019-05-01T10:18:17Z</time>
      </trkpt>
      <trkpt lat="43.67217" lon="4.62347">
        <ele>61.54</ele>
        <time>2019-05-01T10:18:27Z</time>
      </trkpt>
      <trkpt lat="43.67222" lon="4.62348">
        <ele>61.608</ele>
        <time>2019-05-01T10:18:38Z</time>
      </trkpt>
      <trkpt lat="43.67222" lon="4.62348">
        <ele>61.559</ele>
        <time>2019-05-01T10:18:48Z</time>
      </trkpt>
      <trkpt lat="43.67225" lon="4.62344">
        <ele>61.181</ele>
        <time>2019-05-01T10:18:59Z</time>
      </trkpt>
      <trkpt lat="43.67224" lon="4.62338">
        <ele>60.909</ele>
        <time>2019-05-01T10:19:09Z</time>
      </trkpt>
      <trkpt lat="43.67218" lon="4.62316">
        <ele>60.296</ele>
        <time>2019-05-01T10:19:20Z</time>
      </trkpt>
      <trkpt lat="43.67255" lon="4.62272">
        <ele>55.813</ele>
        <time>2019-05-01T10:19:31Z</time>
      </trkpt>
      <trkpt lat="43.67298" lon="4.62225">
        <ele>53.932</ele>
        <time>2019-05-01T10:19:42Z</time>
      </trkpt>
      <trkpt lat="43.67307" lon="4.62214">
        <ele>53.654</ele>
        <time>2019-05-01T10:19:52Z</time>
      </trkpt>
      <trkpt lat="43.67309" lon="4.62214">
        <ele>53.479</ele>
        <time>2019-05-01T10:20:03Z</time>
      </trkpt>
      <trkpt lat="43.67308" lon="4.62216">
        <ele>54.135</ele>
        <time>2019-05-01T10:20:14Z</time>
      </trkpt>
      <trkpt lat="43.67307" lon="4.62211">
        <ele>54.684</ele>
        <time>2019-05-01T10:20:24Z</time>
      </trkpt>
      <trkpt lat="43.6732" lon="4.62197">
        <ele>54.878</ele>
        <time>2019-05-01T10:20:34Z</time>
      </trkpt>
      <trkpt lat="43.67345" lon="4.6216">
        <ele>55.465</ele>
        <time>2019-05-01T10:20:45Z</time>
      </trkpt>
      <trkpt lat="43.67365" lon="4.6211">
        <ele>55.727</ele>
        <time>2019-05-01T10:20:56Z</time>
      </trkpt>
      <trkpt lat="43.67391" lon="4.62122">
        <ele>55.613</ele>
        <time>2019-05-01T10:21:06Z</time>
      </trkpt>
      <trkpt lat="43.67406" lon="4.62184">
        <ele>56.61</ele>
        <time>2019-05-01T10:21:17Z</time>
      </trkpt>
      <trkpt lat="43.67429" lon="4.62244">
        <ele>54.967</ele>
        <time>2019-05-01T10:21:28Z</time>
      </trkpt>
      <trkpt lat="43.67448" lon="4.62293">
        <ele>55.254</ele>
        <time>2019-05-01T10:21:39Z</time>
      </trkpt>
      <trkpt lat="43.67461" lon="4.62327">
        <ele>55.312</ele>
        <time>2019-05-01T10:21:50Z</time>
      </trkpt>
      <trkpt lat="43.67464" lon="4.62341">
        <ele>56.169</ele>
        <time>2019-05-01T10:22:01Z</time>
      </trkpt>
      <trkpt lat="43.67479" lon="4.62403">
        <ele>54.463</ele>
        <time>2019-05-01T10:22:12Z</time>
      </trkpt>
      <trkpt lat="43.67489" lon="4.62464">
        <ele>54.229</ele>
        <time>2019-05-01T10:22:22Z</time>
      </trkpt>
      <trkpt lat="43.67489" lon="4.6248">
        <ele>53.929</ele>
        <time>2019-05-01T10:22:32Z</time>
      </trkpt>
      <trkpt lat="43.67488" lon="4.62515">
        <ele>54.457</ele>
        <time>2019-05-01T10:22:43Z</time>
      </trkpt>
      <trkpt lat="43.67494" lon="4.62567">
        <ele>54.781</ele>
        <time>2019-05-01T10:22:54Z</time>
      </trkpt>
      <trkpt lat="43.675" lon="4.62628">
        <ele>56.271</ele>
        <time>2019-05-01T10:23:04Z</time>
      </trkpt>
      <trkpt lat="43.67514" lon="4.62673">
        <ele>57.831</ele>
        <time>2019-05-01T10:23:15Z</time>
      </trkpt>
      <trkpt lat="43.67518" lon="4.62727">
        <ele>59.756</ele>
        <time>2019-05-01T10:23:26Z</time>
      </trkpt>
      <trkpt lat="43.67527" lon="4.62779">
        <ele>60.363</ele>
        <time>2019-05-01T10:23:37Z</time>
      </trkpt>
      <trkpt lat="43.67529" lon="4.62822">
        <ele>60.769</ele>
        <time>2019-05-01T10:23:47Z</time>
      </trkpt>
      <trkpt lat="43.67529" lon="4.62879">
        <ele>62.239</ele>
        <time>2019-05-01T10:23:58Z</time>
      </trkpt>
      <trkpt lat="43.67524" lon="4.62931">
        <ele>66.005</ele>
        <time>2019-05-01T10:24:08Z</time>
      </trkpt>
      <trkpt lat="43.67524" lon="4.62993">
        <ele>66.675</ele>
        <time>2019-05-01T10:24:19Z</time>
      </trkpt>
      <trkpt lat="43.67522" lon="4.63031">
        <ele>66.067</ele>
        <time>2019-05-01T10:24:29Z</time>
      </trkpt>
      <trkpt lat="43.67511" lon="4.63081">
        <ele>66.73</ele>
        <time>2019-05-01T10:24:39Z</time>
      </trkpt>
      <trkpt lat="43.67513" lon="4.63136">
        <ele>67.095</ele>
        <time>2019-05-01T10:24:49Z</time>
      </trkpt>
      <trkpt lat="43.67505" lon="4.63195">
        <ele>67.827</ele>
        <time>2019-05-01T10:25:00Z</time>
      </trkpt>
      <trkpt lat="43.67521" lon="4.63237">
        <ele>67.954</ele>
        <time>2019-05-01T10:25:10Z</time>
      </trkpt>
      <trkpt lat="43.67536" lon="4.63187">
        <ele>67.477</ele>
        <time>2019-05-01T10:25:21Z</time>
      </trkpt>
      <trkpt lat="43.67556" lon="4.63141">
        <ele>67.399</ele>
        <time>2019-05-01T10:25:32Z</time>
      </trkpt>
      <trkpt lat="43.67573" lon="4.63097">
        <ele>67.026</ele>
        <time>2019-05-01T10:25:43Z</time>
      </trkpt>
      <trkpt lat="43.67585" lon="4.63055">
        <ele>68.01</ele>
        <time>2019-05-01T10:25:54Z</time>
      </trkpt>
      <trkpt lat="43.67598" lon="4.63035">
        <ele>69.145</ele>
        <time>2019-05-01T10:26:04Z</time>
      </trkpt>
      <trkpt lat="43.67622" lon="4.63043">
        <ele>71.774</ele>
        <time>2019-05-01T10:26:15Z</time>
      </trkpt>
      <trkpt lat="43.67651" lon="4.63052">
        <ele>74.39</ele>
        <time>2019-05-01T10:26:25Z</time>
      </trkpt>
      <trkpt lat="43.67672" lon="4.63043">
        <ele>75.032</ele>
        <time>2019-05-01T10:26:36Z</time>
      </trkpt>
      <trkpt lat="43.67672" lon="4.63039">
        <ele>75.515</ele>
        <time>2019-05-01T10:26:47Z</time>
      </trkpt>
      <trkpt lat="43.6767" lon="4.63044">
        <ele>75.996</ele>
        <time>2019-05-01T10:26:57Z</time>
      </trkpt>
      <trkpt lat="43.67672" lon="4.63043">
        <ele>75.729</ele>
        <time>2019-05-01T10:27:07Z</time>
      </trkpt>
      <trkpt lat="43.67674" lon="4.63043">
        <ele>75.48</ele>
        <time>2019-05-01T10:27:18Z</time>
      </trkpt>
      <trkpt lat="43.67685" lon="4.63047">
        <ele>78.416</ele>
        <time>2019-05-01T10:27:28Z</time>
      </trkpt>
      <trkpt lat="43.67687" lon="4.63048">
        <ele>79.124</ele>
        <time>2019-05-01T10:27:39Z</time>
      </trkpt>
      <trkpt lat="43.67681" lon="4.63043">
        <ele>79.406</ele>
        <time>2019-05-01T10:27:50Z</time>
      </trkpt>
      <trkpt lat="43.67675" lon="4.63037">
        <ele>80.341</ele>
        <time>2019-05-01T10:28:01Z</time>
      </trkpt>
      <trkpt lat="43.6767" lon="4.63039">
        <ele>81.895</ele>
        <time>2019-05-01T10:28:11Z</time>
      </trkpt>
      <trkpt lat="43.6767" lon="4.63038">
        <ele>82.883</ele>
        <time>2019-05-01T10:28:22Z</time>
      </trkpt>
      <trkpt lat="43.67672" lon="4.63038">
        <ele>83.149</ele>
        <time>2019-05-01T10:28:33Z</time>
      </trkpt>
      <trkpt lat="43.6767" lon="4.63039">
        <ele>83.711</ele>
        <time>2019-05-01T10:28:44Z</time>
      </trkpt>
      <trkpt lat="43.67672" lon="4.63037">
        <ele>85.344</ele>
        <time>2019-05-01T10:28:54Z</time>
      </trkpt>
      <trkpt lat="43.67675" lon="4.63039">
        <ele>85.809</ele>
        <time>2019-05-01T10:29:05Z</time>
      </trkpt>
      <trkpt lat="43.67673" lon="4.63046">
        <ele>85.537</ele>
        <time>2019-05-01T10:29:15Z</time>
      </trkpt>
      <trkpt lat="43.67674" lon="4.63046">
        <ele>85.093</ele>
        <time>2019-05-01T10:29:26Z</time>
      </trkpt>
      <trkpt lat="43.67675" lon="4.63045">
        <ele>83.773</ele>
        <time>2019-05-01T10:29:36Z</time>
      </trkpt>
      <trkpt lat="43.67675" lon="4.63052">
        <ele>82.682</ele>
        <time>2019-05-01T10:29:46Z</time>
      </trkpt>
      <trkpt lat="43.67684" lon="4.6306">
        <ele>81.651</ele>
        <time>2019-05-01T10:29:57Z</time>
      </trkpt>
      <trkpt lat="43.67694" lon="4.63067">
        <ele>81.072</ele>
        <time>2019-05-01T10:30:09Z</time>
      </trkpt>
      <trkpt lat="43.67697" lon="4.6307">
        <ele>80.919</ele>
        <time>2019-05-01T10:30:22Z</time>
      </trkpt>
      <trkpt lat="43.67695" lon="4.63069">
        <ele>81.98</ele>
        <time>2019-05-01T10:30:33Z</time>
      </trkpt>
      <trkpt lat="43.67694" lon="4.63071">
        <ele>85.584</ele>
        <time>2019-05-01T10:30:44Z</time>
      </trkpt>
      <trkpt lat="43.67694" lon="4.63071">
        <ele>87.458</ele>
        <time>2019-05-01T10:30:54Z</time>
      </trkpt>
      <trkpt lat="43.67691" lon="4.63074">
        <ele>88.369</ele>
        <time>2019-05-01T10:31:05Z</time>
      </trkpt>
      <trkpt lat="43.67684" lon="4.63071">
        <ele>88.434</ele>
        <time>2019-05-01T10:31:16Z</time>
      </trkpt>
      <trkpt lat="43.67667" lon="4.63065">
        <ele>84.803</ele>
        <time>2019-05-01T10:31:27Z</time>
      </trkpt>
      <trkpt lat="43.67664" lon="4.63063">
        <ele>81.839</ele>
        <time>2019-05-01T10:31:38Z</time>
      </trkpt>
      <trkpt lat="43.67664" lon="4.63058">
        <ele>78.679</ele>
        <time>2019-05-01T10:31:48Z</time>
      </trkpt>
      <trkpt lat="43.67668" lon="4.63052">
        <ele>76.585</ele>
        <time>2019-05-01T10:31:59Z</time>
      </trkpt>
      <trkpt lat="43.67667" lon="4.63051">
        <ele>76.195</ele>
        <time>2019-05-01T10:32:09Z</time>
      </trkpt>
      <trkpt lat="43.67669" lon="4.63046">
        <ele>75.504</ele>
        <time>2019-05-01T10:32:20Z</time>
      </trkpt>
      <trkpt lat="43.67669" lon="4.63044">
        <ele>75.465</ele>
        <time>2019-05-01T10:32:31Z</time>
      </trkpt>
      <trkpt lat="43.67666" lon="4.63046">
        <ele>75.224</ele>
        <time>2019-05-01T10:32:42Z</time>
      </trkpt>
      <trkpt lat="43.67666" lon="4.63045">
        <ele>75.282</ele>
        <time>2019-05-01T10:32:53Z</time>
      </trkpt>
    </trkseg>
  </trk>
</gpx>